<?xml version="1.0" encoding="UTF-8" standalone="no" ?>
<gpx xmlns="http://www.topografix.com/GPX/1/1" xmlns:xsi="http://www.w3.org/2001/XMLSchema-instance" xsi:schemaLocation="http://www.topografix.com/GPX/1/1 http://www.topografix.com/GPX/1/1/gpx.xsd" version="1.1" creator="VisuGPX - https://www.visugpx.com">
  <metadata>
    <name>POULDU 2020</name>
    <desc><![CDATA[<p>Heure de départ: 10:56 8 juil. 2020<br/>Heure d'arrivée: 15:36 8 juil. 2020<br/>Distance: 52,8 km (04:39)<br/>Temps déplacement: 03:29<br/>Vitesse moyenne: 11,31 km/h<br/>Vitesse moyenne mouv.: 15,14 km/h<br/>Vitesse Max.: 37,8 km/h<br/>Altitude minimale: 0 m<br/>Altitude maximale: 57 m<br/>Vitesse de montée: 327,7 m/h<br/>Vitesse de descente: 516,2 m/h<br/>Gain d'altitude: 922 m<br/>Perte d'altitude: 905 m<br/>Temps de montée: 02:48<br/>Temps de descente: 01:45<br/></p><hr align="center" width="480" style="height: 2px; width: 517px"/>]]></desc>
  </metadata>
  <wpt lat="47.77261" lon="-3.55107">
    <ele>35.17</ele>
    <name><![CDATA[0001685]]></name>
    <desc><![CDATA[<p><br /><h3>Nom: Segment: 1</h3><br />Heure de départ: 10:37 10 juil. 2020<br/>Heure d'arrivée: 16:00 10 juil. 2020<br/>Distance: 74,7km (05:22)<br/>Temps déplacement: 04:31<br/>Vitesse moyenne: 13,88 km/h<br/>Vitesse moyenne mouv.: 16,48 km/h<br/>Vitesse Max.: 41,23 km/h<br/>Altitude minimale: 0 m<br/>Altitude maximale: 68 m<br/>Vitesse de montée: 346,3 m/h<br/>Vitesse de descente: 434,1 m/h<br/>Gain d'altitude: 1018 m<br/>Perte d'altitude: 1044 m<br/>Temps de montée: 02:56<br/>Temps de descente: 02:24<br/></p>]]></desc>
    <cmt><![CDATA[<p><br /><h3>Nom: Segment: 1</h3><br />Heure de départ: 10:37 10 juil. 2020<br/>Heure d'arrivée: 16:00 10 juil. 2020<br/>Distance: 74,7km (05:22)<br/>Temps déplacement: 04:31<br/>Vitesse moyenne: 13,88 km/h<br/>Vitesse moyenne mouv.: 16,48 km/h<br/>Vitesse Max.: 41,23 km/h<br/>Altitude minimale: 0 m<br/>Altitude maximale: 68 m<br/>Vitesse de montée: 346,3 m/h<br/>Vitesse de descente: 434,1 m/h<br/>Gain d'altitude: 1018 m<br/>Perte d'altitude: 1044 m<br/>Temps de montée: 02:56<br/>Temps de descente: 02:24<br/></p>]]></cmt>
    <type><![CDATA[user]]></type>
  </wpt>
  <trk>
    <name><![CDATA[2020-07-10 10:37:28]]></name>
    <desc><![CDATA[<p>Heure de départ: 10:37 10 juil. 2020<br/>Heure d'arrivée: 16:00 10 juil. 2020<br/>Distance: 74,7 km (05:22)<br/>Temps déplacement: 04:31<br/>Vitesse moyenne: 13,88 km/h<br/>Vitesse moyenne mouv.: 16,48 km/h<br/>Vitesse Max.: 41,23 km/h<br/>Altitude minimale: 0 m<br/>Altitude maximale: 68 m<br/>Vitesse de montée: 346,3 m/h<br/>Vitesse de descente: 434,1 m/h<br/>Gain d'altitude: 1018 m<br/>Perte d'altitude: 1044 m<br/>Temps de montée: 02:56<br/>Temps de descente: 02:24<br/></p><hr align="center" width="480" style="height: 2px; width: 517px"/>]]></desc>
    <trkseg>
      <trkpt lat="47.77268" lon="-3.55093">
        <ele>34.56</ele>
        <time>2020-07-10T08:37:30Z</time>
      </trkpt>
      <trkpt lat="47.77268" lon="-3.55092">
        <ele>34.54</ele>
        <time>2020-07-10T08:37:31Z</time>
      </trkpt>
      <trkpt lat="47.77268" lon="-3.55092">
        <ele>34.54</ele>
        <time>2020-07-10T08:37:32Z</time>
      </trkpt>
      <trkpt lat="47.77269" lon="-3.55094">
        <ele>34.59</ele>
        <time>2020-07-10T08:37:33Z</time>
      </trkpt>
      <trkpt lat="47.77269" lon="-3.55093">
        <ele>34.58</ele>
        <time>2020-07-10T08:37:34Z</time>
      </trkpt>
      <trkpt lat="47.77269" lon="-3.55092">
        <ele>34.53</ele>
        <time>2020-07-10T08:37:35Z</time>
      </trkpt>
      <trkpt lat="47.77269" lon="-3.55092">
        <ele>34.54</ele>
        <time>2020-07-10T08:37:36Z</time>
      </trkpt>
      <trkpt lat="47.7727" lon="-3.55092">
        <ele>34.55</ele>
        <time>2020-07-10T08:37:37Z</time>
      </trkpt>
      <trkpt lat="47.77267" lon="-3.55091">
        <ele>34.48</ele>
        <time>2020-07-10T08:37:38Z</time>
      </trkpt>
      <trkpt lat="47.77267" lon="-3.55093">
        <ele>34.52</ele>
        <time>2020-07-10T08:37:38Z</time>
      </trkpt>
      <trkpt lat="47.77267" lon="-3.55093">
        <ele>34.54</ele>
        <time>2020-07-10T08:37:39Z</time>
      </trkpt>
      <trkpt lat="47.77268" lon="-3.55092">
        <ele>34.54</ele>
        <time>2020-07-10T08:37:39Z</time>
      </trkpt>
      <trkpt lat="47.7727" lon="-3.55091">
        <ele>34.49</ele>
        <time>2020-07-10T08:37:41Z</time>
      </trkpt>
      <trkpt lat="47.77271" lon="-3.55089">
        <ele>34.41</ele>
        <time>2020-07-10T08:37:42Z</time>
      </trkpt>
      <trkpt lat="47.77273" lon="-3.55088">
        <ele>34.32</ele>
        <time>2020-07-10T08:37:43Z</time>
      </trkpt>
      <trkpt lat="47.77274" lon="-3.55085">
        <ele>34.17</ele>
        <time>2020-07-10T08:37:44Z</time>
      </trkpt>
      <trkpt lat="47.77275" lon="-3.55082">
        <ele>34.02</ele>
        <time>2020-07-10T08:37:45Z</time>
      </trkpt>
      <trkpt lat="47.77277" lon="-3.55081">
        <ele>33.94</ele>
        <time>2020-07-10T08:37:46Z</time>
      </trkpt>
      <trkpt lat="47.77279" lon="-3.55079">
        <ele>33.87</ele>
        <time>2020-07-10T08:37:47Z</time>
      </trkpt>
      <trkpt lat="47.77281" lon="-3.55077">
        <ele>33.78</ele>
        <time>2020-07-10T08:37:48Z</time>
      </trkpt>
      <trkpt lat="47.77283" lon="-3.55075">
        <ele>33.68</ele>
        <time>2020-07-10T08:37:49Z</time>
      </trkpt>
      <trkpt lat="47.77284" lon="-3.55072">
        <ele>33.56</ele>
        <time>2020-07-10T08:37:50Z</time>
      </trkpt>
      <trkpt lat="47.77284" lon="-3.5507">
        <ele>33.45</ele>
        <time>2020-07-10T08:37:51Z</time>
      </trkpt>
      <trkpt lat="47.77286" lon="-3.55067">
        <ele>33.3</ele>
        <time>2020-07-10T08:37:52Z</time>
      </trkpt>
      <trkpt lat="47.77286" lon="-3.55063">
        <ele>33.13</ele>
        <time>2020-07-10T08:37:53Z</time>
      </trkpt>
      <trkpt lat="47.77286" lon="-3.55059">
        <ele>32.95</ele>
        <time>2020-07-10T08:37:54Z</time>
      </trkpt>
      <trkpt lat="47.77286" lon="-3.55055">
        <ele>32.78</ele>
        <time>2020-07-10T08:37:55Z</time>
      </trkpt>
      <trkpt lat="47.77285" lon="-3.55052">
        <ele>32.58</ele>
        <time>2020-07-10T08:37:56Z</time>
      </trkpt>
      <trkpt lat="47.77285" lon="-3.55047">
        <ele>32.31</ele>
        <time>2020-07-10T08:37:57Z</time>
      </trkpt>
      <trkpt lat="47.77285" lon="-3.55042">
        <ele>32.02</ele>
        <time>2020-07-10T08:37:58Z</time>
      </trkpt>
      <trkpt lat="47.77285" lon="-3.55036">
        <ele>31.69</ele>
        <time>2020-07-10T08:37:59Z</time>
      </trkpt>
      <trkpt lat="47.77285" lon="-3.55031">
        <ele>31.36</ele>
        <time>2020-07-10T08:38:00Z</time>
      </trkpt>
      <trkpt lat="47.77286" lon="-3.55026">
        <ele>31.08</ele>
        <time>2020-07-10T08:38:01Z</time>
      </trkpt>
      <trkpt lat="47.77287" lon="-3.55022">
        <ele>30.86</ele>
        <time>2020-07-10T08:38:02Z</time>
      </trkpt>
      <trkpt lat="47.77288" lon="-3.55016">
        <ele>30.65</ele>
        <time>2020-07-10T08:38:03Z</time>
      </trkpt>
      <trkpt lat="47.77289" lon="-3.5501">
        <ele>30.45</ele>
        <time>2020-07-10T08:38:04Z</time>
      </trkpt>
      <trkpt lat="47.7729" lon="-3.55004">
        <ele>30.23</ele>
        <time>2020-07-10T08:38:05Z</time>
      </trkpt>
      <trkpt lat="47.77291" lon="-3.54998">
        <ele>29.98</ele>
        <time>2020-07-10T08:38:06Z</time>
      </trkpt>
      <trkpt lat="47.77293" lon="-3.54992">
        <ele>29.71</ele>
        <time>2020-07-10T08:38:07Z</time>
      </trkpt>
      <trkpt lat="47.77294" lon="-3.54988">
        <ele>29.48</ele>
        <time>2020-07-10T08:38:08Z</time>
      </trkpt>
      <trkpt lat="47.77293" lon="-3.54986">
        <ele>29.32</ele>
        <time>2020-07-10T08:38:09Z</time>
      </trkpt>
      <trkpt lat="47.77293" lon="-3.54983">
        <ele>29.19</ele>
        <time>2020-07-10T08:38:10Z</time>
      </trkpt>
      <trkpt lat="47.77293" lon="-3.5498">
        <ele>29.05</ele>
        <time>2020-07-10T08:38:11Z</time>
      </trkpt>
      <trkpt lat="47.77294" lon="-3.54977">
        <ele>28.89</ele>
        <time>2020-07-10T08:38:12Z</time>
      </trkpt>
      <trkpt lat="47.77295" lon="-3.54973">
        <ele>28.74</ele>
        <time>2020-07-10T08:38:13Z</time>
      </trkpt>
      <trkpt lat="47.77296" lon="-3.5497">
        <ele>28.61</ele>
        <time>2020-07-10T08:38:14Z</time>
      </trkpt>
      <trkpt lat="47.77296" lon="-3.54967">
        <ele>28.52</ele>
        <time>2020-07-10T08:38:15Z</time>
      </trkpt>
      <trkpt lat="47.77298" lon="-3.54968">
        <ele>28.54</ele>
        <time>2020-07-10T08:38:16Z</time>
      </trkpt>
      <trkpt lat="47.773" lon="-3.54969">
        <ele>28.63</ele>
        <time>2020-07-10T08:38:17Z</time>
      </trkpt>
      <trkpt lat="47.77302" lon="-3.5497">
        <ele>28.74</ele>
        <time>2020-07-10T08:38:18Z</time>
      </trkpt>
      <trkpt lat="47.77305" lon="-3.54971">
        <ele>28.86</ele>
        <time>2020-07-10T08:38:19Z</time>
      </trkpt>
      <trkpt lat="47.77306" lon="-3.54971">
        <ele>28.93</ele>
        <time>2020-07-10T08:38:20Z</time>
      </trkpt>
      <trkpt lat="47.77308" lon="-3.5497">
        <ele>28.92</ele>
        <time>2020-07-10T08:38:21Z</time>
      </trkpt>
      <trkpt lat="47.77309" lon="-3.54964">
        <ele>28.77</ele>
        <time>2020-07-10T08:38:22Z</time>
      </trkpt>
      <trkpt lat="47.77311" lon="-3.54959">
        <ele>28.61</ele>
        <time>2020-07-10T08:38:23Z</time>
      </trkpt>
      <trkpt lat="47.77313" lon="-3.54955">
        <ele>28.44</ele>
        <time>2020-07-10T08:38:24Z</time>
      </trkpt>
      <trkpt lat="47.77315" lon="-3.5495">
        <ele>28.28</ele>
        <time>2020-07-10T08:38:25Z</time>
      </trkpt>
      <trkpt lat="47.77317" lon="-3.54946">
        <ele>28.13</ele>
        <time>2020-07-10T08:38:26Z</time>
      </trkpt>
      <trkpt lat="47.77319" lon="-3.54943">
        <ele>28.04</ele>
        <time>2020-07-10T08:38:27Z</time>
      </trkpt>
      <trkpt lat="47.77321" lon="-3.54939">
        <ele>28.01</ele>
        <time>2020-07-10T08:38:28Z</time>
      </trkpt>
      <trkpt lat="47.77322" lon="-3.54936">
        <ele>28</ele>
        <time>2020-07-10T08:38:29Z</time>
      </trkpt>
      <trkpt lat="47.77322" lon="-3.54934">
        <ele>28</ele>
        <time>2020-07-10T08:38:30Z</time>
      </trkpt>
      <trkpt lat="47.77322" lon="-3.54933">
        <ele>28</ele>
        <time>2020-07-10T08:38:31Z</time>
      </trkpt>
      <trkpt lat="47.77322" lon="-3.54932">
        <ele>28</ele>
        <time>2020-07-10T08:38:32Z</time>
      </trkpt>
      <trkpt lat="47.77322" lon="-3.5493">
        <ele>28</ele>
        <time>2020-07-10T08:38:33Z</time>
      </trkpt>
      <trkpt lat="47.77321" lon="-3.54927">
        <ele>28</ele>
        <time>2020-07-10T08:38:34Z</time>
      </trkpt>
      <trkpt lat="47.7732" lon="-3.54924">
        <ele>28</ele>
        <time>2020-07-10T08:38:35Z</time>
      </trkpt>
      <trkpt lat="47.77318" lon="-3.54921">
        <ele>28</ele>
        <time>2020-07-10T08:38:36Z</time>
      </trkpt>
      <trkpt lat="47.77318" lon="-3.54918">
        <ele>28</ele>
        <time>2020-07-10T08:38:37Z</time>
      </trkpt>
      <trkpt lat="47.77317" lon="-3.54915">
        <ele>28.04</ele>
        <time>2020-07-10T08:38:38Z</time>
      </trkpt>
      <trkpt lat="47.77317" lon="-3.54912">
        <ele>28.13</ele>
        <time>2020-07-10T08:38:39Z</time>
      </trkpt>
      <trkpt lat="47.77317" lon="-3.54909">
        <ele>28.23</ele>
        <time>2020-07-10T08:38:40Z</time>
      </trkpt>
      <trkpt lat="47.77318" lon="-3.54905">
        <ele>28.36</ele>
        <time>2020-07-10T08:38:41Z</time>
      </trkpt>
      <trkpt lat="47.77319" lon="-3.54903">
        <ele>28.46</ele>
        <time>2020-07-10T08:38:42Z</time>
      </trkpt>
      <trkpt lat="47.7732" lon="-3.54901">
        <ele>28.54</ele>
        <time>2020-07-10T08:38:43Z</time>
      </trkpt>
      <trkpt lat="47.77321" lon="-3.549">
        <ele>28.59</ele>
        <time>2020-07-10T08:38:44Z</time>
      </trkpt>
      <trkpt lat="47.77323" lon="-3.54898">
        <ele>28.65</ele>
        <time>2020-07-10T08:38:45Z</time>
      </trkpt>
      <trkpt lat="47.77325" lon="-3.54896">
        <ele>28.73</ele>
        <time>2020-07-10T08:38:46Z</time>
      </trkpt>
      <trkpt lat="47.77326" lon="-3.54894">
        <ele>28.8</ele>
        <time>2020-07-10T08:38:47Z</time>
      </trkpt>
      <trkpt lat="47.77327" lon="-3.54891">
        <ele>28.9</ele>
        <time>2020-07-10T08:38:48Z</time>
      </trkpt>
      <trkpt lat="47.77327" lon="-3.54888">
        <ele>29</ele>
        <time>2020-07-10T08:38:49Z</time>
      </trkpt>
      <trkpt lat="47.77326" lon="-3.54884">
        <ele>29.11</ele>
        <time>2020-07-10T08:38:50Z</time>
      </trkpt>
      <trkpt lat="47.77326" lon="-3.54881">
        <ele>29.23</ele>
        <time>2020-07-10T08:38:51Z</time>
      </trkpt>
      <trkpt lat="47.77327" lon="-3.54878">
        <ele>29.35</ele>
        <time>2020-07-10T08:38:52Z</time>
      </trkpt>
      <trkpt lat="47.77327" lon="-3.54875">
        <ele>29.47</ele>
        <time>2020-07-10T08:38:53Z</time>
      </trkpt>
      <trkpt lat="47.77327" lon="-3.5487">
        <ele>29.61</ele>
        <time>2020-07-10T08:38:54Z</time>
      </trkpt>
      <trkpt lat="47.77328" lon="-3.54866">
        <ele>29.75</ele>
        <time>2020-07-10T08:38:55Z</time>
      </trkpt>
      <trkpt lat="47.77328" lon="-3.54862">
        <ele>29.89</ele>
        <time>2020-07-10T08:38:56Z</time>
      </trkpt>
      <trkpt lat="47.77329" lon="-3.54857">
        <ele>29.97</ele>
        <time>2020-07-10T08:38:57Z</time>
      </trkpt>
      <trkpt lat="47.77329" lon="-3.54853">
        <ele>29.99</ele>
        <time>2020-07-10T08:38:58Z</time>
      </trkpt>
      <trkpt lat="47.77329" lon="-3.54849">
        <ele>30</ele>
        <time>2020-07-10T08:38:59Z</time>
      </trkpt>
      <trkpt lat="47.77329" lon="-3.54845">
        <ele>30</ele>
        <time>2020-07-10T08:39:00Z</time>
      </trkpt>
      <trkpt lat="47.7733" lon="-3.54841">
        <ele>30</ele>
        <time>2020-07-10T08:39:01Z</time>
      </trkpt>
      <trkpt lat="47.77329" lon="-3.54837">
        <ele>30</ele>
        <time>2020-07-10T08:39:02Z</time>
      </trkpt>
      <trkpt lat="47.77329" lon="-3.54832">
        <ele>30.05</ele>
        <time>2020-07-10T08:39:03Z</time>
      </trkpt>
      <trkpt lat="47.77329" lon="-3.54828">
        <ele>30.14</ele>
        <time>2020-07-10T08:39:04Z</time>
      </trkpt>
      <trkpt lat="47.77329" lon="-3.54826">
        <ele>30.23</ele>
        <time>2020-07-10T08:39:05Z</time>
      </trkpt>
      <trkpt lat="47.77329" lon="-3.54825">
        <ele>30.27</ele>
        <time>2020-07-10T08:39:06Z</time>
      </trkpt>
      <trkpt lat="47.77329" lon="-3.54826">
        <ele>30.26</ele>
        <time>2020-07-10T08:39:07Z</time>
      </trkpt>
      <trkpt lat="47.77329" lon="-3.54827">
        <ele>30.23</ele>
        <time>2020-07-10T08:39:08Z</time>
      </trkpt>
      <trkpt lat="47.77329" lon="-3.54827">
        <ele>30.23</ele>
        <time>2020-07-10T08:39:09Z</time>
      </trkpt>
      <trkpt lat="47.77329" lon="-3.54828">
        <ele>30.21</ele>
        <time>2020-07-10T08:39:10Z</time>
      </trkpt>
      <trkpt lat="47.77329" lon="-3.54827">
        <ele>30.22</ele>
        <time>2020-07-10T08:39:11Z</time>
      </trkpt>
      <trkpt lat="47.77329" lon="-3.54828">
        <ele>30.21</ele>
        <time>2020-07-10T08:39:12Z</time>
      </trkpt>
      <trkpt lat="47.77329" lon="-3.54827">
        <ele>30.21</ele>
        <time>2020-07-10T08:39:13Z</time>
      </trkpt>
      <trkpt lat="47.77329" lon="-3.54826">
        <ele>30.24</ele>
        <time>2020-07-10T08:39:14Z</time>
      </trkpt>
      <trkpt lat="47.7733" lon="-3.54825">
        <ele>30.28</ele>
        <time>2020-07-10T08:39:15Z</time>
      </trkpt>
      <trkpt lat="47.7733" lon="-3.54823">
        <ele>30.35</ele>
        <time>2020-07-10T08:39:16Z</time>
      </trkpt>
      <trkpt lat="47.7733" lon="-3.54821">
        <ele>30.42</ele>
        <time>2020-07-10T08:39:17Z</time>
      </trkpt>
      <trkpt lat="47.7733" lon="-3.54818">
        <ele>30.51</ele>
        <time>2020-07-10T08:39:18Z</time>
      </trkpt>
      <trkpt lat="47.77329" lon="-3.54815">
        <ele>30.61</ele>
        <time>2020-07-10T08:39:19Z</time>
      </trkpt>
      <trkpt lat="47.77328" lon="-3.54812">
        <ele>30.72</ele>
        <time>2020-07-10T08:39:20Z</time>
      </trkpt>
      <trkpt lat="47.77328" lon="-3.54809">
        <ele>30.84</ele>
        <time>2020-07-10T08:39:21Z</time>
      </trkpt>
      <trkpt lat="47.77328" lon="-3.54806">
        <ele>30.93</ele>
        <time>2020-07-10T08:39:22Z</time>
      </trkpt>
      <trkpt lat="47.77327" lon="-3.54804">
        <ele>31.01</ele>
        <time>2020-07-10T08:39:23Z</time>
      </trkpt>
      <trkpt lat="47.77326" lon="-3.548">
        <ele>31.13</ele>
        <time>2020-07-10T08:39:24Z</time>
      </trkpt>
      <trkpt lat="47.77325" lon="-3.54797">
        <ele>31.26</ele>
        <time>2020-07-10T08:39:25Z</time>
      </trkpt>
      <trkpt lat="47.77323" lon="-3.54794">
        <ele>31.37</ele>
        <time>2020-07-10T08:39:26Z</time>
      </trkpt>
      <trkpt lat="47.77322" lon="-3.5479">
        <ele>31.5</ele>
        <time>2020-07-10T08:39:27Z</time>
      </trkpt>
      <trkpt lat="47.77321" lon="-3.54786">
        <ele>31.64</ele>
        <time>2020-07-10T08:39:28Z</time>
      </trkpt>
      <trkpt lat="47.77319" lon="-3.54783">
        <ele>31.77</ele>
        <time>2020-07-10T08:39:29Z</time>
      </trkpt>
      <trkpt lat="47.77317" lon="-3.54779">
        <ele>31.89</ele>
        <time>2020-07-10T08:39:30Z</time>
      </trkpt>
      <trkpt lat="47.77316" lon="-3.54777">
        <ele>31.99</ele>
        <time>2020-07-10T08:39:31Z</time>
      </trkpt>
      <trkpt lat="47.77313" lon="-3.54774">
        <ele>32.1</ele>
        <time>2020-07-10T08:39:32Z</time>
      </trkpt>
      <trkpt lat="47.77312" lon="-3.54771">
        <ele>32.21</ele>
        <time>2020-07-10T08:39:33Z</time>
      </trkpt>
      <trkpt lat="47.7731" lon="-3.54768">
        <ele>32.31</ele>
        <time>2020-07-10T08:39:34Z</time>
      </trkpt>
      <trkpt lat="47.77309" lon="-3.54764">
        <ele>32.43</ele>
        <time>2020-07-10T08:39:35Z</time>
      </trkpt>
      <trkpt lat="47.77307" lon="-3.54761">
        <ele>32.55</ele>
        <time>2020-07-10T08:39:36Z</time>
      </trkpt>
      <trkpt lat="47.77305" lon="-3.54757">
        <ele>32.66</ele>
        <time>2020-07-10T08:39:37Z</time>
      </trkpt>
      <trkpt lat="47.77303" lon="-3.54754">
        <ele>32.74</ele>
        <time>2020-07-10T08:39:38Z</time>
      </trkpt>
      <trkpt lat="47.77301" lon="-3.5475">
        <ele>32.81</ele>
        <time>2020-07-10T08:39:39Z</time>
      </trkpt>
      <trkpt lat="47.773" lon="-3.54747">
        <ele>32.88</ele>
        <time>2020-07-10T08:39:40Z</time>
      </trkpt>
      <trkpt lat="47.77298" lon="-3.54743">
        <ele>32.95</ele>
        <time>2020-07-10T08:39:41Z</time>
      </trkpt>
      <trkpt lat="47.77296" lon="-3.54739">
        <ele>33.03</ele>
        <time>2020-07-10T08:39:42Z</time>
      </trkpt>
      <trkpt lat="47.77295" lon="-3.54735">
        <ele>33.12</ele>
        <time>2020-07-10T08:39:43Z</time>
      </trkpt>
      <trkpt lat="47.77293" lon="-3.54731">
        <ele>33.21</ele>
        <time>2020-07-10T08:39:44Z</time>
      </trkpt>
      <trkpt lat="47.77292" lon="-3.54727">
        <ele>33.29</ele>
        <time>2020-07-10T08:39:45Z</time>
      </trkpt>
      <trkpt lat="47.7729" lon="-3.5472">
        <ele>33.4</ele>
        <time>2020-07-10T08:39:46Z</time>
      </trkpt>
      <trkpt lat="47.77289" lon="-3.54715">
        <ele>33.39</ele>
        <time>2020-07-10T08:39:47Z</time>
      </trkpt>
      <trkpt lat="47.77287" lon="-3.5471">
        <ele>33.36</ele>
        <time>2020-07-10T08:39:48Z</time>
      </trkpt>
      <trkpt lat="47.77287" lon="-3.54704">
        <ele>33.34</ele>
        <time>2020-07-10T08:39:49Z</time>
      </trkpt>
      <trkpt lat="47.77287" lon="-3.54701">
        <ele>33.33</ele>
        <time>2020-07-10T08:39:50Z</time>
      </trkpt>
      <trkpt lat="47.77287" lon="-3.54695">
        <ele>33.33</ele>
        <time>2020-07-10T08:39:51Z</time>
      </trkpt>
      <trkpt lat="47.77287" lon="-3.5469">
        <ele>33.45</ele>
        <time>2020-07-10T08:39:52Z</time>
      </trkpt>
      <trkpt lat="47.77287" lon="-3.54684">
        <ele>33.64</ele>
        <time>2020-07-10T08:39:53Z</time>
      </trkpt>
      <trkpt lat="47.77288" lon="-3.54679">
        <ele>33.83</ele>
        <time>2020-07-10T08:39:54Z</time>
      </trkpt>
      <trkpt lat="47.77288" lon="-3.54674">
        <ele>34.03</ele>
        <time>2020-07-10T08:39:55Z</time>
      </trkpt>
      <trkpt lat="47.77288" lon="-3.54668">
        <ele>34.24</ele>
        <time>2020-07-10T08:39:56Z</time>
      </trkpt>
      <trkpt lat="47.77288" lon="-3.54663">
        <ele>34.43</ele>
        <time>2020-07-10T08:39:57Z</time>
      </trkpt>
      <trkpt lat="47.77289" lon="-3.54658">
        <ele>34.64</ele>
        <time>2020-07-10T08:39:58Z</time>
      </trkpt>
      <trkpt lat="47.77289" lon="-3.54652">
        <ele>34.83</ele>
        <time>2020-07-10T08:39:59Z</time>
      </trkpt>
      <trkpt lat="47.7729" lon="-3.54646">
        <ele>35.07</ele>
        <time>2020-07-10T08:40:00Z</time>
      </trkpt>
      <trkpt lat="47.7729" lon="-3.54641">
        <ele>35.27</ele>
        <time>2020-07-10T08:40:01Z</time>
      </trkpt>
      <trkpt lat="47.7729" lon="-3.54636">
        <ele>35.46</ele>
        <time>2020-07-10T08:40:02Z</time>
      </trkpt>
      <trkpt lat="47.7729" lon="-3.54632">
        <ele>35.61</ele>
        <time>2020-07-10T08:40:03Z</time>
      </trkpt>
      <trkpt lat="47.7729" lon="-3.54628">
        <ele>35.76</ele>
        <time>2020-07-10T08:40:04Z</time>
      </trkpt>
      <trkpt lat="47.77289" lon="-3.54623">
        <ele>35.9</ele>
        <time>2020-07-10T08:40:05Z</time>
      </trkpt>
      <trkpt lat="47.77287" lon="-3.54619">
        <ele>36</ele>
        <time>2020-07-10T08:40:06Z</time>
      </trkpt>
      <trkpt lat="47.77286" lon="-3.54613">
        <ele>36.14</ele>
        <time>2020-07-10T08:40:07Z</time>
      </trkpt>
      <trkpt lat="47.77284" lon="-3.54609">
        <ele>36.25</ele>
        <time>2020-07-10T08:40:08Z</time>
      </trkpt>
      <trkpt lat="47.77283" lon="-3.54605">
        <ele>36.34</ele>
        <time>2020-07-10T08:40:09Z</time>
      </trkpt>
      <trkpt lat="47.77281" lon="-3.54601">
        <ele>36.43</ele>
        <time>2020-07-10T08:40:10Z</time>
      </trkpt>
      <trkpt lat="47.7728" lon="-3.54597">
        <ele>36.53</ele>
        <time>2020-07-10T08:40:11Z</time>
      </trkpt>
      <trkpt lat="47.77278" lon="-3.54592">
        <ele>36.63</ele>
        <time>2020-07-10T08:40:12Z</time>
      </trkpt>
      <trkpt lat="47.77276" lon="-3.54588">
        <ele>36.69</ele>
        <time>2020-07-10T08:40:13Z</time>
      </trkpt>
      <trkpt lat="47.77274" lon="-3.54583">
        <ele>36.76</ele>
        <time>2020-07-10T08:40:14Z</time>
      </trkpt>
      <trkpt lat="47.77273" lon="-3.54577">
        <ele>36.83</ele>
        <time>2020-07-10T08:40:15Z</time>
      </trkpt>
      <trkpt lat="47.77271" lon="-3.54571">
        <ele>36.91</ele>
        <time>2020-07-10T08:40:16Z</time>
      </trkpt>
      <trkpt lat="47.77269" lon="-3.54564">
        <ele>37.02</ele>
        <time>2020-07-10T08:40:17Z</time>
      </trkpt>
      <trkpt lat="47.77267" lon="-3.54559">
        <ele>37.09</ele>
        <time>2020-07-10T08:40:18Z</time>
      </trkpt>
      <trkpt lat="47.77265" lon="-3.54553">
        <ele>37.15</ele>
        <time>2020-07-10T08:40:19Z</time>
      </trkpt>
      <trkpt lat="47.77263" lon="-3.54549">
        <ele>37.2</ele>
        <time>2020-07-10T08:40:20Z</time>
      </trkpt>
      <trkpt lat="47.77261" lon="-3.54543">
        <ele>37.24</ele>
        <time>2020-07-10T08:40:21Z</time>
      </trkpt>
      <trkpt lat="47.77259" lon="-3.54538">
        <ele>37.28</ele>
        <time>2020-07-10T08:40:22Z</time>
      </trkpt>
      <trkpt lat="47.77257" lon="-3.54533">
        <ele>37.32</ele>
        <time>2020-07-10T08:40:23Z</time>
      </trkpt>
      <trkpt lat="47.77255" lon="-3.54526">
        <ele>37.38</ele>
        <time>2020-07-10T08:40:24Z</time>
      </trkpt>
      <trkpt lat="47.77253" lon="-3.54521">
        <ele>37.45</ele>
        <time>2020-07-10T08:40:25Z</time>
      </trkpt>
      <trkpt lat="47.7725" lon="-3.54516">
        <ele>37.47</ele>
        <time>2020-07-10T08:40:26Z</time>
      </trkpt>
      <trkpt lat="47.77248" lon="-3.5451">
        <ele>37.44</ele>
        <time>2020-07-10T08:40:27Z</time>
      </trkpt>
      <trkpt lat="47.77245" lon="-3.54505">
        <ele>37.35</ele>
        <time>2020-07-10T08:40:28Z</time>
      </trkpt>
      <trkpt lat="47.77242" lon="-3.545">
        <ele>37.2</ele>
        <time>2020-07-10T08:40:29Z</time>
      </trkpt>
      <trkpt lat="47.77239" lon="-3.54495">
        <ele>37.02</ele>
        <time>2020-07-10T08:40:30Z</time>
      </trkpt>
      <trkpt lat="47.77235" lon="-3.54491">
        <ele>36.81</ele>
        <time>2020-07-10T08:40:31Z</time>
      </trkpt>
      <trkpt lat="47.77232" lon="-3.54487">
        <ele>36.6</ele>
        <time>2020-07-10T08:40:32Z</time>
      </trkpt>
      <trkpt lat="47.77229" lon="-3.54483">
        <ele>36.41</ele>
        <time>2020-07-10T08:40:33Z</time>
      </trkpt>
      <trkpt lat="47.77225" lon="-3.54483">
        <ele>36.05</ele>
        <time>2020-07-10T08:40:34Z</time>
      </trkpt>
      <trkpt lat="47.77222" lon="-3.54484">
        <ele>35.69</ele>
        <time>2020-07-10T08:40:35Z</time>
      </trkpt>
      <trkpt lat="47.77218" lon="-3.54485">
        <ele>35.36</ele>
        <time>2020-07-10T08:40:36Z</time>
      </trkpt>
      <trkpt lat="47.77214" lon="-3.54486">
        <ele>35.03</ele>
        <time>2020-07-10T08:40:37Z</time>
      </trkpt>
      <trkpt lat="47.77209" lon="-3.54484">
        <ele>34.74</ele>
        <time>2020-07-10T08:40:38Z</time>
      </trkpt>
      <trkpt lat="47.77205" lon="-3.54482">
        <ele>34.51</ele>
        <time>2020-07-10T08:40:39Z</time>
      </trkpt>
      <trkpt lat="47.77201" lon="-3.54479">
        <ele>34.32</ele>
        <time>2020-07-10T08:40:40Z</time>
      </trkpt>
      <trkpt lat="47.77198" lon="-3.54479">
        <ele>34.08</ele>
        <time>2020-07-10T08:40:41Z</time>
      </trkpt>
      <trkpt lat="47.77195" lon="-3.54481">
        <ele>33.83</ele>
        <time>2020-07-10T08:40:42Z</time>
      </trkpt>
      <trkpt lat="47.77192" lon="-3.54483">
        <ele>33.61</ele>
        <time>2020-07-10T08:40:43Z</time>
      </trkpt>
      <trkpt lat="47.77188" lon="-3.54487">
        <ele>33.36</ele>
        <time>2020-07-10T08:40:44Z</time>
      </trkpt>
      <trkpt lat="47.77185" lon="-3.54492">
        <ele>33.08</ele>
        <time>2020-07-10T08:40:45Z</time>
      </trkpt>
      <trkpt lat="47.77183" lon="-3.54499">
        <ele>32.76</ele>
        <time>2020-07-10T08:40:46Z</time>
      </trkpt>
      <trkpt lat="47.7718" lon="-3.54506">
        <ele>32.42</ele>
        <time>2020-07-10T08:40:47Z</time>
      </trkpt>
      <trkpt lat="47.77178" lon="-3.54513">
        <ele>32.09</ele>
        <time>2020-07-10T08:40:48Z</time>
      </trkpt>
      <trkpt lat="47.77175" lon="-3.5452">
        <ele>31.75</ele>
        <time>2020-07-10T08:40:49Z</time>
      </trkpt>
      <trkpt lat="47.77173" lon="-3.54527">
        <ele>31.39</ele>
        <time>2020-07-10T08:40:50Z</time>
      </trkpt>
      <trkpt lat="47.7717" lon="-3.54534">
        <ele>31.05</ele>
        <time>2020-07-10T08:40:51Z</time>
      </trkpt>
      <trkpt lat="47.77168" lon="-3.54539">
        <ele>30.74</ele>
        <time>2020-07-10T08:40:52Z</time>
      </trkpt>
      <trkpt lat="47.77166" lon="-3.54543">
        <ele>30.53</ele>
        <time>2020-07-10T08:40:53Z</time>
      </trkpt>
      <trkpt lat="47.77167" lon="-3.54547">
        <ele>30.4</ele>
        <time>2020-07-10T08:40:54Z</time>
      </trkpt>
      <trkpt lat="47.77168" lon="-3.54551">
        <ele>30.27</ele>
        <time>2020-07-10T08:40:55Z</time>
      </trkpt>
      <trkpt lat="47.77167" lon="-3.54556">
        <ele>30.08</ele>
        <time>2020-07-10T08:40:56Z</time>
      </trkpt>
      <trkpt lat="47.77165" lon="-3.54559">
        <ele>29.85</ele>
        <time>2020-07-10T08:40:57Z</time>
      </trkpt>
      <trkpt lat="47.77164" lon="-3.54562">
        <ele>29.66</ele>
        <time>2020-07-10T08:40:58Z</time>
      </trkpt>
      <trkpt lat="47.77163" lon="-3.54567">
        <ele>29.43</ele>
        <time>2020-07-10T08:40:59Z</time>
      </trkpt>
      <trkpt lat="47.77162" lon="-3.54572">
        <ele>29.21</ele>
        <time>2020-07-10T08:41:00Z</time>
      </trkpt>
      <trkpt lat="47.77161" lon="-3.54576">
        <ele>28.94</ele>
        <time>2020-07-10T08:41:01Z</time>
      </trkpt>
      <trkpt lat="47.77156" lon="-3.54584">
        <ele>28.44</ele>
        <time>2020-07-10T08:41:02Z</time>
      </trkpt>
      <trkpt lat="47.77152" lon="-3.54592">
        <ele>27.91</ele>
        <time>2020-07-10T08:41:03Z</time>
      </trkpt>
      <trkpt lat="47.77148" lon="-3.54601">
        <ele>27.31</ele>
        <time>2020-07-10T08:41:04Z</time>
      </trkpt>
      <trkpt lat="47.77144" lon="-3.54609">
        <ele>26.7</ele>
        <time>2020-07-10T08:41:05Z</time>
      </trkpt>
      <trkpt lat="47.7714" lon="-3.5462">
        <ele>26.27</ele>
        <time>2020-07-10T08:41:06Z</time>
      </trkpt>
      <trkpt lat="47.77137" lon="-3.54631">
        <ele>25.98</ele>
        <time>2020-07-10T08:41:07Z</time>
      </trkpt>
      <trkpt lat="47.77133" lon="-3.54642">
        <ele>25.59</ele>
        <time>2020-07-10T08:41:08Z</time>
      </trkpt>
      <trkpt lat="47.77131" lon="-3.54654">
        <ele>24.82</ele>
        <time>2020-07-10T08:41:09Z</time>
      </trkpt>
      <trkpt lat="47.77128" lon="-3.54665">
        <ele>24.05</ele>
        <time>2020-07-10T08:41:10Z</time>
      </trkpt>
      <trkpt lat="47.77125" lon="-3.54676">
        <ele>23.3</ele>
        <time>2020-07-10T08:41:11Z</time>
      </trkpt>
      <trkpt lat="47.77121" lon="-3.54686">
        <ele>22.67</ele>
        <time>2020-07-10T08:41:12Z</time>
      </trkpt>
      <trkpt lat="47.77117" lon="-3.54695">
        <ele>22.19</ele>
        <time>2020-07-10T08:41:13Z</time>
      </trkpt>
      <trkpt lat="47.77113" lon="-3.54701">
        <ele>21.7</ele>
        <time>2020-07-10T08:41:14Z</time>
      </trkpt>
      <trkpt lat="47.77109" lon="-3.54707">
        <ele>21.19</ele>
        <time>2020-07-10T08:41:15Z</time>
      </trkpt>
      <trkpt lat="47.77103" lon="-3.54712">
        <ele>20.68</ele>
        <time>2020-07-10T08:41:16Z</time>
      </trkpt>
      <trkpt lat="47.77099" lon="-3.54717">
        <ele>20.13</ele>
        <time>2020-07-10T08:41:17Z</time>
      </trkpt>
      <trkpt lat="47.77093" lon="-3.54721">
        <ele>19.66</ele>
        <time>2020-07-10T08:41:18Z</time>
      </trkpt>
      <trkpt lat="47.77087" lon="-3.54724">
        <ele>19.25</ele>
        <time>2020-07-10T08:41:19Z</time>
      </trkpt>
      <trkpt lat="47.77081" lon="-3.54727">
        <ele>19</ele>
        <time>2020-07-10T08:41:20Z</time>
      </trkpt>
      <trkpt lat="47.77076" lon="-3.5473">
        <ele>18.94</ele>
        <time>2020-07-10T08:41:21Z</time>
      </trkpt>
      <trkpt lat="47.77071" lon="-3.54733">
        <ele>18.93</ele>
        <time>2020-07-10T08:41:22Z</time>
      </trkpt>
      <trkpt lat="47.77065" lon="-3.54735">
        <ele>18.89</ele>
        <time>2020-07-10T08:41:23Z</time>
      </trkpt>
      <trkpt lat="47.7706" lon="-3.54738">
        <ele>18.81</ele>
        <time>2020-07-10T08:41:24Z</time>
      </trkpt>
      <trkpt lat="47.77056" lon="-3.54742">
        <ele>18.64</ele>
        <time>2020-07-10T08:41:25Z</time>
      </trkpt>
      <trkpt lat="47.77051" lon="-3.54746">
        <ele>18.58</ele>
        <time>2020-07-10T08:41:26Z</time>
      </trkpt>
      <trkpt lat="47.77046" lon="-3.54751">
        <ele>18.61</ele>
        <time>2020-07-10T08:41:27Z</time>
      </trkpt>
      <trkpt lat="47.77042" lon="-3.54755">
        <ele>18.67</ele>
        <time>2020-07-10T08:41:28Z</time>
      </trkpt>
      <trkpt lat="47.77038" lon="-3.5476">
        <ele>18.68</ele>
        <time>2020-07-10T08:41:29Z</time>
      </trkpt>
      <trkpt lat="47.77034" lon="-3.54764">
        <ele>18.66</ele>
        <time>2020-07-10T08:41:30Z</time>
      </trkpt>
      <trkpt lat="47.7703" lon="-3.54766">
        <ele>18.7</ele>
        <time>2020-07-10T08:41:31Z</time>
      </trkpt>
      <trkpt lat="47.77026" lon="-3.54769">
        <ele>18.73</ele>
        <time>2020-07-10T08:41:32Z</time>
      </trkpt>
      <trkpt lat="47.77021" lon="-3.54773">
        <ele>18.78</ele>
        <time>2020-07-10T08:41:33Z</time>
      </trkpt>
      <trkpt lat="47.77017" lon="-3.54777">
        <ele>18.83</ele>
        <time>2020-07-10T08:41:34Z</time>
      </trkpt>
      <trkpt lat="47.77012" lon="-3.5478">
        <ele>18.86</ele>
        <time>2020-07-10T08:41:35Z</time>
      </trkpt>
      <trkpt lat="47.77008" lon="-3.54785">
        <ele>18.87</ele>
        <time>2020-07-10T08:41:36Z</time>
      </trkpt>
      <trkpt lat="47.77004" lon="-3.54789">
        <ele>18.89</ele>
        <time>2020-07-10T08:41:37Z</time>
      </trkpt>
      <trkpt lat="47.76999" lon="-3.54793">
        <ele>18.93</ele>
        <time>2020-07-10T08:41:38Z</time>
      </trkpt>
      <trkpt lat="47.76994" lon="-3.54798">
        <ele>18.79</ele>
        <time>2020-07-10T08:41:39Z</time>
      </trkpt>
      <trkpt lat="47.76989" lon="-3.54802">
        <ele>18.67</ele>
        <time>2020-07-10T08:41:40Z</time>
      </trkpt>
      <trkpt lat="47.76984" lon="-3.54806">
        <ele>18.57</ele>
        <time>2020-07-10T08:41:41Z</time>
      </trkpt>
      <trkpt lat="47.76979" lon="-3.54809">
        <ele>18.34</ele>
        <time>2020-07-10T08:41:42Z</time>
      </trkpt>
      <trkpt lat="47.76974" lon="-3.54812">
        <ele>18.07</ele>
        <time>2020-07-10T08:41:43Z</time>
      </trkpt>
      <trkpt lat="47.76969" lon="-3.54814">
        <ele>17.62</ele>
        <time>2020-07-10T08:41:44Z</time>
      </trkpt>
      <trkpt lat="47.76964" lon="-3.54815">
        <ele>17.16</ele>
        <time>2020-07-10T08:41:45Z</time>
      </trkpt>
      <trkpt lat="47.76959" lon="-3.54814">
        <ele>16.75</ele>
        <time>2020-07-10T08:41:46Z</time>
      </trkpt>
      <trkpt lat="47.76955" lon="-3.54813">
        <ele>16.45</ele>
        <time>2020-07-10T08:41:47Z</time>
      </trkpt>
      <trkpt lat="47.76949" lon="-3.54813">
        <ele>16.07</ele>
        <time>2020-07-10T08:41:48Z</time>
      </trkpt>
      <trkpt lat="47.76945" lon="-3.54815">
        <ele>15.58</ele>
        <time>2020-07-10T08:41:49Z</time>
      </trkpt>
      <trkpt lat="47.76939" lon="-3.54817">
        <ele>15.1</ele>
        <time>2020-07-10T08:41:50Z</time>
      </trkpt>
      <trkpt lat="47.76933" lon="-3.54819">
        <ele>14.62</ele>
        <time>2020-07-10T08:41:51Z</time>
      </trkpt>
      <trkpt lat="47.76926" lon="-3.54819">
        <ele>14.23</ele>
        <time>2020-07-10T08:41:52Z</time>
      </trkpt>
      <trkpt lat="47.76919" lon="-3.54818">
        <ele>13.85</ele>
        <time>2020-07-10T08:41:53Z</time>
      </trkpt>
      <trkpt lat="47.76912" lon="-3.54818">
        <ele>13.59</ele>
        <time>2020-07-10T08:41:54Z</time>
      </trkpt>
      <trkpt lat="47.76906" lon="-3.54817">
        <ele>13.43</ele>
        <time>2020-07-10T08:41:55Z</time>
      </trkpt>
      <trkpt lat="47.76899" lon="-3.54816">
        <ele>13.28</ele>
        <time>2020-07-10T08:41:56Z</time>
      </trkpt>
      <trkpt lat="47.76893" lon="-3.54816">
        <ele>13.15</ele>
        <time>2020-07-10T08:41:57Z</time>
      </trkpt>
      <trkpt lat="47.76887" lon="-3.54815">
        <ele>13.04</ele>
        <time>2020-07-10T08:41:58Z</time>
      </trkpt>
      <trkpt lat="47.76883" lon="-3.54814">
        <ele>13.01</ele>
        <time>2020-07-10T08:41:59Z</time>
      </trkpt>
      <trkpt lat="47.76878" lon="-3.54813">
        <ele>13</ele>
        <time>2020-07-10T08:42:00Z</time>
      </trkpt>
      <trkpt lat="47.76874" lon="-3.54812">
        <ele>13</ele>
        <time>2020-07-10T08:42:01Z</time>
      </trkpt>
      <trkpt lat="47.7687" lon="-3.5481">
        <ele>13</ele>
        <time>2020-07-10T08:42:02Z</time>
      </trkpt>
      <trkpt lat="47.76866" lon="-3.54809">
        <ele>13</ele>
        <time>2020-07-10T08:42:03Z</time>
      </trkpt>
      <trkpt lat="47.76861" lon="-3.54809">
        <ele>13.01</ele>
        <time>2020-07-10T08:42:04Z</time>
      </trkpt>
      <trkpt lat="47.76856" lon="-3.54809">
        <ele>13.13</ele>
        <time>2020-07-10T08:42:05Z</time>
      </trkpt>
      <trkpt lat="47.7685" lon="-3.54809">
        <ele>13.28</ele>
        <time>2020-07-10T08:42:06Z</time>
      </trkpt>
      <trkpt lat="47.76845" lon="-3.54809">
        <ele>13.44</ele>
        <time>2020-07-10T08:42:07Z</time>
      </trkpt>
      <trkpt lat="47.7684" lon="-3.54808">
        <ele>13.61</ele>
        <time>2020-07-10T08:42:08Z</time>
      </trkpt>
      <trkpt lat="47.76835" lon="-3.54808">
        <ele>13.78</ele>
        <time>2020-07-10T08:42:09Z</time>
      </trkpt>
      <trkpt lat="47.76831" lon="-3.54808">
        <ele>14.01</ele>
        <time>2020-07-10T08:42:10Z</time>
      </trkpt>
      <trkpt lat="47.76827" lon="-3.54807">
        <ele>14.31</ele>
        <time>2020-07-10T08:42:11Z</time>
      </trkpt>
      <trkpt lat="47.76823" lon="-3.54807">
        <ele>14.59</ele>
        <time>2020-07-10T08:42:12Z</time>
      </trkpt>
      <trkpt lat="47.7682" lon="-3.54806">
        <ele>14.84</ele>
        <time>2020-07-10T08:42:13Z</time>
      </trkpt>
      <trkpt lat="47.76817" lon="-3.54805">
        <ele>15.08</ele>
        <time>2020-07-10T08:42:14Z</time>
      </trkpt>
      <trkpt lat="47.76814" lon="-3.54802">
        <ele>15.31</ele>
        <time>2020-07-10T08:42:15Z</time>
      </trkpt>
      <trkpt lat="47.76813" lon="-3.54799">
        <ele>15.47</ele>
        <time>2020-07-10T08:42:16Z</time>
      </trkpt>
      <trkpt lat="47.76812" lon="-3.54795">
        <ele>15.58</ele>
        <time>2020-07-10T08:42:17Z</time>
      </trkpt>
      <trkpt lat="47.76812" lon="-3.5479">
        <ele>15.64</ele>
        <time>2020-07-10T08:42:18Z</time>
      </trkpt>
      <trkpt lat="47.76813" lon="-3.54785">
        <ele>15.67</ele>
        <time>2020-07-10T08:42:19Z</time>
      </trkpt>
      <trkpt lat="47.76813" lon="-3.54779">
        <ele>15.7</ele>
        <time>2020-07-10T08:42:20Z</time>
      </trkpt>
      <trkpt lat="47.76813" lon="-3.54773">
        <ele>15.72</ele>
        <time>2020-07-10T08:42:21Z</time>
      </trkpt>
      <trkpt lat="47.76813" lon="-3.54767">
        <ele>15.72</ele>
        <time>2020-07-10T08:42:22Z</time>
      </trkpt>
      <trkpt lat="47.76814" lon="-3.5476">
        <ele>15.71</ele>
        <time>2020-07-10T08:42:23Z</time>
      </trkpt>
      <trkpt lat="47.76814" lon="-3.54755">
        <ele>15.69</ele>
        <time>2020-07-10T08:42:24Z</time>
      </trkpt>
      <trkpt lat="47.76814" lon="-3.54749">
        <ele>15.68</ele>
        <time>2020-07-10T08:42:25Z</time>
      </trkpt>
      <trkpt lat="47.76815" lon="-3.54743">
        <ele>15.67</ele>
        <time>2020-07-10T08:42:26Z</time>
      </trkpt>
      <trkpt lat="47.76815" lon="-3.54739">
        <ele>15.66</ele>
        <time>2020-07-10T08:42:27Z</time>
      </trkpt>
      <trkpt lat="47.76815" lon="-3.54733">
        <ele>15.65</ele>
        <time>2020-07-10T08:42:28Z</time>
      </trkpt>
      <trkpt lat="47.76816" lon="-3.54728">
        <ele>15.64</ele>
        <time>2020-07-10T08:42:29Z</time>
      </trkpt>
      <trkpt lat="47.76817" lon="-3.54723">
        <ele>15.61</ele>
        <time>2020-07-10T08:42:30Z</time>
      </trkpt>
      <trkpt lat="47.76817" lon="-3.54717">
        <ele>15.73</ele>
        <time>2020-07-10T08:42:31Z</time>
      </trkpt>
      <trkpt lat="47.76819" lon="-3.54711">
        <ele>15.87</ele>
        <time>2020-07-10T08:42:32Z</time>
      </trkpt>
      <trkpt lat="47.7682" lon="-3.54705">
        <ele>16.04</ele>
        <time>2020-07-10T08:42:33Z</time>
      </trkpt>
      <trkpt lat="47.7682" lon="-3.54698">
        <ele>16.23</ele>
        <time>2020-07-10T08:42:34Z</time>
      </trkpt>
      <trkpt lat="47.76821" lon="-3.54692">
        <ele>16.43</ele>
        <time>2020-07-10T08:42:35Z</time>
      </trkpt>
      <trkpt lat="47.76822" lon="-3.54685">
        <ele>16.64</ele>
        <time>2020-07-10T08:42:36Z</time>
      </trkpt>
      <trkpt lat="47.76823" lon="-3.54678">
        <ele>16.86</ele>
        <time>2020-07-10T08:42:37Z</time>
      </trkpt>
      <trkpt lat="47.76824" lon="-3.54671">
        <ele>17.08</ele>
        <time>2020-07-10T08:42:38Z</time>
      </trkpt>
      <trkpt lat="47.76824" lon="-3.54665">
        <ele>17.29</ele>
        <time>2020-07-10T08:42:39Z</time>
      </trkpt>
      <trkpt lat="47.76825" lon="-3.54659">
        <ele>17.49</ele>
        <time>2020-07-10T08:42:40Z</time>
      </trkpt>
      <trkpt lat="47.76826" lon="-3.54652">
        <ele>17.7</ele>
        <time>2020-07-10T08:42:41Z</time>
      </trkpt>
      <trkpt lat="47.76826" lon="-3.54645">
        <ele>17.92</ele>
        <time>2020-07-10T08:42:42Z</time>
      </trkpt>
      <trkpt lat="47.76827" lon="-3.54639">
        <ele>18.15</ele>
        <time>2020-07-10T08:42:43Z</time>
      </trkpt>
      <trkpt lat="47.76827" lon="-3.54632">
        <ele>18.37</ele>
        <time>2020-07-10T08:42:44Z</time>
      </trkpt>
      <trkpt lat="47.76827" lon="-3.54626">
        <ele>18.59</ele>
        <time>2020-07-10T08:42:45Z</time>
      </trkpt>
      <trkpt lat="47.76828" lon="-3.5462">
        <ele>18.79</ele>
        <time>2020-07-10T08:42:46Z</time>
      </trkpt>
      <trkpt lat="47.76829" lon="-3.54613">
        <ele>19</ele>
        <time>2020-07-10T08:42:47Z</time>
      </trkpt>
      <trkpt lat="47.76829" lon="-3.54607">
        <ele>19.19</ele>
        <time>2020-07-10T08:42:48Z</time>
      </trkpt>
      <trkpt lat="47.7683" lon="-3.54601">
        <ele>19.36</ele>
        <time>2020-07-10T08:42:49Z</time>
      </trkpt>
      <trkpt lat="47.76831" lon="-3.54595">
        <ele>19.54</ele>
        <time>2020-07-10T08:42:50Z</time>
      </trkpt>
      <trkpt lat="47.76831" lon="-3.54589">
        <ele>19.73</ele>
        <time>2020-07-10T08:42:51Z</time>
      </trkpt>
      <trkpt lat="47.76831" lon="-3.54582">
        <ele>19.95</ele>
        <time>2020-07-10T08:42:52Z</time>
      </trkpt>
      <trkpt lat="47.76831" lon="-3.54577">
        <ele>20.15</ele>
        <time>2020-07-10T08:42:53Z</time>
      </trkpt>
      <trkpt lat="47.76832" lon="-3.54572">
        <ele>20.33</ele>
        <time>2020-07-10T08:42:54Z</time>
      </trkpt>
      <trkpt lat="47.76832" lon="-3.54566">
        <ele>20.53</ele>
        <time>2020-07-10T08:42:55Z</time>
      </trkpt>
      <trkpt lat="47.76832" lon="-3.54561">
        <ele>20.72</ele>
        <time>2020-07-10T08:42:56Z</time>
      </trkpt>
      <trkpt lat="47.76833" lon="-3.54556">
        <ele>20.9</ele>
        <time>2020-07-10T08:42:57Z</time>
      </trkpt>
      <trkpt lat="47.76833" lon="-3.54552">
        <ele>21.07</ele>
        <time>2020-07-10T08:42:58Z</time>
      </trkpt>
      <trkpt lat="47.76834" lon="-3.54546">
        <ele>21.27</ele>
        <time>2020-07-10T08:42:59Z</time>
      </trkpt>
      <trkpt lat="47.76837" lon="-3.54541">
        <ele>21.45</ele>
        <time>2020-07-10T08:43:00Z</time>
      </trkpt>
      <trkpt lat="47.76839" lon="-3.54535">
        <ele>21.64</ele>
        <time>2020-07-10T08:43:01Z</time>
      </trkpt>
      <trkpt lat="47.7684" lon="-3.54529">
        <ele>21.87</ele>
        <time>2020-07-10T08:43:02Z</time>
      </trkpt>
      <trkpt lat="47.76841" lon="-3.54522">
        <ele>22.1</ele>
        <time>2020-07-10T08:43:03Z</time>
      </trkpt>
      <trkpt lat="47.76842" lon="-3.54516">
        <ele>22.34</ele>
        <time>2020-07-10T08:43:04Z</time>
      </trkpt>
      <trkpt lat="47.76843" lon="-3.54509">
        <ele>22.57</ele>
        <time>2020-07-10T08:43:05Z</time>
      </trkpt>
      <trkpt lat="47.76843" lon="-3.54503">
        <ele>22.79</ele>
        <time>2020-07-10T08:43:06Z</time>
      </trkpt>
      <trkpt lat="47.76843" lon="-3.54497">
        <ele>23.01</ele>
        <time>2020-07-10T08:43:07Z</time>
      </trkpt>
      <trkpt lat="47.76844" lon="-3.54491">
        <ele>23.23</ele>
        <time>2020-07-10T08:43:08Z</time>
      </trkpt>
      <trkpt lat="47.76844" lon="-3.54485">
        <ele>23.45</ele>
        <time>2020-07-10T08:43:09Z</time>
      </trkpt>
      <trkpt lat="47.76845" lon="-3.5448">
        <ele>23.64</ele>
        <time>2020-07-10T08:43:10Z</time>
      </trkpt>
      <trkpt lat="47.76845" lon="-3.54475">
        <ele>23.81</ele>
        <time>2020-07-10T08:43:11Z</time>
      </trkpt>
      <trkpt lat="47.76845" lon="-3.54471">
        <ele>23.97</ele>
        <time>2020-07-10T08:43:12Z</time>
      </trkpt>
      <trkpt lat="47.76844" lon="-3.54469">
        <ele>24.07</ele>
        <time>2020-07-10T08:43:13Z</time>
      </trkpt>
      <trkpt lat="47.7684" lon="-3.54472">
        <ele>24.03</ele>
        <time>2020-07-10T08:43:14Z</time>
      </trkpt>
      <trkpt lat="47.76837" lon="-3.54475">
        <ele>23.94</ele>
        <time>2020-07-10T08:43:15Z</time>
      </trkpt>
      <trkpt lat="47.76834" lon="-3.54478">
        <ele>23.84</ele>
        <time>2020-07-10T08:43:16Z</time>
      </trkpt>
      <trkpt lat="47.76831" lon="-3.54481">
        <ele>23.73</ele>
        <time>2020-07-10T08:43:17Z</time>
      </trkpt>
      <trkpt lat="47.76828" lon="-3.54484">
        <ele>23.64</ele>
        <time>2020-07-10T08:43:18Z</time>
      </trkpt>
      <trkpt lat="47.76826" lon="-3.54486">
        <ele>23.53</ele>
        <time>2020-07-10T08:43:19Z</time>
      </trkpt>
      <trkpt lat="47.76824" lon="-3.54485">
        <ele>23.53</ele>
        <time>2020-07-10T08:43:20Z</time>
      </trkpt>
      <trkpt lat="47.76822" lon="-3.54483">
        <ele>23.59</ele>
        <time>2020-07-10T08:43:21Z</time>
      </trkpt>
      <trkpt lat="47.76821" lon="-3.54479">
        <ele>23.71</ele>
        <time>2020-07-10T08:43:22Z</time>
      </trkpt>
      <trkpt lat="47.7682" lon="-3.54474">
        <ele>23.87</ele>
        <time>2020-07-10T08:43:23Z</time>
      </trkpt>
      <trkpt lat="47.76818" lon="-3.54469">
        <ele>24.04</ele>
        <time>2020-07-10T08:43:24Z</time>
      </trkpt>
      <trkpt lat="47.76817" lon="-3.54464">
        <ele>24.22</ele>
        <time>2020-07-10T08:43:25Z</time>
      </trkpt>
      <trkpt lat="47.76815" lon="-3.54459">
        <ele>24.39</ele>
        <time>2020-07-10T08:43:26Z</time>
      </trkpt>
      <trkpt lat="47.76814" lon="-3.54454">
        <ele>24.58</ele>
        <time>2020-07-10T08:43:27Z</time>
      </trkpt>
      <trkpt lat="47.76813" lon="-3.54448">
        <ele>24.77</ele>
        <time>2020-07-10T08:43:28Z</time>
      </trkpt>
      <trkpt lat="47.76811" lon="-3.54443">
        <ele>24.96</ele>
        <time>2020-07-10T08:43:29Z</time>
      </trkpt>
      <trkpt lat="47.7681" lon="-3.54438">
        <ele>25.13</ele>
        <time>2020-07-10T08:43:30Z</time>
      </trkpt>
      <trkpt lat="47.76809" lon="-3.54432">
        <ele>25.31</ele>
        <time>2020-07-10T08:43:31Z</time>
      </trkpt>
      <trkpt lat="47.76807" lon="-3.54427">
        <ele>25.52</ele>
        <time>2020-07-10T08:43:32Z</time>
      </trkpt>
      <trkpt lat="47.76806" lon="-3.54421">
        <ele>25.75</ele>
        <time>2020-07-10T08:43:33Z</time>
      </trkpt>
      <trkpt lat="47.76805" lon="-3.54415">
        <ele>25.91</ele>
        <time>2020-07-10T08:43:34Z</time>
      </trkpt>
      <trkpt lat="47.76803" lon="-3.54409">
        <ele>25.93</ele>
        <time>2020-07-10T08:43:35Z</time>
      </trkpt>
      <trkpt lat="47.76803" lon="-3.54402">
        <ele>25.94</ele>
        <time>2020-07-10T08:43:36Z</time>
      </trkpt>
      <trkpt lat="47.76801" lon="-3.54396">
        <ele>25.95</ele>
        <time>2020-07-10T08:43:37Z</time>
      </trkpt>
      <trkpt lat="47.76799" lon="-3.5439">
        <ele>25.98</ele>
        <time>2020-07-10T08:43:38Z</time>
      </trkpt>
      <trkpt lat="47.76798" lon="-3.54384">
        <ele>26.11</ele>
        <time>2020-07-10T08:43:39Z</time>
      </trkpt>
      <trkpt lat="47.76796" lon="-3.54379">
        <ele>26.3</ele>
        <time>2020-07-10T08:43:40Z</time>
      </trkpt>
      <trkpt lat="47.76794" lon="-3.54373">
        <ele>26.49</ele>
        <time>2020-07-10T08:43:41Z</time>
      </trkpt>
      <trkpt lat="47.76793" lon="-3.54367">
        <ele>26.69</ele>
        <time>2020-07-10T08:43:42Z</time>
      </trkpt>
      <trkpt lat="47.76791" lon="-3.54361">
        <ele>26.9</ele>
        <time>2020-07-10T08:43:43Z</time>
      </trkpt>
      <trkpt lat="47.7679" lon="-3.54355">
        <ele>26.97</ele>
        <time>2020-07-10T08:43:44Z</time>
      </trkpt>
      <trkpt lat="47.76788" lon="-3.54349">
        <ele>26.99</ele>
        <time>2020-07-10T08:43:45Z</time>
      </trkpt>
      <trkpt lat="47.76787" lon="-3.54343">
        <ele>27</ele>
        <time>2020-07-10T08:43:46Z</time>
      </trkpt>
      <trkpt lat="47.76785" lon="-3.54337">
        <ele>27</ele>
        <time>2020-07-10T08:43:47Z</time>
      </trkpt>
      <trkpt lat="47.76783" lon="-3.54332">
        <ele>27.04</ele>
        <time>2020-07-10T08:43:48Z</time>
      </trkpt>
      <trkpt lat="47.76782" lon="-3.54326">
        <ele>27.18</ele>
        <time>2020-07-10T08:43:49Z</time>
      </trkpt>
      <trkpt lat="47.7678" lon="-3.54319">
        <ele>27.37</ele>
        <time>2020-07-10T08:43:50Z</time>
      </trkpt>
      <trkpt lat="47.76779" lon="-3.54313">
        <ele>27.59</ele>
        <time>2020-07-10T08:43:51Z</time>
      </trkpt>
      <trkpt lat="47.76778" lon="-3.54308">
        <ele>27.82</ele>
        <time>2020-07-10T08:43:52Z</time>
      </trkpt>
      <trkpt lat="47.76776" lon="-3.54302">
        <ele>27.92</ele>
        <time>2020-07-10T08:43:53Z</time>
      </trkpt>
      <trkpt lat="47.76775" lon="-3.54297">
        <ele>27.92</ele>
        <time>2020-07-10T08:43:54Z</time>
      </trkpt>
      <trkpt lat="47.76772" lon="-3.54292">
        <ele>27.91</ele>
        <time>2020-07-10T08:43:55Z</time>
      </trkpt>
      <trkpt lat="47.76772" lon="-3.54286">
        <ele>27.93</ele>
        <time>2020-07-10T08:43:56Z</time>
      </trkpt>
      <trkpt lat="47.76771" lon="-3.5428">
        <ele>27.96</ele>
        <time>2020-07-10T08:43:57Z</time>
      </trkpt>
      <trkpt lat="47.76771" lon="-3.54274">
        <ele>27.99</ele>
        <time>2020-07-10T08:43:58Z</time>
      </trkpt>
      <trkpt lat="47.7677" lon="-3.54266">
        <ele>28</ele>
        <time>2020-07-10T08:43:59Z</time>
      </trkpt>
      <trkpt lat="47.7677" lon="-3.54259">
        <ele>28</ele>
        <time>2020-07-10T08:44:00Z</time>
      </trkpt>
      <trkpt lat="47.7677" lon="-3.54252">
        <ele>28</ele>
        <time>2020-07-10T08:44:01Z</time>
      </trkpt>
      <trkpt lat="47.7677" lon="-3.54245">
        <ele>28.09</ele>
        <time>2020-07-10T08:44:02Z</time>
      </trkpt>
      <trkpt lat="47.7677" lon="-3.54238">
        <ele>28.23</ele>
        <time>2020-07-10T08:44:03Z</time>
      </trkpt>
      <trkpt lat="47.7677" lon="-3.54232">
        <ele>28.39</ele>
        <time>2020-07-10T08:44:04Z</time>
      </trkpt>
      <trkpt lat="47.76771" lon="-3.54225">
        <ele>28.58</ele>
        <time>2020-07-10T08:44:05Z</time>
      </trkpt>
      <trkpt lat="47.76771" lon="-3.54218">
        <ele>28.73</ele>
        <time>2020-07-10T08:44:06Z</time>
      </trkpt>
      <trkpt lat="47.76771" lon="-3.54211">
        <ele>28.82</ele>
        <time>2020-07-10T08:44:07Z</time>
      </trkpt>
      <trkpt lat="47.76772" lon="-3.54203">
        <ele>28.9</ele>
        <time>2020-07-10T08:44:08Z</time>
      </trkpt>
      <trkpt lat="47.76772" lon="-3.54196">
        <ele>28.96</ele>
        <time>2020-07-10T08:44:09Z</time>
      </trkpt>
      <trkpt lat="47.76772" lon="-3.54188">
        <ele>28.99</ele>
        <time>2020-07-10T08:44:10Z</time>
      </trkpt>
      <trkpt lat="47.76773" lon="-3.54181">
        <ele>29</ele>
        <time>2020-07-10T08:44:11Z</time>
      </trkpt>
      <trkpt lat="47.76774" lon="-3.54174">
        <ele>29</ele>
        <time>2020-07-10T08:44:12Z</time>
      </trkpt>
      <trkpt lat="47.76774" lon="-3.54166">
        <ele>29</ele>
        <time>2020-07-10T08:44:13Z</time>
      </trkpt>
      <trkpt lat="47.76774" lon="-3.54159">
        <ele>29</ele>
        <time>2020-07-10T08:44:14Z</time>
      </trkpt>
      <trkpt lat="47.76775" lon="-3.54152">
        <ele>29</ele>
        <time>2020-07-10T08:44:15Z</time>
      </trkpt>
      <trkpt lat="47.76775" lon="-3.54145">
        <ele>29</ele>
        <time>2020-07-10T08:44:16Z</time>
      </trkpt>
      <trkpt lat="47.76775" lon="-3.54138">
        <ele>29</ele>
        <time>2020-07-10T08:44:17Z</time>
      </trkpt>
      <trkpt lat="47.76776" lon="-3.54132">
        <ele>28.99</ele>
        <time>2020-07-10T08:44:18Z</time>
      </trkpt>
      <trkpt lat="47.76776" lon="-3.54125">
        <ele>28.98</ele>
        <time>2020-07-10T08:44:19Z</time>
      </trkpt>
      <trkpt lat="47.76777" lon="-3.54118">
        <ele>28.99</ele>
        <time>2020-07-10T08:44:20Z</time>
      </trkpt>
      <trkpt lat="47.76779" lon="-3.54112">
        <ele>28.97</ele>
        <time>2020-07-10T08:44:21Z</time>
      </trkpt>
      <trkpt lat="47.76781" lon="-3.54106">
        <ele>28.78</ele>
        <time>2020-07-10T08:44:22Z</time>
      </trkpt>
      <trkpt lat="47.76785" lon="-3.54103">
        <ele>28.59</ele>
        <time>2020-07-10T08:44:23Z</time>
      </trkpt>
      <trkpt lat="47.7679" lon="-3.54101">
        <ele>28.44</ele>
        <time>2020-07-10T08:44:24Z</time>
      </trkpt>
      <trkpt lat="47.76794" lon="-3.54101">
        <ele>28.31</ele>
        <time>2020-07-10T08:44:25Z</time>
      </trkpt>
      <trkpt lat="47.76799" lon="-3.54101">
        <ele>28.2</ele>
        <time>2020-07-10T08:44:26Z</time>
      </trkpt>
      <trkpt lat="47.76805" lon="-3.54103">
        <ele>28.07</ele>
        <time>2020-07-10T08:44:27Z</time>
      </trkpt>
      <trkpt lat="47.7681" lon="-3.54102">
        <ele>27.75</ele>
        <time>2020-07-10T08:44:28Z</time>
      </trkpt>
      <trkpt lat="47.76815" lon="-3.54101">
        <ele>27.35</ele>
        <time>2020-07-10T08:44:29Z</time>
      </trkpt>
      <trkpt lat="47.76821" lon="-3.541">
        <ele>26.89</ele>
        <time>2020-07-10T08:44:30Z</time>
      </trkpt>
      <trkpt lat="47.76826" lon="-3.54099">
        <ele>26.4</ele>
        <time>2020-07-10T08:44:31Z</time>
      </trkpt>
      <trkpt lat="47.76832" lon="-3.54098">
        <ele>25.87</ele>
        <time>2020-07-10T08:44:32Z</time>
      </trkpt>
      <trkpt lat="47.76839" lon="-3.54098">
        <ele>25.35</ele>
        <time>2020-07-10T08:44:33Z</time>
      </trkpt>
      <trkpt lat="47.76845" lon="-3.54097">
        <ele>24.85</ele>
        <time>2020-07-10T08:44:34Z</time>
      </trkpt>
      <trkpt lat="47.76852" lon="-3.54097">
        <ele>24.36</ele>
        <time>2020-07-10T08:44:35Z</time>
      </trkpt>
      <trkpt lat="47.7686" lon="-3.54098">
        <ele>23.83</ele>
        <time>2020-07-10T08:44:36Z</time>
      </trkpt>
      <trkpt lat="47.76868" lon="-3.54097">
        <ele>22.98</ele>
        <time>2020-07-10T08:44:37Z</time>
      </trkpt>
      <trkpt lat="47.76877" lon="-3.54097">
        <ele>21.91</ele>
        <time>2020-07-10T08:44:38Z</time>
      </trkpt>
      <trkpt lat="47.76887" lon="-3.54097">
        <ele>20.77</ele>
        <time>2020-07-10T08:44:39Z</time>
      </trkpt>
      <trkpt lat="47.76895" lon="-3.54096">
        <ele>19.83</ele>
        <time>2020-07-10T08:44:40Z</time>
      </trkpt>
      <trkpt lat="47.76903" lon="-3.54095">
        <ele>19.02</ele>
        <time>2020-07-10T08:44:41Z</time>
      </trkpt>
      <trkpt lat="47.76909" lon="-3.54093">
        <ele>18.36</ele>
        <time>2020-07-10T08:44:42Z</time>
      </trkpt>
      <trkpt lat="47.76915" lon="-3.5409">
        <ele>17.71</ele>
        <time>2020-07-10T08:44:43Z</time>
      </trkpt>
      <trkpt lat="47.76919" lon="-3.54084">
        <ele>17.19</ele>
        <time>2020-07-10T08:44:44Z</time>
      </trkpt>
      <trkpt lat="47.76921" lon="-3.54078">
        <ele>16.82</ele>
        <time>2020-07-10T08:44:45Z</time>
      </trkpt>
      <trkpt lat="47.76922" lon="-3.54071">
        <ele>16.5</ele>
        <time>2020-07-10T08:44:46Z</time>
      </trkpt>
      <trkpt lat="47.76925" lon="-3.54063">
        <ele>16.14</ele>
        <time>2020-07-10T08:44:47Z</time>
      </trkpt>
      <trkpt lat="47.76925" lon="-3.54055">
        <ele>15.82</ele>
        <time>2020-07-10T08:44:48Z</time>
      </trkpt>
      <trkpt lat="47.76926" lon="-3.54048">
        <ele>15.66</ele>
        <time>2020-07-10T08:44:49Z</time>
      </trkpt>
      <trkpt lat="47.76929" lon="-3.54043">
        <ele>15.45</ele>
        <time>2020-07-10T08:44:50Z</time>
      </trkpt>
      <trkpt lat="47.76932" lon="-3.54037">
        <ele>15.18</ele>
        <time>2020-07-10T08:44:51Z</time>
      </trkpt>
      <trkpt lat="47.76936" lon="-3.54035">
        <ele>14.89</ele>
        <time>2020-07-10T08:44:52Z</time>
      </trkpt>
      <trkpt lat="47.76941" lon="-3.54037">
        <ele>14.62</ele>
        <time>2020-07-10T08:44:53Z</time>
      </trkpt>
      <trkpt lat="47.76946" lon="-3.54037">
        <ele>14.49</ele>
        <time>2020-07-10T08:44:54Z</time>
      </trkpt>
      <trkpt lat="47.76951" lon="-3.54037">
        <ele>14.65</ele>
        <time>2020-07-10T08:44:55Z</time>
      </trkpt>
      <trkpt lat="47.76956" lon="-3.54037">
        <ele>14.91</ele>
        <time>2020-07-10T08:44:56Z</time>
      </trkpt>
      <trkpt lat="47.76961" lon="-3.54036">
        <ele>15.2</ele>
        <time>2020-07-10T08:44:57Z</time>
      </trkpt>
      <trkpt lat="47.76967" lon="-3.54035">
        <ele>15.52</ele>
        <time>2020-07-10T08:44:58Z</time>
      </trkpt>
      <trkpt lat="47.76972" lon="-3.54034">
        <ele>15.85</ele>
        <time>2020-07-10T08:44:59Z</time>
      </trkpt>
      <trkpt lat="47.76977" lon="-3.54033">
        <ele>16.22</ele>
        <time>2020-07-10T08:45:00Z</time>
      </trkpt>
      <trkpt lat="47.76981" lon="-3.54033">
        <ele>16.58</ele>
        <time>2020-07-10T08:45:01Z</time>
      </trkpt>
      <trkpt lat="47.76986" lon="-3.54033">
        <ele>16.93</ele>
        <time>2020-07-10T08:45:02Z</time>
      </trkpt>
      <trkpt lat="47.7699" lon="-3.54032">
        <ele>17.23</ele>
        <time>2020-07-10T08:45:03Z</time>
      </trkpt>
      <trkpt lat="47.76994" lon="-3.54031">
        <ele>17.5</ele>
        <time>2020-07-10T08:45:04Z</time>
      </trkpt>
      <trkpt lat="47.76997" lon="-3.5403">
        <ele>17.74</ele>
        <time>2020-07-10T08:45:05Z</time>
      </trkpt>
      <trkpt lat="47.77" lon="-3.54031">
        <ele>18.01</ele>
        <time>2020-07-10T08:45:06Z</time>
      </trkpt>
      <trkpt lat="47.77003" lon="-3.54031">
        <ele>18.18</ele>
        <time>2020-07-10T08:45:07Z</time>
      </trkpt>
      <trkpt lat="47.77007" lon="-3.54032">
        <ele>18.33</ele>
        <time>2020-07-10T08:45:08Z</time>
      </trkpt>
      <trkpt lat="47.7701" lon="-3.54033">
        <ele>18.47</ele>
        <time>2020-07-10T08:45:09Z</time>
      </trkpt>
      <trkpt lat="47.77013" lon="-3.54033">
        <ele>18.6</ele>
        <time>2020-07-10T08:45:10Z</time>
      </trkpt>
      <trkpt lat="47.77014" lon="-3.54032">
        <ele>18.65</ele>
        <time>2020-07-10T08:45:11Z</time>
      </trkpt>
      <trkpt lat="47.77017" lon="-3.54027">
        <ele>18.61</ele>
        <time>2020-07-10T08:45:12Z</time>
      </trkpt>
      <trkpt lat="47.77019" lon="-3.54023">
        <ele>18.58</ele>
        <time>2020-07-10T08:45:13Z</time>
      </trkpt>
      <trkpt lat="47.77021" lon="-3.5402">
        <ele>18.63</ele>
        <time>2020-07-10T08:45:14Z</time>
      </trkpt>
      <trkpt lat="47.77025" lon="-3.54018">
        <ele>18.76</ele>
        <time>2020-07-10T08:45:15Z</time>
      </trkpt>
      <trkpt lat="47.77028" lon="-3.54014">
        <ele>18.94</ele>
        <time>2020-07-10T08:45:16Z</time>
      </trkpt>
      <trkpt lat="47.77032" lon="-3.54014">
        <ele>19.23</ele>
        <time>2020-07-10T08:45:17Z</time>
      </trkpt>
      <trkpt lat="47.77035" lon="-3.54014">
        <ele>19.51</ele>
        <time>2020-07-10T08:45:18Z</time>
      </trkpt>
      <trkpt lat="47.77038" lon="-3.54015">
        <ele>19.79</ele>
        <time>2020-07-10T08:45:19Z</time>
      </trkpt>
      <trkpt lat="47.77041" lon="-3.54016">
        <ele>20.07</ele>
        <time>2020-07-10T08:45:20Z</time>
      </trkpt>
      <trkpt lat="47.77045" lon="-3.54017">
        <ele>20.38</ele>
        <time>2020-07-10T08:45:21Z</time>
      </trkpt>
      <trkpt lat="47.77049" lon="-3.54018">
        <ele>20.67</ele>
        <time>2020-07-10T08:45:22Z</time>
      </trkpt>
      <trkpt lat="47.77052" lon="-3.54019">
        <ele>20.92</ele>
        <time>2020-07-10T08:45:23Z</time>
      </trkpt>
      <trkpt lat="47.77055" lon="-3.54021">
        <ele>21.12</ele>
        <time>2020-07-10T08:45:24Z</time>
      </trkpt>
      <trkpt lat="47.77058" lon="-3.54022">
        <ele>21.37</ele>
        <time>2020-07-10T08:45:25Z</time>
      </trkpt>
      <trkpt lat="47.7706" lon="-3.54023">
        <ele>21.6</ele>
        <time>2020-07-10T08:45:26Z</time>
      </trkpt>
      <trkpt lat="47.77063" lon="-3.54024">
        <ele>21.85</ele>
        <time>2020-07-10T08:45:27Z</time>
      </trkpt>
      <trkpt lat="47.7707" lon="-3.54026">
        <ele>22.4</ele>
        <time>2020-07-10T08:45:30Z</time>
      </trkpt>
      <trkpt lat="47.77072" lon="-3.54027">
        <ele>22.65</ele>
        <time>2020-07-10T08:45:31Z</time>
      </trkpt>
      <trkpt lat="47.77073" lon="-3.54028">
        <ele>22.83</ele>
        <time>2020-07-10T08:45:32Z</time>
      </trkpt>
      <trkpt lat="47.77075" lon="-3.5403">
        <ele>23.01</ele>
        <time>2020-07-10T08:45:33Z</time>
      </trkpt>
      <trkpt lat="47.77076" lon="-3.54031">
        <ele>23.19</ele>
        <time>2020-07-10T08:45:34Z</time>
      </trkpt>
      <trkpt lat="47.77078" lon="-3.54031">
        <ele>23.37</ele>
        <time>2020-07-10T08:45:35Z</time>
      </trkpt>
      <trkpt lat="47.7708" lon="-3.54031">
        <ele>23.55</ele>
        <time>2020-07-10T08:45:36Z</time>
      </trkpt>
      <trkpt lat="47.77082" lon="-3.54031">
        <ele>23.73</ele>
        <time>2020-07-10T08:45:37Z</time>
      </trkpt>
      <trkpt lat="47.77084" lon="-3.54031">
        <ele>24</ele>
        <time>2020-07-10T08:45:38Z</time>
      </trkpt>
      <trkpt lat="47.77087" lon="-3.54032">
        <ele>24.51</ele>
        <time>2020-07-10T08:45:39Z</time>
      </trkpt>
      <trkpt lat="47.7709" lon="-3.54033">
        <ele>24.98</ele>
        <time>2020-07-10T08:45:40Z</time>
      </trkpt>
      <trkpt lat="47.77094" lon="-3.54033">
        <ele>25.59</ele>
        <time>2020-07-10T08:45:41Z</time>
      </trkpt>
      <trkpt lat="47.77097" lon="-3.54034">
        <ele>26.08</ele>
        <time>2020-07-10T08:45:42Z</time>
      </trkpt>
      <trkpt lat="47.77098" lon="-3.54035">
        <ele>26.42</ele>
        <time>2020-07-10T08:45:43Z</time>
      </trkpt>
      <trkpt lat="47.771" lon="-3.54036">
        <ele>26.7</ele>
        <time>2020-07-10T08:45:44Z</time>
      </trkpt>
      <trkpt lat="47.77102" lon="-3.54038">
        <ele>27.01</ele>
        <time>2020-07-10T08:45:45Z</time>
      </trkpt>
      <trkpt lat="47.77105" lon="-3.54039">
        <ele>27.36</ele>
        <time>2020-07-10T08:45:46Z</time>
      </trkpt>
      <trkpt lat="47.77107" lon="-3.5404">
        <ele>27.72</ele>
        <time>2020-07-10T08:45:47Z</time>
      </trkpt>
      <trkpt lat="47.77109" lon="-3.54039">
        <ele>28.14</ele>
        <time>2020-07-10T08:45:48Z</time>
      </trkpt>
      <trkpt lat="47.77113" lon="-3.54038">
        <ele>28.7</ele>
        <time>2020-07-10T08:45:49Z</time>
      </trkpt>
      <trkpt lat="47.77116" lon="-3.54038">
        <ele>29.14</ele>
        <time>2020-07-10T08:45:50Z</time>
      </trkpt>
      <trkpt lat="47.7712" lon="-3.54041">
        <ele>29.57</ele>
        <time>2020-07-10T08:45:51Z</time>
      </trkpt>
      <trkpt lat="47.77122" lon="-3.54043">
        <ele>29.94</ele>
        <time>2020-07-10T08:45:52Z</time>
      </trkpt>
      <trkpt lat="47.77125" lon="-3.54045">
        <ele>30.26</ele>
        <time>2020-07-10T08:45:53Z</time>
      </trkpt>
      <trkpt lat="47.77127" lon="-3.54046">
        <ele>30.52</ele>
        <time>2020-07-10T08:45:54Z</time>
      </trkpt>
      <trkpt lat="47.77129" lon="-3.54048">
        <ele>30.75</ele>
        <time>2020-07-10T08:45:55Z</time>
      </trkpt>
      <trkpt lat="47.77131" lon="-3.54049">
        <ele>31.02</ele>
        <time>2020-07-10T08:45:56Z</time>
      </trkpt>
      <trkpt lat="47.77133" lon="-3.54049">
        <ele>31.3</ele>
        <time>2020-07-10T08:45:57Z</time>
      </trkpt>
      <trkpt lat="47.77136" lon="-3.54049">
        <ele>31.64</ele>
        <time>2020-07-10T08:45:58Z</time>
      </trkpt>
      <trkpt lat="47.77138" lon="-3.54049">
        <ele>31.98</ele>
        <time>2020-07-10T08:45:59Z</time>
      </trkpt>
      <trkpt lat="47.77141" lon="-3.5405">
        <ele>32.28</ele>
        <time>2020-07-10T08:46:00Z</time>
      </trkpt>
      <trkpt lat="47.77144" lon="-3.5405">
        <ele>32.58</ele>
        <time>2020-07-10T08:46:01Z</time>
      </trkpt>
      <trkpt lat="47.77146" lon="-3.5405">
        <ele>32.86</ele>
        <time>2020-07-10T08:46:02Z</time>
      </trkpt>
      <trkpt lat="47.77149" lon="-3.5405">
        <ele>33.17</ele>
        <time>2020-07-10T08:46:03Z</time>
      </trkpt>
      <trkpt lat="47.77152" lon="-3.5405">
        <ele>33.46</ele>
        <time>2020-07-10T08:46:04Z</time>
      </trkpt>
      <trkpt lat="47.77154" lon="-3.54049">
        <ele>33.77</ele>
        <time>2020-07-10T08:46:05Z</time>
      </trkpt>
      <trkpt lat="47.77157" lon="-3.54048">
        <ele>34.07</ele>
        <time>2020-07-10T08:46:06Z</time>
      </trkpt>
      <trkpt lat="47.77159" lon="-3.54047">
        <ele>34.39</ele>
        <time>2020-07-10T08:46:07Z</time>
      </trkpt>
      <trkpt lat="47.77162" lon="-3.54047">
        <ele>34.69</ele>
        <time>2020-07-10T08:46:08Z</time>
      </trkpt>
      <trkpt lat="47.77165" lon="-3.54046">
        <ele>34.99</ele>
        <time>2020-07-10T08:46:09Z</time>
      </trkpt>
      <trkpt lat="47.77167" lon="-3.54046">
        <ele>35.27</ele>
        <time>2020-07-10T08:46:10Z</time>
      </trkpt>
      <trkpt lat="47.7717" lon="-3.54046">
        <ele>35.46</ele>
        <time>2020-07-10T08:46:11Z</time>
      </trkpt>
      <trkpt lat="47.77173" lon="-3.54045">
        <ele>35.65</ele>
        <time>2020-07-10T08:46:12Z</time>
      </trkpt>
      <trkpt lat="47.77175" lon="-3.54044">
        <ele>35.84</ele>
        <time>2020-07-10T08:46:13Z</time>
      </trkpt>
      <trkpt lat="47.77178" lon="-3.54043">
        <ele>36.01</ele>
        <time>2020-07-10T08:46:14Z</time>
      </trkpt>
      <trkpt lat="47.7718" lon="-3.54042">
        <ele>36.17</ele>
        <time>2020-07-10T08:46:15Z</time>
      </trkpt>
      <trkpt lat="47.77182" lon="-3.54041">
        <ele>36.3</ele>
        <time>2020-07-10T08:46:16Z</time>
      </trkpt>
      <trkpt lat="47.77184" lon="-3.5404">
        <ele>36.4</ele>
        <time>2020-07-10T08:46:17Z</time>
      </trkpt>
      <trkpt lat="47.77185" lon="-3.5404">
        <ele>36.48</ele>
        <time>2020-07-10T08:46:18Z</time>
      </trkpt>
      <trkpt lat="47.77187" lon="-3.5404">
        <ele>36.58</ele>
        <time>2020-07-10T08:46:19Z</time>
      </trkpt>
      <trkpt lat="47.77189" lon="-3.5404">
        <ele>36.68</ele>
        <time>2020-07-10T08:46:20Z</time>
      </trkpt>
      <trkpt lat="47.77192" lon="-3.54039">
        <ele>36.81</ele>
        <time>2020-07-10T08:46:21Z</time>
      </trkpt>
      <trkpt lat="47.77194" lon="-3.54039">
        <ele>36.94</ele>
        <time>2020-07-10T08:46:22Z</time>
      </trkpt>
      <trkpt lat="47.77197" lon="-3.54038">
        <ele>37.13</ele>
        <time>2020-07-10T08:46:23Z</time>
      </trkpt>
      <trkpt lat="47.772" lon="-3.54037">
        <ele>37.32</ele>
        <time>2020-07-10T08:46:24Z</time>
      </trkpt>
      <trkpt lat="47.77203" lon="-3.54036">
        <ele>37.52</ele>
        <time>2020-07-10T08:46:25Z</time>
      </trkpt>
      <trkpt lat="47.77206" lon="-3.54036">
        <ele>37.72</ele>
        <time>2020-07-10T08:46:26Z</time>
      </trkpt>
      <trkpt lat="47.77209" lon="-3.54035">
        <ele>37.96</ele>
        <time>2020-07-10T08:46:27Z</time>
      </trkpt>
      <trkpt lat="47.77212" lon="-3.54035">
        <ele>38.16</ele>
        <time>2020-07-10T08:46:28Z</time>
      </trkpt>
      <trkpt lat="47.77215" lon="-3.54034">
        <ele>38.37</ele>
        <time>2020-07-10T08:46:29Z</time>
      </trkpt>
      <trkpt lat="47.77218" lon="-3.54032">
        <ele>38.58</ele>
        <time>2020-07-10T08:46:30Z</time>
      </trkpt>
      <trkpt lat="47.77221" lon="-3.54031">
        <ele>38.8</ele>
        <time>2020-07-10T08:46:31Z</time>
      </trkpt>
      <trkpt lat="47.77224" lon="-3.5403">
        <ele>38.98</ele>
        <time>2020-07-10T08:46:32Z</time>
      </trkpt>
      <trkpt lat="47.77227" lon="-3.5403">
        <ele>39.1</ele>
        <time>2020-07-10T08:46:33Z</time>
      </trkpt>
      <trkpt lat="47.77229" lon="-3.5403">
        <ele>39.21</ele>
        <time>2020-07-10T08:46:34Z</time>
      </trkpt>
      <trkpt lat="47.77232" lon="-3.5403">
        <ele>39.32</ele>
        <time>2020-07-10T08:46:35Z</time>
      </trkpt>
      <trkpt lat="47.77235" lon="-3.5403">
        <ele>39.41</ele>
        <time>2020-07-10T08:46:36Z</time>
      </trkpt>
      <trkpt lat="47.77237" lon="-3.54031">
        <ele>39.51</ele>
        <time>2020-07-10T08:46:37Z</time>
      </trkpt>
      <trkpt lat="47.77241" lon="-3.54028">
        <ele>39.63</ele>
        <time>2020-07-10T08:46:38Z</time>
      </trkpt>
      <trkpt lat="47.77244" lon="-3.54027">
        <ele>39.74</ele>
        <time>2020-07-10T08:46:39Z</time>
      </trkpt>
      <trkpt lat="47.77247" lon="-3.54026">
        <ele>39.85</ele>
        <time>2020-07-10T08:46:40Z</time>
      </trkpt>
      <trkpt lat="47.7725" lon="-3.54024">
        <ele>39.95</ele>
        <time>2020-07-10T08:46:41Z</time>
      </trkpt>
      <trkpt lat="47.77253" lon="-3.54023">
        <ele>40.06</ele>
        <time>2020-07-10T08:46:42Z</time>
      </trkpt>
      <trkpt lat="47.77256" lon="-3.54022">
        <ele>40.18</ele>
        <time>2020-07-10T08:46:43Z</time>
      </trkpt>
      <trkpt lat="47.7726" lon="-3.54022">
        <ele>40.3</ele>
        <time>2020-07-10T08:46:44Z</time>
      </trkpt>
      <trkpt lat="47.77263" lon="-3.54022">
        <ele>40.41</ele>
        <time>2020-07-10T08:46:45Z</time>
      </trkpt>
      <trkpt lat="47.77266" lon="-3.54022">
        <ele>40.53</ele>
        <time>2020-07-10T08:46:46Z</time>
      </trkpt>
      <trkpt lat="47.77269" lon="-3.54023">
        <ele>40.64</ele>
        <time>2020-07-10T08:46:47Z</time>
      </trkpt>
      <trkpt lat="47.77273" lon="-3.54023">
        <ele>40.76</ele>
        <time>2020-07-10T08:46:48Z</time>
      </trkpt>
      <trkpt lat="47.77276" lon="-3.54022">
        <ele>40.89</ele>
        <time>2020-07-10T08:46:49Z</time>
      </trkpt>
      <trkpt lat="47.7728" lon="-3.54022">
        <ele>40.9</ele>
        <time>2020-07-10T08:46:50Z</time>
      </trkpt>
      <trkpt lat="47.77284" lon="-3.54021">
        <ele>40.8</ele>
        <time>2020-07-10T08:46:51Z</time>
      </trkpt>
      <trkpt lat="47.77289" lon="-3.54021">
        <ele>40.66</ele>
        <time>2020-07-10T08:46:52Z</time>
      </trkpt>
      <trkpt lat="47.77293" lon="-3.54021">
        <ele>40.5</ele>
        <time>2020-07-10T08:46:53Z</time>
      </trkpt>
      <trkpt lat="47.77298" lon="-3.54022">
        <ele>40.34</ele>
        <time>2020-07-10T08:46:54Z</time>
      </trkpt>
      <trkpt lat="47.77303" lon="-3.54021">
        <ele>40.17</ele>
        <time>2020-07-10T08:46:55Z</time>
      </trkpt>
      <trkpt lat="47.77307" lon="-3.5402">
        <ele>39.95</ele>
        <time>2020-07-10T08:46:56Z</time>
      </trkpt>
      <trkpt lat="47.77313" lon="-3.54019">
        <ele>39.64</ele>
        <time>2020-07-10T08:46:57Z</time>
      </trkpt>
      <trkpt lat="47.77317" lon="-3.54018">
        <ele>39.29</ele>
        <time>2020-07-10T08:46:58Z</time>
      </trkpt>
      <trkpt lat="47.77322" lon="-3.54016">
        <ele>38.94</ele>
        <time>2020-07-10T08:46:59Z</time>
      </trkpt>
      <trkpt lat="47.77328" lon="-3.54015">
        <ele>38.58</ele>
        <time>2020-07-10T08:47:00Z</time>
      </trkpt>
      <trkpt lat="47.77332" lon="-3.54014">
        <ele>38.22</ele>
        <time>2020-07-10T08:47:01Z</time>
      </trkpt>
      <trkpt lat="47.77337" lon="-3.54013">
        <ele>37.85</ele>
        <time>2020-07-10T08:47:02Z</time>
      </trkpt>
      <trkpt lat="47.77339" lon="-3.5401">
        <ele>37.55</ele>
        <time>2020-07-10T08:47:03Z</time>
      </trkpt>
      <trkpt lat="47.77342" lon="-3.54007">
        <ele>37.3</ele>
        <time>2020-07-10T08:47:04Z</time>
      </trkpt>
      <trkpt lat="47.77343" lon="-3.54002">
        <ele>37.09</ele>
        <time>2020-07-10T08:47:05Z</time>
      </trkpt>
      <trkpt lat="47.77345" lon="-3.53998">
        <ele>36.94</ele>
        <time>2020-07-10T08:47:06Z</time>
      </trkpt>
      <trkpt lat="47.77347" lon="-3.53992">
        <ele>36.83</ele>
        <time>2020-07-10T08:47:07Z</time>
      </trkpt>
      <trkpt lat="47.7735" lon="-3.53987">
        <ele>36.68</ele>
        <time>2020-07-10T08:47:08Z</time>
      </trkpt>
      <trkpt lat="47.77354" lon="-3.53985">
        <ele>36.38</ele>
        <time>2020-07-10T08:47:09Z</time>
      </trkpt>
      <trkpt lat="47.77358" lon="-3.53985">
        <ele>36.01</ele>
        <time>2020-07-10T08:47:10Z</time>
      </trkpt>
      <trkpt lat="47.77363" lon="-3.53986">
        <ele>35.51</ele>
        <time>2020-07-10T08:47:11Z</time>
      </trkpt>
      <trkpt lat="47.77368" lon="-3.53988">
        <ele>34.88</ele>
        <time>2020-07-10T08:47:12Z</time>
      </trkpt>
      <trkpt lat="47.77373" lon="-3.5399">
        <ele>34.18</ele>
        <time>2020-07-10T08:47:13Z</time>
      </trkpt>
      <trkpt lat="47.77378" lon="-3.53993">
        <ele>33.5</ele>
        <time>2020-07-10T08:47:14Z</time>
      </trkpt>
      <trkpt lat="47.77383" lon="-3.53996">
        <ele>32.92</ele>
        <time>2020-07-10T08:47:15Z</time>
      </trkpt>
      <trkpt lat="47.77388" lon="-3.53997">
        <ele>32.37</ele>
        <time>2020-07-10T08:47:16Z</time>
      </trkpt>
      <trkpt lat="47.77393" lon="-3.53998">
        <ele>31.6</ele>
        <time>2020-07-10T08:47:17Z</time>
      </trkpt>
      <trkpt lat="47.77399" lon="-3.54">
        <ele>30.58</ele>
        <time>2020-07-10T08:47:18Z</time>
      </trkpt>
      <trkpt lat="47.77405" lon="-3.54001">
        <ele>29.5</ele>
        <time>2020-07-10T08:47:19Z</time>
      </trkpt>
      <trkpt lat="47.77411" lon="-3.54002">
        <ele>28.44</ele>
        <time>2020-07-10T08:47:20Z</time>
      </trkpt>
      <trkpt lat="47.77417" lon="-3.54003">
        <ele>27.41</ele>
        <time>2020-07-10T08:47:21Z</time>
      </trkpt>
      <trkpt lat="47.77422" lon="-3.54004">
        <ele>26.89</ele>
        <time>2020-07-10T08:47:22Z</time>
      </trkpt>
      <trkpt lat="47.77427" lon="-3.54005">
        <ele>26.52</ele>
        <time>2020-07-10T08:47:23Z</time>
      </trkpt>
      <trkpt lat="47.77433" lon="-3.54005">
        <ele>26.18</ele>
        <time>2020-07-10T08:47:24Z</time>
      </trkpt>
      <trkpt lat="47.77438" lon="-3.54006">
        <ele>25.77</ele>
        <time>2020-07-10T08:47:25Z</time>
      </trkpt>
      <trkpt lat="47.77443" lon="-3.54006">
        <ele>25.38</ele>
        <time>2020-07-10T08:47:26Z</time>
      </trkpt>
      <trkpt lat="47.77448" lon="-3.54005">
        <ele>25.18</ele>
        <time>2020-07-10T08:47:27Z</time>
      </trkpt>
      <trkpt lat="47.77452" lon="-3.54004">
        <ele>25.12</ele>
        <time>2020-07-10T08:47:28Z</time>
      </trkpt>
      <trkpt lat="47.77456" lon="-3.54004">
        <ele>25.07</ele>
        <time>2020-07-10T08:47:29Z</time>
      </trkpt>
      <trkpt lat="47.7746" lon="-3.54003">
        <ele>25.04</ele>
        <time>2020-07-10T08:47:30Z</time>
      </trkpt>
      <trkpt lat="47.77464" lon="-3.54003">
        <ele>24.95</ele>
        <time>2020-07-10T08:47:31Z</time>
      </trkpt>
      <trkpt lat="47.77469" lon="-3.54004">
        <ele>24.66</ele>
        <time>2020-07-10T08:47:32Z</time>
      </trkpt>
      <trkpt lat="47.77475" lon="-3.54005">
        <ele>23.98</ele>
        <time>2020-07-10T08:47:33Z</time>
      </trkpt>
      <trkpt lat="47.77481" lon="-3.54004">
        <ele>22.9</ele>
        <time>2020-07-10T08:47:34Z</time>
      </trkpt>
      <trkpt lat="47.77486" lon="-3.54003">
        <ele>21.74</ele>
        <time>2020-07-10T08:47:35Z</time>
      </trkpt>
      <trkpt lat="47.77491" lon="-3.54001">
        <ele>20.58</ele>
        <time>2020-07-10T08:47:36Z</time>
      </trkpt>
      <trkpt lat="47.77497" lon="-3.53995">
        <ele>20.12</ele>
        <time>2020-07-10T08:47:37Z</time>
      </trkpt>
      <trkpt lat="47.77501" lon="-3.5399">
        <ele>20.15</ele>
        <time>2020-07-10T08:47:38Z</time>
      </trkpt>
      <trkpt lat="47.77505" lon="-3.53984">
        <ele>20.49</ele>
        <time>2020-07-10T08:47:39Z</time>
      </trkpt>
      <trkpt lat="47.77508" lon="-3.53976">
        <ele>20.83</ele>
        <time>2020-07-10T08:47:40Z</time>
      </trkpt>
      <trkpt lat="47.77511" lon="-3.53971">
        <ele>20.76</ele>
        <time>2020-07-10T08:47:41Z</time>
      </trkpt>
      <trkpt lat="47.77513" lon="-3.53966">
        <ele>20.55</ele>
        <time>2020-07-10T08:47:42Z</time>
      </trkpt>
      <trkpt lat="47.77513" lon="-3.53961">
        <ele>20.51</ele>
        <time>2020-07-10T08:47:43Z</time>
      </trkpt>
      <trkpt lat="47.77514" lon="-3.53956">
        <ele>20.5</ele>
        <time>2020-07-10T08:47:44Z</time>
      </trkpt>
      <trkpt lat="47.77515" lon="-3.5395">
        <ele>20.58</ele>
        <time>2020-07-10T08:47:45Z</time>
      </trkpt>
      <trkpt lat="47.77516" lon="-3.53944">
        <ele>20.59</ele>
        <time>2020-07-10T08:47:46Z</time>
      </trkpt>
      <trkpt lat="47.77517" lon="-3.53938">
        <ele>20.3</ele>
        <time>2020-07-10T08:47:47Z</time>
      </trkpt>
      <trkpt lat="47.77517" lon="-3.53932">
        <ele>20.02</ele>
        <time>2020-07-10T08:47:48Z</time>
      </trkpt>
      <trkpt lat="47.77518" lon="-3.53926">
        <ele>19.79</ele>
        <time>2020-07-10T08:47:49Z</time>
      </trkpt>
      <trkpt lat="47.77518" lon="-3.5392">
        <ele>19.68</ele>
        <time>2020-07-10T08:47:50Z</time>
      </trkpt>
      <trkpt lat="47.77518" lon="-3.53915">
        <ele>19.52</ele>
        <time>2020-07-10T08:47:51Z</time>
      </trkpt>
      <trkpt lat="47.77519" lon="-3.53911">
        <ele>19.17</ele>
        <time>2020-07-10T08:47:52Z</time>
      </trkpt>
      <trkpt lat="47.77519" lon="-3.53907">
        <ele>18.84</ele>
        <time>2020-07-10T08:47:53Z</time>
      </trkpt>
      <trkpt lat="47.77522" lon="-3.53906">
        <ele>18.16</ele>
        <time>2020-07-10T08:47:54Z</time>
      </trkpt>
      <trkpt lat="47.77523" lon="-3.53905">
        <ele>17.46</ele>
        <time>2020-07-10T08:47:55Z</time>
      </trkpt>
      <trkpt lat="47.77526" lon="-3.53901">
        <ele>16.63</ele>
        <time>2020-07-10T08:47:56Z</time>
      </trkpt>
      <trkpt lat="47.77528" lon="-3.53895">
        <ele>15.59</ele>
        <time>2020-07-10T08:47:57Z</time>
      </trkpt>
      <trkpt lat="47.77529" lon="-3.53891">
        <ele>15.04</ele>
        <time>2020-07-10T08:47:58Z</time>
      </trkpt>
      <trkpt lat="47.77529" lon="-3.53888">
        <ele>14.61</ele>
        <time>2020-07-10T08:47:59Z</time>
      </trkpt>
      <trkpt lat="47.7753" lon="-3.53885">
        <ele>14.19</ele>
        <time>2020-07-10T08:48:00Z</time>
      </trkpt>
      <trkpt lat="47.77531" lon="-3.53881">
        <ele>13.85</ele>
        <time>2020-07-10T08:48:01Z</time>
      </trkpt>
      <trkpt lat="47.77532" lon="-3.53878">
        <ele>13.49</ele>
        <time>2020-07-10T08:48:02Z</time>
      </trkpt>
      <trkpt lat="47.77534" lon="-3.53871">
        <ele>12.6</ele>
        <time>2020-07-10T08:48:03Z</time>
      </trkpt>
      <trkpt lat="47.77536" lon="-3.5387">
        <ele>11.78</ele>
        <time>2020-07-10T08:48:04Z</time>
      </trkpt>
      <trkpt lat="47.77537" lon="-3.53866">
        <ele>11.09</ele>
        <time>2020-07-10T08:48:05Z</time>
      </trkpt>
      <trkpt lat="47.7754" lon="-3.53866">
        <ele>10.3</ele>
        <time>2020-07-10T08:48:06Z</time>
      </trkpt>
      <trkpt lat="47.77542" lon="-3.53866">
        <ele>9.37</ele>
        <time>2020-07-10T08:48:07Z</time>
      </trkpt>
      <trkpt lat="47.77545" lon="-3.53865">
        <ele>8.37</ele>
        <time>2020-07-10T08:48:08Z</time>
      </trkpt>
      <trkpt lat="47.77547" lon="-3.53864">
        <ele>7.51</ele>
        <time>2020-07-10T08:48:09Z</time>
      </trkpt>
      <trkpt lat="47.7755" lon="-3.53863">
        <ele>6.63</ele>
        <time>2020-07-10T08:48:10Z</time>
      </trkpt>
      <trkpt lat="47.77552" lon="-3.53861">
        <ele>5.55</ele>
        <time>2020-07-10T08:48:11Z</time>
      </trkpt>
      <trkpt lat="47.77556" lon="-3.53859">
        <ele>4.41</ele>
        <time>2020-07-10T08:48:12Z</time>
      </trkpt>
      <trkpt lat="47.77558" lon="-3.53858">
        <ele>4.17</ele>
        <time>2020-07-10T08:48:13Z</time>
      </trkpt>
      <trkpt lat="47.77559" lon="-3.53858">
        <ele>4.2</ele>
        <time>2020-07-10T08:48:14Z</time>
      </trkpt>
      <trkpt lat="47.7756" lon="-3.53857">
        <ele>4.28</ele>
        <time>2020-07-10T08:48:15Z</time>
      </trkpt>
      <trkpt lat="47.77562" lon="-3.53856">
        <ele>4.47</ele>
        <time>2020-07-10T08:48:16Z</time>
      </trkpt>
      <trkpt lat="47.77563" lon="-3.53853">
        <ele>4.62</ele>
        <time>2020-07-10T08:48:17Z</time>
      </trkpt>
      <trkpt lat="47.77563" lon="-3.53848">
        <ele>4.69</ele>
        <time>2020-07-10T08:48:18Z</time>
      </trkpt>
      <trkpt lat="47.77563" lon="-3.53843">
        <ele>4.69</ele>
        <time>2020-07-10T08:48:19Z</time>
      </trkpt>
      <trkpt lat="47.77562" lon="-3.53838">
        <ele>4.57</ele>
        <time>2020-07-10T08:48:20Z</time>
      </trkpt>
      <trkpt lat="47.7756" lon="-3.53834">
        <ele>4.29</ele>
        <time>2020-07-10T08:48:21Z</time>
      </trkpt>
      <trkpt lat="47.77559" lon="-3.53831">
        <ele>4.07</ele>
        <time>2020-07-10T08:48:22Z</time>
      </trkpt>
      <trkpt lat="47.77559" lon="-3.53827">
        <ele>3.86</ele>
        <time>2020-07-10T08:48:23Z</time>
      </trkpt>
      <trkpt lat="47.77559" lon="-3.53824">
        <ele>3.69</ele>
        <time>2020-07-10T08:48:24Z</time>
      </trkpt>
      <trkpt lat="47.77558" lon="-3.53821">
        <ele>3.53</ele>
        <time>2020-07-10T08:48:25Z</time>
      </trkpt>
      <trkpt lat="47.77558" lon="-3.53817">
        <ele>3.44</ele>
        <time>2020-07-10T08:48:26Z</time>
      </trkpt>
      <trkpt lat="47.77557" lon="-3.53813">
        <ele>2.93</ele>
        <time>2020-07-10T08:48:27Z</time>
      </trkpt>
      <trkpt lat="47.77555" lon="-3.53807">
        <ele>2.35</ele>
        <time>2020-07-10T08:48:28Z</time>
      </trkpt>
      <trkpt lat="47.77554" lon="-3.53801">
        <ele>2.49</ele>
        <time>2020-07-10T08:48:29Z</time>
      </trkpt>
      <trkpt lat="47.77554" lon="-3.53795">
        <ele>2.79</ele>
        <time>2020-07-10T08:48:30Z</time>
      </trkpt>
      <trkpt lat="47.77553" lon="-3.5379">
        <ele>3.09</ele>
        <time>2020-07-10T08:48:31Z</time>
      </trkpt>
      <trkpt lat="47.77553" lon="-3.53786">
        <ele>3.33</ele>
        <time>2020-07-10T08:48:32Z</time>
      </trkpt>
      <trkpt lat="47.77553" lon="-3.53782">
        <ele>3.52</ele>
        <time>2020-07-10T08:48:33Z</time>
      </trkpt>
      <trkpt lat="47.77551" lon="-3.53776">
        <ele>3.65</ele>
        <time>2020-07-10T08:48:34Z</time>
      </trkpt>
      <trkpt lat="47.7755" lon="-3.53772">
        <ele>3.68</ele>
        <time>2020-07-10T08:48:35Z</time>
      </trkpt>
      <trkpt lat="47.77549" lon="-3.53767">
        <ele>3.7</ele>
        <time>2020-07-10T08:48:36Z</time>
      </trkpt>
      <trkpt lat="47.77547" lon="-3.53761">
        <ele>3.65</ele>
        <time>2020-07-10T08:48:37Z</time>
      </trkpt>
      <trkpt lat="47.77546" lon="-3.53755">
        <ele>3.59</ele>
        <time>2020-07-10T08:48:38Z</time>
      </trkpt>
      <trkpt lat="47.77545" lon="-3.5375">
        <ele>3.54</ele>
        <time>2020-07-10T08:48:39Z</time>
      </trkpt>
      <trkpt lat="47.77545" lon="-3.53743">
        <ele>3.59</ele>
        <time>2020-07-10T08:48:40Z</time>
      </trkpt>
      <trkpt lat="47.77544" lon="-3.53737">
        <ele>3.56</ele>
        <time>2020-07-10T08:48:41Z</time>
      </trkpt>
      <trkpt lat="47.77543" lon="-3.53732">
        <ele>3.52</ele>
        <time>2020-07-10T08:48:42Z</time>
      </trkpt>
      <trkpt lat="47.77542" lon="-3.53726">
        <ele>3.44</ele>
        <time>2020-07-10T08:48:43Z</time>
      </trkpt>
      <trkpt lat="47.77541" lon="-3.5372">
        <ele>3.41</ele>
        <time>2020-07-10T08:48:44Z</time>
      </trkpt>
      <trkpt lat="47.77539" lon="-3.53714">
        <ele>3.38</ele>
        <time>2020-07-10T08:48:45Z</time>
      </trkpt>
      <trkpt lat="47.77539" lon="-3.53707">
        <ele>3.46</ele>
        <time>2020-07-10T08:48:46Z</time>
      </trkpt>
      <trkpt lat="47.77538" lon="-3.53702">
        <ele>3.37</ele>
        <time>2020-07-10T08:48:47Z</time>
      </trkpt>
      <trkpt lat="47.77537" lon="-3.53698">
        <ele>3.23</ele>
        <time>2020-07-10T08:48:48Z</time>
      </trkpt>
      <trkpt lat="47.77536" lon="-3.53693">
        <ele>3.1</ele>
        <time>2020-07-10T08:48:49Z</time>
      </trkpt>
      <trkpt lat="47.77533" lon="-3.53686">
        <ele>2.68</ele>
        <time>2020-07-10T08:48:50Z</time>
      </trkpt>
      <trkpt lat="47.77532" lon="-3.53678">
        <ele>2.38</ele>
        <time>2020-07-10T08:48:51Z</time>
      </trkpt>
      <trkpt lat="47.77531" lon="-3.53671">
        <ele>2.12</ele>
        <time>2020-07-10T08:48:52Z</time>
      </trkpt>
      <trkpt lat="47.77531" lon="-3.53664">
        <ele>1.98</ele>
        <time>2020-07-10T08:48:53Z</time>
      </trkpt>
      <trkpt lat="47.77531" lon="-3.53657">
        <ele>1.95</ele>
        <time>2020-07-10T08:48:54Z</time>
      </trkpt>
      <trkpt lat="47.77531" lon="-3.53651">
        <ele>1.95</ele>
        <time>2020-07-10T08:48:55Z</time>
      </trkpt>
      <trkpt lat="47.77532" lon="-3.53644">
        <ele>2.02</ele>
        <time>2020-07-10T08:48:56Z</time>
      </trkpt>
      <trkpt lat="47.77533" lon="-3.53638">
        <ele>2.11</ele>
        <time>2020-07-10T08:48:57Z</time>
      </trkpt>
      <trkpt lat="47.77534" lon="-3.53632">
        <ele>2.17</ele>
        <time>2020-07-10T08:48:58Z</time>
      </trkpt>
      <trkpt lat="47.77535" lon="-3.53627">
        <ele>2.18</ele>
        <time>2020-07-10T08:48:59Z</time>
      </trkpt>
      <trkpt lat="47.77536" lon="-3.53621">
        <ele>2.15</ele>
        <time>2020-07-10T08:49:00Z</time>
      </trkpt>
      <trkpt lat="47.77537" lon="-3.53614">
        <ele>2.18</ele>
        <time>2020-07-10T08:49:01Z</time>
      </trkpt>
      <trkpt lat="47.77539" lon="-3.53607">
        <ele>2.22</ele>
        <time>2020-07-10T08:49:02Z</time>
      </trkpt>
      <trkpt lat="47.77541" lon="-3.53601">
        <ele>2.22</ele>
        <time>2020-07-10T08:49:03Z</time>
      </trkpt>
      <trkpt lat="47.77543" lon="-3.53596">
        <ele>2.16</ele>
        <time>2020-07-10T08:49:04Z</time>
      </trkpt>
      <trkpt lat="47.77546" lon="-3.53592">
        <ele>2.18</ele>
        <time>2020-07-10T08:49:05Z</time>
      </trkpt>
      <trkpt lat="47.77549" lon="-3.5359">
        <ele>2.26</ele>
        <time>2020-07-10T08:49:06Z</time>
      </trkpt>
      <trkpt lat="47.77553" lon="-3.53588">
        <ele>2.42</ele>
        <time>2020-07-10T08:49:07Z</time>
      </trkpt>
      <trkpt lat="47.77557" lon="-3.53587">
        <ele>2.67</ele>
        <time>2020-07-10T08:49:08Z</time>
      </trkpt>
      <trkpt lat="47.77561" lon="-3.53585">
        <ele>3.34</ele>
        <time>2020-07-10T08:49:09Z</time>
      </trkpt>
      <trkpt lat="47.77564" lon="-3.53582">
        <ele>4.04</ele>
        <time>2020-07-10T08:49:10Z</time>
      </trkpt>
      <trkpt lat="47.77567" lon="-3.53577">
        <ele>4.42</ele>
        <time>2020-07-10T08:49:11Z</time>
      </trkpt>
      <trkpt lat="47.77568" lon="-3.53571">
        <ele>4.32</ele>
        <time>2020-07-10T08:49:12Z</time>
      </trkpt>
      <trkpt lat="47.77568" lon="-3.53563">
        <ele>3.68</ele>
        <time>2020-07-10T08:49:13Z</time>
      </trkpt>
      <trkpt lat="47.7757" lon="-3.53556">
        <ele>3.3</ele>
        <time>2020-07-10T08:49:14Z</time>
      </trkpt>
      <trkpt lat="47.77572" lon="-3.53551">
        <ele>3.43</ele>
        <time>2020-07-10T08:49:15Z</time>
      </trkpt>
      <trkpt lat="47.77574" lon="-3.53545">
        <ele>3.77</ele>
        <time>2020-07-10T08:49:16Z</time>
      </trkpt>
      <trkpt lat="47.77577" lon="-3.53541">
        <ele>4.15</ele>
        <time>2020-07-10T08:49:17Z</time>
      </trkpt>
      <trkpt lat="47.77579" lon="-3.53537">
        <ele>4.51</ele>
        <time>2020-07-10T08:49:18Z</time>
      </trkpt>
      <trkpt lat="47.77581" lon="-3.53533">
        <ele>4.74</ele>
        <time>2020-07-10T08:49:19Z</time>
      </trkpt>
      <trkpt lat="47.77582" lon="-3.53528">
        <ele>4.8</ele>
        <time>2020-07-10T08:49:20Z</time>
      </trkpt>
      <trkpt lat="47.77583" lon="-3.53523">
        <ele>4.81</ele>
        <time>2020-07-10T08:49:21Z</time>
      </trkpt>
      <trkpt lat="47.77584" lon="-3.53516">
        <ele>4.71</ele>
        <time>2020-07-10T08:49:22Z</time>
      </trkpt>
      <trkpt lat="47.77584" lon="-3.53509">
        <ele>4.63</ele>
        <time>2020-07-10T08:49:23Z</time>
      </trkpt>
      <trkpt lat="47.77585" lon="-3.53503">
        <ele>4.52</ele>
        <time>2020-07-10T08:49:24Z</time>
      </trkpt>
      <trkpt lat="47.77586" lon="-3.53498">
        <ele>4.72</ele>
        <time>2020-07-10T08:49:25Z</time>
      </trkpt>
      <trkpt lat="47.77587" lon="-3.53491">
        <ele>5.01</ele>
        <time>2020-07-10T08:49:26Z</time>
      </trkpt>
      <trkpt lat="47.77588" lon="-3.53485">
        <ele>5.29</ele>
        <time>2020-07-10T08:49:27Z</time>
      </trkpt>
      <trkpt lat="47.77588" lon="-3.53478">
        <ele>5.41</ele>
        <time>2020-07-10T08:49:28Z</time>
      </trkpt>
      <trkpt lat="47.77587" lon="-3.53471">
        <ele>5.4</ele>
        <time>2020-07-10T08:49:29Z</time>
      </trkpt>
      <trkpt lat="47.77586" lon="-3.53464">
        <ele>5.4</ele>
        <time>2020-07-10T08:49:30Z</time>
      </trkpt>
      <trkpt lat="47.77585" lon="-3.53458">
        <ele>5.39</ele>
        <time>2020-07-10T08:49:31Z</time>
      </trkpt>
      <trkpt lat="47.77584" lon="-3.53451">
        <ele>5.5</ele>
        <time>2020-07-10T08:49:32Z</time>
      </trkpt>
      <trkpt lat="47.77582" lon="-3.53446">
        <ele>5.64</ele>
        <time>2020-07-10T08:49:33Z</time>
      </trkpt>
      <trkpt lat="47.77581" lon="-3.53439">
        <ele>5.7</ele>
        <time>2020-07-10T08:49:34Z</time>
      </trkpt>
      <trkpt lat="47.7758" lon="-3.53432">
        <ele>5.66</ele>
        <time>2020-07-10T08:49:35Z</time>
      </trkpt>
      <trkpt lat="47.77579" lon="-3.53425">
        <ele>5.61</ele>
        <time>2020-07-10T08:49:36Z</time>
      </trkpt>
      <trkpt lat="47.77578" lon="-3.53418">
        <ele>5.56</ele>
        <time>2020-07-10T08:49:37Z</time>
      </trkpt>
      <trkpt lat="47.77576" lon="-3.53411">
        <ele>5.1</ele>
        <time>2020-07-10T08:49:38Z</time>
      </trkpt>
      <trkpt lat="47.77576" lon="-3.53404">
        <ele>4.68</ele>
        <time>2020-07-10T08:49:39Z</time>
      </trkpt>
      <trkpt lat="47.77576" lon="-3.53396">
        <ele>4.3</ele>
        <time>2020-07-10T08:49:40Z</time>
      </trkpt>
      <trkpt lat="47.77577" lon="-3.53388">
        <ele>3.92</ele>
        <time>2020-07-10T08:49:41Z</time>
      </trkpt>
      <trkpt lat="47.77578" lon="-3.5338">
        <ele>3.43</ele>
        <time>2020-07-10T08:49:42Z</time>
      </trkpt>
      <trkpt lat="47.77579" lon="-3.53372">
        <ele>2.92</ele>
        <time>2020-07-10T08:49:43Z</time>
      </trkpt>
      <trkpt lat="47.77581" lon="-3.53364">
        <ele>2.33</ele>
        <time>2020-07-10T08:49:44Z</time>
      </trkpt>
      <trkpt lat="47.77582" lon="-3.53356">
        <ele>1.8</ele>
        <time>2020-07-10T08:49:45Z</time>
      </trkpt>
      <trkpt lat="47.77585" lon="-3.53349">
        <ele>1.39</ele>
        <time>2020-07-10T08:49:46Z</time>
      </trkpt>
      <trkpt lat="47.77589" lon="-3.53343">
        <ele>1.05</ele>
        <time>2020-07-10T08:49:47Z</time>
      </trkpt>
      <trkpt lat="47.77594" lon="-3.5334">
        <ele>0.84</ele>
        <time>2020-07-10T08:49:48Z</time>
      </trkpt>
      <trkpt lat="47.77598" lon="-3.53339">
        <ele>0.78</ele>
        <time>2020-07-10T08:49:49Z</time>
      </trkpt>
      <trkpt lat="47.77602" lon="-3.5334">
        <ele>0.92</ele>
        <time>2020-07-10T08:49:50Z</time>
      </trkpt>
      <trkpt lat="47.77606" lon="-3.53342">
        <ele>1.2</ele>
        <time>2020-07-10T08:49:51Z</time>
      </trkpt>
      <trkpt lat="47.7761" lon="-3.53344">
        <ele>1.69</ele>
        <time>2020-07-10T08:49:52Z</time>
      </trkpt>
      <trkpt lat="47.77613" lon="-3.53347">
        <ele>2.16</ele>
        <time>2020-07-10T08:49:53Z</time>
      </trkpt>
      <trkpt lat="47.77617" lon="-3.5335">
        <ele>2.49</ele>
        <time>2020-07-10T08:49:54Z</time>
      </trkpt>
      <trkpt lat="47.7762" lon="-3.53353">
        <ele>2.65</ele>
        <time>2020-07-10T08:49:55Z</time>
      </trkpt>
      <trkpt lat="47.77624" lon="-3.53355">
        <ele>2.67</ele>
        <time>2020-07-10T08:49:56Z</time>
      </trkpt>
      <trkpt lat="47.77627" lon="-3.53356">
        <ele>2.6</ele>
        <time>2020-07-10T08:49:57Z</time>
      </trkpt>
      <trkpt lat="47.77631" lon="-3.53358">
        <ele>2.48</ele>
        <time>2020-07-10T08:49:58Z</time>
      </trkpt>
      <trkpt lat="47.77635" lon="-3.5336">
        <ele>2.32</ele>
        <time>2020-07-10T08:49:59Z</time>
      </trkpt>
      <trkpt lat="47.7764" lon="-3.53361">
        <ele>2.05</ele>
        <time>2020-07-10T08:50:00Z</time>
      </trkpt>
      <trkpt lat="47.77644" lon="-3.53362">
        <ele>2.05</ele>
        <time>2020-07-10T08:50:01Z</time>
      </trkpt>
      <trkpt lat="47.77649" lon="-3.53364">
        <ele>2.35</ele>
        <time>2020-07-10T08:50:02Z</time>
      </trkpt>
      <trkpt lat="47.77654" lon="-3.53365">
        <ele>2.8</ele>
        <time>2020-07-10T08:50:03Z</time>
      </trkpt>
      <trkpt lat="47.77658" lon="-3.53367">
        <ele>3.25</ele>
        <time>2020-07-10T08:50:04Z</time>
      </trkpt>
      <trkpt lat="47.77663" lon="-3.53368">
        <ele>3.54</ele>
        <time>2020-07-10T08:50:05Z</time>
      </trkpt>
      <trkpt lat="47.77668" lon="-3.53369">
        <ele>3.89</ele>
        <time>2020-07-10T08:50:06Z</time>
      </trkpt>
      <trkpt lat="47.77672" lon="-3.5337">
        <ele>4.2</ele>
        <time>2020-07-10T08:50:07Z</time>
      </trkpt>
      <trkpt lat="47.77676" lon="-3.53371">
        <ele>4.67</ele>
        <time>2020-07-10T08:50:08Z</time>
      </trkpt>
      <trkpt lat="47.7768" lon="-3.53373">
        <ele>5.11</ele>
        <time>2020-07-10T08:50:09Z</time>
      </trkpt>
      <trkpt lat="47.77684" lon="-3.53374">
        <ele>5.28</ele>
        <time>2020-07-10T08:50:10Z</time>
      </trkpt>
      <trkpt lat="47.77688" lon="-3.53372">
        <ele>5</ele>
        <time>2020-07-10T08:50:11Z</time>
      </trkpt>
      <trkpt lat="47.77692" lon="-3.53371">
        <ele>4.49</ele>
        <time>2020-07-10T08:50:12Z</time>
      </trkpt>
      <trkpt lat="47.77696" lon="-3.53369">
        <ele>3.98</ele>
        <time>2020-07-10T08:50:13Z</time>
      </trkpt>
      <trkpt lat="47.77699" lon="-3.53368">
        <ele>3.59</ele>
        <time>2020-07-10T08:50:14Z</time>
      </trkpt>
      <trkpt lat="47.77702" lon="-3.53364">
        <ele>2.93</ele>
        <time>2020-07-10T08:50:15Z</time>
      </trkpt>
      <trkpt lat="47.77706" lon="-3.53362">
        <ele>2.35</ele>
        <time>2020-07-10T08:50:16Z</time>
      </trkpt>
      <trkpt lat="47.77711" lon="-3.53359">
        <ele>2.08</ele>
        <time>2020-07-10T08:50:17Z</time>
      </trkpt>
      <trkpt lat="47.77716" lon="-3.53357">
        <ele>2.01</ele>
        <time>2020-07-10T08:50:18Z</time>
      </trkpt>
      <trkpt lat="47.7772" lon="-3.53355">
        <ele>1.98</ele>
        <time>2020-07-10T08:50:19Z</time>
      </trkpt>
      <trkpt lat="47.77725" lon="-3.53354">
        <ele>2.22</ele>
        <time>2020-07-10T08:50:20Z</time>
      </trkpt>
      <trkpt lat="47.77729" lon="-3.53353">
        <ele>2.53</ele>
        <time>2020-07-10T08:50:21Z</time>
      </trkpt>
      <trkpt lat="47.77733" lon="-3.53353">
        <ele>2.84</ele>
        <time>2020-07-10T08:50:22Z</time>
      </trkpt>
      <trkpt lat="47.77737" lon="-3.53352">
        <ele>3.22</ele>
        <time>2020-07-10T08:50:23Z</time>
      </trkpt>
      <trkpt lat="47.77741" lon="-3.53352">
        <ele>3.54</ele>
        <time>2020-07-10T08:50:24Z</time>
      </trkpt>
      <trkpt lat="47.77745" lon="-3.53351">
        <ele>3.8</ele>
        <time>2020-07-10T08:50:25Z</time>
      </trkpt>
      <trkpt lat="47.77749" lon="-3.53349">
        <ele>3.81</ele>
        <time>2020-07-10T08:50:26Z</time>
      </trkpt>
      <trkpt lat="47.77753" lon="-3.53348">
        <ele>3.84</ele>
        <time>2020-07-10T08:50:27Z</time>
      </trkpt>
      <trkpt lat="47.77758" lon="-3.53347">
        <ele>3.8</ele>
        <time>2020-07-10T08:50:28Z</time>
      </trkpt>
      <trkpt lat="47.77763" lon="-3.53348">
        <ele>3.99</ele>
        <time>2020-07-10T08:50:29Z</time>
      </trkpt>
      <trkpt lat="47.77768" lon="-3.53348">
        <ele>4.21</ele>
        <time>2020-07-10T08:50:30Z</time>
      </trkpt>
      <trkpt lat="47.77772" lon="-3.53348">
        <ele>4.4</ele>
        <time>2020-07-10T08:50:31Z</time>
      </trkpt>
      <trkpt lat="47.77776" lon="-3.53348">
        <ele>4.66</ele>
        <time>2020-07-10T08:50:32Z</time>
      </trkpt>
      <trkpt lat="47.7778" lon="-3.53349">
        <ele>4.86</ele>
        <time>2020-07-10T08:50:33Z</time>
      </trkpt>
      <trkpt lat="47.77785" lon="-3.53349">
        <ele>4.98</ele>
        <time>2020-07-10T08:50:34Z</time>
      </trkpt>
      <trkpt lat="47.77789" lon="-3.5335">
        <ele>5.1</ele>
        <time>2020-07-10T08:50:35Z</time>
      </trkpt>
      <trkpt lat="47.77794" lon="-3.5335">
        <ele>5.2</ele>
        <time>2020-07-10T08:50:36Z</time>
      </trkpt>
      <trkpt lat="47.77798" lon="-3.5335">
        <ele>5.17</ele>
        <time>2020-07-10T08:50:37Z</time>
      </trkpt>
      <trkpt lat="47.77802" lon="-3.5335">
        <ele>5.19</ele>
        <time>2020-07-10T08:50:38Z</time>
      </trkpt>
      <trkpt lat="47.77805" lon="-3.53351">
        <ele>5.29</ele>
        <time>2020-07-10T08:50:39Z</time>
      </trkpt>
      <trkpt lat="47.7781" lon="-3.5335">
        <ele>5.29</ele>
        <time>2020-07-10T08:50:40Z</time>
      </trkpt>
      <trkpt lat="47.77814" lon="-3.53349">
        <ele>5.23</ele>
        <time>2020-07-10T08:50:41Z</time>
      </trkpt>
      <trkpt lat="47.77818" lon="-3.53349">
        <ele>5.17</ele>
        <time>2020-07-10T08:50:42Z</time>
      </trkpt>
      <trkpt lat="47.77822" lon="-3.5335">
        <ele>5.51</ele>
        <time>2020-07-10T08:50:43Z</time>
      </trkpt>
      <trkpt lat="47.77827" lon="-3.5335">
        <ele>5.56</ele>
        <time>2020-07-10T08:50:44Z</time>
      </trkpt>
      <trkpt lat="47.77833" lon="-3.53349">
        <ele>5.48</ele>
        <time>2020-07-10T08:50:45Z</time>
      </trkpt>
      <trkpt lat="47.77837" lon="-3.53348">
        <ele>5.4</ele>
        <time>2020-07-10T08:50:46Z</time>
      </trkpt>
      <trkpt lat="47.77841" lon="-3.53346">
        <ele>5.29</ele>
        <time>2020-07-10T08:50:47Z</time>
      </trkpt>
      <trkpt lat="47.77846" lon="-3.53345">
        <ele>5.31</ele>
        <time>2020-07-10T08:50:48Z</time>
      </trkpt>
      <trkpt lat="47.77851" lon="-3.53344">
        <ele>5.25</ele>
        <time>2020-07-10T08:50:49Z</time>
      </trkpt>
      <trkpt lat="47.77855" lon="-3.53343">
        <ele>5.28</ele>
        <time>2020-07-10T08:50:50Z</time>
      </trkpt>
      <trkpt lat="47.77859" lon="-3.53341">
        <ele>5.17</ele>
        <time>2020-07-10T08:50:51Z</time>
      </trkpt>
      <trkpt lat="47.77863" lon="-3.5334">
        <ele>5.13</ele>
        <time>2020-07-10T08:50:52Z</time>
      </trkpt>
      <trkpt lat="47.77866" lon="-3.53338">
        <ele>5.04</ele>
        <time>2020-07-10T08:50:53Z</time>
      </trkpt>
      <trkpt lat="47.7787" lon="-3.53336">
        <ele>4.75</ele>
        <time>2020-07-10T08:50:54Z</time>
      </trkpt>
      <trkpt lat="47.77874" lon="-3.53332">
        <ele>4.31</ele>
        <time>2020-07-10T08:50:55Z</time>
      </trkpt>
      <trkpt lat="47.77881" lon="-3.53328">
        <ele>4.12</ele>
        <time>2020-07-10T08:50:56Z</time>
      </trkpt>
      <trkpt lat="47.77887" lon="-3.53325">
        <ele>3.87</ele>
        <time>2020-07-10T08:50:57Z</time>
      </trkpt>
      <trkpt lat="47.77893" lon="-3.53321">
        <ele>3.34</ele>
        <time>2020-07-10T08:50:58Z</time>
      </trkpt>
      <trkpt lat="47.77899" lon="-3.53317">
        <ele>2.72</ele>
        <time>2020-07-10T08:50:59Z</time>
      </trkpt>
      <trkpt lat="47.77906" lon="-3.53314">
        <ele>2.29</ele>
        <time>2020-07-10T08:51:00Z</time>
      </trkpt>
      <trkpt lat="47.77911" lon="-3.53311">
        <ele>1.9</ele>
        <time>2020-07-10T08:51:01Z</time>
      </trkpt>
      <trkpt lat="47.77917" lon="-3.53309">
        <ele>1.73</ele>
        <time>2020-07-10T08:51:02Z</time>
      </trkpt>
      <trkpt lat="47.77921" lon="-3.53309">
        <ele>1.5</ele>
        <time>2020-07-10T08:51:03Z</time>
      </trkpt>
      <trkpt lat="47.77925" lon="-3.5331">
        <ele>1.51</ele>
        <time>2020-07-10T08:51:04Z</time>
      </trkpt>
      <trkpt lat="47.77927" lon="-3.53312">
        <ele>1.64</ele>
        <time>2020-07-10T08:51:05Z</time>
      </trkpt>
      <trkpt lat="47.77929" lon="-3.53315">
        <ele>1.92</ele>
        <time>2020-07-10T08:51:06Z</time>
      </trkpt>
      <trkpt lat="47.7793" lon="-3.53319">
        <ele>2.27</ele>
        <time>2020-07-10T08:51:07Z</time>
      </trkpt>
      <trkpt lat="47.77933" lon="-3.53322">
        <ele>2.54</ele>
        <time>2020-07-10T08:51:08Z</time>
      </trkpt>
      <trkpt lat="47.77935" lon="-3.53326">
        <ele>2.74</ele>
        <time>2020-07-10T08:51:09Z</time>
      </trkpt>
      <trkpt lat="47.77937" lon="-3.5333">
        <ele>2.86</ele>
        <time>2020-07-10T08:51:10Z</time>
      </trkpt>
      <trkpt lat="47.7794" lon="-3.53335">
        <ele>3</ele>
        <time>2020-07-10T08:51:11Z</time>
      </trkpt>
      <trkpt lat="47.77943" lon="-3.53338">
        <ele>3.15</ele>
        <time>2020-07-10T08:51:12Z</time>
      </trkpt>
      <trkpt lat="47.77946" lon="-3.53342">
        <ele>3.41</ele>
        <time>2020-07-10T08:51:13Z</time>
      </trkpt>
      <trkpt lat="47.77949" lon="-3.53343">
        <ele>3.68</ele>
        <time>2020-07-10T08:51:14Z</time>
      </trkpt>
      <trkpt lat="47.77952" lon="-3.53342">
        <ele>3.62</ele>
        <time>2020-07-10T08:51:15Z</time>
      </trkpt>
      <trkpt lat="47.77954" lon="-3.53339">
        <ele>3.26</ele>
        <time>2020-07-10T08:51:16Z</time>
      </trkpt>
      <trkpt lat="47.77957" lon="-3.53336">
        <ele>2.78</ele>
        <time>2020-07-10T08:51:17Z</time>
      </trkpt>
      <trkpt lat="47.7796" lon="-3.53335">
        <ele>2.42</ele>
        <time>2020-07-10T08:51:18Z</time>
      </trkpt>
      <trkpt lat="47.77963" lon="-3.53334">
        <ele>2.21</ele>
        <time>2020-07-10T08:51:19Z</time>
      </trkpt>
      <trkpt lat="47.77966" lon="-3.53334">
        <ele>2.13</ele>
        <time>2020-07-10T08:51:20Z</time>
      </trkpt>
      <trkpt lat="47.7797" lon="-3.53335">
        <ele>2.18</ele>
        <time>2020-07-10T08:51:21Z</time>
      </trkpt>
      <trkpt lat="47.77973" lon="-3.53335">
        <ele>2.29</ele>
        <time>2020-07-10T08:51:22Z</time>
      </trkpt>
      <trkpt lat="47.77976" lon="-3.53335">
        <ele>2.66</ele>
        <time>2020-07-10T08:51:23Z</time>
      </trkpt>
      <trkpt lat="47.77978" lon="-3.53334">
        <ele>2.88</ele>
        <time>2020-07-10T08:51:24Z</time>
      </trkpt>
      <trkpt lat="47.77981" lon="-3.53333">
        <ele>3.13</ele>
        <time>2020-07-10T08:51:25Z</time>
      </trkpt>
      <trkpt lat="47.77985" lon="-3.53332">
        <ele>3.42</ele>
        <time>2020-07-10T08:51:26Z</time>
      </trkpt>
      <trkpt lat="47.77989" lon="-3.53329">
        <ele>3.57</ele>
        <time>2020-07-10T08:51:27Z</time>
      </trkpt>
      <trkpt lat="47.77992" lon="-3.53325">
        <ele>3.42</ele>
        <time>2020-07-10T08:51:28Z</time>
      </trkpt>
      <trkpt lat="47.77995" lon="-3.53321">
        <ele>3.11</ele>
        <time>2020-07-10T08:51:29Z</time>
      </trkpt>
      <trkpt lat="47.77998" lon="-3.53316">
        <ele>2.45</ele>
        <time>2020-07-10T08:51:30Z</time>
      </trkpt>
      <trkpt lat="47.78002" lon="-3.53311">
        <ele>1.72</ele>
        <time>2020-07-10T08:51:31Z</time>
      </trkpt>
      <trkpt lat="47.78005" lon="-3.53306">
        <ele>1.14</ele>
        <time>2020-07-10T08:51:32Z</time>
      </trkpt>
      <trkpt lat="47.78009" lon="-3.53302">
        <ele>1.1</ele>
        <time>2020-07-10T08:51:33Z</time>
      </trkpt>
      <trkpt lat="47.78014" lon="-3.53299">
        <ele>1.3</ele>
        <time>2020-07-10T08:51:34Z</time>
      </trkpt>
      <trkpt lat="47.78019" lon="-3.53296">
        <ele>1.56</ele>
        <time>2020-07-10T08:51:35Z</time>
      </trkpt>
      <trkpt lat="47.78024" lon="-3.53295">
        <ele>1.9</ele>
        <time>2020-07-10T08:51:36Z</time>
      </trkpt>
      <trkpt lat="47.78028" lon="-3.53294">
        <ele>2.22</ele>
        <time>2020-07-10T08:51:37Z</time>
      </trkpt>
      <trkpt lat="47.78033" lon="-3.53293">
        <ele>2.37</ele>
        <time>2020-07-10T08:51:38Z</time>
      </trkpt>
      <trkpt lat="47.78036" lon="-3.53292">
        <ele>2.29</ele>
        <time>2020-07-10T08:51:39Z</time>
      </trkpt>
      <trkpt lat="47.78038" lon="-3.53289">
        <ele>2.05</ele>
        <time>2020-07-10T08:51:40Z</time>
      </trkpt>
      <trkpt lat="47.78043" lon="-3.53288">
        <ele>1.97</ele>
        <time>2020-07-10T08:51:41Z</time>
      </trkpt>
      <trkpt lat="47.78048" lon="-3.53286">
        <ele>1.65</ele>
        <time>2020-07-10T08:51:42Z</time>
      </trkpt>
      <trkpt lat="47.78053" lon="-3.53284">
        <ele>1.4</ele>
        <time>2020-07-10T08:51:43Z</time>
      </trkpt>
      <trkpt lat="47.78057" lon="-3.53283">
        <ele>1.29</ele>
        <time>2020-07-10T08:51:44Z</time>
      </trkpt>
      <trkpt lat="47.78061" lon="-3.53284">
        <ele>1.31</ele>
        <time>2020-07-10T08:51:45Z</time>
      </trkpt>
      <trkpt lat="47.78066" lon="-3.53283">
        <ele>1.28</ele>
        <time>2020-07-10T08:51:46Z</time>
      </trkpt>
      <trkpt lat="47.7807" lon="-3.53283">
        <ele>1.33</ele>
        <time>2020-07-10T08:51:47Z</time>
      </trkpt>
      <trkpt lat="47.78074" lon="-3.53284">
        <ele>1.42</ele>
        <time>2020-07-10T08:51:48Z</time>
      </trkpt>
      <trkpt lat="47.78078" lon="-3.53285">
        <ele>1.63</ele>
        <time>2020-07-10T08:51:49Z</time>
      </trkpt>
      <trkpt lat="47.78081" lon="-3.53286">
        <ele>1.9</ele>
        <time>2020-07-10T08:51:50Z</time>
      </trkpt>
      <trkpt lat="47.78085" lon="-3.53286">
        <ele>2.03</ele>
        <time>2020-07-10T08:51:51Z</time>
      </trkpt>
      <trkpt lat="47.78088" lon="-3.53284">
        <ele>2.03</ele>
        <time>2020-07-10T08:51:52Z</time>
      </trkpt>
      <trkpt lat="47.78093" lon="-3.53282">
        <ele>1.78</ele>
        <time>2020-07-10T08:51:53Z</time>
      </trkpt>
      <trkpt lat="47.78097" lon="-3.5328">
        <ele>1.56</ele>
        <time>2020-07-10T08:51:54Z</time>
      </trkpt>
      <trkpt lat="47.78101" lon="-3.53279">
        <ele>1.66</ele>
        <time>2020-07-10T08:51:55Z</time>
      </trkpt>
      <trkpt lat="47.78105" lon="-3.5328">
        <ele>1.96</ele>
        <time>2020-07-10T08:51:56Z</time>
      </trkpt>
      <trkpt lat="47.7811" lon="-3.53279">
        <ele>2.22</ele>
        <time>2020-07-10T08:51:57Z</time>
      </trkpt>
      <trkpt lat="47.78114" lon="-3.53278">
        <ele>2.39</ele>
        <time>2020-07-10T08:51:58Z</time>
      </trkpt>
      <trkpt lat="47.78119" lon="-3.53277">
        <ele>2.77</ele>
        <time>2020-07-10T08:51:59Z</time>
      </trkpt>
      <trkpt lat="47.78123" lon="-3.53275">
        <ele>3.09</ele>
        <time>2020-07-10T08:52:00Z</time>
      </trkpt>
      <trkpt lat="47.78127" lon="-3.53273">
        <ele>3.29</ele>
        <time>2020-07-10T08:52:01Z</time>
      </trkpt>
      <trkpt lat="47.78131" lon="-3.5327">
        <ele>3.37</ele>
        <time>2020-07-10T08:52:02Z</time>
      </trkpt>
      <trkpt lat="47.78134" lon="-3.53267">
        <ele>3.28</ele>
        <time>2020-07-10T08:52:03Z</time>
      </trkpt>
      <trkpt lat="47.78138" lon="-3.53264">
        <ele>3.03</ele>
        <time>2020-07-10T08:52:04Z</time>
      </trkpt>
      <trkpt lat="47.78142" lon="-3.53261">
        <ele>2.78</ele>
        <time>2020-07-10T08:52:05Z</time>
      </trkpt>
      <trkpt lat="47.78145" lon="-3.5326">
        <ele>2.64</ele>
        <time>2020-07-10T08:52:06Z</time>
      </trkpt>
      <trkpt lat="47.78149" lon="-3.53257">
        <ele>2.42</ele>
        <time>2020-07-10T08:52:07Z</time>
      </trkpt>
      <trkpt lat="47.78153" lon="-3.53256">
        <ele>2.38</ele>
        <time>2020-07-10T08:52:08Z</time>
      </trkpt>
      <trkpt lat="47.78157" lon="-3.53256">
        <ele>2.62</ele>
        <time>2020-07-10T08:52:09Z</time>
      </trkpt>
      <trkpt lat="47.78161" lon="-3.53256">
        <ele>2.92</ele>
        <time>2020-07-10T08:52:10Z</time>
      </trkpt>
      <trkpt lat="47.78164" lon="-3.53254">
        <ele>2.87</ele>
        <time>2020-07-10T08:52:11Z</time>
      </trkpt>
      <trkpt lat="47.78168" lon="-3.53253">
        <ele>2.79</ele>
        <time>2020-07-10T08:52:12Z</time>
      </trkpt>
      <trkpt lat="47.78172" lon="-3.53252">
        <ele>2.5</ele>
        <time>2020-07-10T08:52:13Z</time>
      </trkpt>
      <trkpt lat="47.78177" lon="-3.53251">
        <ele>2.36</ele>
        <time>2020-07-10T08:52:14Z</time>
      </trkpt>
      <trkpt lat="47.78182" lon="-3.53252">
        <ele>2.43</ele>
        <time>2020-07-10T08:52:15Z</time>
      </trkpt>
      <trkpt lat="47.78187" lon="-3.53253">
        <ele>2.6</ele>
        <time>2020-07-10T08:52:16Z</time>
      </trkpt>
      <trkpt lat="47.78191" lon="-3.53253">
        <ele>2.8</ele>
        <time>2020-07-10T08:52:17Z</time>
      </trkpt>
      <trkpt lat="47.78195" lon="-3.53254">
        <ele>2.92</ele>
        <time>2020-07-10T08:52:18Z</time>
      </trkpt>
      <trkpt lat="47.78199" lon="-3.53255">
        <ele>3.19</ele>
        <time>2020-07-10T08:52:19Z</time>
      </trkpt>
      <trkpt lat="47.78202" lon="-3.53257">
        <ele>3.72</ele>
        <time>2020-07-10T08:52:20Z</time>
      </trkpt>
      <trkpt lat="47.78205" lon="-3.53259">
        <ele>4.18</ele>
        <time>2020-07-10T08:52:21Z</time>
      </trkpt>
      <trkpt lat="47.78208" lon="-3.53259">
        <ele>4.43</ele>
        <time>2020-07-10T08:52:22Z</time>
      </trkpt>
      <trkpt lat="47.78212" lon="-3.53259">
        <ele>4.57</ele>
        <time>2020-07-10T08:52:23Z</time>
      </trkpt>
      <trkpt lat="47.78215" lon="-3.53256">
        <ele>3.95</ele>
        <time>2020-07-10T08:52:24Z</time>
      </trkpt>
      <trkpt lat="47.78218" lon="-3.53253">
        <ele>3.35</ele>
        <time>2020-07-10T08:52:25Z</time>
      </trkpt>
      <trkpt lat="47.78221" lon="-3.5325">
        <ele>2.41</ele>
        <time>2020-07-10T08:52:26Z</time>
      </trkpt>
      <trkpt lat="47.78224" lon="-3.53247">
        <ele>2.1</ele>
        <time>2020-07-10T08:52:27Z</time>
      </trkpt>
      <trkpt lat="47.78228" lon="-3.53244">
        <ele>2.18</ele>
        <time>2020-07-10T08:52:28Z</time>
      </trkpt>
      <trkpt lat="47.78233" lon="-3.53241">
        <ele>2.31</ele>
        <time>2020-07-10T08:52:29Z</time>
      </trkpt>
      <trkpt lat="47.78238" lon="-3.53237">
        <ele>2.36</ele>
        <time>2020-07-10T08:52:30Z</time>
      </trkpt>
      <trkpt lat="47.78241" lon="-3.53235">
        <ele>2.37</ele>
        <time>2020-07-10T08:52:31Z</time>
      </trkpt>
      <trkpt lat="47.78245" lon="-3.53233">
        <ele>2.29</ele>
        <time>2020-07-10T08:52:32Z</time>
      </trkpt>
      <trkpt lat="47.78248" lon="-3.53232">
        <ele>2.24</ele>
        <time>2020-07-10T08:52:33Z</time>
      </trkpt>
      <trkpt lat="47.7825" lon="-3.5323">
        <ele>2.05</ele>
        <time>2020-07-10T08:52:34Z</time>
      </trkpt>
      <trkpt lat="47.78254" lon="-3.53228">
        <ele>1.74</ele>
        <time>2020-07-10T08:52:35Z</time>
      </trkpt>
      <trkpt lat="47.78258" lon="-3.53226">
        <ele>1.4</ele>
        <time>2020-07-10T08:52:36Z</time>
      </trkpt>
      <trkpt lat="47.78263" lon="-3.53225">
        <ele>1.17</ele>
        <time>2020-07-10T08:52:37Z</time>
      </trkpt>
      <trkpt lat="47.78268" lon="-3.53224">
        <ele>1.15</ele>
        <time>2020-07-10T08:52:38Z</time>
      </trkpt>
      <trkpt lat="47.78274" lon="-3.53223">
        <ele>1.05</ele>
        <time>2020-07-10T08:52:39Z</time>
      </trkpt>
      <trkpt lat="47.7828" lon="-3.53222">
        <ele>1.05</ele>
        <time>2020-07-10T08:52:40Z</time>
      </trkpt>
      <trkpt lat="47.78285" lon="-3.53222">
        <ele>1.21</ele>
        <time>2020-07-10T08:52:41Z</time>
      </trkpt>
      <trkpt lat="47.7829" lon="-3.53223">
        <ele>1.47</ele>
        <time>2020-07-10T08:52:42Z</time>
      </trkpt>
      <trkpt lat="47.78295" lon="-3.53223">
        <ele>1.67</ele>
        <time>2020-07-10T08:52:43Z</time>
      </trkpt>
      <trkpt lat="47.78299" lon="-3.53223">
        <ele>1.78</ele>
        <time>2020-07-10T08:52:44Z</time>
      </trkpt>
      <trkpt lat="47.78303" lon="-3.53223">
        <ele>2.04</ele>
        <time>2020-07-10T08:52:45Z</time>
      </trkpt>
      <trkpt lat="47.78308" lon="-3.53226">
        <ele>2.47</ele>
        <time>2020-07-10T08:52:46Z</time>
      </trkpt>
      <trkpt lat="47.78312" lon="-3.53228">
        <ele>2.86</ele>
        <time>2020-07-10T08:52:47Z</time>
      </trkpt>
      <trkpt lat="47.78317" lon="-3.53231">
        <ele>3.2</ele>
        <time>2020-07-10T08:52:48Z</time>
      </trkpt>
      <trkpt lat="47.78319" lon="-3.53232">
        <ele>3.36</ele>
        <time>2020-07-10T08:52:49Z</time>
      </trkpt>
      <trkpt lat="47.78321" lon="-3.53233">
        <ele>3.45</ele>
        <time>2020-07-10T08:52:50Z</time>
      </trkpt>
      <trkpt lat="47.78323" lon="-3.53233">
        <ele>3.42</ele>
        <time>2020-07-10T08:52:51Z</time>
      </trkpt>
      <trkpt lat="47.78324" lon="-3.53233">
        <ele>3.39</ele>
        <time>2020-07-10T08:52:52Z</time>
      </trkpt>
      <trkpt lat="47.78324" lon="-3.53234">
        <ele>3.54</ele>
        <time>2020-07-10T08:52:53Z</time>
      </trkpt>
      <trkpt lat="47.78326" lon="-3.53235">
        <ele>3.69</ele>
        <time>2020-07-10T08:52:54Z</time>
      </trkpt>
      <trkpt lat="47.78328" lon="-3.53237">
        <ele>3.85</ele>
        <time>2020-07-10T08:52:55Z</time>
      </trkpt>
      <trkpt lat="47.7833" lon="-3.53239">
        <ele>4.05</ele>
        <time>2020-07-10T08:52:56Z</time>
      </trkpt>
      <trkpt lat="47.78332" lon="-3.5324">
        <ele>4.15</ele>
        <time>2020-07-10T08:52:57Z</time>
      </trkpt>
      <trkpt lat="47.78334" lon="-3.53239">
        <ele>4.07</ele>
        <time>2020-07-10T08:52:58Z</time>
      </trkpt>
      <trkpt lat="47.78336" lon="-3.53239">
        <ele>4.28</ele>
        <time>2020-07-10T08:52:59Z</time>
      </trkpt>
      <trkpt lat="47.78337" lon="-3.53239">
        <ele>4.46</ele>
        <time>2020-07-10T08:53:00Z</time>
      </trkpt>
      <trkpt lat="47.78339" lon="-3.53237">
        <ele>4.53</ele>
        <time>2020-07-10T08:53:01Z</time>
      </trkpt>
      <trkpt lat="47.7834" lon="-3.53236">
        <ele>4.53</ele>
        <time>2020-07-10T08:53:02Z</time>
      </trkpt>
      <trkpt lat="47.78341" lon="-3.53236">
        <ele>4.65</ele>
        <time>2020-07-10T08:53:03Z</time>
      </trkpt>
      <trkpt lat="47.78341" lon="-3.53236">
        <ele>4.71</ele>
        <time>2020-07-10T08:53:04Z</time>
      </trkpt>
      <trkpt lat="47.78342" lon="-3.53235">
        <ele>4.68</ele>
        <time>2020-07-10T08:53:05Z</time>
      </trkpt>
      <trkpt lat="47.78342" lon="-3.53234">
        <ele>4.6</ele>
        <time>2020-07-10T08:53:06Z</time>
      </trkpt>
      <trkpt lat="47.78342" lon="-3.53234">
        <ele>4.57</ele>
        <time>2020-07-10T08:53:07Z</time>
      </trkpt>
      <trkpt lat="47.78342" lon="-3.53234">
        <ele>4.57</ele>
        <time>2020-07-10T08:53:08Z</time>
      </trkpt>
      <trkpt lat="47.78342" lon="-3.53234">
        <ele>4.56</ele>
        <time>2020-07-10T08:53:09Z</time>
      </trkpt>
      <trkpt lat="47.78342" lon="-3.53234">
        <ele>4.56</ele>
        <time>2020-07-10T08:53:10Z</time>
      </trkpt>
      <trkpt lat="47.78342" lon="-3.53234">
        <ele>4.56</ele>
        <time>2020-07-10T08:53:11Z</time>
      </trkpt>
      <trkpt lat="47.78342" lon="-3.53234">
        <ele>4.56</ele>
        <time>2020-07-10T08:53:12Z</time>
      </trkpt>
      <trkpt lat="47.78342" lon="-3.53234">
        <ele>4.56</ele>
        <time>2020-07-10T08:53:13Z</time>
      </trkpt>
      <trkpt lat="47.78342" lon="-3.53234">
        <ele>4.56</ele>
        <time>2020-07-10T08:53:14Z</time>
      </trkpt>
      <trkpt lat="47.78342" lon="-3.53234">
        <ele>4.56</ele>
        <time>2020-07-10T08:53:15Z</time>
      </trkpt>
      <trkpt lat="47.78342" lon="-3.53234">
        <ele>4.56</ele>
        <time>2020-07-10T08:53:16Z</time>
      </trkpt>
      <trkpt lat="47.78342" lon="-3.53234">
        <ele>4.56</ele>
        <time>2020-07-10T08:53:17Z</time>
      </trkpt>
      <trkpt lat="47.78347" lon="-3.53223">
        <ele>4.25</ele>
        <time>2020-07-10T08:53:18Z</time>
      </trkpt>
      <trkpt lat="47.78348" lon="-3.53221">
        <ele>4.16</ele>
        <time>2020-07-10T08:53:19Z</time>
      </trkpt>
      <trkpt lat="47.7835" lon="-3.53219">
        <ele>4.24</ele>
        <time>2020-07-10T08:53:20Z</time>
      </trkpt>
      <trkpt lat="47.7835" lon="-3.53216">
        <ele>4.2</ele>
        <time>2020-07-10T08:53:21Z</time>
      </trkpt>
      <trkpt lat="47.78351" lon="-3.53214">
        <ele>4.16</ele>
        <time>2020-07-10T08:53:22Z</time>
      </trkpt>
      <trkpt lat="47.78351" lon="-3.53211">
        <ele>4.06</ele>
        <time>2020-07-10T08:53:23Z</time>
      </trkpt>
      <trkpt lat="47.78352" lon="-3.5321">
        <ele>3.95</ele>
        <time>2020-07-10T08:53:24Z</time>
      </trkpt>
      <trkpt lat="47.78352" lon="-3.53207">
        <ele>3.82</ele>
        <time>2020-07-10T08:53:25Z</time>
      </trkpt>
      <trkpt lat="47.78353" lon="-3.53204">
        <ele>3.67</ele>
        <time>2020-07-10T08:53:26Z</time>
      </trkpt>
      <trkpt lat="47.78353" lon="-3.53201">
        <ele>3.48</ele>
        <time>2020-07-10T08:53:27Z</time>
      </trkpt>
      <trkpt lat="47.78355" lon="-3.53194">
        <ele>3.16</ele>
        <time>2020-07-10T08:53:28Z</time>
      </trkpt>
      <trkpt lat="47.78357" lon="-3.53187">
        <ele>2.83</ele>
        <time>2020-07-10T08:53:29Z</time>
      </trkpt>
      <trkpt lat="47.78358" lon="-3.53182">
        <ele>2.45</ele>
        <time>2020-07-10T08:53:30Z</time>
      </trkpt>
      <trkpt lat="47.78359" lon="-3.53176">
        <ele>2.05</ele>
        <time>2020-07-10T08:53:31Z</time>
      </trkpt>
      <trkpt lat="47.78362" lon="-3.53172">
        <ele>1.8</ele>
        <time>2020-07-10T08:53:32Z</time>
      </trkpt>
      <trkpt lat="47.78363" lon="-3.5317">
        <ele>1.63</ele>
        <time>2020-07-10T08:53:33Z</time>
      </trkpt>
      <trkpt lat="47.78363" lon="-3.53167">
        <ele>1.49</ele>
        <time>2020-07-10T08:53:34Z</time>
      </trkpt>
      <trkpt lat="47.78365" lon="-3.53165">
        <ele>1.45</ele>
        <time>2020-07-10T08:53:35Z</time>
      </trkpt>
      <trkpt lat="47.78367" lon="-3.53163">
        <ele>1.51</ele>
        <time>2020-07-10T08:53:36Z</time>
      </trkpt>
      <trkpt lat="47.7837" lon="-3.53162">
        <ele>1.69</ele>
        <time>2020-07-10T08:53:37Z</time>
      </trkpt>
      <trkpt lat="47.78373" lon="-3.5316">
        <ele>1.83</ele>
        <time>2020-07-10T08:53:38Z</time>
      </trkpt>
      <trkpt lat="47.78376" lon="-3.53157">
        <ele>1.87</ele>
        <time>2020-07-10T08:53:39Z</time>
      </trkpt>
      <trkpt lat="47.78378" lon="-3.53155">
        <ele>1.86</ele>
        <time>2020-07-10T08:53:40Z</time>
      </trkpt>
      <trkpt lat="47.78381" lon="-3.53153">
        <ele>1.87</ele>
        <time>2020-07-10T08:53:41Z</time>
      </trkpt>
      <trkpt lat="47.78384" lon="-3.53151">
        <ele>1.86</ele>
        <time>2020-07-10T08:53:42Z</time>
      </trkpt>
      <trkpt lat="47.78387" lon="-3.53149">
        <ele>1.78</ele>
        <time>2020-07-10T08:53:43Z</time>
      </trkpt>
      <trkpt lat="47.7839" lon="-3.53147">
        <ele>1.68</ele>
        <time>2020-07-10T08:53:44Z</time>
      </trkpt>
      <trkpt lat="47.78393" lon="-3.53144">
        <ele>1.51</ele>
        <time>2020-07-10T08:53:45Z</time>
      </trkpt>
      <trkpt lat="47.78396" lon="-3.53141">
        <ele>1.26</ele>
        <time>2020-07-10T08:53:46Z</time>
      </trkpt>
      <trkpt lat="47.78399" lon="-3.53139">
        <ele>1.16</ele>
        <time>2020-07-10T08:53:47Z</time>
      </trkpt>
      <trkpt lat="47.78402" lon="-3.53138">
        <ele>1.28</ele>
        <time>2020-07-10T08:53:48Z</time>
      </trkpt>
      <trkpt lat="47.78405" lon="-3.53137">
        <ele>1.5</ele>
        <time>2020-07-10T08:53:49Z</time>
      </trkpt>
      <trkpt lat="47.78408" lon="-3.53135">
        <ele>1.69</ele>
        <time>2020-07-10T08:53:50Z</time>
      </trkpt>
      <trkpt lat="47.78411" lon="-3.53134">
        <ele>1.86</ele>
        <time>2020-07-10T08:53:51Z</time>
      </trkpt>
      <trkpt lat="47.78415" lon="-3.53132">
        <ele>2.03</ele>
        <time>2020-07-10T08:53:52Z</time>
      </trkpt>
      <trkpt lat="47.78419" lon="-3.5313">
        <ele>2.5</ele>
        <time>2020-07-10T08:53:53Z</time>
      </trkpt>
      <trkpt lat="47.78423" lon="-3.53127">
        <ele>3.31</ele>
        <time>2020-07-10T08:53:54Z</time>
      </trkpt>
      <trkpt lat="47.78426" lon="-3.53125">
        <ele>3.94</ele>
        <time>2020-07-10T08:53:55Z</time>
      </trkpt>
      <trkpt lat="47.78429" lon="-3.53123">
        <ele>4.39</ele>
        <time>2020-07-10T08:53:56Z</time>
      </trkpt>
      <trkpt lat="47.78432" lon="-3.53121">
        <ele>4.66</ele>
        <time>2020-07-10T08:53:57Z</time>
      </trkpt>
      <trkpt lat="47.78434" lon="-3.53118">
        <ele>4.54</ele>
        <time>2020-07-10T08:53:58Z</time>
      </trkpt>
      <trkpt lat="47.78435" lon="-3.53114">
        <ele>4.13</ele>
        <time>2020-07-10T08:53:59Z</time>
      </trkpt>
      <trkpt lat="47.78438" lon="-3.53109">
        <ele>3.76</ele>
        <time>2020-07-10T08:54:00Z</time>
      </trkpt>
      <trkpt lat="47.7844" lon="-3.53104">
        <ele>3.61</ele>
        <time>2020-07-10T08:54:01Z</time>
      </trkpt>
      <trkpt lat="47.78443" lon="-3.53098">
        <ele>3.44</ele>
        <time>2020-07-10T08:54:02Z</time>
      </trkpt>
      <trkpt lat="47.78445" lon="-3.53092">
        <ele>3.26</ele>
        <time>2020-07-10T08:54:03Z</time>
      </trkpt>
      <trkpt lat="47.78449" lon="-3.53085">
        <ele>3.36</ele>
        <time>2020-07-10T08:54:04Z</time>
      </trkpt>
      <trkpt lat="47.78453" lon="-3.53078">
        <ele>3.43</ele>
        <time>2020-07-10T08:54:05Z</time>
      </trkpt>
      <trkpt lat="47.78455" lon="-3.53073">
        <ele>3.51</ele>
        <time>2020-07-10T08:54:06Z</time>
      </trkpt>
      <trkpt lat="47.78457" lon="-3.53068">
        <ele>3.39</ele>
        <time>2020-07-10T08:54:07Z</time>
      </trkpt>
      <trkpt lat="47.78459" lon="-3.53063">
        <ele>3.17</ele>
        <time>2020-07-10T08:54:08Z</time>
      </trkpt>
      <trkpt lat="47.7846" lon="-3.53058">
        <ele>2.9</ele>
        <time>2020-07-10T08:54:09Z</time>
      </trkpt>
      <trkpt lat="47.78462" lon="-3.53053">
        <ele>2.62</ele>
        <time>2020-07-10T08:54:10Z</time>
      </trkpt>
      <trkpt lat="47.78462" lon="-3.53049">
        <ele>2.35</ele>
        <time>2020-07-10T08:54:11Z</time>
      </trkpt>
      <trkpt lat="47.78463" lon="-3.53046">
        <ele>2.16</ele>
        <time>2020-07-10T08:54:12Z</time>
      </trkpt>
      <trkpt lat="47.78464" lon="-3.5304">
        <ele>1.84</ele>
        <time>2020-07-10T08:54:13Z</time>
      </trkpt>
      <trkpt lat="47.78465" lon="-3.53036">
        <ele>1.55</ele>
        <time>2020-07-10T08:54:14Z</time>
      </trkpt>
      <trkpt lat="47.78467" lon="-3.53032">
        <ele>1.27</ele>
        <time>2020-07-10T08:54:15Z</time>
      </trkpt>
      <trkpt lat="47.78469" lon="-3.53029">
        <ele>1.03</ele>
        <time>2020-07-10T08:54:16Z</time>
      </trkpt>
      <trkpt lat="47.7847" lon="-3.53027">
        <ele>0.86</ele>
        <time>2020-07-10T08:54:17Z</time>
      </trkpt>
      <trkpt lat="47.78472" lon="-3.53024">
        <ele>0.78</ele>
        <time>2020-07-10T08:54:18Z</time>
      </trkpt>
      <trkpt lat="47.78474" lon="-3.53022">
        <ele>0.91</ele>
        <time>2020-07-10T08:54:19Z</time>
      </trkpt>
      <trkpt lat="47.78476" lon="-3.53018">
        <ele>1.07</ele>
        <time>2020-07-10T08:54:20Z</time>
      </trkpt>
      <trkpt lat="47.78478" lon="-3.53015">
        <ele>1.15</ele>
        <time>2020-07-10T08:54:21Z</time>
      </trkpt>
      <trkpt lat="47.7848" lon="-3.53011">
        <ele>1.21</ele>
        <time>2020-07-10T08:54:22Z</time>
      </trkpt>
      <trkpt lat="47.78481" lon="-3.53009">
        <ele>1.25</ele>
        <time>2020-07-10T08:54:23Z</time>
      </trkpt>
      <trkpt lat="47.78484" lon="-3.53005">
        <ele>1.24</ele>
        <time>2020-07-10T08:54:24Z</time>
      </trkpt>
      <trkpt lat="47.78486" lon="-3.53001">
        <ele>1.17</ele>
        <time>2020-07-10T08:54:25Z</time>
      </trkpt>
      <trkpt lat="47.78489" lon="-3.52996">
        <ele>1.16</ele>
        <time>2020-07-10T08:54:26Z</time>
      </trkpt>
      <trkpt lat="47.78491" lon="-3.52992">
        <ele>1.14</ele>
        <time>2020-07-10T08:54:27Z</time>
      </trkpt>
      <trkpt lat="47.78494" lon="-3.52988">
        <ele>1.12</ele>
        <time>2020-07-10T08:54:28Z</time>
      </trkpt>
      <trkpt lat="47.78496" lon="-3.52985">
        <ele>1.05</ele>
        <time>2020-07-10T08:54:29Z</time>
      </trkpt>
      <trkpt lat="47.78499" lon="-3.52982">
        <ele>0.98</ele>
        <time>2020-07-10T08:54:30Z</time>
      </trkpt>
      <trkpt lat="47.78502" lon="-3.52978">
        <ele>0.98</ele>
        <time>2020-07-10T08:54:31Z</time>
      </trkpt>
      <trkpt lat="47.78505" lon="-3.52975">
        <ele>1.07</ele>
        <time>2020-07-10T08:54:32Z</time>
      </trkpt>
      <trkpt lat="47.78507" lon="-3.52972">
        <ele>1.07</ele>
        <time>2020-07-10T08:54:33Z</time>
      </trkpt>
      <trkpt lat="47.78511" lon="-3.52969">
        <ele>1.27</ele>
        <time>2020-07-10T08:54:34Z</time>
      </trkpt>
      <trkpt lat="47.78514" lon="-3.52966">
        <ele>1.39</ele>
        <time>2020-07-10T08:54:35Z</time>
      </trkpt>
      <trkpt lat="47.78517" lon="-3.52963">
        <ele>1.4</ele>
        <time>2020-07-10T08:54:36Z</time>
      </trkpt>
      <trkpt lat="47.78519" lon="-3.5296">
        <ele>1.36</ele>
        <time>2020-07-10T08:54:37Z</time>
      </trkpt>
      <trkpt lat="47.78522" lon="-3.52956">
        <ele>1.25</ele>
        <time>2020-07-10T08:54:38Z</time>
      </trkpt>
      <trkpt lat="47.78525" lon="-3.52954">
        <ele>1.15</ele>
        <time>2020-07-10T08:54:39Z</time>
      </trkpt>
      <trkpt lat="47.78528" lon="-3.52951">
        <ele>1.02</ele>
        <time>2020-07-10T08:54:40Z</time>
      </trkpt>
      <trkpt lat="47.7853" lon="-3.52948">
        <ele>1.26</ele>
        <time>2020-07-10T08:54:41Z</time>
      </trkpt>
      <trkpt lat="47.78533" lon="-3.52945">
        <ele>1.52</ele>
        <time>2020-07-10T08:54:42Z</time>
      </trkpt>
      <trkpt lat="47.78535" lon="-3.52941">
        <ele>1.89</ele>
        <time>2020-07-10T08:54:43Z</time>
      </trkpt>
      <trkpt lat="47.78537" lon="-3.52937">
        <ele>2.33</ele>
        <time>2020-07-10T08:54:44Z</time>
      </trkpt>
      <trkpt lat="47.7854" lon="-3.52931">
        <ele>2.75</ele>
        <time>2020-07-10T08:54:45Z</time>
      </trkpt>
      <trkpt lat="47.78543" lon="-3.52927">
        <ele>3.27</ele>
        <time>2020-07-10T08:54:46Z</time>
      </trkpt>
      <trkpt lat="47.78544" lon="-3.52922">
        <ele>3.54</ele>
        <time>2020-07-10T08:54:47Z</time>
      </trkpt>
      <trkpt lat="47.78546" lon="-3.52916">
        <ele>3.49</ele>
        <time>2020-07-10T08:54:48Z</time>
      </trkpt>
      <trkpt lat="47.78548" lon="-3.52908">
        <ele>3.21</ele>
        <time>2020-07-10T08:54:49Z</time>
      </trkpt>
      <trkpt lat="47.78549" lon="-3.52899">
        <ele>2.71</ele>
        <time>2020-07-10T08:54:50Z</time>
      </trkpt>
      <trkpt lat="47.78553" lon="-3.52893">
        <ele>2.34</ele>
        <time>2020-07-10T08:54:51Z</time>
      </trkpt>
      <trkpt lat="47.78556" lon="-3.52887">
        <ele>2.03</ele>
        <time>2020-07-10T08:54:52Z</time>
      </trkpt>
      <trkpt lat="47.78559" lon="-3.52882">
        <ele>2.02</ele>
        <time>2020-07-10T08:54:53Z</time>
      </trkpt>
      <trkpt lat="47.78561" lon="-3.52878">
        <ele>2.02</ele>
        <time>2020-07-10T08:54:54Z</time>
      </trkpt>
      <trkpt lat="47.78564" lon="-3.52873">
        <ele>2.06</ele>
        <time>2020-07-10T08:54:55Z</time>
      </trkpt>
      <trkpt lat="47.78567" lon="-3.5287">
        <ele>2.16</ele>
        <time>2020-07-10T08:54:56Z</time>
      </trkpt>
      <trkpt lat="47.78571" lon="-3.52867">
        <ele>2.28</ele>
        <time>2020-07-10T08:54:57Z</time>
      </trkpt>
      <trkpt lat="47.78575" lon="-3.52866">
        <ele>2.53</ele>
        <time>2020-07-10T08:54:58Z</time>
      </trkpt>
      <trkpt lat="47.78579" lon="-3.52862">
        <ele>2.6</ele>
        <time>2020-07-10T08:54:59Z</time>
      </trkpt>
      <trkpt lat="47.78583" lon="-3.52858">
        <ele>2.59</ele>
        <time>2020-07-10T08:55:00Z</time>
      </trkpt>
      <trkpt lat="47.78587" lon="-3.52855">
        <ele>2.62</ele>
        <time>2020-07-10T08:55:01Z</time>
      </trkpt>
      <trkpt lat="47.78592" lon="-3.52852">
        <ele>2.66</ele>
        <time>2020-07-10T08:55:02Z</time>
      </trkpt>
      <trkpt lat="47.78597" lon="-3.52848">
        <ele>2.62</ele>
        <time>2020-07-10T08:55:03Z</time>
      </trkpt>
      <trkpt lat="47.78602" lon="-3.52844">
        <ele>2.46</ele>
        <time>2020-07-10T08:55:04Z</time>
      </trkpt>
      <trkpt lat="47.78607" lon="-3.5284">
        <ele>2.16</ele>
        <time>2020-07-10T08:55:05Z</time>
      </trkpt>
      <trkpt lat="47.78613" lon="-3.52838">
        <ele>2.04</ele>
        <time>2020-07-10T08:55:06Z</time>
      </trkpt>
      <trkpt lat="47.78617" lon="-3.52836">
        <ele>2.1</ele>
        <time>2020-07-10T08:55:07Z</time>
      </trkpt>
      <trkpt lat="47.78621" lon="-3.52835">
        <ele>2.34</ele>
        <time>2020-07-10T08:55:08Z</time>
      </trkpt>
      <trkpt lat="47.78624" lon="-3.52835">
        <ele>2.59</ele>
        <time>2020-07-10T08:55:09Z</time>
      </trkpt>
      <trkpt lat="47.78627" lon="-3.52835">
        <ele>2.97</ele>
        <time>2020-07-10T08:55:10Z</time>
      </trkpt>
      <trkpt lat="47.7863" lon="-3.52835">
        <ele>3.27</ele>
        <time>2020-07-10T08:55:11Z</time>
      </trkpt>
      <trkpt lat="47.78633" lon="-3.52835">
        <ele>3.61</ele>
        <time>2020-07-10T08:55:12Z</time>
      </trkpt>
      <trkpt lat="47.78636" lon="-3.52836">
        <ele>4.09</ele>
        <time>2020-07-10T08:55:13Z</time>
      </trkpt>
      <trkpt lat="47.78638" lon="-3.52835">
        <ele>4.35</ele>
        <time>2020-07-10T08:55:14Z</time>
      </trkpt>
      <trkpt lat="47.78641" lon="-3.52834">
        <ele>4.46</ele>
        <time>2020-07-10T08:55:15Z</time>
      </trkpt>
      <trkpt lat="47.78644" lon="-3.52834">
        <ele>4.66</ele>
        <time>2020-07-10T08:55:16Z</time>
      </trkpt>
      <trkpt lat="47.78647" lon="-3.52834">
        <ele>4.85</ele>
        <time>2020-07-10T08:55:17Z</time>
      </trkpt>
      <trkpt lat="47.78649" lon="-3.52833">
        <ele>5</ele>
        <time>2020-07-10T08:55:18Z</time>
      </trkpt>
      <trkpt lat="47.78652" lon="-3.52832">
        <ele>5.18</ele>
        <time>2020-07-10T08:55:19Z</time>
      </trkpt>
      <trkpt lat="47.78655" lon="-3.52832">
        <ele>5.44</ele>
        <time>2020-07-10T08:55:20Z</time>
      </trkpt>
      <trkpt lat="47.78658" lon="-3.52832">
        <ele>5.68</ele>
        <time>2020-07-10T08:55:21Z</time>
      </trkpt>
      <trkpt lat="47.7866" lon="-3.52832">
        <ele>5.96</ele>
        <time>2020-07-10T08:55:22Z</time>
      </trkpt>
      <trkpt lat="47.78663" lon="-3.52832">
        <ele>6.18</ele>
        <time>2020-07-10T08:55:23Z</time>
      </trkpt>
      <trkpt lat="47.78665" lon="-3.52832">
        <ele>6.41</ele>
        <time>2020-07-10T08:55:24Z</time>
      </trkpt>
      <trkpt lat="47.78669" lon="-3.52833">
        <ele>6.74</ele>
        <time>2020-07-10T08:55:25Z</time>
      </trkpt>
      <trkpt lat="47.78672" lon="-3.52834">
        <ele>6.92</ele>
        <time>2020-07-10T08:55:26Z</time>
      </trkpt>
      <trkpt lat="47.78675" lon="-3.52835">
        <ele>7.02</ele>
        <time>2020-07-10T08:55:27Z</time>
      </trkpt>
      <trkpt lat="47.78678" lon="-3.52836">
        <ele>7.21</ele>
        <time>2020-07-10T08:55:28Z</time>
      </trkpt>
      <trkpt lat="47.7868" lon="-3.52837">
        <ele>7.39</ele>
        <time>2020-07-10T08:55:29Z</time>
      </trkpt>
      <trkpt lat="47.78683" lon="-3.52838">
        <ele>7.61</ele>
        <time>2020-07-10T08:55:30Z</time>
      </trkpt>
      <trkpt lat="47.78685" lon="-3.52839">
        <ele>7.85</ele>
        <time>2020-07-10T08:55:31Z</time>
      </trkpt>
      <trkpt lat="47.78688" lon="-3.52842">
        <ele>8.27</ele>
        <time>2020-07-10T08:55:32Z</time>
      </trkpt>
      <trkpt lat="47.7869" lon="-3.52844">
        <ele>8.78</ele>
        <time>2020-07-10T08:55:33Z</time>
      </trkpt>
      <trkpt lat="47.78692" lon="-3.52846">
        <ele>9.17</ele>
        <time>2020-07-10T08:55:34Z</time>
      </trkpt>
      <trkpt lat="47.78695" lon="-3.52848">
        <ele>9.53</ele>
        <time>2020-07-10T08:55:35Z</time>
      </trkpt>
      <trkpt lat="47.78697" lon="-3.5285">
        <ele>9.5</ele>
        <time>2020-07-10T08:55:36Z</time>
      </trkpt>
      <trkpt lat="47.78699" lon="-3.52852">
        <ele>9.41</ele>
        <time>2020-07-10T08:55:37Z</time>
      </trkpt>
      <trkpt lat="47.78702" lon="-3.52855">
        <ele>9.18</ele>
        <time>2020-07-10T08:55:38Z</time>
      </trkpt>
      <trkpt lat="47.78707" lon="-3.52858">
        <ele>8.69</ele>
        <time>2020-07-10T08:55:39Z</time>
      </trkpt>
      <trkpt lat="47.78711" lon="-3.52863">
        <ele>8.11</ele>
        <time>2020-07-10T08:55:40Z</time>
      </trkpt>
      <trkpt lat="47.78716" lon="-3.5287">
        <ele>7.48</ele>
        <time>2020-07-10T08:55:41Z</time>
      </trkpt>
      <trkpt lat="47.78721" lon="-3.52877">
        <ele>6.98</ele>
        <time>2020-07-10T08:55:42Z</time>
      </trkpt>
      <trkpt lat="47.78724" lon="-3.52883">
        <ele>6.75</ele>
        <time>2020-07-10T08:55:43Z</time>
      </trkpt>
      <trkpt lat="47.78727" lon="-3.5289">
        <ele>6.68</ele>
        <time>2020-07-10T08:55:44Z</time>
      </trkpt>
      <trkpt lat="47.7873" lon="-3.52895">
        <ele>6.77</ele>
        <time>2020-07-10T08:55:45Z</time>
      </trkpt>
      <trkpt lat="47.78733" lon="-3.52901">
        <ele>6.84</ele>
        <time>2020-07-10T08:55:46Z</time>
      </trkpt>
      <trkpt lat="47.78736" lon="-3.52906">
        <ele>6.84</ele>
        <time>2020-07-10T08:55:47Z</time>
      </trkpt>
      <trkpt lat="47.78739" lon="-3.52912">
        <ele>6.85</ele>
        <time>2020-07-10T08:55:48Z</time>
      </trkpt>
      <trkpt lat="47.78741" lon="-3.52916">
        <ele>6.88</ele>
        <time>2020-07-10T08:55:49Z</time>
      </trkpt>
      <trkpt lat="47.78743" lon="-3.52921">
        <ele>7.15</ele>
        <time>2020-07-10T08:55:50Z</time>
      </trkpt>
      <trkpt lat="47.78745" lon="-3.52926">
        <ele>7.52</ele>
        <time>2020-07-10T08:55:51Z</time>
      </trkpt>
      <trkpt lat="47.78748" lon="-3.52931">
        <ele>8.02</ele>
        <time>2020-07-10T08:55:52Z</time>
      </trkpt>
      <trkpt lat="47.7875" lon="-3.52936">
        <ele>8.52</ele>
        <time>2020-07-10T08:55:53Z</time>
      </trkpt>
      <trkpt lat="47.78754" lon="-3.52941">
        <ele>8.85</ele>
        <time>2020-07-10T08:55:54Z</time>
      </trkpt>
      <trkpt lat="47.78759" lon="-3.52947">
        <ele>8.57</ele>
        <time>2020-07-10T08:55:55Z</time>
      </trkpt>
      <trkpt lat="47.78763" lon="-3.52952">
        <ele>7.94</ele>
        <time>2020-07-10T08:55:56Z</time>
      </trkpt>
      <trkpt lat="47.78767" lon="-3.52955">
        <ele>7.2</ele>
        <time>2020-07-10T08:55:57Z</time>
      </trkpt>
      <trkpt lat="47.78771" lon="-3.52958">
        <ele>6.18</ele>
        <time>2020-07-10T08:55:58Z</time>
      </trkpt>
      <trkpt lat="47.78775" lon="-3.52959">
        <ele>5.1</ele>
        <time>2020-07-10T08:55:59Z</time>
      </trkpt>
      <trkpt lat="47.78778" lon="-3.5296">
        <ele>4.09</ele>
        <time>2020-07-10T08:56:00Z</time>
      </trkpt>
      <trkpt lat="47.78781" lon="-3.52962">
        <ele>3.72</ele>
        <time>2020-07-10T08:56:01Z</time>
      </trkpt>
      <trkpt lat="47.78784" lon="-3.52964">
        <ele>3.56</ele>
        <time>2020-07-10T08:56:02Z</time>
      </trkpt>
      <trkpt lat="47.78786" lon="-3.52965">
        <ele>3.42</ele>
        <time>2020-07-10T08:56:03Z</time>
      </trkpt>
      <trkpt lat="47.78789" lon="-3.52966">
        <ele>3.26</ele>
        <time>2020-07-10T08:56:04Z</time>
      </trkpt>
      <trkpt lat="47.78791" lon="-3.52967">
        <ele>3.13</ele>
        <time>2020-07-10T08:56:05Z</time>
      </trkpt>
      <trkpt lat="47.78793" lon="-3.52968">
        <ele>3.04</ele>
        <time>2020-07-10T08:56:06Z</time>
      </trkpt>
      <trkpt lat="47.78794" lon="-3.52969">
        <ele>2.98</ele>
        <time>2020-07-10T08:56:07Z</time>
      </trkpt>
      <trkpt lat="47.78796" lon="-3.5297">
        <ele>2.89</ele>
        <time>2020-07-10T08:56:08Z</time>
      </trkpt>
      <trkpt lat="47.78798" lon="-3.52971">
        <ele>2.8</ele>
        <time>2020-07-10T08:56:09Z</time>
      </trkpt>
      <trkpt lat="47.788" lon="-3.52973">
        <ele>2.83</ele>
        <time>2020-07-10T08:56:10Z</time>
      </trkpt>
      <trkpt lat="47.78802" lon="-3.52975">
        <ele>3.01</ele>
        <time>2020-07-10T08:56:11Z</time>
      </trkpt>
      <trkpt lat="47.78803" lon="-3.52977">
        <ele>3.25</ele>
        <time>2020-07-10T08:56:12Z</time>
      </trkpt>
      <trkpt lat="47.78804" lon="-3.52979">
        <ele>3.61</ele>
        <time>2020-07-10T08:56:13Z</time>
      </trkpt>
      <trkpt lat="47.78806" lon="-3.52979">
        <ele>3.68</ele>
        <time>2020-07-10T08:56:14Z</time>
      </trkpt>
      <trkpt lat="47.78807" lon="-3.5298">
        <ele>3.85</ele>
        <time>2020-07-10T08:56:15Z</time>
      </trkpt>
      <trkpt lat="47.78808" lon="-3.52982">
        <ele>4.18</ele>
        <time>2020-07-10T08:56:16Z</time>
      </trkpt>
      <trkpt lat="47.7881" lon="-3.52983">
        <ele>4.31</ele>
        <time>2020-07-10T08:56:17Z</time>
      </trkpt>
      <trkpt lat="47.78812" lon="-3.52984">
        <ele>4.41</ele>
        <time>2020-07-10T08:56:18Z</time>
      </trkpt>
      <trkpt lat="47.78813" lon="-3.52984">
        <ele>4.48</ele>
        <time>2020-07-10T08:56:19Z</time>
      </trkpt>
      <trkpt lat="47.78813" lon="-3.52984">
        <ele>4.42</ele>
        <time>2020-07-10T08:56:20Z</time>
      </trkpt>
      <trkpt lat="47.78815" lon="-3.52984">
        <ele>4.4</ele>
        <time>2020-07-10T08:56:21Z</time>
      </trkpt>
      <trkpt lat="47.78816" lon="-3.52985">
        <ele>4.48</ele>
        <time>2020-07-10T08:56:22Z</time>
      </trkpt>
      <trkpt lat="47.78817" lon="-3.52987">
        <ele>4.72</ele>
        <time>2020-07-10T08:56:23Z</time>
      </trkpt>
      <trkpt lat="47.78818" lon="-3.52988">
        <ele>5.04</ele>
        <time>2020-07-10T08:56:24Z</time>
      </trkpt>
      <trkpt lat="47.78819" lon="-3.5299">
        <ele>5.27</ele>
        <time>2020-07-10T08:56:25Z</time>
      </trkpt>
      <trkpt lat="47.7882" lon="-3.52991">
        <ele>5.49</ele>
        <time>2020-07-10T08:56:26Z</time>
      </trkpt>
      <trkpt lat="47.78822" lon="-3.52992">
        <ele>5.73</ele>
        <time>2020-07-10T08:56:27Z</time>
      </trkpt>
      <trkpt lat="47.78823" lon="-3.52993">
        <ele>5.99</ele>
        <time>2020-07-10T08:56:28Z</time>
      </trkpt>
      <trkpt lat="47.78824" lon="-3.52995">
        <ele>6.35</ele>
        <time>2020-07-10T08:56:29Z</time>
      </trkpt>
      <trkpt lat="47.78825" lon="-3.52997">
        <ele>6.65</ele>
        <time>2020-07-10T08:56:30Z</time>
      </trkpt>
      <trkpt lat="47.78826" lon="-3.52998">
        <ele>7.02</ele>
        <time>2020-07-10T08:56:31Z</time>
      </trkpt>
      <trkpt lat="47.78827" lon="-3.53">
        <ele>7.37</ele>
        <time>2020-07-10T08:56:32Z</time>
      </trkpt>
      <trkpt lat="47.78828" lon="-3.53003">
        <ele>7.86</ele>
        <time>2020-07-10T08:56:33Z</time>
      </trkpt>
      <trkpt lat="47.78829" lon="-3.53004">
        <ele>8.32</ele>
        <time>2020-07-10T08:56:34Z</time>
      </trkpt>
      <trkpt lat="47.7883" lon="-3.53006">
        <ele>8.7</ele>
        <time>2020-07-10T08:56:35Z</time>
      </trkpt>
      <trkpt lat="47.78832" lon="-3.53007">
        <ele>9.09</ele>
        <time>2020-07-10T08:56:36Z</time>
      </trkpt>
      <trkpt lat="47.78833" lon="-3.5301">
        <ele>9.59</ele>
        <time>2020-07-10T08:56:37Z</time>
      </trkpt>
      <trkpt lat="47.78833" lon="-3.53012">
        <ele>10.26</ele>
        <time>2020-07-10T08:56:38Z</time>
      </trkpt>
      <trkpt lat="47.78834" lon="-3.53015">
        <ele>10.77</ele>
        <time>2020-07-10T08:56:39Z</time>
      </trkpt>
      <trkpt lat="47.78835" lon="-3.53017">
        <ele>11.22</ele>
        <time>2020-07-10T08:56:40Z</time>
      </trkpt>
      <trkpt lat="47.78835" lon="-3.53019">
        <ele>11.64</ele>
        <time>2020-07-10T08:56:41Z</time>
      </trkpt>
      <trkpt lat="47.78836" lon="-3.53021">
        <ele>11.96</ele>
        <time>2020-07-10T08:56:42Z</time>
      </trkpt>
      <trkpt lat="47.78836" lon="-3.53023">
        <ele>12.35</ele>
        <time>2020-07-10T08:56:43Z</time>
      </trkpt>
      <trkpt lat="47.78837" lon="-3.53026">
        <ele>12.7</ele>
        <time>2020-07-10T08:56:44Z</time>
      </trkpt>
      <trkpt lat="47.78838" lon="-3.53029">
        <ele>12.98</ele>
        <time>2020-07-10T08:56:45Z</time>
      </trkpt>
      <trkpt lat="47.78839" lon="-3.53031">
        <ele>13.2</ele>
        <time>2020-07-10T08:56:46Z</time>
      </trkpt>
      <trkpt lat="47.7884" lon="-3.53034">
        <ele>13.47</ele>
        <time>2020-07-10T08:56:47Z</time>
      </trkpt>
      <trkpt lat="47.7884" lon="-3.53036">
        <ele>13.64</ele>
        <time>2020-07-10T08:56:48Z</time>
      </trkpt>
      <trkpt lat="47.78841" lon="-3.53039">
        <ele>13.77</ele>
        <time>2020-07-10T08:56:49Z</time>
      </trkpt>
      <trkpt lat="47.78842" lon="-3.53041">
        <ele>13.93</ele>
        <time>2020-07-10T08:56:50Z</time>
      </trkpt>
      <trkpt lat="47.78842" lon="-3.53044">
        <ele>14.18</ele>
        <time>2020-07-10T08:56:51Z</time>
      </trkpt>
      <trkpt lat="47.78843" lon="-3.53047">
        <ele>14.51</ele>
        <time>2020-07-10T08:56:52Z</time>
      </trkpt>
      <trkpt lat="47.78845" lon="-3.53049">
        <ele>14.54</ele>
        <time>2020-07-10T08:56:53Z</time>
      </trkpt>
      <trkpt lat="47.78845" lon="-3.53052">
        <ele>14.56</ele>
        <time>2020-07-10T08:56:54Z</time>
      </trkpt>
      <trkpt lat="47.78846" lon="-3.53053">
        <ele>14.58</ele>
        <time>2020-07-10T08:56:55Z</time>
      </trkpt>
      <trkpt lat="47.78847" lon="-3.53056">
        <ele>14.76</ele>
        <time>2020-07-10T08:56:56Z</time>
      </trkpt>
      <trkpt lat="47.78848" lon="-3.53059">
        <ele>14.91</ele>
        <time>2020-07-10T08:56:57Z</time>
      </trkpt>
      <trkpt lat="47.78849" lon="-3.53062">
        <ele>15.03</ele>
        <time>2020-07-10T08:56:58Z</time>
      </trkpt>
      <trkpt lat="47.78852" lon="-3.53065">
        <ele>15.02</ele>
        <time>2020-07-10T08:56:59Z</time>
      </trkpt>
      <trkpt lat="47.78853" lon="-3.53067">
        <ele>14.99</ele>
        <time>2020-07-10T08:57:00Z</time>
      </trkpt>
      <trkpt lat="47.78855" lon="-3.53069">
        <ele>14.99</ele>
        <time>2020-07-10T08:57:01Z</time>
      </trkpt>
      <trkpt lat="47.78855" lon="-3.53071">
        <ele>15.09</ele>
        <time>2020-07-10T08:57:02Z</time>
      </trkpt>
      <trkpt lat="47.78856" lon="-3.53073">
        <ele>15.28</ele>
        <time>2020-07-10T08:57:03Z</time>
      </trkpt>
      <trkpt lat="47.78858" lon="-3.53075">
        <ele>15.51</ele>
        <time>2020-07-10T08:57:04Z</time>
      </trkpt>
      <trkpt lat="47.78859" lon="-3.53077">
        <ele>15.65</ele>
        <time>2020-07-10T08:57:05Z</time>
      </trkpt>
      <trkpt lat="47.7886" lon="-3.53079">
        <ele>15.69</ele>
        <time>2020-07-10T08:57:06Z</time>
      </trkpt>
      <trkpt lat="47.78862" lon="-3.5308">
        <ele>15.65</ele>
        <time>2020-07-10T08:57:07Z</time>
      </trkpt>
      <trkpt lat="47.78863" lon="-3.53082">
        <ele>15.46</ele>
        <time>2020-07-10T08:57:08Z</time>
      </trkpt>
      <trkpt lat="47.78865" lon="-3.53083">
        <ele>15.19</ele>
        <time>2020-07-10T08:57:09Z</time>
      </trkpt>
      <trkpt lat="47.78865" lon="-3.53085">
        <ele>15.12</ele>
        <time>2020-07-10T08:57:10Z</time>
      </trkpt>
      <trkpt lat="47.78868" lon="-3.53086">
        <ele>14.73</ele>
        <time>2020-07-10T08:57:11Z</time>
      </trkpt>
      <trkpt lat="47.7887" lon="-3.53089">
        <ele>14.24</ele>
        <time>2020-07-10T08:57:12Z</time>
      </trkpt>
      <trkpt lat="47.78873" lon="-3.53091">
        <ele>13.62</ele>
        <time>2020-07-10T08:57:13Z</time>
      </trkpt>
      <trkpt lat="47.78877" lon="-3.53093">
        <ele>12.75</ele>
        <time>2020-07-10T08:57:14Z</time>
      </trkpt>
      <trkpt lat="47.78881" lon="-3.53095">
        <ele>11.64</ele>
        <time>2020-07-10T08:57:15Z</time>
      </trkpt>
      <trkpt lat="47.78885" lon="-3.53098">
        <ele>10.53</ele>
        <time>2020-07-10T08:57:16Z</time>
      </trkpt>
      <trkpt lat="47.7889" lon="-3.53101">
        <ele>9.67</ele>
        <time>2020-07-10T08:57:17Z</time>
      </trkpt>
      <trkpt lat="47.78896" lon="-3.53104">
        <ele>9.11</ele>
        <time>2020-07-10T08:57:18Z</time>
      </trkpt>
      <trkpt lat="47.78904" lon="-3.53106">
        <ele>8.08</ele>
        <time>2020-07-10T08:57:19Z</time>
      </trkpt>
      <trkpt lat="47.7891" lon="-3.53108">
        <ele>6.89</ele>
        <time>2020-07-10T08:57:20Z</time>
      </trkpt>
      <trkpt lat="47.78916" lon="-3.53109">
        <ele>5.51</ele>
        <time>2020-07-10T08:57:21Z</time>
      </trkpt>
      <trkpt lat="47.78921" lon="-3.53111">
        <ele>4.62</ele>
        <time>2020-07-10T08:57:22Z</time>
      </trkpt>
      <trkpt lat="47.78925" lon="-3.53113">
        <ele>4.23</ele>
        <time>2020-07-10T08:57:23Z</time>
      </trkpt>
      <trkpt lat="47.7893" lon="-3.53116">
        <ele>4.31</ele>
        <time>2020-07-10T08:57:24Z</time>
      </trkpt>
      <trkpt lat="47.78935" lon="-3.53119">
        <ele>4.29</ele>
        <time>2020-07-10T08:57:25Z</time>
      </trkpt>
      <trkpt lat="47.78939" lon="-3.53121">
        <ele>4.03</ele>
        <time>2020-07-10T08:57:26Z</time>
      </trkpt>
      <trkpt lat="47.78943" lon="-3.53121">
        <ele>3.44</ele>
        <time>2020-07-10T08:57:27Z</time>
      </trkpt>
      <trkpt lat="47.78946" lon="-3.53121">
        <ele>3.01</ele>
        <time>2020-07-10T08:57:28Z</time>
      </trkpt>
      <trkpt lat="47.78949" lon="-3.53122">
        <ele>2.98</ele>
        <time>2020-07-10T08:57:29Z</time>
      </trkpt>
      <trkpt lat="47.78951" lon="-3.53124">
        <ele>3.02</ele>
        <time>2020-07-10T08:57:30Z</time>
      </trkpt>
      <trkpt lat="47.78954" lon="-3.53125">
        <ele>3.12</ele>
        <time>2020-07-10T08:57:31Z</time>
      </trkpt>
      <trkpt lat="47.78957" lon="-3.53129">
        <ele>3.5</ele>
        <time>2020-07-10T08:57:32Z</time>
      </trkpt>
      <trkpt lat="47.7896" lon="-3.53135">
        <ele>4.17</ele>
        <time>2020-07-10T08:57:33Z</time>
      </trkpt>
      <trkpt lat="47.78964" lon="-3.53138">
        <ele>4.38</ele>
        <time>2020-07-10T08:57:34Z</time>
      </trkpt>
      <trkpt lat="47.78967" lon="-3.53143">
        <ele>4.76</ele>
        <time>2020-07-10T08:57:35Z</time>
      </trkpt>
      <trkpt lat="47.7897" lon="-3.53148">
        <ele>5.4</ele>
        <time>2020-07-10T08:57:36Z</time>
      </trkpt>
      <trkpt lat="47.78972" lon="-3.53151">
        <ele>5.92</ele>
        <time>2020-07-10T08:57:37Z</time>
      </trkpt>
      <trkpt lat="47.78975" lon="-3.53155">
        <ele>6.36</ele>
        <time>2020-07-10T08:57:38Z</time>
      </trkpt>
      <trkpt lat="47.78978" lon="-3.53158">
        <ele>6.56</ele>
        <time>2020-07-10T08:57:39Z</time>
      </trkpt>
      <trkpt lat="47.78981" lon="-3.53161">
        <ele>6.65</ele>
        <time>2020-07-10T08:57:40Z</time>
      </trkpt>
      <trkpt lat="47.78986" lon="-3.53164">
        <ele>6.35</ele>
        <time>2020-07-10T08:57:41Z</time>
      </trkpt>
      <trkpt lat="47.7899" lon="-3.53167">
        <ele>5.76</ele>
        <time>2020-07-10T08:57:42Z</time>
      </trkpt>
      <trkpt lat="47.78995" lon="-3.5317">
        <ele>5.16</ele>
        <time>2020-07-10T08:57:43Z</time>
      </trkpt>
      <trkpt lat="47.79" lon="-3.53172">
        <ele>4.41</ele>
        <time>2020-07-10T08:57:44Z</time>
      </trkpt>
      <trkpt lat="47.79006" lon="-3.53174">
        <ele>4.12</ele>
        <time>2020-07-10T08:57:45Z</time>
      </trkpt>
      <trkpt lat="47.7901" lon="-3.53177">
        <ele>4.06</ele>
        <time>2020-07-10T08:57:46Z</time>
      </trkpt>
      <trkpt lat="47.79014" lon="-3.5318">
        <ele>4.13</ele>
        <time>2020-07-10T08:57:47Z</time>
      </trkpt>
      <trkpt lat="47.79019" lon="-3.53184">
        <ele>4.14</ele>
        <time>2020-07-10T08:57:48Z</time>
      </trkpt>
      <trkpt lat="47.79023" lon="-3.53187">
        <ele>4.01</ele>
        <time>2020-07-10T08:57:49Z</time>
      </trkpt>
      <trkpt lat="47.79028" lon="-3.53191">
        <ele>3.75</ele>
        <time>2020-07-10T08:57:50Z</time>
      </trkpt>
      <trkpt lat="47.79033" lon="-3.53195">
        <ele>3.71</ele>
        <time>2020-07-10T08:57:51Z</time>
      </trkpt>
      <trkpt lat="47.79038" lon="-3.53198">
        <ele>3.62</ele>
        <time>2020-07-10T08:57:52Z</time>
      </trkpt>
      <trkpt lat="47.79043" lon="-3.532">
        <ele>3.4</ele>
        <time>2020-07-10T08:57:53Z</time>
      </trkpt>
      <trkpt lat="47.79049" lon="-3.53199">
        <ele>3.05</ele>
        <time>2020-07-10T08:57:54Z</time>
      </trkpt>
      <trkpt lat="47.79055" lon="-3.53197">
        <ele>2.47</ele>
        <time>2020-07-10T08:57:55Z</time>
      </trkpt>
      <trkpt lat="47.79061" lon="-3.53193">
        <ele>2.08</ele>
        <time>2020-07-10T08:57:56Z</time>
      </trkpt>
      <trkpt lat="47.79067" lon="-3.5319">
        <ele>1.83</ele>
        <time>2020-07-10T08:57:57Z</time>
      </trkpt>
      <trkpt lat="47.79072" lon="-3.53187">
        <ele>1.67</ele>
        <time>2020-07-10T08:57:58Z</time>
      </trkpt>
      <trkpt lat="47.79077" lon="-3.53183">
        <ele>1.55</ele>
        <time>2020-07-10T08:57:59Z</time>
      </trkpt>
      <trkpt lat="47.79082" lon="-3.5318">
        <ele>1.48</ele>
        <time>2020-07-10T08:58:00Z</time>
      </trkpt>
      <trkpt lat="47.79087" lon="-3.53177">
        <ele>1.4</ele>
        <time>2020-07-10T08:58:01Z</time>
      </trkpt>
      <trkpt lat="47.79092" lon="-3.53174">
        <ele>1.31</ele>
        <time>2020-07-10T08:58:02Z</time>
      </trkpt>
      <trkpt lat="47.79096" lon="-3.53172">
        <ele>1.22</ele>
        <time>2020-07-10T08:58:03Z</time>
      </trkpt>
      <trkpt lat="47.79101" lon="-3.53169">
        <ele>1.12</ele>
        <time>2020-07-10T08:58:04Z</time>
      </trkpt>
      <trkpt lat="47.79106" lon="-3.53166">
        <ele>1.03</ele>
        <time>2020-07-10T08:58:05Z</time>
      </trkpt>
      <trkpt lat="47.79111" lon="-3.53164">
        <ele>0.94</ele>
        <time>2020-07-10T08:58:06Z</time>
      </trkpt>
      <trkpt lat="47.79115" lon="-3.53161">
        <ele>0.95</ele>
        <time>2020-07-10T08:58:07Z</time>
      </trkpt>
      <trkpt lat="47.7912" lon="-3.53158">
        <ele>1.01</ele>
        <time>2020-07-10T08:58:08Z</time>
      </trkpt>
      <trkpt lat="47.79125" lon="-3.53156">
        <ele>1.09</ele>
        <time>2020-07-10T08:58:09Z</time>
      </trkpt>
      <trkpt lat="47.7913" lon="-3.53154">
        <ele>1.18</ele>
        <time>2020-07-10T08:58:10Z</time>
      </trkpt>
      <trkpt lat="47.79134" lon="-3.53151">
        <ele>1.25</ele>
        <time>2020-07-10T08:58:11Z</time>
      </trkpt>
      <trkpt lat="47.79139" lon="-3.53149">
        <ele>1.32</ele>
        <time>2020-07-10T08:58:12Z</time>
      </trkpt>
      <trkpt lat="47.79143" lon="-3.53146">
        <ele>1.97</ele>
        <time>2020-07-10T08:58:13Z</time>
      </trkpt>
      <trkpt lat="47.79146" lon="-3.53143">
        <ele>2.7</ele>
        <time>2020-07-10T08:58:14Z</time>
      </trkpt>
      <trkpt lat="47.79148" lon="-3.53139">
        <ele>3.15</ele>
        <time>2020-07-10T08:58:15Z</time>
      </trkpt>
      <trkpt lat="47.79149" lon="-3.53135">
        <ele>3.46</ele>
        <time>2020-07-10T08:58:16Z</time>
      </trkpt>
      <trkpt lat="47.79149" lon="-3.5313">
        <ele>3.71</ele>
        <time>2020-07-10T08:58:17Z</time>
      </trkpt>
      <trkpt lat="47.79149" lon="-3.53125">
        <ele>3.93</ele>
        <time>2020-07-10T08:58:18Z</time>
      </trkpt>
      <trkpt lat="47.79148" lon="-3.53119">
        <ele>3.98</ele>
        <time>2020-07-10T08:58:19Z</time>
      </trkpt>
      <trkpt lat="47.79147" lon="-3.53115">
        <ele>3.93</ele>
        <time>2020-07-10T08:58:20Z</time>
      </trkpt>
      <trkpt lat="47.79146" lon="-3.53109">
        <ele>3.76</ele>
        <time>2020-07-10T08:58:21Z</time>
      </trkpt>
      <trkpt lat="47.79144" lon="-3.53103">
        <ele>3.45</ele>
        <time>2020-07-10T08:58:22Z</time>
      </trkpt>
      <trkpt lat="47.79143" lon="-3.53098">
        <ele>3.16</ele>
        <time>2020-07-10T08:58:23Z</time>
      </trkpt>
      <trkpt lat="47.79141" lon="-3.5309">
        <ele>2.76</ele>
        <time>2020-07-10T08:58:24Z</time>
      </trkpt>
      <trkpt lat="47.7914" lon="-3.53083">
        <ele>2.32</ele>
        <time>2020-07-10T08:58:25Z</time>
      </trkpt>
      <trkpt lat="47.79138" lon="-3.53075">
        <ele>2.04</ele>
        <time>2020-07-10T08:58:26Z</time>
      </trkpt>
      <trkpt lat="47.79137" lon="-3.53068">
        <ele>1.93</ele>
        <time>2020-07-10T08:58:27Z</time>
      </trkpt>
      <trkpt lat="47.79137" lon="-3.53062">
        <ele>1.89</ele>
        <time>2020-07-10T08:58:28Z</time>
      </trkpt>
      <trkpt lat="47.79138" lon="-3.53056">
        <ele>1.94</ele>
        <time>2020-07-10T08:58:29Z</time>
      </trkpt>
      <trkpt lat="47.79141" lon="-3.53051">
        <ele>1.88</ele>
        <time>2020-07-10T08:58:30Z</time>
      </trkpt>
      <trkpt lat="47.79143" lon="-3.53047">
        <ele>1.82</ele>
        <time>2020-07-10T08:58:31Z</time>
      </trkpt>
      <trkpt lat="47.79145" lon="-3.53044">
        <ele>1.78</ele>
        <time>2020-07-10T08:58:32Z</time>
      </trkpt>
      <trkpt lat="47.79147" lon="-3.53042">
        <ele>1.79</ele>
        <time>2020-07-10T08:58:33Z</time>
      </trkpt>
      <trkpt lat="47.79151" lon="-3.5304">
        <ele>1.86</ele>
        <time>2020-07-10T08:58:34Z</time>
      </trkpt>
      <trkpt lat="47.79154" lon="-3.53038">
        <ele>1.97</ele>
        <time>2020-07-10T08:58:35Z</time>
      </trkpt>
      <trkpt lat="47.79157" lon="-3.53036">
        <ele>2.08</ele>
        <time>2020-07-10T08:58:36Z</time>
      </trkpt>
      <trkpt lat="47.7916" lon="-3.53035">
        <ele>2.19</ele>
        <time>2020-07-10T08:58:37Z</time>
      </trkpt>
      <trkpt lat="47.79162" lon="-3.53035">
        <ele>2.33</ele>
        <time>2020-07-10T08:58:38Z</time>
      </trkpt>
      <trkpt lat="47.79166" lon="-3.53033">
        <ele>2.48</ele>
        <time>2020-07-10T08:58:39Z</time>
      </trkpt>
      <trkpt lat="47.79169" lon="-3.53032">
        <ele>2.69</ele>
        <time>2020-07-10T08:58:40Z</time>
      </trkpt>
      <trkpt lat="47.79173" lon="-3.53031">
        <ele>2.94</ele>
        <time>2020-07-10T08:58:41Z</time>
      </trkpt>
      <trkpt lat="47.79177" lon="-3.53029">
        <ele>3.17</ele>
        <time>2020-07-10T08:58:42Z</time>
      </trkpt>
      <trkpt lat="47.7918" lon="-3.53028">
        <ele>3.37</ele>
        <time>2020-07-10T08:58:43Z</time>
      </trkpt>
      <trkpt lat="47.79184" lon="-3.53024">
        <ele>3.5</ele>
        <time>2020-07-10T08:58:44Z</time>
      </trkpt>
      <trkpt lat="47.79186" lon="-3.5302">
        <ele>3.55</ele>
        <time>2020-07-10T08:58:45Z</time>
      </trkpt>
      <trkpt lat="47.79189" lon="-3.53015">
        <ele>3.51</ele>
        <time>2020-07-10T08:58:46Z</time>
      </trkpt>
      <trkpt lat="47.79192" lon="-3.53007">
        <ele>3.32</ele>
        <time>2020-07-10T08:58:47Z</time>
      </trkpt>
      <trkpt lat="47.79193" lon="-3.53">
        <ele>3.01</ele>
        <time>2020-07-10T08:58:48Z</time>
      </trkpt>
      <trkpt lat="47.79194" lon="-3.52993">
        <ele>2.63</ele>
        <time>2020-07-10T08:58:49Z</time>
      </trkpt>
      <trkpt lat="47.79195" lon="-3.52986">
        <ele>2.22</ele>
        <time>2020-07-10T08:58:50Z</time>
      </trkpt>
      <trkpt lat="47.79195" lon="-3.5298">
        <ele>1.8</ele>
        <time>2020-07-10T08:58:51Z</time>
      </trkpt>
      <trkpt lat="47.79195" lon="-3.52974">
        <ele>1.42</ele>
        <time>2020-07-10T08:58:52Z</time>
      </trkpt>
      <trkpt lat="47.79196" lon="-3.52969">
        <ele>1.18</ele>
        <time>2020-07-10T08:58:53Z</time>
      </trkpt>
      <trkpt lat="47.79197" lon="-3.52964">
        <ele>1.06</ele>
        <time>2020-07-10T08:58:54Z</time>
      </trkpt>
      <trkpt lat="47.79198" lon="-3.52958">
        <ele>1.01</ele>
        <time>2020-07-10T08:58:55Z</time>
      </trkpt>
      <trkpt lat="47.79199" lon="-3.52951">
        <ele>1.03</ele>
        <time>2020-07-10T08:58:56Z</time>
      </trkpt>
      <trkpt lat="47.79201" lon="-3.52944">
        <ele>1.09</ele>
        <time>2020-07-10T08:58:57Z</time>
      </trkpt>
      <trkpt lat="47.79203" lon="-3.52939">
        <ele>1.29</ele>
        <time>2020-07-10T08:58:58Z</time>
      </trkpt>
      <trkpt lat="47.79206" lon="-3.52934">
        <ele>1.48</ele>
        <time>2020-07-10T08:58:59Z</time>
      </trkpt>
      <trkpt lat="47.79208" lon="-3.52929">
        <ele>1.57</ele>
        <time>2020-07-10T08:59:00Z</time>
      </trkpt>
      <trkpt lat="47.7921" lon="-3.52925">
        <ele>1.62</ele>
        <time>2020-07-10T08:59:01Z</time>
      </trkpt>
      <trkpt lat="47.79213" lon="-3.52921">
        <ele>1.62</ele>
        <time>2020-07-10T08:59:02Z</time>
      </trkpt>
      <trkpt lat="47.79216" lon="-3.52918">
        <ele>1.6</ele>
        <time>2020-07-10T08:59:03Z</time>
      </trkpt>
      <trkpt lat="47.79219" lon="-3.52914">
        <ele>1.59</ele>
        <time>2020-07-10T08:59:04Z</time>
      </trkpt>
      <trkpt lat="47.79222" lon="-3.5291">
        <ele>1.54</ele>
        <time>2020-07-10T08:59:05Z</time>
      </trkpt>
      <trkpt lat="47.79226" lon="-3.52906">
        <ele>1.66</ele>
        <time>2020-07-10T08:59:06Z</time>
      </trkpt>
      <trkpt lat="47.79229" lon="-3.52903">
        <ele>1.85</ele>
        <time>2020-07-10T08:59:07Z</time>
      </trkpt>
      <trkpt lat="47.79231" lon="-3.52899">
        <ele>1.97</ele>
        <time>2020-07-10T08:59:08Z</time>
      </trkpt>
      <trkpt lat="47.79234" lon="-3.52895">
        <ele>2.05</ele>
        <time>2020-07-10T08:59:09Z</time>
      </trkpt>
      <trkpt lat="47.79236" lon="-3.5289">
        <ele>2.09</ele>
        <time>2020-07-10T08:59:10Z</time>
      </trkpt>
      <trkpt lat="47.79239" lon="-3.52885">
        <ele>2.17</ele>
        <time>2020-07-10T08:59:11Z</time>
      </trkpt>
      <trkpt lat="47.79243" lon="-3.52882">
        <ele>2.3</ele>
        <time>2020-07-10T08:59:12Z</time>
      </trkpt>
      <trkpt lat="47.79246" lon="-3.52878">
        <ele>2.36</ele>
        <time>2020-07-10T08:59:13Z</time>
      </trkpt>
      <trkpt lat="47.7925" lon="-3.52874">
        <ele>2.37</ele>
        <time>2020-07-10T08:59:14Z</time>
      </trkpt>
      <trkpt lat="47.79255" lon="-3.52872">
        <ele>2.45</ele>
        <time>2020-07-10T08:59:15Z</time>
      </trkpt>
      <trkpt lat="47.7926" lon="-3.52869">
        <ele>2.53</ele>
        <time>2020-07-10T08:59:16Z</time>
      </trkpt>
      <trkpt lat="47.79264" lon="-3.52868">
        <ele>2.69</ele>
        <time>2020-07-10T08:59:17Z</time>
      </trkpt>
      <trkpt lat="47.79269" lon="-3.52867">
        <ele>2.91</ele>
        <time>2020-07-10T08:59:18Z</time>
      </trkpt>
      <trkpt lat="47.79273" lon="-3.52867">
        <ele>3.18</ele>
        <time>2020-07-10T08:59:19Z</time>
      </trkpt>
      <trkpt lat="47.79278" lon="-3.52866">
        <ele>3.45</ele>
        <time>2020-07-10T08:59:20Z</time>
      </trkpt>
      <trkpt lat="47.79282" lon="-3.52866">
        <ele>3.61</ele>
        <time>2020-07-10T08:59:21Z</time>
      </trkpt>
      <trkpt lat="47.79287" lon="-3.52865">
        <ele>3.68</ele>
        <time>2020-07-10T08:59:22Z</time>
      </trkpt>
      <trkpt lat="47.79291" lon="-3.52863">
        <ele>3.67</ele>
        <time>2020-07-10T08:59:23Z</time>
      </trkpt>
      <trkpt lat="47.79294" lon="-3.5286">
        <ele>3.56</ele>
        <time>2020-07-10T08:59:24Z</time>
      </trkpt>
      <trkpt lat="47.79297" lon="-3.52858">
        <ele>3.47</ele>
        <time>2020-07-10T08:59:25Z</time>
      </trkpt>
      <trkpt lat="47.793" lon="-3.52855">
        <ele>3.38</ele>
        <time>2020-07-10T08:59:26Z</time>
      </trkpt>
      <trkpt lat="47.79303" lon="-3.52853">
        <ele>3.35</ele>
        <time>2020-07-10T08:59:27Z</time>
      </trkpt>
      <trkpt lat="47.79306" lon="-3.5285">
        <ele>3.3</ele>
        <time>2020-07-10T08:59:28Z</time>
      </trkpt>
      <trkpt lat="47.7931" lon="-3.52848">
        <ele>3.28</ele>
        <time>2020-07-10T08:59:29Z</time>
      </trkpt>
      <trkpt lat="47.79314" lon="-3.52845">
        <ele>3.25</ele>
        <time>2020-07-10T08:59:30Z</time>
      </trkpt>
      <trkpt lat="47.79319" lon="-3.52843">
        <ele>3.35</ele>
        <time>2020-07-10T08:59:31Z</time>
      </trkpt>
      <trkpt lat="47.79323" lon="-3.52842">
        <ele>3.42</ele>
        <time>2020-07-10T08:59:32Z</time>
      </trkpt>
      <trkpt lat="47.79328" lon="-3.52839">
        <ele>3.38</ele>
        <time>2020-07-10T08:59:33Z</time>
      </trkpt>
      <trkpt lat="47.79332" lon="-3.52836">
        <ele>3.26</ele>
        <time>2020-07-10T08:59:34Z</time>
      </trkpt>
      <trkpt lat="47.79336" lon="-3.52833">
        <ele>3.14</ele>
        <time>2020-07-10T08:59:35Z</time>
      </trkpt>
      <trkpt lat="47.7934" lon="-3.52831">
        <ele>3.06</ele>
        <time>2020-07-10T08:59:36Z</time>
      </trkpt>
      <trkpt lat="47.79344" lon="-3.52831">
        <ele>3.13</ele>
        <time>2020-07-10T08:59:37Z</time>
      </trkpt>
      <trkpt lat="47.79347" lon="-3.52831">
        <ele>3.26</ele>
        <time>2020-07-10T08:59:38Z</time>
      </trkpt>
      <trkpt lat="47.79351" lon="-3.5283">
        <ele>3.34</ele>
        <time>2020-07-10T08:59:39Z</time>
      </trkpt>
      <trkpt lat="47.79353" lon="-3.5283">
        <ele>3.41</ele>
        <time>2020-07-10T08:59:40Z</time>
      </trkpt>
      <trkpt lat="47.79357" lon="-3.5283">
        <ele>3.55</ele>
        <time>2020-07-10T08:59:41Z</time>
      </trkpt>
      <trkpt lat="47.79361" lon="-3.52828">
        <ele>3.58</ele>
        <time>2020-07-10T08:59:42Z</time>
      </trkpt>
      <trkpt lat="47.79365" lon="-3.52823">
        <ele>3.68</ele>
        <time>2020-07-10T08:59:43Z</time>
      </trkpt>
      <trkpt lat="47.79368" lon="-3.52816">
        <ele>3.62</ele>
        <time>2020-07-10T08:59:44Z</time>
      </trkpt>
      <trkpt lat="47.79372" lon="-3.52809">
        <ele>3.5</ele>
        <time>2020-07-10T08:59:45Z</time>
      </trkpt>
      <trkpt lat="47.79375" lon="-3.52803">
        <ele>3.33</ele>
        <time>2020-07-10T08:59:46Z</time>
      </trkpt>
      <trkpt lat="47.79378" lon="-3.52799">
        <ele>3.12</ele>
        <time>2020-07-10T08:59:47Z</time>
      </trkpt>
      <trkpt lat="47.7938" lon="-3.52796">
        <ele>2.97</ele>
        <time>2020-07-10T08:59:48Z</time>
      </trkpt>
      <trkpt lat="47.79381" lon="-3.52795">
        <ele>2.86</ele>
        <time>2020-07-10T08:59:49Z</time>
      </trkpt>
      <trkpt lat="47.79382" lon="-3.52793">
        <ele>2.79</ele>
        <time>2020-07-10T08:59:50Z</time>
      </trkpt>
      <trkpt lat="47.79383" lon="-3.52792">
        <ele>2.7</ele>
        <time>2020-07-10T08:59:51Z</time>
      </trkpt>
      <trkpt lat="47.79384" lon="-3.5279">
        <ele>2.58</ele>
        <time>2020-07-10T08:59:52Z</time>
      </trkpt>
      <trkpt lat="47.79386" lon="-3.5279">
        <ele>2.52</ele>
        <time>2020-07-10T08:59:53Z</time>
      </trkpt>
      <trkpt lat="47.79387" lon="-3.52788">
        <ele>2.45</ele>
        <time>2020-07-10T08:59:54Z</time>
      </trkpt>
      <trkpt lat="47.79389" lon="-3.52787">
        <ele>2.39</ele>
        <time>2020-07-10T08:59:55Z</time>
      </trkpt>
      <trkpt lat="47.79392" lon="-3.52785">
        <ele>2.4</ele>
        <time>2020-07-10T08:59:56Z</time>
      </trkpt>
      <trkpt lat="47.79395" lon="-3.52783">
        <ele>2.42</ele>
        <time>2020-07-10T08:59:57Z</time>
      </trkpt>
      <trkpt lat="47.79397" lon="-3.52781">
        <ele>2.44</ele>
        <time>2020-07-10T08:59:58Z</time>
      </trkpt>
      <trkpt lat="47.794" lon="-3.5278">
        <ele>2.51</ele>
        <time>2020-07-10T08:59:59Z</time>
      </trkpt>
      <trkpt lat="47.79402" lon="-3.5278">
        <ele>2.63</ele>
        <time>2020-07-10T09:00:00Z</time>
      </trkpt>
      <trkpt lat="47.79404" lon="-3.52779">
        <ele>2.73</ele>
        <time>2020-07-10T09:00:01Z</time>
      </trkpt>
      <trkpt lat="47.79405" lon="-3.52778">
        <ele>2.83</ele>
        <time>2020-07-10T09:00:02Z</time>
      </trkpt>
      <trkpt lat="47.79407" lon="-3.52777">
        <ele>2.9</ele>
        <time>2020-07-10T09:00:03Z</time>
      </trkpt>
      <trkpt lat="47.79409" lon="-3.52777">
        <ele>3.03</ele>
        <time>2020-07-10T09:00:04Z</time>
      </trkpt>
      <trkpt lat="47.79411" lon="-3.52776">
        <ele>3.13</ele>
        <time>2020-07-10T09:00:05Z</time>
      </trkpt>
      <trkpt lat="47.79412" lon="-3.52775">
        <ele>3.18</ele>
        <time>2020-07-10T09:00:06Z</time>
      </trkpt>
      <trkpt lat="47.79414" lon="-3.52774">
        <ele>3.18</ele>
        <time>2020-07-10T09:00:07Z</time>
      </trkpt>
      <trkpt lat="47.79415" lon="-3.52773">
        <ele>3.22</ele>
        <time>2020-07-10T09:00:08Z</time>
      </trkpt>
      <trkpt lat="47.79417" lon="-3.52774">
        <ele>3.35</ele>
        <time>2020-07-10T09:00:09Z</time>
      </trkpt>
      <trkpt lat="47.79419" lon="-3.52775">
        <ele>3.36</ele>
        <time>2020-07-10T09:00:10Z</time>
      </trkpt>
      <trkpt lat="47.7942" lon="-3.52777">
        <ele>3.37</ele>
        <time>2020-07-10T09:00:11Z</time>
      </trkpt>
      <trkpt lat="47.79421" lon="-3.52778">
        <ele>3.43</ele>
        <time>2020-07-10T09:00:12Z</time>
      </trkpt>
      <trkpt lat="47.79421" lon="-3.5278">
        <ele>3.64</ele>
        <time>2020-07-10T09:00:13Z</time>
      </trkpt>
      <trkpt lat="47.79422" lon="-3.52782">
        <ele>3.93</ele>
        <time>2020-07-10T09:00:14Z</time>
      </trkpt>
      <trkpt lat="47.79423" lon="-3.52785">
        <ele>4.38</ele>
        <time>2020-07-10T09:00:15Z</time>
      </trkpt>
      <trkpt lat="47.79424" lon="-3.52789">
        <ele>5.03</ele>
        <time>2020-07-10T09:00:16Z</time>
      </trkpt>
      <trkpt lat="47.79425" lon="-3.52793">
        <ele>5.6</ele>
        <time>2020-07-10T09:00:17Z</time>
      </trkpt>
      <trkpt lat="47.79426" lon="-3.52796">
        <ele>6.12</ele>
        <time>2020-07-10T09:00:18Z</time>
      </trkpt>
      <trkpt lat="47.79428" lon="-3.52799">
        <ele>6.55</ele>
        <time>2020-07-10T09:00:19Z</time>
      </trkpt>
      <trkpt lat="47.79429" lon="-3.52803">
        <ele>6.94</ele>
        <time>2020-07-10T09:00:20Z</time>
      </trkpt>
      <trkpt lat="47.79431" lon="-3.52805">
        <ele>7.27</ele>
        <time>2020-07-10T09:00:21Z</time>
      </trkpt>
      <trkpt lat="47.79432" lon="-3.52808">
        <ele>7.51</ele>
        <time>2020-07-10T09:00:22Z</time>
      </trkpt>
      <trkpt lat="47.79434" lon="-3.5281">
        <ele>7.68</ele>
        <time>2020-07-10T09:00:23Z</time>
      </trkpt>
      <trkpt lat="47.79435" lon="-3.52812">
        <ele>7.91</ele>
        <time>2020-07-10T09:00:24Z</time>
      </trkpt>
      <trkpt lat="47.79436" lon="-3.52814">
        <ele>8.24</ele>
        <time>2020-07-10T09:00:25Z</time>
      </trkpt>
      <trkpt lat="47.79438" lon="-3.52816">
        <ele>8.42</ele>
        <time>2020-07-10T09:00:26Z</time>
      </trkpt>
      <trkpt lat="47.7944" lon="-3.52816">
        <ele>8.49</ele>
        <time>2020-07-10T09:00:27Z</time>
      </trkpt>
      <trkpt lat="47.79443" lon="-3.52817">
        <ele>8.52</ele>
        <time>2020-07-10T09:00:28Z</time>
      </trkpt>
      <trkpt lat="47.79444" lon="-3.52818">
        <ele>8.5</ele>
        <time>2020-07-10T09:00:29Z</time>
      </trkpt>
      <trkpt lat="47.79446" lon="-3.52818">
        <ele>8.54</ele>
        <time>2020-07-10T09:00:30Z</time>
      </trkpt>
      <trkpt lat="47.79448" lon="-3.52818">
        <ele>8.5</ele>
        <time>2020-07-10T09:00:31Z</time>
      </trkpt>
      <trkpt lat="47.79449" lon="-3.52818">
        <ele>8.49</ele>
        <time>2020-07-10T09:00:32Z</time>
      </trkpt>
      <trkpt lat="47.79451" lon="-3.52819">
        <ele>8.62</ele>
        <time>2020-07-10T09:00:33Z</time>
      </trkpt>
      <trkpt lat="47.79452" lon="-3.5282">
        <ele>8.74</ele>
        <time>2020-07-10T09:00:34Z</time>
      </trkpt>
      <trkpt lat="47.79454" lon="-3.5282">
        <ele>8.81</ele>
        <time>2020-07-10T09:00:35Z</time>
      </trkpt>
      <trkpt lat="47.79457" lon="-3.52821">
        <ele>8.94</ele>
        <time>2020-07-10T09:00:36Z</time>
      </trkpt>
      <trkpt lat="47.7946" lon="-3.52822">
        <ele>9.16</ele>
        <time>2020-07-10T09:00:37Z</time>
      </trkpt>
      <trkpt lat="47.79464" lon="-3.52822">
        <ele>9.35</ele>
        <time>2020-07-10T09:00:38Z</time>
      </trkpt>
      <trkpt lat="47.79467" lon="-3.52824">
        <ele>9.78</ele>
        <time>2020-07-10T09:00:39Z</time>
      </trkpt>
      <trkpt lat="47.79469" lon="-3.52826">
        <ele>10.67</ele>
        <time>2020-07-10T09:00:40Z</time>
      </trkpt>
      <trkpt lat="47.79472" lon="-3.5283">
        <ele>11.83</ele>
        <time>2020-07-10T09:00:41Z</time>
      </trkpt>
      <trkpt lat="47.79474" lon="-3.52833">
        <ele>12.8</ele>
        <time>2020-07-10T09:00:42Z</time>
      </trkpt>
      <trkpt lat="47.79477" lon="-3.52836">
        <ele>13.01</ele>
        <time>2020-07-10T09:00:43Z</time>
      </trkpt>
      <trkpt lat="47.79479" lon="-3.5284">
        <ele>13.03</ele>
        <time>2020-07-10T09:00:44Z</time>
      </trkpt>
      <trkpt lat="47.79482" lon="-3.52843">
        <ele>12.98</ele>
        <time>2020-07-10T09:00:45Z</time>
      </trkpt>
      <trkpt lat="47.79485" lon="-3.52844">
        <ele>12.67</ele>
        <time>2020-07-10T09:00:46Z</time>
      </trkpt>
      <trkpt lat="47.79487" lon="-3.52843">
        <ele>12.13</ele>
        <time>2020-07-10T09:00:47Z</time>
      </trkpt>
      <trkpt lat="47.79489" lon="-3.52842">
        <ele>11.37</ele>
        <time>2020-07-10T09:00:48Z</time>
      </trkpt>
      <trkpt lat="47.79492" lon="-3.52841">
        <ele>10.74</ele>
        <time>2020-07-10T09:00:49Z</time>
      </trkpt>
      <trkpt lat="47.79494" lon="-3.52841">
        <ele>10.16</ele>
        <time>2020-07-10T09:00:50Z</time>
      </trkpt>
      <trkpt lat="47.79498" lon="-3.52843">
        <ele>9.83</ele>
        <time>2020-07-10T09:00:51Z</time>
      </trkpt>
      <trkpt lat="47.79501" lon="-3.52845">
        <ele>9.69</ele>
        <time>2020-07-10T09:00:52Z</time>
      </trkpt>
      <trkpt lat="47.79502" lon="-3.52847">
        <ele>9.96</ele>
        <time>2020-07-10T09:00:53Z</time>
      </trkpt>
      <trkpt lat="47.79504" lon="-3.5285">
        <ele>10.39</ele>
        <time>2020-07-10T09:00:54Z</time>
      </trkpt>
      <trkpt lat="47.79506" lon="-3.52853">
        <ele>10.78</ele>
        <time>2020-07-10T09:00:55Z</time>
      </trkpt>
      <trkpt lat="47.79508" lon="-3.52855">
        <ele>11.07</ele>
        <time>2020-07-10T09:00:56Z</time>
      </trkpt>
      <trkpt lat="47.7951" lon="-3.52858">
        <ele>11.41</ele>
        <time>2020-07-10T09:00:57Z</time>
      </trkpt>
      <trkpt lat="47.79513" lon="-3.52862">
        <ele>11.71</ele>
        <time>2020-07-10T09:00:58Z</time>
      </trkpt>
      <trkpt lat="47.79516" lon="-3.52865">
        <ele>11.65</ele>
        <time>2020-07-10T09:00:59Z</time>
      </trkpt>
      <trkpt lat="47.7952" lon="-3.52867">
        <ele>11.54</ele>
        <time>2020-07-10T09:01:00Z</time>
      </trkpt>
      <trkpt lat="47.79523" lon="-3.52869">
        <ele>11.32</ele>
        <time>2020-07-10T09:01:01Z</time>
      </trkpt>
      <trkpt lat="47.79529" lon="-3.52869">
        <ele>10.58</ele>
        <time>2020-07-10T09:01:02Z</time>
      </trkpt>
      <trkpt lat="47.79534" lon="-3.5287">
        <ele>10.14</ele>
        <time>2020-07-10T09:01:03Z</time>
      </trkpt>
      <trkpt lat="47.79536" lon="-3.5287">
        <ele>9.77</ele>
        <time>2020-07-10T09:01:04Z</time>
      </trkpt>
      <trkpt lat="47.79539" lon="-3.52871">
        <ele>9.59</ele>
        <time>2020-07-10T09:01:05Z</time>
      </trkpt>
      <trkpt lat="47.79541" lon="-3.52873">
        <ele>9.71</ele>
        <time>2020-07-10T09:01:06Z</time>
      </trkpt>
      <trkpt lat="47.79542" lon="-3.52875">
        <ele>10.03</ele>
        <time>2020-07-10T09:01:07Z</time>
      </trkpt>
      <trkpt lat="47.79544" lon="-3.52876">
        <ele>10.24</ele>
        <time>2020-07-10T09:01:08Z</time>
      </trkpt>
      <trkpt lat="47.79545" lon="-3.52878">
        <ele>10.46</ele>
        <time>2020-07-10T09:01:09Z</time>
      </trkpt>
      <trkpt lat="47.79546" lon="-3.52879">
        <ele>10.61</ele>
        <time>2020-07-10T09:01:10Z</time>
      </trkpt>
      <trkpt lat="47.79547" lon="-3.52879">
        <ele>10.62</ele>
        <time>2020-07-10T09:01:11Z</time>
      </trkpt>
      <trkpt lat="47.79547" lon="-3.52879">
        <ele>10.63</ele>
        <time>2020-07-10T09:01:12Z</time>
      </trkpt>
      <trkpt lat="47.79547" lon="-3.52879">
        <ele>10.63</ele>
        <time>2020-07-10T09:01:13Z</time>
      </trkpt>
      <trkpt lat="47.79547" lon="-3.52879">
        <ele>10.63</ele>
        <time>2020-07-10T09:01:14Z</time>
      </trkpt>
      <trkpt lat="47.79547" lon="-3.52879">
        <ele>10.63</ele>
        <time>2020-07-10T09:01:15Z</time>
      </trkpt>
      <trkpt lat="47.79547" lon="-3.52879">
        <ele>10.63</ele>
        <time>2020-07-10T09:01:16Z</time>
      </trkpt>
      <trkpt lat="47.79547" lon="-3.52879">
        <ele>10.63</ele>
        <time>2020-07-10T09:01:17Z</time>
      </trkpt>
      <trkpt lat="47.79551" lon="-3.52884">
        <ele>11.13</ele>
        <time>2020-07-10T09:01:18Z</time>
      </trkpt>
      <trkpt lat="47.79553" lon="-3.52886">
        <ele>11.6</ele>
        <time>2020-07-10T09:01:19Z</time>
      </trkpt>
      <trkpt lat="47.79554" lon="-3.52889">
        <ele>12</ele>
        <time>2020-07-10T09:01:20Z</time>
      </trkpt>
      <trkpt lat="47.79555" lon="-3.52891">
        <ele>12.39</ele>
        <time>2020-07-10T09:01:21Z</time>
      </trkpt>
      <trkpt lat="47.79555" lon="-3.52893">
        <ele>12.82</ele>
        <time>2020-07-10T09:01:22Z</time>
      </trkpt>
      <trkpt lat="47.79555" lon="-3.52895">
        <ele>13.33</ele>
        <time>2020-07-10T09:01:23Z</time>
      </trkpt>
      <trkpt lat="47.79556" lon="-3.52897">
        <ele>13.89</ele>
        <time>2020-07-10T09:01:24Z</time>
      </trkpt>
      <trkpt lat="47.79557" lon="-3.52899">
        <ele>14.55</ele>
        <time>2020-07-10T09:01:25Z</time>
      </trkpt>
      <trkpt lat="47.79559" lon="-3.52902">
        <ele>15.43</ele>
        <time>2020-07-10T09:01:26Z</time>
      </trkpt>
      <trkpt lat="47.79561" lon="-3.52905">
        <ele>16.38</ele>
        <time>2020-07-10T09:01:27Z</time>
      </trkpt>
      <trkpt lat="47.79563" lon="-3.52906">
        <ele>16.99</ele>
        <time>2020-07-10T09:01:28Z</time>
      </trkpt>
      <trkpt lat="47.79564" lon="-3.52906">
        <ele>17.36</ele>
        <time>2020-07-10T09:01:29Z</time>
      </trkpt>
      <trkpt lat="47.79565" lon="-3.52907">
        <ele>17.64</ele>
        <time>2020-07-10T09:01:30Z</time>
      </trkpt>
      <trkpt lat="47.79565" lon="-3.52907">
        <ele>17.8</ele>
        <time>2020-07-10T09:01:31Z</time>
      </trkpt>
      <trkpt lat="47.79565" lon="-3.52907">
        <ele>17.85</ele>
        <time>2020-07-10T09:01:32Z</time>
      </trkpt>
      <trkpt lat="47.79565" lon="-3.52907">
        <ele>17.87</ele>
        <time>2020-07-10T09:01:33Z</time>
      </trkpt>
      <trkpt lat="47.79565" lon="-3.52907">
        <ele>17.87</ele>
        <time>2020-07-10T09:01:34Z</time>
      </trkpt>
      <trkpt lat="47.79568" lon="-3.52902">
        <ele>17.47</ele>
        <time>2020-07-10T09:01:35Z</time>
      </trkpt>
      <trkpt lat="47.79569" lon="-3.52901">
        <ele>17.33</ele>
        <time>2020-07-10T09:01:36Z</time>
      </trkpt>
      <trkpt lat="47.79569" lon="-3.52899">
        <ele>17.2</ele>
        <time>2020-07-10T09:01:37Z</time>
      </trkpt>
      <trkpt lat="47.7957" lon="-3.52898">
        <ele>17.08</ele>
        <time>2020-07-10T09:01:38Z</time>
      </trkpt>
      <trkpt lat="47.7957" lon="-3.52898">
        <ele>17.04</ele>
        <time>2020-07-10T09:01:39Z</time>
      </trkpt>
      <trkpt lat="47.7957" lon="-3.52898">
        <ele>17.03</ele>
        <time>2020-07-10T09:01:40Z</time>
      </trkpt>
      <trkpt lat="47.7957" lon="-3.52898">
        <ele>17.03</ele>
        <time>2020-07-10T09:01:41Z</time>
      </trkpt>
      <trkpt lat="47.79571" lon="-3.52892">
        <ele>16.54</ele>
        <time>2020-07-10T09:01:42Z</time>
      </trkpt>
      <trkpt lat="47.79571" lon="-3.52891">
        <ele>16.23</ele>
        <time>2020-07-10T09:01:43Z</time>
      </trkpt>
      <trkpt lat="47.79571" lon="-3.52888">
        <ele>15.83</ele>
        <time>2020-07-10T09:01:44Z</time>
      </trkpt>
      <trkpt lat="47.79571" lon="-3.52886">
        <ele>15.35</ele>
        <time>2020-07-10T09:01:45Z</time>
      </trkpt>
      <trkpt lat="47.79571" lon="-3.52885">
        <ele>15.02</ele>
        <time>2020-07-10T09:01:46Z</time>
      </trkpt>
      <trkpt lat="47.7957" lon="-3.52882">
        <ele>14.43</ele>
        <time>2020-07-10T09:01:47Z</time>
      </trkpt>
      <trkpt lat="47.79571" lon="-3.52879">
        <ele>13.94</ele>
        <time>2020-07-10T09:01:48Z</time>
      </trkpt>
      <trkpt lat="47.79571" lon="-3.52876">
        <ele>13.37</ele>
        <time>2020-07-10T09:01:49Z</time>
      </trkpt>
      <trkpt lat="47.79571" lon="-3.52873">
        <ele>12.7</ele>
        <time>2020-07-10T09:01:50Z</time>
      </trkpt>
      <trkpt lat="47.79571" lon="-3.5287">
        <ele>12.15</ele>
        <time>2020-07-10T09:01:51Z</time>
      </trkpt>
      <trkpt lat="47.79571" lon="-3.52867">
        <ele>11.58</ele>
        <time>2020-07-10T09:01:52Z</time>
      </trkpt>
      <trkpt lat="47.79572" lon="-3.52864">
        <ele>11.03</ele>
        <time>2020-07-10T09:01:53Z</time>
      </trkpt>
      <trkpt lat="47.79573" lon="-3.52859">
        <ele>10.48</ele>
        <time>2020-07-10T09:01:54Z</time>
      </trkpt>
      <trkpt lat="47.79574" lon="-3.52854">
        <ele>9.74</ele>
        <time>2020-07-10T09:01:55Z</time>
      </trkpt>
      <trkpt lat="47.79576" lon="-3.52849">
        <ele>8.99</ele>
        <time>2020-07-10T09:01:56Z</time>
      </trkpt>
      <trkpt lat="47.79578" lon="-3.52843">
        <ele>8.15</ele>
        <time>2020-07-10T09:01:57Z</time>
      </trkpt>
      <trkpt lat="47.7958" lon="-3.52837">
        <ele>7.39</ele>
        <time>2020-07-10T09:01:58Z</time>
      </trkpt>
      <trkpt lat="47.79584" lon="-3.52831">
        <ele>6.86</ele>
        <time>2020-07-10T09:01:59Z</time>
      </trkpt>
      <trkpt lat="47.79587" lon="-3.52827">
        <ele>6.55</ele>
        <time>2020-07-10T09:02:00Z</time>
      </trkpt>
      <trkpt lat="47.79591" lon="-3.52824">
        <ele>6.47</ele>
        <time>2020-07-10T09:02:01Z</time>
      </trkpt>
      <trkpt lat="47.79596" lon="-3.52822">
        <ele>6.63</ele>
        <time>2020-07-10T09:02:02Z</time>
      </trkpt>
      <trkpt lat="47.796" lon="-3.5282">
        <ele>7</ele>
        <time>2020-07-10T09:02:03Z</time>
      </trkpt>
      <trkpt lat="47.79605" lon="-3.52819">
        <ele>7.52</ele>
        <time>2020-07-10T09:02:04Z</time>
      </trkpt>
      <trkpt lat="47.7961" lon="-3.52817">
        <ele>8.02</ele>
        <time>2020-07-10T09:02:05Z</time>
      </trkpt>
      <trkpt lat="47.79616" lon="-3.52812">
        <ele>7.82</ele>
        <time>2020-07-10T09:02:06Z</time>
      </trkpt>
      <trkpt lat="47.79622" lon="-3.52807">
        <ele>7.05</ele>
        <time>2020-07-10T09:02:07Z</time>
      </trkpt>
      <trkpt lat="47.79628" lon="-3.52801">
        <ele>6.07</ele>
        <time>2020-07-10T09:02:08Z</time>
      </trkpt>
      <trkpt lat="47.79634" lon="-3.52797">
        <ele>5.16</ele>
        <time>2020-07-10T09:02:09Z</time>
      </trkpt>
      <trkpt lat="47.79639" lon="-3.52794">
        <ele>4.5</ele>
        <time>2020-07-10T09:02:10Z</time>
      </trkpt>
      <trkpt lat="47.79643" lon="-3.52791">
        <ele>4.33</ele>
        <time>2020-07-10T09:02:11Z</time>
      </trkpt>
      <trkpt lat="47.79647" lon="-3.52788">
        <ele>4.18</ele>
        <time>2020-07-10T09:02:12Z</time>
      </trkpt>
      <trkpt lat="47.7965" lon="-3.52785">
        <ele>3.98</ele>
        <time>2020-07-10T09:02:13Z</time>
      </trkpt>
      <trkpt lat="47.79654" lon="-3.52782">
        <ele>3.84</ele>
        <time>2020-07-10T09:02:14Z</time>
      </trkpt>
      <trkpt lat="47.79657" lon="-3.52779">
        <ele>3.73</ele>
        <time>2020-07-10T09:02:15Z</time>
      </trkpt>
      <trkpt lat="47.7966" lon="-3.52778">
        <ele>3.76</ele>
        <time>2020-07-10T09:02:16Z</time>
      </trkpt>
      <trkpt lat="47.79661" lon="-3.52777">
        <ele>3.9</ele>
        <time>2020-07-10T09:02:17Z</time>
      </trkpt>
      <trkpt lat="47.79663" lon="-3.52777">
        <ele>4.08</ele>
        <time>2020-07-10T09:02:18Z</time>
      </trkpt>
      <trkpt lat="47.79664" lon="-3.52777">
        <ele>4.32</ele>
        <time>2020-07-10T09:02:19Z</time>
      </trkpt>
      <trkpt lat="47.79666" lon="-3.52778">
        <ele>4.74</ele>
        <time>2020-07-10T09:02:20Z</time>
      </trkpt>
      <trkpt lat="47.79668" lon="-3.5278">
        <ele>5.47</ele>
        <time>2020-07-10T09:02:21Z</time>
      </trkpt>
      <trkpt lat="47.79669" lon="-3.52781">
        <ele>6.23</ele>
        <time>2020-07-10T09:02:22Z</time>
      </trkpt>
      <trkpt lat="47.7967" lon="-3.52781">
        <ele>6.79</ele>
        <time>2020-07-10T09:02:23Z</time>
      </trkpt>
      <trkpt lat="47.79671" lon="-3.52781">
        <ele>6.99</ele>
        <time>2020-07-10T09:02:24Z</time>
      </trkpt>
      <trkpt lat="47.79671" lon="-3.5278">
        <ele>7.05</ele>
        <time>2020-07-10T09:02:25Z</time>
      </trkpt>
      <trkpt lat="47.79672" lon="-3.52781">
        <ele>7.27</ele>
        <time>2020-07-10T09:02:26Z</time>
      </trkpt>
      <trkpt lat="47.79672" lon="-3.52781">
        <ele>7.34</ele>
        <time>2020-07-10T09:02:27Z</time>
      </trkpt>
      <trkpt lat="47.79672" lon="-3.52781">
        <ele>7.36</ele>
        <time>2020-07-10T09:02:28Z</time>
      </trkpt>
      <trkpt lat="47.79672" lon="-3.52781">
        <ele>7.37</ele>
        <time>2020-07-10T09:02:29Z</time>
      </trkpt>
      <trkpt lat="47.79672" lon="-3.52781">
        <ele>7.37</ele>
        <time>2020-07-10T09:02:30Z</time>
      </trkpt>
      <trkpt lat="47.79672" lon="-3.52781">
        <ele>7.37</ele>
        <time>2020-07-10T09:02:31Z</time>
      </trkpt>
      <trkpt lat="47.79672" lon="-3.52781">
        <ele>7.37</ele>
        <time>2020-07-10T09:02:32Z</time>
      </trkpt>
      <trkpt lat="47.79672" lon="-3.52781">
        <ele>7.37</ele>
        <time>2020-07-10T09:02:33Z</time>
      </trkpt>
      <trkpt lat="47.79672" lon="-3.52781">
        <ele>7.37</ele>
        <time>2020-07-10T09:02:34Z</time>
      </trkpt>
      <trkpt lat="47.79677" lon="-3.52782">
        <ele>8.61</ele>
        <time>2020-07-10T09:02:35Z</time>
      </trkpt>
      <trkpt lat="47.79679" lon="-3.52784">
        <ele>9.66</ele>
        <time>2020-07-10T09:02:36Z</time>
      </trkpt>
      <trkpt lat="47.7968" lon="-3.52784">
        <ele>10.31</ele>
        <time>2020-07-10T09:02:37Z</time>
      </trkpt>
      <trkpt lat="47.79681" lon="-3.52784">
        <ele>10.63</ele>
        <time>2020-07-10T09:02:38Z</time>
      </trkpt>
      <trkpt lat="47.79682" lon="-3.52784">
        <ele>10.97</ele>
        <time>2020-07-10T09:02:39Z</time>
      </trkpt>
      <trkpt lat="47.79682" lon="-3.52784">
        <ele>11.2</ele>
        <time>2020-07-10T09:02:40Z</time>
      </trkpt>
      <trkpt lat="47.79683" lon="-3.52784">
        <ele>11.37</ele>
        <time>2020-07-10T09:02:41Z</time>
      </trkpt>
      <trkpt lat="47.79683" lon="-3.52784">
        <ele>11.43</ele>
        <time>2020-07-10T09:02:42Z</time>
      </trkpt>
      <trkpt lat="47.79683" lon="-3.52784">
        <ele>11.44</ele>
        <time>2020-07-10T09:02:43Z</time>
      </trkpt>
      <trkpt lat="47.79683" lon="-3.52784">
        <ele>11.45</ele>
        <time>2020-07-10T09:02:44Z</time>
      </trkpt>
      <trkpt lat="47.79683" lon="-3.52784">
        <ele>11.45</ele>
        <time>2020-07-10T09:02:45Z</time>
      </trkpt>
      <trkpt lat="47.79683" lon="-3.52784">
        <ele>11.45</ele>
        <time>2020-07-10T09:02:46Z</time>
      </trkpt>
      <trkpt lat="47.79683" lon="-3.52784">
        <ele>11.45</ele>
        <time>2020-07-10T09:02:47Z</time>
      </trkpt>
      <trkpt lat="47.79683" lon="-3.52784">
        <ele>11.45</ele>
        <time>2020-07-10T09:02:48Z</time>
      </trkpt>
      <trkpt lat="47.79683" lon="-3.52784">
        <ele>11.45</ele>
        <time>2020-07-10T09:02:49Z</time>
      </trkpt>
      <trkpt lat="47.79683" lon="-3.52784">
        <ele>11.45</ele>
        <time>2020-07-10T09:02:50Z</time>
      </trkpt>
      <trkpt lat="47.79683" lon="-3.52784">
        <ele>11.45</ele>
        <time>2020-07-10T09:02:51Z</time>
      </trkpt>
      <trkpt lat="47.79683" lon="-3.52784">
        <ele>11.45</ele>
        <time>2020-07-10T09:02:52Z</time>
      </trkpt>
      <trkpt lat="47.79683" lon="-3.52784">
        <ele>11.45</ele>
        <time>2020-07-10T09:02:53Z</time>
      </trkpt>
      <trkpt lat="47.79683" lon="-3.52784">
        <ele>11.45</ele>
        <time>2020-07-10T09:02:54Z</time>
      </trkpt>
      <trkpt lat="47.79683" lon="-3.52784">
        <ele>11.45</ele>
        <time>2020-07-10T09:02:55Z</time>
      </trkpt>
      <trkpt lat="47.79683" lon="-3.52784">
        <ele>11.45</ele>
        <time>2020-07-10T09:02:56Z</time>
      </trkpt>
      <trkpt lat="47.79692" lon="-3.52786">
        <ele>13.77</ele>
        <time>2020-07-10T09:02:57Z</time>
      </trkpt>
      <trkpt lat="47.79693" lon="-3.52787">
        <ele>14.76</ele>
        <time>2020-07-10T09:02:58Z</time>
      </trkpt>
      <trkpt lat="47.79693" lon="-3.52787">
        <ele>15.1</ele>
        <time>2020-07-10T09:02:59Z</time>
      </trkpt>
      <trkpt lat="47.79693" lon="-3.52788">
        <ele>15.3</ele>
        <time>2020-07-10T09:03:00Z</time>
      </trkpt>
      <trkpt lat="47.79693" lon="-3.52788">
        <ele>15.36</ele>
        <time>2020-07-10T09:03:01Z</time>
      </trkpt>
      <trkpt lat="47.79693" lon="-3.52788">
        <ele>15.38</ele>
        <time>2020-07-10T09:03:02Z</time>
      </trkpt>
      <trkpt lat="47.79693" lon="-3.52788">
        <ele>15.38</ele>
        <time>2020-07-10T09:03:03Z</time>
      </trkpt>
      <trkpt lat="47.79693" lon="-3.52788">
        <ele>15.38</ele>
        <time>2020-07-10T09:03:04Z</time>
      </trkpt>
      <trkpt lat="47.79693" lon="-3.52788">
        <ele>15.38</ele>
        <time>2020-07-10T09:03:05Z</time>
      </trkpt>
      <trkpt lat="47.79693" lon="-3.52788">
        <ele>15.38</ele>
        <time>2020-07-10T09:03:06Z</time>
      </trkpt>
      <trkpt lat="47.79693" lon="-3.52788">
        <ele>15.38</ele>
        <time>2020-07-10T09:03:07Z</time>
      </trkpt>
      <trkpt lat="47.79693" lon="-3.52788">
        <ele>15.38</ele>
        <time>2020-07-10T09:03:08Z</time>
      </trkpt>
      <trkpt lat="47.79693" lon="-3.52788">
        <ele>15.38</ele>
        <time>2020-07-10T09:03:09Z</time>
      </trkpt>
      <trkpt lat="47.79693" lon="-3.52788">
        <ele>15.38</ele>
        <time>2020-07-10T09:03:10Z</time>
      </trkpt>
      <trkpt lat="47.79693" lon="-3.52788">
        <ele>15.38</ele>
        <time>2020-07-10T09:03:11Z</time>
      </trkpt>
      <trkpt lat="47.79693" lon="-3.52788">
        <ele>15.38</ele>
        <time>2020-07-10T09:03:12Z</time>
      </trkpt>
      <trkpt lat="47.79693" lon="-3.52788">
        <ele>15.38</ele>
        <time>2020-07-10T09:03:13Z</time>
      </trkpt>
      <trkpt lat="47.79693" lon="-3.52788">
        <ele>15.38</ele>
        <time>2020-07-10T09:03:14Z</time>
      </trkpt>
      <trkpt lat="47.79693" lon="-3.52788">
        <ele>15.38</ele>
        <time>2020-07-10T09:03:15Z</time>
      </trkpt>
      <trkpt lat="47.79693" lon="-3.52788">
        <ele>15.38</ele>
        <time>2020-07-10T09:03:16Z</time>
      </trkpt>
      <trkpt lat="47.79693" lon="-3.52788">
        <ele>15.38</ele>
        <time>2020-07-10T09:03:17Z</time>
      </trkpt>
      <trkpt lat="47.79693" lon="-3.52788">
        <ele>15.38</ele>
        <time>2020-07-10T09:03:18Z</time>
      </trkpt>
      <trkpt lat="47.79693" lon="-3.52788">
        <ele>15.38</ele>
        <time>2020-07-10T09:03:19Z</time>
      </trkpt>
      <trkpt lat="47.79693" lon="-3.52788">
        <ele>15.38</ele>
        <time>2020-07-10T09:03:20Z</time>
      </trkpt>
      <trkpt lat="47.79693" lon="-3.52788">
        <ele>15.38</ele>
        <time>2020-07-10T09:03:21Z</time>
      </trkpt>
      <trkpt lat="47.79693" lon="-3.52788">
        <ele>15.38</ele>
        <time>2020-07-10T09:03:22Z</time>
      </trkpt>
      <trkpt lat="47.79693" lon="-3.52788">
        <ele>15.38</ele>
        <time>2020-07-10T09:03:23Z</time>
      </trkpt>
      <trkpt lat="47.79693" lon="-3.52788">
        <ele>15.38</ele>
        <time>2020-07-10T09:03:24Z</time>
      </trkpt>
      <trkpt lat="47.79693" lon="-3.52788">
        <ele>15.38</ele>
        <time>2020-07-10T09:03:25Z</time>
      </trkpt>
      <trkpt lat="47.79693" lon="-3.52788">
        <ele>15.38</ele>
        <time>2020-07-10T09:03:26Z</time>
      </trkpt>
      <trkpt lat="47.79693" lon="-3.52788">
        <ele>15.38</ele>
        <time>2020-07-10T09:03:27Z</time>
      </trkpt>
      <trkpt lat="47.79702" lon="-3.52785">
        <ele>16.47</ele>
        <time>2020-07-10T09:03:28Z</time>
      </trkpt>
      <trkpt lat="47.79703" lon="-3.52784">
        <ele>16.86</ele>
        <time>2020-07-10T09:03:29Z</time>
      </trkpt>
      <trkpt lat="47.79705" lon="-3.52782">
        <ele>16.92</ele>
        <time>2020-07-10T09:03:30Z</time>
      </trkpt>
      <trkpt lat="47.79707" lon="-3.5278">
        <ele>17.01</ele>
        <time>2020-07-10T09:03:31Z</time>
      </trkpt>
      <trkpt lat="47.79708" lon="-3.52779">
        <ele>17.19</ele>
        <time>2020-07-10T09:03:32Z</time>
      </trkpt>
      <trkpt lat="47.7971" lon="-3.52777">
        <ele>17.29</ele>
        <time>2020-07-10T09:03:33Z</time>
      </trkpt>
      <trkpt lat="47.79712" lon="-3.52773">
        <ele>16.83</ele>
        <time>2020-07-10T09:03:34Z</time>
      </trkpt>
      <trkpt lat="47.79714" lon="-3.52769">
        <ele>16.31</ele>
        <time>2020-07-10T09:03:35Z</time>
      </trkpt>
      <trkpt lat="47.79716" lon="-3.52765">
        <ele>15.93</ele>
        <time>2020-07-10T09:03:36Z</time>
      </trkpt>
      <trkpt lat="47.79718" lon="-3.5276">
        <ele>15.55</ele>
        <time>2020-07-10T09:03:37Z</time>
      </trkpt>
      <trkpt lat="47.79719" lon="-3.52756">
        <ele>15.15</ele>
        <time>2020-07-10T09:03:38Z</time>
      </trkpt>
      <trkpt lat="47.7972" lon="-3.52754">
        <ele>14.96</ele>
        <time>2020-07-10T09:03:39Z</time>
      </trkpt>
      <trkpt lat="47.79721" lon="-3.52753">
        <ele>14.94</ele>
        <time>2020-07-10T09:03:40Z</time>
      </trkpt>
      <trkpt lat="47.79721" lon="-3.52753">
        <ele>14.87</ele>
        <time>2020-07-10T09:03:41Z</time>
      </trkpt>
      <trkpt lat="47.79721" lon="-3.52753">
        <ele>14.85</ele>
        <time>2020-07-10T09:03:42Z</time>
      </trkpt>
      <trkpt lat="47.79721" lon="-3.52753">
        <ele>14.84</ele>
        <time>2020-07-10T09:03:43Z</time>
      </trkpt>
      <trkpt lat="47.79721" lon="-3.52753">
        <ele>14.84</ele>
        <time>2020-07-10T09:03:44Z</time>
      </trkpt>
      <trkpt lat="47.79721" lon="-3.52753">
        <ele>14.84</ele>
        <time>2020-07-10T09:03:45Z</time>
      </trkpt>
      <trkpt lat="47.79721" lon="-3.52753">
        <ele>14.84</ele>
        <time>2020-07-10T09:03:46Z</time>
      </trkpt>
      <trkpt lat="47.79721" lon="-3.52753">
        <ele>14.84</ele>
        <time>2020-07-10T09:03:47Z</time>
      </trkpt>
      <trkpt lat="47.79721" lon="-3.52753">
        <ele>14.84</ele>
        <time>2020-07-10T09:03:48Z</time>
      </trkpt>
      <trkpt lat="47.79721" lon="-3.52753">
        <ele>14.84</ele>
        <time>2020-07-10T09:03:49Z</time>
      </trkpt>
      <trkpt lat="47.79721" lon="-3.52753">
        <ele>14.84</ele>
        <time>2020-07-10T09:03:50Z</time>
      </trkpt>
      <trkpt lat="47.79721" lon="-3.52753">
        <ele>14.84</ele>
        <time>2020-07-10T09:03:51Z</time>
      </trkpt>
      <trkpt lat="47.79721" lon="-3.52753">
        <ele>14.84</ele>
        <time>2020-07-10T09:03:52Z</time>
      </trkpt>
      <trkpt lat="47.79721" lon="-3.52753">
        <ele>14.84</ele>
        <time>2020-07-10T09:03:53Z</time>
      </trkpt>
      <trkpt lat="47.79721" lon="-3.52753">
        <ele>14.84</ele>
        <time>2020-07-10T09:03:54Z</time>
      </trkpt>
      <trkpt lat="47.79721" lon="-3.52753">
        <ele>14.84</ele>
        <time>2020-07-10T09:03:55Z</time>
      </trkpt>
      <trkpt lat="47.79721" lon="-3.52753">
        <ele>14.84</ele>
        <time>2020-07-10T09:03:56Z</time>
      </trkpt>
      <trkpt lat="47.79721" lon="-3.52753">
        <ele>14.84</ele>
        <time>2020-07-10T09:03:57Z</time>
      </trkpt>
      <trkpt lat="47.79721" lon="-3.52753">
        <ele>14.84</ele>
        <time>2020-07-10T09:03:58Z</time>
      </trkpt>
      <trkpt lat="47.79721" lon="-3.52753">
        <ele>14.84</ele>
        <time>2020-07-10T09:03:59Z</time>
      </trkpt>
      <trkpt lat="47.79718" lon="-3.52764">
        <ele>15.86</ele>
        <time>2020-07-10T09:04:00Z</time>
      </trkpt>
      <trkpt lat="47.79717" lon="-3.52766">
        <ele>16.33</ele>
        <time>2020-07-10T09:04:01Z</time>
      </trkpt>
      <trkpt lat="47.79716" lon="-3.52768">
        <ele>16.41</ele>
        <time>2020-07-10T09:04:02Z</time>
      </trkpt>
      <trkpt lat="47.79715" lon="-3.52769">
        <ele>16.39</ele>
        <time>2020-07-10T09:04:03Z</time>
      </trkpt>
      <trkpt lat="47.79713" lon="-3.52771">
        <ele>16.39</ele>
        <time>2020-07-10T09:04:04Z</time>
      </trkpt>
      <trkpt lat="47.79712" lon="-3.52771">
        <ele>16.24</ele>
        <time>2020-07-10T09:04:05Z</time>
      </trkpt>
      <trkpt lat="47.79711" lon="-3.52772">
        <ele>15.99</ele>
        <time>2020-07-10T09:04:06Z</time>
      </trkpt>
      <trkpt lat="47.79709" lon="-3.52772">
        <ele>15.59</ele>
        <time>2020-07-10T09:04:07Z</time>
      </trkpt>
      <trkpt lat="47.79708" lon="-3.52771">
        <ele>15.07</ele>
        <time>2020-07-10T09:04:08Z</time>
      </trkpt>
      <trkpt lat="47.79706" lon="-3.52772">
        <ele>14.48</ele>
        <time>2020-07-10T09:04:09Z</time>
      </trkpt>
      <trkpt lat="47.79704" lon="-3.52772">
        <ele>13.96</ele>
        <time>2020-07-10T09:04:10Z</time>
      </trkpt>
      <trkpt lat="47.79702" lon="-3.52773">
        <ele>13.56</ele>
        <time>2020-07-10T09:04:11Z</time>
      </trkpt>
      <trkpt lat="47.797" lon="-3.52774">
        <ele>12.96</ele>
        <time>2020-07-10T09:04:12Z</time>
      </trkpt>
      <trkpt lat="47.79698" lon="-3.52774">
        <ele>12.48</ele>
        <time>2020-07-10T09:04:13Z</time>
      </trkpt>
      <trkpt lat="47.79696" lon="-3.52775">
        <ele>12.24</ele>
        <time>2020-07-10T09:04:14Z</time>
      </trkpt>
      <trkpt lat="47.79694" lon="-3.52776">
        <ele>12.17</ele>
        <time>2020-07-10T09:04:15Z</time>
      </trkpt>
      <trkpt lat="47.79694" lon="-3.52777">
        <ele>12.24</ele>
        <time>2020-07-10T09:04:16Z</time>
      </trkpt>
      <trkpt lat="47.79693" lon="-3.52777">
        <ele>12.23</ele>
        <time>2020-07-10T09:04:17Z</time>
      </trkpt>
      <trkpt lat="47.79693" lon="-3.52778">
        <ele>12.56</ele>
        <time>2020-07-10T09:04:18Z</time>
      </trkpt>
      <trkpt lat="47.79693" lon="-3.52778">
        <ele>12.65</ele>
        <time>2020-07-10T09:04:19Z</time>
      </trkpt>
      <trkpt lat="47.79693" lon="-3.52778">
        <ele>12.68</ele>
        <time>2020-07-10T09:04:20Z</time>
      </trkpt>
      <trkpt lat="47.79693" lon="-3.52778">
        <ele>12.69</ele>
        <time>2020-07-10T09:04:21Z</time>
      </trkpt>
      <trkpt lat="47.79693" lon="-3.52778">
        <ele>12.69</ele>
        <time>2020-07-10T09:04:22Z</time>
      </trkpt>
      <trkpt lat="47.79693" lon="-3.52778">
        <ele>12.7</ele>
        <time>2020-07-10T09:04:23Z</time>
      </trkpt>
      <trkpt lat="47.79693" lon="-3.52778">
        <ele>12.7</ele>
        <time>2020-07-10T09:04:24Z</time>
      </trkpt>
      <trkpt lat="47.79693" lon="-3.52778">
        <ele>12.7</ele>
        <time>2020-07-10T09:04:25Z</time>
      </trkpt>
      <trkpt lat="47.79693" lon="-3.52778">
        <ele>12.7</ele>
        <time>2020-07-10T09:04:26Z</time>
      </trkpt>
      <trkpt lat="47.79693" lon="-3.52778">
        <ele>12.7</ele>
        <time>2020-07-10T09:04:27Z</time>
      </trkpt>
      <trkpt lat="47.79693" lon="-3.52778">
        <ele>12.7</ele>
        <time>2020-07-10T09:04:28Z</time>
      </trkpt>
      <trkpt lat="47.79693" lon="-3.52778">
        <ele>12.7</ele>
        <time>2020-07-10T09:04:29Z</time>
      </trkpt>
      <trkpt lat="47.79693" lon="-3.52778">
        <ele>12.7</ele>
        <time>2020-07-10T09:04:30Z</time>
      </trkpt>
      <trkpt lat="47.79697" lon="-3.52776">
        <ele>12.91</ele>
        <time>2020-07-10T09:04:31Z</time>
      </trkpt>
      <trkpt lat="47.79699" lon="-3.52775">
        <ele>12.95</ele>
        <time>2020-07-10T09:04:32Z</time>
      </trkpt>
      <trkpt lat="47.797" lon="-3.52774">
        <ele>13.12</ele>
        <time>2020-07-10T09:04:33Z</time>
      </trkpt>
      <trkpt lat="47.79702" lon="-3.52773">
        <ele>13.19</ele>
        <time>2020-07-10T09:04:34Z</time>
      </trkpt>
      <trkpt lat="47.79703" lon="-3.52772">
        <ele>13.24</ele>
        <time>2020-07-10T09:04:35Z</time>
      </trkpt>
      <trkpt lat="47.79705" lon="-3.5277">
        <ele>13.39</ele>
        <time>2020-07-10T09:04:36Z</time>
      </trkpt>
      <trkpt lat="47.79708" lon="-3.52768">
        <ele>13.44</ele>
        <time>2020-07-10T09:04:37Z</time>
      </trkpt>
      <trkpt lat="47.7971" lon="-3.52765">
        <ele>13.25</ele>
        <time>2020-07-10T09:04:38Z</time>
      </trkpt>
      <trkpt lat="47.79712" lon="-3.52761">
        <ele>12.92</ele>
        <time>2020-07-10T09:04:39Z</time>
      </trkpt>
      <trkpt lat="47.79714" lon="-3.52757">
        <ele>12.65</ele>
        <time>2020-07-10T09:04:40Z</time>
      </trkpt>
      <trkpt lat="47.79715" lon="-3.52754">
        <ele>12.29</ele>
        <time>2020-07-10T09:04:41Z</time>
      </trkpt>
      <trkpt lat="47.79716" lon="-3.5275">
        <ele>11.87</ele>
        <time>2020-07-10T09:04:42Z</time>
      </trkpt>
      <trkpt lat="47.79717" lon="-3.52747">
        <ele>11.83</ele>
        <time>2020-07-10T09:04:43Z</time>
      </trkpt>
      <trkpt lat="47.79719" lon="-3.52743">
        <ele>11.83</ele>
        <time>2020-07-10T09:04:44Z</time>
      </trkpt>
      <trkpt lat="47.79719" lon="-3.5274">
        <ele>11.71</ele>
        <time>2020-07-10T09:04:45Z</time>
      </trkpt>
      <trkpt lat="47.79721" lon="-3.52737">
        <ele>11.84</ele>
        <time>2020-07-10T09:04:46Z</time>
      </trkpt>
      <trkpt lat="47.79721" lon="-3.52734">
        <ele>11.71</ele>
        <time>2020-07-10T09:04:47Z</time>
      </trkpt>
      <trkpt lat="47.79722" lon="-3.52731">
        <ele>11.38</ele>
        <time>2020-07-10T09:04:48Z</time>
      </trkpt>
      <trkpt lat="47.79722" lon="-3.52726">
        <ele>11</ele>
        <time>2020-07-10T09:04:49Z</time>
      </trkpt>
      <trkpt lat="47.79723" lon="-3.52721">
        <ele>10.68</ele>
        <time>2020-07-10T09:04:50Z</time>
      </trkpt>
      <trkpt lat="47.79725" lon="-3.52715">
        <ele>10.22</ele>
        <time>2020-07-10T09:04:51Z</time>
      </trkpt>
      <trkpt lat="47.79727" lon="-3.52708">
        <ele>9.78</ele>
        <time>2020-07-10T09:04:52Z</time>
      </trkpt>
      <trkpt lat="47.79729" lon="-3.52702">
        <ele>9.53</ele>
        <time>2020-07-10T09:04:53Z</time>
      </trkpt>
      <trkpt lat="47.79731" lon="-3.52694">
        <ele>9.06</ele>
        <time>2020-07-10T09:04:54Z</time>
      </trkpt>
      <trkpt lat="47.79733" lon="-3.52687">
        <ele>8.72</ele>
        <time>2020-07-10T09:04:55Z</time>
      </trkpt>
      <trkpt lat="47.79734" lon="-3.52679">
        <ele>8.24</ele>
        <time>2020-07-10T09:04:56Z</time>
      </trkpt>
      <trkpt lat="47.79735" lon="-3.52673">
        <ele>7.67</ele>
        <time>2020-07-10T09:04:57Z</time>
      </trkpt>
      <trkpt lat="47.79737" lon="-3.52668">
        <ele>7.39</ele>
        <time>2020-07-10T09:04:58Z</time>
      </trkpt>
      <trkpt lat="47.79739" lon="-3.52663">
        <ele>7.31</ele>
        <time>2020-07-10T09:04:59Z</time>
      </trkpt>
      <trkpt lat="47.7974" lon="-3.52659">
        <ele>7.23</ele>
        <time>2020-07-10T09:05:00Z</time>
      </trkpt>
      <trkpt lat="47.79741" lon="-3.52653">
        <ele>7.15</ele>
        <time>2020-07-10T09:05:01Z</time>
      </trkpt>
      <trkpt lat="47.79743" lon="-3.52648">
        <ele>7.08</ele>
        <time>2020-07-10T09:05:02Z</time>
      </trkpt>
      <trkpt lat="47.79746" lon="-3.52641">
        <ele>7.01</ele>
        <time>2020-07-10T09:05:03Z</time>
      </trkpt>
      <trkpt lat="47.79748" lon="-3.52634">
        <ele>7.04</ele>
        <time>2020-07-10T09:05:04Z</time>
      </trkpt>
      <trkpt lat="47.7975" lon="-3.52627">
        <ele>7.12</ele>
        <time>2020-07-10T09:05:05Z</time>
      </trkpt>
      <trkpt lat="47.79751" lon="-3.5262">
        <ele>7.16</ele>
        <time>2020-07-10T09:05:06Z</time>
      </trkpt>
      <trkpt lat="47.79751" lon="-3.52612">
        <ele>6.64</ele>
        <time>2020-07-10T09:05:07Z</time>
      </trkpt>
      <trkpt lat="47.79748" lon="-3.52602">
        <ele>5.51</ele>
        <time>2020-07-10T09:05:08Z</time>
      </trkpt>
      <trkpt lat="47.79748" lon="-3.52593">
        <ele>4.62</ele>
        <time>2020-07-10T09:05:09Z</time>
      </trkpt>
      <trkpt lat="47.79747" lon="-3.52583">
        <ele>3.86</ele>
        <time>2020-07-10T09:05:10Z</time>
      </trkpt>
      <trkpt lat="47.79748" lon="-3.52574">
        <ele>3.24</ele>
        <time>2020-07-10T09:05:11Z</time>
      </trkpt>
      <trkpt lat="47.79749" lon="-3.52564">
        <ele>2.78</ele>
        <time>2020-07-10T09:05:12Z</time>
      </trkpt>
      <trkpt lat="47.79751" lon="-3.52555">
        <ele>2.66</ele>
        <time>2020-07-10T09:05:13Z</time>
      </trkpt>
      <trkpt lat="47.79754" lon="-3.52545">
        <ele>2.85</ele>
        <time>2020-07-10T09:05:14Z</time>
      </trkpt>
      <trkpt lat="47.79757" lon="-3.52537">
        <ele>3.14</ele>
        <time>2020-07-10T09:05:15Z</time>
      </trkpt>
      <trkpt lat="47.79759" lon="-3.52529">
        <ele>3.34</ele>
        <time>2020-07-10T09:05:16Z</time>
      </trkpt>
      <trkpt lat="47.79762" lon="-3.52523">
        <ele>3.83</ele>
        <time>2020-07-10T09:05:17Z</time>
      </trkpt>
      <trkpt lat="47.79764" lon="-3.52516">
        <ele>4.42</ele>
        <time>2020-07-10T09:05:18Z</time>
      </trkpt>
      <trkpt lat="47.79767" lon="-3.52509">
        <ele>5.06</ele>
        <time>2020-07-10T09:05:19Z</time>
      </trkpt>
      <trkpt lat="47.79769" lon="-3.52501">
        <ele>5.4</ele>
        <time>2020-07-10T09:05:20Z</time>
      </trkpt>
      <trkpt lat="47.79771" lon="-3.52494">
        <ele>5.58</ele>
        <time>2020-07-10T09:05:21Z</time>
      </trkpt>
      <trkpt lat="47.79774" lon="-3.52487">
        <ele>5.63</ele>
        <time>2020-07-10T09:05:22Z</time>
      </trkpt>
      <trkpt lat="47.79776" lon="-3.52481">
        <ele>5.54</ele>
        <time>2020-07-10T09:05:23Z</time>
      </trkpt>
      <trkpt lat="47.79778" lon="-3.52475">
        <ele>5.33</ele>
        <time>2020-07-10T09:05:24Z</time>
      </trkpt>
      <trkpt lat="47.79779" lon="-3.5247">
        <ele>5.25</ele>
        <time>2020-07-10T09:05:25Z</time>
      </trkpt>
      <trkpt lat="47.7978" lon="-3.52465">
        <ele>5.28</ele>
        <time>2020-07-10T09:05:26Z</time>
      </trkpt>
      <trkpt lat="47.79781" lon="-3.52461">
        <ele>5.42</ele>
        <time>2020-07-10T09:05:27Z</time>
      </trkpt>
      <trkpt lat="47.79782" lon="-3.52456">
        <ele>5.54</ele>
        <time>2020-07-10T09:05:28Z</time>
      </trkpt>
      <trkpt lat="47.79784" lon="-3.52452">
        <ele>5.82</ele>
        <time>2020-07-10T09:05:29Z</time>
      </trkpt>
      <trkpt lat="47.79785" lon="-3.52448">
        <ele>6.03</ele>
        <time>2020-07-10T09:05:30Z</time>
      </trkpt>
      <trkpt lat="47.79787" lon="-3.52444">
        <ele>6.22</ele>
        <time>2020-07-10T09:05:31Z</time>
      </trkpt>
      <trkpt lat="47.79788" lon="-3.5244">
        <ele>6.43</ele>
        <time>2020-07-10T09:05:32Z</time>
      </trkpt>
      <trkpt lat="47.79789" lon="-3.52436">
        <ele>6.69</ele>
        <time>2020-07-10T09:05:33Z</time>
      </trkpt>
      <trkpt lat="47.79791" lon="-3.52432">
        <ele>7</ele>
        <time>2020-07-10T09:05:34Z</time>
      </trkpt>
      <trkpt lat="47.79792" lon="-3.52429">
        <ele>7.43</ele>
        <time>2020-07-10T09:05:35Z</time>
      </trkpt>
      <trkpt lat="47.79794" lon="-3.52426">
        <ele>7.86</ele>
        <time>2020-07-10T09:05:36Z</time>
      </trkpt>
      <trkpt lat="47.79795" lon="-3.52422">
        <ele>8.19</ele>
        <time>2020-07-10T09:05:37Z</time>
      </trkpt>
      <trkpt lat="47.79796" lon="-3.52418">
        <ele>8.57</ele>
        <time>2020-07-10T09:05:38Z</time>
      </trkpt>
      <trkpt lat="47.79798" lon="-3.52413">
        <ele>8.96</ele>
        <time>2020-07-10T09:05:39Z</time>
      </trkpt>
      <trkpt lat="47.79799" lon="-3.52409">
        <ele>9.3</ele>
        <time>2020-07-10T09:05:40Z</time>
      </trkpt>
      <trkpt lat="47.79799" lon="-3.52404">
        <ele>9.46</ele>
        <time>2020-07-10T09:05:41Z</time>
      </trkpt>
      <trkpt lat="47.79799" lon="-3.52398">
        <ele>9.48</ele>
        <time>2020-07-10T09:05:42Z</time>
      </trkpt>
      <trkpt lat="47.79799" lon="-3.52393">
        <ele>9.5</ele>
        <time>2020-07-10T09:05:43Z</time>
      </trkpt>
      <trkpt lat="47.798" lon="-3.52389">
        <ele>9.62</ele>
        <time>2020-07-10T09:05:44Z</time>
      </trkpt>
      <trkpt lat="47.798" lon="-3.52386">
        <ele>9.71</ele>
        <time>2020-07-10T09:05:45Z</time>
      </trkpt>
      <trkpt lat="47.79801" lon="-3.52383">
        <ele>9.95</ele>
        <time>2020-07-10T09:05:46Z</time>
      </trkpt>
      <trkpt lat="47.79802" lon="-3.52381">
        <ele>10.29</ele>
        <time>2020-07-10T09:05:47Z</time>
      </trkpt>
      <trkpt lat="47.79804" lon="-3.52378">
        <ele>10.63</ele>
        <time>2020-07-10T09:05:48Z</time>
      </trkpt>
      <trkpt lat="47.79805" lon="-3.52374">
        <ele>11.01</ele>
        <time>2020-07-10T09:05:49Z</time>
      </trkpt>
      <trkpt lat="47.79807" lon="-3.5237">
        <ele>11.35</ele>
        <time>2020-07-10T09:05:50Z</time>
      </trkpt>
      <trkpt lat="47.79808" lon="-3.52366">
        <ele>11.57</ele>
        <time>2020-07-10T09:05:51Z</time>
      </trkpt>
      <trkpt lat="47.7981" lon="-3.52361">
        <ele>11.78</ele>
        <time>2020-07-10T09:05:52Z</time>
      </trkpt>
      <trkpt lat="47.79813" lon="-3.52357">
        <ele>11.91</ele>
        <time>2020-07-10T09:05:53Z</time>
      </trkpt>
      <trkpt lat="47.79814" lon="-3.52352">
        <ele>12.02</ele>
        <time>2020-07-10T09:05:54Z</time>
      </trkpt>
      <trkpt lat="47.79817" lon="-3.52347">
        <ele>12.15</ele>
        <time>2020-07-10T09:05:55Z</time>
      </trkpt>
      <trkpt lat="47.7982" lon="-3.52343">
        <ele>12.44</ele>
        <time>2020-07-10T09:05:56Z</time>
      </trkpt>
      <trkpt lat="47.79822" lon="-3.52339">
        <ele>12.76</ele>
        <time>2020-07-10T09:05:57Z</time>
      </trkpt>
      <trkpt lat="47.79825" lon="-3.52335">
        <ele>13.15</ele>
        <time>2020-07-10T09:05:58Z</time>
      </trkpt>
      <trkpt lat="47.79828" lon="-3.52331">
        <ele>13.47</ele>
        <time>2020-07-10T09:05:59Z</time>
      </trkpt>
      <trkpt lat="47.7983" lon="-3.52328">
        <ele>13.79</ele>
        <time>2020-07-10T09:06:00Z</time>
      </trkpt>
      <trkpt lat="47.79833" lon="-3.52325">
        <ele>14.18</ele>
        <time>2020-07-10T09:06:01Z</time>
      </trkpt>
      <trkpt lat="47.79836" lon="-3.52323">
        <ele>14.38</ele>
        <time>2020-07-10T09:06:02Z</time>
      </trkpt>
      <trkpt lat="47.79838" lon="-3.5232">
        <ele>14.45</ele>
        <time>2020-07-10T09:06:03Z</time>
      </trkpt>
      <trkpt lat="47.79841" lon="-3.52316">
        <ele>14.41</ele>
        <time>2020-07-10T09:06:04Z</time>
      </trkpt>
      <trkpt lat="47.79843" lon="-3.52312">
        <ele>14.25</ele>
        <time>2020-07-10T09:06:05Z</time>
      </trkpt>
      <trkpt lat="47.79843" lon="-3.52306">
        <ele>13.85</ele>
        <time>2020-07-10T09:06:06Z</time>
      </trkpt>
      <trkpt lat="47.79841" lon="-3.52302">
        <ele>13.26</ele>
        <time>2020-07-10T09:06:07Z</time>
      </trkpt>
      <trkpt lat="47.79839" lon="-3.52301">
        <ele>12.79</ele>
        <time>2020-07-10T09:06:08Z</time>
      </trkpt>
      <trkpt lat="47.79836" lon="-3.52301">
        <ele>12.44</ele>
        <time>2020-07-10T09:06:09Z</time>
      </trkpt>
      <trkpt lat="47.79832" lon="-3.52301">
        <ele>11.97</ele>
        <time>2020-07-10T09:06:10Z</time>
      </trkpt>
      <trkpt lat="47.79828" lon="-3.52302">
        <ele>11.13</ele>
        <time>2020-07-10T09:06:11Z</time>
      </trkpt>
      <trkpt lat="47.79824" lon="-3.52303">
        <ele>10.15</ele>
        <time>2020-07-10T09:06:12Z</time>
      </trkpt>
      <trkpt lat="47.7982" lon="-3.52304">
        <ele>9.15</ele>
        <time>2020-07-10T09:06:13Z</time>
      </trkpt>
      <trkpt lat="47.79816" lon="-3.52304">
        <ele>8.12</ele>
        <time>2020-07-10T09:06:14Z</time>
      </trkpt>
      <trkpt lat="47.79812" lon="-3.52305">
        <ele>7.11</ele>
        <time>2020-07-10T09:06:15Z</time>
      </trkpt>
      <trkpt lat="47.79808" lon="-3.52306">
        <ele>6.13</ele>
        <time>2020-07-10T09:06:16Z</time>
      </trkpt>
      <trkpt lat="47.79804" lon="-3.52308">
        <ele>5.34</ele>
        <time>2020-07-10T09:06:17Z</time>
      </trkpt>
      <trkpt lat="47.798" lon="-3.52309">
        <ele>4.74</ele>
        <time>2020-07-10T09:06:18Z</time>
      </trkpt>
      <trkpt lat="47.79795" lon="-3.52311">
        <ele>4.18</ele>
        <time>2020-07-10T09:06:19Z</time>
      </trkpt>
      <trkpt lat="47.79791" lon="-3.52312">
        <ele>3.69</ele>
        <time>2020-07-10T09:06:20Z</time>
      </trkpt>
      <trkpt lat="47.79787" lon="-3.52314">
        <ele>3.24</ele>
        <time>2020-07-10T09:06:21Z</time>
      </trkpt>
      <trkpt lat="47.79782" lon="-3.52316">
        <ele>2.8</ele>
        <time>2020-07-10T09:06:22Z</time>
      </trkpt>
      <trkpt lat="47.79778" lon="-3.52317">
        <ele>2.35</ele>
        <time>2020-07-10T09:06:23Z</time>
      </trkpt>
      <trkpt lat="47.79775" lon="-3.52318">
        <ele>2.32</ele>
        <time>2020-07-10T09:06:24Z</time>
      </trkpt>
      <trkpt lat="47.79772" lon="-3.5232">
        <ele>2.55</ele>
        <time>2020-07-10T09:06:25Z</time>
      </trkpt>
      <trkpt lat="47.79768" lon="-3.52321">
        <ele>2.83</ele>
        <time>2020-07-10T09:06:26Z</time>
      </trkpt>
      <trkpt lat="47.79764" lon="-3.52322">
        <ele>3.15</ele>
        <time>2020-07-10T09:06:27Z</time>
      </trkpt>
      <trkpt lat="47.7976" lon="-3.52324">
        <ele>3.55</ele>
        <time>2020-07-10T09:06:28Z</time>
      </trkpt>
      <trkpt lat="47.79756" lon="-3.52325">
        <ele>3.97</ele>
        <time>2020-07-10T09:06:29Z</time>
      </trkpt>
      <trkpt lat="47.79752" lon="-3.52327">
        <ele>4.46</ele>
        <time>2020-07-10T09:06:30Z</time>
      </trkpt>
      <trkpt lat="47.79747" lon="-3.52329">
        <ele>4.71</ele>
        <time>2020-07-10T09:06:31Z</time>
      </trkpt>
      <trkpt lat="47.79743" lon="-3.52331">
        <ele>4.87</ele>
        <time>2020-07-10T09:06:32Z</time>
      </trkpt>
      <trkpt lat="47.79739" lon="-3.52332">
        <ele>4.92</ele>
        <time>2020-07-10T09:06:33Z</time>
      </trkpt>
      <trkpt lat="47.79734" lon="-3.52334">
        <ele>4.88</ele>
        <time>2020-07-10T09:06:34Z</time>
      </trkpt>
      <trkpt lat="47.7973" lon="-3.52335">
        <ele>4.63</ele>
        <time>2020-07-10T09:06:35Z</time>
      </trkpt>
      <trkpt lat="47.79726" lon="-3.52336">
        <ele>4.38</ele>
        <time>2020-07-10T09:06:36Z</time>
      </trkpt>
      <trkpt lat="47.79721" lon="-3.52338">
        <ele>4.21</ele>
        <time>2020-07-10T09:06:37Z</time>
      </trkpt>
      <trkpt lat="47.79716" lon="-3.5234">
        <ele>4.11</ele>
        <time>2020-07-10T09:06:38Z</time>
      </trkpt>
      <trkpt lat="47.79712" lon="-3.52342">
        <ele>4.06</ele>
        <time>2020-07-10T09:06:39Z</time>
      </trkpt>
      <trkpt lat="47.79707" lon="-3.52344">
        <ele>4.04</ele>
        <time>2020-07-10T09:06:40Z</time>
      </trkpt>
      <trkpt lat="47.79703" lon="-3.52346">
        <ele>4.05</ele>
        <time>2020-07-10T09:06:41Z</time>
      </trkpt>
      <trkpt lat="47.79698" lon="-3.52347">
        <ele>4.07</ele>
        <time>2020-07-10T09:06:42Z</time>
      </trkpt>
      <trkpt lat="47.79693" lon="-3.52349">
        <ele>4.02</ele>
        <time>2020-07-10T09:06:43Z</time>
      </trkpt>
      <trkpt lat="47.79688" lon="-3.52351">
        <ele>3.79</ele>
        <time>2020-07-10T09:06:44Z</time>
      </trkpt>
      <trkpt lat="47.79683" lon="-3.52353">
        <ele>3.54</ele>
        <time>2020-07-10T09:06:45Z</time>
      </trkpt>
      <trkpt lat="47.79678" lon="-3.52354">
        <ele>3.28</ele>
        <time>2020-07-10T09:06:46Z</time>
      </trkpt>
      <trkpt lat="47.79673" lon="-3.52356">
        <ele>3.05</ele>
        <time>2020-07-10T09:06:47Z</time>
      </trkpt>
      <trkpt lat="47.79667" lon="-3.52358">
        <ele>2.85</ele>
        <time>2020-07-10T09:06:48Z</time>
      </trkpt>
      <trkpt lat="47.79663" lon="-3.5236">
        <ele>3.3</ele>
        <time>2020-07-10T09:06:49Z</time>
      </trkpt>
      <trkpt lat="47.79658" lon="-3.52362">
        <ele>4</ele>
        <time>2020-07-10T09:06:50Z</time>
      </trkpt>
      <trkpt lat="47.79653" lon="-3.52363">
        <ele>4.76</ele>
        <time>2020-07-10T09:06:51Z</time>
      </trkpt>
      <trkpt lat="47.79649" lon="-3.52365">
        <ele>5.58</ele>
        <time>2020-07-10T09:06:52Z</time>
      </trkpt>
      <trkpt lat="47.79644" lon="-3.52367">
        <ele>6.49</ele>
        <time>2020-07-10T09:06:53Z</time>
      </trkpt>
      <trkpt lat="47.7964" lon="-3.52368">
        <ele>7.5</ele>
        <time>2020-07-10T09:06:54Z</time>
      </trkpt>
      <trkpt lat="47.79635" lon="-3.5237">
        <ele>8.85</ele>
        <time>2020-07-10T09:06:55Z</time>
      </trkpt>
      <trkpt lat="47.7963" lon="-3.52372">
        <ele>10.27</ele>
        <time>2020-07-10T09:06:56Z</time>
      </trkpt>
      <trkpt lat="47.79625" lon="-3.52374">
        <ele>11.62</ele>
        <time>2020-07-10T09:06:57Z</time>
      </trkpt>
      <trkpt lat="47.7962" lon="-3.52376">
        <ele>12.9</ele>
        <time>2020-07-10T09:06:58Z</time>
      </trkpt>
      <trkpt lat="47.79615" lon="-3.52378">
        <ele>14.08</ele>
        <time>2020-07-10T09:06:59Z</time>
      </trkpt>
      <trkpt lat="47.7961" lon="-3.5238">
        <ele>15.09</ele>
        <time>2020-07-10T09:07:00Z</time>
      </trkpt>
      <trkpt lat="47.79605" lon="-3.52382">
        <ele>15.84</ele>
        <time>2020-07-10T09:07:01Z</time>
      </trkpt>
      <trkpt lat="47.796" lon="-3.52384">
        <ele>16.42</ele>
        <time>2020-07-10T09:07:02Z</time>
      </trkpt>
      <trkpt lat="47.79595" lon="-3.52386">
        <ele>16.91</ele>
        <time>2020-07-10T09:07:03Z</time>
      </trkpt>
      <trkpt lat="47.79591" lon="-3.52387">
        <ele>17.29</ele>
        <time>2020-07-10T09:07:04Z</time>
      </trkpt>
      <trkpt lat="47.79586" lon="-3.52389">
        <ele>17.58</ele>
        <time>2020-07-10T09:07:05Z</time>
      </trkpt>
      <trkpt lat="47.79581" lon="-3.52391">
        <ele>17.96</ele>
        <time>2020-07-10T09:07:06Z</time>
      </trkpt>
      <trkpt lat="47.79578" lon="-3.52393">
        <ele>18.28</ele>
        <time>2020-07-10T09:07:07Z</time>
      </trkpt>
      <trkpt lat="47.79574" lon="-3.52395">
        <ele>18.55</ele>
        <time>2020-07-10T09:07:08Z</time>
      </trkpt>
      <trkpt lat="47.79571" lon="-3.52397">
        <ele>18.67</ele>
        <time>2020-07-10T09:07:09Z</time>
      </trkpt>
      <trkpt lat="47.7957" lon="-3.52399">
        <ele>18.71</ele>
        <time>2020-07-10T09:07:10Z</time>
      </trkpt>
      <trkpt lat="47.79569" lon="-3.52399">
        <ele>18.73</ele>
        <time>2020-07-10T09:07:11Z</time>
      </trkpt>
      <trkpt lat="47.79569" lon="-3.52399">
        <ele>18.72</ele>
        <time>2020-07-10T09:07:12Z</time>
      </trkpt>
      <trkpt lat="47.79569" lon="-3.524">
        <ele>18.7</ele>
        <time>2020-07-10T09:07:13Z</time>
      </trkpt>
      <trkpt lat="47.79569" lon="-3.524">
        <ele>18.69</ele>
        <time>2020-07-10T09:07:14Z</time>
      </trkpt>
      <trkpt lat="47.79569" lon="-3.524">
        <ele>18.69</ele>
        <time>2020-07-10T09:07:15Z</time>
      </trkpt>
      <trkpt lat="47.79569" lon="-3.524">
        <ele>18.69</ele>
        <time>2020-07-10T09:07:16Z</time>
      </trkpt>
      <trkpt lat="47.79569" lon="-3.524">
        <ele>18.69</ele>
        <time>2020-07-10T09:07:17Z</time>
      </trkpt>
      <trkpt lat="47.79569" lon="-3.524">
        <ele>18.69</ele>
        <time>2020-07-10T09:07:18Z</time>
      </trkpt>
      <trkpt lat="47.79569" lon="-3.524">
        <ele>18.69</ele>
        <time>2020-07-10T09:07:19Z</time>
      </trkpt>
      <trkpt lat="47.79569" lon="-3.524">
        <ele>18.69</ele>
        <time>2020-07-10T09:07:20Z</time>
      </trkpt>
      <trkpt lat="47.79569" lon="-3.524">
        <ele>18.69</ele>
        <time>2020-07-10T09:07:21Z</time>
      </trkpt>
      <trkpt lat="47.79569" lon="-3.524">
        <ele>18.69</ele>
        <time>2020-07-10T09:07:22Z</time>
      </trkpt>
      <trkpt lat="47.79569" lon="-3.524">
        <ele>18.69</ele>
        <time>2020-07-10T09:07:23Z</time>
      </trkpt>
      <trkpt lat="47.79569" lon="-3.524">
        <ele>18.69</ele>
        <time>2020-07-10T09:07:24Z</time>
      </trkpt>
      <trkpt lat="47.79569" lon="-3.524">
        <ele>18.69</ele>
        <time>2020-07-10T09:07:25Z</time>
      </trkpt>
      <trkpt lat="47.79569" lon="-3.524">
        <ele>18.69</ele>
        <time>2020-07-10T09:07:26Z</time>
      </trkpt>
      <trkpt lat="47.79569" lon="-3.524">
        <ele>18.69</ele>
        <time>2020-07-10T09:07:27Z</time>
      </trkpt>
      <trkpt lat="47.79569" lon="-3.524">
        <ele>18.69</ele>
        <time>2020-07-10T09:07:28Z</time>
      </trkpt>
      <trkpt lat="47.79569" lon="-3.524">
        <ele>18.69</ele>
        <time>2020-07-10T09:07:29Z</time>
      </trkpt>
      <trkpt lat="47.79569" lon="-3.524">
        <ele>18.69</ele>
        <time>2020-07-10T09:07:30Z</time>
      </trkpt>
      <trkpt lat="47.79569" lon="-3.524">
        <ele>18.69</ele>
        <time>2020-07-10T09:07:31Z</time>
      </trkpt>
      <trkpt lat="47.79569" lon="-3.524">
        <ele>18.69</ele>
        <time>2020-07-10T09:07:32Z</time>
      </trkpt>
      <trkpt lat="47.79569" lon="-3.524">
        <ele>18.69</ele>
        <time>2020-07-10T09:07:33Z</time>
      </trkpt>
      <trkpt lat="47.79569" lon="-3.524">
        <ele>18.69</ele>
        <time>2020-07-10T09:07:34Z</time>
      </trkpt>
      <trkpt lat="47.79569" lon="-3.524">
        <ele>18.69</ele>
        <time>2020-07-10T09:07:35Z</time>
      </trkpt>
      <trkpt lat="47.79569" lon="-3.524">
        <ele>18.69</ele>
        <time>2020-07-10T09:07:36Z</time>
      </trkpt>
      <trkpt lat="47.79569" lon="-3.524">
        <ele>18.69</ele>
        <time>2020-07-10T09:07:37Z</time>
      </trkpt>
      <trkpt lat="47.79569" lon="-3.524">
        <ele>18.69</ele>
        <time>2020-07-10T09:07:38Z</time>
      </trkpt>
      <trkpt lat="47.79569" lon="-3.524">
        <ele>18.69</ele>
        <time>2020-07-10T09:07:39Z</time>
      </trkpt>
      <trkpt lat="47.79569" lon="-3.524">
        <ele>18.69</ele>
        <time>2020-07-10T09:07:40Z</time>
      </trkpt>
      <trkpt lat="47.79569" lon="-3.524">
        <ele>18.69</ele>
        <time>2020-07-10T09:07:41Z</time>
      </trkpt>
      <trkpt lat="47.79569" lon="-3.524">
        <ele>18.69</ele>
        <time>2020-07-10T09:07:42Z</time>
      </trkpt>
      <trkpt lat="47.79569" lon="-3.524">
        <ele>18.69</ele>
        <time>2020-07-10T09:07:43Z</time>
      </trkpt>
      <trkpt lat="47.79569" lon="-3.524">
        <ele>18.69</ele>
        <time>2020-07-10T09:07:44Z</time>
      </trkpt>
      <trkpt lat="47.79569" lon="-3.524">
        <ele>18.69</ele>
        <time>2020-07-10T09:07:45Z</time>
      </trkpt>
      <trkpt lat="47.79567" lon="-3.52402">
        <ele>18.59</ele>
        <time>2020-07-10T09:07:46Z</time>
      </trkpt>
      <trkpt lat="47.79566" lon="-3.52402">
        <ele>18.62</ele>
        <time>2020-07-10T09:07:47Z</time>
      </trkpt>
      <trkpt lat="47.79564" lon="-3.52402">
        <ele>18.78</ele>
        <time>2020-07-10T09:07:48Z</time>
      </trkpt>
      <trkpt lat="47.79562" lon="-3.52402">
        <ele>18.98</ele>
        <time>2020-07-10T09:07:49Z</time>
      </trkpt>
      <trkpt lat="47.7956" lon="-3.52402">
        <ele>19.19</ele>
        <time>2020-07-10T09:07:50Z</time>
      </trkpt>
      <trkpt lat="47.79557" lon="-3.52402">
        <ele>19.37</ele>
        <time>2020-07-10T09:07:51Z</time>
      </trkpt>
      <trkpt lat="47.79555" lon="-3.52403">
        <ele>19.56</ele>
        <time>2020-07-10T09:07:52Z</time>
      </trkpt>
      <trkpt lat="47.79552" lon="-3.52403">
        <ele>19.72</ele>
        <time>2020-07-10T09:07:53Z</time>
      </trkpt>
      <trkpt lat="47.79549" lon="-3.52404">
        <ele>19.79</ele>
        <time>2020-07-10T09:07:54Z</time>
      </trkpt>
      <trkpt lat="47.79546" lon="-3.52406">
        <ele>19.86</ele>
        <time>2020-07-10T09:07:55Z</time>
      </trkpt>
      <trkpt lat="47.79543" lon="-3.52407">
        <ele>19.98</ele>
        <time>2020-07-10T09:07:56Z</time>
      </trkpt>
      <trkpt lat="47.79539" lon="-3.52407">
        <ele>20.13</ele>
        <time>2020-07-10T09:07:57Z</time>
      </trkpt>
      <trkpt lat="47.79536" lon="-3.52408">
        <ele>20.31</ele>
        <time>2020-07-10T09:07:58Z</time>
      </trkpt>
      <trkpt lat="47.79533" lon="-3.52409">
        <ele>20.48</ele>
        <time>2020-07-10T09:07:59Z</time>
      </trkpt>
      <trkpt lat="47.7953" lon="-3.5241">
        <ele>20.64</ele>
        <time>2020-07-10T09:08:00Z</time>
      </trkpt>
      <trkpt lat="47.79526" lon="-3.52412">
        <ele>20.84</ele>
        <time>2020-07-10T09:08:01Z</time>
      </trkpt>
      <trkpt lat="47.79523" lon="-3.52413">
        <ele>21.15</ele>
        <time>2020-07-10T09:08:02Z</time>
      </trkpt>
      <trkpt lat="47.79519" lon="-3.52414">
        <ele>21.5</ele>
        <time>2020-07-10T09:08:03Z</time>
      </trkpt>
      <trkpt lat="47.79515" lon="-3.52415">
        <ele>21.86</ele>
        <time>2020-07-10T09:08:04Z</time>
      </trkpt>
      <trkpt lat="47.79512" lon="-3.52417">
        <ele>22.16</ele>
        <time>2020-07-10T09:08:05Z</time>
      </trkpt>
      <trkpt lat="47.79509" lon="-3.52419">
        <ele>22.48</ele>
        <time>2020-07-10T09:08:06Z</time>
      </trkpt>
      <trkpt lat="47.79505" lon="-3.5242">
        <ele>22.82</ele>
        <time>2020-07-10T09:08:07Z</time>
      </trkpt>
      <trkpt lat="47.79502" lon="-3.52422">
        <ele>23.13</ele>
        <time>2020-07-10T09:08:08Z</time>
      </trkpt>
      <trkpt lat="47.79498" lon="-3.52423">
        <ele>23.34</ele>
        <time>2020-07-10T09:08:09Z</time>
      </trkpt>
      <trkpt lat="47.79495" lon="-3.52425">
        <ele>23.46</ele>
        <time>2020-07-10T09:08:10Z</time>
      </trkpt>
      <trkpt lat="47.79491" lon="-3.52426">
        <ele>23.58</ele>
        <time>2020-07-10T09:08:11Z</time>
      </trkpt>
      <trkpt lat="47.79488" lon="-3.52426">
        <ele>23.74</ele>
        <time>2020-07-10T09:08:12Z</time>
      </trkpt>
      <trkpt lat="47.79485" lon="-3.52427">
        <ele>23.92</ele>
        <time>2020-07-10T09:08:13Z</time>
      </trkpt>
      <trkpt lat="47.79481" lon="-3.52428">
        <ele>24.1</ele>
        <time>2020-07-10T09:08:14Z</time>
      </trkpt>
      <trkpt lat="47.79477" lon="-3.52428">
        <ele>24.3</ele>
        <time>2020-07-10T09:08:15Z</time>
      </trkpt>
      <trkpt lat="47.79473" lon="-3.52429">
        <ele>24.55</ele>
        <time>2020-07-10T09:08:16Z</time>
      </trkpt>
      <trkpt lat="47.7947" lon="-3.52429">
        <ele>24.79</ele>
        <time>2020-07-10T09:08:17Z</time>
      </trkpt>
      <trkpt lat="47.79466" lon="-3.5243">
        <ele>25.02</ele>
        <time>2020-07-10T09:08:18Z</time>
      </trkpt>
      <trkpt lat="47.79463" lon="-3.5243">
        <ele>25.28</ele>
        <time>2020-07-10T09:08:19Z</time>
      </trkpt>
      <trkpt lat="47.7946" lon="-3.5243">
        <ele>25.53</ele>
        <time>2020-07-10T09:08:20Z</time>
      </trkpt>
      <trkpt lat="47.79457" lon="-3.5243">
        <ele>25.78</ele>
        <time>2020-07-10T09:08:21Z</time>
      </trkpt>
      <trkpt lat="47.79454" lon="-3.52431">
        <ele>26.02</ele>
        <time>2020-07-10T09:08:22Z</time>
      </trkpt>
      <trkpt lat="47.79451" lon="-3.52432">
        <ele>26.23</ele>
        <time>2020-07-10T09:08:23Z</time>
      </trkpt>
      <trkpt lat="47.79448" lon="-3.52432">
        <ele>26.46</ele>
        <time>2020-07-10T09:08:24Z</time>
      </trkpt>
      <trkpt lat="47.79445" lon="-3.52433">
        <ele>26.72</ele>
        <time>2020-07-10T09:08:25Z</time>
      </trkpt>
      <trkpt lat="47.79441" lon="-3.52433">
        <ele>26.99</ele>
        <time>2020-07-10T09:08:26Z</time>
      </trkpt>
      <trkpt lat="47.79438" lon="-3.52432">
        <ele>27.31</ele>
        <time>2020-07-10T09:08:27Z</time>
      </trkpt>
      <trkpt lat="47.79434" lon="-3.52432">
        <ele>27.66</ele>
        <time>2020-07-10T09:08:28Z</time>
      </trkpt>
      <trkpt lat="47.79431" lon="-3.52431">
        <ele>27.99</ele>
        <time>2020-07-10T09:08:29Z</time>
      </trkpt>
      <trkpt lat="47.79427" lon="-3.52432">
        <ele>28.3</ele>
        <time>2020-07-10T09:08:30Z</time>
      </trkpt>
      <trkpt lat="47.79424" lon="-3.52432">
        <ele>28.62</ele>
        <time>2020-07-10T09:08:31Z</time>
      </trkpt>
      <trkpt lat="47.7942" lon="-3.52432">
        <ele>28.94</ele>
        <time>2020-07-10T09:08:32Z</time>
      </trkpt>
      <trkpt lat="47.79416" lon="-3.52432">
        <ele>29.27</ele>
        <time>2020-07-10T09:08:33Z</time>
      </trkpt>
      <trkpt lat="47.79413" lon="-3.52431">
        <ele>29.48</ele>
        <time>2020-07-10T09:08:34Z</time>
      </trkpt>
      <trkpt lat="47.79408" lon="-3.52431">
        <ele>29.69</ele>
        <time>2020-07-10T09:08:35Z</time>
      </trkpt>
      <trkpt lat="47.79404" lon="-3.5243">
        <ele>29.95</ele>
        <time>2020-07-10T09:08:36Z</time>
      </trkpt>
      <trkpt lat="47.79399" lon="-3.52429">
        <ele>30.18</ele>
        <time>2020-07-10T09:08:37Z</time>
      </trkpt>
      <trkpt lat="47.79395" lon="-3.52429">
        <ele>30.41</ele>
        <time>2020-07-10T09:08:38Z</time>
      </trkpt>
      <trkpt lat="47.7939" lon="-3.52428">
        <ele>30.64</ele>
        <time>2020-07-10T09:08:39Z</time>
      </trkpt>
      <trkpt lat="47.79385" lon="-3.52427">
        <ele>31.04</ele>
        <time>2020-07-10T09:08:40Z</time>
      </trkpt>
      <trkpt lat="47.79381" lon="-3.52426">
        <ele>31.45</ele>
        <time>2020-07-10T09:08:41Z</time>
      </trkpt>
      <trkpt lat="47.79377" lon="-3.52426">
        <ele>31.86</ele>
        <time>2020-07-10T09:08:42Z</time>
      </trkpt>
      <trkpt lat="47.79372" lon="-3.52425">
        <ele>32.31</ele>
        <time>2020-07-10T09:08:43Z</time>
      </trkpt>
      <trkpt lat="47.79367" lon="-3.52424">
        <ele>32.87</ele>
        <time>2020-07-10T09:08:44Z</time>
      </trkpt>
      <trkpt lat="47.79363" lon="-3.52423">
        <ele>33.46</ele>
        <time>2020-07-10T09:08:45Z</time>
      </trkpt>
      <trkpt lat="47.79359" lon="-3.52421">
        <ele>33.84</ele>
        <time>2020-07-10T09:08:46Z</time>
      </trkpt>
      <trkpt lat="47.79355" lon="-3.5242">
        <ele>33.84</ele>
        <time>2020-07-10T09:08:47Z</time>
      </trkpt>
      <trkpt lat="47.79351" lon="-3.52418">
        <ele>33.72</ele>
        <time>2020-07-10T09:08:48Z</time>
      </trkpt>
      <trkpt lat="47.79347" lon="-3.52416">
        <ele>33.53</ele>
        <time>2020-07-10T09:08:49Z</time>
      </trkpt>
      <trkpt lat="47.79343" lon="-3.52415">
        <ele>33.52</ele>
        <time>2020-07-10T09:08:50Z</time>
      </trkpt>
      <trkpt lat="47.79339" lon="-3.52413">
        <ele>33.51</ele>
        <time>2020-07-10T09:08:51Z</time>
      </trkpt>
      <trkpt lat="47.79335" lon="-3.52411">
        <ele>33.49</ele>
        <time>2020-07-10T09:08:52Z</time>
      </trkpt>
      <trkpt lat="47.79331" lon="-3.52409">
        <ele>33.7</ele>
        <time>2020-07-10T09:08:53Z</time>
      </trkpt>
      <trkpt lat="47.79328" lon="-3.52407">
        <ele>34.13</ele>
        <time>2020-07-10T09:08:54Z</time>
      </trkpt>
      <trkpt lat="47.79324" lon="-3.52405">
        <ele>34.5</ele>
        <time>2020-07-10T09:08:55Z</time>
      </trkpt>
      <trkpt lat="47.79319" lon="-3.52402">
        <ele>34.71</ele>
        <time>2020-07-10T09:08:56Z</time>
      </trkpt>
      <trkpt lat="47.79315" lon="-3.524">
        <ele>34.83</ele>
        <time>2020-07-10T09:08:57Z</time>
      </trkpt>
      <trkpt lat="47.7931" lon="-3.52397">
        <ele>34.85</ele>
        <time>2020-07-10T09:08:58Z</time>
      </trkpt>
      <trkpt lat="47.79306" lon="-3.52394">
        <ele>34.74</ele>
        <time>2020-07-10T09:08:59Z</time>
      </trkpt>
      <trkpt lat="47.79302" lon="-3.5239">
        <ele>34.76</ele>
        <time>2020-07-10T09:09:00Z</time>
      </trkpt>
      <trkpt lat="47.79299" lon="-3.52387">
        <ele>34.89</ele>
        <time>2020-07-10T09:09:01Z</time>
      </trkpt>
      <trkpt lat="47.79294" lon="-3.52383">
        <ele>34.99</ele>
        <time>2020-07-10T09:09:02Z</time>
      </trkpt>
      <trkpt lat="47.79289" lon="-3.52381">
        <ele>34.97</ele>
        <time>2020-07-10T09:09:03Z</time>
      </trkpt>
      <trkpt lat="47.79285" lon="-3.52378">
        <ele>34.91</ele>
        <time>2020-07-10T09:09:04Z</time>
      </trkpt>
      <trkpt lat="47.79282" lon="-3.52374">
        <ele>34.85</ele>
        <time>2020-07-10T09:09:05Z</time>
      </trkpt>
      <trkpt lat="47.79278" lon="-3.52369">
        <ele>34.76</ele>
        <time>2020-07-10T09:09:06Z</time>
      </trkpt>
      <trkpt lat="47.79273" lon="-3.52365">
        <ele>34.71</ele>
        <time>2020-07-10T09:09:07Z</time>
      </trkpt>
      <trkpt lat="47.79269" lon="-3.52361">
        <ele>34.69</ele>
        <time>2020-07-10T09:09:08Z</time>
      </trkpt>
      <trkpt lat="47.79265" lon="-3.52357">
        <ele>34.71</ele>
        <time>2020-07-10T09:09:09Z</time>
      </trkpt>
      <trkpt lat="47.79262" lon="-3.52351">
        <ele>34.72</ele>
        <time>2020-07-10T09:09:10Z</time>
      </trkpt>
      <trkpt lat="47.79259" lon="-3.52345">
        <ele>34.72</ele>
        <time>2020-07-10T09:09:11Z</time>
      </trkpt>
      <trkpt lat="47.79257" lon="-3.5234">
        <ele>34.64</ele>
        <time>2020-07-10T09:09:12Z</time>
      </trkpt>
      <trkpt lat="47.79253" lon="-3.52334">
        <ele>34.45</ele>
        <time>2020-07-10T09:09:13Z</time>
      </trkpt>
      <trkpt lat="47.79251" lon="-3.52329">
        <ele>34.3</ele>
        <time>2020-07-10T09:09:14Z</time>
      </trkpt>
      <trkpt lat="47.79248" lon="-3.52323">
        <ele>34.27</ele>
        <time>2020-07-10T09:09:15Z</time>
      </trkpt>
      <trkpt lat="47.79244" lon="-3.52317">
        <ele>34.25</ele>
        <time>2020-07-10T09:09:16Z</time>
      </trkpt>
      <trkpt lat="47.79241" lon="-3.52311">
        <ele>34.23</ele>
        <time>2020-07-10T09:09:17Z</time>
      </trkpt>
      <trkpt lat="47.79237" lon="-3.52305">
        <ele>34.15</ele>
        <time>2020-07-10T09:09:18Z</time>
      </trkpt>
      <trkpt lat="47.79234" lon="-3.52298">
        <ele>34.03</ele>
        <time>2020-07-10T09:09:19Z</time>
      </trkpt>
      <trkpt lat="47.79231" lon="-3.5229">
        <ele>33.87</ele>
        <time>2020-07-10T09:09:20Z</time>
      </trkpt>
      <trkpt lat="47.79228" lon="-3.52282">
        <ele>33.68</ele>
        <time>2020-07-10T09:09:21Z</time>
      </trkpt>
      <trkpt lat="47.79225" lon="-3.52274">
        <ele>33.51</ele>
        <time>2020-07-10T09:09:22Z</time>
      </trkpt>
      <trkpt lat="47.79223" lon="-3.52266">
        <ele>33.47</ele>
        <time>2020-07-10T09:09:23Z</time>
      </trkpt>
      <trkpt lat="47.79221" lon="-3.52258">
        <ele>33.54</ele>
        <time>2020-07-10T09:09:24Z</time>
      </trkpt>
      <trkpt lat="47.79219" lon="-3.5225">
        <ele>33.62</ele>
        <time>2020-07-10T09:09:25Z</time>
      </trkpt>
      <trkpt lat="47.79217" lon="-3.52242">
        <ele>33.56</ele>
        <time>2020-07-10T09:09:26Z</time>
      </trkpt>
      <trkpt lat="47.79216" lon="-3.52233">
        <ele>33.49</ele>
        <time>2020-07-10T09:09:27Z</time>
      </trkpt>
      <trkpt lat="47.79214" lon="-3.52225">
        <ele>33.43</ele>
        <time>2020-07-10T09:09:28Z</time>
      </trkpt>
      <trkpt lat="47.79213" lon="-3.52216">
        <ele>33.45</ele>
        <time>2020-07-10T09:09:29Z</time>
      </trkpt>
      <trkpt lat="47.79211" lon="-3.52207">
        <ele>33.5</ele>
        <time>2020-07-10T09:09:30Z</time>
      </trkpt>
      <trkpt lat="47.7921" lon="-3.52199">
        <ele>33.54</ele>
        <time>2020-07-10T09:09:31Z</time>
      </trkpt>
      <trkpt lat="47.79208" lon="-3.5219">
        <ele>33.57</ele>
        <time>2020-07-10T09:09:32Z</time>
      </trkpt>
      <trkpt lat="47.79207" lon="-3.52181">
        <ele>33.61</ele>
        <time>2020-07-10T09:09:33Z</time>
      </trkpt>
      <trkpt lat="47.79206" lon="-3.52172">
        <ele>33.7</ele>
        <time>2020-07-10T09:09:34Z</time>
      </trkpt>
      <trkpt lat="47.79206" lon="-3.52163">
        <ele>33.86</ele>
        <time>2020-07-10T09:09:35Z</time>
      </trkpt>
      <trkpt lat="47.79206" lon="-3.52155">
        <ele>34.12</ele>
        <time>2020-07-10T09:09:36Z</time>
      </trkpt>
      <trkpt lat="47.79205" lon="-3.52146">
        <ele>34.4</ele>
        <time>2020-07-10T09:09:37Z</time>
      </trkpt>
      <trkpt lat="47.79205" lon="-3.52137">
        <ele>34.65</ele>
        <time>2020-07-10T09:09:38Z</time>
      </trkpt>
      <trkpt lat="47.79205" lon="-3.52128">
        <ele>34.72</ele>
        <time>2020-07-10T09:09:39Z</time>
      </trkpt>
      <trkpt lat="47.79205" lon="-3.52119">
        <ele>34.74</ele>
        <time>2020-07-10T09:09:40Z</time>
      </trkpt>
      <trkpt lat="47.79205" lon="-3.5211">
        <ele>34.76</ele>
        <time>2020-07-10T09:09:41Z</time>
      </trkpt>
      <trkpt lat="47.79205" lon="-3.52101">
        <ele>34.92</ele>
        <time>2020-07-10T09:09:42Z</time>
      </trkpt>
      <trkpt lat="47.79205" lon="-3.52092">
        <ele>35.11</ele>
        <time>2020-07-10T09:09:43Z</time>
      </trkpt>
      <trkpt lat="47.79206" lon="-3.52083">
        <ele>35.32</ele>
        <time>2020-07-10T09:09:44Z</time>
      </trkpt>
      <trkpt lat="47.79206" lon="-3.52074">
        <ele>35.48</ele>
        <time>2020-07-10T09:09:45Z</time>
      </trkpt>
      <trkpt lat="47.79206" lon="-3.52066">
        <ele>35.63</ele>
        <time>2020-07-10T09:09:46Z</time>
      </trkpt>
      <trkpt lat="47.79207" lon="-3.52057">
        <ele>35.81</ele>
        <time>2020-07-10T09:09:47Z</time>
      </trkpt>
      <trkpt lat="47.79207" lon="-3.52048">
        <ele>35.98</ele>
        <time>2020-07-10T09:09:48Z</time>
      </trkpt>
      <trkpt lat="47.79207" lon="-3.5204">
        <ele>36.16</ele>
        <time>2020-07-10T09:09:49Z</time>
      </trkpt>
      <trkpt lat="47.79208" lon="-3.52032">
        <ele>36.34</ele>
        <time>2020-07-10T09:09:50Z</time>
      </trkpt>
      <trkpt lat="47.79208" lon="-3.52023">
        <ele>36.44</ele>
        <time>2020-07-10T09:09:51Z</time>
      </trkpt>
      <trkpt lat="47.79209" lon="-3.52015">
        <ele>36.49</ele>
        <time>2020-07-10T09:09:52Z</time>
      </trkpt>
      <trkpt lat="47.79209" lon="-3.52008">
        <ele>36.51</ele>
        <time>2020-07-10T09:09:53Z</time>
      </trkpt>
      <trkpt lat="47.79209" lon="-3.52001">
        <ele>36.52</ele>
        <time>2020-07-10T09:09:54Z</time>
      </trkpt>
      <trkpt lat="47.79209" lon="-3.51994">
        <ele>36.45</ele>
        <time>2020-07-10T09:09:55Z</time>
      </trkpt>
      <trkpt lat="47.79209" lon="-3.51989">
        <ele>36.37</ele>
        <time>2020-07-10T09:09:56Z</time>
      </trkpt>
      <trkpt lat="47.79209" lon="-3.51983">
        <ele>36.29</ele>
        <time>2020-07-10T09:09:57Z</time>
      </trkpt>
      <trkpt lat="47.79209" lon="-3.51979">
        <ele>36.21</ele>
        <time>2020-07-10T09:09:58Z</time>
      </trkpt>
      <trkpt lat="47.79209" lon="-3.51973">
        <ele>36.12</ele>
        <time>2020-07-10T09:09:59Z</time>
      </trkpt>
      <trkpt lat="47.79209" lon="-3.51968">
        <ele>36.08</ele>
        <time>2020-07-10T09:10:00Z</time>
      </trkpt>
      <trkpt lat="47.7921" lon="-3.51963">
        <ele>36.09</ele>
        <time>2020-07-10T09:10:01Z</time>
      </trkpt>
      <trkpt lat="47.7921" lon="-3.51956">
        <ele>36.09</ele>
        <time>2020-07-10T09:10:02Z</time>
      </trkpt>
      <trkpt lat="47.7921" lon="-3.51949">
        <ele>36.1</ele>
        <time>2020-07-10T09:10:03Z</time>
      </trkpt>
      <trkpt lat="47.7921" lon="-3.51942">
        <ele>36.12</ele>
        <time>2020-07-10T09:10:04Z</time>
      </trkpt>
      <trkpt lat="47.7921" lon="-3.51934">
        <ele>36.15</ele>
        <time>2020-07-10T09:10:05Z</time>
      </trkpt>
      <trkpt lat="47.79211" lon="-3.51926">
        <ele>36.18</ele>
        <time>2020-07-10T09:10:06Z</time>
      </trkpt>
      <trkpt lat="47.79212" lon="-3.51918">
        <ele>36.22</ele>
        <time>2020-07-10T09:10:07Z</time>
      </trkpt>
      <trkpt lat="47.79212" lon="-3.51911">
        <ele>36.2</ele>
        <time>2020-07-10T09:10:08Z</time>
      </trkpt>
      <trkpt lat="47.79212" lon="-3.51903">
        <ele>36.12</ele>
        <time>2020-07-10T09:10:09Z</time>
      </trkpt>
      <trkpt lat="47.79212" lon="-3.51895">
        <ele>36.04</ele>
        <time>2020-07-10T09:10:10Z</time>
      </trkpt>
      <trkpt lat="47.79213" lon="-3.51887">
        <ele>35.95</ele>
        <time>2020-07-10T09:10:11Z</time>
      </trkpt>
      <trkpt lat="47.79213" lon="-3.5188">
        <ele>35.85</ele>
        <time>2020-07-10T09:10:12Z</time>
      </trkpt>
      <trkpt lat="47.79213" lon="-3.51873">
        <ele>35.71</ele>
        <time>2020-07-10T09:10:13Z</time>
      </trkpt>
      <trkpt lat="47.79213" lon="-3.51865">
        <ele>35.55</ele>
        <time>2020-07-10T09:10:14Z</time>
      </trkpt>
      <trkpt lat="47.79213" lon="-3.51858">
        <ele>35.37</ele>
        <time>2020-07-10T09:10:15Z</time>
      </trkpt>
      <trkpt lat="47.79211" lon="-3.51852">
        <ele>35.18</ele>
        <time>2020-07-10T09:10:16Z</time>
      </trkpt>
      <trkpt lat="47.79209" lon="-3.51847">
        <ele>34.93</ele>
        <time>2020-07-10T09:10:17Z</time>
      </trkpt>
      <trkpt lat="47.79207" lon="-3.51843">
        <ele>34.67</ele>
        <time>2020-07-10T09:10:18Z</time>
      </trkpt>
      <trkpt lat="47.79205" lon="-3.51838">
        <ele>34.38</ele>
        <time>2020-07-10T09:10:19Z</time>
      </trkpt>
      <trkpt lat="47.79203" lon="-3.51832">
        <ele>33.99</ele>
        <time>2020-07-10T09:10:20Z</time>
      </trkpt>
      <trkpt lat="47.79201" lon="-3.51826">
        <ele>33.45</ele>
        <time>2020-07-10T09:10:21Z</time>
      </trkpt>
      <trkpt lat="47.792" lon="-3.51819">
        <ele>32.84</ele>
        <time>2020-07-10T09:10:22Z</time>
      </trkpt>
      <trkpt lat="47.79199" lon="-3.51812">
        <ele>32.26</ele>
        <time>2020-07-10T09:10:23Z</time>
      </trkpt>
      <trkpt lat="47.79199" lon="-3.51805">
        <ele>31.69</ele>
        <time>2020-07-10T09:10:24Z</time>
      </trkpt>
      <trkpt lat="47.79199" lon="-3.51798">
        <ele>31.2</ele>
        <time>2020-07-10T09:10:25Z</time>
      </trkpt>
      <trkpt lat="47.79199" lon="-3.5179">
        <ele>30.71</ele>
        <time>2020-07-10T09:10:26Z</time>
      </trkpt>
      <trkpt lat="47.792" lon="-3.51782">
        <ele>30.3</ele>
        <time>2020-07-10T09:10:27Z</time>
      </trkpt>
      <trkpt lat="47.79202" lon="-3.51773">
        <ele>29.94</ele>
        <time>2020-07-10T09:10:28Z</time>
      </trkpt>
      <trkpt lat="47.79203" lon="-3.51762">
        <ele>29.48</ele>
        <time>2020-07-10T09:10:29Z</time>
      </trkpt>
      <trkpt lat="47.79204" lon="-3.51753">
        <ele>29.03</ele>
        <time>2020-07-10T09:10:30Z</time>
      </trkpt>
      <trkpt lat="47.79205" lon="-3.51743">
        <ele>28.46</ele>
        <time>2020-07-10T09:10:31Z</time>
      </trkpt>
      <trkpt lat="47.79207" lon="-3.51733">
        <ele>27.92</ele>
        <time>2020-07-10T09:10:32Z</time>
      </trkpt>
      <trkpt lat="47.79209" lon="-3.51721">
        <ele>27.26</ele>
        <time>2020-07-10T09:10:33Z</time>
      </trkpt>
      <trkpt lat="47.79211" lon="-3.51711">
        <ele>26.62</ele>
        <time>2020-07-10T09:10:34Z</time>
      </trkpt>
      <trkpt lat="47.79212" lon="-3.517">
        <ele>25.98</ele>
        <time>2020-07-10T09:10:35Z</time>
      </trkpt>
      <trkpt lat="47.79213" lon="-3.51689">
        <ele>25.41</ele>
        <time>2020-07-10T09:10:36Z</time>
      </trkpt>
      <trkpt lat="47.79214" lon="-3.51678">
        <ele>25.08</ele>
        <time>2020-07-10T09:10:37Z</time>
      </trkpt>
      <trkpt lat="47.79214" lon="-3.51667">
        <ele>24.69</ele>
        <time>2020-07-10T09:10:38Z</time>
      </trkpt>
      <trkpt lat="47.79213" lon="-3.51655">
        <ele>24.57</ele>
        <time>2020-07-10T09:10:39Z</time>
      </trkpt>
      <trkpt lat="47.79211" lon="-3.51645">
        <ele>24.46</ele>
        <time>2020-07-10T09:10:40Z</time>
      </trkpt>
      <trkpt lat="47.79208" lon="-3.51631">
        <ele>24.35</ele>
        <time>2020-07-10T09:10:41Z</time>
      </trkpt>
      <trkpt lat="47.79206" lon="-3.51621">
        <ele>24.18</ele>
        <time>2020-07-10T09:10:42Z</time>
      </trkpt>
      <trkpt lat="47.79203" lon="-3.51612">
        <ele>23.92</ele>
        <time>2020-07-10T09:10:43Z</time>
      </trkpt>
      <trkpt lat="47.792" lon="-3.51605">
        <ele>23.68</ele>
        <time>2020-07-10T09:10:44Z</time>
      </trkpt>
      <trkpt lat="47.79196" lon="-3.51597">
        <ele>23.44</ele>
        <time>2020-07-10T09:10:45Z</time>
      </trkpt>
      <trkpt lat="47.79191" lon="-3.51592">
        <ele>23.11</ele>
        <time>2020-07-10T09:10:46Z</time>
      </trkpt>
      <trkpt lat="47.79186" lon="-3.5159">
        <ele>22.76</ele>
        <time>2020-07-10T09:10:47Z</time>
      </trkpt>
      <trkpt lat="47.7918" lon="-3.51588">
        <ele>22.28</ele>
        <time>2020-07-10T09:10:48Z</time>
      </trkpt>
      <trkpt lat="47.79174" lon="-3.51585">
        <ele>21.84</ele>
        <time>2020-07-10T09:10:49Z</time>
      </trkpt>
      <trkpt lat="47.7917" lon="-3.51583">
        <ele>21.49</ele>
        <time>2020-07-10T09:10:50Z</time>
      </trkpt>
      <trkpt lat="47.79165" lon="-3.51582">
        <ele>21.23</ele>
        <time>2020-07-10T09:10:51Z</time>
      </trkpt>
      <trkpt lat="47.79161" lon="-3.5158">
        <ele>21.03</ele>
        <time>2020-07-10T09:10:52Z</time>
      </trkpt>
      <trkpt lat="47.79156" lon="-3.51579">
        <ele>20.82</ele>
        <time>2020-07-10T09:10:53Z</time>
      </trkpt>
      <trkpt lat="47.79151" lon="-3.51578">
        <ele>20.65</ele>
        <time>2020-07-10T09:10:54Z</time>
      </trkpt>
      <trkpt lat="47.79147" lon="-3.51576">
        <ele>20.48</ele>
        <time>2020-07-10T09:10:55Z</time>
      </trkpt>
      <trkpt lat="47.79142" lon="-3.51575">
        <ele>20.23</ele>
        <time>2020-07-10T09:10:56Z</time>
      </trkpt>
      <trkpt lat="47.79138" lon="-3.51574">
        <ele>20.07</ele>
        <time>2020-07-10T09:10:57Z</time>
      </trkpt>
      <trkpt lat="47.79132" lon="-3.51572">
        <ele>20</ele>
        <time>2020-07-10T09:10:58Z</time>
      </trkpt>
      <trkpt lat="47.79127" lon="-3.51571">
        <ele>19.93</ele>
        <time>2020-07-10T09:10:59Z</time>
      </trkpt>
      <trkpt lat="47.79122" lon="-3.51571">
        <ele>19.8</ele>
        <time>2020-07-10T09:11:00Z</time>
      </trkpt>
      <trkpt lat="47.79117" lon="-3.5157">
        <ele>19.71</ele>
        <time>2020-07-10T09:11:01Z</time>
      </trkpt>
      <trkpt lat="47.79111" lon="-3.5157">
        <ele>19.54</ele>
        <time>2020-07-10T09:11:02Z</time>
      </trkpt>
      <trkpt lat="47.79106" lon="-3.51569">
        <ele>19.57</ele>
        <time>2020-07-10T09:11:03Z</time>
      </trkpt>
      <trkpt lat="47.79102" lon="-3.51569">
        <ele>19.66</ele>
        <time>2020-07-10T09:11:04Z</time>
      </trkpt>
      <trkpt lat="47.79097" lon="-3.51568">
        <ele>19.82</ele>
        <time>2020-07-10T09:11:05Z</time>
      </trkpt>
      <trkpt lat="47.79093" lon="-3.51568">
        <ele>19.98</ele>
        <time>2020-07-10T09:11:06Z</time>
      </trkpt>
      <trkpt lat="47.79088" lon="-3.51568">
        <ele>20.04</ele>
        <time>2020-07-10T09:11:07Z</time>
      </trkpt>
      <trkpt lat="47.79083" lon="-3.51568">
        <ele>20.15</ele>
        <time>2020-07-10T09:11:08Z</time>
      </trkpt>
      <trkpt lat="47.79078" lon="-3.51568">
        <ele>20.28</ele>
        <time>2020-07-10T09:11:09Z</time>
      </trkpt>
      <trkpt lat="47.79074" lon="-3.51566">
        <ele>20.56</ele>
        <time>2020-07-10T09:11:10Z</time>
      </trkpt>
      <trkpt lat="47.79069" lon="-3.51565">
        <ele>20.81</ele>
        <time>2020-07-10T09:11:11Z</time>
      </trkpt>
      <trkpt lat="47.79065" lon="-3.51564">
        <ele>21.12</ele>
        <time>2020-07-10T09:11:12Z</time>
      </trkpt>
      <trkpt lat="47.7906" lon="-3.51563">
        <ele>21.37</ele>
        <time>2020-07-10T09:11:13Z</time>
      </trkpt>
      <trkpt lat="47.79055" lon="-3.51563">
        <ele>21.54</ele>
        <time>2020-07-10T09:11:14Z</time>
      </trkpt>
      <trkpt lat="47.79049" lon="-3.51565">
        <ele>21.55</ele>
        <time>2020-07-10T09:11:15Z</time>
      </trkpt>
      <trkpt lat="47.79044" lon="-3.51566">
        <ele>21.57</ele>
        <time>2020-07-10T09:11:16Z</time>
      </trkpt>
      <trkpt lat="47.79036" lon="-3.51568">
        <ele>21.51</ele>
        <time>2020-07-10T09:11:17Z</time>
      </trkpt>
      <trkpt lat="47.7903" lon="-3.5157">
        <ele>21.36</ele>
        <time>2020-07-10T09:11:18Z</time>
      </trkpt>
      <trkpt lat="47.79023" lon="-3.51572">
        <ele>21.39</ele>
        <time>2020-07-10T09:11:19Z</time>
      </trkpt>
      <trkpt lat="47.79016" lon="-3.51574">
        <ele>21.53</ele>
        <time>2020-07-10T09:11:20Z</time>
      </trkpt>
      <trkpt lat="47.79009" lon="-3.51576">
        <ele>21.72</ele>
        <time>2020-07-10T09:11:21Z</time>
      </trkpt>
      <trkpt lat="47.79003" lon="-3.51576">
        <ele>21.93</ele>
        <time>2020-07-10T09:11:22Z</time>
      </trkpt>
      <trkpt lat="47.78997" lon="-3.51577">
        <ele>22.17</ele>
        <time>2020-07-10T09:11:23Z</time>
      </trkpt>
      <trkpt lat="47.7899" lon="-3.51579">
        <ele>22.14</ele>
        <time>2020-07-10T09:11:24Z</time>
      </trkpt>
      <trkpt lat="47.78984" lon="-3.51582">
        <ele>21.92</ele>
        <time>2020-07-10T09:11:25Z</time>
      </trkpt>
      <trkpt lat="47.78977" lon="-3.51584">
        <ele>21.76</ele>
        <time>2020-07-10T09:11:26Z</time>
      </trkpt>
      <trkpt lat="47.7897" lon="-3.51586">
        <ele>21.58</ele>
        <time>2020-07-10T09:11:27Z</time>
      </trkpt>
      <trkpt lat="47.78963" lon="-3.51588">
        <ele>21.38</ele>
        <time>2020-07-10T09:11:28Z</time>
      </trkpt>
      <trkpt lat="47.78957" lon="-3.51589">
        <ele>21.18</ele>
        <time>2020-07-10T09:11:29Z</time>
      </trkpt>
      <trkpt lat="47.78951" lon="-3.51589">
        <ele>21.1</ele>
        <time>2020-07-10T09:11:30Z</time>
      </trkpt>
      <trkpt lat="47.78945" lon="-3.51589">
        <ele>21.1</ele>
        <time>2020-07-10T09:11:31Z</time>
      </trkpt>
      <trkpt lat="47.7894" lon="-3.51588">
        <ele>21.14</ele>
        <time>2020-07-10T09:11:32Z</time>
      </trkpt>
      <trkpt lat="47.78933" lon="-3.51585">
        <ele>21.32</ele>
        <time>2020-07-10T09:11:33Z</time>
      </trkpt>
      <trkpt lat="47.78927" lon="-3.51583">
        <ele>21.43</ele>
        <time>2020-07-10T09:11:34Z</time>
      </trkpt>
      <trkpt lat="47.78921" lon="-3.5158">
        <ele>21.6</ele>
        <time>2020-07-10T09:11:35Z</time>
      </trkpt>
      <trkpt lat="47.78916" lon="-3.51578">
        <ele>21.83</ele>
        <time>2020-07-10T09:11:36Z</time>
      </trkpt>
      <trkpt lat="47.7891" lon="-3.51576">
        <ele>21.65</ele>
        <time>2020-07-10T09:11:37Z</time>
      </trkpt>
      <trkpt lat="47.78905" lon="-3.51576">
        <ele>21.28</ele>
        <time>2020-07-10T09:11:38Z</time>
      </trkpt>
      <trkpt lat="47.78899" lon="-3.51574">
        <ele>20.92</ele>
        <time>2020-07-10T09:11:39Z</time>
      </trkpt>
      <trkpt lat="47.78893" lon="-3.51572">
        <ele>20.67</ele>
        <time>2020-07-10T09:11:40Z</time>
      </trkpt>
      <trkpt lat="47.78888" lon="-3.51568">
        <ele>20.6</ele>
        <time>2020-07-10T09:11:41Z</time>
      </trkpt>
      <trkpt lat="47.78882" lon="-3.51565">
        <ele>20.65</ele>
        <time>2020-07-10T09:11:42Z</time>
      </trkpt>
      <trkpt lat="47.78876" lon="-3.51562">
        <ele>20.68</ele>
        <time>2020-07-10T09:11:43Z</time>
      </trkpt>
      <trkpt lat="47.78871" lon="-3.51558">
        <ele>20.74</ele>
        <time>2020-07-10T09:11:44Z</time>
      </trkpt>
      <trkpt lat="47.78866" lon="-3.51554">
        <ele>20.75</ele>
        <time>2020-07-10T09:11:45Z</time>
      </trkpt>
      <trkpt lat="47.78861" lon="-3.51551">
        <ele>20.79</ele>
        <time>2020-07-10T09:11:46Z</time>
      </trkpt>
      <trkpt lat="47.78855" lon="-3.51546">
        <ele>20.75</ele>
        <time>2020-07-10T09:11:47Z</time>
      </trkpt>
      <trkpt lat="47.78849" lon="-3.51543">
        <ele>20.49</ele>
        <time>2020-07-10T09:11:48Z</time>
      </trkpt>
      <trkpt lat="47.78843" lon="-3.51539">
        <ele>20.08</ele>
        <time>2020-07-10T09:11:49Z</time>
      </trkpt>
      <trkpt lat="47.78836" lon="-3.51535">
        <ele>19.63</ele>
        <time>2020-07-10T09:11:50Z</time>
      </trkpt>
      <trkpt lat="47.7883" lon="-3.51532">
        <ele>19.08</ele>
        <time>2020-07-10T09:11:51Z</time>
      </trkpt>
      <trkpt lat="47.78824" lon="-3.51528">
        <ele>18.54</ele>
        <time>2020-07-10T09:11:52Z</time>
      </trkpt>
      <trkpt lat="47.78818" lon="-3.51523">
        <ele>18.08</ele>
        <time>2020-07-10T09:11:53Z</time>
      </trkpt>
      <trkpt lat="47.78812" lon="-3.51521">
        <ele>17.41</ele>
        <time>2020-07-10T09:11:54Z</time>
      </trkpt>
      <trkpt lat="47.78806" lon="-3.51518">
        <ele>16.73</ele>
        <time>2020-07-10T09:11:55Z</time>
      </trkpt>
      <trkpt lat="47.788" lon="-3.51516">
        <ele>16.65</ele>
        <time>2020-07-10T09:11:56Z</time>
      </trkpt>
      <trkpt lat="47.78794" lon="-3.51513">
        <ele>16.81</ele>
        <time>2020-07-10T09:11:57Z</time>
      </trkpt>
      <trkpt lat="47.78789" lon="-3.51512">
        <ele>16.92</ele>
        <time>2020-07-10T09:11:58Z</time>
      </trkpt>
      <trkpt lat="47.78783" lon="-3.5151">
        <ele>16.96</ele>
        <time>2020-07-10T09:11:59Z</time>
      </trkpt>
      <trkpt lat="47.78777" lon="-3.5151">
        <ele>16.91</ele>
        <time>2020-07-10T09:12:00Z</time>
      </trkpt>
      <trkpt lat="47.78772" lon="-3.5151">
        <ele>16.56</ele>
        <time>2020-07-10T09:12:01Z</time>
      </trkpt>
      <trkpt lat="47.78765" lon="-3.51511">
        <ele>15.99</ele>
        <time>2020-07-10T09:12:02Z</time>
      </trkpt>
      <trkpt lat="47.78759" lon="-3.5151">
        <ele>15.48</ele>
        <time>2020-07-10T09:12:03Z</time>
      </trkpt>
      <trkpt lat="47.78752" lon="-3.51511">
        <ele>14.88</ele>
        <time>2020-07-10T09:12:04Z</time>
      </trkpt>
      <trkpt lat="47.78744" lon="-3.5151">
        <ele>14.02</ele>
        <time>2020-07-10T09:12:05Z</time>
      </trkpt>
      <trkpt lat="47.78736" lon="-3.51508">
        <ele>13.06</ele>
        <time>2020-07-10T09:12:06Z</time>
      </trkpt>
      <trkpt lat="47.78728" lon="-3.51504">
        <ele>12.08</ele>
        <time>2020-07-10T09:12:07Z</time>
      </trkpt>
      <trkpt lat="47.78721" lon="-3.515">
        <ele>11.22</ele>
        <time>2020-07-10T09:12:08Z</time>
      </trkpt>
      <trkpt lat="47.78713" lon="-3.51497">
        <ele>10.69</ele>
        <time>2020-07-10T09:12:09Z</time>
      </trkpt>
      <trkpt lat="47.78706" lon="-3.51492">
        <ele>10.28</ele>
        <time>2020-07-10T09:12:10Z</time>
      </trkpt>
      <trkpt lat="47.78699" lon="-3.51488">
        <ele>9.9</ele>
        <time>2020-07-10T09:12:11Z</time>
      </trkpt>
      <trkpt lat="47.78692" lon="-3.51485">
        <ele>9.74</ele>
        <time>2020-07-10T09:12:12Z</time>
      </trkpt>
      <trkpt lat="47.78686" lon="-3.51482">
        <ele>10.04</ele>
        <time>2020-07-10T09:12:13Z</time>
      </trkpt>
      <trkpt lat="47.78678" lon="-3.51481">
        <ele>10.48</ele>
        <time>2020-07-10T09:12:14Z</time>
      </trkpt>
      <trkpt lat="47.78673" lon="-3.51478">
        <ele>10.99</ele>
        <time>2020-07-10T09:12:15Z</time>
      </trkpt>
      <trkpt lat="47.78668" lon="-3.51475">
        <ele>11.5</ele>
        <time>2020-07-10T09:12:16Z</time>
      </trkpt>
      <trkpt lat="47.78662" lon="-3.51473">
        <ele>11.91</ele>
        <time>2020-07-10T09:12:17Z</time>
      </trkpt>
      <trkpt lat="47.78658" lon="-3.51472">
        <ele>12.22</ele>
        <time>2020-07-10T09:12:18Z</time>
      </trkpt>
      <trkpt lat="47.78654" lon="-3.51471">
        <ele>12.49</ele>
        <time>2020-07-10T09:12:19Z</time>
      </trkpt>
      <trkpt lat="47.78649" lon="-3.5147">
        <ele>12.75</ele>
        <time>2020-07-10T09:12:20Z</time>
      </trkpt>
      <trkpt lat="47.78645" lon="-3.51469">
        <ele>12.96</ele>
        <time>2020-07-10T09:12:21Z</time>
      </trkpt>
      <trkpt lat="47.78642" lon="-3.51469">
        <ele>13.16</ele>
        <time>2020-07-10T09:12:22Z</time>
      </trkpt>
      <trkpt lat="47.78639" lon="-3.51469">
        <ele>13.3</ele>
        <time>2020-07-10T09:12:23Z</time>
      </trkpt>
      <trkpt lat="47.78635" lon="-3.5147">
        <ele>13.33</ele>
        <time>2020-07-10T09:12:24Z</time>
      </trkpt>
      <trkpt lat="47.78632" lon="-3.51472">
        <ele>13.31</ele>
        <time>2020-07-10T09:12:25Z</time>
      </trkpt>
      <trkpt lat="47.78628" lon="-3.51474">
        <ele>13.3</ele>
        <time>2020-07-10T09:12:26Z</time>
      </trkpt>
      <trkpt lat="47.78624" lon="-3.51477">
        <ele>13.28</ele>
        <time>2020-07-10T09:12:27Z</time>
      </trkpt>
      <trkpt lat="47.7862" lon="-3.5148">
        <ele>13.24</ele>
        <time>2020-07-10T09:12:28Z</time>
      </trkpt>
      <trkpt lat="47.78616" lon="-3.51483">
        <ele>13.14</ele>
        <time>2020-07-10T09:12:29Z</time>
      </trkpt>
      <trkpt lat="47.78611" lon="-3.51486">
        <ele>13.06</ele>
        <time>2020-07-10T09:12:30Z</time>
      </trkpt>
      <trkpt lat="47.78605" lon="-3.51488">
        <ele>13.41</ele>
        <time>2020-07-10T09:12:31Z</time>
      </trkpt>
      <trkpt lat="47.78599" lon="-3.5149">
        <ele>13.89</ele>
        <time>2020-07-10T09:12:32Z</time>
      </trkpt>
      <trkpt lat="47.78593" lon="-3.51492">
        <ele>14.48</ele>
        <time>2020-07-10T09:12:33Z</time>
      </trkpt>
      <trkpt lat="47.78587" lon="-3.51494">
        <ele>15.01</ele>
        <time>2020-07-10T09:12:34Z</time>
      </trkpt>
      <trkpt lat="47.78581" lon="-3.51497">
        <ele>15.43</ele>
        <time>2020-07-10T09:12:35Z</time>
      </trkpt>
      <trkpt lat="47.78576" lon="-3.515">
        <ele>15.77</ele>
        <time>2020-07-10T09:12:36Z</time>
      </trkpt>
      <trkpt lat="47.78571" lon="-3.51502">
        <ele>15.99</ele>
        <time>2020-07-10T09:12:37Z</time>
      </trkpt>
      <trkpt lat="47.78566" lon="-3.51505">
        <ele>16.1</ele>
        <time>2020-07-10T09:12:38Z</time>
      </trkpt>
      <trkpt lat="47.78561" lon="-3.51507">
        <ele>16.31</ele>
        <time>2020-07-10T09:12:39Z</time>
      </trkpt>
      <trkpt lat="47.78556" lon="-3.51509">
        <ele>16.52</ele>
        <time>2020-07-10T09:12:40Z</time>
      </trkpt>
      <trkpt lat="47.78552" lon="-3.5151">
        <ele>16.93</ele>
        <time>2020-07-10T09:12:41Z</time>
      </trkpt>
      <trkpt lat="47.78548" lon="-3.51511">
        <ele>17.41</ele>
        <time>2020-07-10T09:12:42Z</time>
      </trkpt>
      <trkpt lat="47.78544" lon="-3.51513">
        <ele>17.8</ele>
        <time>2020-07-10T09:12:43Z</time>
      </trkpt>
      <trkpt lat="47.7854" lon="-3.51517">
        <ele>18</ele>
        <time>2020-07-10T09:12:44Z</time>
      </trkpt>
      <trkpt lat="47.78536" lon="-3.5152">
        <ele>18.17</ele>
        <time>2020-07-10T09:12:45Z</time>
      </trkpt>
      <trkpt lat="47.7853" lon="-3.51523">
        <ele>18.41</ele>
        <time>2020-07-10T09:12:46Z</time>
      </trkpt>
      <trkpt lat="47.78525" lon="-3.51527">
        <ele>18.39</ele>
        <time>2020-07-10T09:12:47Z</time>
      </trkpt>
      <trkpt lat="47.78521" lon="-3.5153">
        <ele>18.42</ele>
        <time>2020-07-10T09:12:48Z</time>
      </trkpt>
      <trkpt lat="47.78517" lon="-3.51533">
        <ele>18.54</ele>
        <time>2020-07-10T09:12:49Z</time>
      </trkpt>
      <trkpt lat="47.78513" lon="-3.51535">
        <ele>18.65</ele>
        <time>2020-07-10T09:12:50Z</time>
      </trkpt>
      <trkpt lat="47.78509" lon="-3.51538">
        <ele>18.69</ele>
        <time>2020-07-10T09:12:51Z</time>
      </trkpt>
      <trkpt lat="47.78503" lon="-3.51541">
        <ele>18.79</ele>
        <time>2020-07-10T09:12:52Z</time>
      </trkpt>
      <trkpt lat="47.78499" lon="-3.51543">
        <ele>18.9</ele>
        <time>2020-07-10T09:12:53Z</time>
      </trkpt>
      <trkpt lat="47.78495" lon="-3.51544">
        <ele>19.1</ele>
        <time>2020-07-10T09:12:54Z</time>
      </trkpt>
      <trkpt lat="47.78492" lon="-3.51546">
        <ele>19.19</ele>
        <time>2020-07-10T09:12:55Z</time>
      </trkpt>
      <trkpt lat="47.78489" lon="-3.5155">
        <ele>19.06</ele>
        <time>2020-07-10T09:12:56Z</time>
      </trkpt>
      <trkpt lat="47.78488" lon="-3.51552">
        <ele>18.9</ele>
        <time>2020-07-10T09:12:57Z</time>
      </trkpt>
      <trkpt lat="47.78488" lon="-3.51555">
        <ele>18.49</ele>
        <time>2020-07-10T09:12:58Z</time>
      </trkpt>
      <trkpt lat="47.78489" lon="-3.51559">
        <ele>18</ele>
        <time>2020-07-10T09:12:59Z</time>
      </trkpt>
      <trkpt lat="47.78492" lon="-3.51563">
        <ele>17.46</ele>
        <time>2020-07-10T09:13:00Z</time>
      </trkpt>
      <trkpt lat="47.78494" lon="-3.51568">
        <ele>16.88</ele>
        <time>2020-07-10T09:13:01Z</time>
      </trkpt>
      <trkpt lat="47.78495" lon="-3.51572">
        <ele>16.31</ele>
        <time>2020-07-10T09:13:02Z</time>
      </trkpt>
      <trkpt lat="47.78498" lon="-3.51576">
        <ele>15.86</ele>
        <time>2020-07-10T09:13:03Z</time>
      </trkpt>
      <trkpt lat="47.78501" lon="-3.5158">
        <ele>15.44</ele>
        <time>2020-07-10T09:13:04Z</time>
      </trkpt>
      <trkpt lat="47.78502" lon="-3.51584">
        <ele>15.22</ele>
        <time>2020-07-10T09:13:05Z</time>
      </trkpt>
      <trkpt lat="47.78504" lon="-3.51587">
        <ele>15.39</ele>
        <time>2020-07-10T09:13:06Z</time>
      </trkpt>
      <trkpt lat="47.78506" lon="-3.51591">
        <ele>15.68</ele>
        <time>2020-07-10T09:13:07Z</time>
      </trkpt>
      <trkpt lat="47.78508" lon="-3.51595">
        <ele>16.08</ele>
        <time>2020-07-10T09:13:08Z</time>
      </trkpt>
      <trkpt lat="47.78509" lon="-3.51599">
        <ele>16.47</ele>
        <time>2020-07-10T09:13:09Z</time>
      </trkpt>
      <trkpt lat="47.78511" lon="-3.51602">
        <ele>16.82</ele>
        <time>2020-07-10T09:13:10Z</time>
      </trkpt>
      <trkpt lat="47.78513" lon="-3.51605">
        <ele>17.18</ele>
        <time>2020-07-10T09:13:11Z</time>
      </trkpt>
      <trkpt lat="47.78514" lon="-3.51606">
        <ele>17.45</ele>
        <time>2020-07-10T09:13:12Z</time>
      </trkpt>
      <trkpt lat="47.78515" lon="-3.51608">
        <ele>17.69</ele>
        <time>2020-07-10T09:13:13Z</time>
      </trkpt>
      <trkpt lat="47.78515" lon="-3.51609">
        <ele>17.86</ele>
        <time>2020-07-10T09:13:14Z</time>
      </trkpt>
      <trkpt lat="47.78516" lon="-3.51611">
        <ele>18.08</ele>
        <time>2020-07-10T09:13:15Z</time>
      </trkpt>
      <trkpt lat="47.78517" lon="-3.51613">
        <ele>18.31</ele>
        <time>2020-07-10T09:13:16Z</time>
      </trkpt>
      <trkpt lat="47.78517" lon="-3.51613">
        <ele>18.38</ele>
        <time>2020-07-10T09:13:17Z</time>
      </trkpt>
      <trkpt lat="47.78517" lon="-3.51613">
        <ele>18.4</ele>
        <time>2020-07-10T09:13:18Z</time>
      </trkpt>
      <trkpt lat="47.7852" lon="-3.51618">
        <ele>18.93</ele>
        <time>2020-07-10T09:13:19Z</time>
      </trkpt>
      <trkpt lat="47.78521" lon="-3.51619">
        <ele>19.33</ele>
        <time>2020-07-10T09:13:20Z</time>
      </trkpt>
      <trkpt lat="47.78523" lon="-3.51621">
        <ele>19.63</ele>
        <time>2020-07-10T09:13:21Z</time>
      </trkpt>
      <trkpt lat="47.78524" lon="-3.51622">
        <ele>19.83</ele>
        <time>2020-07-10T09:13:22Z</time>
      </trkpt>
      <trkpt lat="47.78524" lon="-3.51622">
        <ele>19.93</ele>
        <time>2020-07-10T09:13:23Z</time>
      </trkpt>
      <trkpt lat="47.78525" lon="-3.51623">
        <ele>20.06</ele>
        <time>2020-07-10T09:13:24Z</time>
      </trkpt>
      <trkpt lat="47.78525" lon="-3.51623">
        <ele>20.1</ele>
        <time>2020-07-10T09:13:25Z</time>
      </trkpt>
      <trkpt lat="47.78525" lon="-3.51623">
        <ele>20.11</ele>
        <time>2020-07-10T09:13:26Z</time>
      </trkpt>
      <trkpt lat="47.78525" lon="-3.51623">
        <ele>20.12</ele>
        <time>2020-07-10T09:13:27Z</time>
      </trkpt>
      <trkpt lat="47.78525" lon="-3.51623">
        <ele>20.12</ele>
        <time>2020-07-10T09:13:28Z</time>
      </trkpt>
      <trkpt lat="47.78524" lon="-3.51628">
        <ele>20.51</ele>
        <time>2020-07-10T09:13:29Z</time>
      </trkpt>
      <trkpt lat="47.78523" lon="-3.5163">
        <ele>20.68</ele>
        <time>2020-07-10T09:13:30Z</time>
      </trkpt>
      <trkpt lat="47.78522" lon="-3.51632">
        <ele>20.88</ele>
        <time>2020-07-10T09:13:31Z</time>
      </trkpt>
      <trkpt lat="47.78521" lon="-3.51634">
        <ele>21.07</ele>
        <time>2020-07-10T09:13:32Z</time>
      </trkpt>
      <trkpt lat="47.78521" lon="-3.51636">
        <ele>21.28</ele>
        <time>2020-07-10T09:13:33Z</time>
      </trkpt>
      <trkpt lat="47.7852" lon="-3.51638">
        <ele>21.5</ele>
        <time>2020-07-10T09:13:34Z</time>
      </trkpt>
      <trkpt lat="47.78519" lon="-3.51639">
        <ele>21.65</ele>
        <time>2020-07-10T09:13:35Z</time>
      </trkpt>
      <trkpt lat="47.78518" lon="-3.51641">
        <ele>21.75</ele>
        <time>2020-07-10T09:13:36Z</time>
      </trkpt>
      <trkpt lat="47.78518" lon="-3.51641">
        <ele>21.81</ele>
        <time>2020-07-10T09:13:37Z</time>
      </trkpt>
      <trkpt lat="47.78518" lon="-3.51643">
        <ele>21.93</ele>
        <time>2020-07-10T09:13:38Z</time>
      </trkpt>
      <trkpt lat="47.78518" lon="-3.51645">
        <ele>22.07</ele>
        <time>2020-07-10T09:13:39Z</time>
      </trkpt>
      <trkpt lat="47.78518" lon="-3.51647">
        <ele>22.26</ele>
        <time>2020-07-10T09:13:40Z</time>
      </trkpt>
      <trkpt lat="47.78518" lon="-3.5165">
        <ele>22.5</ele>
        <time>2020-07-10T09:13:41Z</time>
      </trkpt>
      <trkpt lat="47.78518" lon="-3.51653">
        <ele>22.73</ele>
        <time>2020-07-10T09:13:42Z</time>
      </trkpt>
      <trkpt lat="47.78519" lon="-3.51655">
        <ele>22.95</ele>
        <time>2020-07-10T09:13:43Z</time>
      </trkpt>
      <trkpt lat="47.78519" lon="-3.51658">
        <ele>23.17</ele>
        <time>2020-07-10T09:13:44Z</time>
      </trkpt>
      <trkpt lat="47.78518" lon="-3.51661">
        <ele>23.42</ele>
        <time>2020-07-10T09:13:45Z</time>
      </trkpt>
      <trkpt lat="47.78518" lon="-3.51664">
        <ele>23.65</ele>
        <time>2020-07-10T09:13:46Z</time>
      </trkpt>
      <trkpt lat="47.78518" lon="-3.51666">
        <ele>23.86</ele>
        <time>2020-07-10T09:13:47Z</time>
      </trkpt>
      <trkpt lat="47.78518" lon="-3.51669">
        <ele>24.07</ele>
        <time>2020-07-10T09:13:48Z</time>
      </trkpt>
      <trkpt lat="47.78519" lon="-3.51671">
        <ele>24.25</ele>
        <time>2020-07-10T09:13:49Z</time>
      </trkpt>
      <trkpt lat="47.7852" lon="-3.51674">
        <ele>24.43</ele>
        <time>2020-07-10T09:13:50Z</time>
      </trkpt>
      <trkpt lat="47.78521" lon="-3.51677">
        <ele>24.63</ele>
        <time>2020-07-10T09:13:51Z</time>
      </trkpt>
      <trkpt lat="47.78522" lon="-3.5168">
        <ele>24.84</ele>
        <time>2020-07-10T09:13:52Z</time>
      </trkpt>
      <trkpt lat="47.78524" lon="-3.51682">
        <ele>25.02</ele>
        <time>2020-07-10T09:13:53Z</time>
      </trkpt>
      <trkpt lat="47.78525" lon="-3.51684">
        <ele>25.19</ele>
        <time>2020-07-10T09:13:54Z</time>
      </trkpt>
      <trkpt lat="47.78527" lon="-3.51686">
        <ele>25.33</ele>
        <time>2020-07-10T09:13:55Z</time>
      </trkpt>
      <trkpt lat="47.78528" lon="-3.51688">
        <ele>25.47</ele>
        <time>2020-07-10T09:13:56Z</time>
      </trkpt>
      <trkpt lat="47.78528" lon="-3.51691">
        <ele>25.64</ele>
        <time>2020-07-10T09:13:57Z</time>
      </trkpt>
      <trkpt lat="47.78529" lon="-3.51693">
        <ele>25.81</ele>
        <time>2020-07-10T09:13:58Z</time>
      </trkpt>
      <trkpt lat="47.78528" lon="-3.51696">
        <ele>26.05</ele>
        <time>2020-07-10T09:13:59Z</time>
      </trkpt>
      <trkpt lat="47.78528" lon="-3.51697">
        <ele>26.24</ele>
        <time>2020-07-10T09:14:00Z</time>
      </trkpt>
      <trkpt lat="47.78528" lon="-3.517">
        <ele>26.48</ele>
        <time>2020-07-10T09:14:01Z</time>
      </trkpt>
      <trkpt lat="47.78527" lon="-3.51703">
        <ele>26.79</ele>
        <time>2020-07-10T09:14:02Z</time>
      </trkpt>
      <trkpt lat="47.78527" lon="-3.51706">
        <ele>27.1</ele>
        <time>2020-07-10T09:14:03Z</time>
      </trkpt>
      <trkpt lat="47.78527" lon="-3.51708">
        <ele>27.36</ele>
        <time>2020-07-10T09:14:04Z</time>
      </trkpt>
      <trkpt lat="47.78527" lon="-3.51711">
        <ele>27.63</ele>
        <time>2020-07-10T09:14:05Z</time>
      </trkpt>
      <trkpt lat="47.78526" lon="-3.51713">
        <ele>27.85</ele>
        <time>2020-07-10T09:14:06Z</time>
      </trkpt>
      <trkpt lat="47.78525" lon="-3.51716">
        <ele>28.14</ele>
        <time>2020-07-10T09:14:07Z</time>
      </trkpt>
      <trkpt lat="47.78525" lon="-3.51719">
        <ele>28.45</ele>
        <time>2020-07-10T09:14:08Z</time>
      </trkpt>
      <trkpt lat="47.78525" lon="-3.51721">
        <ele>28.72</ele>
        <time>2020-07-10T09:14:09Z</time>
      </trkpt>
      <trkpt lat="47.78525" lon="-3.51724">
        <ele>28.95</ele>
        <time>2020-07-10T09:14:10Z</time>
      </trkpt>
      <trkpt lat="47.78525" lon="-3.51727">
        <ele>29.16</ele>
        <time>2020-07-10T09:14:11Z</time>
      </trkpt>
      <trkpt lat="47.78526" lon="-3.5173">
        <ele>29.38</ele>
        <time>2020-07-10T09:14:12Z</time>
      </trkpt>
      <trkpt lat="47.78527" lon="-3.51732">
        <ele>29.57</ele>
        <time>2020-07-10T09:14:13Z</time>
      </trkpt>
      <trkpt lat="47.78527" lon="-3.51735">
        <ele>29.79</ele>
        <time>2020-07-10T09:14:14Z</time>
      </trkpt>
      <trkpt lat="47.78527" lon="-3.51737">
        <ele>29.96</ele>
        <time>2020-07-10T09:14:15Z</time>
      </trkpt>
      <trkpt lat="47.78526" lon="-3.5174">
        <ele>30.14</ele>
        <time>2020-07-10T09:14:16Z</time>
      </trkpt>
      <trkpt lat="47.78526" lon="-3.51744">
        <ele>30.38</ele>
        <time>2020-07-10T09:14:17Z</time>
      </trkpt>
      <trkpt lat="47.78526" lon="-3.51747">
        <ele>30.61</ele>
        <time>2020-07-10T09:14:18Z</time>
      </trkpt>
      <trkpt lat="47.78526" lon="-3.5175">
        <ele>30.83</ele>
        <time>2020-07-10T09:14:19Z</time>
      </trkpt>
      <trkpt lat="47.78526" lon="-3.51753">
        <ele>31.06</ele>
        <time>2020-07-10T09:14:20Z</time>
      </trkpt>
      <trkpt lat="47.78526" lon="-3.51756">
        <ele>31.26</ele>
        <time>2020-07-10T09:14:21Z</time>
      </trkpt>
      <trkpt lat="47.78526" lon="-3.51758">
        <ele>31.44</ele>
        <time>2020-07-10T09:14:22Z</time>
      </trkpt>
      <trkpt lat="47.78526" lon="-3.51761">
        <ele>31.64</ele>
        <time>2020-07-10T09:14:23Z</time>
      </trkpt>
      <trkpt lat="47.78526" lon="-3.51764">
        <ele>31.86</ele>
        <time>2020-07-10T09:14:24Z</time>
      </trkpt>
      <trkpt lat="47.78527" lon="-3.51767">
        <ele>32.09</ele>
        <time>2020-07-10T09:14:25Z</time>
      </trkpt>
      <trkpt lat="47.78527" lon="-3.5177">
        <ele>32.31</ele>
        <time>2020-07-10T09:14:26Z</time>
      </trkpt>
      <trkpt lat="47.78527" lon="-3.51773">
        <ele>32.54</ele>
        <time>2020-07-10T09:14:27Z</time>
      </trkpt>
      <trkpt lat="47.78526" lon="-3.51777">
        <ele>32.77</ele>
        <time>2020-07-10T09:14:28Z</time>
      </trkpt>
      <trkpt lat="47.78525" lon="-3.5178">
        <ele>32.99</ele>
        <time>2020-07-10T09:14:29Z</time>
      </trkpt>
      <trkpt lat="47.78525" lon="-3.51784">
        <ele>33.25</ele>
        <time>2020-07-10T09:14:30Z</time>
      </trkpt>
      <trkpt lat="47.78525" lon="-3.51788">
        <ele>33.49</ele>
        <time>2020-07-10T09:14:31Z</time>
      </trkpt>
      <trkpt lat="47.78525" lon="-3.51791">
        <ele>33.71</ele>
        <time>2020-07-10T09:14:32Z</time>
      </trkpt>
      <trkpt lat="47.78525" lon="-3.51794">
        <ele>33.95</ele>
        <time>2020-07-10T09:14:33Z</time>
      </trkpt>
      <trkpt lat="47.78525" lon="-3.51798">
        <ele>34.19</ele>
        <time>2020-07-10T09:14:34Z</time>
      </trkpt>
      <trkpt lat="47.78525" lon="-3.51801">
        <ele>34.41</ele>
        <time>2020-07-10T09:14:35Z</time>
      </trkpt>
      <trkpt lat="47.78524" lon="-3.51806">
        <ele>34.64</ele>
        <time>2020-07-10T09:14:36Z</time>
      </trkpt>
      <trkpt lat="47.78524" lon="-3.5181">
        <ele>34.73</ele>
        <time>2020-07-10T09:14:37Z</time>
      </trkpt>
      <trkpt lat="47.78524" lon="-3.51815">
        <ele>34.75</ele>
        <time>2020-07-10T09:14:38Z</time>
      </trkpt>
      <trkpt lat="47.78524" lon="-3.5182">
        <ele>34.77</ele>
        <time>2020-07-10T09:14:39Z</time>
      </trkpt>
      <trkpt lat="47.78524" lon="-3.51825">
        <ele>34.8</ele>
        <time>2020-07-10T09:14:40Z</time>
      </trkpt>
      <trkpt lat="47.78524" lon="-3.51829">
        <ele>34.84</ele>
        <time>2020-07-10T09:14:41Z</time>
      </trkpt>
      <trkpt lat="47.78527" lon="-3.51833">
        <ele>34.93</ele>
        <time>2020-07-10T09:14:42Z</time>
      </trkpt>
      <trkpt lat="47.78529" lon="-3.51837">
        <ele>35.08</ele>
        <time>2020-07-10T09:14:43Z</time>
      </trkpt>
      <trkpt lat="47.7853" lon="-3.51842">
        <ele>35.22</ele>
        <time>2020-07-10T09:14:44Z</time>
      </trkpt>
      <trkpt lat="47.7853" lon="-3.51847">
        <ele>35.4</ele>
        <time>2020-07-10T09:14:45Z</time>
      </trkpt>
      <trkpt lat="47.7853" lon="-3.51853">
        <ele>35.58</ele>
        <time>2020-07-10T09:14:46Z</time>
      </trkpt>
      <trkpt lat="47.7853" lon="-3.51858">
        <ele>35.74</ele>
        <time>2020-07-10T09:14:47Z</time>
      </trkpt>
      <trkpt lat="47.7853" lon="-3.51862">
        <ele>35.86</ele>
        <time>2020-07-10T09:14:48Z</time>
      </trkpt>
      <trkpt lat="47.78532" lon="-3.51867">
        <ele>35.88</ele>
        <time>2020-07-10T09:14:49Z</time>
      </trkpt>
      <trkpt lat="47.78531" lon="-3.51872">
        <ele>35.92</ele>
        <time>2020-07-10T09:14:50Z</time>
      </trkpt>
      <trkpt lat="47.7853" lon="-3.51877">
        <ele>35.95</ele>
        <time>2020-07-10T09:14:51Z</time>
      </trkpt>
      <trkpt lat="47.7853" lon="-3.51881">
        <ele>35.97</ele>
        <time>2020-07-10T09:14:52Z</time>
      </trkpt>
      <trkpt lat="47.78531" lon="-3.51884">
        <ele>35.98</ele>
        <time>2020-07-10T09:14:53Z</time>
      </trkpt>
      <trkpt lat="47.78532" lon="-3.51886">
        <ele>35.98</ele>
        <time>2020-07-10T09:14:54Z</time>
      </trkpt>
      <trkpt lat="47.78534" lon="-3.51888">
        <ele>35.99</ele>
        <time>2020-07-10T09:14:55Z</time>
      </trkpt>
      <trkpt lat="47.78537" lon="-3.51893">
        <ele>36.06</ele>
        <time>2020-07-10T09:14:56Z</time>
      </trkpt>
      <trkpt lat="47.78539" lon="-3.51895">
        <ele>36.11</ele>
        <time>2020-07-10T09:14:57Z</time>
      </trkpt>
      <trkpt lat="47.7854" lon="-3.51899">
        <ele>36.18</ele>
        <time>2020-07-10T09:14:58Z</time>
      </trkpt>
      <trkpt lat="47.7854" lon="-3.51902">
        <ele>36.24</ele>
        <time>2020-07-10T09:14:59Z</time>
      </trkpt>
      <trkpt lat="47.78539" lon="-3.51905">
        <ele>36.31</ele>
        <time>2020-07-10T09:15:00Z</time>
      </trkpt>
      <trkpt lat="47.78539" lon="-3.51909">
        <ele>36.4</ele>
        <time>2020-07-10T09:15:01Z</time>
      </trkpt>
      <trkpt lat="47.78538" lon="-3.51913">
        <ele>36.5</ele>
        <time>2020-07-10T09:15:02Z</time>
      </trkpt>
      <trkpt lat="47.78538" lon="-3.51918">
        <ele>36.6</ele>
        <time>2020-07-10T09:15:03Z</time>
      </trkpt>
      <trkpt lat="47.78538" lon="-3.51924">
        <ele>36.61</ele>
        <time>2020-07-10T09:15:04Z</time>
      </trkpt>
      <trkpt lat="47.78539" lon="-3.51929">
        <ele>36.59</ele>
        <time>2020-07-10T09:15:05Z</time>
      </trkpt>
      <trkpt lat="47.7854" lon="-3.51934">
        <ele>36.56</ele>
        <time>2020-07-10T09:15:06Z</time>
      </trkpt>
      <trkpt lat="47.78541" lon="-3.51939">
        <ele>36.54</ele>
        <time>2020-07-10T09:15:07Z</time>
      </trkpt>
      <trkpt lat="47.78542" lon="-3.51944">
        <ele>36.51</ele>
        <time>2020-07-10T09:15:08Z</time>
      </trkpt>
      <trkpt lat="47.78542" lon="-3.51948">
        <ele>36.49</ele>
        <time>2020-07-10T09:15:09Z</time>
      </trkpt>
      <trkpt lat="47.78542" lon="-3.51953">
        <ele>36.48</ele>
        <time>2020-07-10T09:15:10Z</time>
      </trkpt>
      <trkpt lat="47.78541" lon="-3.51959">
        <ele>36.51</ele>
        <time>2020-07-10T09:15:11Z</time>
      </trkpt>
      <trkpt lat="47.78541" lon="-3.51963">
        <ele>36.52</ele>
        <time>2020-07-10T09:15:12Z</time>
      </trkpt>
      <trkpt lat="47.78541" lon="-3.51968">
        <ele>36.51</ele>
        <time>2020-07-10T09:15:13Z</time>
      </trkpt>
      <trkpt lat="47.78542" lon="-3.51973">
        <ele>36.49</ele>
        <time>2020-07-10T09:15:14Z</time>
      </trkpt>
      <trkpt lat="47.78543" lon="-3.51978">
        <ele>36.46</ele>
        <time>2020-07-10T09:15:15Z</time>
      </trkpt>
      <trkpt lat="47.78544" lon="-3.51983">
        <ele>36.44</ele>
        <time>2020-07-10T09:15:16Z</time>
      </trkpt>
      <trkpt lat="47.78543" lon="-3.51989">
        <ele>36.45</ele>
        <time>2020-07-10T09:15:17Z</time>
      </trkpt>
      <trkpt lat="47.78543" lon="-3.51995">
        <ele>36.45</ele>
        <time>2020-07-10T09:15:18Z</time>
      </trkpt>
      <trkpt lat="47.78544" lon="-3.51999">
        <ele>36.43</ele>
        <time>2020-07-10T09:15:19Z</time>
      </trkpt>
      <trkpt lat="47.78545" lon="-3.52005">
        <ele>36.39</ele>
        <time>2020-07-10T09:15:20Z</time>
      </trkpt>
      <trkpt lat="47.78546" lon="-3.5201">
        <ele>36.37</ele>
        <time>2020-07-10T09:15:21Z</time>
      </trkpt>
      <trkpt lat="47.78546" lon="-3.52015">
        <ele>36.35</ele>
        <time>2020-07-10T09:15:22Z</time>
      </trkpt>
      <trkpt lat="47.78546" lon="-3.5202">
        <ele>36.34</ele>
        <time>2020-07-10T09:15:23Z</time>
      </trkpt>
      <trkpt lat="47.78546" lon="-3.52024">
        <ele>36.35</ele>
        <time>2020-07-10T09:15:24Z</time>
      </trkpt>
      <trkpt lat="47.78545" lon="-3.52027">
        <ele>36.37</ele>
        <time>2020-07-10T09:15:25Z</time>
      </trkpt>
      <trkpt lat="47.78543" lon="-3.52029">
        <ele>36.43</ele>
        <time>2020-07-10T09:15:26Z</time>
      </trkpt>
      <trkpt lat="47.78541" lon="-3.52032">
        <ele>36.5</ele>
        <time>2020-07-10T09:15:27Z</time>
      </trkpt>
      <trkpt lat="47.78538" lon="-3.52035">
        <ele>36.59</ele>
        <time>2020-07-10T09:15:28Z</time>
      </trkpt>
      <trkpt lat="47.78536" lon="-3.52039">
        <ele>36.68</ele>
        <time>2020-07-10T09:15:29Z</time>
      </trkpt>
      <trkpt lat="47.78533" lon="-3.52045">
        <ele>36.77</ele>
        <time>2020-07-10T09:15:30Z</time>
      </trkpt>
      <trkpt lat="47.78533" lon="-3.52052">
        <ele>36.81</ele>
        <time>2020-07-10T09:15:31Z</time>
      </trkpt>
      <trkpt lat="47.78532" lon="-3.5206">
        <ele>36.74</ele>
        <time>2020-07-10T09:15:32Z</time>
      </trkpt>
      <trkpt lat="47.78531" lon="-3.52068">
        <ele>36.57</ele>
        <time>2020-07-10T09:15:33Z</time>
      </trkpt>
      <trkpt lat="47.7853" lon="-3.52077">
        <ele>36.33</ele>
        <time>2020-07-10T09:15:34Z</time>
      </trkpt>
      <trkpt lat="47.7853" lon="-3.52086">
        <ele>36.1</ele>
        <time>2020-07-10T09:15:35Z</time>
      </trkpt>
      <trkpt lat="47.78529" lon="-3.52095">
        <ele>36.03</ele>
        <time>2020-07-10T09:15:36Z</time>
      </trkpt>
      <trkpt lat="47.78529" lon="-3.52104">
        <ele>36.01</ele>
        <time>2020-07-10T09:15:37Z</time>
      </trkpt>
      <trkpt lat="47.78529" lon="-3.52113">
        <ele>35.96</ele>
        <time>2020-07-10T09:15:38Z</time>
      </trkpt>
      <trkpt lat="47.78529" lon="-3.52122">
        <ele>35.72</ele>
        <time>2020-07-10T09:15:39Z</time>
      </trkpt>
      <trkpt lat="47.7853" lon="-3.52131">
        <ele>35.44</ele>
        <time>2020-07-10T09:15:40Z</time>
      </trkpt>
      <trkpt lat="47.7853" lon="-3.5214">
        <ele>35.19</ele>
        <time>2020-07-10T09:15:41Z</time>
      </trkpt>
      <trkpt lat="47.78531" lon="-3.52149">
        <ele>35.11</ele>
        <time>2020-07-10T09:15:42Z</time>
      </trkpt>
      <trkpt lat="47.78531" lon="-3.52157">
        <ele>35.06</ele>
        <time>2020-07-10T09:15:43Z</time>
      </trkpt>
      <trkpt lat="47.78531" lon="-3.52164">
        <ele>35.03</ele>
        <time>2020-07-10T09:15:44Z</time>
      </trkpt>
      <trkpt lat="47.78532" lon="-3.52172">
        <ele>35.01</ele>
        <time>2020-07-10T09:15:45Z</time>
      </trkpt>
      <trkpt lat="47.78533" lon="-3.5218">
        <ele>35</ele>
        <time>2020-07-10T09:15:46Z</time>
      </trkpt>
      <trkpt lat="47.78533" lon="-3.52188">
        <ele>35</ele>
        <time>2020-07-10T09:15:47Z</time>
      </trkpt>
      <trkpt lat="47.78533" lon="-3.52196">
        <ele>34.95</ele>
        <time>2020-07-10T09:15:48Z</time>
      </trkpt>
      <trkpt lat="47.78533" lon="-3.52205">
        <ele>34.73</ele>
        <time>2020-07-10T09:15:49Z</time>
      </trkpt>
      <trkpt lat="47.78533" lon="-3.52213">
        <ele>34.46</ele>
        <time>2020-07-10T09:15:50Z</time>
      </trkpt>
      <trkpt lat="47.78534" lon="-3.52222">
        <ele>34.15</ele>
        <time>2020-07-10T09:15:51Z</time>
      </trkpt>
      <trkpt lat="47.78534" lon="-3.5223">
        <ele>33.89</ele>
        <time>2020-07-10T09:15:52Z</time>
      </trkpt>
      <trkpt lat="47.78534" lon="-3.52239">
        <ele>33.65</ele>
        <time>2020-07-10T09:15:53Z</time>
      </trkpt>
      <trkpt lat="47.78534" lon="-3.52248">
        <ele>33.4</ele>
        <time>2020-07-10T09:15:54Z</time>
      </trkpt>
      <trkpt lat="47.78534" lon="-3.52257">
        <ele>33.11</ele>
        <time>2020-07-10T09:15:55Z</time>
      </trkpt>
      <trkpt lat="47.78534" lon="-3.52264">
        <ele>32.83</ele>
        <time>2020-07-10T09:15:56Z</time>
      </trkpt>
      <trkpt lat="47.78532" lon="-3.5227">
        <ele>32.55</ele>
        <time>2020-07-10T09:15:57Z</time>
      </trkpt>
      <trkpt lat="47.7853" lon="-3.52275">
        <ele>32.3</ele>
        <time>2020-07-10T09:15:58Z</time>
      </trkpt>
      <trkpt lat="47.78526" lon="-3.52277">
        <ele>32.02</ele>
        <time>2020-07-10T09:15:59Z</time>
      </trkpt>
      <trkpt lat="47.78522" lon="-3.52277">
        <ele>31.73</ele>
        <time>2020-07-10T09:16:00Z</time>
      </trkpt>
      <trkpt lat="47.78517" lon="-3.52275">
        <ele>31.47</ele>
        <time>2020-07-10T09:16:01Z</time>
      </trkpt>
      <trkpt lat="47.78512" lon="-3.52274">
        <ele>31.2</ele>
        <time>2020-07-10T09:16:02Z</time>
      </trkpt>
      <trkpt lat="47.78506" lon="-3.52272">
        <ele>30.91</ele>
        <time>2020-07-10T09:16:03Z</time>
      </trkpt>
      <trkpt lat="47.785" lon="-3.52271">
        <ele>30.61</ele>
        <time>2020-07-10T09:16:04Z</time>
      </trkpt>
      <trkpt lat="47.78494" lon="-3.52269">
        <ele>30.24</ele>
        <time>2020-07-10T09:16:05Z</time>
      </trkpt>
      <trkpt lat="47.78487" lon="-3.52268">
        <ele>29.82</ele>
        <time>2020-07-10T09:16:06Z</time>
      </trkpt>
      <trkpt lat="47.78481" lon="-3.52267">
        <ele>29.33</ele>
        <time>2020-07-10T09:16:07Z</time>
      </trkpt>
      <trkpt lat="47.78473" lon="-3.52266">
        <ele>28.76</ele>
        <time>2020-07-10T09:16:08Z</time>
      </trkpt>
      <trkpt lat="47.78465" lon="-3.52265">
        <ele>28.39</ele>
        <time>2020-07-10T09:16:09Z</time>
      </trkpt>
      <trkpt lat="47.78458" lon="-3.52264">
        <ele>28.11</ele>
        <time>2020-07-10T09:16:10Z</time>
      </trkpt>
      <trkpt lat="47.78451" lon="-3.52262">
        <ele>27.88</ele>
        <time>2020-07-10T09:16:11Z</time>
      </trkpt>
      <trkpt lat="47.78444" lon="-3.52261">
        <ele>27.73</ele>
        <time>2020-07-10T09:16:12Z</time>
      </trkpt>
      <trkpt lat="47.78438" lon="-3.5226">
        <ele>28.07</ele>
        <time>2020-07-10T09:16:13Z</time>
      </trkpt>
      <trkpt lat="47.78432" lon="-3.52259">
        <ele>28.55</ele>
        <time>2020-07-10T09:16:14Z</time>
      </trkpt>
      <trkpt lat="47.78426" lon="-3.52259">
        <ele>29.02</ele>
        <time>2020-07-10T09:16:15Z</time>
      </trkpt>
      <trkpt lat="47.78421" lon="-3.52258">
        <ele>29.45</ele>
        <time>2020-07-10T09:16:16Z</time>
      </trkpt>
      <trkpt lat="47.78417" lon="-3.52258">
        <ele>29.83</ele>
        <time>2020-07-10T09:16:17Z</time>
      </trkpt>
      <trkpt lat="47.78412" lon="-3.52257">
        <ele>30.28</ele>
        <time>2020-07-10T09:16:18Z</time>
      </trkpt>
      <trkpt lat="47.78408" lon="-3.52256">
        <ele>30.74</ele>
        <time>2020-07-10T09:16:19Z</time>
      </trkpt>
      <trkpt lat="47.78404" lon="-3.52256">
        <ele>31.17</ele>
        <time>2020-07-10T09:16:20Z</time>
      </trkpt>
      <trkpt lat="47.784" lon="-3.52255">
        <ele>31.6</ele>
        <time>2020-07-10T09:16:21Z</time>
      </trkpt>
      <trkpt lat="47.78396" lon="-3.52254">
        <ele>32.04</ele>
        <time>2020-07-10T09:16:22Z</time>
      </trkpt>
      <trkpt lat="47.78392" lon="-3.52255">
        <ele>32.46</ele>
        <time>2020-07-10T09:16:23Z</time>
      </trkpt>
      <trkpt lat="47.78389" lon="-3.52255">
        <ele>32.85</ele>
        <time>2020-07-10T09:16:24Z</time>
      </trkpt>
      <trkpt lat="47.78385" lon="-3.52256">
        <ele>33.05</ele>
        <time>2020-07-10T09:16:25Z</time>
      </trkpt>
      <trkpt lat="47.78382" lon="-3.52257">
        <ele>33.2</ele>
        <time>2020-07-10T09:16:26Z</time>
      </trkpt>
      <trkpt lat="47.78378" lon="-3.52258">
        <ele>33.33</ele>
        <time>2020-07-10T09:16:27Z</time>
      </trkpt>
      <trkpt lat="47.78375" lon="-3.52259">
        <ele>33.46</ele>
        <time>2020-07-10T09:16:28Z</time>
      </trkpt>
      <trkpt lat="47.78372" lon="-3.52262">
        <ele>33.57</ele>
        <time>2020-07-10T09:16:29Z</time>
      </trkpt>
      <trkpt lat="47.78368" lon="-3.52264">
        <ele>33.69</ele>
        <time>2020-07-10T09:16:30Z</time>
      </trkpt>
      <trkpt lat="47.78365" lon="-3.52265">
        <ele>33.82</ele>
        <time>2020-07-10T09:16:31Z</time>
      </trkpt>
      <trkpt lat="47.7836" lon="-3.52267">
        <ele>33.96</ele>
        <time>2020-07-10T09:16:32Z</time>
      </trkpt>
      <trkpt lat="47.78356" lon="-3.52269">
        <ele>34.11</ele>
        <time>2020-07-10T09:16:33Z</time>
      </trkpt>
      <trkpt lat="47.78352" lon="-3.52271">
        <ele>34.26</ele>
        <time>2020-07-10T09:16:34Z</time>
      </trkpt>
      <trkpt lat="47.78348" lon="-3.52273">
        <ele>34.4</ele>
        <time>2020-07-10T09:16:35Z</time>
      </trkpt>
      <trkpt lat="47.78345" lon="-3.52274">
        <ele>34.53</ele>
        <time>2020-07-10T09:16:36Z</time>
      </trkpt>
      <trkpt lat="47.78341" lon="-3.52275">
        <ele>34.65</ele>
        <time>2020-07-10T09:16:37Z</time>
      </trkpt>
      <trkpt lat="47.78338" lon="-3.52276">
        <ele>34.78</ele>
        <time>2020-07-10T09:16:38Z</time>
      </trkpt>
      <trkpt lat="47.78334" lon="-3.52278">
        <ele>34.91</ele>
        <time>2020-07-10T09:16:39Z</time>
      </trkpt>
      <trkpt lat="47.78331" lon="-3.52279">
        <ele>35.13</ele>
        <time>2020-07-10T09:16:40Z</time>
      </trkpt>
      <trkpt lat="47.78327" lon="-3.5228">
        <ele>35.4</ele>
        <time>2020-07-10T09:16:41Z</time>
      </trkpt>
      <trkpt lat="47.78324" lon="-3.52281">
        <ele>35.66</ele>
        <time>2020-07-10T09:16:42Z</time>
      </trkpt>
      <trkpt lat="47.7832" lon="-3.52282">
        <ele>35.92</ele>
        <time>2020-07-10T09:16:43Z</time>
      </trkpt>
      <trkpt lat="47.78317" lon="-3.52285">
        <ele>36.18</ele>
        <time>2020-07-10T09:16:44Z</time>
      </trkpt>
      <trkpt lat="47.78315" lon="-3.52288">
        <ele>36.38</ele>
        <time>2020-07-10T09:16:45Z</time>
      </trkpt>
      <trkpt lat="47.78314" lon="-3.52293">
        <ele>36.52</ele>
        <time>2020-07-10T09:16:46Z</time>
      </trkpt>
      <trkpt lat="47.78312" lon="-3.52298">
        <ele>36.64</ele>
        <time>2020-07-10T09:16:47Z</time>
      </trkpt>
      <trkpt lat="47.78311" lon="-3.52304">
        <ele>36.74</ele>
        <time>2020-07-10T09:16:48Z</time>
      </trkpt>
      <trkpt lat="47.7831" lon="-3.5231">
        <ele>36.9</ele>
        <time>2020-07-10T09:16:49Z</time>
      </trkpt>
      <trkpt lat="47.78308" lon="-3.52315">
        <ele>37.13</ele>
        <time>2020-07-10T09:16:50Z</time>
      </trkpt>
      <trkpt lat="47.78306" lon="-3.5232">
        <ele>37.39</ele>
        <time>2020-07-10T09:16:51Z</time>
      </trkpt>
      <trkpt lat="47.78305" lon="-3.52327">
        <ele>37.67</ele>
        <time>2020-07-10T09:16:52Z</time>
      </trkpt>
      <trkpt lat="47.78303" lon="-3.52332">
        <ele>37.93</ele>
        <time>2020-07-10T09:16:53Z</time>
      </trkpt>
      <trkpt lat="47.78302" lon="-3.52338">
        <ele>38.08</ele>
        <time>2020-07-10T09:16:54Z</time>
      </trkpt>
      <trkpt lat="47.783" lon="-3.52344">
        <ele>38.15</ele>
        <time>2020-07-10T09:16:55Z</time>
      </trkpt>
      <trkpt lat="47.783" lon="-3.5235">
        <ele>38.2</ele>
        <time>2020-07-10T09:16:56Z</time>
      </trkpt>
      <trkpt lat="47.78298" lon="-3.52357">
        <ele>38.24</ele>
        <time>2020-07-10T09:16:57Z</time>
      </trkpt>
      <trkpt lat="47.78298" lon="-3.52363">
        <ele>38.26</ele>
        <time>2020-07-10T09:16:58Z</time>
      </trkpt>
      <trkpt lat="47.78297" lon="-3.5237">
        <ele>38.28</ele>
        <time>2020-07-10T09:16:59Z</time>
      </trkpt>
      <trkpt lat="47.78297" lon="-3.52377">
        <ele>38.31</ele>
        <time>2020-07-10T09:17:00Z</time>
      </trkpt>
      <trkpt lat="47.78295" lon="-3.52384">
        <ele>38.35</ele>
        <time>2020-07-10T09:17:01Z</time>
      </trkpt>
      <trkpt lat="47.78295" lon="-3.52392">
        <ele>38.38</ele>
        <time>2020-07-10T09:17:02Z</time>
      </trkpt>
      <trkpt lat="47.78294" lon="-3.52399">
        <ele>38.4</ele>
        <time>2020-07-10T09:17:03Z</time>
      </trkpt>
      <trkpt lat="47.78293" lon="-3.52406">
        <ele>38.44</ele>
        <time>2020-07-10T09:17:04Z</time>
      </trkpt>
      <trkpt lat="47.78292" lon="-3.52413">
        <ele>38.48</ele>
        <time>2020-07-10T09:17:05Z</time>
      </trkpt>
      <trkpt lat="47.78291" lon="-3.5242">
        <ele>38.51</ele>
        <time>2020-07-10T09:17:06Z</time>
      </trkpt>
      <trkpt lat="47.7829" lon="-3.52427">
        <ele>38.54</ele>
        <time>2020-07-10T09:17:07Z</time>
      </trkpt>
      <trkpt lat="47.7829" lon="-3.52433">
        <ele>38.56</ele>
        <time>2020-07-10T09:17:08Z</time>
      </trkpt>
      <trkpt lat="47.78289" lon="-3.5244">
        <ele>38.58</ele>
        <time>2020-07-10T09:17:09Z</time>
      </trkpt>
      <trkpt lat="47.78288" lon="-3.52447">
        <ele>38.65</ele>
        <time>2020-07-10T09:17:10Z</time>
      </trkpt>
      <trkpt lat="47.78288" lon="-3.52455">
        <ele>38.81</ele>
        <time>2020-07-10T09:17:11Z</time>
      </trkpt>
      <trkpt lat="47.78287" lon="-3.52461">
        <ele>39.01</ele>
        <time>2020-07-10T09:17:12Z</time>
      </trkpt>
      <trkpt lat="47.78286" lon="-3.52468">
        <ele>39.23</ele>
        <time>2020-07-10T09:17:13Z</time>
      </trkpt>
      <trkpt lat="47.78285" lon="-3.52475">
        <ele>39.41</ele>
        <time>2020-07-10T09:17:14Z</time>
      </trkpt>
      <trkpt lat="47.78284" lon="-3.52483">
        <ele>39.5</ele>
        <time>2020-07-10T09:17:15Z</time>
      </trkpt>
      <trkpt lat="47.78283" lon="-3.5249">
        <ele>39.57</ele>
        <time>2020-07-10T09:17:16Z</time>
      </trkpt>
      <trkpt lat="47.78283" lon="-3.52498">
        <ele>39.62</ele>
        <time>2020-07-10T09:17:17Z</time>
      </trkpt>
      <trkpt lat="47.78282" lon="-3.52505">
        <ele>39.66</ele>
        <time>2020-07-10T09:17:18Z</time>
      </trkpt>
      <trkpt lat="47.78281" lon="-3.52512">
        <ele>39.72</ele>
        <time>2020-07-10T09:17:19Z</time>
      </trkpt>
      <trkpt lat="47.7828" lon="-3.5252">
        <ele>39.79</ele>
        <time>2020-07-10T09:17:20Z</time>
      </trkpt>
      <trkpt lat="47.78279" lon="-3.52527">
        <ele>39.87</ele>
        <time>2020-07-10T09:17:21Z</time>
      </trkpt>
      <trkpt lat="47.78278" lon="-3.52534">
        <ele>39.95</ele>
        <time>2020-07-10T09:17:22Z</time>
      </trkpt>
      <trkpt lat="47.78277" lon="-3.52541">
        <ele>40.02</ele>
        <time>2020-07-10T09:17:23Z</time>
      </trkpt>
      <trkpt lat="47.78276" lon="-3.52549">
        <ele>40.09</ele>
        <time>2020-07-10T09:17:24Z</time>
      </trkpt>
      <trkpt lat="47.78275" lon="-3.52556">
        <ele>40.17</ele>
        <time>2020-07-10T09:17:25Z</time>
      </trkpt>
      <trkpt lat="47.78274" lon="-3.52563">
        <ele>40.23</ele>
        <time>2020-07-10T09:17:26Z</time>
      </trkpt>
      <trkpt lat="47.78273" lon="-3.5257">
        <ele>40.3</ele>
        <time>2020-07-10T09:17:27Z</time>
      </trkpt>
      <trkpt lat="47.78272" lon="-3.52577">
        <ele>40.37</ele>
        <time>2020-07-10T09:17:28Z</time>
      </trkpt>
      <trkpt lat="47.78271" lon="-3.52584">
        <ele>40.46</ele>
        <time>2020-07-10T09:17:29Z</time>
      </trkpt>
      <trkpt lat="47.7827" lon="-3.52591">
        <ele>40.71</ele>
        <time>2020-07-10T09:17:30Z</time>
      </trkpt>
      <trkpt lat="47.78269" lon="-3.52598">
        <ele>41.01</ele>
        <time>2020-07-10T09:17:31Z</time>
      </trkpt>
      <trkpt lat="47.78268" lon="-3.52605">
        <ele>41.32</ele>
        <time>2020-07-10T09:17:32Z</time>
      </trkpt>
      <trkpt lat="47.78268" lon="-3.52612">
        <ele>41.59</ele>
        <time>2020-07-10T09:17:33Z</time>
      </trkpt>
      <trkpt lat="47.78267" lon="-3.52619">
        <ele>41.7</ele>
        <time>2020-07-10T09:17:34Z</time>
      </trkpt>
      <trkpt lat="47.78267" lon="-3.52626">
        <ele>41.77</ele>
        <time>2020-07-10T09:17:35Z</time>
      </trkpt>
      <trkpt lat="47.78266" lon="-3.52633">
        <ele>41.82</ele>
        <time>2020-07-10T09:17:36Z</time>
      </trkpt>
      <trkpt lat="47.78265" lon="-3.5264">
        <ele>41.88</ele>
        <time>2020-07-10T09:17:37Z</time>
      </trkpt>
      <trkpt lat="47.78265" lon="-3.52648">
        <ele>41.93</ele>
        <time>2020-07-10T09:17:38Z</time>
      </trkpt>
      <trkpt lat="47.78264" lon="-3.52655">
        <ele>41.98</ele>
        <time>2020-07-10T09:17:39Z</time>
      </trkpt>
      <trkpt lat="47.78263" lon="-3.52662">
        <ele>42.03</ele>
        <time>2020-07-10T09:17:40Z</time>
      </trkpt>
      <trkpt lat="47.78262" lon="-3.52669">
        <ele>42.06</ele>
        <time>2020-07-10T09:17:41Z</time>
      </trkpt>
      <trkpt lat="47.78261" lon="-3.52675">
        <ele>42.01</ele>
        <time>2020-07-10T09:17:42Z</time>
      </trkpt>
      <trkpt lat="47.7826" lon="-3.52682">
        <ele>41.93</ele>
        <time>2020-07-10T09:17:43Z</time>
      </trkpt>
      <trkpt lat="47.78259" lon="-3.5269">
        <ele>41.82</ele>
        <time>2020-07-10T09:17:44Z</time>
      </trkpt>
      <trkpt lat="47.78258" lon="-3.52697">
        <ele>41.73</ele>
        <time>2020-07-10T09:17:45Z</time>
      </trkpt>
      <trkpt lat="47.78256" lon="-3.52703">
        <ele>41.71</ele>
        <time>2020-07-10T09:17:46Z</time>
      </trkpt>
      <trkpt lat="47.78255" lon="-3.5271">
        <ele>41.74</ele>
        <time>2020-07-10T09:17:47Z</time>
      </trkpt>
      <trkpt lat="47.78253" lon="-3.52717">
        <ele>41.79</ele>
        <time>2020-07-10T09:17:48Z</time>
      </trkpt>
      <trkpt lat="47.78251" lon="-3.52723">
        <ele>41.87</ele>
        <time>2020-07-10T09:17:49Z</time>
      </trkpt>
      <trkpt lat="47.7825" lon="-3.5273">
        <ele>41.97</ele>
        <time>2020-07-10T09:17:50Z</time>
      </trkpt>
      <trkpt lat="47.78248" lon="-3.52737">
        <ele>42.09</ele>
        <time>2020-07-10T09:17:51Z</time>
      </trkpt>
      <trkpt lat="47.78245" lon="-3.52742">
        <ele>42.17</ele>
        <time>2020-07-10T09:17:52Z</time>
      </trkpt>
      <trkpt lat="47.78243" lon="-3.52748">
        <ele>42.23</ele>
        <time>2020-07-10T09:17:53Z</time>
      </trkpt>
      <trkpt lat="47.78241" lon="-3.52754">
        <ele>42.19</ele>
        <time>2020-07-10T09:17:54Z</time>
      </trkpt>
      <trkpt lat="47.78238" lon="-3.52759">
        <ele>42.14</ele>
        <time>2020-07-10T09:17:55Z</time>
      </trkpt>
      <trkpt lat="47.78235" lon="-3.52763">
        <ele>42.11</ele>
        <time>2020-07-10T09:17:56Z</time>
      </trkpt>
      <trkpt lat="47.7823" lon="-3.52764">
        <ele>42.18</ele>
        <time>2020-07-10T09:17:57Z</time>
      </trkpt>
      <trkpt lat="47.78226" lon="-3.52764">
        <ele>42.31</ele>
        <time>2020-07-10T09:17:58Z</time>
      </trkpt>
      <trkpt lat="47.7822" lon="-3.52764">
        <ele>42.52</ele>
        <time>2020-07-10T09:17:59Z</time>
      </trkpt>
      <trkpt lat="47.78214" lon="-3.52763">
        <ele>42.74</ele>
        <time>2020-07-10T09:18:00Z</time>
      </trkpt>
      <trkpt lat="47.78208" lon="-3.52763">
        <ele>42.96</ele>
        <time>2020-07-10T09:18:01Z</time>
      </trkpt>
      <trkpt lat="47.78203" lon="-3.52762">
        <ele>43.17</ele>
        <time>2020-07-10T09:18:02Z</time>
      </trkpt>
      <trkpt lat="47.78198" lon="-3.52761">
        <ele>43.38</ele>
        <time>2020-07-10T09:18:03Z</time>
      </trkpt>
      <trkpt lat="47.78193" lon="-3.52761">
        <ele>43.57</ele>
        <time>2020-07-10T09:18:04Z</time>
      </trkpt>
      <trkpt lat="47.78188" lon="-3.52761">
        <ele>43.76</ele>
        <time>2020-07-10T09:18:05Z</time>
      </trkpt>
      <trkpt lat="47.78183" lon="-3.52761">
        <ele>43.93</ele>
        <time>2020-07-10T09:18:06Z</time>
      </trkpt>
      <trkpt lat="47.78178" lon="-3.5276">
        <ele>44.14</ele>
        <time>2020-07-10T09:18:07Z</time>
      </trkpt>
      <trkpt lat="47.78174" lon="-3.52759">
        <ele>44.33</ele>
        <time>2020-07-10T09:18:08Z</time>
      </trkpt>
      <trkpt lat="47.78169" lon="-3.52758">
        <ele>44.54</ele>
        <time>2020-07-10T09:18:09Z</time>
      </trkpt>
      <trkpt lat="47.78163" lon="-3.52757">
        <ele>44.68</ele>
        <time>2020-07-10T09:18:10Z</time>
      </trkpt>
      <trkpt lat="47.78158" lon="-3.52757">
        <ele>44.73</ele>
        <time>2020-07-10T09:18:11Z</time>
      </trkpt>
      <trkpt lat="47.78153" lon="-3.52758">
        <ele>44.73</ele>
        <time>2020-07-10T09:18:12Z</time>
      </trkpt>
      <trkpt lat="47.78149" lon="-3.52759">
        <ele>44.7</ele>
        <time>2020-07-10T09:18:13Z</time>
      </trkpt>
      <trkpt lat="47.78143" lon="-3.52761">
        <ele>44.62</ele>
        <time>2020-07-10T09:18:14Z</time>
      </trkpt>
      <trkpt lat="47.78139" lon="-3.52763">
        <ele>44.57</ele>
        <time>2020-07-10T09:18:15Z</time>
      </trkpt>
      <trkpt lat="47.78133" lon="-3.52762">
        <ele>44.56</ele>
        <time>2020-07-10T09:18:16Z</time>
      </trkpt>
      <trkpt lat="47.78129" lon="-3.52764">
        <ele>44.51</ele>
        <time>2020-07-10T09:18:17Z</time>
      </trkpt>
      <trkpt lat="47.78124" lon="-3.52765">
        <ele>44.47</ele>
        <time>2020-07-10T09:18:18Z</time>
      </trkpt>
      <trkpt lat="47.78119" lon="-3.52766">
        <ele>44.45</ele>
        <time>2020-07-10T09:18:19Z</time>
      </trkpt>
      <trkpt lat="47.78114" lon="-3.52766">
        <ele>44.43</ele>
        <time>2020-07-10T09:18:20Z</time>
      </trkpt>
      <trkpt lat="47.78108" lon="-3.52766">
        <ele>44.43</ele>
        <time>2020-07-10T09:18:21Z</time>
      </trkpt>
      <trkpt lat="47.78103" lon="-3.52766">
        <ele>44.42</ele>
        <time>2020-07-10T09:18:22Z</time>
      </trkpt>
      <trkpt lat="47.78098" lon="-3.52766">
        <ele>44.42</ele>
        <time>2020-07-10T09:18:23Z</time>
      </trkpt>
      <trkpt lat="47.78093" lon="-3.52766">
        <ele>44.42</ele>
        <time>2020-07-10T09:18:24Z</time>
      </trkpt>
      <trkpt lat="47.78088" lon="-3.52766">
        <ele>44.42</ele>
        <time>2020-07-10T09:18:25Z</time>
      </trkpt>
      <trkpt lat="47.78083" lon="-3.52766">
        <ele>44.42</ele>
        <time>2020-07-10T09:18:26Z</time>
      </trkpt>
      <trkpt lat="47.78078" lon="-3.52766">
        <ele>44.42</ele>
        <time>2020-07-10T09:18:27Z</time>
      </trkpt>
      <trkpt lat="47.78073" lon="-3.52766">
        <ele>44.42</ele>
        <time>2020-07-10T09:18:28Z</time>
      </trkpt>
      <trkpt lat="47.78068" lon="-3.52766">
        <ele>44.43</ele>
        <time>2020-07-10T09:18:29Z</time>
      </trkpt>
      <trkpt lat="47.78062" lon="-3.52765">
        <ele>44.45</ele>
        <time>2020-07-10T09:18:30Z</time>
      </trkpt>
      <trkpt lat="47.78057" lon="-3.52764">
        <ele>44.48</ele>
        <time>2020-07-10T09:18:31Z</time>
      </trkpt>
      <trkpt lat="47.78052" lon="-3.52763">
        <ele>44.46</ele>
        <time>2020-07-10T09:18:32Z</time>
      </trkpt>
      <trkpt lat="47.78046" lon="-3.52762">
        <ele>44.4</ele>
        <time>2020-07-10T09:18:33Z</time>
      </trkpt>
      <trkpt lat="47.78041" lon="-3.5276">
        <ele>44.33</ele>
        <time>2020-07-10T09:18:34Z</time>
      </trkpt>
      <trkpt lat="47.78035" lon="-3.52758">
        <ele>44.24</ele>
        <time>2020-07-10T09:18:35Z</time>
      </trkpt>
      <trkpt lat="47.7803" lon="-3.52756">
        <ele>44.12</ele>
        <time>2020-07-10T09:18:36Z</time>
      </trkpt>
      <trkpt lat="47.78025" lon="-3.52754">
        <ele>44.03</ele>
        <time>2020-07-10T09:18:37Z</time>
      </trkpt>
      <trkpt lat="47.78021" lon="-3.52753">
        <ele>43.99</ele>
        <time>2020-07-10T09:18:38Z</time>
      </trkpt>
      <trkpt lat="47.78016" lon="-3.5275">
        <ele>43.99</ele>
        <time>2020-07-10T09:18:39Z</time>
      </trkpt>
      <trkpt lat="47.78012" lon="-3.52748">
        <ele>44.02</ele>
        <time>2020-07-10T09:18:40Z</time>
      </trkpt>
      <trkpt lat="47.78007" lon="-3.52746">
        <ele>44.03</ele>
        <time>2020-07-10T09:18:41Z</time>
      </trkpt>
      <trkpt lat="47.78002" lon="-3.52745">
        <ele>44.02</ele>
        <time>2020-07-10T09:18:42Z</time>
      </trkpt>
      <trkpt lat="47.77996" lon="-3.52743">
        <ele>43.91</ele>
        <time>2020-07-10T09:18:43Z</time>
      </trkpt>
      <trkpt lat="47.77991" lon="-3.52741">
        <ele>43.74</ele>
        <time>2020-07-10T09:18:44Z</time>
      </trkpt>
      <trkpt lat="47.77985" lon="-3.52738">
        <ele>43.54</ele>
        <time>2020-07-10T09:18:45Z</time>
      </trkpt>
      <trkpt lat="47.77979" lon="-3.52736">
        <ele>43.34</ele>
        <time>2020-07-10T09:18:46Z</time>
      </trkpt>
      <trkpt lat="47.77973" lon="-3.52733">
        <ele>43.13</ele>
        <time>2020-07-10T09:18:47Z</time>
      </trkpt>
      <trkpt lat="47.77967" lon="-3.52731">
        <ele>42.91</ele>
        <time>2020-07-10T09:18:48Z</time>
      </trkpt>
      <trkpt lat="47.77961" lon="-3.52729">
        <ele>42.69</ele>
        <time>2020-07-10T09:18:49Z</time>
      </trkpt>
      <trkpt lat="47.77955" lon="-3.52727">
        <ele>42.47</ele>
        <time>2020-07-10T09:18:50Z</time>
      </trkpt>
      <trkpt lat="47.77949" lon="-3.52724">
        <ele>42.25</ele>
        <time>2020-07-10T09:18:51Z</time>
      </trkpt>
      <trkpt lat="47.77942" lon="-3.52722">
        <ele>42.07</ele>
        <time>2020-07-10T09:18:52Z</time>
      </trkpt>
      <trkpt lat="47.77936" lon="-3.5272">
        <ele>42.06</ele>
        <time>2020-07-10T09:18:53Z</time>
      </trkpt>
      <trkpt lat="47.7793" lon="-3.52718">
        <ele>42.07</ele>
        <time>2020-07-10T09:18:54Z</time>
      </trkpt>
      <trkpt lat="47.77924" lon="-3.52715">
        <ele>42.07</ele>
        <time>2020-07-10T09:18:55Z</time>
      </trkpt>
      <trkpt lat="47.77917" lon="-3.52713">
        <ele>42.03</ele>
        <time>2020-07-10T09:18:56Z</time>
      </trkpt>
      <trkpt lat="47.77911" lon="-3.5271">
        <ele>41.86</ele>
        <time>2020-07-10T09:18:57Z</time>
      </trkpt>
      <trkpt lat="47.77904" lon="-3.52708">
        <ele>41.64</ele>
        <time>2020-07-10T09:18:58Z</time>
      </trkpt>
      <trkpt lat="47.77897" lon="-3.52705">
        <ele>41.39</ele>
        <time>2020-07-10T09:18:59Z</time>
      </trkpt>
      <trkpt lat="47.7789" lon="-3.52702">
        <ele>41.15</ele>
        <time>2020-07-10T09:19:00Z</time>
      </trkpt>
      <trkpt lat="47.77883" lon="-3.52699">
        <ele>40.87</ele>
        <time>2020-07-10T09:19:01Z</time>
      </trkpt>
      <trkpt lat="47.77876" lon="-3.52695">
        <ele>40.62</ele>
        <time>2020-07-10T09:19:02Z</time>
      </trkpt>
      <trkpt lat="47.77869" lon="-3.52692">
        <ele>40.39</ele>
        <time>2020-07-10T09:19:03Z</time>
      </trkpt>
      <trkpt lat="47.77861" lon="-3.52689">
        <ele>40.12</ele>
        <time>2020-07-10T09:19:04Z</time>
      </trkpt>
      <trkpt lat="47.77854" lon="-3.52686">
        <ele>39.86</ele>
        <time>2020-07-10T09:19:05Z</time>
      </trkpt>
      <trkpt lat="47.77847" lon="-3.52684">
        <ele>39.6</ele>
        <time>2020-07-10T09:19:06Z</time>
      </trkpt>
      <trkpt lat="47.77839" lon="-3.52682">
        <ele>39.33</ele>
        <time>2020-07-10T09:19:07Z</time>
      </trkpt>
      <trkpt lat="47.77832" lon="-3.52679">
        <ele>39.05</ele>
        <time>2020-07-10T09:19:08Z</time>
      </trkpt>
      <trkpt lat="47.77825" lon="-3.52676">
        <ele>38.73</ele>
        <time>2020-07-10T09:19:09Z</time>
      </trkpt>
      <trkpt lat="47.77817" lon="-3.52673">
        <ele>38.42</ele>
        <time>2020-07-10T09:19:10Z</time>
      </trkpt>
      <trkpt lat="47.7781" lon="-3.5267">
        <ele>38.17</ele>
        <time>2020-07-10T09:19:11Z</time>
      </trkpt>
      <trkpt lat="47.77802" lon="-3.52666">
        <ele>37.97</ele>
        <time>2020-07-10T09:19:12Z</time>
      </trkpt>
      <trkpt lat="47.77795" lon="-3.52664">
        <ele>37.79</ele>
        <time>2020-07-10T09:19:13Z</time>
      </trkpt>
      <trkpt lat="47.77787" lon="-3.52661">
        <ele>37.61</ele>
        <time>2020-07-10T09:19:14Z</time>
      </trkpt>
      <trkpt lat="47.7778" lon="-3.52658">
        <ele>37.44</ele>
        <time>2020-07-10T09:19:15Z</time>
      </trkpt>
      <trkpt lat="47.77772" lon="-3.52655">
        <ele>37.28</ele>
        <time>2020-07-10T09:19:16Z</time>
      </trkpt>
      <trkpt lat="47.77765" lon="-3.52652">
        <ele>37.12</ele>
        <time>2020-07-10T09:19:17Z</time>
      </trkpt>
      <trkpt lat="47.77758" lon="-3.52649">
        <ele>36.97</ele>
        <time>2020-07-10T09:19:18Z</time>
      </trkpt>
      <trkpt lat="47.7775" lon="-3.52646">
        <ele>36.81</ele>
        <time>2020-07-10T09:19:19Z</time>
      </trkpt>
      <trkpt lat="47.77742" lon="-3.52642">
        <ele>36.44</ele>
        <time>2020-07-10T09:19:20Z</time>
      </trkpt>
      <trkpt lat="47.77734" lon="-3.52639">
        <ele>36.02</ele>
        <time>2020-07-10T09:19:21Z</time>
      </trkpt>
      <trkpt lat="47.77726" lon="-3.52636">
        <ele>35.56</ele>
        <time>2020-07-10T09:19:22Z</time>
      </trkpt>
      <trkpt lat="47.77718" lon="-3.52633">
        <ele>35.2</ele>
        <time>2020-07-10T09:19:23Z</time>
      </trkpt>
      <trkpt lat="47.7771" lon="-3.5263">
        <ele>34.97</ele>
        <time>2020-07-10T09:19:24Z</time>
      </trkpt>
      <trkpt lat="47.77701" lon="-3.52627">
        <ele>34.76</ele>
        <time>2020-07-10T09:19:25Z</time>
      </trkpt>
      <trkpt lat="47.77692" lon="-3.52624">
        <ele>34.56</ele>
        <time>2020-07-10T09:19:26Z</time>
      </trkpt>
      <trkpt lat="47.77684" lon="-3.5262">
        <ele>34.36</ele>
        <time>2020-07-10T09:19:27Z</time>
      </trkpt>
      <trkpt lat="47.77675" lon="-3.52617">
        <ele>34.17</ele>
        <time>2020-07-10T09:19:28Z</time>
      </trkpt>
      <trkpt lat="47.77667" lon="-3.52614">
        <ele>33.99</ele>
        <time>2020-07-10T09:19:29Z</time>
      </trkpt>
      <trkpt lat="47.77659" lon="-3.52611">
        <ele>34</ele>
        <time>2020-07-10T09:19:30Z</time>
      </trkpt>
      <trkpt lat="47.77651" lon="-3.52607">
        <ele>34.04</ele>
        <time>2020-07-10T09:19:31Z</time>
      </trkpt>
      <trkpt lat="47.77644" lon="-3.52603">
        <ele>34.05</ele>
        <time>2020-07-10T09:19:32Z</time>
      </trkpt>
      <trkpt lat="47.77637" lon="-3.52599">
        <ele>33.96</ele>
        <time>2020-07-10T09:19:33Z</time>
      </trkpt>
      <trkpt lat="47.7763" lon="-3.52596">
        <ele>33.76</ele>
        <time>2020-07-10T09:19:34Z</time>
      </trkpt>
      <trkpt lat="47.77624" lon="-3.52593">
        <ele>33.56</ele>
        <time>2020-07-10T09:19:35Z</time>
      </trkpt>
      <trkpt lat="47.7762" lon="-3.52593">
        <ele>33.38</ele>
        <time>2020-07-10T09:19:36Z</time>
      </trkpt>
      <trkpt lat="47.77615" lon="-3.52596">
        <ele>33.22</ele>
        <time>2020-07-10T09:19:37Z</time>
      </trkpt>
      <trkpt lat="47.77612" lon="-3.52601">
        <ele>33.08</ele>
        <time>2020-07-10T09:19:38Z</time>
      </trkpt>
      <trkpt lat="47.77611" lon="-3.52609">
        <ele>33.03</ele>
        <time>2020-07-10T09:19:39Z</time>
      </trkpt>
      <trkpt lat="47.77612" lon="-3.52618">
        <ele>33.02</ele>
        <time>2020-07-10T09:19:40Z</time>
      </trkpt>
      <trkpt lat="47.77612" lon="-3.52627">
        <ele>33.02</ele>
        <time>2020-07-10T09:19:41Z</time>
      </trkpt>
      <trkpt lat="47.77612" lon="-3.52636">
        <ele>33.01</ele>
        <time>2020-07-10T09:19:42Z</time>
      </trkpt>
      <trkpt lat="47.77612" lon="-3.52644">
        <ele>32.86</ele>
        <time>2020-07-10T09:19:43Z</time>
      </trkpt>
      <trkpt lat="47.77612" lon="-3.52653">
        <ele>32.6</ele>
        <time>2020-07-10T09:19:44Z</time>
      </trkpt>
      <trkpt lat="47.77611" lon="-3.52662">
        <ele>32.29</ele>
        <time>2020-07-10T09:19:45Z</time>
      </trkpt>
      <trkpt lat="47.77612" lon="-3.52671">
        <ele>32.09</ele>
        <time>2020-07-10T09:19:46Z</time>
      </trkpt>
      <trkpt lat="47.77612" lon="-3.52679">
        <ele>32.01</ele>
        <time>2020-07-10T09:19:47Z</time>
      </trkpt>
      <trkpt lat="47.77612" lon="-3.52688">
        <ele>31.98</ele>
        <time>2020-07-10T09:19:48Z</time>
      </trkpt>
      <trkpt lat="47.77612" lon="-3.52696">
        <ele>31.89</ele>
        <time>2020-07-10T09:19:49Z</time>
      </trkpt>
      <trkpt lat="47.77611" lon="-3.52704">
        <ele>31.48</ele>
        <time>2020-07-10T09:19:50Z</time>
      </trkpt>
      <trkpt lat="47.77611" lon="-3.52711">
        <ele>30.99</ele>
        <time>2020-07-10T09:19:51Z</time>
      </trkpt>
      <trkpt lat="47.77608" lon="-3.52718">
        <ele>30.51</ele>
        <time>2020-07-10T09:19:52Z</time>
      </trkpt>
      <trkpt lat="47.77604" lon="-3.52722">
        <ele>30.16</ele>
        <time>2020-07-10T09:19:53Z</time>
      </trkpt>
      <trkpt lat="47.77599" lon="-3.52723">
        <ele>30.01</ele>
        <time>2020-07-10T09:19:54Z</time>
      </trkpt>
      <trkpt lat="47.77594" lon="-3.52722">
        <ele>29.99</ele>
        <time>2020-07-10T09:19:55Z</time>
      </trkpt>
      <trkpt lat="47.77589" lon="-3.52721">
        <ele>30.02</ele>
        <time>2020-07-10T09:19:56Z</time>
      </trkpt>
      <trkpt lat="47.77583" lon="-3.5272">
        <ele>30.05</ele>
        <time>2020-07-10T09:19:57Z</time>
      </trkpt>
      <trkpt lat="47.77578" lon="-3.52719">
        <ele>29.81</ele>
        <time>2020-07-10T09:19:58Z</time>
      </trkpt>
      <trkpt lat="47.77572" lon="-3.52718">
        <ele>29.46</ele>
        <time>2020-07-10T09:19:59Z</time>
      </trkpt>
      <trkpt lat="47.77566" lon="-3.52718">
        <ele>29.08</ele>
        <time>2020-07-10T09:20:00Z</time>
      </trkpt>
      <trkpt lat="47.77559" lon="-3.52717">
        <ele>28.67</ele>
        <time>2020-07-10T09:20:01Z</time>
      </trkpt>
      <trkpt lat="47.77553" lon="-3.52715">
        <ele>28.2</ele>
        <time>2020-07-10T09:20:02Z</time>
      </trkpt>
      <trkpt lat="47.77546" lon="-3.52714">
        <ele>27.64</ele>
        <time>2020-07-10T09:20:03Z</time>
      </trkpt>
      <trkpt lat="47.77539" lon="-3.52713">
        <ele>27.02</ele>
        <time>2020-07-10T09:20:04Z</time>
      </trkpt>
      <trkpt lat="47.77532" lon="-3.52713">
        <ele>26.37</ele>
        <time>2020-07-10T09:20:05Z</time>
      </trkpt>
      <trkpt lat="47.77524" lon="-3.52712">
        <ele>25.8</ele>
        <time>2020-07-10T09:20:06Z</time>
      </trkpt>
      <trkpt lat="47.77516" lon="-3.52711">
        <ele>25.37</ele>
        <time>2020-07-10T09:20:07Z</time>
      </trkpt>
      <trkpt lat="47.77508" lon="-3.52711">
        <ele>24.98</ele>
        <time>2020-07-10T09:20:08Z</time>
      </trkpt>
      <trkpt lat="47.77499" lon="-3.5271">
        <ele>24.58</ele>
        <time>2020-07-10T09:20:09Z</time>
      </trkpt>
      <trkpt lat="47.7749" lon="-3.52709">
        <ele>24.27</ele>
        <time>2020-07-10T09:20:10Z</time>
      </trkpt>
      <trkpt lat="47.77482" lon="-3.52708">
        <ele>24</ele>
        <time>2020-07-10T09:20:11Z</time>
      </trkpt>
      <trkpt lat="47.77474" lon="-3.52706">
        <ele>23.75</ele>
        <time>2020-07-10T09:20:12Z</time>
      </trkpt>
      <trkpt lat="47.77466" lon="-3.52705">
        <ele>23.87</ele>
        <time>2020-07-10T09:20:13Z</time>
      </trkpt>
      <trkpt lat="47.77459" lon="-3.52704">
        <ele>24.18</ele>
        <time>2020-07-10T09:20:14Z</time>
      </trkpt>
      <trkpt lat="47.77451" lon="-3.52702">
        <ele>24.53</ele>
        <time>2020-07-10T09:20:15Z</time>
      </trkpt>
      <trkpt lat="47.77444" lon="-3.52702">
        <ele>24.86</ele>
        <time>2020-07-10T09:20:16Z</time>
      </trkpt>
      <trkpt lat="47.77438" lon="-3.52701">
        <ele>25</ele>
        <time>2020-07-10T09:20:17Z</time>
      </trkpt>
      <trkpt lat="47.77432" lon="-3.52701">
        <ele>25.07</ele>
        <time>2020-07-10T09:20:18Z</time>
      </trkpt>
      <trkpt lat="47.77426" lon="-3.527">
        <ele>25.11</ele>
        <time>2020-07-10T09:20:19Z</time>
      </trkpt>
      <trkpt lat="47.77421" lon="-3.527">
        <ele>25.14</ele>
        <time>2020-07-10T09:20:20Z</time>
      </trkpt>
      <trkpt lat="47.77416" lon="-3.52699">
        <ele>25.15</ele>
        <time>2020-07-10T09:20:21Z</time>
      </trkpt>
      <trkpt lat="47.77412" lon="-3.52699">
        <ele>25.03</ele>
        <time>2020-07-10T09:20:22Z</time>
      </trkpt>
      <trkpt lat="47.77409" lon="-3.527">
        <ele>24.93</ele>
        <time>2020-07-10T09:20:23Z</time>
      </trkpt>
      <trkpt lat="47.77406" lon="-3.527">
        <ele>24.79</ele>
        <time>2020-07-10T09:20:24Z</time>
      </trkpt>
      <trkpt lat="47.77401" lon="-3.52699">
        <ele>24.6</ele>
        <time>2020-07-10T09:20:25Z</time>
      </trkpt>
      <trkpt lat="47.77395" lon="-3.52699">
        <ele>24.36</ele>
        <time>2020-07-10T09:20:26Z</time>
      </trkpt>
      <trkpt lat="47.77389" lon="-3.52698">
        <ele>24.11</ele>
        <time>2020-07-10T09:20:27Z</time>
      </trkpt>
      <trkpt lat="47.77382" lon="-3.52697">
        <ele>23.55</ele>
        <time>2020-07-10T09:20:28Z</time>
      </trkpt>
      <trkpt lat="47.77376" lon="-3.52698">
        <ele>22.9</ele>
        <time>2020-07-10T09:20:29Z</time>
      </trkpt>
      <trkpt lat="47.77369" lon="-3.52698">
        <ele>22.19</ele>
        <time>2020-07-10T09:20:30Z</time>
      </trkpt>
      <trkpt lat="47.77363" lon="-3.52698">
        <ele>21.48</ele>
        <time>2020-07-10T09:20:31Z</time>
      </trkpt>
      <trkpt lat="47.77356" lon="-3.52695">
        <ele>20.77</ele>
        <time>2020-07-10T09:20:32Z</time>
      </trkpt>
      <trkpt lat="47.77349" lon="-3.52692">
        <ele>20.08</ele>
        <time>2020-07-10T09:20:33Z</time>
      </trkpt>
      <trkpt lat="47.77343" lon="-3.52688">
        <ele>19.44</ele>
        <time>2020-07-10T09:20:34Z</time>
      </trkpt>
      <trkpt lat="47.77336" lon="-3.52684">
        <ele>18.85</ele>
        <time>2020-07-10T09:20:35Z</time>
      </trkpt>
      <trkpt lat="47.77328" lon="-3.52681">
        <ele>18.21</ele>
        <time>2020-07-10T09:20:36Z</time>
      </trkpt>
      <trkpt lat="47.7732" lon="-3.52678">
        <ele>17.5</ele>
        <time>2020-07-10T09:20:37Z</time>
      </trkpt>
      <trkpt lat="47.77313" lon="-3.52676">
        <ele>16.74</ele>
        <time>2020-07-10T09:20:38Z</time>
      </trkpt>
      <trkpt lat="47.77305" lon="-3.52675">
        <ele>15.9</ele>
        <time>2020-07-10T09:20:39Z</time>
      </trkpt>
      <trkpt lat="47.77296" lon="-3.52676">
        <ele>14.9</ele>
        <time>2020-07-10T09:20:40Z</time>
      </trkpt>
      <trkpt lat="47.77289" lon="-3.52676">
        <ele>13.87</ele>
        <time>2020-07-10T09:20:41Z</time>
      </trkpt>
      <trkpt lat="47.77281" lon="-3.52677">
        <ele>12.85</ele>
        <time>2020-07-10T09:20:42Z</time>
      </trkpt>
      <trkpt lat="47.77274" lon="-3.52678">
        <ele>11.84</ele>
        <time>2020-07-10T09:20:43Z</time>
      </trkpt>
      <trkpt lat="47.77267" lon="-3.52678">
        <ele>10.87</ele>
        <time>2020-07-10T09:20:44Z</time>
      </trkpt>
      <trkpt lat="47.77263" lon="-3.52677">
        <ele>10.03</ele>
        <time>2020-07-10T09:20:45Z</time>
      </trkpt>
      <trkpt lat="47.77257" lon="-3.52677">
        <ele>9.22</ele>
        <time>2020-07-10T09:20:46Z</time>
      </trkpt>
      <trkpt lat="47.77253" lon="-3.52678">
        <ele>8.5</ele>
        <time>2020-07-10T09:20:47Z</time>
      </trkpt>
      <trkpt lat="47.77249" lon="-3.52681">
        <ele>8.09</ele>
        <time>2020-07-10T09:20:48Z</time>
      </trkpt>
      <trkpt lat="47.77246" lon="-3.52686">
        <ele>8.11</ele>
        <time>2020-07-10T09:20:49Z</time>
      </trkpt>
      <trkpt lat="47.77245" lon="-3.52693">
        <ele>8.4</ele>
        <time>2020-07-10T09:20:50Z</time>
      </trkpt>
      <trkpt lat="47.77245" lon="-3.52699">
        <ele>8.89</ele>
        <time>2020-07-10T09:20:51Z</time>
      </trkpt>
      <trkpt lat="47.77245" lon="-3.52705">
        <ele>9.43</ele>
        <time>2020-07-10T09:20:52Z</time>
      </trkpt>
      <trkpt lat="47.77245" lon="-3.52712">
        <ele>9.99</ele>
        <time>2020-07-10T09:20:53Z</time>
      </trkpt>
      <trkpt lat="47.77245" lon="-3.52718">
        <ele>10.59</ele>
        <time>2020-07-10T09:20:54Z</time>
      </trkpt>
      <trkpt lat="47.77244" lon="-3.52725">
        <ele>11.04</ele>
        <time>2020-07-10T09:20:55Z</time>
      </trkpt>
      <trkpt lat="47.77244" lon="-3.52732">
        <ele>11.22</ele>
        <time>2020-07-10T09:20:56Z</time>
      </trkpt>
      <trkpt lat="47.77243" lon="-3.5274">
        <ele>11.35</ele>
        <time>2020-07-10T09:20:57Z</time>
      </trkpt>
      <trkpt lat="47.77243" lon="-3.52748">
        <ele>11.46</ele>
        <time>2020-07-10T09:20:58Z</time>
      </trkpt>
      <trkpt lat="47.77242" lon="-3.52756">
        <ele>11.38</ele>
        <time>2020-07-10T09:20:59Z</time>
      </trkpt>
      <trkpt lat="47.77242" lon="-3.52764">
        <ele>11.15</ele>
        <time>2020-07-10T09:21:00Z</time>
      </trkpt>
      <trkpt lat="47.77242" lon="-3.52773">
        <ele>10.89</ele>
        <time>2020-07-10T09:21:01Z</time>
      </trkpt>
      <trkpt lat="47.77241" lon="-3.52781">
        <ele>10.49</ele>
        <time>2020-07-10T09:21:02Z</time>
      </trkpt>
      <trkpt lat="47.77243" lon="-3.5279">
        <ele>9.8</ele>
        <time>2020-07-10T09:21:03Z</time>
      </trkpt>
      <trkpt lat="47.77246" lon="-3.52798">
        <ele>9.07</ele>
        <time>2020-07-10T09:21:04Z</time>
      </trkpt>
      <trkpt lat="47.77252" lon="-3.52803">
        <ele>8.53</ele>
        <time>2020-07-10T09:21:05Z</time>
      </trkpt>
      <trkpt lat="47.77258" lon="-3.52806">
        <ele>8.35</ele>
        <time>2020-07-10T09:21:06Z</time>
      </trkpt>
      <trkpt lat="47.77263" lon="-3.52809">
        <ele>8.09</ele>
        <time>2020-07-10T09:21:07Z</time>
      </trkpt>
      <trkpt lat="47.77268" lon="-3.52813">
        <ele>7.78</ele>
        <time>2020-07-10T09:21:08Z</time>
      </trkpt>
      <trkpt lat="47.77272" lon="-3.52816">
        <ele>7.38</ele>
        <time>2020-07-10T09:21:09Z</time>
      </trkpt>
      <trkpt lat="47.77275" lon="-3.52821">
        <ele>6.87</ele>
        <time>2020-07-10T09:21:10Z</time>
      </trkpt>
      <trkpt lat="47.77277" lon="-3.52827">
        <ele>6.16</ele>
        <time>2020-07-10T09:21:11Z</time>
      </trkpt>
      <trkpt lat="47.77277" lon="-3.52834">
        <ele>5.3</ele>
        <time>2020-07-10T09:21:12Z</time>
      </trkpt>
      <trkpt lat="47.77274" lon="-3.5284">
        <ele>4.84</ele>
        <time>2020-07-10T09:21:13Z</time>
      </trkpt>
      <trkpt lat="47.7727" lon="-3.52845">
        <ele>4.53</ele>
        <time>2020-07-10T09:21:14Z</time>
      </trkpt>
      <trkpt lat="47.77266" lon="-3.52851">
        <ele>4.3</ele>
        <time>2020-07-10T09:21:15Z</time>
      </trkpt>
      <trkpt lat="47.77263" lon="-3.52857">
        <ele>4.14</ele>
        <time>2020-07-10T09:21:16Z</time>
      </trkpt>
      <trkpt lat="47.77261" lon="-3.52863">
        <ele>4</ele>
        <time>2020-07-10T09:21:17Z</time>
      </trkpt>
      <trkpt lat="47.77259" lon="-3.52868">
        <ele>3.82</ele>
        <time>2020-07-10T09:21:18Z</time>
      </trkpt>
      <trkpt lat="47.77257" lon="-3.52873">
        <ele>3.64</ele>
        <time>2020-07-10T09:21:19Z</time>
      </trkpt>
      <trkpt lat="47.77255" lon="-3.52877">
        <ele>3.48</ele>
        <time>2020-07-10T09:21:20Z</time>
      </trkpt>
      <trkpt lat="47.77252" lon="-3.5288">
        <ele>3.37</ele>
        <time>2020-07-10T09:21:21Z</time>
      </trkpt>
      <trkpt lat="47.77248" lon="-3.52881">
        <ele>3.27</ele>
        <time>2020-07-10T09:21:22Z</time>
      </trkpt>
      <trkpt lat="47.77245" lon="-3.52881">
        <ele>3.16</ele>
        <time>2020-07-10T09:21:23Z</time>
      </trkpt>
      <trkpt lat="47.77241" lon="-3.52879">
        <ele>3.09</ele>
        <time>2020-07-10T09:21:24Z</time>
      </trkpt>
      <trkpt lat="47.77237" lon="-3.52876">
        <ele>3.04</ele>
        <time>2020-07-10T09:21:25Z</time>
      </trkpt>
      <trkpt lat="47.77233" lon="-3.52872">
        <ele>3.01</ele>
        <time>2020-07-10T09:21:26Z</time>
      </trkpt>
      <trkpt lat="47.7723" lon="-3.52869">
        <ele>2.98</ele>
        <time>2020-07-10T09:21:27Z</time>
      </trkpt>
      <trkpt lat="47.77227" lon="-3.52866">
        <ele>2.97</ele>
        <time>2020-07-10T09:21:28Z</time>
      </trkpt>
      <trkpt lat="47.77223" lon="-3.52864">
        <ele>2.94</ele>
        <time>2020-07-10T09:21:29Z</time>
      </trkpt>
      <trkpt lat="47.7722" lon="-3.52861">
        <ele>2.79</ele>
        <time>2020-07-10T09:21:30Z</time>
      </trkpt>
      <trkpt lat="47.77216" lon="-3.52858">
        <ele>2.7</ele>
        <time>2020-07-10T09:21:31Z</time>
      </trkpt>
      <trkpt lat="47.77214" lon="-3.52853">
        <ele>2.76</ele>
        <time>2020-07-10T09:21:32Z</time>
      </trkpt>
      <trkpt lat="47.77214" lon="-3.5285">
        <ele>3.02</ele>
        <time>2020-07-10T09:21:33Z</time>
      </trkpt>
      <trkpt lat="47.77215" lon="-3.52847">
        <ele>3.38</ele>
        <time>2020-07-10T09:21:34Z</time>
      </trkpt>
      <trkpt lat="47.77217" lon="-3.52845">
        <ele>3.82</ele>
        <time>2020-07-10T09:21:35Z</time>
      </trkpt>
      <trkpt lat="47.7722" lon="-3.52842">
        <ele>4.39</ele>
        <time>2020-07-10T09:21:36Z</time>
      </trkpt>
      <trkpt lat="47.77221" lon="-3.52839">
        <ele>5.01</ele>
        <time>2020-07-10T09:21:37Z</time>
      </trkpt>
      <trkpt lat="47.77222" lon="-3.52835">
        <ele>5.56</ele>
        <time>2020-07-10T09:21:38Z</time>
      </trkpt>
      <trkpt lat="47.77222" lon="-3.52832">
        <ele>5.94</ele>
        <time>2020-07-10T09:21:39Z</time>
      </trkpt>
      <trkpt lat="47.77221" lon="-3.52828">
        <ele>6.17</ele>
        <time>2020-07-10T09:21:40Z</time>
      </trkpt>
      <trkpt lat="47.77219" lon="-3.52825">
        <ele>6.29</ele>
        <time>2020-07-10T09:21:41Z</time>
      </trkpt>
      <trkpt lat="47.77217" lon="-3.52822">
        <ele>6.29</ele>
        <time>2020-07-10T09:21:42Z</time>
      </trkpt>
      <trkpt lat="47.77215" lon="-3.52819">
        <ele>6.17</ele>
        <time>2020-07-10T09:21:43Z</time>
      </trkpt>
      <trkpt lat="47.77212" lon="-3.52816">
        <ele>5.99</ele>
        <time>2020-07-10T09:21:44Z</time>
      </trkpt>
      <trkpt lat="47.7721" lon="-3.52811">
        <ele>5.93</ele>
        <time>2020-07-10T09:21:45Z</time>
      </trkpt>
      <trkpt lat="47.77208" lon="-3.52807">
        <ele>5.82</ele>
        <time>2020-07-10T09:21:46Z</time>
      </trkpt>
      <trkpt lat="47.77206" lon="-3.52803">
        <ele>5.76</ele>
        <time>2020-07-10T09:21:47Z</time>
      </trkpt>
      <trkpt lat="47.77204" lon="-3.528">
        <ele>5.77</ele>
        <time>2020-07-10T09:21:48Z</time>
      </trkpt>
      <trkpt lat="47.77203" lon="-3.52796">
        <ele>5.85</ele>
        <time>2020-07-10T09:21:49Z</time>
      </trkpt>
      <trkpt lat="47.77201" lon="-3.52791">
        <ele>5.86</ele>
        <time>2020-07-10T09:21:50Z</time>
      </trkpt>
      <trkpt lat="47.77198" lon="-3.52787">
        <ele>5.87</ele>
        <time>2020-07-10T09:21:51Z</time>
      </trkpt>
      <trkpt lat="47.77197" lon="-3.52783">
        <ele>5.94</ele>
        <time>2020-07-10T09:21:52Z</time>
      </trkpt>
      <trkpt lat="47.77195" lon="-3.52779">
        <ele>6</ele>
        <time>2020-07-10T09:21:53Z</time>
      </trkpt>
      <trkpt lat="47.77194" lon="-3.52776">
        <ele>6.01</ele>
        <time>2020-07-10T09:21:54Z</time>
      </trkpt>
      <trkpt lat="47.77193" lon="-3.52773">
        <ele>5.92</ele>
        <time>2020-07-10T09:21:55Z</time>
      </trkpt>
      <trkpt lat="47.7719" lon="-3.52769">
        <ele>5.71</ele>
        <time>2020-07-10T09:21:56Z</time>
      </trkpt>
      <trkpt lat="47.77188" lon="-3.52764">
        <ele>5.53</ele>
        <time>2020-07-10T09:21:57Z</time>
      </trkpt>
      <trkpt lat="47.77186" lon="-3.5276">
        <ele>5.4</ele>
        <time>2020-07-10T09:21:58Z</time>
      </trkpt>
      <trkpt lat="47.77184" lon="-3.52755">
        <ele>5.28</ele>
        <time>2020-07-10T09:21:59Z</time>
      </trkpt>
      <trkpt lat="47.77181" lon="-3.52751">
        <ele>5.14</ele>
        <time>2020-07-10T09:22:00Z</time>
      </trkpt>
      <trkpt lat="47.77178" lon="-3.52747">
        <ele>4.9</ele>
        <time>2020-07-10T09:22:01Z</time>
      </trkpt>
      <trkpt lat="47.77175" lon="-3.52741">
        <ele>4.69</ele>
        <time>2020-07-10T09:22:02Z</time>
      </trkpt>
      <trkpt lat="47.77172" lon="-3.52736">
        <ele>4.56</ele>
        <time>2020-07-10T09:22:03Z</time>
      </trkpt>
      <trkpt lat="47.77169" lon="-3.52731">
        <ele>4.54</ele>
        <time>2020-07-10T09:22:04Z</time>
      </trkpt>
      <trkpt lat="47.77166" lon="-3.52727">
        <ele>4.6</ele>
        <time>2020-07-10T09:22:05Z</time>
      </trkpt>
      <trkpt lat="47.77164" lon="-3.52722">
        <ele>4.56</ele>
        <time>2020-07-10T09:22:06Z</time>
      </trkpt>
      <trkpt lat="47.77161" lon="-3.52718">
        <ele>4.32</ele>
        <time>2020-07-10T09:22:07Z</time>
      </trkpt>
      <trkpt lat="47.77158" lon="-3.52712">
        <ele>4.06</ele>
        <time>2020-07-10T09:22:08Z</time>
      </trkpt>
      <trkpt lat="47.77155" lon="-3.52707">
        <ele>3.9</ele>
        <time>2020-07-10T09:22:09Z</time>
      </trkpt>
      <trkpt lat="47.77153" lon="-3.52702">
        <ele>3.82</ele>
        <time>2020-07-10T09:22:10Z</time>
      </trkpt>
      <trkpt lat="47.77152" lon="-3.52696">
        <ele>3.83</ele>
        <time>2020-07-10T09:22:11Z</time>
      </trkpt>
      <trkpt lat="47.77149" lon="-3.52691">
        <ele>3.81</ele>
        <time>2020-07-10T09:22:12Z</time>
      </trkpt>
      <trkpt lat="47.77146" lon="-3.52687">
        <ele>3.75</ele>
        <time>2020-07-10T09:22:13Z</time>
      </trkpt>
      <trkpt lat="47.77143" lon="-3.52682">
        <ele>3.72</ele>
        <time>2020-07-10T09:22:14Z</time>
      </trkpt>
      <trkpt lat="47.77141" lon="-3.52676">
        <ele>3.74</ele>
        <time>2020-07-10T09:22:15Z</time>
      </trkpt>
      <trkpt lat="47.77137" lon="-3.52672">
        <ele>3.71</ele>
        <time>2020-07-10T09:22:16Z</time>
      </trkpt>
      <trkpt lat="47.77134" lon="-3.52666">
        <ele>3.68</ele>
        <time>2020-07-10T09:22:17Z</time>
      </trkpt>
      <trkpt lat="47.77131" lon="-3.52661">
        <ele>3.69</ele>
        <time>2020-07-10T09:22:18Z</time>
      </trkpt>
      <trkpt lat="47.77128" lon="-3.52656">
        <ele>3.75</ele>
        <time>2020-07-10T09:22:19Z</time>
      </trkpt>
      <trkpt lat="47.77125" lon="-3.52652">
        <ele>3.79</ele>
        <time>2020-07-10T09:22:20Z</time>
      </trkpt>
      <trkpt lat="47.77122" lon="-3.52648">
        <ele>3.87</ele>
        <time>2020-07-10T09:22:21Z</time>
      </trkpt>
      <trkpt lat="47.7712" lon="-3.52644">
        <ele>3.98</ele>
        <time>2020-07-10T09:22:22Z</time>
      </trkpt>
      <trkpt lat="47.77118" lon="-3.5264">
        <ele>4.13</ele>
        <time>2020-07-10T09:22:23Z</time>
      </trkpt>
      <trkpt lat="47.77116" lon="-3.52635">
        <ele>4.36</ele>
        <time>2020-07-10T09:22:24Z</time>
      </trkpt>
      <trkpt lat="47.77113" lon="-3.52631">
        <ele>4.61</ele>
        <time>2020-07-10T09:22:25Z</time>
      </trkpt>
      <trkpt lat="47.7711" lon="-3.52627">
        <ele>4.75</ele>
        <time>2020-07-10T09:22:26Z</time>
      </trkpt>
      <trkpt lat="47.77108" lon="-3.52623">
        <ele>4.78</ele>
        <time>2020-07-10T09:22:27Z</time>
      </trkpt>
      <trkpt lat="47.77105" lon="-3.52618">
        <ele>4.81</ele>
        <time>2020-07-10T09:22:28Z</time>
      </trkpt>
      <trkpt lat="47.77102" lon="-3.52613">
        <ele>4.87</ele>
        <time>2020-07-10T09:22:29Z</time>
      </trkpt>
      <trkpt lat="47.771" lon="-3.52609">
        <ele>5.03</ele>
        <time>2020-07-10T09:22:30Z</time>
      </trkpt>
      <trkpt lat="47.77097" lon="-3.52603">
        <ele>5.33</ele>
        <time>2020-07-10T09:22:31Z</time>
      </trkpt>
      <trkpt lat="47.77095" lon="-3.52598">
        <ele>5.71</ele>
        <time>2020-07-10T09:22:32Z</time>
      </trkpt>
      <trkpt lat="47.77092" lon="-3.52593">
        <ele>6.02</ele>
        <time>2020-07-10T09:22:33Z</time>
      </trkpt>
      <trkpt lat="47.77089" lon="-3.52588">
        <ele>6.26</ele>
        <time>2020-07-10T09:22:34Z</time>
      </trkpt>
      <trkpt lat="47.77087" lon="-3.52583">
        <ele>6.45</ele>
        <time>2020-07-10T09:22:35Z</time>
      </trkpt>
      <trkpt lat="47.77084" lon="-3.52577">
        <ele>6.48</ele>
        <time>2020-07-10T09:22:36Z</time>
      </trkpt>
      <trkpt lat="47.77081" lon="-3.52573">
        <ele>6.52</ele>
        <time>2020-07-10T09:22:37Z</time>
      </trkpt>
      <trkpt lat="47.77078" lon="-3.52568">
        <ele>6.65</ele>
        <time>2020-07-10T09:22:38Z</time>
      </trkpt>
      <trkpt lat="47.77076" lon="-3.52564">
        <ele>6.79</ele>
        <time>2020-07-10T09:22:39Z</time>
      </trkpt>
      <trkpt lat="47.77073" lon="-3.5256">
        <ele>6.88</ele>
        <time>2020-07-10T09:22:40Z</time>
      </trkpt>
      <trkpt lat="47.7707" lon="-3.52556">
        <ele>6.96</ele>
        <time>2020-07-10T09:22:41Z</time>
      </trkpt>
      <trkpt lat="47.77067" lon="-3.52552">
        <ele>7.02</ele>
        <time>2020-07-10T09:22:42Z</time>
      </trkpt>
      <trkpt lat="47.77064" lon="-3.52547">
        <ele>7.02</ele>
        <time>2020-07-10T09:22:43Z</time>
      </trkpt>
      <trkpt lat="47.77061" lon="-3.52543">
        <ele>6.97</ele>
        <time>2020-07-10T09:22:44Z</time>
      </trkpt>
      <trkpt lat="47.77059" lon="-3.52539">
        <ele>6.91</ele>
        <time>2020-07-10T09:22:45Z</time>
      </trkpt>
      <trkpt lat="47.77056" lon="-3.52535">
        <ele>6.81</ele>
        <time>2020-07-10T09:22:46Z</time>
      </trkpt>
      <trkpt lat="47.77053" lon="-3.52532">
        <ele>6.77</ele>
        <time>2020-07-10T09:22:47Z</time>
      </trkpt>
      <trkpt lat="47.7705" lon="-3.52529">
        <ele>6.76</ele>
        <time>2020-07-10T09:22:48Z</time>
      </trkpt>
      <trkpt lat="47.77047" lon="-3.52526">
        <ele>6.73</ele>
        <time>2020-07-10T09:22:49Z</time>
      </trkpt>
      <trkpt lat="47.77043" lon="-3.52524">
        <ele>6.67</ele>
        <time>2020-07-10T09:22:50Z</time>
      </trkpt>
      <trkpt lat="47.77041" lon="-3.52522">
        <ele>6.6</ele>
        <time>2020-07-10T09:22:51Z</time>
      </trkpt>
      <trkpt lat="47.77038" lon="-3.5252">
        <ele>6.52</ele>
        <time>2020-07-10T09:22:52Z</time>
      </trkpt>
      <trkpt lat="47.77037" lon="-3.5252">
        <ele>6.47</ele>
        <time>2020-07-10T09:22:53Z</time>
      </trkpt>
      <trkpt lat="47.77038" lon="-3.5252">
        <ele>6.46</ele>
        <time>2020-07-10T09:22:54Z</time>
      </trkpt>
      <trkpt lat="47.77038" lon="-3.5252">
        <ele>6.47</ele>
        <time>2020-07-10T09:22:55Z</time>
      </trkpt>
      <trkpt lat="47.77038" lon="-3.5252">
        <ele>6.47</ele>
        <time>2020-07-10T09:22:56Z</time>
      </trkpt>
      <trkpt lat="47.77038" lon="-3.5252">
        <ele>6.47</ele>
        <time>2020-07-10T09:22:57Z</time>
      </trkpt>
      <trkpt lat="47.77038" lon="-3.5252">
        <ele>6.47</ele>
        <time>2020-07-10T09:22:58Z</time>
      </trkpt>
      <trkpt lat="47.77038" lon="-3.5252">
        <ele>6.47</ele>
        <time>2020-07-10T09:22:59Z</time>
      </trkpt>
      <trkpt lat="47.77038" lon="-3.5252">
        <ele>6.47</ele>
        <time>2020-07-10T09:23:00Z</time>
      </trkpt>
      <trkpt lat="47.77038" lon="-3.5252">
        <ele>6.47</ele>
        <time>2020-07-10T09:23:01Z</time>
      </trkpt>
      <trkpt lat="47.77038" lon="-3.5252">
        <ele>6.47</ele>
        <time>2020-07-10T09:23:02Z</time>
      </trkpt>
      <trkpt lat="47.77038" lon="-3.5252">
        <ele>6.47</ele>
        <time>2020-07-10T09:23:03Z</time>
      </trkpt>
      <trkpt lat="47.77038" lon="-3.5252">
        <ele>6.47</ele>
        <time>2020-07-10T09:23:04Z</time>
      </trkpt>
      <trkpt lat="47.77038" lon="-3.5252">
        <ele>6.47</ele>
        <time>2020-07-10T09:23:05Z</time>
      </trkpt>
      <trkpt lat="47.77038" lon="-3.5252">
        <ele>6.47</ele>
        <time>2020-07-10T09:23:06Z</time>
      </trkpt>
      <trkpt lat="47.77035" lon="-3.52518">
        <ele>6.4</ele>
        <time>2020-07-10T09:23:07Z</time>
      </trkpt>
      <trkpt lat="47.77033" lon="-3.52516">
        <ele>6.31</ele>
        <time>2020-07-10T09:23:08Z</time>
      </trkpt>
      <trkpt lat="47.7703" lon="-3.52514">
        <ele>6.2</ele>
        <time>2020-07-10T09:23:09Z</time>
      </trkpt>
      <trkpt lat="47.77027" lon="-3.52511">
        <ele>6.04</ele>
        <time>2020-07-10T09:23:10Z</time>
      </trkpt>
      <trkpt lat="47.77023" lon="-3.52509">
        <ele>5.9</ele>
        <time>2020-07-10T09:23:11Z</time>
      </trkpt>
      <trkpt lat="47.77019" lon="-3.52507">
        <ele>5.75</ele>
        <time>2020-07-10T09:23:12Z</time>
      </trkpt>
      <trkpt lat="47.77014" lon="-3.52505">
        <ele>5.58</ele>
        <time>2020-07-10T09:23:13Z</time>
      </trkpt>
      <trkpt lat="47.7701" lon="-3.52504">
        <ele>5.41</ele>
        <time>2020-07-10T09:23:14Z</time>
      </trkpt>
      <trkpt lat="47.77005" lon="-3.52503">
        <ele>5.25</ele>
        <time>2020-07-10T09:23:15Z</time>
      </trkpt>
      <trkpt lat="47.77" lon="-3.52501">
        <ele>5.08</ele>
        <time>2020-07-10T09:23:16Z</time>
      </trkpt>
      <trkpt lat="47.76996" lon="-3.52499">
        <ele>5.13</ele>
        <time>2020-07-10T09:23:17Z</time>
      </trkpt>
      <trkpt lat="47.76991" lon="-3.52498">
        <ele>5.25</ele>
        <time>2020-07-10T09:23:18Z</time>
      </trkpt>
      <trkpt lat="47.76986" lon="-3.52497">
        <ele>5.38</ele>
        <time>2020-07-10T09:23:19Z</time>
      </trkpt>
      <trkpt lat="47.76982" lon="-3.52495">
        <ele>5.5</ele>
        <time>2020-07-10T09:23:20Z</time>
      </trkpt>
      <trkpt lat="47.76978" lon="-3.52494">
        <ele>5.59</ele>
        <time>2020-07-10T09:23:21Z</time>
      </trkpt>
      <trkpt lat="47.76973" lon="-3.52493">
        <ele>5.69</ele>
        <time>2020-07-10T09:23:22Z</time>
      </trkpt>
      <trkpt lat="47.76968" lon="-3.52492">
        <ele>5.73</ele>
        <time>2020-07-10T09:23:23Z</time>
      </trkpt>
      <trkpt lat="47.76963" lon="-3.52491">
        <ele>5.77</ele>
        <time>2020-07-10T09:23:24Z</time>
      </trkpt>
      <trkpt lat="47.76958" lon="-3.5249">
        <ele>5.81</ele>
        <time>2020-07-10T09:23:25Z</time>
      </trkpt>
      <trkpt lat="47.76953" lon="-3.52489">
        <ele>5.86</ele>
        <time>2020-07-10T09:23:26Z</time>
      </trkpt>
      <trkpt lat="47.76948" lon="-3.52488">
        <ele>5.92</ele>
        <time>2020-07-10T09:23:27Z</time>
      </trkpt>
      <trkpt lat="47.76943" lon="-3.52487">
        <ele>6</ele>
        <time>2020-07-10T09:23:28Z</time>
      </trkpt>
      <trkpt lat="47.76938" lon="-3.52486">
        <ele>6.16</ele>
        <time>2020-07-10T09:23:29Z</time>
      </trkpt>
      <trkpt lat="47.76933" lon="-3.52484">
        <ele>6.37</ele>
        <time>2020-07-10T09:23:30Z</time>
      </trkpt>
      <trkpt lat="47.76929" lon="-3.52482">
        <ele>6.61</ele>
        <time>2020-07-10T09:23:31Z</time>
      </trkpt>
      <trkpt lat="47.76924" lon="-3.52481">
        <ele>6.89</ele>
        <time>2020-07-10T09:23:32Z</time>
      </trkpt>
      <trkpt lat="47.76919" lon="-3.52479">
        <ele>7.2</ele>
        <time>2020-07-10T09:23:33Z</time>
      </trkpt>
      <trkpt lat="47.76915" lon="-3.52479">
        <ele>7.42</ele>
        <time>2020-07-10T09:23:34Z</time>
      </trkpt>
      <trkpt lat="47.7691" lon="-3.52478">
        <ele>7.51</ele>
        <time>2020-07-10T09:23:35Z</time>
      </trkpt>
      <trkpt lat="47.76905" lon="-3.52478">
        <ele>7.58</ele>
        <time>2020-07-10T09:23:36Z</time>
      </trkpt>
      <trkpt lat="47.76901" lon="-3.52476">
        <ele>7.66</ele>
        <time>2020-07-10T09:23:37Z</time>
      </trkpt>
      <trkpt lat="47.76896" lon="-3.52475">
        <ele>7.74</ele>
        <time>2020-07-10T09:23:38Z</time>
      </trkpt>
      <trkpt lat="47.76892" lon="-3.52475">
        <ele>7.81</ele>
        <time>2020-07-10T09:23:39Z</time>
      </trkpt>
      <trkpt lat="47.76887" lon="-3.52474">
        <ele>7.87</ele>
        <time>2020-07-10T09:23:40Z</time>
      </trkpt>
      <trkpt lat="47.76883" lon="-3.52473">
        <ele>7.94</ele>
        <time>2020-07-10T09:23:41Z</time>
      </trkpt>
      <trkpt lat="47.76879" lon="-3.52472">
        <ele>8.01</ele>
        <time>2020-07-10T09:23:42Z</time>
      </trkpt>
      <trkpt lat="47.76875" lon="-3.5247">
        <ele>8.09</ele>
        <time>2020-07-10T09:23:43Z</time>
      </trkpt>
      <trkpt lat="47.7687" lon="-3.52468">
        <ele>8.16</ele>
        <time>2020-07-10T09:23:44Z</time>
      </trkpt>
      <trkpt lat="47.76867" lon="-3.52467">
        <ele>8.2</ele>
        <time>2020-07-10T09:23:45Z</time>
      </trkpt>
      <trkpt lat="47.76863" lon="-3.52468">
        <ele>8.18</ele>
        <time>2020-07-10T09:23:46Z</time>
      </trkpt>
      <trkpt lat="47.76859" lon="-3.52471">
        <ele>8.09</ele>
        <time>2020-07-10T09:23:47Z</time>
      </trkpt>
      <trkpt lat="47.76855" lon="-3.52474">
        <ele>7.97</ele>
        <time>2020-07-10T09:23:48Z</time>
      </trkpt>
      <trkpt lat="47.76851" lon="-3.52479">
        <ele>7.75</ele>
        <time>2020-07-10T09:23:49Z</time>
      </trkpt>
      <trkpt lat="47.76847" lon="-3.52485">
        <ele>7.45</ele>
        <time>2020-07-10T09:23:50Z</time>
      </trkpt>
      <trkpt lat="47.76843" lon="-3.5249">
        <ele>7.11</ele>
        <time>2020-07-10T09:23:51Z</time>
      </trkpt>
      <trkpt lat="47.76839" lon="-3.52493">
        <ele>6.77</ele>
        <time>2020-07-10T09:23:52Z</time>
      </trkpt>
      <trkpt lat="47.76834" lon="-3.52497">
        <ele>6.42</ele>
        <time>2020-07-10T09:23:53Z</time>
      </trkpt>
      <trkpt lat="47.76829" lon="-3.52499">
        <ele>6.28</ele>
        <time>2020-07-10T09:23:54Z</time>
      </trkpt>
      <trkpt lat="47.76825" lon="-3.52501">
        <ele>6.3</ele>
        <time>2020-07-10T09:23:55Z</time>
      </trkpt>
      <trkpt lat="47.7682" lon="-3.52502">
        <ele>6.4</ele>
        <time>2020-07-10T09:23:56Z</time>
      </trkpt>
      <trkpt lat="47.76816" lon="-3.52504">
        <ele>6.5</ele>
        <time>2020-07-10T09:23:57Z</time>
      </trkpt>
      <trkpt lat="47.76812" lon="-3.52508">
        <ele>6.54</ele>
        <time>2020-07-10T09:23:58Z</time>
      </trkpt>
      <trkpt lat="47.76808" lon="-3.52512">
        <ele>6.52</ele>
        <time>2020-07-10T09:23:59Z</time>
      </trkpt>
      <trkpt lat="47.76805" lon="-3.52515">
        <ele>6.48</ele>
        <time>2020-07-10T09:24:00Z</time>
      </trkpt>
      <trkpt lat="47.76801" lon="-3.52517">
        <ele>6.41</ele>
        <time>2020-07-10T09:24:01Z</time>
      </trkpt>
      <trkpt lat="47.76797" lon="-3.5252">
        <ele>6.33</ele>
        <time>2020-07-10T09:24:02Z</time>
      </trkpt>
      <trkpt lat="47.76793" lon="-3.52522">
        <ele>6.24</ele>
        <time>2020-07-10T09:24:03Z</time>
      </trkpt>
      <trkpt lat="47.7679" lon="-3.52525">
        <ele>6.15</ele>
        <time>2020-07-10T09:24:04Z</time>
      </trkpt>
      <trkpt lat="47.76786" lon="-3.52527">
        <ele>6.06</ele>
        <time>2020-07-10T09:24:05Z</time>
      </trkpt>
      <trkpt lat="47.76783" lon="-3.52529">
        <ele>6.01</ele>
        <time>2020-07-10T09:24:06Z</time>
      </trkpt>
      <trkpt lat="47.76779" lon="-3.5253">
        <ele>6</ele>
        <time>2020-07-10T09:24:07Z</time>
      </trkpt>
      <trkpt lat="47.76775" lon="-3.52532">
        <ele>6</ele>
        <time>2020-07-10T09:24:08Z</time>
      </trkpt>
      <trkpt lat="47.76771" lon="-3.52534">
        <ele>6</ele>
        <time>2020-07-10T09:24:09Z</time>
      </trkpt>
      <trkpt lat="47.76767" lon="-3.52535">
        <ele>6</ele>
        <time>2020-07-10T09:24:10Z</time>
      </trkpt>
      <trkpt lat="47.76763" lon="-3.52536">
        <ele>6</ele>
        <time>2020-07-10T09:24:11Z</time>
      </trkpt>
      <trkpt lat="47.76758" lon="-3.52537">
        <ele>6</ele>
        <time>2020-07-10T09:24:12Z</time>
      </trkpt>
      <trkpt lat="47.76754" lon="-3.52536">
        <ele>6</ele>
        <time>2020-07-10T09:24:13Z</time>
      </trkpt>
      <trkpt lat="47.76749" lon="-3.52535">
        <ele>6</ele>
        <time>2020-07-10T09:24:14Z</time>
      </trkpt>
      <trkpt lat="47.76744" lon="-3.52533">
        <ele>6</ele>
        <time>2020-07-10T09:24:15Z</time>
      </trkpt>
      <trkpt lat="47.76739" lon="-3.5253">
        <ele>6</ele>
        <time>2020-07-10T09:24:16Z</time>
      </trkpt>
      <trkpt lat="47.76735" lon="-3.52527">
        <ele>6.02</ele>
        <time>2020-07-10T09:24:17Z</time>
      </trkpt>
      <trkpt lat="47.76731" lon="-3.52523">
        <ele>6.14</ele>
        <time>2020-07-10T09:24:18Z</time>
      </trkpt>
      <trkpt lat="47.76727" lon="-3.52518">
        <ele>6.27</ele>
        <time>2020-07-10T09:24:19Z</time>
      </trkpt>
      <trkpt lat="47.76723" lon="-3.52515">
        <ele>6.41</ele>
        <time>2020-07-10T09:24:20Z</time>
      </trkpt>
      <trkpt lat="47.7672" lon="-3.52512">
        <ele>6.52</ele>
        <time>2020-07-10T09:24:21Z</time>
      </trkpt>
      <trkpt lat="47.76717" lon="-3.52509">
        <ele>6.63</ele>
        <time>2020-07-10T09:24:22Z</time>
      </trkpt>
      <trkpt lat="47.76713" lon="-3.52506">
        <ele>6.75</ele>
        <time>2020-07-10T09:24:23Z</time>
      </trkpt>
      <trkpt lat="47.7671" lon="-3.52502">
        <ele>6.88</ele>
        <time>2020-07-10T09:24:24Z</time>
      </trkpt>
      <trkpt lat="47.76707" lon="-3.52498">
        <ele>7.02</ele>
        <time>2020-07-10T09:24:25Z</time>
      </trkpt>
      <trkpt lat="47.76703" lon="-3.52493">
        <ele>7.18</ele>
        <time>2020-07-10T09:24:26Z</time>
      </trkpt>
      <trkpt lat="47.767" lon="-3.52488">
        <ele>7.35</ele>
        <time>2020-07-10T09:24:27Z</time>
      </trkpt>
      <trkpt lat="47.76697" lon="-3.52484">
        <ele>7.5</ele>
        <time>2020-07-10T09:24:28Z</time>
      </trkpt>
      <trkpt lat="47.76693" lon="-3.52481">
        <ele>7.58</ele>
        <time>2020-07-10T09:24:29Z</time>
      </trkpt>
      <trkpt lat="47.7669" lon="-3.52478">
        <ele>7.52</ele>
        <time>2020-07-10T09:24:30Z</time>
      </trkpt>
      <trkpt lat="47.76687" lon="-3.52475">
        <ele>7.44</ele>
        <time>2020-07-10T09:24:31Z</time>
      </trkpt>
      <trkpt lat="47.76685" lon="-3.52472">
        <ele>7.35</ele>
        <time>2020-07-10T09:24:32Z</time>
      </trkpt>
      <trkpt lat="47.76683" lon="-3.5247">
        <ele>7.28</ele>
        <time>2020-07-10T09:24:33Z</time>
      </trkpt>
      <trkpt lat="47.76681" lon="-3.5247">
        <ele>7.18</ele>
        <time>2020-07-10T09:24:34Z</time>
      </trkpt>
      <trkpt lat="47.7668" lon="-3.52468">
        <ele>7.16</ele>
        <time>2020-07-10T09:24:35Z</time>
      </trkpt>
      <trkpt lat="47.76679" lon="-3.52466">
        <ele>7.16</ele>
        <time>2020-07-10T09:24:36Z</time>
      </trkpt>
      <trkpt lat="47.76678" lon="-3.52464">
        <ele>7.16</ele>
        <time>2020-07-10T09:24:37Z</time>
      </trkpt>
      <trkpt lat="47.76676" lon="-3.52462">
        <ele>7.16</ele>
        <time>2020-07-10T09:24:38Z</time>
      </trkpt>
      <trkpt lat="47.76674" lon="-3.5246">
        <ele>7.18</ele>
        <time>2020-07-10T09:24:39Z</time>
      </trkpt>
      <trkpt lat="47.76672" lon="-3.52458">
        <ele>7.21</ele>
        <time>2020-07-10T09:24:40Z</time>
      </trkpt>
      <trkpt lat="47.76669" lon="-3.52456">
        <ele>7.22</ele>
        <time>2020-07-10T09:24:41Z</time>
      </trkpt>
      <trkpt lat="47.76666" lon="-3.52453">
        <ele>7.31</ele>
        <time>2020-07-10T09:24:42Z</time>
      </trkpt>
      <trkpt lat="47.76663" lon="-3.5245">
        <ele>7.43</ele>
        <time>2020-07-10T09:24:43Z</time>
      </trkpt>
      <trkpt lat="47.76661" lon="-3.52447">
        <ele>7.56</ele>
        <time>2020-07-10T09:24:44Z</time>
      </trkpt>
      <trkpt lat="47.76658" lon="-3.52446">
        <ele>7.59</ele>
        <time>2020-07-10T09:24:45Z</time>
      </trkpt>
      <trkpt lat="47.76655" lon="-3.52445">
        <ele>7.56</ele>
        <time>2020-07-10T09:24:46Z</time>
      </trkpt>
      <trkpt lat="47.76651" lon="-3.52445">
        <ele>7.45</ele>
        <time>2020-07-10T09:24:47Z</time>
      </trkpt>
      <trkpt lat="47.76647" lon="-3.52445">
        <ele>7.33</ele>
        <time>2020-07-10T09:24:48Z</time>
      </trkpt>
      <trkpt lat="47.76643" lon="-3.52445">
        <ele>7.18</ele>
        <time>2020-07-10T09:24:49Z</time>
      </trkpt>
      <trkpt lat="47.7664" lon="-3.52447">
        <ele>7.01</ele>
        <time>2020-07-10T09:24:50Z</time>
      </trkpt>
      <trkpt lat="47.76636" lon="-3.5245">
        <ele>6.85</ele>
        <time>2020-07-10T09:24:51Z</time>
      </trkpt>
      <trkpt lat="47.76634" lon="-3.52455">
        <ele>6.7</ele>
        <time>2020-07-10T09:24:52Z</time>
      </trkpt>
      <trkpt lat="47.76631" lon="-3.5246">
        <ele>6.53</ele>
        <time>2020-07-10T09:24:53Z</time>
      </trkpt>
      <trkpt lat="47.76629" lon="-3.52465">
        <ele>6.33</ele>
        <time>2020-07-10T09:24:54Z</time>
      </trkpt>
      <trkpt lat="47.76627" lon="-3.52471">
        <ele>6.14</ele>
        <time>2020-07-10T09:24:55Z</time>
      </trkpt>
      <trkpt lat="47.76623" lon="-3.52474">
        <ele>6.01</ele>
        <time>2020-07-10T09:24:56Z</time>
      </trkpt>
      <trkpt lat="47.7662" lon="-3.52476">
        <ele>5.94</ele>
        <time>2020-07-10T09:24:57Z</time>
      </trkpt>
      <trkpt lat="47.76616" lon="-3.52474">
        <ele>5.94</ele>
        <time>2020-07-10T09:24:58Z</time>
      </trkpt>
      <trkpt lat="47.76614" lon="-3.5247">
        <ele>6.04</ele>
        <time>2020-07-10T09:24:59Z</time>
      </trkpt>
      <trkpt lat="47.76613" lon="-3.52465">
        <ele>6.2</ele>
        <time>2020-07-10T09:25:00Z</time>
      </trkpt>
      <trkpt lat="47.76613" lon="-3.5246">
        <ele>6.36</ele>
        <time>2020-07-10T09:25:01Z</time>
      </trkpt>
      <trkpt lat="47.76615" lon="-3.52456">
        <ele>6.52</ele>
        <time>2020-07-10T09:25:02Z</time>
      </trkpt>
      <trkpt lat="47.76616" lon="-3.52451">
        <ele>6.69</ele>
        <time>2020-07-10T09:25:03Z</time>
      </trkpt>
      <trkpt lat="47.76618" lon="-3.52446">
        <ele>6.87</ele>
        <time>2020-07-10T09:25:04Z</time>
      </trkpt>
      <trkpt lat="47.7662" lon="-3.52441">
        <ele>7.13</ele>
        <time>2020-07-10T09:25:05Z</time>
      </trkpt>
      <trkpt lat="47.76622" lon="-3.52437">
        <ele>7.4</ele>
        <time>2020-07-10T09:25:06Z</time>
      </trkpt>
      <trkpt lat="47.76624" lon="-3.52434">
        <ele>7.66</ele>
        <time>2020-07-10T09:25:07Z</time>
      </trkpt>
      <trkpt lat="47.76627" lon="-3.52429">
        <ele>7.95</ele>
        <time>2020-07-10T09:25:08Z</time>
      </trkpt>
      <trkpt lat="47.76628" lon="-3.52425">
        <ele>8.28</ele>
        <time>2020-07-10T09:25:09Z</time>
      </trkpt>
      <trkpt lat="47.76629" lon="-3.52419">
        <ele>8.64</ele>
        <time>2020-07-10T09:25:10Z</time>
      </trkpt>
      <trkpt lat="47.76629" lon="-3.52415">
        <ele>8.97</ele>
        <time>2020-07-10T09:25:11Z</time>
      </trkpt>
      <trkpt lat="47.76627" lon="-3.52412">
        <ele>9.17</ele>
        <time>2020-07-10T09:25:12Z</time>
      </trkpt>
      <trkpt lat="47.76624" lon="-3.52411">
        <ele>9.28</ele>
        <time>2020-07-10T09:25:13Z</time>
      </trkpt>
      <trkpt lat="47.7662" lon="-3.5241">
        <ele>9.36</ele>
        <time>2020-07-10T09:25:14Z</time>
      </trkpt>
      <trkpt lat="47.76616" lon="-3.52409">
        <ele>9.46</ele>
        <time>2020-07-10T09:25:15Z</time>
      </trkpt>
      <trkpt lat="47.7661" lon="-3.52408">
        <ele>9.6</ele>
        <time>2020-07-10T09:25:16Z</time>
      </trkpt>
      <trkpt lat="47.76605" lon="-3.52407">
        <ele>9.82</ele>
        <time>2020-07-10T09:25:17Z</time>
      </trkpt>
      <trkpt lat="47.766" lon="-3.52406">
        <ele>10.04</ele>
        <time>2020-07-10T09:25:18Z</time>
      </trkpt>
      <trkpt lat="47.76596" lon="-3.52406">
        <ele>10.25</ele>
        <time>2020-07-10T09:25:19Z</time>
      </trkpt>
      <trkpt lat="47.76591" lon="-3.52405">
        <ele>10.46</ele>
        <time>2020-07-10T09:25:20Z</time>
      </trkpt>
      <trkpt lat="47.76586" lon="-3.52405">
        <ele>10.68</ele>
        <time>2020-07-10T09:25:21Z</time>
      </trkpt>
      <trkpt lat="47.76581" lon="-3.52404">
        <ele>10.79</ele>
        <time>2020-07-10T09:25:22Z</time>
      </trkpt>
      <trkpt lat="47.76576" lon="-3.52403">
        <ele>10.74</ele>
        <time>2020-07-10T09:25:23Z</time>
      </trkpt>
      <trkpt lat="47.76571" lon="-3.52402">
        <ele>10.65</ele>
        <time>2020-07-10T09:25:24Z</time>
      </trkpt>
      <trkpt lat="47.76566" lon="-3.52401">
        <ele>10.54</ele>
        <time>2020-07-10T09:25:25Z</time>
      </trkpt>
      <trkpt lat="47.76561" lon="-3.524">
        <ele>10.43</ele>
        <time>2020-07-10T09:25:26Z</time>
      </trkpt>
      <trkpt lat="47.76556" lon="-3.52399">
        <ele>10.35</ele>
        <time>2020-07-10T09:25:27Z</time>
      </trkpt>
      <trkpt lat="47.76551" lon="-3.52397">
        <ele>10.35</ele>
        <time>2020-07-10T09:25:28Z</time>
      </trkpt>
      <trkpt lat="47.76546" lon="-3.52395">
        <ele>10.35</ele>
        <time>2020-07-10T09:25:29Z</time>
      </trkpt>
      <trkpt lat="47.76541" lon="-3.52394">
        <ele>10.33</ele>
        <time>2020-07-10T09:25:30Z</time>
      </trkpt>
      <trkpt lat="47.76537" lon="-3.52392">
        <ele>10.28</ele>
        <time>2020-07-10T09:25:31Z</time>
      </trkpt>
      <trkpt lat="47.76532" lon="-3.5239">
        <ele>10.19</ele>
        <time>2020-07-10T09:25:32Z</time>
      </trkpt>
      <trkpt lat="47.76528" lon="-3.52388">
        <ele>10.15</ele>
        <time>2020-07-10T09:25:33Z</time>
      </trkpt>
      <trkpt lat="47.76523" lon="-3.52386">
        <ele>10.11</ele>
        <time>2020-07-10T09:25:34Z</time>
      </trkpt>
      <trkpt lat="47.76519" lon="-3.52384">
        <ele>10.04</ele>
        <time>2020-07-10T09:25:35Z</time>
      </trkpt>
      <trkpt lat="47.76515" lon="-3.52382">
        <ele>9.96</ele>
        <time>2020-07-10T09:25:36Z</time>
      </trkpt>
      <trkpt lat="47.76511" lon="-3.5238">
        <ele>9.8</ele>
        <time>2020-07-10T09:25:37Z</time>
      </trkpt>
      <trkpt lat="47.76506" lon="-3.52379">
        <ele>9.57</ele>
        <time>2020-07-10T09:25:38Z</time>
      </trkpt>
      <trkpt lat="47.76502" lon="-3.52377">
        <ele>9.27</ele>
        <time>2020-07-10T09:25:39Z</time>
      </trkpt>
      <trkpt lat="47.76497" lon="-3.52376">
        <ele>9.02</ele>
        <time>2020-07-10T09:25:40Z</time>
      </trkpt>
      <trkpt lat="47.76493" lon="-3.52373">
        <ele>8.82</ele>
        <time>2020-07-10T09:25:41Z</time>
      </trkpt>
      <trkpt lat="47.76488" lon="-3.52371">
        <ele>8.65</ele>
        <time>2020-07-10T09:25:42Z</time>
      </trkpt>
      <trkpt lat="47.76483" lon="-3.52369">
        <ele>8.48</ele>
        <time>2020-07-10T09:25:43Z</time>
      </trkpt>
      <trkpt lat="47.76478" lon="-3.52367">
        <ele>8.3</ele>
        <time>2020-07-10T09:25:44Z</time>
      </trkpt>
      <trkpt lat="47.76473" lon="-3.52364">
        <ele>8.1</ele>
        <time>2020-07-10T09:25:45Z</time>
      </trkpt>
      <trkpt lat="47.76467" lon="-3.52362">
        <ele>8.03</ele>
        <time>2020-07-10T09:25:46Z</time>
      </trkpt>
      <trkpt lat="47.76462" lon="-3.5236">
        <ele>8</ele>
        <time>2020-07-10T09:25:47Z</time>
      </trkpt>
      <trkpt lat="47.76456" lon="-3.52357">
        <ele>7.94</ele>
        <time>2020-07-10T09:25:48Z</time>
      </trkpt>
      <trkpt lat="47.76451" lon="-3.52354">
        <ele>7.85</ele>
        <time>2020-07-10T09:25:49Z</time>
      </trkpt>
      <trkpt lat="47.76446" lon="-3.52352">
        <ele>7.74</ele>
        <time>2020-07-10T09:25:50Z</time>
      </trkpt>
      <trkpt lat="47.76441" lon="-3.5235">
        <ele>7.59</ele>
        <time>2020-07-10T09:25:51Z</time>
      </trkpt>
      <trkpt lat="47.76436" lon="-3.52347">
        <ele>7.43</ele>
        <time>2020-07-10T09:25:52Z</time>
      </trkpt>
      <trkpt lat="47.76431" lon="-3.52345">
        <ele>7.28</ele>
        <time>2020-07-10T09:25:53Z</time>
      </trkpt>
      <trkpt lat="47.76426" lon="-3.52342">
        <ele>7.16</ele>
        <time>2020-07-10T09:25:54Z</time>
      </trkpt>
      <trkpt lat="47.76421" lon="-3.52339">
        <ele>7.07</ele>
        <time>2020-07-10T09:25:55Z</time>
      </trkpt>
      <trkpt lat="47.76416" lon="-3.52336">
        <ele>7.02</ele>
        <time>2020-07-10T09:25:56Z</time>
      </trkpt>
      <trkpt lat="47.76411" lon="-3.52334">
        <ele>7.01</ele>
        <time>2020-07-10T09:25:57Z</time>
      </trkpt>
      <trkpt lat="47.76406" lon="-3.52333">
        <ele>7</ele>
        <time>2020-07-10T09:25:58Z</time>
      </trkpt>
      <trkpt lat="47.76402" lon="-3.52331">
        <ele>7</ele>
        <time>2020-07-10T09:25:59Z</time>
      </trkpt>
      <trkpt lat="47.76397" lon="-3.52328">
        <ele>7</ele>
        <time>2020-07-10T09:26:00Z</time>
      </trkpt>
      <trkpt lat="47.76392" lon="-3.52326">
        <ele>7</ele>
        <time>2020-07-10T09:26:01Z</time>
      </trkpt>
      <trkpt lat="47.76387" lon="-3.52323">
        <ele>7.01</ele>
        <time>2020-07-10T09:26:02Z</time>
      </trkpt>
      <trkpt lat="47.76383" lon="-3.5232">
        <ele>7.08</ele>
        <time>2020-07-10T09:26:03Z</time>
      </trkpt>
      <trkpt lat="47.76378" lon="-3.52317">
        <ele>7.18</ele>
        <time>2020-07-10T09:26:04Z</time>
      </trkpt>
      <trkpt lat="47.76373" lon="-3.52314">
        <ele>7.32</ele>
        <time>2020-07-10T09:26:05Z</time>
      </trkpt>
      <trkpt lat="47.76368" lon="-3.52311">
        <ele>7.51</ele>
        <time>2020-07-10T09:26:06Z</time>
      </trkpt>
      <trkpt lat="47.76363" lon="-3.52309">
        <ele>7.73</ele>
        <time>2020-07-10T09:26:07Z</time>
      </trkpt>
      <trkpt lat="47.76357" lon="-3.52306">
        <ele>8</ele>
        <time>2020-07-10T09:26:08Z</time>
      </trkpt>
      <trkpt lat="47.76351" lon="-3.52304">
        <ele>8.24</ele>
        <time>2020-07-10T09:26:09Z</time>
      </trkpt>
      <trkpt lat="47.76346" lon="-3.52301">
        <ele>8.46</ele>
        <time>2020-07-10T09:26:10Z</time>
      </trkpt>
      <trkpt lat="47.7634" lon="-3.52299">
        <ele>8.68</ele>
        <time>2020-07-10T09:26:11Z</time>
      </trkpt>
      <trkpt lat="47.76334" lon="-3.52296">
        <ele>8.89</ele>
        <time>2020-07-10T09:26:12Z</time>
      </trkpt>
      <trkpt lat="47.76328" lon="-3.52294">
        <ele>9.12</ele>
        <time>2020-07-10T09:26:13Z</time>
      </trkpt>
      <trkpt lat="47.76322" lon="-3.52291">
        <ele>9.31</ele>
        <time>2020-07-10T09:26:14Z</time>
      </trkpt>
      <trkpt lat="47.76317" lon="-3.52289">
        <ele>9.43</ele>
        <time>2020-07-10T09:26:15Z</time>
      </trkpt>
      <trkpt lat="47.76311" lon="-3.52286">
        <ele>9.48</ele>
        <time>2020-07-10T09:26:16Z</time>
      </trkpt>
      <trkpt lat="47.76305" lon="-3.52284">
        <ele>9.45</ele>
        <time>2020-07-10T09:26:17Z</time>
      </trkpt>
      <trkpt lat="47.763" lon="-3.52281">
        <ele>9.3</ele>
        <time>2020-07-10T09:26:18Z</time>
      </trkpt>
      <trkpt lat="47.76294" lon="-3.52279">
        <ele>9.13</ele>
        <time>2020-07-10T09:26:19Z</time>
      </trkpt>
      <trkpt lat="47.76289" lon="-3.52276">
        <ele>9.06</ele>
        <time>2020-07-10T09:26:20Z</time>
      </trkpt>
      <trkpt lat="47.76283" lon="-3.52273">
        <ele>9.11</ele>
        <time>2020-07-10T09:26:21Z</time>
      </trkpt>
      <trkpt lat="47.76278" lon="-3.52271">
        <ele>9.2</ele>
        <time>2020-07-10T09:26:22Z</time>
      </trkpt>
      <trkpt lat="47.76272" lon="-3.52268">
        <ele>9.38</ele>
        <time>2020-07-10T09:26:23Z</time>
      </trkpt>
      <trkpt lat="47.76268" lon="-3.52266">
        <ele>9.56</ele>
        <time>2020-07-10T09:26:24Z</time>
      </trkpt>
      <trkpt lat="47.76262" lon="-3.52264">
        <ele>9.72</ele>
        <time>2020-07-10T09:26:25Z</time>
      </trkpt>
      <trkpt lat="47.76257" lon="-3.52262">
        <ele>9.84</ele>
        <time>2020-07-10T09:26:26Z</time>
      </trkpt>
      <trkpt lat="47.76252" lon="-3.5226">
        <ele>9.94</ele>
        <time>2020-07-10T09:26:27Z</time>
      </trkpt>
      <trkpt lat="47.76246" lon="-3.52258">
        <ele>9.95</ele>
        <time>2020-07-10T09:26:28Z</time>
      </trkpt>
      <trkpt lat="47.7624" lon="-3.52256">
        <ele>9.93</ele>
        <time>2020-07-10T09:26:29Z</time>
      </trkpt>
      <trkpt lat="47.76235" lon="-3.52254">
        <ele>9.93</ele>
        <time>2020-07-10T09:26:30Z</time>
      </trkpt>
      <trkpt lat="47.76229" lon="-3.52251">
        <ele>9.95</ele>
        <time>2020-07-10T09:26:31Z</time>
      </trkpt>
      <trkpt lat="47.76223" lon="-3.52249">
        <ele>10.01</ele>
        <time>2020-07-10T09:26:32Z</time>
      </trkpt>
      <trkpt lat="47.76218" lon="-3.52246">
        <ele>10.08</ele>
        <time>2020-07-10T09:26:33Z</time>
      </trkpt>
      <trkpt lat="47.76212" lon="-3.52244">
        <ele>10.12</ele>
        <time>2020-07-10T09:26:34Z</time>
      </trkpt>
      <trkpt lat="47.76206" lon="-3.52241">
        <ele>10.13</ele>
        <time>2020-07-10T09:26:35Z</time>
      </trkpt>
      <trkpt lat="47.762" lon="-3.52239">
        <ele>10.1</ele>
        <time>2020-07-10T09:26:36Z</time>
      </trkpt>
      <trkpt lat="47.76194" lon="-3.52235">
        <ele>10.03</ele>
        <time>2020-07-10T09:26:37Z</time>
      </trkpt>
      <trkpt lat="47.76189" lon="-3.52233">
        <ele>9.99</ele>
        <time>2020-07-10T09:26:38Z</time>
      </trkpt>
      <trkpt lat="47.76183" lon="-3.5223">
        <ele>10.04</ele>
        <time>2020-07-10T09:26:39Z</time>
      </trkpt>
      <trkpt lat="47.76178" lon="-3.52227">
        <ele>10.2</ele>
        <time>2020-07-10T09:26:40Z</time>
      </trkpt>
      <trkpt lat="47.76172" lon="-3.52225">
        <ele>10.45</ele>
        <time>2020-07-10T09:26:41Z</time>
      </trkpt>
      <trkpt lat="47.76167" lon="-3.52223">
        <ele>10.8</ele>
        <time>2020-07-10T09:26:42Z</time>
      </trkpt>
      <trkpt lat="47.76162" lon="-3.5222">
        <ele>10.82</ele>
        <time>2020-07-10T09:26:43Z</time>
      </trkpt>
      <trkpt lat="47.76157" lon="-3.52218">
        <ele>10.73</ele>
        <time>2020-07-10T09:26:44Z</time>
      </trkpt>
      <trkpt lat="47.76151" lon="-3.52216">
        <ele>10.62</ele>
        <time>2020-07-10T09:26:45Z</time>
      </trkpt>
      <trkpt lat="47.76146" lon="-3.52215">
        <ele>10.5</ele>
        <time>2020-07-10T09:26:46Z</time>
      </trkpt>
      <trkpt lat="47.76141" lon="-3.52213">
        <ele>10.42</ele>
        <time>2020-07-10T09:26:47Z</time>
      </trkpt>
      <trkpt lat="47.76136" lon="-3.5221">
        <ele>10.38</ele>
        <time>2020-07-10T09:26:48Z</time>
      </trkpt>
      <trkpt lat="47.76131" lon="-3.52208">
        <ele>10.4</ele>
        <time>2020-07-10T09:26:49Z</time>
      </trkpt>
      <trkpt lat="47.76126" lon="-3.52205">
        <ele>10.49</ele>
        <time>2020-07-10T09:26:50Z</time>
      </trkpt>
      <trkpt lat="47.76121" lon="-3.52203">
        <ele>10.65</ele>
        <time>2020-07-10T09:26:51Z</time>
      </trkpt>
      <trkpt lat="47.76116" lon="-3.52201">
        <ele>10.9</ele>
        <time>2020-07-10T09:26:52Z</time>
      </trkpt>
      <trkpt lat="47.76111" lon="-3.52199">
        <ele>11.26</ele>
        <time>2020-07-10T09:26:53Z</time>
      </trkpt>
      <trkpt lat="47.76105" lon="-3.52196">
        <ele>11.64</ele>
        <time>2020-07-10T09:26:54Z</time>
      </trkpt>
      <trkpt lat="47.761" lon="-3.52193">
        <ele>11.9</ele>
        <time>2020-07-10T09:26:55Z</time>
      </trkpt>
      <trkpt lat="47.76095" lon="-3.52191">
        <ele>12.02</ele>
        <time>2020-07-10T09:26:56Z</time>
      </trkpt>
      <trkpt lat="47.7609" lon="-3.52189">
        <ele>12.1</ele>
        <time>2020-07-10T09:26:57Z</time>
      </trkpt>
      <trkpt lat="47.76085" lon="-3.52187">
        <ele>12.21</ele>
        <time>2020-07-10T09:26:58Z</time>
      </trkpt>
      <trkpt lat="47.76079" lon="-3.52185">
        <ele>12.37</ele>
        <time>2020-07-10T09:26:59Z</time>
      </trkpt>
      <trkpt lat="47.76074" lon="-3.52183">
        <ele>12.55</ele>
        <time>2020-07-10T09:27:00Z</time>
      </trkpt>
      <trkpt lat="47.76069" lon="-3.5218">
        <ele>12.7</ele>
        <time>2020-07-10T09:27:01Z</time>
      </trkpt>
      <trkpt lat="47.76063" lon="-3.52178">
        <ele>12.83</ele>
        <time>2020-07-10T09:27:02Z</time>
      </trkpt>
      <trkpt lat="47.76058" lon="-3.52175">
        <ele>12.93</ele>
        <time>2020-07-10T09:27:03Z</time>
      </trkpt>
      <trkpt lat="47.76053" lon="-3.52173">
        <ele>12.98</ele>
        <time>2020-07-10T09:27:04Z</time>
      </trkpt>
      <trkpt lat="47.76048" lon="-3.5217">
        <ele>12.99</ele>
        <time>2020-07-10T09:27:05Z</time>
      </trkpt>
      <trkpt lat="47.76042" lon="-3.52167">
        <ele>13</ele>
        <time>2020-07-10T09:27:06Z</time>
      </trkpt>
      <trkpt lat="47.76037" lon="-3.52164">
        <ele>13.06</ele>
        <time>2020-07-10T09:27:07Z</time>
      </trkpt>
      <trkpt lat="47.76031" lon="-3.52162">
        <ele>13.14</ele>
        <time>2020-07-10T09:27:08Z</time>
      </trkpt>
      <trkpt lat="47.76025" lon="-3.52159">
        <ele>13.23</ele>
        <time>2020-07-10T09:27:09Z</time>
      </trkpt>
      <trkpt lat="47.76019" lon="-3.52157">
        <ele>13.32</ele>
        <time>2020-07-10T09:27:10Z</time>
      </trkpt>
      <trkpt lat="47.76014" lon="-3.52154">
        <ele>13.4</ele>
        <time>2020-07-10T09:27:11Z</time>
      </trkpt>
      <trkpt lat="47.76008" lon="-3.52152">
        <ele>13.49</ele>
        <time>2020-07-10T09:27:12Z</time>
      </trkpt>
      <trkpt lat="47.76002" lon="-3.5215">
        <ele>13.57</ele>
        <time>2020-07-10T09:27:13Z</time>
      </trkpt>
      <trkpt lat="47.75997" lon="-3.52147">
        <ele>13.66</ele>
        <time>2020-07-10T09:27:14Z</time>
      </trkpt>
      <trkpt lat="47.75992" lon="-3.52145">
        <ele>13.74</ele>
        <time>2020-07-10T09:27:15Z</time>
      </trkpt>
      <trkpt lat="47.75986" lon="-3.52143">
        <ele>13.83</ele>
        <time>2020-07-10T09:27:16Z</time>
      </trkpt>
      <trkpt lat="47.7598" lon="-3.5214">
        <ele>13.91</ele>
        <time>2020-07-10T09:27:17Z</time>
      </trkpt>
      <trkpt lat="47.75975" lon="-3.52137">
        <ele>13.94</ele>
        <time>2020-07-10T09:27:18Z</time>
      </trkpt>
      <trkpt lat="47.75969" lon="-3.52135">
        <ele>13.9</ele>
        <time>2020-07-10T09:27:19Z</time>
      </trkpt>
      <trkpt lat="47.75964" lon="-3.52132">
        <ele>13.9</ele>
        <time>2020-07-10T09:27:20Z</time>
      </trkpt>
      <trkpt lat="47.75959" lon="-3.5213">
        <ele>13.96</ele>
        <time>2020-07-10T09:27:21Z</time>
      </trkpt>
      <trkpt lat="47.75954" lon="-3.52128">
        <ele>14.07</ele>
        <time>2020-07-10T09:27:22Z</time>
      </trkpt>
      <trkpt lat="47.7595" lon="-3.52126">
        <ele>14.21</ele>
        <time>2020-07-10T09:27:23Z</time>
      </trkpt>
      <trkpt lat="47.75946" lon="-3.52124">
        <ele>14.41</ele>
        <time>2020-07-10T09:27:24Z</time>
      </trkpt>
      <trkpt lat="47.75941" lon="-3.52122">
        <ele>14.55</ele>
        <time>2020-07-10T09:27:25Z</time>
      </trkpt>
      <trkpt lat="47.75936" lon="-3.5212">
        <ele>14.64</ele>
        <time>2020-07-10T09:27:26Z</time>
      </trkpt>
      <trkpt lat="47.75931" lon="-3.52117">
        <ele>14.74</ele>
        <time>2020-07-10T09:27:27Z</time>
      </trkpt>
      <trkpt lat="47.75927" lon="-3.52115">
        <ele>14.83</ele>
        <time>2020-07-10T09:27:28Z</time>
      </trkpt>
      <trkpt lat="47.75921" lon="-3.52112">
        <ele>14.93</ele>
        <time>2020-07-10T09:27:29Z</time>
      </trkpt>
      <trkpt lat="47.75916" lon="-3.52109">
        <ele>15.03</ele>
        <time>2020-07-10T09:27:30Z</time>
      </trkpt>
      <trkpt lat="47.75911" lon="-3.52106">
        <ele>15.13</ele>
        <time>2020-07-10T09:27:31Z</time>
      </trkpt>
      <trkpt lat="47.75905" lon="-3.52103">
        <ele>15.23</ele>
        <time>2020-07-10T09:27:32Z</time>
      </trkpt>
      <trkpt lat="47.759" lon="-3.521">
        <ele>15.34</ele>
        <time>2020-07-10T09:27:33Z</time>
      </trkpt>
      <trkpt lat="47.75895" lon="-3.52097">
        <ele>15.45</ele>
        <time>2020-07-10T09:27:34Z</time>
      </trkpt>
      <trkpt lat="47.75889" lon="-3.52094">
        <ele>15.58</ele>
        <time>2020-07-10T09:27:35Z</time>
      </trkpt>
      <trkpt lat="47.75884" lon="-3.5209">
        <ele>15.59</ele>
        <time>2020-07-10T09:27:36Z</time>
      </trkpt>
      <trkpt lat="47.75879" lon="-3.52086">
        <ele>15.56</ele>
        <time>2020-07-10T09:27:37Z</time>
      </trkpt>
      <trkpt lat="47.75874" lon="-3.52082">
        <ele>15.52</ele>
        <time>2020-07-10T09:27:38Z</time>
      </trkpt>
      <trkpt lat="47.75869" lon="-3.52078">
        <ele>15.49</ele>
        <time>2020-07-10T09:27:39Z</time>
      </trkpt>
      <trkpt lat="47.75864" lon="-3.52074">
        <ele>15.47</ele>
        <time>2020-07-10T09:27:40Z</time>
      </trkpt>
      <trkpt lat="47.7586" lon="-3.52069">
        <ele>15.47</ele>
        <time>2020-07-10T09:27:41Z</time>
      </trkpt>
      <trkpt lat="47.75856" lon="-3.52065">
        <ele>15.47</ele>
        <time>2020-07-10T09:27:42Z</time>
      </trkpt>
      <trkpt lat="47.75852" lon="-3.52061">
        <ele>15.48</ele>
        <time>2020-07-10T09:27:43Z</time>
      </trkpt>
      <trkpt lat="47.75848" lon="-3.52058">
        <ele>15.46</ele>
        <time>2020-07-10T09:27:44Z</time>
      </trkpt>
      <trkpt lat="47.75844" lon="-3.52054">
        <ele>15.44</ele>
        <time>2020-07-10T09:27:45Z</time>
      </trkpt>
      <trkpt lat="47.75839" lon="-3.52049">
        <ele>15.44</ele>
        <time>2020-07-10T09:27:46Z</time>
      </trkpt>
      <trkpt lat="47.75834" lon="-3.52044">
        <ele>15.43</ele>
        <time>2020-07-10T09:27:47Z</time>
      </trkpt>
      <trkpt lat="47.75829" lon="-3.52039">
        <ele>15.19</ele>
        <time>2020-07-10T09:27:48Z</time>
      </trkpt>
      <trkpt lat="47.75824" lon="-3.52034">
        <ele>14.87</ele>
        <time>2020-07-10T09:27:49Z</time>
      </trkpt>
      <trkpt lat="47.75819" lon="-3.52029">
        <ele>14.54</ele>
        <time>2020-07-10T09:27:50Z</time>
      </trkpt>
      <trkpt lat="47.75814" lon="-3.52023">
        <ele>14.31</ele>
        <time>2020-07-10T09:27:51Z</time>
      </trkpt>
      <trkpt lat="47.75809" lon="-3.52017">
        <ele>14.18</ele>
        <time>2020-07-10T09:27:52Z</time>
      </trkpt>
      <trkpt lat="47.75805" lon="-3.52012">
        <ele>14.06</ele>
        <time>2020-07-10T09:27:53Z</time>
      </trkpt>
      <trkpt lat="47.75801" lon="-3.52006">
        <ele>13.35</ele>
        <time>2020-07-10T09:27:54Z</time>
      </trkpt>
      <trkpt lat="47.75797" lon="-3.52001">
        <ele>12.53</ele>
        <time>2020-07-10T09:27:55Z</time>
      </trkpt>
      <trkpt lat="47.75794" lon="-3.51997">
        <ele>11.86</ele>
        <time>2020-07-10T09:27:56Z</time>
      </trkpt>
      <trkpt lat="47.7579" lon="-3.51993">
        <ele>11.49</ele>
        <time>2020-07-10T09:27:57Z</time>
      </trkpt>
      <trkpt lat="47.75786" lon="-3.51987">
        <ele>11.48</ele>
        <time>2020-07-10T09:27:58Z</time>
      </trkpt>
      <trkpt lat="47.75783" lon="-3.51982">
        <ele>11.87</ele>
        <time>2020-07-10T09:27:59Z</time>
      </trkpt>
      <trkpt lat="47.75779" lon="-3.51976">
        <ele>12.64</ele>
        <time>2020-07-10T09:28:00Z</time>
      </trkpt>
      <trkpt lat="47.75775" lon="-3.51971">
        <ele>13.06</ele>
        <time>2020-07-10T09:28:01Z</time>
      </trkpt>
      <trkpt lat="47.75772" lon="-3.51966">
        <ele>12.83</ele>
        <time>2020-07-10T09:28:02Z</time>
      </trkpt>
      <trkpt lat="47.75769" lon="-3.5196">
        <ele>12.61</ele>
        <time>2020-07-10T09:28:03Z</time>
      </trkpt>
      <trkpt lat="47.75765" lon="-3.51955">
        <ele>12.54</ele>
        <time>2020-07-10T09:28:04Z</time>
      </trkpt>
      <trkpt lat="47.75761" lon="-3.51951">
        <ele>12.65</ele>
        <time>2020-07-10T09:28:05Z</time>
      </trkpt>
      <trkpt lat="47.75757" lon="-3.51946">
        <ele>13.04</ele>
        <time>2020-07-10T09:28:06Z</time>
      </trkpt>
      <trkpt lat="47.75753" lon="-3.51941">
        <ele>13.35</ele>
        <time>2020-07-10T09:28:07Z</time>
      </trkpt>
      <trkpt lat="47.75749" lon="-3.51936">
        <ele>13.29</ele>
        <time>2020-07-10T09:28:08Z</time>
      </trkpt>
      <trkpt lat="47.75746" lon="-3.5193">
        <ele>12.85</ele>
        <time>2020-07-10T09:28:09Z</time>
      </trkpt>
      <trkpt lat="47.75743" lon="-3.51924">
        <ele>12.46</ele>
        <time>2020-07-10T09:28:10Z</time>
      </trkpt>
      <trkpt lat="47.7574" lon="-3.51918">
        <ele>12.11</ele>
        <time>2020-07-10T09:28:11Z</time>
      </trkpt>
      <trkpt lat="47.75737" lon="-3.51912">
        <ele>11.98</ele>
        <time>2020-07-10T09:28:12Z</time>
      </trkpt>
      <trkpt lat="47.75734" lon="-3.51905">
        <ele>12.14</ele>
        <time>2020-07-10T09:28:13Z</time>
      </trkpt>
      <trkpt lat="47.75731" lon="-3.51899">
        <ele>12.58</ele>
        <time>2020-07-10T09:28:14Z</time>
      </trkpt>
      <trkpt lat="47.75728" lon="-3.51893">
        <ele>13.23</ele>
        <time>2020-07-10T09:28:15Z</time>
      </trkpt>
      <trkpt lat="47.75725" lon="-3.51888">
        <ele>13.93</ele>
        <time>2020-07-10T09:28:16Z</time>
      </trkpt>
      <trkpt lat="47.75723" lon="-3.51882">
        <ele>14</ele>
        <time>2020-07-10T09:28:17Z</time>
      </trkpt>
      <trkpt lat="47.7572" lon="-3.51877">
        <ele>13.65</ele>
        <time>2020-07-10T09:28:18Z</time>
      </trkpt>
      <trkpt lat="47.75717" lon="-3.51871">
        <ele>13.17</ele>
        <time>2020-07-10T09:28:19Z</time>
      </trkpt>
      <trkpt lat="47.75715" lon="-3.51865">
        <ele>12.74</ele>
        <time>2020-07-10T09:28:20Z</time>
      </trkpt>
      <trkpt lat="47.75712" lon="-3.51858">
        <ele>12.4</ele>
        <time>2020-07-10T09:28:21Z</time>
      </trkpt>
      <trkpt lat="47.75709" lon="-3.51852">
        <ele>12.12</ele>
        <time>2020-07-10T09:28:22Z</time>
      </trkpt>
      <trkpt lat="47.75707" lon="-3.51845">
        <ele>11.93</ele>
        <time>2020-07-10T09:28:23Z</time>
      </trkpt>
      <trkpt lat="47.75704" lon="-3.51838">
        <ele>11.88</ele>
        <time>2020-07-10T09:28:24Z</time>
      </trkpt>
      <trkpt lat="47.75702" lon="-3.51831">
        <ele>11.88</ele>
        <time>2020-07-10T09:28:25Z</time>
      </trkpt>
      <trkpt lat="47.757" lon="-3.51824">
        <ele>11.88</ele>
        <time>2020-07-10T09:28:26Z</time>
      </trkpt>
      <trkpt lat="47.75698" lon="-3.51818">
        <ele>11.89</ele>
        <time>2020-07-10T09:28:27Z</time>
      </trkpt>
      <trkpt lat="47.75696" lon="-3.51812">
        <ele>11.9</ele>
        <time>2020-07-10T09:28:28Z</time>
      </trkpt>
      <trkpt lat="47.75694" lon="-3.51806">
        <ele>11.84</ele>
        <time>2020-07-10T09:28:29Z</time>
      </trkpt>
      <trkpt lat="47.75692" lon="-3.518">
        <ele>11.6</ele>
        <time>2020-07-10T09:28:30Z</time>
      </trkpt>
      <trkpt lat="47.7569" lon="-3.51794">
        <ele>11.35</ele>
        <time>2020-07-10T09:28:31Z</time>
      </trkpt>
      <trkpt lat="47.75688" lon="-3.51788">
        <ele>11.06</ele>
        <time>2020-07-10T09:28:32Z</time>
      </trkpt>
      <trkpt lat="47.75687" lon="-3.51782">
        <ele>10.81</ele>
        <time>2020-07-10T09:28:33Z</time>
      </trkpt>
      <trkpt lat="47.75686" lon="-3.51776">
        <ele>10.66</ele>
        <time>2020-07-10T09:28:34Z</time>
      </trkpt>
      <trkpt lat="47.75684" lon="-3.5177">
        <ele>10.69</ele>
        <time>2020-07-10T09:28:35Z</time>
      </trkpt>
      <trkpt lat="47.75683" lon="-3.51764">
        <ele>10.85</ele>
        <time>2020-07-10T09:28:36Z</time>
      </trkpt>
      <trkpt lat="47.75682" lon="-3.51759">
        <ele>11.12</ele>
        <time>2020-07-10T09:28:37Z</time>
      </trkpt>
      <trkpt lat="47.7568" lon="-3.51752">
        <ele>11.55</ele>
        <time>2020-07-10T09:28:38Z</time>
      </trkpt>
      <trkpt lat="47.75678" lon="-3.51746">
        <ele>11.76</ele>
        <time>2020-07-10T09:28:39Z</time>
      </trkpt>
      <trkpt lat="47.75677" lon="-3.5174">
        <ele>11.74</ele>
        <time>2020-07-10T09:28:40Z</time>
      </trkpt>
      <trkpt lat="47.75675" lon="-3.51733">
        <ele>11.65</ele>
        <time>2020-07-10T09:28:41Z</time>
      </trkpt>
      <trkpt lat="47.75673" lon="-3.51727">
        <ele>11.53</ele>
        <time>2020-07-10T09:28:42Z</time>
      </trkpt>
      <trkpt lat="47.75671" lon="-3.5172">
        <ele>11.39</ele>
        <time>2020-07-10T09:28:43Z</time>
      </trkpt>
      <trkpt lat="47.75669" lon="-3.51714">
        <ele>11.24</ele>
        <time>2020-07-10T09:28:44Z</time>
      </trkpt>
      <trkpt lat="47.75668" lon="-3.51709">
        <ele>11.12</ele>
        <time>2020-07-10T09:28:45Z</time>
      </trkpt>
      <trkpt lat="47.75667" lon="-3.51706">
        <ele>11.04</ele>
        <time>2020-07-10T09:28:46Z</time>
      </trkpt>
      <trkpt lat="47.75666" lon="-3.51704">
        <ele>10.92</ele>
        <time>2020-07-10T09:28:47Z</time>
      </trkpt>
      <trkpt lat="47.75665" lon="-3.51701">
        <ele>10.77</ele>
        <time>2020-07-10T09:28:48Z</time>
      </trkpt>
      <trkpt lat="47.75664" lon="-3.51698">
        <ele>10.49</ele>
        <time>2020-07-10T09:28:49Z</time>
      </trkpt>
      <trkpt lat="47.75663" lon="-3.51694">
        <ele>10.15</ele>
        <time>2020-07-10T09:28:50Z</time>
      </trkpt>
      <trkpt lat="47.75661" lon="-3.51689">
        <ele>9.78</ele>
        <time>2020-07-10T09:28:51Z</time>
      </trkpt>
      <trkpt lat="47.75659" lon="-3.51683">
        <ele>9.39</ele>
        <time>2020-07-10T09:28:52Z</time>
      </trkpt>
      <trkpt lat="47.75656" lon="-3.51677">
        <ele>9.06</ele>
        <time>2020-07-10T09:28:53Z</time>
      </trkpt>
      <trkpt lat="47.75654" lon="-3.51671">
        <ele>8.78</ele>
        <time>2020-07-10T09:28:54Z</time>
      </trkpt>
      <trkpt lat="47.75652" lon="-3.51665">
        <ele>8.57</ele>
        <time>2020-07-10T09:28:55Z</time>
      </trkpt>
      <trkpt lat="47.7565" lon="-3.51659">
        <ele>8.61</ele>
        <time>2020-07-10T09:28:56Z</time>
      </trkpt>
      <trkpt lat="47.75648" lon="-3.51653">
        <ele>8.82</ele>
        <time>2020-07-10T09:28:57Z</time>
      </trkpt>
      <trkpt lat="47.75645" lon="-3.51647">
        <ele>9.18</ele>
        <time>2020-07-10T09:28:58Z</time>
      </trkpt>
      <trkpt lat="47.75644" lon="-3.51642">
        <ele>9.64</ele>
        <time>2020-07-10T09:28:59Z</time>
      </trkpt>
      <trkpt lat="47.75642" lon="-3.51636">
        <ele>9.95</ele>
        <time>2020-07-10T09:29:00Z</time>
      </trkpt>
      <trkpt lat="47.75639" lon="-3.51631">
        <ele>9.99</ele>
        <time>2020-07-10T09:29:01Z</time>
      </trkpt>
      <trkpt lat="47.75637" lon="-3.51626">
        <ele>9.75</ele>
        <time>2020-07-10T09:29:02Z</time>
      </trkpt>
      <trkpt lat="47.75635" lon="-3.51624">
        <ele>9.5</ele>
        <time>2020-07-10T09:29:03Z</time>
      </trkpt>
      <trkpt lat="47.75633" lon="-3.51622">
        <ele>9.27</ele>
        <time>2020-07-10T09:29:04Z</time>
      </trkpt>
      <trkpt lat="47.75632" lon="-3.51619">
        <ele>9.12</ele>
        <time>2020-07-10T09:29:05Z</time>
      </trkpt>
      <trkpt lat="47.75632" lon="-3.51615">
        <ele>9.12</ele>
        <time>2020-07-10T09:29:06Z</time>
      </trkpt>
      <trkpt lat="47.75633" lon="-3.51612">
        <ele>9.24</ele>
        <time>2020-07-10T09:29:07Z</time>
      </trkpt>
      <trkpt lat="47.75634" lon="-3.51611">
        <ele>9.4</ele>
        <time>2020-07-10T09:29:08Z</time>
      </trkpt>
      <trkpt lat="47.75636" lon="-3.5161">
        <ele>9.56</ele>
        <time>2020-07-10T09:29:09Z</time>
      </trkpt>
      <trkpt lat="47.75638" lon="-3.51609">
        <ele>9.77</ele>
        <time>2020-07-10T09:29:10Z</time>
      </trkpt>
      <trkpt lat="47.75641" lon="-3.51608">
        <ele>9.85</ele>
        <time>2020-07-10T09:29:11Z</time>
      </trkpt>
      <trkpt lat="47.75644" lon="-3.51605">
        <ele>9.8</ele>
        <time>2020-07-10T09:29:12Z</time>
      </trkpt>
      <trkpt lat="47.75647" lon="-3.516">
        <ele>9.67</ele>
        <time>2020-07-10T09:29:13Z</time>
      </trkpt>
      <trkpt lat="47.75649" lon="-3.51595">
        <ele>9.49</ele>
        <time>2020-07-10T09:29:14Z</time>
      </trkpt>
      <trkpt lat="47.75651" lon="-3.51589">
        <ele>9.28</ele>
        <time>2020-07-10T09:29:15Z</time>
      </trkpt>
      <trkpt lat="47.75652" lon="-3.51582">
        <ele>9.04</ele>
        <time>2020-07-10T09:29:16Z</time>
      </trkpt>
      <trkpt lat="47.75652" lon="-3.51574">
        <ele>8.79</ele>
        <time>2020-07-10T09:29:17Z</time>
      </trkpt>
      <trkpt lat="47.75652" lon="-3.51567">
        <ele>8.52</ele>
        <time>2020-07-10T09:29:18Z</time>
      </trkpt>
      <trkpt lat="47.75653" lon="-3.51559">
        <ele>8.25</ele>
        <time>2020-07-10T09:29:19Z</time>
      </trkpt>
      <trkpt lat="47.75653" lon="-3.51552">
        <ele>8.03</ele>
        <time>2020-07-10T09:29:20Z</time>
      </trkpt>
      <trkpt lat="47.75654" lon="-3.51545">
        <ele>7.88</ele>
        <time>2020-07-10T09:29:21Z</time>
      </trkpt>
      <trkpt lat="47.75654" lon="-3.51538">
        <ele>7.76</ele>
        <time>2020-07-10T09:29:22Z</time>
      </trkpt>
      <trkpt lat="47.75654" lon="-3.51531">
        <ele>7.65</ele>
        <time>2020-07-10T09:29:23Z</time>
      </trkpt>
      <trkpt lat="47.75655" lon="-3.51525">
        <ele>7.63</ele>
        <time>2020-07-10T09:29:24Z</time>
      </trkpt>
      <trkpt lat="47.75655" lon="-3.5152">
        <ele>7.69</ele>
        <time>2020-07-10T09:29:25Z</time>
      </trkpt>
      <trkpt lat="47.75656" lon="-3.51514">
        <ele>7.77</ele>
        <time>2020-07-10T09:29:26Z</time>
      </trkpt>
      <trkpt lat="47.75656" lon="-3.51509">
        <ele>7.84</ele>
        <time>2020-07-10T09:29:27Z</time>
      </trkpt>
      <trkpt lat="47.75655" lon="-3.51504">
        <ele>7.91</ele>
        <time>2020-07-10T09:29:28Z</time>
      </trkpt>
      <trkpt lat="47.75653" lon="-3.51499">
        <ele>7.99</ele>
        <time>2020-07-10T09:29:29Z</time>
      </trkpt>
      <trkpt lat="47.7565" lon="-3.51494">
        <ele>8.06</ele>
        <time>2020-07-10T09:29:30Z</time>
      </trkpt>
      <trkpt lat="47.75646" lon="-3.51489">
        <ele>8.1</ele>
        <time>2020-07-10T09:29:31Z</time>
      </trkpt>
      <trkpt lat="47.75644" lon="-3.51483">
        <ele>8.1</ele>
        <time>2020-07-10T09:29:32Z</time>
      </trkpt>
      <trkpt lat="47.75641" lon="-3.51477">
        <ele>8.07</ele>
        <time>2020-07-10T09:29:33Z</time>
      </trkpt>
      <trkpt lat="47.75638" lon="-3.5147">
        <ele>8.02</ele>
        <time>2020-07-10T09:29:34Z</time>
      </trkpt>
      <trkpt lat="47.75635" lon="-3.51463">
        <ele>7.97</ele>
        <time>2020-07-10T09:29:35Z</time>
      </trkpt>
      <trkpt lat="47.75632" lon="-3.51456">
        <ele>7.88</ele>
        <time>2020-07-10T09:29:36Z</time>
      </trkpt>
      <trkpt lat="47.75628" lon="-3.51449">
        <ele>7.74</ele>
        <time>2020-07-10T09:29:37Z</time>
      </trkpt>
      <trkpt lat="47.75625" lon="-3.51442">
        <ele>7.57</ele>
        <time>2020-07-10T09:29:38Z</time>
      </trkpt>
      <trkpt lat="47.75622" lon="-3.51435">
        <ele>7.44</ele>
        <time>2020-07-10T09:29:39Z</time>
      </trkpt>
      <trkpt lat="47.75619" lon="-3.51428">
        <ele>7.32</ele>
        <time>2020-07-10T09:29:40Z</time>
      </trkpt>
      <trkpt lat="47.75615" lon="-3.51422">
        <ele>7.2</ele>
        <time>2020-07-10T09:29:41Z</time>
      </trkpt>
      <trkpt lat="47.75612" lon="-3.51416">
        <ele>7.09</ele>
        <time>2020-07-10T09:29:42Z</time>
      </trkpt>
      <trkpt lat="47.75609" lon="-3.51409">
        <ele>7.03</ele>
        <time>2020-07-10T09:29:43Z</time>
      </trkpt>
      <trkpt lat="47.75607" lon="-3.51404">
        <ele>7.01</ele>
        <time>2020-07-10T09:29:44Z</time>
      </trkpt>
      <trkpt lat="47.75604" lon="-3.51398">
        <ele>7</ele>
        <time>2020-07-10T09:29:45Z</time>
      </trkpt>
      <trkpt lat="47.75601" lon="-3.51392">
        <ele>7</ele>
        <time>2020-07-10T09:29:46Z</time>
      </trkpt>
      <trkpt lat="47.75599" lon="-3.51386">
        <ele>7.04</ele>
        <time>2020-07-10T09:29:47Z</time>
      </trkpt>
      <trkpt lat="47.75596" lon="-3.51381">
        <ele>7.11</ele>
        <time>2020-07-10T09:29:48Z</time>
      </trkpt>
      <trkpt lat="47.75594" lon="-3.51375">
        <ele>7.17</ele>
        <time>2020-07-10T09:29:49Z</time>
      </trkpt>
      <trkpt lat="47.75592" lon="-3.51371">
        <ele>7.19</ele>
        <time>2020-07-10T09:29:50Z</time>
      </trkpt>
      <trkpt lat="47.7559" lon="-3.51366">
        <ele>7.19</ele>
        <time>2020-07-10T09:29:51Z</time>
      </trkpt>
      <trkpt lat="47.75587" lon="-3.5136">
        <ele>7.16</ele>
        <time>2020-07-10T09:29:52Z</time>
      </trkpt>
      <trkpt lat="47.75586" lon="-3.51356">
        <ele>7.1</ele>
        <time>2020-07-10T09:29:53Z</time>
      </trkpt>
      <trkpt lat="47.75584" lon="-3.51351">
        <ele>7.04</ele>
        <time>2020-07-10T09:29:54Z</time>
      </trkpt>
      <trkpt lat="47.75581" lon="-3.51347">
        <ele>7.06</ele>
        <time>2020-07-10T09:29:55Z</time>
      </trkpt>
      <trkpt lat="47.75579" lon="-3.51345">
        <ele>7.14</ele>
        <time>2020-07-10T09:29:56Z</time>
      </trkpt>
      <trkpt lat="47.75575" lon="-3.51345">
        <ele>7.26</ele>
        <time>2020-07-10T09:29:57Z</time>
      </trkpt>
      <trkpt lat="47.75571" lon="-3.51347">
        <ele>7.38</ele>
        <time>2020-07-10T09:29:58Z</time>
      </trkpt>
      <trkpt lat="47.75568" lon="-3.51351">
        <ele>7.5</ele>
        <time>2020-07-10T09:29:59Z</time>
      </trkpt>
      <trkpt lat="47.75565" lon="-3.51356">
        <ele>7.61</ele>
        <time>2020-07-10T09:30:00Z</time>
      </trkpt>
      <trkpt lat="47.75562" lon="-3.51361">
        <ele>7.73</ele>
        <time>2020-07-10T09:30:01Z</time>
      </trkpt>
      <trkpt lat="47.75558" lon="-3.51366">
        <ele>7.73</ele>
        <time>2020-07-10T09:30:02Z</time>
      </trkpt>
      <trkpt lat="47.75555" lon="-3.51371">
        <ele>7.67</ele>
        <time>2020-07-10T09:30:03Z</time>
      </trkpt>
      <trkpt lat="47.75551" lon="-3.51373">
        <ele>7.64</ele>
        <time>2020-07-10T09:30:04Z</time>
      </trkpt>
      <trkpt lat="47.75547" lon="-3.51373">
        <ele>7.69</ele>
        <time>2020-07-10T09:30:05Z</time>
      </trkpt>
      <trkpt lat="47.75543" lon="-3.5137">
        <ele>7.79</ele>
        <time>2020-07-10T09:30:06Z</time>
      </trkpt>
      <trkpt lat="47.75539" lon="-3.51366">
        <ele>7.88</ele>
        <time>2020-07-10T09:30:07Z</time>
      </trkpt>
      <trkpt lat="47.75536" lon="-3.51363">
        <ele>7.95</ele>
        <time>2020-07-10T09:30:08Z</time>
      </trkpt>
      <trkpt lat="47.75533" lon="-3.5136">
        <ele>7.98</ele>
        <time>2020-07-10T09:30:09Z</time>
      </trkpt>
      <trkpt lat="47.75531" lon="-3.51359">
        <ele>8</ele>
        <time>2020-07-10T09:30:10Z</time>
      </trkpt>
      <trkpt lat="47.7553" lon="-3.51359">
        <ele>8</ele>
        <time>2020-07-10T09:30:11Z</time>
      </trkpt>
      <trkpt lat="47.7553" lon="-3.51359">
        <ele>8</ele>
        <time>2020-07-10T09:30:12Z</time>
      </trkpt>
      <trkpt lat="47.7553" lon="-3.51358">
        <ele>8</ele>
        <time>2020-07-10T09:30:13Z</time>
      </trkpt>
      <trkpt lat="47.7553" lon="-3.51358">
        <ele>8</ele>
        <time>2020-07-10T09:30:14Z</time>
      </trkpt>
      <trkpt lat="47.7553" lon="-3.51358">
        <ele>8</ele>
        <time>2020-07-10T09:30:15Z</time>
      </trkpt>
      <trkpt lat="47.7553" lon="-3.51358">
        <ele>8</ele>
        <time>2020-07-10T09:30:16Z</time>
      </trkpt>
      <trkpt lat="47.7553" lon="-3.51358">
        <ele>8</ele>
        <time>2020-07-10T09:30:17Z</time>
      </trkpt>
      <trkpt lat="47.7553" lon="-3.51358">
        <ele>8</ele>
        <time>2020-07-10T09:30:18Z</time>
      </trkpt>
      <trkpt lat="47.7553" lon="-3.51358">
        <ele>8</ele>
        <time>2020-07-10T09:30:19Z</time>
      </trkpt>
      <trkpt lat="47.7553" lon="-3.51358">
        <ele>8</ele>
        <time>2020-07-10T09:30:20Z</time>
      </trkpt>
      <trkpt lat="47.7553" lon="-3.51358">
        <ele>8</ele>
        <time>2020-07-10T09:30:21Z</time>
      </trkpt>
      <trkpt lat="47.7553" lon="-3.51358">
        <ele>8</ele>
        <time>2020-07-10T09:30:22Z</time>
      </trkpt>
      <trkpt lat="47.7553" lon="-3.51358">
        <ele>8</ele>
        <time>2020-07-10T09:30:23Z</time>
      </trkpt>
      <trkpt lat="47.7553" lon="-3.51358">
        <ele>8</ele>
        <time>2020-07-10T09:30:24Z</time>
      </trkpt>
      <trkpt lat="47.7553" lon="-3.51358">
        <ele>8</ele>
        <time>2020-07-10T09:30:25Z</time>
      </trkpt>
      <trkpt lat="47.7553" lon="-3.51358">
        <ele>8</ele>
        <time>2020-07-10T09:30:26Z</time>
      </trkpt>
      <trkpt lat="47.7553" lon="-3.51358">
        <ele>8</ele>
        <time>2020-07-10T09:30:27Z</time>
      </trkpt>
      <trkpt lat="47.7553" lon="-3.51358">
        <ele>8</ele>
        <time>2020-07-10T09:30:28Z</time>
      </trkpt>
      <trkpt lat="47.7553" lon="-3.51358">
        <ele>8</ele>
        <time>2020-07-10T09:30:29Z</time>
      </trkpt>
      <trkpt lat="47.7553" lon="-3.51358">
        <ele>8</ele>
        <time>2020-07-10T09:30:30Z</time>
      </trkpt>
      <trkpt lat="47.7553" lon="-3.51358">
        <ele>8</ele>
        <time>2020-07-10T09:30:31Z</time>
      </trkpt>
      <trkpt lat="47.75527" lon="-3.51355">
        <ele>8.01</ele>
        <time>2020-07-10T09:30:32Z</time>
      </trkpt>
      <trkpt lat="47.75525" lon="-3.51352">
        <ele>8.05</ele>
        <time>2020-07-10T09:30:33Z</time>
      </trkpt>
      <trkpt lat="47.75524" lon="-3.51349">
        <ele>8.07</ele>
        <time>2020-07-10T09:30:34Z</time>
      </trkpt>
      <trkpt lat="47.75522" lon="-3.51346">
        <ele>8.09</ele>
        <time>2020-07-10T09:30:35Z</time>
      </trkpt>
      <trkpt lat="47.75521" lon="-3.51344">
        <ele>8.09</ele>
        <time>2020-07-10T09:30:36Z</time>
      </trkpt>
      <trkpt lat="47.7552" lon="-3.51342">
        <ele>8.09</ele>
        <time>2020-07-10T09:30:37Z</time>
      </trkpt>
      <trkpt lat="47.75518" lon="-3.5134">
        <ele>8.08</ele>
        <time>2020-07-10T09:30:38Z</time>
      </trkpt>
      <trkpt lat="47.75517" lon="-3.51338">
        <ele>8.07</ele>
        <time>2020-07-10T09:30:39Z</time>
      </trkpt>
      <trkpt lat="47.75516" lon="-3.51337">
        <ele>8.06</ele>
        <time>2020-07-10T09:30:40Z</time>
      </trkpt>
      <trkpt lat="47.75515" lon="-3.51336">
        <ele>8.04</ele>
        <time>2020-07-10T09:30:41Z</time>
      </trkpt>
      <trkpt lat="47.75513" lon="-3.51333">
        <ele>8.02</ele>
        <time>2020-07-10T09:30:42Z</time>
      </trkpt>
      <trkpt lat="47.75511" lon="-3.51331">
        <ele>8</ele>
        <time>2020-07-10T09:30:43Z</time>
      </trkpt>
      <trkpt lat="47.75509" lon="-3.51328">
        <ele>8</ele>
        <time>2020-07-10T09:30:44Z</time>
      </trkpt>
      <trkpt lat="47.75507" lon="-3.51324">
        <ele>8</ele>
        <time>2020-07-10T09:30:45Z</time>
      </trkpt>
      <trkpt lat="47.75504" lon="-3.51321">
        <ele>8</ele>
        <time>2020-07-10T09:30:46Z</time>
      </trkpt>
      <trkpt lat="47.755" lon="-3.51317">
        <ele>8</ele>
        <time>2020-07-10T09:30:47Z</time>
      </trkpt>
      <trkpt lat="47.75497" lon="-3.51312">
        <ele>8.02</ele>
        <time>2020-07-10T09:30:48Z</time>
      </trkpt>
      <trkpt lat="47.75494" lon="-3.51307">
        <ele>8.01</ele>
        <time>2020-07-10T09:30:49Z</time>
      </trkpt>
      <trkpt lat="47.75491" lon="-3.51301">
        <ele>7.76</ele>
        <time>2020-07-10T09:30:50Z</time>
      </trkpt>
      <trkpt lat="47.75488" lon="-3.51297">
        <ele>7.37</ele>
        <time>2020-07-10T09:30:51Z</time>
      </trkpt>
      <trkpt lat="47.75484" lon="-3.51292">
        <ele>6.94</ele>
        <time>2020-07-10T09:30:52Z</time>
      </trkpt>
      <trkpt lat="47.75481" lon="-3.51288">
        <ele>6.5</ele>
        <time>2020-07-10T09:30:53Z</time>
      </trkpt>
      <trkpt lat="47.75478" lon="-3.51285">
        <ele>6.07</ele>
        <time>2020-07-10T09:30:54Z</time>
      </trkpt>
      <trkpt lat="47.75473" lon="-3.51283">
        <ele>5.71</ele>
        <time>2020-07-10T09:30:55Z</time>
      </trkpt>
      <trkpt lat="47.75469" lon="-3.51281">
        <ele>5.42</ele>
        <time>2020-07-10T09:30:56Z</time>
      </trkpt>
      <trkpt lat="47.75464" lon="-3.51281">
        <ele>5.23</ele>
        <time>2020-07-10T09:30:57Z</time>
      </trkpt>
      <trkpt lat="47.7546" lon="-3.51281">
        <ele>5.09</ele>
        <time>2020-07-10T09:30:58Z</time>
      </trkpt>
      <trkpt lat="47.75456" lon="-3.51281">
        <ele>4.93</ele>
        <time>2020-07-10T09:30:59Z</time>
      </trkpt>
      <trkpt lat="47.75452" lon="-3.5128">
        <ele>4.7</ele>
        <time>2020-07-10T09:31:00Z</time>
      </trkpt>
      <trkpt lat="47.75448" lon="-3.51278">
        <ele>4.35</ele>
        <time>2020-07-10T09:31:01Z</time>
      </trkpt>
      <trkpt lat="47.75445" lon="-3.51276">
        <ele>3.98</ele>
        <time>2020-07-10T09:31:02Z</time>
      </trkpt>
      <trkpt lat="47.75442" lon="-3.51274">
        <ele>3.94</ele>
        <time>2020-07-10T09:31:03Z</time>
      </trkpt>
      <trkpt lat="47.75439" lon="-3.51273">
        <ele>4.08</ele>
        <time>2020-07-10T09:31:04Z</time>
      </trkpt>
      <trkpt lat="47.75437" lon="-3.51271">
        <ele>4.3</ele>
        <time>2020-07-10T09:31:05Z</time>
      </trkpt>
      <trkpt lat="47.75434" lon="-3.51271">
        <ele>4.6</ele>
        <time>2020-07-10T09:31:06Z</time>
      </trkpt>
      <trkpt lat="47.75432" lon="-3.51271">
        <ele>4.91</ele>
        <time>2020-07-10T09:31:07Z</time>
      </trkpt>
      <trkpt lat="47.75431" lon="-3.51271">
        <ele>5.13</ele>
        <time>2020-07-10T09:31:08Z</time>
      </trkpt>
      <trkpt lat="47.75431" lon="-3.51271">
        <ele>5.2</ele>
        <time>2020-07-10T09:31:09Z</time>
      </trkpt>
      <trkpt lat="47.75431" lon="-3.5127">
        <ele>5.16</ele>
        <time>2020-07-10T09:31:10Z</time>
      </trkpt>
      <trkpt lat="47.75431" lon="-3.5127">
        <ele>5.14</ele>
        <time>2020-07-10T09:31:11Z</time>
      </trkpt>
      <trkpt lat="47.75431" lon="-3.5127">
        <ele>5.14</ele>
        <time>2020-07-10T09:31:12Z</time>
      </trkpt>
      <trkpt lat="47.75431" lon="-3.5127">
        <ele>5.14</ele>
        <time>2020-07-10T09:31:13Z</time>
      </trkpt>
      <trkpt lat="47.75431" lon="-3.5127">
        <ele>5.14</ele>
        <time>2020-07-10T09:31:14Z</time>
      </trkpt>
      <trkpt lat="47.75429" lon="-3.51267">
        <ele>5.16</ele>
        <time>2020-07-10T09:31:15Z</time>
      </trkpt>
      <trkpt lat="47.75426" lon="-3.51266">
        <ele>5.27</ele>
        <time>2020-07-10T09:31:16Z</time>
      </trkpt>
      <trkpt lat="47.75424" lon="-3.51264">
        <ele>5.39</ele>
        <time>2020-07-10T09:31:17Z</time>
      </trkpt>
      <trkpt lat="47.75421" lon="-3.51261">
        <ele>5.5</ele>
        <time>2020-07-10T09:31:18Z</time>
      </trkpt>
      <trkpt lat="47.75418" lon="-3.51259">
        <ele>5.67</ele>
        <time>2020-07-10T09:31:19Z</time>
      </trkpt>
      <trkpt lat="47.75415" lon="-3.51256">
        <ele>5.8</ele>
        <time>2020-07-10T09:31:20Z</time>
      </trkpt>
      <trkpt lat="47.75412" lon="-3.51253">
        <ele>5.83</ele>
        <time>2020-07-10T09:31:21Z</time>
      </trkpt>
      <trkpt lat="47.75409" lon="-3.5125">
        <ele>5.86</ele>
        <time>2020-07-10T09:31:22Z</time>
      </trkpt>
      <trkpt lat="47.75406" lon="-3.51248">
        <ele>5.85</ele>
        <time>2020-07-10T09:31:23Z</time>
      </trkpt>
      <trkpt lat="47.75405" lon="-3.51246">
        <ele>5.83</ele>
        <time>2020-07-10T09:31:24Z</time>
      </trkpt>
      <trkpt lat="47.75404" lon="-3.51244">
        <ele>5.74</ele>
        <time>2020-07-10T09:31:25Z</time>
      </trkpt>
      <trkpt lat="47.75403" lon="-3.51242">
        <ele>5.7</ele>
        <time>2020-07-10T09:31:26Z</time>
      </trkpt>
      <trkpt lat="47.75402" lon="-3.51241">
        <ele>5.68</ele>
        <time>2020-07-10T09:31:27Z</time>
      </trkpt>
      <trkpt lat="47.754" lon="-3.5124">
        <ele>5.66</ele>
        <time>2020-07-10T09:31:28Z</time>
      </trkpt>
      <trkpt lat="47.75399" lon="-3.51238">
        <ele>5.63</ele>
        <time>2020-07-10T09:31:29Z</time>
      </trkpt>
      <trkpt lat="47.75397" lon="-3.51236">
        <ele>5.62</ele>
        <time>2020-07-10T09:31:30Z</time>
      </trkpt>
      <trkpt lat="47.75395" lon="-3.51234">
        <ele>5.64</ele>
        <time>2020-07-10T09:31:31Z</time>
      </trkpt>
      <trkpt lat="47.75392" lon="-3.51231">
        <ele>5.65</ele>
        <time>2020-07-10T09:31:32Z</time>
      </trkpt>
      <trkpt lat="47.75391" lon="-3.5123">
        <ele>5.66</ele>
        <time>2020-07-10T09:31:33Z</time>
      </trkpt>
      <trkpt lat="47.75389" lon="-3.51229">
        <ele>5.7</ele>
        <time>2020-07-10T09:31:34Z</time>
      </trkpt>
      <trkpt lat="47.75389" lon="-3.51229">
        <ele>5.73</ele>
        <time>2020-07-10T09:31:35Z</time>
      </trkpt>
      <trkpt lat="47.75389" lon="-3.51229">
        <ele>5.73</ele>
        <time>2020-07-10T09:31:36Z</time>
      </trkpt>
      <trkpt lat="47.75389" lon="-3.51229">
        <ele>5.74</ele>
        <time>2020-07-10T09:31:37Z</time>
      </trkpt>
      <trkpt lat="47.75389" lon="-3.51229">
        <ele>5.74</ele>
        <time>2020-07-10T09:31:38Z</time>
      </trkpt>
      <trkpt lat="47.75389" lon="-3.51229">
        <ele>5.75</ele>
        <time>2020-07-10T09:31:39Z</time>
      </trkpt>
      <trkpt lat="47.75389" lon="-3.51229">
        <ele>5.75</ele>
        <time>2020-07-10T09:31:40Z</time>
      </trkpt>
      <trkpt lat="47.75389" lon="-3.51229">
        <ele>5.75</ele>
        <time>2020-07-10T09:31:41Z</time>
      </trkpt>
      <trkpt lat="47.75384" lon="-3.51227">
        <ele>5.84</ele>
        <time>2020-07-10T09:31:42Z</time>
      </trkpt>
      <trkpt lat="47.75383" lon="-3.51226">
        <ele>5.88</ele>
        <time>2020-07-10T09:31:43Z</time>
      </trkpt>
      <trkpt lat="47.75383" lon="-3.51225">
        <ele>5.94</ele>
        <time>2020-07-10T09:31:44Z</time>
      </trkpt>
      <trkpt lat="47.75382" lon="-3.51225">
        <ele>5.97</ele>
        <time>2020-07-10T09:31:45Z</time>
      </trkpt>
      <trkpt lat="47.75381" lon="-3.51224">
        <ele>5.97</ele>
        <time>2020-07-10T09:31:46Z</time>
      </trkpt>
      <trkpt lat="47.75381" lon="-3.51224">
        <ele>5.97</ele>
        <time>2020-07-10T09:31:47Z</time>
      </trkpt>
      <trkpt lat="47.75381" lon="-3.51224">
        <ele>5.97</ele>
        <time>2020-07-10T09:31:48Z</time>
      </trkpt>
      <trkpt lat="47.75381" lon="-3.51224">
        <ele>5.97</ele>
        <time>2020-07-10T09:31:49Z</time>
      </trkpt>
      <trkpt lat="47.75381" lon="-3.51224">
        <ele>5.97</ele>
        <time>2020-07-10T09:31:50Z</time>
      </trkpt>
      <trkpt lat="47.75381" lon="-3.51224">
        <ele>5.97</ele>
        <time>2020-07-10T09:31:51Z</time>
      </trkpt>
      <trkpt lat="47.75381" lon="-3.51224">
        <ele>5.97</ele>
        <time>2020-07-10T09:31:52Z</time>
      </trkpt>
      <trkpt lat="47.75381" lon="-3.51224">
        <ele>5.97</ele>
        <time>2020-07-10T09:31:53Z</time>
      </trkpt>
      <trkpt lat="47.75381" lon="-3.51224">
        <ele>5.97</ele>
        <time>2020-07-10T09:31:54Z</time>
      </trkpt>
      <trkpt lat="47.75376" lon="-3.51217">
        <ele>5.81</ele>
        <time>2020-07-10T09:31:55Z</time>
      </trkpt>
      <trkpt lat="47.75374" lon="-3.51215">
        <ele>5.75</ele>
        <time>2020-07-10T09:31:56Z</time>
      </trkpt>
      <trkpt lat="47.75372" lon="-3.51213">
        <ele>5.77</ele>
        <time>2020-07-10T09:31:57Z</time>
      </trkpt>
      <trkpt lat="47.75369" lon="-3.51211">
        <ele>5.81</ele>
        <time>2020-07-10T09:31:58Z</time>
      </trkpt>
      <trkpt lat="47.75367" lon="-3.51209">
        <ele>5.87</ele>
        <time>2020-07-10T09:31:59Z</time>
      </trkpt>
      <trkpt lat="47.75365" lon="-3.51208">
        <ele>5.91</ele>
        <time>2020-07-10T09:32:00Z</time>
      </trkpt>
      <trkpt lat="47.75363" lon="-3.51207">
        <ele>6</ele>
        <time>2020-07-10T09:32:01Z</time>
      </trkpt>
      <trkpt lat="47.75362" lon="-3.51205">
        <ele>6.06</ele>
        <time>2020-07-10T09:32:02Z</time>
      </trkpt>
      <trkpt lat="47.7536" lon="-3.51204">
        <ele>6.04</ele>
        <time>2020-07-10T09:32:03Z</time>
      </trkpt>
      <trkpt lat="47.75359" lon="-3.51202">
        <ele>5.96</ele>
        <time>2020-07-10T09:32:04Z</time>
      </trkpt>
      <trkpt lat="47.75357" lon="-3.51201">
        <ele>5.86</ele>
        <time>2020-07-10T09:32:05Z</time>
      </trkpt>
      <trkpt lat="47.75355" lon="-3.51199">
        <ele>5.72</ele>
        <time>2020-07-10T09:32:06Z</time>
      </trkpt>
      <trkpt lat="47.75353" lon="-3.51197">
        <ele>5.58</ele>
        <time>2020-07-10T09:32:07Z</time>
      </trkpt>
      <trkpt lat="47.75351" lon="-3.51195">
        <ele>5.47</ele>
        <time>2020-07-10T09:32:08Z</time>
      </trkpt>
      <trkpt lat="47.75349" lon="-3.51193">
        <ele>5.31</ele>
        <time>2020-07-10T09:32:09Z</time>
      </trkpt>
      <trkpt lat="47.75347" lon="-3.51192">
        <ele>5.15</ele>
        <time>2020-07-10T09:32:10Z</time>
      </trkpt>
      <trkpt lat="47.75345" lon="-3.51191">
        <ele>4.99</ele>
        <time>2020-07-10T09:32:11Z</time>
      </trkpt>
      <trkpt lat="47.75343" lon="-3.51189">
        <ele>4.85</ele>
        <time>2020-07-10T09:32:12Z</time>
      </trkpt>
      <trkpt lat="47.75341" lon="-3.51188">
        <ele>4.71</ele>
        <time>2020-07-10T09:32:13Z</time>
      </trkpt>
      <trkpt lat="47.75339" lon="-3.51187">
        <ele>4.55</ele>
        <time>2020-07-10T09:32:14Z</time>
      </trkpt>
      <trkpt lat="47.75336" lon="-3.51185">
        <ele>4.35</ele>
        <time>2020-07-10T09:32:15Z</time>
      </trkpt>
      <trkpt lat="47.75333" lon="-3.51183">
        <ele>4.1</ele>
        <time>2020-07-10T09:32:16Z</time>
      </trkpt>
      <trkpt lat="47.7533" lon="-3.51182">
        <ele>3.9</ele>
        <time>2020-07-10T09:32:17Z</time>
      </trkpt>
      <trkpt lat="47.75328" lon="-3.51181">
        <ele>3.75</ele>
        <time>2020-07-10T09:32:18Z</time>
      </trkpt>
      <trkpt lat="47.75325" lon="-3.5118">
        <ele>3.66</ele>
        <time>2020-07-10T09:32:19Z</time>
      </trkpt>
      <trkpt lat="47.75323" lon="-3.51178">
        <ele>3.52</ele>
        <time>2020-07-10T09:32:20Z</time>
      </trkpt>
      <trkpt lat="47.7532" lon="-3.51177">
        <ele>3.37</ele>
        <time>2020-07-10T09:32:21Z</time>
      </trkpt>
      <trkpt lat="47.75316" lon="-3.51176">
        <ele>3.15</ele>
        <time>2020-07-10T09:32:22Z</time>
      </trkpt>
      <trkpt lat="47.75313" lon="-3.51174">
        <ele>2.81</ele>
        <time>2020-07-10T09:32:23Z</time>
      </trkpt>
      <trkpt lat="47.75309" lon="-3.51172">
        <ele>2.42</ele>
        <time>2020-07-10T09:32:24Z</time>
      </trkpt>
      <trkpt lat="47.75306" lon="-3.51171">
        <ele>2.1</ele>
        <time>2020-07-10T09:32:25Z</time>
      </trkpt>
      <trkpt lat="47.75305" lon="-3.5117">
        <ele>2.13</ele>
        <time>2020-07-10T09:32:26Z</time>
      </trkpt>
      <trkpt lat="47.75304" lon="-3.51171">
        <ele>2.34</ele>
        <time>2020-07-10T09:32:27Z</time>
      </trkpt>
      <trkpt lat="47.75304" lon="-3.51171">
        <ele>2.37</ele>
        <time>2020-07-10T09:32:28Z</time>
      </trkpt>
      <trkpt lat="47.75304" lon="-3.51171">
        <ele>2.4</ele>
        <time>2020-07-10T09:32:29Z</time>
      </trkpt>
      <trkpt lat="47.75304" lon="-3.51171">
        <ele>2.41</ele>
        <time>2020-07-10T09:32:30Z</time>
      </trkpt>
      <trkpt lat="47.75304" lon="-3.51171">
        <ele>2.42</ele>
        <time>2020-07-10T09:32:31Z</time>
      </trkpt>
      <trkpt lat="47.75304" lon="-3.51171">
        <ele>2.42</ele>
        <time>2020-07-10T09:32:32Z</time>
      </trkpt>
      <trkpt lat="47.75304" lon="-3.51171">
        <ele>2.42</ele>
        <time>2020-07-10T09:32:33Z</time>
      </trkpt>
      <trkpt lat="47.75304" lon="-3.51171">
        <ele>2.42</ele>
        <time>2020-07-10T09:32:34Z</time>
      </trkpt>
      <trkpt lat="47.75304" lon="-3.51171">
        <ele>2.42</ele>
        <time>2020-07-10T09:32:35Z</time>
      </trkpt>
      <trkpt lat="47.75304" lon="-3.51171">
        <ele>2.42</ele>
        <time>2020-07-10T09:32:36Z</time>
      </trkpt>
      <trkpt lat="47.75304" lon="-3.51171">
        <ele>2.42</ele>
        <time>2020-07-10T09:32:37Z</time>
      </trkpt>
      <trkpt lat="47.75304" lon="-3.51171">
        <ele>2.42</ele>
        <time>2020-07-10T09:32:38Z</time>
      </trkpt>
      <trkpt lat="47.753" lon="-3.51171">
        <ele>3.51</ele>
        <time>2020-07-10T09:32:39Z</time>
      </trkpt>
      <trkpt lat="47.75299" lon="-3.51171">
        <ele>4.2</ele>
        <time>2020-07-10T09:32:40Z</time>
      </trkpt>
      <trkpt lat="47.75297" lon="-3.51171">
        <ele>4.75</ele>
        <time>2020-07-10T09:32:41Z</time>
      </trkpt>
      <trkpt lat="47.75296" lon="-3.5117">
        <ele>5.03</ele>
        <time>2020-07-10T09:32:42Z</time>
      </trkpt>
      <trkpt lat="47.75295" lon="-3.51169">
        <ele>5.39</ele>
        <time>2020-07-10T09:32:43Z</time>
      </trkpt>
      <trkpt lat="47.75294" lon="-3.51168">
        <ele>5.69</ele>
        <time>2020-07-10T09:32:44Z</time>
      </trkpt>
      <trkpt lat="47.75293" lon="-3.51168">
        <ele>5.99</ele>
        <time>2020-07-10T09:32:45Z</time>
      </trkpt>
      <trkpt lat="47.75292" lon="-3.51166">
        <ele>6.18</ele>
        <time>2020-07-10T09:32:46Z</time>
      </trkpt>
      <trkpt lat="47.75292" lon="-3.51165">
        <ele>6.4</ele>
        <time>2020-07-10T09:32:47Z</time>
      </trkpt>
      <trkpt lat="47.75292" lon="-3.51165">
        <ele>6.47</ele>
        <time>2020-07-10T09:32:48Z</time>
      </trkpt>
      <trkpt lat="47.75292" lon="-3.51165">
        <ele>6.49</ele>
        <time>2020-07-10T09:32:49Z</time>
      </trkpt>
      <trkpt lat="47.75292" lon="-3.51165">
        <ele>6.49</ele>
        <time>2020-07-10T09:32:50Z</time>
      </trkpt>
      <trkpt lat="47.75292" lon="-3.51165">
        <ele>6.49</ele>
        <time>2020-07-10T09:32:51Z</time>
      </trkpt>
      <trkpt lat="47.75292" lon="-3.51165">
        <ele>6.49</ele>
        <time>2020-07-10T09:32:52Z</time>
      </trkpt>
      <trkpt lat="47.75292" lon="-3.51165">
        <ele>6.49</ele>
        <time>2020-07-10T09:32:53Z</time>
      </trkpt>
      <trkpt lat="47.75292" lon="-3.51165">
        <ele>6.49</ele>
        <time>2020-07-10T09:32:54Z</time>
      </trkpt>
      <trkpt lat="47.75292" lon="-3.51165">
        <ele>6.49</ele>
        <time>2020-07-10T09:32:55Z</time>
      </trkpt>
      <trkpt lat="47.75292" lon="-3.51159">
        <ele>6.51</ele>
        <time>2020-07-10T09:32:56Z</time>
      </trkpt>
      <trkpt lat="47.75293" lon="-3.51155">
        <ele>6.52</ele>
        <time>2020-07-10T09:32:57Z</time>
      </trkpt>
      <trkpt lat="47.75293" lon="-3.5115">
        <ele>6.51</ele>
        <time>2020-07-10T09:32:58Z</time>
      </trkpt>
      <trkpt lat="47.75294" lon="-3.51145">
        <ele>6.5</ele>
        <time>2020-07-10T09:32:59Z</time>
      </trkpt>
      <trkpt lat="47.75295" lon="-3.5114">
        <ele>6.29</ele>
        <time>2020-07-10T09:33:00Z</time>
      </trkpt>
      <trkpt lat="47.75297" lon="-3.51136">
        <ele>5.88</ele>
        <time>2020-07-10T09:33:01Z</time>
      </trkpt>
      <trkpt lat="47.75298" lon="-3.51132">
        <ele>5.53</ele>
        <time>2020-07-10T09:33:02Z</time>
      </trkpt>
      <trkpt lat="47.75299" lon="-3.51127">
        <ele>5.26</ele>
        <time>2020-07-10T09:33:03Z</time>
      </trkpt>
      <trkpt lat="47.753" lon="-3.51122">
        <ele>5.18</ele>
        <time>2020-07-10T09:33:04Z</time>
      </trkpt>
      <trkpt lat="47.75301" lon="-3.51117">
        <ele>5.11</ele>
        <time>2020-07-10T09:33:05Z</time>
      </trkpt>
      <trkpt lat="47.75302" lon="-3.51113">
        <ele>5.03</ele>
        <time>2020-07-10T09:33:06Z</time>
      </trkpt>
      <trkpt lat="47.75304" lon="-3.51108">
        <ele>4.84</ele>
        <time>2020-07-10T09:33:07Z</time>
      </trkpt>
      <trkpt lat="47.75305" lon="-3.51103">
        <ele>4.58</ele>
        <time>2020-07-10T09:33:08Z</time>
      </trkpt>
      <trkpt lat="47.75307" lon="-3.51097">
        <ele>4.45</ele>
        <time>2020-07-10T09:33:09Z</time>
      </trkpt>
      <trkpt lat="47.75307" lon="-3.51091">
        <ele>4.49</ele>
        <time>2020-07-10T09:33:10Z</time>
      </trkpt>
      <trkpt lat="47.75308" lon="-3.51086">
        <ele>4.55</ele>
        <time>2020-07-10T09:33:11Z</time>
      </trkpt>
      <trkpt lat="47.75308" lon="-3.5108">
        <ele>4.64</ele>
        <time>2020-07-10T09:33:12Z</time>
      </trkpt>
      <trkpt lat="47.75308" lon="-3.51075">
        <ele>4.64</ele>
        <time>2020-07-10T09:33:13Z</time>
      </trkpt>
      <trkpt lat="47.75307" lon="-3.5107">
        <ele>4.7</ele>
        <time>2020-07-10T09:33:14Z</time>
      </trkpt>
      <trkpt lat="47.75306" lon="-3.51065">
        <ele>4.85</ele>
        <time>2020-07-10T09:33:15Z</time>
      </trkpt>
      <trkpt lat="47.75305" lon="-3.51061">
        <ele>5.09</ele>
        <time>2020-07-10T09:33:16Z</time>
      </trkpt>
      <trkpt lat="47.75304" lon="-3.51057">
        <ele>5.34</ele>
        <time>2020-07-10T09:33:17Z</time>
      </trkpt>
      <trkpt lat="47.75303" lon="-3.51052">
        <ele>5.61</ele>
        <time>2020-07-10T09:33:18Z</time>
      </trkpt>
      <trkpt lat="47.75302" lon="-3.51047">
        <ele>5.89</ele>
        <time>2020-07-10T09:33:19Z</time>
      </trkpt>
      <trkpt lat="47.75302" lon="-3.51041">
        <ele>6.11</ele>
        <time>2020-07-10T09:33:20Z</time>
      </trkpt>
      <trkpt lat="47.75302" lon="-3.51037">
        <ele>6.26</ele>
        <time>2020-07-10T09:33:21Z</time>
      </trkpt>
      <trkpt lat="47.75302" lon="-3.51033">
        <ele>6.32</ele>
        <time>2020-07-10T09:33:22Z</time>
      </trkpt>
      <trkpt lat="47.75302" lon="-3.5103">
        <ele>6.4</ele>
        <time>2020-07-10T09:33:23Z</time>
      </trkpt>
      <trkpt lat="47.75302" lon="-3.51027">
        <ele>6.5</ele>
        <time>2020-07-10T09:33:24Z</time>
      </trkpt>
      <trkpt lat="47.75302" lon="-3.51024">
        <ele>6.52</ele>
        <time>2020-07-10T09:33:25Z</time>
      </trkpt>
      <trkpt lat="47.75302" lon="-3.51021">
        <ele>6.5</ele>
        <time>2020-07-10T09:33:26Z</time>
      </trkpt>
      <trkpt lat="47.75303" lon="-3.51019">
        <ele>6.44</ele>
        <time>2020-07-10T09:33:27Z</time>
      </trkpt>
      <trkpt lat="47.75304" lon="-3.51017">
        <ele>6.34</ele>
        <time>2020-07-10T09:33:28Z</time>
      </trkpt>
      <trkpt lat="47.75304" lon="-3.51015">
        <ele>6.24</ele>
        <time>2020-07-10T09:33:29Z</time>
      </trkpt>
      <trkpt lat="47.75305" lon="-3.51014">
        <ele>6.13</ele>
        <time>2020-07-10T09:33:30Z</time>
      </trkpt>
      <trkpt lat="47.75305" lon="-3.51012">
        <ele>6.08</ele>
        <time>2020-07-10T09:33:31Z</time>
      </trkpt>
      <trkpt lat="47.75305" lon="-3.51011">
        <ele>6.1</ele>
        <time>2020-07-10T09:33:32Z</time>
      </trkpt>
      <trkpt lat="47.75305" lon="-3.51012">
        <ele>6.1</ele>
        <time>2020-07-10T09:33:33Z</time>
      </trkpt>
      <trkpt lat="47.75305" lon="-3.51012">
        <ele>6.1</ele>
        <time>2020-07-10T09:33:34Z</time>
      </trkpt>
      <trkpt lat="47.75305" lon="-3.51012">
        <ele>6.1</ele>
        <time>2020-07-10T09:33:35Z</time>
      </trkpt>
      <trkpt lat="47.75305" lon="-3.51012">
        <ele>6.1</ele>
        <time>2020-07-10T09:33:36Z</time>
      </trkpt>
      <trkpt lat="47.75305" lon="-3.51012">
        <ele>6.1</ele>
        <time>2020-07-10T09:33:37Z</time>
      </trkpt>
      <trkpt lat="47.75304" lon="-3.51007">
        <ele>6.15</ele>
        <time>2020-07-10T09:33:38Z</time>
      </trkpt>
      <trkpt lat="47.75304" lon="-3.51006">
        <ele>6.17</ele>
        <time>2020-07-10T09:33:39Z</time>
      </trkpt>
      <trkpt lat="47.75304" lon="-3.51004">
        <ele>6.19</ele>
        <time>2020-07-10T09:33:40Z</time>
      </trkpt>
      <trkpt lat="47.75304" lon="-3.51002">
        <ele>6.25</ele>
        <time>2020-07-10T09:33:41Z</time>
      </trkpt>
      <trkpt lat="47.75304" lon="-3.51001">
        <ele>6.25</ele>
        <time>2020-07-10T09:33:42Z</time>
      </trkpt>
      <trkpt lat="47.75304" lon="-3.50999">
        <ele>6.21</ele>
        <time>2020-07-10T09:33:43Z</time>
      </trkpt>
      <trkpt lat="47.75304" lon="-3.50998">
        <ele>6.17</ele>
        <time>2020-07-10T09:33:44Z</time>
      </trkpt>
      <trkpt lat="47.75304" lon="-3.50996">
        <ele>6.12</ele>
        <time>2020-07-10T09:33:45Z</time>
      </trkpt>
      <trkpt lat="47.75304" lon="-3.50995">
        <ele>6.06</ele>
        <time>2020-07-10T09:33:46Z</time>
      </trkpt>
      <trkpt lat="47.75304" lon="-3.50994">
        <ele>6.02</ele>
        <time>2020-07-10T09:33:47Z</time>
      </trkpt>
      <trkpt lat="47.75304" lon="-3.50992">
        <ele>6</ele>
        <time>2020-07-10T09:33:48Z</time>
      </trkpt>
      <trkpt lat="47.75304" lon="-3.50992">
        <ele>6</ele>
        <time>2020-07-10T09:33:49Z</time>
      </trkpt>
      <trkpt lat="47.75304" lon="-3.50992">
        <ele>6</ele>
        <time>2020-07-10T09:33:50Z</time>
      </trkpt>
      <trkpt lat="47.75303" lon="-3.50988">
        <ele>6.01</ele>
        <time>2020-07-10T09:33:51Z</time>
      </trkpt>
      <trkpt lat="47.75302" lon="-3.50987">
        <ele>6.09</ele>
        <time>2020-07-10T09:33:52Z</time>
      </trkpt>
      <trkpt lat="47.75301" lon="-3.50986">
        <ele>6.21</ele>
        <time>2020-07-10T09:33:53Z</time>
      </trkpt>
      <trkpt lat="47.753" lon="-3.50985">
        <ele>6.3</ele>
        <time>2020-07-10T09:33:54Z</time>
      </trkpt>
      <trkpt lat="47.753" lon="-3.50984">
        <ele>6.36</ele>
        <time>2020-07-10T09:33:55Z</time>
      </trkpt>
      <trkpt lat="47.75299" lon="-3.50983">
        <ele>6.4</ele>
        <time>2020-07-10T09:33:56Z</time>
      </trkpt>
      <trkpt lat="47.75299" lon="-3.50983">
        <ele>6.41</ele>
        <time>2020-07-10T09:33:57Z</time>
      </trkpt>
      <trkpt lat="47.75299" lon="-3.50983">
        <ele>6.41</ele>
        <time>2020-07-10T09:33:58Z</time>
      </trkpt>
      <trkpt lat="47.75299" lon="-3.50983">
        <ele>6.42</ele>
        <time>2020-07-10T09:33:59Z</time>
      </trkpt>
      <trkpt lat="47.75299" lon="-3.50983">
        <ele>6.42</ele>
        <time>2020-07-10T09:34:00Z</time>
      </trkpt>
      <trkpt lat="47.75299" lon="-3.50983">
        <ele>6.42</ele>
        <time>2020-07-10T09:34:01Z</time>
      </trkpt>
      <trkpt lat="47.75299" lon="-3.50983">
        <ele>6.42</ele>
        <time>2020-07-10T09:34:02Z</time>
      </trkpt>
      <trkpt lat="47.75299" lon="-3.50983">
        <ele>6.42</ele>
        <time>2020-07-10T09:34:03Z</time>
      </trkpt>
      <trkpt lat="47.75299" lon="-3.50983">
        <ele>6.42</ele>
        <time>2020-07-10T09:34:04Z</time>
      </trkpt>
      <trkpt lat="47.75299" lon="-3.50983">
        <ele>6.42</ele>
        <time>2020-07-10T09:34:05Z</time>
      </trkpt>
      <trkpt lat="47.75299" lon="-3.50983">
        <ele>6.42</ele>
        <time>2020-07-10T09:34:06Z</time>
      </trkpt>
      <trkpt lat="47.75292" lon="-3.50975">
        <ele>7.17</ele>
        <time>2020-07-10T09:34:07Z</time>
      </trkpt>
      <trkpt lat="47.75291" lon="-3.50974">
        <ele>7.49</ele>
        <time>2020-07-10T09:34:08Z</time>
      </trkpt>
      <trkpt lat="47.75291" lon="-3.50974">
        <ele>7.66</ele>
        <time>2020-07-10T09:34:09Z</time>
      </trkpt>
      <trkpt lat="47.7529" lon="-3.50973">
        <ele>7.75</ele>
        <time>2020-07-10T09:34:10Z</time>
      </trkpt>
      <trkpt lat="47.7529" lon="-3.50973">
        <ele>7.83</ele>
        <time>2020-07-10T09:34:11Z</time>
      </trkpt>
      <trkpt lat="47.75289" lon="-3.50972">
        <ele>7.92</ele>
        <time>2020-07-10T09:34:12Z</time>
      </trkpt>
      <trkpt lat="47.75289" lon="-3.50972">
        <ele>7.94</ele>
        <time>2020-07-10T09:34:13Z</time>
      </trkpt>
      <trkpt lat="47.75289" lon="-3.50972">
        <ele>7.95</ele>
        <time>2020-07-10T09:34:14Z</time>
      </trkpt>
      <trkpt lat="47.75289" lon="-3.50972">
        <ele>7.95</ele>
        <time>2020-07-10T09:34:15Z</time>
      </trkpt>
      <trkpt lat="47.75289" lon="-3.50972">
        <ele>7.95</ele>
        <time>2020-07-10T09:34:16Z</time>
      </trkpt>
      <trkpt lat="47.75289" lon="-3.50972">
        <ele>7.95</ele>
        <time>2020-07-10T09:34:17Z</time>
      </trkpt>
      <trkpt lat="47.75289" lon="-3.50972">
        <ele>7.95</ele>
        <time>2020-07-10T09:34:18Z</time>
      </trkpt>
      <trkpt lat="47.75286" lon="-3.50965">
        <ele>8</ele>
        <time>2020-07-10T09:34:19Z</time>
      </trkpt>
      <trkpt lat="47.75286" lon="-3.50962">
        <ele>7.88</ele>
        <time>2020-07-10T09:34:20Z</time>
      </trkpt>
      <trkpt lat="47.75285" lon="-3.50958">
        <ele>7.79</ele>
        <time>2020-07-10T09:34:21Z</time>
      </trkpt>
      <trkpt lat="47.75284" lon="-3.50953">
        <ele>7.7</ele>
        <time>2020-07-10T09:34:22Z</time>
      </trkpt>
      <trkpt lat="47.75283" lon="-3.50949">
        <ele>7.63</ele>
        <time>2020-07-10T09:34:23Z</time>
      </trkpt>
      <trkpt lat="47.75282" lon="-3.50945">
        <ele>7.49</ele>
        <time>2020-07-10T09:34:24Z</time>
      </trkpt>
      <trkpt lat="47.75281" lon="-3.50941">
        <ele>7.42</ele>
        <time>2020-07-10T09:34:25Z</time>
      </trkpt>
      <trkpt lat="47.7528" lon="-3.50937">
        <ele>7.39</ele>
        <time>2020-07-10T09:34:26Z</time>
      </trkpt>
      <trkpt lat="47.75279" lon="-3.50932">
        <ele>7.38</ele>
        <time>2020-07-10T09:34:27Z</time>
      </trkpt>
      <trkpt lat="47.75278" lon="-3.50929">
        <ele>7.4</ele>
        <time>2020-07-10T09:34:28Z</time>
      </trkpt>
      <trkpt lat="47.75278" lon="-3.50925">
        <ele>7.34</ele>
        <time>2020-07-10T09:34:29Z</time>
      </trkpt>
      <trkpt lat="47.75278" lon="-3.5092">
        <ele>7.21</ele>
        <time>2020-07-10T09:34:30Z</time>
      </trkpt>
      <trkpt lat="47.75277" lon="-3.50915">
        <ele>7.07</ele>
        <time>2020-07-10T09:34:31Z</time>
      </trkpt>
      <trkpt lat="47.75277" lon="-3.5091">
        <ele>7.04</ele>
        <time>2020-07-10T09:34:32Z</time>
      </trkpt>
      <trkpt lat="47.75277" lon="-3.50906">
        <ele>7.03</ele>
        <time>2020-07-10T09:34:33Z</time>
      </trkpt>
      <trkpt lat="47.75277" lon="-3.50904">
        <ele>7.04</ele>
        <time>2020-07-10T09:34:34Z</time>
      </trkpt>
      <trkpt lat="47.75277" lon="-3.50902">
        <ele>7.03</ele>
        <time>2020-07-10T09:34:35Z</time>
      </trkpt>
      <trkpt lat="47.75277" lon="-3.50899">
        <ele>7.03</ele>
        <time>2020-07-10T09:34:36Z</time>
      </trkpt>
      <trkpt lat="47.75278" lon="-3.50898">
        <ele>6.99</ele>
        <time>2020-07-10T09:34:37Z</time>
      </trkpt>
      <trkpt lat="47.75278" lon="-3.50896">
        <ele>6.94</ele>
        <time>2020-07-10T09:34:38Z</time>
      </trkpt>
      <trkpt lat="47.75279" lon="-3.50893">
        <ele>6.88</ele>
        <time>2020-07-10T09:34:39Z</time>
      </trkpt>
      <trkpt lat="47.7528" lon="-3.50889">
        <ele>6.79</ele>
        <time>2020-07-10T09:34:40Z</time>
      </trkpt>
      <trkpt lat="47.7528" lon="-3.50886">
        <ele>6.66</ele>
        <time>2020-07-10T09:34:41Z</time>
      </trkpt>
      <trkpt lat="47.7528" lon="-3.50882">
        <ele>6.48</ele>
        <time>2020-07-10T09:34:42Z</time>
      </trkpt>
      <trkpt lat="47.75281" lon="-3.50878">
        <ele>6.29</ele>
        <time>2020-07-10T09:34:43Z</time>
      </trkpt>
      <trkpt lat="47.75281" lon="-3.50874">
        <ele>6.1</ele>
        <time>2020-07-10T09:34:44Z</time>
      </trkpt>
      <trkpt lat="47.75282" lon="-3.50869">
        <ele>5.91</ele>
        <time>2020-07-10T09:34:45Z</time>
      </trkpt>
      <trkpt lat="47.75282" lon="-3.50865">
        <ele>5.75</ele>
        <time>2020-07-10T09:34:46Z</time>
      </trkpt>
      <trkpt lat="47.75282" lon="-3.50861">
        <ele>5.61</ele>
        <time>2020-07-10T09:34:47Z</time>
      </trkpt>
      <trkpt lat="47.75281" lon="-3.50853">
        <ele>5.63</ele>
        <time>2020-07-10T09:34:49Z</time>
      </trkpt>
      <trkpt lat="47.75281" lon="-3.50849">
        <ele>5.68</ele>
        <time>2020-07-10T09:34:50Z</time>
      </trkpt>
      <trkpt lat="47.75281" lon="-3.50844">
        <ele>5.73</ele>
        <time>2020-07-10T09:34:51Z</time>
      </trkpt>
      <trkpt lat="47.75281" lon="-3.50839">
        <ele>5.74</ele>
        <time>2020-07-10T09:34:52Z</time>
      </trkpt>
      <trkpt lat="47.75281" lon="-3.50834">
        <ele>5.73</ele>
        <time>2020-07-10T09:34:53Z</time>
      </trkpt>
      <trkpt lat="47.75282" lon="-3.50829">
        <ele>5.72</ele>
        <time>2020-07-10T09:34:54Z</time>
      </trkpt>
      <trkpt lat="47.75282" lon="-3.50824">
        <ele>5.7</ele>
        <time>2020-07-10T09:34:55Z</time>
      </trkpt>
      <trkpt lat="47.75283" lon="-3.50819">
        <ele>5.66</ele>
        <time>2020-07-10T09:34:56Z</time>
      </trkpt>
      <trkpt lat="47.75284" lon="-3.50814">
        <ele>5.59</ele>
        <time>2020-07-10T09:34:57Z</time>
      </trkpt>
      <trkpt lat="47.75285" lon="-3.5081">
        <ele>5.49</ele>
        <time>2020-07-10T09:34:58Z</time>
      </trkpt>
      <trkpt lat="47.75287" lon="-3.50804">
        <ele>5.42</ele>
        <time>2020-07-10T09:34:59Z</time>
      </trkpt>
      <trkpt lat="47.75288" lon="-3.50798">
        <ele>5.5</ele>
        <time>2020-07-10T09:35:00Z</time>
      </trkpt>
      <trkpt lat="47.75288" lon="-3.50793">
        <ele>5.65</ele>
        <time>2020-07-10T09:35:01Z</time>
      </trkpt>
      <trkpt lat="47.75288" lon="-3.50788">
        <ele>5.85</ele>
        <time>2020-07-10T09:35:02Z</time>
      </trkpt>
      <trkpt lat="47.75287" lon="-3.50783">
        <ele>6.04</ele>
        <time>2020-07-10T09:35:03Z</time>
      </trkpt>
      <trkpt lat="47.75287" lon="-3.5078">
        <ele>6.17</ele>
        <time>2020-07-10T09:35:04Z</time>
      </trkpt>
      <trkpt lat="47.75287" lon="-3.50777">
        <ele>6.3</ele>
        <time>2020-07-10T09:35:05Z</time>
      </trkpt>
      <trkpt lat="47.75287" lon="-3.50773">
        <ele>6.55</ele>
        <time>2020-07-10T09:35:06Z</time>
      </trkpt>
      <trkpt lat="47.75285" lon="-3.50771">
        <ele>6.77</ele>
        <time>2020-07-10T09:35:07Z</time>
      </trkpt>
      <trkpt lat="47.75283" lon="-3.50771">
        <ele>6.99</ele>
        <time>2020-07-10T09:35:08Z</time>
      </trkpt>
      <trkpt lat="47.75281" lon="-3.5077">
        <ele>7.22</ele>
        <time>2020-07-10T09:35:09Z</time>
      </trkpt>
      <trkpt lat="47.75278" lon="-3.5077">
        <ele>7.45</ele>
        <time>2020-07-10T09:35:10Z</time>
      </trkpt>
      <trkpt lat="47.75276" lon="-3.5077">
        <ele>7.64</ele>
        <time>2020-07-10T09:35:11Z</time>
      </trkpt>
      <trkpt lat="47.75273" lon="-3.5077">
        <ele>7.83</ele>
        <time>2020-07-10T09:35:12Z</time>
      </trkpt>
      <trkpt lat="47.7527" lon="-3.50769">
        <ele>8.05</ele>
        <time>2020-07-10T09:35:13Z</time>
      </trkpt>
      <trkpt lat="47.75268" lon="-3.50768">
        <ele>8.31</ele>
        <time>2020-07-10T09:35:14Z</time>
      </trkpt>
      <trkpt lat="47.75265" lon="-3.50767">
        <ele>8.56</ele>
        <time>2020-07-10T09:35:15Z</time>
      </trkpt>
      <trkpt lat="47.75263" lon="-3.50765">
        <ele>8.85</ele>
        <time>2020-07-10T09:35:16Z</time>
      </trkpt>
      <trkpt lat="47.75261" lon="-3.50763">
        <ele>9.15</ele>
        <time>2020-07-10T09:35:17Z</time>
      </trkpt>
      <trkpt lat="47.75259" lon="-3.50761">
        <ele>9.48</ele>
        <time>2020-07-10T09:35:18Z</time>
      </trkpt>
      <trkpt lat="47.75256" lon="-3.50758">
        <ele>9.83</ele>
        <time>2020-07-10T09:35:19Z</time>
      </trkpt>
      <trkpt lat="47.75254" lon="-3.50755">
        <ele>10.2</ele>
        <time>2020-07-10T09:35:20Z</time>
      </trkpt>
      <trkpt lat="47.75252" lon="-3.50752">
        <ele>10.57</ele>
        <time>2020-07-10T09:35:21Z</time>
      </trkpt>
      <trkpt lat="47.7525" lon="-3.5075">
        <ele>10.89</ele>
        <time>2020-07-10T09:35:22Z</time>
      </trkpt>
      <trkpt lat="47.75248" lon="-3.50748">
        <ele>11.21</ele>
        <time>2020-07-10T09:35:23Z</time>
      </trkpt>
      <trkpt lat="47.75245" lon="-3.50745">
        <ele>11.52</ele>
        <time>2020-07-10T09:35:24Z</time>
      </trkpt>
      <trkpt lat="47.75242" lon="-3.50743">
        <ele>11.79</ele>
        <time>2020-07-10T09:35:25Z</time>
      </trkpt>
      <trkpt lat="47.75239" lon="-3.50742">
        <ele>12.02</ele>
        <time>2020-07-10T09:35:26Z</time>
      </trkpt>
      <trkpt lat="47.75237" lon="-3.50742">
        <ele>12.17</ele>
        <time>2020-07-10T09:35:27Z</time>
      </trkpt>
      <trkpt lat="47.75234" lon="-3.50741">
        <ele>12.29</ele>
        <time>2020-07-10T09:35:28Z</time>
      </trkpt>
      <trkpt lat="47.75231" lon="-3.50741">
        <ele>12.41</ele>
        <time>2020-07-10T09:35:29Z</time>
      </trkpt>
      <trkpt lat="47.75228" lon="-3.50741">
        <ele>12.5</ele>
        <time>2020-07-10T09:35:30Z</time>
      </trkpt>
      <trkpt lat="47.75225" lon="-3.50741">
        <ele>12.58</ele>
        <time>2020-07-10T09:35:31Z</time>
      </trkpt>
      <trkpt lat="47.75222" lon="-3.5074">
        <ele>12.66</ele>
        <time>2020-07-10T09:35:32Z</time>
      </trkpt>
      <trkpt lat="47.75219" lon="-3.5074">
        <ele>12.81</ele>
        <time>2020-07-10T09:35:33Z</time>
      </trkpt>
      <trkpt lat="47.75217" lon="-3.5074">
        <ele>12.99</ele>
        <time>2020-07-10T09:35:34Z</time>
      </trkpt>
      <trkpt lat="47.75214" lon="-3.50739">
        <ele>13.18</ele>
        <time>2020-07-10T09:35:35Z</time>
      </trkpt>
      <trkpt lat="47.75212" lon="-3.50738">
        <ele>13.38</ele>
        <time>2020-07-10T09:35:36Z</time>
      </trkpt>
      <trkpt lat="47.75209" lon="-3.50736">
        <ele>13.6</ele>
        <time>2020-07-10T09:35:37Z</time>
      </trkpt>
      <trkpt lat="47.75207" lon="-3.50735">
        <ele>13.81</ele>
        <time>2020-07-10T09:35:38Z</time>
      </trkpt>
      <trkpt lat="47.75205" lon="-3.50733">
        <ele>14.02</ele>
        <time>2020-07-10T09:35:39Z</time>
      </trkpt>
      <trkpt lat="47.75202" lon="-3.50732">
        <ele>14.22</ele>
        <time>2020-07-10T09:35:40Z</time>
      </trkpt>
      <trkpt lat="47.75199" lon="-3.5073">
        <ele>14.4</ele>
        <time>2020-07-10T09:35:41Z</time>
      </trkpt>
      <trkpt lat="47.75196" lon="-3.50729">
        <ele>14.59</ele>
        <time>2020-07-10T09:35:42Z</time>
      </trkpt>
      <trkpt lat="47.75193" lon="-3.50727">
        <ele>14.78</ele>
        <time>2020-07-10T09:35:43Z</time>
      </trkpt>
      <trkpt lat="47.75191" lon="-3.50726">
        <ele>14.95</ele>
        <time>2020-07-10T09:35:44Z</time>
      </trkpt>
      <trkpt lat="47.75188" lon="-3.50725">
        <ele>15.09</ele>
        <time>2020-07-10T09:35:45Z</time>
      </trkpt>
      <trkpt lat="47.75186" lon="-3.50724">
        <ele>15.22</ele>
        <time>2020-07-10T09:35:46Z</time>
      </trkpt>
      <trkpt lat="47.75184" lon="-3.50722">
        <ele>15.34</ele>
        <time>2020-07-10T09:35:47Z</time>
      </trkpt>
      <trkpt lat="47.75182" lon="-3.5072">
        <ele>15.45</ele>
        <time>2020-07-10T09:35:48Z</time>
      </trkpt>
      <trkpt lat="47.75179" lon="-3.5072">
        <ele>15.56</ele>
        <time>2020-07-10T09:35:49Z</time>
      </trkpt>
      <trkpt lat="47.75176" lon="-3.5072">
        <ele>15.67</ele>
        <time>2020-07-10T09:35:50Z</time>
      </trkpt>
      <trkpt lat="47.75173" lon="-3.50721">
        <ele>15.76</ele>
        <time>2020-07-10T09:35:51Z</time>
      </trkpt>
      <trkpt lat="47.7517" lon="-3.50723">
        <ele>15.84</ele>
        <time>2020-07-10T09:35:52Z</time>
      </trkpt>
      <trkpt lat="47.75167" lon="-3.50725">
        <ele>15.95</ele>
        <time>2020-07-10T09:35:53Z</time>
      </trkpt>
      <trkpt lat="47.75164" lon="-3.50726">
        <ele>16.11</ele>
        <time>2020-07-10T09:35:54Z</time>
      </trkpt>
      <trkpt lat="47.75161" lon="-3.50727">
        <ele>16.34</ele>
        <time>2020-07-10T09:35:55Z</time>
      </trkpt>
      <trkpt lat="47.75157" lon="-3.50729">
        <ele>16.57</ele>
        <time>2020-07-10T09:35:56Z</time>
      </trkpt>
      <trkpt lat="47.75154" lon="-3.50731">
        <ele>16.81</ele>
        <time>2020-07-10T09:35:57Z</time>
      </trkpt>
      <trkpt lat="47.7515" lon="-3.50733">
        <ele>17.08</ele>
        <time>2020-07-10T09:35:58Z</time>
      </trkpt>
      <trkpt lat="47.75146" lon="-3.50734">
        <ele>17.34</ele>
        <time>2020-07-10T09:35:59Z</time>
      </trkpt>
      <trkpt lat="47.75143" lon="-3.50735">
        <ele>17.57</ele>
        <time>2020-07-10T09:36:00Z</time>
      </trkpt>
      <trkpt lat="47.7514" lon="-3.50736">
        <ele>17.79</ele>
        <time>2020-07-10T09:36:01Z</time>
      </trkpt>
      <trkpt lat="47.75138" lon="-3.50737">
        <ele>17.99</ele>
        <time>2020-07-10T09:36:02Z</time>
      </trkpt>
      <trkpt lat="47.75135" lon="-3.50738">
        <ele>18.21</ele>
        <time>2020-07-10T09:36:03Z</time>
      </trkpt>
      <trkpt lat="47.75131" lon="-3.50739">
        <ele>18.44</ele>
        <time>2020-07-10T09:36:04Z</time>
      </trkpt>
      <trkpt lat="47.75128" lon="-3.50739">
        <ele>18.67</ele>
        <time>2020-07-10T09:36:05Z</time>
      </trkpt>
      <trkpt lat="47.75125" lon="-3.5074">
        <ele>18.89</ele>
        <time>2020-07-10T09:36:06Z</time>
      </trkpt>
      <trkpt lat="47.75122" lon="-3.5074">
        <ele>19.11</ele>
        <time>2020-07-10T09:36:07Z</time>
      </trkpt>
      <trkpt lat="47.75119" lon="-3.5074">
        <ele>19.33</ele>
        <time>2020-07-10T09:36:08Z</time>
      </trkpt>
      <trkpt lat="47.75116" lon="-3.50739">
        <ele>19.53</ele>
        <time>2020-07-10T09:36:09Z</time>
      </trkpt>
      <trkpt lat="47.75114" lon="-3.50736">
        <ele>19.72</ele>
        <time>2020-07-10T09:36:10Z</time>
      </trkpt>
      <trkpt lat="47.75111" lon="-3.50735">
        <ele>19.91</ele>
        <time>2020-07-10T09:36:11Z</time>
      </trkpt>
      <trkpt lat="47.75109" lon="-3.50732">
        <ele>20.03</ele>
        <time>2020-07-10T09:36:12Z</time>
      </trkpt>
      <trkpt lat="47.75107" lon="-3.5073">
        <ele>20.12</ele>
        <time>2020-07-10T09:36:13Z</time>
      </trkpt>
      <trkpt lat="47.75104" lon="-3.50728">
        <ele>20.21</ele>
        <time>2020-07-10T09:36:14Z</time>
      </trkpt>
      <trkpt lat="47.75102" lon="-3.50725">
        <ele>20.3</ele>
        <time>2020-07-10T09:36:15Z</time>
      </trkpt>
      <trkpt lat="47.75099" lon="-3.50724">
        <ele>20.4</ele>
        <time>2020-07-10T09:36:16Z</time>
      </trkpt>
      <trkpt lat="47.75096" lon="-3.50722">
        <ele>20.5</ele>
        <time>2020-07-10T09:36:17Z</time>
      </trkpt>
      <trkpt lat="47.75093" lon="-3.50722">
        <ele>20.6</ele>
        <time>2020-07-10T09:36:18Z</time>
      </trkpt>
      <trkpt lat="47.7509" lon="-3.50721">
        <ele>20.71</ele>
        <time>2020-07-10T09:36:19Z</time>
      </trkpt>
      <trkpt lat="47.75087" lon="-3.5072">
        <ele>20.82</ele>
        <time>2020-07-10T09:36:20Z</time>
      </trkpt>
      <trkpt lat="47.75084" lon="-3.50719">
        <ele>20.92</ele>
        <time>2020-07-10T09:36:21Z</time>
      </trkpt>
      <trkpt lat="47.75081" lon="-3.50717">
        <ele>21.02</ele>
        <time>2020-07-10T09:36:22Z</time>
      </trkpt>
      <trkpt lat="47.75078" lon="-3.50715">
        <ele>21.13</ele>
        <time>2020-07-10T09:36:23Z</time>
      </trkpt>
      <trkpt lat="47.75076" lon="-3.50712">
        <ele>21.22</ele>
        <time>2020-07-10T09:36:24Z</time>
      </trkpt>
      <trkpt lat="47.75074" lon="-3.50708">
        <ele>21.29</ele>
        <time>2020-07-10T09:36:25Z</time>
      </trkpt>
      <trkpt lat="47.75073" lon="-3.50703">
        <ele>21.35</ele>
        <time>2020-07-10T09:36:26Z</time>
      </trkpt>
      <trkpt lat="47.75071" lon="-3.50698">
        <ele>21.41</ele>
        <time>2020-07-10T09:36:27Z</time>
      </trkpt>
      <trkpt lat="47.7507" lon="-3.50693">
        <ele>21.49</ele>
        <time>2020-07-10T09:36:28Z</time>
      </trkpt>
      <trkpt lat="47.75068" lon="-3.50689">
        <ele>21.59</ele>
        <time>2020-07-10T09:36:29Z</time>
      </trkpt>
      <trkpt lat="47.75067" lon="-3.50684">
        <ele>21.7</ele>
        <time>2020-07-10T09:36:30Z</time>
      </trkpt>
      <trkpt lat="47.75065" lon="-3.5068">
        <ele>21.79</ele>
        <time>2020-07-10T09:36:31Z</time>
      </trkpt>
      <trkpt lat="47.75064" lon="-3.50675">
        <ele>21.87</ele>
        <time>2020-07-10T09:36:32Z</time>
      </trkpt>
      <trkpt lat="47.75062" lon="-3.50671">
        <ele>21.94</ele>
        <time>2020-07-10T09:36:33Z</time>
      </trkpt>
      <trkpt lat="47.75061" lon="-3.50666">
        <ele>21.98</ele>
        <time>2020-07-10T09:36:34Z</time>
      </trkpt>
      <trkpt lat="47.7506" lon="-3.50662">
        <ele>22.09</ele>
        <time>2020-07-10T09:36:35Z</time>
      </trkpt>
      <trkpt lat="47.75059" lon="-3.50658">
        <ele>22.22</ele>
        <time>2020-07-10T09:36:36Z</time>
      </trkpt>
      <trkpt lat="47.75057" lon="-3.50654">
        <ele>22.37</ele>
        <time>2020-07-10T09:36:37Z</time>
      </trkpt>
      <trkpt lat="47.75056" lon="-3.50649">
        <ele>22.55</ele>
        <time>2020-07-10T09:36:38Z</time>
      </trkpt>
      <trkpt lat="47.75054" lon="-3.50645">
        <ele>22.6</ele>
        <time>2020-07-10T09:36:39Z</time>
      </trkpt>
      <trkpt lat="47.75053" lon="-3.5064">
        <ele>22.58</ele>
        <time>2020-07-10T09:36:40Z</time>
      </trkpt>
      <trkpt lat="47.75052" lon="-3.50636">
        <ele>22.5</ele>
        <time>2020-07-10T09:36:41Z</time>
      </trkpt>
      <trkpt lat="47.7505" lon="-3.50632">
        <ele>22.33</ele>
        <time>2020-07-10T09:36:42Z</time>
      </trkpt>
      <trkpt lat="47.75048" lon="-3.50628">
        <ele>22.16</ele>
        <time>2020-07-10T09:36:43Z</time>
      </trkpt>
      <trkpt lat="47.75046" lon="-3.50623">
        <ele>22.06</ele>
        <time>2020-07-10T09:36:44Z</time>
      </trkpt>
      <trkpt lat="47.75045" lon="-3.50618">
        <ele>22.04</ele>
        <time>2020-07-10T09:36:45Z</time>
      </trkpt>
      <trkpt lat="47.75044" lon="-3.50613">
        <ele>22.08</ele>
        <time>2020-07-10T09:36:46Z</time>
      </trkpt>
      <trkpt lat="47.75042" lon="-3.50608">
        <ele>22.16</ele>
        <time>2020-07-10T09:36:47Z</time>
      </trkpt>
      <trkpt lat="47.75041" lon="-3.50604">
        <ele>22.31</ele>
        <time>2020-07-10T09:36:48Z</time>
      </trkpt>
      <trkpt lat="47.7504" lon="-3.50599">
        <ele>22.54</ele>
        <time>2020-07-10T09:36:49Z</time>
      </trkpt>
      <trkpt lat="47.75039" lon="-3.50593">
        <ele>22.84</ele>
        <time>2020-07-10T09:36:50Z</time>
      </trkpt>
      <trkpt lat="47.75037" lon="-3.50587">
        <ele>23.23</ele>
        <time>2020-07-10T09:36:51Z</time>
      </trkpt>
      <trkpt lat="47.75035" lon="-3.50581">
        <ele>23.55</ele>
        <time>2020-07-10T09:36:52Z</time>
      </trkpt>
      <trkpt lat="47.75033" lon="-3.50577">
        <ele>23.6</ele>
        <time>2020-07-10T09:36:53Z</time>
      </trkpt>
      <trkpt lat="47.75031" lon="-3.50574">
        <ele>23.59</ele>
        <time>2020-07-10T09:36:54Z</time>
      </trkpt>
      <trkpt lat="47.75027" lon="-3.50572">
        <ele>23.57</ele>
        <time>2020-07-10T09:36:55Z</time>
      </trkpt>
      <trkpt lat="47.75023" lon="-3.50571">
        <ele>23.42</ele>
        <time>2020-07-10T09:36:56Z</time>
      </trkpt>
      <trkpt lat="47.75019" lon="-3.50569">
        <ele>23.25</ele>
        <time>2020-07-10T09:36:57Z</time>
      </trkpt>
      <trkpt lat="47.75016" lon="-3.50566">
        <ele>23.12</ele>
        <time>2020-07-10T09:36:58Z</time>
      </trkpt>
      <trkpt lat="47.75014" lon="-3.50563">
        <ele>23.04</ele>
        <time>2020-07-10T09:36:59Z</time>
      </trkpt>
      <trkpt lat="47.75012" lon="-3.50559">
        <ele>22.99</ele>
        <time>2020-07-10T09:37:00Z</time>
      </trkpt>
      <trkpt lat="47.75009" lon="-3.50556">
        <ele>22.99</ele>
        <time>2020-07-10T09:37:01Z</time>
      </trkpt>
      <trkpt lat="47.75005" lon="-3.50554">
        <ele>23</ele>
        <time>2020-07-10T09:37:02Z</time>
      </trkpt>
      <trkpt lat="47.75002" lon="-3.50551">
        <ele>23</ele>
        <time>2020-07-10T09:37:03Z</time>
      </trkpt>
      <trkpt lat="47.74998" lon="-3.50548">
        <ele>22.96</ele>
        <time>2020-07-10T09:37:04Z</time>
      </trkpt>
      <trkpt lat="47.74995" lon="-3.50545">
        <ele>22.86</ele>
        <time>2020-07-10T09:37:05Z</time>
      </trkpt>
      <trkpt lat="47.74992" lon="-3.50542">
        <ele>22.74</ele>
        <time>2020-07-10T09:37:06Z</time>
      </trkpt>
      <trkpt lat="47.74988" lon="-3.50538">
        <ele>22.62</ele>
        <time>2020-07-10T09:37:07Z</time>
      </trkpt>
      <trkpt lat="47.74985" lon="-3.50533">
        <ele>22.5</ele>
        <time>2020-07-10T09:37:08Z</time>
      </trkpt>
      <trkpt lat="47.74981" lon="-3.50528">
        <ele>22.37</ele>
        <time>2020-07-10T09:37:09Z</time>
      </trkpt>
      <trkpt lat="47.74978" lon="-3.50523">
        <ele>22.22</ele>
        <time>2020-07-10T09:37:10Z</time>
      </trkpt>
      <trkpt lat="47.74975" lon="-3.50517">
        <ele>22.1</ele>
        <time>2020-07-10T09:37:11Z</time>
      </trkpt>
      <trkpt lat="47.74972" lon="-3.50512">
        <ele>21.99</ele>
        <time>2020-07-10T09:37:12Z</time>
      </trkpt>
      <trkpt lat="47.74968" lon="-3.50506">
        <ele>21.79</ele>
        <time>2020-07-10T09:37:13Z</time>
      </trkpt>
      <trkpt lat="47.74965" lon="-3.50501">
        <ele>21.58</ele>
        <time>2020-07-10T09:37:14Z</time>
      </trkpt>
      <trkpt lat="47.74962" lon="-3.50495">
        <ele>21.41</ele>
        <time>2020-07-10T09:37:15Z</time>
      </trkpt>
      <trkpt lat="47.74959" lon="-3.5049">
        <ele>21.27</ele>
        <time>2020-07-10T09:37:16Z</time>
      </trkpt>
      <trkpt lat="47.74955" lon="-3.50484">
        <ele>21.18</ele>
        <time>2020-07-10T09:37:17Z</time>
      </trkpt>
      <trkpt lat="47.74952" lon="-3.50478">
        <ele>21.13</ele>
        <time>2020-07-10T09:37:18Z</time>
      </trkpt>
      <trkpt lat="47.74948" lon="-3.50472">
        <ele>21.13</ele>
        <time>2020-07-10T09:37:19Z</time>
      </trkpt>
      <trkpt lat="47.74944" lon="-3.50468">
        <ele>21.01</ele>
        <time>2020-07-10T09:37:20Z</time>
      </trkpt>
      <trkpt lat="47.7494" lon="-3.50462">
        <ele>20.83</ele>
        <time>2020-07-10T09:37:21Z</time>
      </trkpt>
      <trkpt lat="47.74936" lon="-3.50456">
        <ele>20.67</ele>
        <time>2020-07-10T09:37:22Z</time>
      </trkpt>
      <trkpt lat="47.74934" lon="-3.50449">
        <ele>20.59</ele>
        <time>2020-07-10T09:37:23Z</time>
      </trkpt>
      <trkpt lat="47.74932" lon="-3.50442">
        <ele>20.55</ele>
        <time>2020-07-10T09:37:24Z</time>
      </trkpt>
      <trkpt lat="47.7493" lon="-3.50436">
        <ele>20.5</ele>
        <time>2020-07-10T09:37:25Z</time>
      </trkpt>
      <trkpt lat="47.74929" lon="-3.50432">
        <ele>20.46</ele>
        <time>2020-07-10T09:37:26Z</time>
      </trkpt>
      <trkpt lat="47.74928" lon="-3.50431">
        <ele>20.42</ele>
        <time>2020-07-10T09:37:27Z</time>
      </trkpt>
      <trkpt lat="47.74927" lon="-3.5043">
        <ele>20.4</ele>
        <time>2020-07-10T09:37:28Z</time>
      </trkpt>
      <trkpt lat="47.74927" lon="-3.5043">
        <ele>20.37</ele>
        <time>2020-07-10T09:37:29Z</time>
      </trkpt>
      <trkpt lat="47.74925" lon="-3.5043">
        <ele>20.32</ele>
        <time>2020-07-10T09:37:30Z</time>
      </trkpt>
      <trkpt lat="47.74922" lon="-3.50433">
        <ele>20.23</ele>
        <time>2020-07-10T09:37:31Z</time>
      </trkpt>
      <trkpt lat="47.74919" lon="-3.50439">
        <ele>20.12</ele>
        <time>2020-07-10T09:37:32Z</time>
      </trkpt>
      <trkpt lat="47.74915" lon="-3.50443">
        <ele>19.99</ele>
        <time>2020-07-10T09:37:33Z</time>
      </trkpt>
      <trkpt lat="47.7491" lon="-3.50445">
        <ele>19.81</ele>
        <time>2020-07-10T09:37:34Z</time>
      </trkpt>
      <trkpt lat="47.74905" lon="-3.50445">
        <ele>19.64</ele>
        <time>2020-07-10T09:37:35Z</time>
      </trkpt>
      <trkpt lat="47.74901" lon="-3.50445">
        <ele>19.49</ele>
        <time>2020-07-10T09:37:36Z</time>
      </trkpt>
      <trkpt lat="47.74896" lon="-3.50445">
        <ele>19.31</ele>
        <time>2020-07-10T09:37:37Z</time>
      </trkpt>
      <trkpt lat="47.74891" lon="-3.50445">
        <ele>19.15</ele>
        <time>2020-07-10T09:37:38Z</time>
      </trkpt>
      <trkpt lat="47.74886" lon="-3.50444">
        <ele>19.11</ele>
        <time>2020-07-10T09:37:39Z</time>
      </trkpt>
      <trkpt lat="47.74881" lon="-3.50442">
        <ele>19.24</ele>
        <time>2020-07-10T09:37:40Z</time>
      </trkpt>
      <trkpt lat="47.74877" lon="-3.50439">
        <ele>19.43</ele>
        <time>2020-07-10T09:37:41Z</time>
      </trkpt>
      <trkpt lat="47.74874" lon="-3.50433">
        <ele>19.65</ele>
        <time>2020-07-10T09:37:42Z</time>
      </trkpt>
      <trkpt lat="47.74873" lon="-3.50426">
        <ele>19.87</ele>
        <time>2020-07-10T09:37:43Z</time>
      </trkpt>
      <trkpt lat="47.74872" lon="-3.5042">
        <ele>20.04</ele>
        <time>2020-07-10T09:37:44Z</time>
      </trkpt>
      <trkpt lat="47.74872" lon="-3.50414">
        <ele>20.07</ele>
        <time>2020-07-10T09:37:45Z</time>
      </trkpt>
      <trkpt lat="47.74871" lon="-3.50407">
        <ele>19.88</ele>
        <time>2020-07-10T09:37:46Z</time>
      </trkpt>
      <trkpt lat="47.74871" lon="-3.504">
        <ele>19.61</ele>
        <time>2020-07-10T09:37:47Z</time>
      </trkpt>
      <trkpt lat="47.7487" lon="-3.50393">
        <ele>19.31</ele>
        <time>2020-07-10T09:37:48Z</time>
      </trkpt>
      <trkpt lat="47.74869" lon="-3.50386">
        <ele>19.04</ele>
        <time>2020-07-10T09:37:49Z</time>
      </trkpt>
      <trkpt lat="47.74867" lon="-3.50379">
        <ele>18.82</ele>
        <time>2020-07-10T09:37:50Z</time>
      </trkpt>
      <trkpt lat="47.74864" lon="-3.50372">
        <ele>18.57</ele>
        <time>2020-07-10T09:37:51Z</time>
      </trkpt>
      <trkpt lat="47.74862" lon="-3.50365">
        <ele>18.3</ele>
        <time>2020-07-10T09:37:52Z</time>
      </trkpt>
      <trkpt lat="47.7486" lon="-3.50358">
        <ele>18.09</ele>
        <time>2020-07-10T09:37:53Z</time>
      </trkpt>
      <trkpt lat="47.74858" lon="-3.50351">
        <ele>18</ele>
        <time>2020-07-10T09:37:54Z</time>
      </trkpt>
      <trkpt lat="47.74857" lon="-3.50344">
        <ele>17.94</ele>
        <time>2020-07-10T09:37:55Z</time>
      </trkpt>
      <trkpt lat="47.74855" lon="-3.50337">
        <ele>17.86</ele>
        <time>2020-07-10T09:37:56Z</time>
      </trkpt>
      <trkpt lat="47.74854" lon="-3.5033">
        <ele>17.72</ele>
        <time>2020-07-10T09:37:57Z</time>
      </trkpt>
      <trkpt lat="47.74852" lon="-3.50323">
        <ele>17.52</ele>
        <time>2020-07-10T09:37:58Z</time>
      </trkpt>
      <trkpt lat="47.7485" lon="-3.50316">
        <ele>17.32</ele>
        <time>2020-07-10T09:37:59Z</time>
      </trkpt>
      <trkpt lat="47.74848" lon="-3.50309">
        <ele>17.14</ele>
        <time>2020-07-10T09:38:00Z</time>
      </trkpt>
      <trkpt lat="47.74846" lon="-3.503">
        <ele>16.84</ele>
        <time>2020-07-10T09:38:01Z</time>
      </trkpt>
      <trkpt lat="47.74844" lon="-3.50292">
        <ele>16.39</ele>
        <time>2020-07-10T09:38:02Z</time>
      </trkpt>
      <trkpt lat="47.7484" lon="-3.50284">
        <ele>15.88</ele>
        <time>2020-07-10T09:38:03Z</time>
      </trkpt>
      <trkpt lat="47.74837" lon="-3.50277">
        <ele>15.34</ele>
        <time>2020-07-10T09:38:04Z</time>
      </trkpt>
      <trkpt lat="47.74832" lon="-3.50271">
        <ele>15.1</ele>
        <time>2020-07-10T09:38:05Z</time>
      </trkpt>
      <trkpt lat="47.74828" lon="-3.50265">
        <ele>14.97</ele>
        <time>2020-07-10T09:38:06Z</time>
      </trkpt>
      <trkpt lat="47.74824" lon="-3.5026">
        <ele>14.84</ele>
        <time>2020-07-10T09:38:07Z</time>
      </trkpt>
      <trkpt lat="47.74821" lon="-3.50257">
        <ele>14.71</ele>
        <time>2020-07-10T09:38:08Z</time>
      </trkpt>
      <trkpt lat="47.74817" lon="-3.50257">
        <ele>14.61</ele>
        <time>2020-07-10T09:38:09Z</time>
      </trkpt>
      <trkpt lat="47.74813" lon="-3.50259">
        <ele>14.54</ele>
        <time>2020-07-10T09:38:10Z</time>
      </trkpt>
      <trkpt lat="47.74809" lon="-3.50262">
        <ele>14.51</ele>
        <time>2020-07-10T09:38:11Z</time>
      </trkpt>
      <trkpt lat="47.74805" lon="-3.50264">
        <ele>14.48</ele>
        <time>2020-07-10T09:38:12Z</time>
      </trkpt>
      <trkpt lat="47.74801" lon="-3.50266">
        <ele>14.43</ele>
        <time>2020-07-10T09:38:13Z</time>
      </trkpt>
      <trkpt lat="47.74796" lon="-3.50268">
        <ele>14.35</ele>
        <time>2020-07-10T09:38:14Z</time>
      </trkpt>
      <trkpt lat="47.74792" lon="-3.5027">
        <ele>14.26</ele>
        <time>2020-07-10T09:38:15Z</time>
      </trkpt>
      <trkpt lat="47.74787" lon="-3.50272">
        <ele>14.17</ele>
        <time>2020-07-10T09:38:16Z</time>
      </trkpt>
      <trkpt lat="47.74783" lon="-3.50273">
        <ele>14.06</ele>
        <time>2020-07-10T09:38:17Z</time>
      </trkpt>
      <trkpt lat="47.74779" lon="-3.50275">
        <ele>13.97</ele>
        <time>2020-07-10T09:38:18Z</time>
      </trkpt>
      <trkpt lat="47.74776" lon="-3.50275">
        <ele>13.88</ele>
        <time>2020-07-10T09:38:19Z</time>
      </trkpt>
      <trkpt lat="47.74773" lon="-3.50276">
        <ele>13.81</ele>
        <time>2020-07-10T09:38:20Z</time>
      </trkpt>
      <trkpt lat="47.74772" lon="-3.50276">
        <ele>13.76</ele>
        <time>2020-07-10T09:38:21Z</time>
      </trkpt>
      <trkpt lat="47.74771" lon="-3.50276">
        <ele>13.73</ele>
        <time>2020-07-10T09:38:22Z</time>
      </trkpt>
      <trkpt lat="47.7477" lon="-3.50276">
        <ele>13.69</ele>
        <time>2020-07-10T09:38:23Z</time>
      </trkpt>
      <trkpt lat="47.74768" lon="-3.50277">
        <ele>13.64</ele>
        <time>2020-07-10T09:38:24Z</time>
      </trkpt>
      <trkpt lat="47.74765" lon="-3.50278">
        <ele>13.58</ele>
        <time>2020-07-10T09:38:25Z</time>
      </trkpt>
      <trkpt lat="47.74762" lon="-3.50278">
        <ele>13.5</ele>
        <time>2020-07-10T09:38:26Z</time>
      </trkpt>
      <trkpt lat="47.7476" lon="-3.50279">
        <ele>13.43</ele>
        <time>2020-07-10T09:38:27Z</time>
      </trkpt>
      <trkpt lat="47.74758" lon="-3.5028">
        <ele>13.37</ele>
        <time>2020-07-10T09:38:28Z</time>
      </trkpt>
      <trkpt lat="47.74756" lon="-3.50281">
        <ele>13.34</ele>
        <time>2020-07-10T09:38:29Z</time>
      </trkpt>
      <trkpt lat="47.74755" lon="-3.50282">
        <ele>13.32</ele>
        <time>2020-07-10T09:38:30Z</time>
      </trkpt>
      <trkpt lat="47.74753" lon="-3.50284">
        <ele>13.31</ele>
        <time>2020-07-10T09:38:31Z</time>
      </trkpt>
      <trkpt lat="47.74752" lon="-3.50285">
        <ele>13.31</ele>
        <time>2020-07-10T09:38:32Z</time>
      </trkpt>
      <trkpt lat="47.74751" lon="-3.50286">
        <ele>13.33</ele>
        <time>2020-07-10T09:38:33Z</time>
      </trkpt>
      <trkpt lat="47.74751" lon="-3.50287">
        <ele>13.34</ele>
        <time>2020-07-10T09:38:34Z</time>
      </trkpt>
      <trkpt lat="47.74751" lon="-3.50287">
        <ele>13.35</ele>
        <time>2020-07-10T09:38:35Z</time>
      </trkpt>
      <trkpt lat="47.74751" lon="-3.50287">
        <ele>13.35</ele>
        <time>2020-07-10T09:38:36Z</time>
      </trkpt>
      <trkpt lat="47.74751" lon="-3.50287">
        <ele>13.35</ele>
        <time>2020-07-10T09:38:37Z</time>
      </trkpt>
      <trkpt lat="47.74751" lon="-3.50287">
        <ele>13.35</ele>
        <time>2020-07-10T09:38:38Z</time>
      </trkpt>
      <trkpt lat="47.74751" lon="-3.50287">
        <ele>13.35</ele>
        <time>2020-07-10T09:38:39Z</time>
      </trkpt>
      <trkpt lat="47.74751" lon="-3.50287">
        <ele>13.35</ele>
        <time>2020-07-10T09:38:40Z</time>
      </trkpt>
      <trkpt lat="47.74751" lon="-3.50287">
        <ele>13.35</ele>
        <time>2020-07-10T09:38:41Z</time>
      </trkpt>
      <trkpt lat="47.74751" lon="-3.50287">
        <ele>13.35</ele>
        <time>2020-07-10T09:38:42Z</time>
      </trkpt>
      <trkpt lat="47.74751" lon="-3.50287">
        <ele>13.35</ele>
        <time>2020-07-10T09:38:43Z</time>
      </trkpt>
      <trkpt lat="47.74751" lon="-3.50287">
        <ele>13.35</ele>
        <time>2020-07-10T09:38:44Z</time>
      </trkpt>
      <trkpt lat="47.74751" lon="-3.50287">
        <ele>13.35</ele>
        <time>2020-07-10T09:38:45Z</time>
      </trkpt>
      <trkpt lat="47.74751" lon="-3.50287">
        <ele>13.35</ele>
        <time>2020-07-10T09:38:46Z</time>
      </trkpt>
      <trkpt lat="47.74751" lon="-3.50287">
        <ele>13.35</ele>
        <time>2020-07-10T09:38:47Z</time>
      </trkpt>
      <trkpt lat="47.74751" lon="-3.50287">
        <ele>13.35</ele>
        <time>2020-07-10T09:38:48Z</time>
      </trkpt>
      <trkpt lat="47.74751" lon="-3.50287">
        <ele>13.35</ele>
        <time>2020-07-10T09:38:49Z</time>
      </trkpt>
      <trkpt lat="47.74751" lon="-3.50287">
        <ele>13.35</ele>
        <time>2020-07-10T09:38:50Z</time>
      </trkpt>
      <trkpt lat="47.74751" lon="-3.50287">
        <ele>13.35</ele>
        <time>2020-07-10T09:38:51Z</time>
      </trkpt>
      <trkpt lat="47.74751" lon="-3.50287">
        <ele>13.35</ele>
        <time>2020-07-10T09:38:52Z</time>
      </trkpt>
      <trkpt lat="47.74751" lon="-3.50287">
        <ele>13.35</ele>
        <time>2020-07-10T09:38:53Z</time>
      </trkpt>
      <trkpt lat="47.74756" lon="-3.50285">
        <ele>13.4</ele>
        <time>2020-07-10T09:38:54Z</time>
      </trkpt>
      <trkpt lat="47.74758" lon="-3.50283">
        <ele>13.43</ele>
        <time>2020-07-10T09:38:55Z</time>
      </trkpt>
      <trkpt lat="47.7476" lon="-3.50282">
        <ele>13.46</ele>
        <time>2020-07-10T09:38:56Z</time>
      </trkpt>
      <trkpt lat="47.74762" lon="-3.50282">
        <ele>13.49</ele>
        <time>2020-07-10T09:38:57Z</time>
      </trkpt>
      <trkpt lat="47.74763" lon="-3.50281">
        <ele>13.53</ele>
        <time>2020-07-10T09:38:58Z</time>
      </trkpt>
      <trkpt lat="47.74766" lon="-3.50281">
        <ele>13.59</ele>
        <time>2020-07-10T09:38:59Z</time>
      </trkpt>
      <trkpt lat="47.74768" lon="-3.5028">
        <ele>13.64</ele>
        <time>2020-07-10T09:39:00Z</time>
      </trkpt>
      <trkpt lat="47.7477" lon="-3.5028">
        <ele>13.7</ele>
        <time>2020-07-10T09:39:01Z</time>
      </trkpt>
      <trkpt lat="47.74772" lon="-3.50279">
        <ele>13.77</ele>
        <time>2020-07-10T09:39:02Z</time>
      </trkpt>
      <trkpt lat="47.74774" lon="-3.50279">
        <ele>13.84</ele>
        <time>2020-07-10T09:39:03Z</time>
      </trkpt>
      <trkpt lat="47.74777" lon="-3.50279">
        <ele>13.92</ele>
        <time>2020-07-10T09:39:04Z</time>
      </trkpt>
      <trkpt lat="47.74779" lon="-3.50279">
        <ele>14.02</ele>
        <time>2020-07-10T09:39:05Z</time>
      </trkpt>
      <trkpt lat="47.74782" lon="-3.50278">
        <ele>14.12</ele>
        <time>2020-07-10T09:39:06Z</time>
      </trkpt>
      <trkpt lat="47.74785" lon="-3.50278">
        <ele>14.23</ele>
        <time>2020-07-10T09:39:07Z</time>
      </trkpt>
      <trkpt lat="47.74789" lon="-3.50277">
        <ele>14.32</ele>
        <time>2020-07-10T09:39:08Z</time>
      </trkpt>
      <trkpt lat="47.74792" lon="-3.50275">
        <ele>14.39</ele>
        <time>2020-07-10T09:39:09Z</time>
      </trkpt>
      <trkpt lat="47.74796" lon="-3.50273">
        <ele>14.46</ele>
        <time>2020-07-10T09:39:10Z</time>
      </trkpt>
      <trkpt lat="47.74799" lon="-3.50272">
        <ele>14.55</ele>
        <time>2020-07-10T09:39:11Z</time>
      </trkpt>
      <trkpt lat="47.74803" lon="-3.50271">
        <ele>14.64</ele>
        <time>2020-07-10T09:39:12Z</time>
      </trkpt>
      <trkpt lat="47.74807" lon="-3.5027">
        <ele>14.7</ele>
        <time>2020-07-10T09:39:13Z</time>
      </trkpt>
      <trkpt lat="47.7481" lon="-3.50269">
        <ele>14.72</ele>
        <time>2020-07-10T09:39:14Z</time>
      </trkpt>
      <trkpt lat="47.74813" lon="-3.50267">
        <ele>14.72</ele>
        <time>2020-07-10T09:39:15Z</time>
      </trkpt>
      <trkpt lat="47.74815" lon="-3.50266">
        <ele>14.72</ele>
        <time>2020-07-10T09:39:16Z</time>
      </trkpt>
      <trkpt lat="47.74818" lon="-3.50265">
        <ele>14.73</ele>
        <time>2020-07-10T09:39:17Z</time>
      </trkpt>
      <trkpt lat="47.7482" lon="-3.50263">
        <ele>14.75</ele>
        <time>2020-07-10T09:39:18Z</time>
      </trkpt>
      <trkpt lat="47.74822" lon="-3.50262">
        <ele>14.77</ele>
        <time>2020-07-10T09:39:19Z</time>
      </trkpt>
      <trkpt lat="47.74825" lon="-3.50264">
        <ele>14.82</ele>
        <time>2020-07-10T09:39:20Z</time>
      </trkpt>
      <trkpt lat="47.74828" lon="-3.50265">
        <ele>14.88</ele>
        <time>2020-07-10T09:39:21Z</time>
      </trkpt>
      <trkpt lat="47.7483" lon="-3.50267">
        <ele>14.93</ele>
        <time>2020-07-10T09:39:22Z</time>
      </trkpt>
      <trkpt lat="47.74831" lon="-3.50269">
        <ele>14.96</ele>
        <time>2020-07-10T09:39:23Z</time>
      </trkpt>
      <trkpt lat="47.74832" lon="-3.50271">
        <ele>14.98</ele>
        <time>2020-07-10T09:39:24Z</time>
      </trkpt>
      <trkpt lat="47.74834" lon="-3.50273">
        <ele>15</ele>
        <time>2020-07-10T09:39:25Z</time>
      </trkpt>
      <trkpt lat="47.74835" lon="-3.50276">
        <ele>15.04</ele>
        <time>2020-07-10T09:39:26Z</time>
      </trkpt>
      <trkpt lat="47.74836" lon="-3.50279">
        <ele>15.15</ele>
        <time>2020-07-10T09:39:27Z</time>
      </trkpt>
      <trkpt lat="47.74838" lon="-3.50282">
        <ele>15.34</ele>
        <time>2020-07-10T09:39:28Z</time>
      </trkpt>
      <trkpt lat="47.74839" lon="-3.50284">
        <ele>15.55</ele>
        <time>2020-07-10T09:39:29Z</time>
      </trkpt>
      <trkpt lat="47.74841" lon="-3.50286">
        <ele>15.73</ele>
        <time>2020-07-10T09:39:30Z</time>
      </trkpt>
      <trkpt lat="47.74842" lon="-3.50289">
        <ele>15.89</ele>
        <time>2020-07-10T09:39:31Z</time>
      </trkpt>
      <trkpt lat="47.74843" lon="-3.50291">
        <ele>16.05</ele>
        <time>2020-07-10T09:39:32Z</time>
      </trkpt>
      <trkpt lat="47.74844" lon="-3.50293">
        <ele>16.22</ele>
        <time>2020-07-10T09:39:33Z</time>
      </trkpt>
      <trkpt lat="47.74846" lon="-3.50297">
        <ele>16.43</ele>
        <time>2020-07-10T09:39:34Z</time>
      </trkpt>
      <trkpt lat="47.74847" lon="-3.50301">
        <ele>16.64</ele>
        <time>2020-07-10T09:39:35Z</time>
      </trkpt>
      <trkpt lat="47.74848" lon="-3.50305">
        <ele>16.87</ele>
        <time>2020-07-10T09:39:36Z</time>
      </trkpt>
      <trkpt lat="47.7485" lon="-3.5031">
        <ele>17.03</ele>
        <time>2020-07-10T09:39:37Z</time>
      </trkpt>
      <trkpt lat="47.74851" lon="-3.50314">
        <ele>17.15</ele>
        <time>2020-07-10T09:39:38Z</time>
      </trkpt>
      <trkpt lat="47.74852" lon="-3.50319">
        <ele>17.27</ele>
        <time>2020-07-10T09:39:39Z</time>
      </trkpt>
      <trkpt lat="47.74854" lon="-3.50323">
        <ele>17.4</ele>
        <time>2020-07-10T09:39:40Z</time>
      </trkpt>
      <trkpt lat="47.74854" lon="-3.50326">
        <ele>17.52</ele>
        <time>2020-07-10T09:39:41Z</time>
      </trkpt>
      <trkpt lat="47.74855" lon="-3.5033">
        <ele>17.65</ele>
        <time>2020-07-10T09:39:42Z</time>
      </trkpt>
      <trkpt lat="47.74857" lon="-3.50335">
        <ele>17.78</ele>
        <time>2020-07-10T09:39:43Z</time>
      </trkpt>
      <trkpt lat="47.74858" lon="-3.5034">
        <ele>17.87</ele>
        <time>2020-07-10T09:39:44Z</time>
      </trkpt>
      <trkpt lat="47.74858" lon="-3.50345">
        <ele>17.92</ele>
        <time>2020-07-10T09:39:45Z</time>
      </trkpt>
      <trkpt lat="47.74859" lon="-3.5035">
        <ele>17.96</ele>
        <time>2020-07-10T09:39:46Z</time>
      </trkpt>
      <trkpt lat="47.7486" lon="-3.50355">
        <ele>17.98</ele>
        <time>2020-07-10T09:39:47Z</time>
      </trkpt>
      <trkpt lat="47.74861" lon="-3.50359">
        <ele>17.99</ele>
        <time>2020-07-10T09:39:48Z</time>
      </trkpt>
      <trkpt lat="47.74862" lon="-3.50364">
        <ele>18.09</ele>
        <time>2020-07-10T09:39:49Z</time>
      </trkpt>
      <trkpt lat="47.74864" lon="-3.50369">
        <ele>18.26</ele>
        <time>2020-07-10T09:39:50Z</time>
      </trkpt>
      <trkpt lat="47.74865" lon="-3.50373">
        <ele>18.43</ele>
        <time>2020-07-10T09:39:51Z</time>
      </trkpt>
      <trkpt lat="47.74866" lon="-3.50377">
        <ele>18.59</ele>
        <time>2020-07-10T09:39:52Z</time>
      </trkpt>
      <trkpt lat="47.74868" lon="-3.50381">
        <ele>18.73</ele>
        <time>2020-07-10T09:39:53Z</time>
      </trkpt>
      <trkpt lat="47.74869" lon="-3.50385">
        <ele>18.84</ele>
        <time>2020-07-10T09:39:54Z</time>
      </trkpt>
      <trkpt lat="47.7487" lon="-3.50389">
        <ele>18.95</ele>
        <time>2020-07-10T09:39:55Z</time>
      </trkpt>
      <trkpt lat="47.74871" lon="-3.50392">
        <ele>19.09</ele>
        <time>2020-07-10T09:39:56Z</time>
      </trkpt>
      <trkpt lat="47.74872" lon="-3.50396">
        <ele>19.26</ele>
        <time>2020-07-10T09:39:57Z</time>
      </trkpt>
      <trkpt lat="47.74873" lon="-3.50401">
        <ele>19.44</ele>
        <time>2020-07-10T09:39:58Z</time>
      </trkpt>
      <trkpt lat="47.74874" lon="-3.50407">
        <ele>19.61</ele>
        <time>2020-07-10T09:39:59Z</time>
      </trkpt>
      <trkpt lat="47.74874" lon="-3.50412">
        <ele>19.8</ele>
        <time>2020-07-10T09:40:00Z</time>
      </trkpt>
      <trkpt lat="47.74875" lon="-3.50418">
        <ele>19.93</ele>
        <time>2020-07-10T09:40:01Z</time>
      </trkpt>
      <trkpt lat="47.74876" lon="-3.50423">
        <ele>19.86</ele>
        <time>2020-07-10T09:40:02Z</time>
      </trkpt>
      <trkpt lat="47.74877" lon="-3.50429">
        <ele>19.74</ele>
        <time>2020-07-10T09:40:03Z</time>
      </trkpt>
      <trkpt lat="47.74878" lon="-3.50433">
        <ele>19.62</ele>
        <time>2020-07-10T09:40:04Z</time>
      </trkpt>
      <trkpt lat="47.74879" lon="-3.50437">
        <ele>19.5</ele>
        <time>2020-07-10T09:40:05Z</time>
      </trkpt>
      <trkpt lat="47.74881" lon="-3.50441">
        <ele>19.36</ele>
        <time>2020-07-10T09:40:06Z</time>
      </trkpt>
      <trkpt lat="47.74884" lon="-3.50444">
        <ele>19.23</ele>
        <time>2020-07-10T09:40:07Z</time>
      </trkpt>
      <trkpt lat="47.74887" lon="-3.50446">
        <ele>19.1</ele>
        <time>2020-07-10T09:40:08Z</time>
      </trkpt>
      <trkpt lat="47.74891" lon="-3.50447">
        <ele>19.08</ele>
        <time>2020-07-10T09:40:09Z</time>
      </trkpt>
      <trkpt lat="47.74895" lon="-3.50446">
        <ele>19.17</ele>
        <time>2020-07-10T09:40:10Z</time>
      </trkpt>
      <trkpt lat="47.74899" lon="-3.50446">
        <ele>19.29</ele>
        <time>2020-07-10T09:40:11Z</time>
      </trkpt>
      <trkpt lat="47.74903" lon="-3.50446">
        <ele>19.41</ele>
        <time>2020-07-10T09:40:12Z</time>
      </trkpt>
      <trkpt lat="47.74906" lon="-3.50446">
        <ele>19.53</ele>
        <time>2020-07-10T09:40:13Z</time>
      </trkpt>
      <trkpt lat="47.7491" lon="-3.50447">
        <ele>19.63</ele>
        <time>2020-07-10T09:40:14Z</time>
      </trkpt>
      <trkpt lat="47.74913" lon="-3.50447">
        <ele>19.73</ele>
        <time>2020-07-10T09:40:15Z</time>
      </trkpt>
      <trkpt lat="47.74916" lon="-3.50446">
        <ele>19.84</ele>
        <time>2020-07-10T09:40:16Z</time>
      </trkpt>
      <trkpt lat="47.74918" lon="-3.50444">
        <ele>20</ele>
        <time>2020-07-10T09:40:17Z</time>
      </trkpt>
      <trkpt lat="47.74921" lon="-3.50441">
        <ele>20.11</ele>
        <time>2020-07-10T09:40:18Z</time>
      </trkpt>
      <trkpt lat="47.74924" lon="-3.50438">
        <ele>20.22</ele>
        <time>2020-07-10T09:40:19Z</time>
      </trkpt>
      <trkpt lat="47.74927" lon="-3.50436">
        <ele>20.32</ele>
        <time>2020-07-10T09:40:20Z</time>
      </trkpt>
      <trkpt lat="47.74929" lon="-3.50434">
        <ele>20.39</ele>
        <time>2020-07-10T09:40:21Z</time>
      </trkpt>
      <trkpt lat="47.74929" lon="-3.50433">
        <ele>20.43</ele>
        <time>2020-07-10T09:40:22Z</time>
      </trkpt>
      <trkpt lat="47.74929" lon="-3.50432">
        <ele>20.43</ele>
        <time>2020-07-10T09:40:23Z</time>
      </trkpt>
      <trkpt lat="47.74927" lon="-3.5043">
        <ele>20.4</ele>
        <time>2020-07-10T09:40:24Z</time>
      </trkpt>
      <trkpt lat="47.74926" lon="-3.50428">
        <ele>20.36</ele>
        <time>2020-07-10T09:40:25Z</time>
      </trkpt>
      <trkpt lat="47.74925" lon="-3.50425">
        <ele>20.31</ele>
        <time>2020-07-10T09:40:26Z</time>
      </trkpt>
      <trkpt lat="47.74923" lon="-3.50422">
        <ele>20.25</ele>
        <time>2020-07-10T09:40:27Z</time>
      </trkpt>
      <trkpt lat="47.74921" lon="-3.50418">
        <ele>20.19</ele>
        <time>2020-07-10T09:40:28Z</time>
      </trkpt>
      <trkpt lat="47.7492" lon="-3.50415">
        <ele>20.09</ele>
        <time>2020-07-10T09:40:29Z</time>
      </trkpt>
      <trkpt lat="47.74919" lon="-3.50412">
        <ele>19.96</ele>
        <time>2020-07-10T09:40:30Z</time>
      </trkpt>
      <trkpt lat="47.74918" lon="-3.50409">
        <ele>19.82</ele>
        <time>2020-07-10T09:40:31Z</time>
      </trkpt>
      <trkpt lat="47.74917" lon="-3.50407">
        <ele>19.72</ele>
        <time>2020-07-10T09:40:32Z</time>
      </trkpt>
      <trkpt lat="47.74917" lon="-3.50405">
        <ele>19.63</ele>
        <time>2020-07-10T09:40:33Z</time>
      </trkpt>
      <trkpt lat="47.74917" lon="-3.50403">
        <ele>19.54</ele>
        <time>2020-07-10T09:40:34Z</time>
      </trkpt>
      <trkpt lat="47.74916" lon="-3.504">
        <ele>19.43</ele>
        <time>2020-07-10T09:40:35Z</time>
      </trkpt>
      <trkpt lat="47.74916" lon="-3.50397">
        <ele>19.32</ele>
        <time>2020-07-10T09:40:36Z</time>
      </trkpt>
      <trkpt lat="47.74915" lon="-3.50394">
        <ele>19.21</ele>
        <time>2020-07-10T09:40:37Z</time>
      </trkpt>
      <trkpt lat="47.74914" lon="-3.50391">
        <ele>19.11</ele>
        <time>2020-07-10T09:40:38Z</time>
      </trkpt>
      <trkpt lat="47.74914" lon="-3.50388">
        <ele>19.03</ele>
        <time>2020-07-10T09:40:39Z</time>
      </trkpt>
      <trkpt lat="47.74914" lon="-3.50384">
        <ele>19.01</ele>
        <time>2020-07-10T09:40:40Z</time>
      </trkpt>
      <trkpt lat="47.74914" lon="-3.50381">
        <ele>19</ele>
        <time>2020-07-10T09:40:41Z</time>
      </trkpt>
      <trkpt lat="47.74913" lon="-3.50378">
        <ele>19</ele>
        <time>2020-07-10T09:40:42Z</time>
      </trkpt>
      <trkpt lat="47.74914" lon="-3.50374">
        <ele>19</ele>
        <time>2020-07-10T09:40:43Z</time>
      </trkpt>
      <trkpt lat="47.74914" lon="-3.50371">
        <ele>19</ele>
        <time>2020-07-10T09:40:44Z</time>
      </trkpt>
      <trkpt lat="47.74914" lon="-3.50367">
        <ele>19</ele>
        <time>2020-07-10T09:40:45Z</time>
      </trkpt>
      <trkpt lat="47.74913" lon="-3.50363">
        <ele>19</ele>
        <time>2020-07-10T09:40:46Z</time>
      </trkpt>
      <trkpt lat="47.74913" lon="-3.5036">
        <ele>18.96</ele>
        <time>2020-07-10T09:40:47Z</time>
      </trkpt>
      <trkpt lat="47.74913" lon="-3.50356">
        <ele>18.86</ele>
        <time>2020-07-10T09:40:48Z</time>
      </trkpt>
      <trkpt lat="47.74912" lon="-3.50352">
        <ele>18.72</ele>
        <time>2020-07-10T09:40:49Z</time>
      </trkpt>
      <trkpt lat="47.74913" lon="-3.50347">
        <ele>18.55</ele>
        <time>2020-07-10T09:40:50Z</time>
      </trkpt>
      <trkpt lat="47.74913" lon="-3.50342">
        <ele>18.39</ele>
        <time>2020-07-10T09:40:51Z</time>
      </trkpt>
      <trkpt lat="47.74912" lon="-3.50338">
        <ele>18.25</ele>
        <time>2020-07-10T09:40:52Z</time>
      </trkpt>
      <trkpt lat="47.74912" lon="-3.50335">
        <ele>18.12</ele>
        <time>2020-07-10T09:40:53Z</time>
      </trkpt>
      <trkpt lat="47.74912" lon="-3.50331">
        <ele>17.98</ele>
        <time>2020-07-10T09:40:54Z</time>
      </trkpt>
      <trkpt lat="47.74913" lon="-3.50327">
        <ele>17.83</ele>
        <time>2020-07-10T09:40:55Z</time>
      </trkpt>
      <trkpt lat="47.74913" lon="-3.50322">
        <ele>17.66</ele>
        <time>2020-07-10T09:40:56Z</time>
      </trkpt>
      <trkpt lat="47.74913" lon="-3.50316">
        <ele>17.47</ele>
        <time>2020-07-10T09:40:57Z</time>
      </trkpt>
      <trkpt lat="47.74914" lon="-3.50312">
        <ele>17.29</ele>
        <time>2020-07-10T09:40:58Z</time>
      </trkpt>
      <trkpt lat="47.74914" lon="-3.50306">
        <ele>17.1</ele>
        <time>2020-07-10T09:40:59Z</time>
      </trkpt>
      <trkpt lat="47.74914" lon="-3.50301">
        <ele>17.02</ele>
        <time>2020-07-10T09:41:00Z</time>
      </trkpt>
      <trkpt lat="47.74913" lon="-3.50296">
        <ele>16.97</ele>
        <time>2020-07-10T09:41:01Z</time>
      </trkpt>
      <trkpt lat="47.74912" lon="-3.5029">
        <ele>16.93</ele>
        <time>2020-07-10T09:41:02Z</time>
      </trkpt>
      <trkpt lat="47.74912" lon="-3.50284">
        <ele>16.89</ele>
        <time>2020-07-10T09:41:03Z</time>
      </trkpt>
      <trkpt lat="47.74912" lon="-3.50278">
        <ele>16.84</ele>
        <time>2020-07-10T09:41:04Z</time>
      </trkpt>
      <trkpt lat="47.74911" lon="-3.50271">
        <ele>16.68</ele>
        <time>2020-07-10T09:41:05Z</time>
      </trkpt>
      <trkpt lat="47.74911" lon="-3.50265">
        <ele>16.51</ele>
        <time>2020-07-10T09:41:06Z</time>
      </trkpt>
      <trkpt lat="47.7491" lon="-3.50259">
        <ele>16.32</ele>
        <time>2020-07-10T09:41:07Z</time>
      </trkpt>
      <trkpt lat="47.7491" lon="-3.50252">
        <ele>16.14</ele>
        <time>2020-07-10T09:41:08Z</time>
      </trkpt>
      <trkpt lat="47.7491" lon="-3.50246">
        <ele>16.01</ele>
        <time>2020-07-10T09:41:09Z</time>
      </trkpt>
      <trkpt lat="47.7491" lon="-3.50239">
        <ele>15.94</ele>
        <time>2020-07-10T09:41:10Z</time>
      </trkpt>
      <trkpt lat="47.7491" lon="-3.50233">
        <ele>15.88</ele>
        <time>2020-07-10T09:41:11Z</time>
      </trkpt>
      <trkpt lat="47.7491" lon="-3.50227">
        <ele>15.82</ele>
        <time>2020-07-10T09:41:12Z</time>
      </trkpt>
      <trkpt lat="47.74909" lon="-3.50223">
        <ele>15.76</ele>
        <time>2020-07-10T09:41:13Z</time>
      </trkpt>
      <trkpt lat="47.74907" lon="-3.5022">
        <ele>15.64</ele>
        <time>2020-07-10T09:41:14Z</time>
      </trkpt>
      <trkpt lat="47.74906" lon="-3.50217">
        <ele>15.48</ele>
        <time>2020-07-10T09:41:15Z</time>
      </trkpt>
      <trkpt lat="47.74904" lon="-3.50213">
        <ele>15.29</ele>
        <time>2020-07-10T09:41:16Z</time>
      </trkpt>
      <trkpt lat="47.74901" lon="-3.50211">
        <ele>15.1</ele>
        <time>2020-07-10T09:41:17Z</time>
      </trkpt>
      <trkpt lat="47.74898" lon="-3.50207">
        <ele>14.88</ele>
        <time>2020-07-10T09:41:18Z</time>
      </trkpt>
      <trkpt lat="47.74895" lon="-3.50204">
        <ele>14.66</ele>
        <time>2020-07-10T09:41:19Z</time>
      </trkpt>
      <trkpt lat="47.74893" lon="-3.50201">
        <ele>14.46</ele>
        <time>2020-07-10T09:41:20Z</time>
      </trkpt>
      <trkpt lat="47.7489" lon="-3.50199">
        <ele>14.29</ele>
        <time>2020-07-10T09:41:21Z</time>
      </trkpt>
      <trkpt lat="47.74887" lon="-3.50198">
        <ele>14.16</ele>
        <time>2020-07-10T09:41:22Z</time>
      </trkpt>
      <trkpt lat="47.74884" lon="-3.50197">
        <ele>14.11</ele>
        <time>2020-07-10T09:41:23Z</time>
      </trkpt>
      <trkpt lat="47.7488" lon="-3.50198">
        <ele>14.09</ele>
        <time>2020-07-10T09:41:24Z</time>
      </trkpt>
      <trkpt lat="47.74876" lon="-3.50198">
        <ele>14.08</ele>
        <time>2020-07-10T09:41:25Z</time>
      </trkpt>
      <trkpt lat="47.74872" lon="-3.50199">
        <ele>14.06</ele>
        <time>2020-07-10T09:41:26Z</time>
      </trkpt>
      <trkpt lat="47.74867" lon="-3.50199">
        <ele>14.04</ele>
        <time>2020-07-10T09:41:27Z</time>
      </trkpt>
      <trkpt lat="47.74863" lon="-3.50199">
        <ele>14.02</ele>
        <time>2020-07-10T09:41:28Z</time>
      </trkpt>
      <trkpt lat="47.74859" lon="-3.50198">
        <ele>13.97</ele>
        <time>2020-07-10T09:41:29Z</time>
      </trkpt>
      <trkpt lat="47.74856" lon="-3.502">
        <ele>13.88</ele>
        <time>2020-07-10T09:41:30Z</time>
      </trkpt>
      <trkpt lat="47.74852" lon="-3.50201">
        <ele>13.79</ele>
        <time>2020-07-10T09:41:31Z</time>
      </trkpt>
      <trkpt lat="47.74848" lon="-3.50202">
        <ele>13.71</ele>
        <time>2020-07-10T09:41:32Z</time>
      </trkpt>
      <trkpt lat="47.74845" lon="-3.50204">
        <ele>13.64</ele>
        <time>2020-07-10T09:41:33Z</time>
      </trkpt>
      <trkpt lat="47.74842" lon="-3.50206">
        <ele>13.6</ele>
        <time>2020-07-10T09:41:34Z</time>
      </trkpt>
      <trkpt lat="47.74838" lon="-3.50208">
        <ele>13.58</ele>
        <time>2020-07-10T09:41:35Z</time>
      </trkpt>
      <trkpt lat="47.74835" lon="-3.50209">
        <ele>13.56</ele>
        <time>2020-07-10T09:41:36Z</time>
      </trkpt>
      <trkpt lat="47.74832" lon="-3.50209">
        <ele>13.52</ele>
        <time>2020-07-10T09:41:37Z</time>
      </trkpt>
      <trkpt lat="47.7483" lon="-3.50209">
        <ele>13.47</ele>
        <time>2020-07-10T09:41:38Z</time>
      </trkpt>
      <trkpt lat="47.74828" lon="-3.50208">
        <ele>13.42</ele>
        <time>2020-07-10T09:41:39Z</time>
      </trkpt>
      <trkpt lat="47.74825" lon="-3.50208">
        <ele>13.36</ele>
        <time>2020-07-10T09:41:40Z</time>
      </trkpt>
      <trkpt lat="47.74823" lon="-3.50207">
        <ele>13.31</ele>
        <time>2020-07-10T09:41:41Z</time>
      </trkpt>
      <trkpt lat="47.7482" lon="-3.50207">
        <ele>13.26</ele>
        <time>2020-07-10T09:41:42Z</time>
      </trkpt>
      <trkpt lat="47.74817" lon="-3.50208">
        <ele>13.21</ele>
        <time>2020-07-10T09:41:43Z</time>
      </trkpt>
      <trkpt lat="47.74813" lon="-3.50209">
        <ele>13.17</ele>
        <time>2020-07-10T09:41:44Z</time>
      </trkpt>
      <trkpt lat="47.7481" lon="-3.5021">
        <ele>13.12</ele>
        <time>2020-07-10T09:41:45Z</time>
      </trkpt>
      <trkpt lat="47.74808" lon="-3.50211">
        <ele>13.06</ele>
        <time>2020-07-10T09:41:46Z</time>
      </trkpt>
      <trkpt lat="47.74805" lon="-3.50211">
        <ele>13.02</ele>
        <time>2020-07-10T09:41:47Z</time>
      </trkpt>
      <trkpt lat="47.74804" lon="-3.50209">
        <ele>13.01</ele>
        <time>2020-07-10T09:41:48Z</time>
      </trkpt>
      <trkpt lat="47.74804" lon="-3.50206">
        <ele>13</ele>
        <time>2020-07-10T09:41:49Z</time>
      </trkpt>
      <trkpt lat="47.74804" lon="-3.50203">
        <ele>13</ele>
        <time>2020-07-10T09:41:50Z</time>
      </trkpt>
      <trkpt lat="47.74803" lon="-3.502">
        <ele>13</ele>
        <time>2020-07-10T09:41:51Z</time>
      </trkpt>
      <trkpt lat="47.74802" lon="-3.50197">
        <ele>13</ele>
        <time>2020-07-10T09:41:52Z</time>
      </trkpt>
      <trkpt lat="47.74799" lon="-3.50194">
        <ele>13</ele>
        <time>2020-07-10T09:41:53Z</time>
      </trkpt>
      <trkpt lat="47.74797" lon="-3.50192">
        <ele>13</ele>
        <time>2020-07-10T09:41:54Z</time>
      </trkpt>
      <trkpt lat="47.74793" lon="-3.50191">
        <ele>13</ele>
        <time>2020-07-10T09:41:55Z</time>
      </trkpt>
      <trkpt lat="47.7479" lon="-3.50189">
        <ele>13</ele>
        <time>2020-07-10T09:41:56Z</time>
      </trkpt>
      <trkpt lat="47.74788" lon="-3.50185">
        <ele>13</ele>
        <time>2020-07-10T09:41:57Z</time>
      </trkpt>
      <trkpt lat="47.74788" lon="-3.50181">
        <ele>13</ele>
        <time>2020-07-10T09:41:58Z</time>
      </trkpt>
      <trkpt lat="47.74788" lon="-3.50177">
        <ele>13</ele>
        <time>2020-07-10T09:41:59Z</time>
      </trkpt>
      <trkpt lat="47.74789" lon="-3.50173">
        <ele>13</ele>
        <time>2020-07-10T09:42:00Z</time>
      </trkpt>
      <trkpt lat="47.74791" lon="-3.50169">
        <ele>13</ele>
        <time>2020-07-10T09:42:01Z</time>
      </trkpt>
      <trkpt lat="47.74794" lon="-3.50165">
        <ele>13</ele>
        <time>2020-07-10T09:42:02Z</time>
      </trkpt>
      <trkpt lat="47.74796" lon="-3.50162">
        <ele>13</ele>
        <time>2020-07-10T09:42:03Z</time>
      </trkpt>
      <trkpt lat="47.74797" lon="-3.50159">
        <ele>13</ele>
        <time>2020-07-10T09:42:04Z</time>
      </trkpt>
      <trkpt lat="47.74799" lon="-3.50156">
        <ele>13</ele>
        <time>2020-07-10T09:42:05Z</time>
      </trkpt>
      <trkpt lat="47.748" lon="-3.50151">
        <ele>13</ele>
        <time>2020-07-10T09:42:06Z</time>
      </trkpt>
      <trkpt lat="47.748" lon="-3.50146">
        <ele>13</ele>
        <time>2020-07-10T09:42:07Z</time>
      </trkpt>
      <trkpt lat="47.74801" lon="-3.50141">
        <ele>13</ele>
        <time>2020-07-10T09:42:08Z</time>
      </trkpt>
      <trkpt lat="47.74802" lon="-3.50137">
        <ele>13.05</ele>
        <time>2020-07-10T09:42:09Z</time>
      </trkpt>
      <trkpt lat="47.74803" lon="-3.50132">
        <ele>13.18</ele>
        <time>2020-07-10T09:42:10Z</time>
      </trkpt>
      <trkpt lat="47.74804" lon="-3.50127">
        <ele>13.33</ele>
        <time>2020-07-10T09:42:11Z</time>
      </trkpt>
      <trkpt lat="47.74805" lon="-3.50122">
        <ele>13.51</ele>
        <time>2020-07-10T09:42:12Z</time>
      </trkpt>
      <trkpt lat="47.74804" lon="-3.50117">
        <ele>13.68</ele>
        <time>2020-07-10T09:42:13Z</time>
      </trkpt>
      <trkpt lat="47.74804" lon="-3.50112">
        <ele>13.86</ele>
        <time>2020-07-10T09:42:14Z</time>
      </trkpt>
      <trkpt lat="47.74804" lon="-3.50107">
        <ele>13.92</ele>
        <time>2020-07-10T09:42:15Z</time>
      </trkpt>
      <trkpt lat="47.74804" lon="-3.50103">
        <ele>13.94</ele>
        <time>2020-07-10T09:42:16Z</time>
      </trkpt>
      <trkpt lat="47.74803" lon="-3.50098">
        <ele>13.95</ele>
        <time>2020-07-10T09:42:17Z</time>
      </trkpt>
      <trkpt lat="47.74803" lon="-3.50094">
        <ele>13.96</ele>
        <time>2020-07-10T09:42:18Z</time>
      </trkpt>
      <trkpt lat="47.74802" lon="-3.5009">
        <ele>13.96</ele>
        <time>2020-07-10T09:42:19Z</time>
      </trkpt>
      <trkpt lat="47.748" lon="-3.50085">
        <ele>13.98</ele>
        <time>2020-07-10T09:42:20Z</time>
      </trkpt>
      <trkpt lat="47.74799" lon="-3.5008">
        <ele>14.06</ele>
        <time>2020-07-10T09:42:21Z</time>
      </trkpt>
      <trkpt lat="47.74797" lon="-3.50075">
        <ele>14.17</ele>
        <time>2020-07-10T09:42:22Z</time>
      </trkpt>
      <trkpt lat="47.74796" lon="-3.50069">
        <ele>14.29</ele>
        <time>2020-07-10T09:42:23Z</time>
      </trkpt>
      <trkpt lat="47.74796" lon="-3.50064">
        <ele>14.41</ele>
        <time>2020-07-10T09:42:24Z</time>
      </trkpt>
      <trkpt lat="47.74795" lon="-3.50058">
        <ele>14.52</ele>
        <time>2020-07-10T09:42:25Z</time>
      </trkpt>
      <trkpt lat="47.74794" lon="-3.50053">
        <ele>14.61</ele>
        <time>2020-07-10T09:42:26Z</time>
      </trkpt>
      <trkpt lat="47.74793" lon="-3.50046">
        <ele>14.7</ele>
        <time>2020-07-10T09:42:27Z</time>
      </trkpt>
      <trkpt lat="47.74793" lon="-3.5004">
        <ele>14.81</ele>
        <time>2020-07-10T09:42:28Z</time>
      </trkpt>
      <trkpt lat="47.74794" lon="-3.50035">
        <ele>14.93</ele>
        <time>2020-07-10T09:42:29Z</time>
      </trkpt>
      <trkpt lat="47.74795" lon="-3.5003">
        <ele>15.1</ele>
        <time>2020-07-10T09:42:30Z</time>
      </trkpt>
      <trkpt lat="47.74796" lon="-3.50026">
        <ele>15.3</ele>
        <time>2020-07-10T09:42:31Z</time>
      </trkpt>
      <trkpt lat="47.74798" lon="-3.50022">
        <ele>15.54</ele>
        <time>2020-07-10T09:42:32Z</time>
      </trkpt>
      <trkpt lat="47.74798" lon="-3.50018">
        <ele>15.76</ele>
        <time>2020-07-10T09:42:33Z</time>
      </trkpt>
      <trkpt lat="47.74798" lon="-3.50013">
        <ele>15.92</ele>
        <time>2020-07-10T09:42:34Z</time>
      </trkpt>
      <trkpt lat="47.74797" lon="-3.50009">
        <ele>16.03</ele>
        <time>2020-07-10T09:42:35Z</time>
      </trkpt>
      <trkpt lat="47.74795" lon="-3.50005">
        <ele>16.05</ele>
        <time>2020-07-10T09:42:36Z</time>
      </trkpt>
      <trkpt lat="47.74792" lon="-3.50001">
        <ele>16.01</ele>
        <time>2020-07-10T09:42:37Z</time>
      </trkpt>
      <trkpt lat="47.74789" lon="-3.49997">
        <ele>15.85</ele>
        <time>2020-07-10T09:42:38Z</time>
      </trkpt>
      <trkpt lat="47.74786" lon="-3.49994">
        <ele>15.65</ele>
        <time>2020-07-10T09:42:39Z</time>
      </trkpt>
      <trkpt lat="47.74783" lon="-3.49992">
        <ele>15.45</ele>
        <time>2020-07-10T09:42:40Z</time>
      </trkpt>
      <trkpt lat="47.7478" lon="-3.4999">
        <ele>15.26</ele>
        <time>2020-07-10T09:42:41Z</time>
      </trkpt>
      <trkpt lat="47.74777" lon="-3.49988">
        <ele>15.05</ele>
        <time>2020-07-10T09:42:42Z</time>
      </trkpt>
      <trkpt lat="47.74774" lon="-3.49987">
        <ele>14.8</ele>
        <time>2020-07-10T09:42:43Z</time>
      </trkpt>
      <trkpt lat="47.74771" lon="-3.49985">
        <ele>14.52</ele>
        <time>2020-07-10T09:42:44Z</time>
      </trkpt>
      <trkpt lat="47.74768" lon="-3.49983">
        <ele>14.28</ele>
        <time>2020-07-10T09:42:45Z</time>
      </trkpt>
      <trkpt lat="47.74766" lon="-3.49982">
        <ele>14.11</ele>
        <time>2020-07-10T09:42:46Z</time>
      </trkpt>
      <trkpt lat="47.74765" lon="-3.49981">
        <ele>13.96</ele>
        <time>2020-07-10T09:42:47Z</time>
      </trkpt>
      <trkpt lat="47.74762" lon="-3.4998">
        <ele>13.76</ele>
        <time>2020-07-10T09:42:48Z</time>
      </trkpt>
      <trkpt lat="47.74758" lon="-3.49978">
        <ele>13.54</ele>
        <time>2020-07-10T09:42:49Z</time>
      </trkpt>
      <trkpt lat="47.74756" lon="-3.49977">
        <ele>13.35</ele>
        <time>2020-07-10T09:42:50Z</time>
      </trkpt>
      <trkpt lat="47.74753" lon="-3.49975">
        <ele>13.17</ele>
        <time>2020-07-10T09:42:51Z</time>
      </trkpt>
      <trkpt lat="47.7475" lon="-3.49974">
        <ele>13</ele>
        <time>2020-07-10T09:42:52Z</time>
      </trkpt>
      <trkpt lat="47.74746" lon="-3.49972">
        <ele>12.81</ele>
        <time>2020-07-10T09:42:53Z</time>
      </trkpt>
      <trkpt lat="47.74742" lon="-3.4997">
        <ele>12.56</ele>
        <time>2020-07-10T09:42:54Z</time>
      </trkpt>
      <trkpt lat="47.74739" lon="-3.49967">
        <ele>12.29</ele>
        <time>2020-07-10T09:42:55Z</time>
      </trkpt>
      <trkpt lat="47.74735" lon="-3.49965">
        <ele>12.01</ele>
        <time>2020-07-10T09:42:56Z</time>
      </trkpt>
      <trkpt lat="47.7473" lon="-3.49963">
        <ele>11.7</ele>
        <time>2020-07-10T09:42:57Z</time>
      </trkpt>
      <trkpt lat="47.74726" lon="-3.4996">
        <ele>11.4</ele>
        <time>2020-07-10T09:42:58Z</time>
      </trkpt>
      <trkpt lat="47.74721" lon="-3.49958">
        <ele>11.09</ele>
        <time>2020-07-10T09:42:59Z</time>
      </trkpt>
      <trkpt lat="47.74716" lon="-3.49957">
        <ele>10.79</ele>
        <time>2020-07-10T09:43:00Z</time>
      </trkpt>
      <trkpt lat="47.74712" lon="-3.49955">
        <ele>10.51</ele>
        <time>2020-07-10T09:43:01Z</time>
      </trkpt>
      <trkpt lat="47.74708" lon="-3.49953">
        <ele>10.23</ele>
        <time>2020-07-10T09:43:02Z</time>
      </trkpt>
      <trkpt lat="47.74704" lon="-3.4995">
        <ele>9.92</ele>
        <time>2020-07-10T09:43:03Z</time>
      </trkpt>
      <trkpt lat="47.747" lon="-3.49947">
        <ele>9.58</ele>
        <time>2020-07-10T09:43:04Z</time>
      </trkpt>
      <trkpt lat="47.74695" lon="-3.49946">
        <ele>9.25</ele>
        <time>2020-07-10T09:43:05Z</time>
      </trkpt>
      <trkpt lat="47.74692" lon="-3.49945">
        <ele>9.02</ele>
        <time>2020-07-10T09:43:06Z</time>
      </trkpt>
      <trkpt lat="47.74688" lon="-3.49944">
        <ele>8.85</ele>
        <time>2020-07-10T09:43:07Z</time>
      </trkpt>
      <trkpt lat="47.74685" lon="-3.49943">
        <ele>8.71</ele>
        <time>2020-07-10T09:43:08Z</time>
      </trkpt>
      <trkpt lat="47.74682" lon="-3.49942">
        <ele>8.59</ele>
        <time>2020-07-10T09:43:09Z</time>
      </trkpt>
      <trkpt lat="47.7468" lon="-3.4994">
        <ele>8.51</ele>
        <time>2020-07-10T09:43:10Z</time>
      </trkpt>
      <trkpt lat="47.74678" lon="-3.49939">
        <ele>8.45</ele>
        <time>2020-07-10T09:43:11Z</time>
      </trkpt>
      <trkpt lat="47.74677" lon="-3.49938">
        <ele>8.39</ele>
        <time>2020-07-10T09:43:12Z</time>
      </trkpt>
      <trkpt lat="47.74675" lon="-3.49938">
        <ele>8.33</ele>
        <time>2020-07-10T09:43:13Z</time>
      </trkpt>
      <trkpt lat="47.74674" lon="-3.4994">
        <ele>8.27</ele>
        <time>2020-07-10T09:43:14Z</time>
      </trkpt>
      <trkpt lat="47.74672" lon="-3.49943">
        <ele>8.22</ele>
        <time>2020-07-10T09:43:15Z</time>
      </trkpt>
      <trkpt lat="47.74671" lon="-3.49946">
        <ele>8.17</ele>
        <time>2020-07-10T09:43:16Z</time>
      </trkpt>
      <trkpt lat="47.7467" lon="-3.4995">
        <ele>8.14</ele>
        <time>2020-07-10T09:43:17Z</time>
      </trkpt>
      <trkpt lat="47.74669" lon="-3.49954">
        <ele>8.13</ele>
        <time>2020-07-10T09:43:18Z</time>
      </trkpt>
      <trkpt lat="47.74668" lon="-3.49958">
        <ele>8.11</ele>
        <time>2020-07-10T09:43:19Z</time>
      </trkpt>
      <trkpt lat="47.74667" lon="-3.49963">
        <ele>8.06</ele>
        <time>2020-07-10T09:43:20Z</time>
      </trkpt>
      <trkpt lat="47.74666" lon="-3.49967">
        <ele>8</ele>
        <time>2020-07-10T09:43:21Z</time>
      </trkpt>
      <trkpt lat="47.74664" lon="-3.49972">
        <ele>7.95</ele>
        <time>2020-07-10T09:43:22Z</time>
      </trkpt>
      <trkpt lat="47.74663" lon="-3.49976">
        <ele>7.88</ele>
        <time>2020-07-10T09:43:23Z</time>
      </trkpt>
      <trkpt lat="47.74661" lon="-3.49978">
        <ele>7.81</ele>
        <time>2020-07-10T09:43:24Z</time>
      </trkpt>
      <trkpt lat="47.74659" lon="-3.49981">
        <ele>7.75</ele>
        <time>2020-07-10T09:43:25Z</time>
      </trkpt>
      <trkpt lat="47.74658" lon="-3.49984">
        <ele>7.7</ele>
        <time>2020-07-10T09:43:26Z</time>
      </trkpt>
      <trkpt lat="47.74656" lon="-3.49989">
        <ele>7.65</ele>
        <time>2020-07-10T09:43:27Z</time>
      </trkpt>
      <trkpt lat="47.74654" lon="-3.49993">
        <ele>7.59</ele>
        <time>2020-07-10T09:43:28Z</time>
      </trkpt>
      <trkpt lat="47.74652" lon="-3.49998">
        <ele>7.52</ele>
        <time>2020-07-10T09:43:29Z</time>
      </trkpt>
      <trkpt lat="47.7465" lon="-3.50001">
        <ele>7.44</ele>
        <time>2020-07-10T09:43:30Z</time>
      </trkpt>
      <trkpt lat="47.74647" lon="-3.50005">
        <ele>7.36</ele>
        <time>2020-07-10T09:43:31Z</time>
      </trkpt>
      <trkpt lat="47.74645" lon="-3.50008">
        <ele>7.3</ele>
        <time>2020-07-10T09:43:32Z</time>
      </trkpt>
      <trkpt lat="47.74643" lon="-3.50012">
        <ele>7.23</ele>
        <time>2020-07-10T09:43:33Z</time>
      </trkpt>
      <trkpt lat="47.7464" lon="-3.50016">
        <ele>7.11</ele>
        <time>2020-07-10T09:43:34Z</time>
      </trkpt>
      <trkpt lat="47.74637" lon="-3.50019">
        <ele>7.02</ele>
        <time>2020-07-10T09:43:35Z</time>
      </trkpt>
      <trkpt lat="47.74635" lon="-3.50023">
        <ele>6.99</ele>
        <time>2020-07-10T09:43:36Z</time>
      </trkpt>
      <trkpt lat="47.74632" lon="-3.50027">
        <ele>6.99</ele>
        <time>2020-07-10T09:43:37Z</time>
      </trkpt>
      <trkpt lat="47.7463" lon="-3.50031">
        <ele>7.13</ele>
        <time>2020-07-10T09:43:38Z</time>
      </trkpt>
      <trkpt lat="47.74628" lon="-3.50036">
        <ele>7.36</ele>
        <time>2020-07-10T09:43:39Z</time>
      </trkpt>
      <trkpt lat="47.74625" lon="-3.50041">
        <ele>7.6</ele>
        <time>2020-07-10T09:43:40Z</time>
      </trkpt>
      <trkpt lat="47.74622" lon="-3.50046">
        <ele>7.81</ele>
        <time>2020-07-10T09:43:41Z</time>
      </trkpt>
      <trkpt lat="47.7462" lon="-3.5005">
        <ele>7.98</ele>
        <time>2020-07-10T09:43:42Z</time>
      </trkpt>
      <trkpt lat="47.74617" lon="-3.50055">
        <ele>8.12</ele>
        <time>2020-07-10T09:43:43Z</time>
      </trkpt>
      <trkpt lat="47.74614" lon="-3.5006">
        <ele>8.23</ele>
        <time>2020-07-10T09:43:44Z</time>
      </trkpt>
      <trkpt lat="47.74612" lon="-3.50066">
        <ele>8.33</ele>
        <time>2020-07-10T09:43:45Z</time>
      </trkpt>
      <trkpt lat="47.74609" lon="-3.5007">
        <ele>8.38</ele>
        <time>2020-07-10T09:43:46Z</time>
      </trkpt>
      <trkpt lat="47.74607" lon="-3.50075">
        <ele>8.4</ele>
        <time>2020-07-10T09:43:47Z</time>
      </trkpt>
      <trkpt lat="47.74605" lon="-3.5008">
        <ele>8.4</ele>
        <time>2020-07-10T09:43:48Z</time>
      </trkpt>
      <trkpt lat="47.74602" lon="-3.50085">
        <ele>8.39</ele>
        <time>2020-07-10T09:43:49Z</time>
      </trkpt>
      <trkpt lat="47.74599" lon="-3.5009">
        <ele>8.39</ele>
        <time>2020-07-10T09:43:50Z</time>
      </trkpt>
      <trkpt lat="47.74596" lon="-3.50096">
        <ele>8.38</ele>
        <time>2020-07-10T09:43:51Z</time>
      </trkpt>
      <trkpt lat="47.74593" lon="-3.50101">
        <ele>8.34</ele>
        <time>2020-07-10T09:43:52Z</time>
      </trkpt>
      <trkpt lat="47.7459" lon="-3.50106">
        <ele>8.31</ele>
        <time>2020-07-10T09:43:53Z</time>
      </trkpt>
      <trkpt lat="47.74587" lon="-3.50112">
        <ele>8.27</ele>
        <time>2020-07-10T09:43:54Z</time>
      </trkpt>
      <trkpt lat="47.74584" lon="-3.50116">
        <ele>8.11</ele>
        <time>2020-07-10T09:43:55Z</time>
      </trkpt>
      <trkpt lat="47.74581" lon="-3.50121">
        <ele>7.92</ele>
        <time>2020-07-10T09:43:56Z</time>
      </trkpt>
      <trkpt lat="47.74578" lon="-3.50127">
        <ele>7.78</ele>
        <time>2020-07-10T09:43:57Z</time>
      </trkpt>
      <trkpt lat="47.74575" lon="-3.50133">
        <ele>7.67</ele>
        <time>2020-07-10T09:43:58Z</time>
      </trkpt>
      <trkpt lat="47.74572" lon="-3.50139">
        <ele>7.62</ele>
        <time>2020-07-10T09:43:59Z</time>
      </trkpt>
      <trkpt lat="47.7457" lon="-3.50145">
        <ele>7.62</ele>
        <time>2020-07-10T09:44:00Z</time>
      </trkpt>
      <trkpt lat="47.74567" lon="-3.50151">
        <ele>7.6</ele>
        <time>2020-07-10T09:44:01Z</time>
      </trkpt>
      <trkpt lat="47.74564" lon="-3.50158">
        <ele>7.54</ele>
        <time>2020-07-10T09:44:02Z</time>
      </trkpt>
      <trkpt lat="47.74561" lon="-3.50164">
        <ele>7.4</ele>
        <time>2020-07-10T09:44:03Z</time>
      </trkpt>
      <trkpt lat="47.74556" lon="-3.50169">
        <ele>7.16</ele>
        <time>2020-07-10T09:44:04Z</time>
      </trkpt>
      <trkpt lat="47.74552" lon="-3.50175">
        <ele>6.95</ele>
        <time>2020-07-10T09:44:05Z</time>
      </trkpt>
      <trkpt lat="47.74546" lon="-3.50179">
        <ele>6.76</ele>
        <time>2020-07-10T09:44:06Z</time>
      </trkpt>
      <trkpt lat="47.74541" lon="-3.50183">
        <ele>6.56</ele>
        <time>2020-07-10T09:44:07Z</time>
      </trkpt>
      <trkpt lat="47.74535" lon="-3.50186">
        <ele>6.34</ele>
        <time>2020-07-10T09:44:08Z</time>
      </trkpt>
      <trkpt lat="47.74529" lon="-3.5019">
        <ele>6.12</ele>
        <time>2020-07-10T09:44:09Z</time>
      </trkpt>
      <trkpt lat="47.74522" lon="-3.50193">
        <ele>5.89</ele>
        <time>2020-07-10T09:44:10Z</time>
      </trkpt>
      <trkpt lat="47.74516" lon="-3.50196">
        <ele>5.67</ele>
        <time>2020-07-10T09:44:11Z</time>
      </trkpt>
      <trkpt lat="47.74509" lon="-3.50198">
        <ele>5.44</ele>
        <time>2020-07-10T09:44:12Z</time>
      </trkpt>
      <trkpt lat="47.74504" lon="-3.502">
        <ele>5.22</ele>
        <time>2020-07-10T09:44:13Z</time>
      </trkpt>
      <trkpt lat="47.74498" lon="-3.50203">
        <ele>5.07</ele>
        <time>2020-07-10T09:44:14Z</time>
      </trkpt>
      <trkpt lat="47.74493" lon="-3.50205">
        <ele>5.02</ele>
        <time>2020-07-10T09:44:15Z</time>
      </trkpt>
      <trkpt lat="47.74488" lon="-3.50208">
        <ele>5.01</ele>
        <time>2020-07-10T09:44:16Z</time>
      </trkpt>
      <trkpt lat="47.74483" lon="-3.5021">
        <ele>5</ele>
        <time>2020-07-10T09:44:17Z</time>
      </trkpt>
      <trkpt lat="47.74478" lon="-3.50212">
        <ele>5</ele>
        <time>2020-07-10T09:44:18Z</time>
      </trkpt>
      <trkpt lat="47.74473" lon="-3.50214">
        <ele>5</ele>
        <time>2020-07-10T09:44:19Z</time>
      </trkpt>
      <trkpt lat="47.74468" lon="-3.50216">
        <ele>5</ele>
        <time>2020-07-10T09:44:20Z</time>
      </trkpt>
      <trkpt lat="47.74464" lon="-3.50218">
        <ele>5</ele>
        <time>2020-07-10T09:44:21Z</time>
      </trkpt>
      <trkpt lat="47.74459" lon="-3.50219">
        <ele>5</ele>
        <time>2020-07-10T09:44:22Z</time>
      </trkpt>
      <trkpt lat="47.74454" lon="-3.5022">
        <ele>5</ele>
        <time>2020-07-10T09:44:23Z</time>
      </trkpt>
      <trkpt lat="47.74449" lon="-3.5022">
        <ele>5</ele>
        <time>2020-07-10T09:44:24Z</time>
      </trkpt>
      <trkpt lat="47.74444" lon="-3.5022">
        <ele>5</ele>
        <time>2020-07-10T09:44:25Z</time>
      </trkpt>
      <trkpt lat="47.7444" lon="-3.5022">
        <ele>5</ele>
        <time>2020-07-10T09:44:26Z</time>
      </trkpt>
      <trkpt lat="47.74435" lon="-3.50219">
        <ele>5</ele>
        <time>2020-07-10T09:44:27Z</time>
      </trkpt>
      <trkpt lat="47.7443" lon="-3.50219">
        <ele>5</ele>
        <time>2020-07-10T09:44:28Z</time>
      </trkpt>
      <trkpt lat="47.74425" lon="-3.50219">
        <ele>5</ele>
        <time>2020-07-10T09:44:29Z</time>
      </trkpt>
      <trkpt lat="47.74421" lon="-3.5022">
        <ele>5</ele>
        <time>2020-07-10T09:44:30Z</time>
      </trkpt>
      <trkpt lat="47.74416" lon="-3.5022">
        <ele>5.02</ele>
        <time>2020-07-10T09:44:31Z</time>
      </trkpt>
      <trkpt lat="47.74411" lon="-3.5022">
        <ele>5.15</ele>
        <time>2020-07-10T09:44:32Z</time>
      </trkpt>
      <trkpt lat="47.74405" lon="-3.50221">
        <ele>5.32</ele>
        <time>2020-07-10T09:44:33Z</time>
      </trkpt>
      <trkpt lat="47.744" lon="-3.50222">
        <ele>5.51</ele>
        <time>2020-07-10T09:44:34Z</time>
      </trkpt>
      <trkpt lat="47.74395" lon="-3.50223">
        <ele>5.71</ele>
        <time>2020-07-10T09:44:35Z</time>
      </trkpt>
      <trkpt lat="47.7439" lon="-3.50225">
        <ele>5.89</ele>
        <time>2020-07-10T09:44:36Z</time>
      </trkpt>
      <trkpt lat="47.74385" lon="-3.50226">
        <ele>5.99</ele>
        <time>2020-07-10T09:44:37Z</time>
      </trkpt>
      <trkpt lat="47.74381" lon="-3.50227">
        <ele>6.08</ele>
        <time>2020-07-10T09:44:38Z</time>
      </trkpt>
      <trkpt lat="47.74377" lon="-3.50228">
        <ele>6.16</ele>
        <time>2020-07-10T09:44:39Z</time>
      </trkpt>
      <trkpt lat="47.74373" lon="-3.50228">
        <ele>6.21</ele>
        <time>2020-07-10T09:44:40Z</time>
      </trkpt>
      <trkpt lat="47.74369" lon="-3.50227">
        <ele>6.22</ele>
        <time>2020-07-10T09:44:41Z</time>
      </trkpt>
      <trkpt lat="47.74366" lon="-3.50225">
        <ele>6.19</ele>
        <time>2020-07-10T09:44:42Z</time>
      </trkpt>
      <trkpt lat="47.74362" lon="-3.50224">
        <ele>6.16</ele>
        <time>2020-07-10T09:44:43Z</time>
      </trkpt>
      <trkpt lat="47.74358" lon="-3.50224">
        <ele>6.12</ele>
        <time>2020-07-10T09:44:44Z</time>
      </trkpt>
      <trkpt lat="47.74355" lon="-3.50223">
        <ele>6.08</ele>
        <time>2020-07-10T09:44:45Z</time>
      </trkpt>
      <trkpt lat="47.74351" lon="-3.50223">
        <ele>6.06</ele>
        <time>2020-07-10T09:44:46Z</time>
      </trkpt>
      <trkpt lat="47.74348" lon="-3.50224">
        <ele>6.06</ele>
        <time>2020-07-10T09:44:47Z</time>
      </trkpt>
      <trkpt lat="47.74345" lon="-3.50225">
        <ele>6.08</ele>
        <time>2020-07-10T09:44:48Z</time>
      </trkpt>
      <trkpt lat="47.74342" lon="-3.50228">
        <ele>6.11</ele>
        <time>2020-07-10T09:44:49Z</time>
      </trkpt>
      <trkpt lat="47.74339" lon="-3.50232">
        <ele>6.13</ele>
        <time>2020-07-10T09:44:50Z</time>
      </trkpt>
      <trkpt lat="47.74336" lon="-3.50236">
        <ele>6.11</ele>
        <time>2020-07-10T09:44:51Z</time>
      </trkpt>
      <trkpt lat="47.74333" lon="-3.5024">
        <ele>6.03</ele>
        <time>2020-07-10T09:44:52Z</time>
      </trkpt>
      <trkpt lat="47.74329" lon="-3.50243">
        <ele>6.01</ele>
        <time>2020-07-10T09:44:53Z</time>
      </trkpt>
      <trkpt lat="47.74326" lon="-3.50246">
        <ele>6</ele>
        <time>2020-07-10T09:44:54Z</time>
      </trkpt>
      <trkpt lat="47.74322" lon="-3.5025">
        <ele>6</ele>
        <time>2020-07-10T09:44:55Z</time>
      </trkpt>
      <trkpt lat="47.74318" lon="-3.50253">
        <ele>6.03</ele>
        <time>2020-07-10T09:44:56Z</time>
      </trkpt>
      <trkpt lat="47.74314" lon="-3.50256">
        <ele>6.05</ele>
        <time>2020-07-10T09:44:57Z</time>
      </trkpt>
      <trkpt lat="47.7431" lon="-3.50257">
        <ele>6.05</ele>
        <time>2020-07-10T09:44:58Z</time>
      </trkpt>
      <trkpt lat="47.74308" lon="-3.5026">
        <ele>6.03</ele>
        <time>2020-07-10T09:44:59Z</time>
      </trkpt>
      <trkpt lat="47.74306" lon="-3.50263">
        <ele>6.02</ele>
        <time>2020-07-10T09:45:00Z</time>
      </trkpt>
      <trkpt lat="47.74305" lon="-3.50266">
        <ele>6.01</ele>
        <time>2020-07-10T09:45:01Z</time>
      </trkpt>
      <trkpt lat="47.74303" lon="-3.50266">
        <ele>6</ele>
        <time>2020-07-10T09:45:02Z</time>
      </trkpt>
      <trkpt lat="47.743" lon="-3.50266">
        <ele>6</ele>
        <time>2020-07-10T09:45:03Z</time>
      </trkpt>
      <trkpt lat="47.74297" lon="-3.50265">
        <ele>6</ele>
        <time>2020-07-10T09:45:04Z</time>
      </trkpt>
      <trkpt lat="47.74294" lon="-3.50263">
        <ele>6</ele>
        <time>2020-07-10T09:45:05Z</time>
      </trkpt>
      <trkpt lat="47.7429" lon="-3.50262">
        <ele>6</ele>
        <time>2020-07-10T09:45:06Z</time>
      </trkpt>
      <trkpt lat="47.74286" lon="-3.5026">
        <ele>6</ele>
        <time>2020-07-10T09:45:07Z</time>
      </trkpt>
      <trkpt lat="47.74282" lon="-3.50259">
        <ele>6</ele>
        <time>2020-07-10T09:45:08Z</time>
      </trkpt>
      <trkpt lat="47.74277" lon="-3.50259">
        <ele>6</ele>
        <time>2020-07-10T09:45:09Z</time>
      </trkpt>
      <trkpt lat="47.74273" lon="-3.50257">
        <ele>6</ele>
        <time>2020-07-10T09:45:10Z</time>
      </trkpt>
      <trkpt lat="47.74269" lon="-3.50256">
        <ele>6</ele>
        <time>2020-07-10T09:45:11Z</time>
      </trkpt>
      <trkpt lat="47.74265" lon="-3.50254">
        <ele>6</ele>
        <time>2020-07-10T09:45:12Z</time>
      </trkpt>
      <trkpt lat="47.74261" lon="-3.50253">
        <ele>6</ele>
        <time>2020-07-10T09:45:13Z</time>
      </trkpt>
      <trkpt lat="47.74257" lon="-3.50252">
        <ele>6</ele>
        <time>2020-07-10T09:45:14Z</time>
      </trkpt>
      <trkpt lat="47.74253" lon="-3.50251">
        <ele>6</ele>
        <time>2020-07-10T09:45:15Z</time>
      </trkpt>
      <trkpt lat="47.74249" lon="-3.5025">
        <ele>5.97</ele>
        <time>2020-07-10T09:45:16Z</time>
      </trkpt>
      <trkpt lat="47.74245" lon="-3.50248">
        <ele>5.82</ele>
        <time>2020-07-10T09:45:17Z</time>
      </trkpt>
      <trkpt lat="47.74241" lon="-3.50246">
        <ele>5.65</ele>
        <time>2020-07-10T09:45:18Z</time>
      </trkpt>
      <trkpt lat="47.74237" lon="-3.50245">
        <ele>5.49</ele>
        <time>2020-07-10T09:45:19Z</time>
      </trkpt>
      <trkpt lat="47.74232" lon="-3.50244">
        <ele>5.35</ele>
        <time>2020-07-10T09:45:20Z</time>
      </trkpt>
      <trkpt lat="47.74228" lon="-3.50243">
        <ele>5.22</ele>
        <time>2020-07-10T09:45:21Z</time>
      </trkpt>
      <trkpt lat="47.74225" lon="-3.50242">
        <ele>5.12</ele>
        <time>2020-07-10T09:45:22Z</time>
      </trkpt>
      <trkpt lat="47.74222" lon="-3.5024">
        <ele>5.03</ele>
        <time>2020-07-10T09:45:23Z</time>
      </trkpt>
      <trkpt lat="47.74219" lon="-3.5024">
        <ele>5.01</ele>
        <time>2020-07-10T09:45:24Z</time>
      </trkpt>
      <trkpt lat="47.74217" lon="-3.50242">
        <ele>5</ele>
        <time>2020-07-10T09:45:25Z</time>
      </trkpt>
      <trkpt lat="47.74216" lon="-3.50245">
        <ele>5</ele>
        <time>2020-07-10T09:45:26Z</time>
      </trkpt>
      <trkpt lat="47.74215" lon="-3.50249">
        <ele>5</ele>
        <time>2020-07-10T09:45:27Z</time>
      </trkpt>
      <trkpt lat="47.74214" lon="-3.50253">
        <ele>5.05</ele>
        <time>2020-07-10T09:45:28Z</time>
      </trkpt>
      <trkpt lat="47.74213" lon="-3.50258">
        <ele>5.14</ele>
        <time>2020-07-10T09:45:29Z</time>
      </trkpt>
      <trkpt lat="47.74211" lon="-3.50263">
        <ele>5.24</ele>
        <time>2020-07-10T09:45:30Z</time>
      </trkpt>
      <trkpt lat="47.7421" lon="-3.50267">
        <ele>5.32</ele>
        <time>2020-07-10T09:45:31Z</time>
      </trkpt>
      <trkpt lat="47.74209" lon="-3.50272">
        <ele>5.4</ele>
        <time>2020-07-10T09:45:32Z</time>
      </trkpt>
      <trkpt lat="47.74208" lon="-3.50276">
        <ele>5.45</ele>
        <time>2020-07-10T09:45:33Z</time>
      </trkpt>
      <trkpt lat="47.74207" lon="-3.5028">
        <ele>5.5</ele>
        <time>2020-07-10T09:45:34Z</time>
      </trkpt>
      <trkpt lat="47.74205" lon="-3.50281">
        <ele>5.5</ele>
        <time>2020-07-10T09:45:35Z</time>
      </trkpt>
      <trkpt lat="47.74203" lon="-3.50281">
        <ele>5.45</ele>
        <time>2020-07-10T09:45:36Z</time>
      </trkpt>
      <trkpt lat="47.742" lon="-3.50278">
        <ele>5.29</ele>
        <time>2020-07-10T09:45:37Z</time>
      </trkpt>
      <trkpt lat="47.74197" lon="-3.50275">
        <ele>5.15</ele>
        <time>2020-07-10T09:45:38Z</time>
      </trkpt>
      <trkpt lat="47.74194" lon="-3.50272">
        <ele>5.04</ele>
        <time>2020-07-10T09:45:39Z</time>
      </trkpt>
      <trkpt lat="47.7419" lon="-3.50269">
        <ele>5.01</ele>
        <time>2020-07-10T09:45:40Z</time>
      </trkpt>
      <trkpt lat="47.74186" lon="-3.50267">
        <ele>5</ele>
        <time>2020-07-10T09:45:41Z</time>
      </trkpt>
      <trkpt lat="47.74181" lon="-3.50265">
        <ele>5</ele>
        <time>2020-07-10T09:45:42Z</time>
      </trkpt>
      <trkpt lat="47.74177" lon="-3.50264">
        <ele>5</ele>
        <time>2020-07-10T09:45:43Z</time>
      </trkpt>
      <trkpt lat="47.74172" lon="-3.50263">
        <ele>5</ele>
        <time>2020-07-10T09:45:44Z</time>
      </trkpt>
      <trkpt lat="47.74168" lon="-3.50263">
        <ele>5</ele>
        <time>2020-07-10T09:45:45Z</time>
      </trkpt>
      <trkpt lat="47.74164" lon="-3.50262">
        <ele>5.02</ele>
        <time>2020-07-10T09:45:46Z</time>
      </trkpt>
      <trkpt lat="47.7416" lon="-3.50262">
        <ele>5.05</ele>
        <time>2020-07-10T09:45:47Z</time>
      </trkpt>
      <trkpt lat="47.74157" lon="-3.5026">
        <ele>5.04</ele>
        <time>2020-07-10T09:45:48Z</time>
      </trkpt>
      <trkpt lat="47.74154" lon="-3.50259">
        <ele>5</ele>
        <time>2020-07-10T09:45:49Z</time>
      </trkpt>
      <trkpt lat="47.74149" lon="-3.50258">
        <ele>4.95</ele>
        <time>2020-07-10T09:45:50Z</time>
      </trkpt>
      <trkpt lat="47.74145" lon="-3.50257">
        <ele>4.88</ele>
        <time>2020-07-10T09:45:51Z</time>
      </trkpt>
      <trkpt lat="47.74141" lon="-3.50257">
        <ele>4.84</ele>
        <time>2020-07-10T09:45:52Z</time>
      </trkpt>
      <trkpt lat="47.74136" lon="-3.50258">
        <ele>4.92</ele>
        <time>2020-07-10T09:45:53Z</time>
      </trkpt>
      <trkpt lat="47.74131" lon="-3.50259">
        <ele>5.12</ele>
        <time>2020-07-10T09:45:54Z</time>
      </trkpt>
      <trkpt lat="47.74127" lon="-3.5026">
        <ele>5.38</ele>
        <time>2020-07-10T09:45:55Z</time>
      </trkpt>
      <trkpt lat="47.74123" lon="-3.50261">
        <ele>5.62</ele>
        <time>2020-07-10T09:45:56Z</time>
      </trkpt>
      <trkpt lat="47.7412" lon="-3.50261">
        <ele>5.76</ele>
        <time>2020-07-10T09:45:57Z</time>
      </trkpt>
      <trkpt lat="47.74118" lon="-3.5026">
        <ele>5.86</ele>
        <time>2020-07-10T09:45:58Z</time>
      </trkpt>
      <trkpt lat="47.74115" lon="-3.5026">
        <ele>5.9</ele>
        <time>2020-07-10T09:45:59Z</time>
      </trkpt>
      <trkpt lat="47.74112" lon="-3.50259">
        <ele>5.9</ele>
        <time>2020-07-10T09:46:00Z</time>
      </trkpt>
      <trkpt lat="47.74108" lon="-3.50257">
        <ele>5.81</ele>
        <time>2020-07-10T09:46:01Z</time>
      </trkpt>
      <trkpt lat="47.74105" lon="-3.50255">
        <ele>5.68</ele>
        <time>2020-07-10T09:46:02Z</time>
      </trkpt>
      <trkpt lat="47.74102" lon="-3.50253">
        <ele>5.57</ele>
        <time>2020-07-10T09:46:03Z</time>
      </trkpt>
      <trkpt lat="47.74099" lon="-3.5025">
        <ele>5.5</ele>
        <time>2020-07-10T09:46:04Z</time>
      </trkpt>
      <trkpt lat="47.74096" lon="-3.50248">
        <ele>5.49</ele>
        <time>2020-07-10T09:46:05Z</time>
      </trkpt>
      <trkpt lat="47.74093" lon="-3.50246">
        <ele>5.52</ele>
        <time>2020-07-10T09:46:06Z</time>
      </trkpt>
      <trkpt lat="47.7409" lon="-3.50243">
        <ele>5.53</ele>
        <time>2020-07-10T09:46:07Z</time>
      </trkpt>
      <trkpt lat="47.74087" lon="-3.5024">
        <ele>5.52</ele>
        <time>2020-07-10T09:46:08Z</time>
      </trkpt>
      <trkpt lat="47.74084" lon="-3.50237">
        <ele>5.5</ele>
        <time>2020-07-10T09:46:09Z</time>
      </trkpt>
      <trkpt lat="47.74081" lon="-3.50232">
        <ele>5.43</ele>
        <time>2020-07-10T09:46:10Z</time>
      </trkpt>
      <trkpt lat="47.74078" lon="-3.50226">
        <ele>5.34</ele>
        <time>2020-07-10T09:46:11Z</time>
      </trkpt>
      <trkpt lat="47.74074" lon="-3.5022">
        <ele>5.32</ele>
        <time>2020-07-10T09:46:12Z</time>
      </trkpt>
      <trkpt lat="47.7407" lon="-3.50216">
        <ele>5.36</ele>
        <time>2020-07-10T09:46:13Z</time>
      </trkpt>
      <trkpt lat="47.74066" lon="-3.50212">
        <ele>5.39</ele>
        <time>2020-07-10T09:46:14Z</time>
      </trkpt>
      <trkpt lat="47.74062" lon="-3.50208">
        <ele>5.38</ele>
        <time>2020-07-10T09:46:15Z</time>
      </trkpt>
      <trkpt lat="47.7406" lon="-3.50204">
        <ele>5.31</ele>
        <time>2020-07-10T09:46:16Z</time>
      </trkpt>
      <trkpt lat="47.74058" lon="-3.50199">
        <ele>5.19</ele>
        <time>2020-07-10T09:46:17Z</time>
      </trkpt>
      <trkpt lat="47.74057" lon="-3.50194">
        <ele>5.06</ele>
        <time>2020-07-10T09:46:18Z</time>
      </trkpt>
      <trkpt lat="47.74057" lon="-3.50191">
        <ele>5.01</ele>
        <time>2020-07-10T09:46:19Z</time>
      </trkpt>
      <trkpt lat="47.74057" lon="-3.50187">
        <ele>4.99</ele>
        <time>2020-07-10T09:46:20Z</time>
      </trkpt>
      <trkpt lat="47.74058" lon="-3.50183">
        <ele>4.97</ele>
        <time>2020-07-10T09:46:21Z</time>
      </trkpt>
      <trkpt lat="47.74061" lon="-3.5018">
        <ele>4.92</ele>
        <time>2020-07-10T09:46:22Z</time>
      </trkpt>
      <trkpt lat="47.74065" lon="-3.50177">
        <ele>4.83</ele>
        <time>2020-07-10T09:46:23Z</time>
      </trkpt>
      <trkpt lat="47.7407" lon="-3.50175">
        <ele>4.71</ele>
        <time>2020-07-10T09:46:24Z</time>
      </trkpt>
      <trkpt lat="47.74075" lon="-3.50174">
        <ele>4.55</ele>
        <time>2020-07-10T09:46:25Z</time>
      </trkpt>
      <trkpt lat="47.7408" lon="-3.50173">
        <ele>4.38</ele>
        <time>2020-07-10T09:46:26Z</time>
      </trkpt>
      <trkpt lat="47.74085" lon="-3.50171">
        <ele>4.26</ele>
        <time>2020-07-10T09:46:27Z</time>
      </trkpt>
      <trkpt lat="47.7409" lon="-3.5017">
        <ele>4.29</ele>
        <time>2020-07-10T09:46:28Z</time>
      </trkpt>
      <trkpt lat="47.74094" lon="-3.50168">
        <ele>4.37</ele>
        <time>2020-07-10T09:46:29Z</time>
      </trkpt>
      <trkpt lat="47.74098" lon="-3.50166">
        <ele>4.49</ele>
        <time>2020-07-10T09:46:30Z</time>
      </trkpt>
      <trkpt lat="47.74103" lon="-3.50164">
        <ele>4.61</ele>
        <time>2020-07-10T09:46:31Z</time>
      </trkpt>
      <trkpt lat="47.74107" lon="-3.50161">
        <ele>4.69</ele>
        <time>2020-07-10T09:46:32Z</time>
      </trkpt>
      <trkpt lat="47.74112" lon="-3.50159">
        <ele>4.69</ele>
        <time>2020-07-10T09:46:33Z</time>
      </trkpt>
      <trkpt lat="47.74117" lon="-3.50156">
        <ele>4.55</ele>
        <time>2020-07-10T09:46:34Z</time>
      </trkpt>
      <trkpt lat="47.74122" lon="-3.50153">
        <ele>4.39</ele>
        <time>2020-07-10T09:46:35Z</time>
      </trkpt>
      <trkpt lat="47.74126" lon="-3.5015">
        <ele>4.24</ele>
        <time>2020-07-10T09:46:36Z</time>
      </trkpt>
      <trkpt lat="47.74131" lon="-3.50147">
        <ele>4.13</ele>
        <time>2020-07-10T09:46:37Z</time>
      </trkpt>
      <trkpt lat="47.74136" lon="-3.50144">
        <ele>4.05</ele>
        <time>2020-07-10T09:46:38Z</time>
      </trkpt>
      <trkpt lat="47.74141" lon="-3.5014">
        <ele>4.02</ele>
        <time>2020-07-10T09:46:39Z</time>
      </trkpt>
      <trkpt lat="47.74145" lon="-3.50135">
        <ele>4</ele>
        <time>2020-07-10T09:46:40Z</time>
      </trkpt>
      <trkpt lat="47.74148" lon="-3.5013">
        <ele>4</ele>
        <time>2020-07-10T09:46:41Z</time>
      </trkpt>
      <trkpt lat="47.74152" lon="-3.50124">
        <ele>4</ele>
        <time>2020-07-10T09:46:42Z</time>
      </trkpt>
      <trkpt lat="47.74155" lon="-3.50117">
        <ele>4</ele>
        <time>2020-07-10T09:46:43Z</time>
      </trkpt>
      <trkpt lat="47.74158" lon="-3.5011">
        <ele>4</ele>
        <time>2020-07-10T09:46:44Z</time>
      </trkpt>
      <trkpt lat="47.74161" lon="-3.50103">
        <ele>4</ele>
        <time>2020-07-10T09:46:45Z</time>
      </trkpt>
      <trkpt lat="47.74164" lon="-3.50095">
        <ele>4</ele>
        <time>2020-07-10T09:46:46Z</time>
      </trkpt>
      <trkpt lat="47.74166" lon="-3.50087">
        <ele>4</ele>
        <time>2020-07-10T09:46:47Z</time>
      </trkpt>
      <trkpt lat="47.74168" lon="-3.5008">
        <ele>4.05</ele>
        <time>2020-07-10T09:46:48Z</time>
      </trkpt>
      <trkpt lat="47.74171" lon="-3.50072">
        <ele>4.12</ele>
        <time>2020-07-10T09:46:49Z</time>
      </trkpt>
      <trkpt lat="47.74174" lon="-3.50064">
        <ele>4.22</ele>
        <time>2020-07-10T09:46:50Z</time>
      </trkpt>
      <trkpt lat="47.74177" lon="-3.50056">
        <ele>4.32</ele>
        <time>2020-07-10T09:46:51Z</time>
      </trkpt>
      <trkpt lat="47.74179" lon="-3.50049">
        <ele>4.34</ele>
        <time>2020-07-10T09:46:52Z</time>
      </trkpt>
      <trkpt lat="47.74182" lon="-3.50041">
        <ele>4.28</ele>
        <time>2020-07-10T09:46:53Z</time>
      </trkpt>
      <trkpt lat="47.74185" lon="-3.50033">
        <ele>4.18</ele>
        <time>2020-07-10T09:46:54Z</time>
      </trkpt>
      <trkpt lat="47.74187" lon="-3.50026">
        <ele>4.05</ele>
        <time>2020-07-10T09:46:55Z</time>
      </trkpt>
      <trkpt lat="47.7419" lon="-3.50017">
        <ele>4.02</ele>
        <time>2020-07-10T09:46:56Z</time>
      </trkpt>
      <trkpt lat="47.74192" lon="-3.50009">
        <ele>4</ele>
        <time>2020-07-10T09:46:57Z</time>
      </trkpt>
      <trkpt lat="47.74195" lon="-3.50001">
        <ele>4.02</ele>
        <time>2020-07-10T09:46:58Z</time>
      </trkpt>
      <trkpt lat="47.74198" lon="-3.49993">
        <ele>4.09</ele>
        <time>2020-07-10T09:46:59Z</time>
      </trkpt>
      <trkpt lat="47.742" lon="-3.49985">
        <ele>4.17</ele>
        <time>2020-07-10T09:47:00Z</time>
      </trkpt>
      <trkpt lat="47.74203" lon="-3.49977">
        <ele>4.27</ele>
        <time>2020-07-10T09:47:01Z</time>
      </trkpt>
      <trkpt lat="47.74206" lon="-3.49969">
        <ele>4.33</ele>
        <time>2020-07-10T09:47:02Z</time>
      </trkpt>
      <trkpt lat="47.74209" lon="-3.49961">
        <ele>4.31</ele>
        <time>2020-07-10T09:47:03Z</time>
      </trkpt>
      <trkpt lat="47.74212" lon="-3.49953">
        <ele>4.23</ele>
        <time>2020-07-10T09:47:04Z</time>
      </trkpt>
      <trkpt lat="47.74214" lon="-3.49945">
        <ele>4.08</ele>
        <time>2020-07-10T09:47:05Z</time>
      </trkpt>
      <trkpt lat="47.74217" lon="-3.49937">
        <ele>4.02</ele>
        <time>2020-07-10T09:47:06Z</time>
      </trkpt>
      <trkpt lat="47.7422" lon="-3.49928">
        <ele>4.01</ele>
        <time>2020-07-10T09:47:07Z</time>
      </trkpt>
      <trkpt lat="47.74222" lon="-3.4992">
        <ele>4</ele>
        <time>2020-07-10T09:47:08Z</time>
      </trkpt>
      <trkpt lat="47.74224" lon="-3.49912">
        <ele>4.05</ele>
        <time>2020-07-10T09:47:09Z</time>
      </trkpt>
      <trkpt lat="47.74226" lon="-3.49906">
        <ele>4.12</ele>
        <time>2020-07-10T09:47:10Z</time>
      </trkpt>
      <trkpt lat="47.74227" lon="-3.49902">
        <ele>4.16</ele>
        <time>2020-07-10T09:47:11Z</time>
      </trkpt>
      <trkpt lat="47.74228" lon="-3.49898">
        <ele>4.19</ele>
        <time>2020-07-10T09:47:12Z</time>
      </trkpt>
      <trkpt lat="47.74229" lon="-3.49895">
        <ele>4.22</ele>
        <time>2020-07-10T09:47:13Z</time>
      </trkpt>
      <trkpt lat="47.7423" lon="-3.49892">
        <ele>4.26</ele>
        <time>2020-07-10T09:47:14Z</time>
      </trkpt>
      <trkpt lat="47.74231" lon="-3.49888">
        <ele>4.3</ele>
        <time>2020-07-10T09:47:15Z</time>
      </trkpt>
      <trkpt lat="47.74233" lon="-3.49883">
        <ele>4.35</ele>
        <time>2020-07-10T09:47:16Z</time>
      </trkpt>
      <trkpt lat="47.74235" lon="-3.49878">
        <ele>4.42</ele>
        <time>2020-07-10T09:47:17Z</time>
      </trkpt>
      <trkpt lat="47.74237" lon="-3.49873">
        <ele>4.5</ele>
        <time>2020-07-10T09:47:18Z</time>
      </trkpt>
      <trkpt lat="47.74239" lon="-3.49867">
        <ele>4.58</ele>
        <time>2020-07-10T09:47:19Z</time>
      </trkpt>
      <trkpt lat="47.74242" lon="-3.49862">
        <ele>4.67</ele>
        <time>2020-07-10T09:47:20Z</time>
      </trkpt>
      <trkpt lat="47.74245" lon="-3.49856">
        <ele>4.77</ele>
        <time>2020-07-10T09:47:21Z</time>
      </trkpt>
      <trkpt lat="47.74248" lon="-3.49849">
        <ele>4.87</ele>
        <time>2020-07-10T09:47:22Z</time>
      </trkpt>
      <trkpt lat="47.74251" lon="-3.49843">
        <ele>4.96</ele>
        <time>2020-07-10T09:47:23Z</time>
      </trkpt>
      <trkpt lat="47.74254" lon="-3.49836">
        <ele>4.99</ele>
        <time>2020-07-10T09:47:24Z</time>
      </trkpt>
      <trkpt lat="47.74257" lon="-3.4983">
        <ele>5</ele>
        <time>2020-07-10T09:47:25Z</time>
      </trkpt>
      <trkpt lat="47.7426" lon="-3.49823">
        <ele>5</ele>
        <time>2020-07-10T09:47:26Z</time>
      </trkpt>
      <trkpt lat="47.74263" lon="-3.49816">
        <ele>5</ele>
        <time>2020-07-10T09:47:27Z</time>
      </trkpt>
      <trkpt lat="47.74266" lon="-3.4981">
        <ele>5</ele>
        <time>2020-07-10T09:47:28Z</time>
      </trkpt>
      <trkpt lat="47.74269" lon="-3.49803">
        <ele>5</ele>
        <time>2020-07-10T09:47:29Z</time>
      </trkpt>
      <trkpt lat="47.74272" lon="-3.49796">
        <ele>5</ele>
        <time>2020-07-10T09:47:30Z</time>
      </trkpt>
      <trkpt lat="47.74275" lon="-3.4979">
        <ele>5</ele>
        <time>2020-07-10T09:47:31Z</time>
      </trkpt>
      <trkpt lat="47.74278" lon="-3.49783">
        <ele>5</ele>
        <time>2020-07-10T09:47:32Z</time>
      </trkpt>
      <trkpt lat="47.74282" lon="-3.49776">
        <ele>5</ele>
        <time>2020-07-10T09:47:33Z</time>
      </trkpt>
      <trkpt lat="47.74285" lon="-3.49769">
        <ele>5</ele>
        <time>2020-07-10T09:47:34Z</time>
      </trkpt>
      <trkpt lat="47.74288" lon="-3.49763">
        <ele>5</ele>
        <time>2020-07-10T09:47:35Z</time>
      </trkpt>
      <trkpt lat="47.74291" lon="-3.49756">
        <ele>5</ele>
        <time>2020-07-10T09:47:36Z</time>
      </trkpt>
      <trkpt lat="47.74294" lon="-3.49749">
        <ele>5</ele>
        <time>2020-07-10T09:47:37Z</time>
      </trkpt>
      <trkpt lat="47.74297" lon="-3.49742">
        <ele>5</ele>
        <time>2020-07-10T09:47:38Z</time>
      </trkpt>
      <trkpt lat="47.743" lon="-3.49734">
        <ele>5</ele>
        <time>2020-07-10T09:47:39Z</time>
      </trkpt>
      <trkpt lat="47.74303" lon="-3.49728">
        <ele>5</ele>
        <time>2020-07-10T09:47:40Z</time>
      </trkpt>
      <trkpt lat="47.74306" lon="-3.49721">
        <ele>5.02</ele>
        <time>2020-07-10T09:47:41Z</time>
      </trkpt>
      <trkpt lat="47.7431" lon="-3.49715">
        <ele>5.11</ele>
        <time>2020-07-10T09:47:42Z</time>
      </trkpt>
      <trkpt lat="47.74312" lon="-3.49708">
        <ele>5.21</ele>
        <time>2020-07-10T09:47:43Z</time>
      </trkpt>
      <trkpt lat="47.74316" lon="-3.49702">
        <ele>5.31</ele>
        <time>2020-07-10T09:47:44Z</time>
      </trkpt>
      <trkpt lat="47.74318" lon="-3.49695">
        <ele>5.42</ele>
        <time>2020-07-10T09:47:45Z</time>
      </trkpt>
      <trkpt lat="47.74321" lon="-3.49689">
        <ele>5.51</ele>
        <time>2020-07-10T09:47:46Z</time>
      </trkpt>
      <trkpt lat="47.74324" lon="-3.49683">
        <ele>5.61</ele>
        <time>2020-07-10T09:47:47Z</time>
      </trkpt>
      <trkpt lat="47.74326" lon="-3.49676">
        <ele>5.71</ele>
        <time>2020-07-10T09:47:48Z</time>
      </trkpt>
      <trkpt lat="47.74329" lon="-3.4967">
        <ele>5.82</ele>
        <time>2020-07-10T09:47:49Z</time>
      </trkpt>
      <trkpt lat="47.74332" lon="-3.49664">
        <ele>5.92</ele>
        <time>2020-07-10T09:47:50Z</time>
      </trkpt>
      <trkpt lat="47.74335" lon="-3.49658">
        <ele>5.98</ele>
        <time>2020-07-10T09:47:51Z</time>
      </trkpt>
      <trkpt lat="47.74338" lon="-3.49651">
        <ele>5.99</ele>
        <time>2020-07-10T09:47:52Z</time>
      </trkpt>
      <trkpt lat="47.7434" lon="-3.49643">
        <ele>6</ele>
        <time>2020-07-10T09:47:53Z</time>
      </trkpt>
      <trkpt lat="47.74343" lon="-3.49636">
        <ele>5.96</ele>
        <time>2020-07-10T09:47:54Z</time>
      </trkpt>
      <trkpt lat="47.74346" lon="-3.49629">
        <ele>5.85</ele>
        <time>2020-07-10T09:47:55Z</time>
      </trkpt>
      <trkpt lat="47.74348" lon="-3.49622">
        <ele>5.75</ele>
        <time>2020-07-10T09:47:56Z</time>
      </trkpt>
      <trkpt lat="47.7435" lon="-3.49614">
        <ele>5.67</ele>
        <time>2020-07-10T09:47:57Z</time>
      </trkpt>
      <trkpt lat="47.74352" lon="-3.49606">
        <ele>5.67</ele>
        <time>2020-07-10T09:47:58Z</time>
      </trkpt>
      <trkpt lat="47.74354" lon="-3.49598">
        <ele>5.71</ele>
        <time>2020-07-10T09:47:59Z</time>
      </trkpt>
      <trkpt lat="47.74356" lon="-3.4959">
        <ele>5.78</ele>
        <time>2020-07-10T09:48:00Z</time>
      </trkpt>
      <trkpt lat="47.74358" lon="-3.49582">
        <ele>5.82</ele>
        <time>2020-07-10T09:48:01Z</time>
      </trkpt>
      <trkpt lat="47.7436" lon="-3.49574">
        <ele>5.69</ele>
        <time>2020-07-10T09:48:02Z</time>
      </trkpt>
      <trkpt lat="47.74362" lon="-3.49567">
        <ele>5.49</ele>
        <time>2020-07-10T09:48:03Z</time>
      </trkpt>
      <trkpt lat="47.74363" lon="-3.49559">
        <ele>5.28</ele>
        <time>2020-07-10T09:48:04Z</time>
      </trkpt>
      <trkpt lat="47.74365" lon="-3.49551">
        <ele>5.17</ele>
        <time>2020-07-10T09:48:05Z</time>
      </trkpt>
      <trkpt lat="47.74366" lon="-3.49544">
        <ele>5.17</ele>
        <time>2020-07-10T09:48:06Z</time>
      </trkpt>
      <trkpt lat="47.74368" lon="-3.49536">
        <ele>5.23</ele>
        <time>2020-07-10T09:48:07Z</time>
      </trkpt>
      <trkpt lat="47.7437" lon="-3.49528">
        <ele>5.29</ele>
        <time>2020-07-10T09:48:08Z</time>
      </trkpt>
      <trkpt lat="47.74372" lon="-3.49521">
        <ele>5.35</ele>
        <time>2020-07-10T09:48:09Z</time>
      </trkpt>
      <trkpt lat="47.74373" lon="-3.49514">
        <ele>5.41</ele>
        <time>2020-07-10T09:48:10Z</time>
      </trkpt>
      <trkpt lat="47.74375" lon="-3.49506">
        <ele>5.46</ele>
        <time>2020-07-10T09:48:11Z</time>
      </trkpt>
      <trkpt lat="47.74376" lon="-3.49499">
        <ele>5.52</ele>
        <time>2020-07-10T09:48:12Z</time>
      </trkpt>
      <trkpt lat="47.74378" lon="-3.49493">
        <ele>5.59</ele>
        <time>2020-07-10T09:48:13Z</time>
      </trkpt>
      <trkpt lat="47.74379" lon="-3.49487">
        <ele>5.64</ele>
        <time>2020-07-10T09:48:14Z</time>
      </trkpt>
      <trkpt lat="47.74381" lon="-3.49482">
        <ele>5.68</ele>
        <time>2020-07-10T09:48:15Z</time>
      </trkpt>
      <trkpt lat="47.74382" lon="-3.49477">
        <ele>5.73</ele>
        <time>2020-07-10T09:48:16Z</time>
      </trkpt>
      <trkpt lat="47.74384" lon="-3.49472">
        <ele>5.78</ele>
        <time>2020-07-10T09:48:17Z</time>
      </trkpt>
      <trkpt lat="47.74386" lon="-3.49466">
        <ele>5.72</ele>
        <time>2020-07-10T09:48:18Z</time>
      </trkpt>
      <trkpt lat="47.74388" lon="-3.4946">
        <ele>5.6</ele>
        <time>2020-07-10T09:48:19Z</time>
      </trkpt>
      <trkpt lat="47.74391" lon="-3.49454">
        <ele>5.46</ele>
        <time>2020-07-10T09:48:20Z</time>
      </trkpt>
      <trkpt lat="47.74393" lon="-3.49449">
        <ele>5.32</ele>
        <time>2020-07-10T09:48:21Z</time>
      </trkpt>
      <trkpt lat="47.74395" lon="-3.49443">
        <ele>5.27</ele>
        <time>2020-07-10T09:48:22Z</time>
      </trkpt>
      <trkpt lat="47.74399" lon="-3.49439">
        <ele>5.37</ele>
        <time>2020-07-10T09:48:23Z</time>
      </trkpt>
      <trkpt lat="47.74402" lon="-3.49435">
        <ele>5.56</ele>
        <time>2020-07-10T09:48:24Z</time>
      </trkpt>
      <trkpt lat="47.74406" lon="-3.49432">
        <ele>5.81</ele>
        <time>2020-07-10T09:48:25Z</time>
      </trkpt>
      <trkpt lat="47.7441" lon="-3.49429">
        <ele>6.09</ele>
        <time>2020-07-10T09:48:26Z</time>
      </trkpt>
      <trkpt lat="47.74414" lon="-3.49425">
        <ele>6.42</ele>
        <time>2020-07-10T09:48:27Z</time>
      </trkpt>
      <trkpt lat="47.74419" lon="-3.49422">
        <ele>6.75</ele>
        <time>2020-07-10T09:48:28Z</time>
      </trkpt>
      <trkpt lat="47.74423" lon="-3.49419">
        <ele>7.03</ele>
        <time>2020-07-10T09:48:29Z</time>
      </trkpt>
      <trkpt lat="47.74427" lon="-3.49417">
        <ele>7.27</ele>
        <time>2020-07-10T09:48:30Z</time>
      </trkpt>
      <trkpt lat="47.74431" lon="-3.49415">
        <ele>7.45</ele>
        <time>2020-07-10T09:48:31Z</time>
      </trkpt>
      <trkpt lat="47.74435" lon="-3.49412">
        <ele>7.6</ele>
        <time>2020-07-10T09:48:32Z</time>
      </trkpt>
      <trkpt lat="47.74439" lon="-3.49409">
        <ele>7.74</ele>
        <time>2020-07-10T09:48:33Z</time>
      </trkpt>
      <trkpt lat="47.74443" lon="-3.49405">
        <ele>7.88</ele>
        <time>2020-07-10T09:48:34Z</time>
      </trkpt>
      <trkpt lat="47.74447" lon="-3.49402">
        <ele>8.02</ele>
        <time>2020-07-10T09:48:35Z</time>
      </trkpt>
      <trkpt lat="47.74451" lon="-3.49399">
        <ele>8.17</ele>
        <time>2020-07-10T09:48:36Z</time>
      </trkpt>
      <trkpt lat="47.74455" lon="-3.49396">
        <ele>8.32</ele>
        <time>2020-07-10T09:48:37Z</time>
      </trkpt>
      <trkpt lat="47.74459" lon="-3.49393">
        <ele>8.46</ele>
        <time>2020-07-10T09:48:38Z</time>
      </trkpt>
      <trkpt lat="47.74463" lon="-3.4939">
        <ele>8.61</ele>
        <time>2020-07-10T09:48:39Z</time>
      </trkpt>
      <trkpt lat="47.74467" lon="-3.49387">
        <ele>8.74</ele>
        <time>2020-07-10T09:48:40Z</time>
      </trkpt>
      <trkpt lat="47.7447" lon="-3.49384">
        <ele>8.87</ele>
        <time>2020-07-10T09:48:41Z</time>
      </trkpt>
      <trkpt lat="47.74474" lon="-3.49382">
        <ele>9.01</ele>
        <time>2020-07-10T09:48:42Z</time>
      </trkpt>
      <trkpt lat="47.74478" lon="-3.49379">
        <ele>9.15</ele>
        <time>2020-07-10T09:48:43Z</time>
      </trkpt>
      <trkpt lat="47.74482" lon="-3.49376">
        <ele>9.28</ele>
        <time>2020-07-10T09:48:44Z</time>
      </trkpt>
      <trkpt lat="47.74485" lon="-3.49373">
        <ele>9.42</ele>
        <time>2020-07-10T09:48:45Z</time>
      </trkpt>
      <trkpt lat="47.74489" lon="-3.4937">
        <ele>9.53</ele>
        <time>2020-07-10T09:48:46Z</time>
      </trkpt>
      <trkpt lat="47.74492" lon="-3.49368">
        <ele>9.65</ele>
        <time>2020-07-10T09:48:47Z</time>
      </trkpt>
      <trkpt lat="47.74494" lon="-3.49365">
        <ele>9.74</ele>
        <time>2020-07-10T09:48:48Z</time>
      </trkpt>
      <trkpt lat="47.74496" lon="-3.49363">
        <ele>9.83</ele>
        <time>2020-07-10T09:48:49Z</time>
      </trkpt>
      <trkpt lat="47.74498" lon="-3.49361">
        <ele>9.9</ele>
        <time>2020-07-10T09:48:50Z</time>
      </trkpt>
      <trkpt lat="47.74499" lon="-3.49359">
        <ele>9.95</ele>
        <time>2020-07-10T09:48:51Z</time>
      </trkpt>
      <trkpt lat="47.745" lon="-3.49359">
        <ele>9.98</ele>
        <time>2020-07-10T09:48:52Z</time>
      </trkpt>
      <trkpt lat="47.745" lon="-3.49359">
        <ele>9.99</ele>
        <time>2020-07-10T09:48:53Z</time>
      </trkpt>
      <trkpt lat="47.745" lon="-3.49359">
        <ele>9.99</ele>
        <time>2020-07-10T09:48:54Z</time>
      </trkpt>
      <trkpt lat="47.745" lon="-3.49359">
        <ele>9.99</ele>
        <time>2020-07-10T09:48:55Z</time>
      </trkpt>
      <trkpt lat="47.745" lon="-3.49359">
        <ele>9.99</ele>
        <time>2020-07-10T09:48:56Z</time>
      </trkpt>
      <trkpt lat="47.745" lon="-3.49359">
        <ele>9.99</ele>
        <time>2020-07-10T09:48:57Z</time>
      </trkpt>
      <trkpt lat="47.745" lon="-3.49359">
        <ele>9.99</ele>
        <time>2020-07-10T09:48:58Z</time>
      </trkpt>
      <trkpt lat="47.745" lon="-3.49356">
        <ele>10</ele>
        <time>2020-07-10T09:48:59Z</time>
      </trkpt>
      <trkpt lat="47.74501" lon="-3.49354">
        <ele>10.02</ele>
        <time>2020-07-10T09:49:00Z</time>
      </trkpt>
      <trkpt lat="47.74502" lon="-3.4935">
        <ele>10.05</ele>
        <time>2020-07-10T09:49:01Z</time>
      </trkpt>
      <trkpt lat="47.74503" lon="-3.49345">
        <ele>10.08</ele>
        <time>2020-07-10T09:49:02Z</time>
      </trkpt>
      <trkpt lat="47.74503" lon="-3.4934">
        <ele>10.11</ele>
        <time>2020-07-10T09:49:03Z</time>
      </trkpt>
      <trkpt lat="47.74504" lon="-3.49334">
        <ele>10.14</ele>
        <time>2020-07-10T09:49:04Z</time>
      </trkpt>
      <trkpt lat="47.74505" lon="-3.49329">
        <ele>10.29</ele>
        <time>2020-07-10T09:49:05Z</time>
      </trkpt>
      <trkpt lat="47.74506" lon="-3.49323">
        <ele>10.5</ele>
        <time>2020-07-10T09:49:06Z</time>
      </trkpt>
      <trkpt lat="47.74507" lon="-3.49317">
        <ele>10.74</ele>
        <time>2020-07-10T09:49:07Z</time>
      </trkpt>
      <trkpt lat="47.74509" lon="-3.49311">
        <ele>11</ele>
        <time>2020-07-10T09:49:08Z</time>
      </trkpt>
      <trkpt lat="47.74509" lon="-3.49305">
        <ele>11.24</ele>
        <time>2020-07-10T09:49:09Z</time>
      </trkpt>
      <trkpt lat="47.7451" lon="-3.49299">
        <ele>11.34</ele>
        <time>2020-07-10T09:49:10Z</time>
      </trkpt>
      <trkpt lat="47.74512" lon="-3.49292">
        <ele>11.4</ele>
        <time>2020-07-10T09:49:11Z</time>
      </trkpt>
      <trkpt lat="47.74514" lon="-3.49286">
        <ele>11.47</ele>
        <time>2020-07-10T09:49:12Z</time>
      </trkpt>
      <trkpt lat="47.74515" lon="-3.4928">
        <ele>11.53</ele>
        <time>2020-07-10T09:49:13Z</time>
      </trkpt>
      <trkpt lat="47.74517" lon="-3.49273">
        <ele>11.54</ele>
        <time>2020-07-10T09:49:14Z</time>
      </trkpt>
      <trkpt lat="47.74519" lon="-3.49267">
        <ele>11.54</ele>
        <time>2020-07-10T09:49:15Z</time>
      </trkpt>
      <trkpt lat="47.7452" lon="-3.4926">
        <ele>11.54</ele>
        <time>2020-07-10T09:49:16Z</time>
      </trkpt>
      <trkpt lat="47.74521" lon="-3.49254">
        <ele>11.56</ele>
        <time>2020-07-10T09:49:17Z</time>
      </trkpt>
      <trkpt lat="47.74523" lon="-3.49248">
        <ele>11.6</ele>
        <time>2020-07-10T09:49:18Z</time>
      </trkpt>
      <trkpt lat="47.74523" lon="-3.49241">
        <ele>11.66</ele>
        <time>2020-07-10T09:49:19Z</time>
      </trkpt>
      <trkpt lat="47.74524" lon="-3.49234">
        <ele>11.72</ele>
        <time>2020-07-10T09:49:20Z</time>
      </trkpt>
      <trkpt lat="47.74526" lon="-3.49228">
        <ele>11.8</ele>
        <time>2020-07-10T09:49:21Z</time>
      </trkpt>
      <trkpt lat="47.74527" lon="-3.49222">
        <ele>11.88</ele>
        <time>2020-07-10T09:49:22Z</time>
      </trkpt>
      <trkpt lat="47.74528" lon="-3.49216">
        <ele>11.99</ele>
        <time>2020-07-10T09:49:23Z</time>
      </trkpt>
      <trkpt lat="47.74529" lon="-3.49209">
        <ele>12.12</ele>
        <time>2020-07-10T09:49:24Z</time>
      </trkpt>
      <trkpt lat="47.74531" lon="-3.49203">
        <ele>12.31</ele>
        <time>2020-07-10T09:49:25Z</time>
      </trkpt>
      <trkpt lat="47.74532" lon="-3.49197">
        <ele>12.53</ele>
        <time>2020-07-10T09:49:26Z</time>
      </trkpt>
      <trkpt lat="47.74534" lon="-3.49191">
        <ele>12.8</ele>
        <time>2020-07-10T09:49:27Z</time>
      </trkpt>
      <trkpt lat="47.74536" lon="-3.49185">
        <ele>13.12</ele>
        <time>2020-07-10T09:49:28Z</time>
      </trkpt>
      <trkpt lat="47.74538" lon="-3.49179">
        <ele>13.46</ele>
        <time>2020-07-10T09:49:29Z</time>
      </trkpt>
      <trkpt lat="47.74539" lon="-3.49172">
        <ele>13.79</ele>
        <time>2020-07-10T09:49:30Z</time>
      </trkpt>
      <trkpt lat="47.7454" lon="-3.49166">
        <ele>14.11</ele>
        <time>2020-07-10T09:49:31Z</time>
      </trkpt>
      <trkpt lat="47.74542" lon="-3.4916">
        <ele>14.57</ele>
        <time>2020-07-10T09:49:32Z</time>
      </trkpt>
      <trkpt lat="47.74543" lon="-3.49154">
        <ele>15.05</ele>
        <time>2020-07-10T09:49:33Z</time>
      </trkpt>
      <trkpt lat="47.74545" lon="-3.49149">
        <ele>15.48</ele>
        <time>2020-07-10T09:49:34Z</time>
      </trkpt>
      <trkpt lat="47.74546" lon="-3.49143">
        <ele>15.87</ele>
        <time>2020-07-10T09:49:35Z</time>
      </trkpt>
      <trkpt lat="47.74546" lon="-3.49137">
        <ele>16.21</ele>
        <time>2020-07-10T09:49:36Z</time>
      </trkpt>
      <trkpt lat="47.74548" lon="-3.49132">
        <ele>16.5</ele>
        <time>2020-07-10T09:49:37Z</time>
      </trkpt>
      <trkpt lat="47.74549" lon="-3.49126">
        <ele>16.76</ele>
        <time>2020-07-10T09:49:38Z</time>
      </trkpt>
      <trkpt lat="47.7455" lon="-3.49119">
        <ele>17.01</ele>
        <time>2020-07-10T09:49:39Z</time>
      </trkpt>
      <trkpt lat="47.74551" lon="-3.49114">
        <ele>17.23</ele>
        <time>2020-07-10T09:49:40Z</time>
      </trkpt>
      <trkpt lat="47.74552" lon="-3.49107">
        <ele>17.51</ele>
        <time>2020-07-10T09:49:41Z</time>
      </trkpt>
      <trkpt lat="47.74553" lon="-3.49102">
        <ele>17.84</ele>
        <time>2020-07-10T09:49:42Z</time>
      </trkpt>
      <trkpt lat="47.74554" lon="-3.49096">
        <ele>18.19</ele>
        <time>2020-07-10T09:49:43Z</time>
      </trkpt>
      <trkpt lat="47.74555" lon="-3.49091">
        <ele>18.56</ele>
        <time>2020-07-10T09:49:44Z</time>
      </trkpt>
      <trkpt lat="47.74556" lon="-3.49085">
        <ele>18.87</ele>
        <time>2020-07-10T09:49:45Z</time>
      </trkpt>
      <trkpt lat="47.74557" lon="-3.4908">
        <ele>19.15</ele>
        <time>2020-07-10T09:49:46Z</time>
      </trkpt>
      <trkpt lat="47.74557" lon="-3.49075">
        <ele>19.35</ele>
        <time>2020-07-10T09:49:47Z</time>
      </trkpt>
      <trkpt lat="47.74557" lon="-3.4907">
        <ele>19.57</ele>
        <time>2020-07-10T09:49:48Z</time>
      </trkpt>
      <trkpt lat="47.74558" lon="-3.49065">
        <ele>19.8</ele>
        <time>2020-07-10T09:49:49Z</time>
      </trkpt>
      <trkpt lat="47.74558" lon="-3.4906">
        <ele>20.03</ele>
        <time>2020-07-10T09:49:50Z</time>
      </trkpt>
      <trkpt lat="47.74559" lon="-3.49055">
        <ele>20.27</ele>
        <time>2020-07-10T09:49:51Z</time>
      </trkpt>
      <trkpt lat="47.74559" lon="-3.49049">
        <ele>20.52</ele>
        <time>2020-07-10T09:49:52Z</time>
      </trkpt>
      <trkpt lat="47.74559" lon="-3.49044">
        <ele>20.74</ele>
        <time>2020-07-10T09:49:53Z</time>
      </trkpt>
      <trkpt lat="47.74559" lon="-3.49039">
        <ele>20.87</ele>
        <time>2020-07-10T09:49:54Z</time>
      </trkpt>
      <trkpt lat="47.74558" lon="-3.49033">
        <ele>21.04</ele>
        <time>2020-07-10T09:49:55Z</time>
      </trkpt>
      <trkpt lat="47.74557" lon="-3.49028">
        <ele>21.14</ele>
        <time>2020-07-10T09:49:56Z</time>
      </trkpt>
      <trkpt lat="47.74555" lon="-3.49026">
        <ele>21.07</ele>
        <time>2020-07-10T09:49:57Z</time>
      </trkpt>
      <trkpt lat="47.74553" lon="-3.49025">
        <ele>20.9</ele>
        <time>2020-07-10T09:49:58Z</time>
      </trkpt>
      <trkpt lat="47.7455" lon="-3.49024">
        <ele>20.64</ele>
        <time>2020-07-10T09:49:59Z</time>
      </trkpt>
      <trkpt lat="47.74547" lon="-3.49023">
        <ele>20.33</ele>
        <time>2020-07-10T09:50:00Z</time>
      </trkpt>
      <trkpt lat="47.74543" lon="-3.49022">
        <ele>19.96</ele>
        <time>2020-07-10T09:50:01Z</time>
      </trkpt>
      <trkpt lat="47.7454" lon="-3.49022">
        <ele>19.56</ele>
        <time>2020-07-10T09:50:02Z</time>
      </trkpt>
      <trkpt lat="47.74536" lon="-3.49021">
        <ele>19.17</ele>
        <time>2020-07-10T09:50:03Z</time>
      </trkpt>
      <trkpt lat="47.74532" lon="-3.49019">
        <ele>18.73</ele>
        <time>2020-07-10T09:50:04Z</time>
      </trkpt>
      <trkpt lat="47.74529" lon="-3.49018">
        <ele>18.29</ele>
        <time>2020-07-10T09:50:05Z</time>
      </trkpt>
      <trkpt lat="47.74525" lon="-3.49018">
        <ele>17.74</ele>
        <time>2020-07-10T09:50:06Z</time>
      </trkpt>
      <trkpt lat="47.7452" lon="-3.49016">
        <ele>17.04</ele>
        <time>2020-07-10T09:50:07Z</time>
      </trkpt>
      <trkpt lat="47.74515" lon="-3.49017">
        <ele>16.19</ele>
        <time>2020-07-10T09:50:08Z</time>
      </trkpt>
      <trkpt lat="47.7451" lon="-3.49016">
        <ele>15.37</ele>
        <time>2020-07-10T09:50:09Z</time>
      </trkpt>
      <trkpt lat="47.74504" lon="-3.49014">
        <ele>14.48</ele>
        <time>2020-07-10T09:50:10Z</time>
      </trkpt>
      <trkpt lat="47.745" lon="-3.49013">
        <ele>13.8</ele>
        <time>2020-07-10T09:50:11Z</time>
      </trkpt>
      <trkpt lat="47.74497" lon="-3.49014">
        <ele>13.07</ele>
        <time>2020-07-10T09:50:12Z</time>
      </trkpt>
      <trkpt lat="47.74494" lon="-3.49013">
        <ele>12.44</ele>
        <time>2020-07-10T09:50:13Z</time>
      </trkpt>
      <trkpt lat="47.74491" lon="-3.49012">
        <ele>11.86</ele>
        <time>2020-07-10T09:50:14Z</time>
      </trkpt>
      <trkpt lat="47.7449" lon="-3.4901">
        <ele>11.6</ele>
        <time>2020-07-10T09:50:15Z</time>
      </trkpt>
      <trkpt lat="47.74489" lon="-3.49008">
        <ele>11.36</ele>
        <time>2020-07-10T09:50:16Z</time>
      </trkpt>
      <trkpt lat="47.74487" lon="-3.49007">
        <ele>11.07</ele>
        <time>2020-07-10T09:50:17Z</time>
      </trkpt>
      <trkpt lat="47.74486" lon="-3.49005">
        <ele>10.89</ele>
        <time>2020-07-10T09:50:18Z</time>
      </trkpt>
      <trkpt lat="47.74485" lon="-3.49001">
        <ele>10.82</ele>
        <time>2020-07-10T09:50:19Z</time>
      </trkpt>
      <trkpt lat="47.74485" lon="-3.48997">
        <ele>10.85</ele>
        <time>2020-07-10T09:50:20Z</time>
      </trkpt>
      <trkpt lat="47.74483" lon="-3.48993">
        <ele>10.71</ele>
        <time>2020-07-10T09:50:21Z</time>
      </trkpt>
      <trkpt lat="47.74482" lon="-3.4899">
        <ele>10.71</ele>
        <time>2020-07-10T09:50:22Z</time>
      </trkpt>
      <trkpt lat="47.74482" lon="-3.48987">
        <ele>10.8</ele>
        <time>2020-07-10T09:50:23Z</time>
      </trkpt>
      <trkpt lat="47.74482" lon="-3.48984">
        <ele>10.95</ele>
        <time>2020-07-10T09:50:24Z</time>
      </trkpt>
      <trkpt lat="47.74481" lon="-3.48981">
        <ele>11.09</ele>
        <time>2020-07-10T09:50:25Z</time>
      </trkpt>
      <trkpt lat="47.74481" lon="-3.48978">
        <ele>11.22</ele>
        <time>2020-07-10T09:50:26Z</time>
      </trkpt>
      <trkpt lat="47.74481" lon="-3.48974">
        <ele>11.4</ele>
        <time>2020-07-10T09:50:27Z</time>
      </trkpt>
      <trkpt lat="47.74481" lon="-3.4897">
        <ele>11.56</ele>
        <time>2020-07-10T09:50:28Z</time>
      </trkpt>
      <trkpt lat="47.74481" lon="-3.48966">
        <ele>11.74</ele>
        <time>2020-07-10T09:50:29Z</time>
      </trkpt>
      <trkpt lat="47.74481" lon="-3.48962">
        <ele>11.96</ele>
        <time>2020-07-10T09:50:30Z</time>
      </trkpt>
      <trkpt lat="47.74481" lon="-3.48957">
        <ele>12.13</ele>
        <time>2020-07-10T09:50:31Z</time>
      </trkpt>
      <trkpt lat="47.74481" lon="-3.48953">
        <ele>12.33</ele>
        <time>2020-07-10T09:50:32Z</time>
      </trkpt>
      <trkpt lat="47.74481" lon="-3.48949">
        <ele>12.61</ele>
        <time>2020-07-10T09:50:33Z</time>
      </trkpt>
      <trkpt lat="47.74482" lon="-3.48944">
        <ele>12.96</ele>
        <time>2020-07-10T09:50:34Z</time>
      </trkpt>
      <trkpt lat="47.74483" lon="-3.48941">
        <ele>13.31</ele>
        <time>2020-07-10T09:50:35Z</time>
      </trkpt>
      <trkpt lat="47.74483" lon="-3.48937">
        <ele>13.69</ele>
        <time>2020-07-10T09:50:36Z</time>
      </trkpt>
      <trkpt lat="47.74484" lon="-3.48934">
        <ele>13.99</ele>
        <time>2020-07-10T09:50:37Z</time>
      </trkpt>
      <trkpt lat="47.74485" lon="-3.48931">
        <ele>14.35</ele>
        <time>2020-07-10T09:50:38Z</time>
      </trkpt>
      <trkpt lat="47.74486" lon="-3.48929">
        <ele>14.69</ele>
        <time>2020-07-10T09:50:39Z</time>
      </trkpt>
      <trkpt lat="47.74486" lon="-3.48927">
        <ele>14.9</ele>
        <time>2020-07-10T09:50:40Z</time>
      </trkpt>
      <trkpt lat="47.74487" lon="-3.48925">
        <ele>15.11</ele>
        <time>2020-07-10T09:50:41Z</time>
      </trkpt>
      <trkpt lat="47.74488" lon="-3.48923">
        <ele>15.39</ele>
        <time>2020-07-10T09:50:42Z</time>
      </trkpt>
      <trkpt lat="47.74489" lon="-3.4892">
        <ele>15.7</ele>
        <time>2020-07-10T09:50:43Z</time>
      </trkpt>
      <trkpt lat="47.7449" lon="-3.48918">
        <ele>16.02</ele>
        <time>2020-07-10T09:50:44Z</time>
      </trkpt>
      <trkpt lat="47.74491" lon="-3.48915">
        <ele>16.3</ele>
        <time>2020-07-10T09:50:45Z</time>
      </trkpt>
      <trkpt lat="47.74492" lon="-3.48913">
        <ele>16.61</ele>
        <time>2020-07-10T09:50:46Z</time>
      </trkpt>
      <trkpt lat="47.74493" lon="-3.48909">
        <ele>16.87</ele>
        <time>2020-07-10T09:50:47Z</time>
      </trkpt>
      <trkpt lat="47.74494" lon="-3.48905">
        <ele>17.16</ele>
        <time>2020-07-10T09:50:48Z</time>
      </trkpt>
      <trkpt lat="47.74494" lon="-3.48901">
        <ele>17.39</ele>
        <time>2020-07-10T09:50:49Z</time>
      </trkpt>
      <trkpt lat="47.74494" lon="-3.48897">
        <ele>17.58</ele>
        <time>2020-07-10T09:50:50Z</time>
      </trkpt>
      <trkpt lat="47.74494" lon="-3.48892">
        <ele>17.7</ele>
        <time>2020-07-10T09:50:51Z</time>
      </trkpt>
      <trkpt lat="47.74492" lon="-3.48887">
        <ele>17.69</ele>
        <time>2020-07-10T09:50:52Z</time>
      </trkpt>
      <trkpt lat="47.7449" lon="-3.48881">
        <ele>17.51</ele>
        <time>2020-07-10T09:50:53Z</time>
      </trkpt>
      <trkpt lat="47.74488" lon="-3.48878">
        <ele>17.2</ele>
        <time>2020-07-10T09:50:54Z</time>
      </trkpt>
      <trkpt lat="47.74485" lon="-3.48874">
        <ele>16.72</ele>
        <time>2020-07-10T09:50:55Z</time>
      </trkpt>
      <trkpt lat="47.74482" lon="-3.4887">
        <ele>16.17</ele>
        <time>2020-07-10T09:50:56Z</time>
      </trkpt>
      <trkpt lat="47.74478" lon="-3.48865">
        <ele>15.55</ele>
        <time>2020-07-10T09:50:57Z</time>
      </trkpt>
      <trkpt lat="47.74474" lon="-3.48861">
        <ele>14.79</ele>
        <time>2020-07-10T09:50:58Z</time>
      </trkpt>
      <trkpt lat="47.7447" lon="-3.48856">
        <ele>14.15</ele>
        <time>2020-07-10T09:50:59Z</time>
      </trkpt>
      <trkpt lat="47.74466" lon="-3.4885">
        <ele>13.66</ele>
        <time>2020-07-10T09:51:00Z</time>
      </trkpt>
      <trkpt lat="47.74461" lon="-3.48845">
        <ele>13.16</ele>
        <time>2020-07-10T09:51:01Z</time>
      </trkpt>
      <trkpt lat="47.74455" lon="-3.4884">
        <ele>12.58</ele>
        <time>2020-07-10T09:51:02Z</time>
      </trkpt>
      <trkpt lat="47.7445" lon="-3.48837">
        <ele>11.97</ele>
        <time>2020-07-10T09:51:03Z</time>
      </trkpt>
      <trkpt lat="47.74446" lon="-3.48835">
        <ele>11.39</ele>
        <time>2020-07-10T09:51:04Z</time>
      </trkpt>
      <trkpt lat="47.74443" lon="-3.48831">
        <ele>11.04</ele>
        <time>2020-07-10T09:51:05Z</time>
      </trkpt>
      <trkpt lat="47.74442" lon="-3.48827">
        <ele>10.89</ele>
        <time>2020-07-10T09:51:06Z</time>
      </trkpt>
      <trkpt lat="47.74442" lon="-3.48823">
        <ele>10.83</ele>
        <time>2020-07-10T09:51:07Z</time>
      </trkpt>
      <trkpt lat="47.7444" lon="-3.4882">
        <ele>10.7</ele>
        <time>2020-07-10T09:51:08Z</time>
      </trkpt>
      <trkpt lat="47.74436" lon="-3.48819">
        <ele>10.49</ele>
        <time>2020-07-10T09:51:09Z</time>
      </trkpt>
      <trkpt lat="47.74432" lon="-3.48819">
        <ele>10.21</ele>
        <time>2020-07-10T09:51:10Z</time>
      </trkpt>
      <trkpt lat="47.74427" lon="-3.48822">
        <ele>9.88</ele>
        <time>2020-07-10T09:51:11Z</time>
      </trkpt>
      <trkpt lat="47.74422" lon="-3.48823">
        <ele>9.53</ele>
        <time>2020-07-10T09:51:12Z</time>
      </trkpt>
      <trkpt lat="47.74417" lon="-3.48825">
        <ele>9.17</ele>
        <time>2020-07-10T09:51:13Z</time>
      </trkpt>
      <trkpt lat="47.74412" lon="-3.48827">
        <ele>9.29</ele>
        <time>2020-07-10T09:51:14Z</time>
      </trkpt>
      <trkpt lat="47.74407" lon="-3.48829">
        <ele>9.58</ele>
        <time>2020-07-10T09:51:15Z</time>
      </trkpt>
      <trkpt lat="47.74401" lon="-3.48831">
        <ele>9.94</ele>
        <time>2020-07-10T09:51:16Z</time>
      </trkpt>
      <trkpt lat="47.74397" lon="-3.48832">
        <ele>10.29</ele>
        <time>2020-07-10T09:51:17Z</time>
      </trkpt>
      <trkpt lat="47.74392" lon="-3.48835">
        <ele>10.57</ele>
        <time>2020-07-10T09:51:18Z</time>
      </trkpt>
      <trkpt lat="47.74388" lon="-3.48836">
        <ele>10.84</ele>
        <time>2020-07-10T09:51:19Z</time>
      </trkpt>
      <trkpt lat="47.74384" lon="-3.48838">
        <ele>11.24</ele>
        <time>2020-07-10T09:51:20Z</time>
      </trkpt>
      <trkpt lat="47.74381" lon="-3.48839">
        <ele>11.65</ele>
        <time>2020-07-10T09:51:21Z</time>
      </trkpt>
      <trkpt lat="47.74378" lon="-3.48838">
        <ele>12.06</ele>
        <time>2020-07-10T09:51:22Z</time>
      </trkpt>
      <trkpt lat="47.74376" lon="-3.48837">
        <ele>12.47</ele>
        <time>2020-07-10T09:51:23Z</time>
      </trkpt>
      <trkpt lat="47.74375" lon="-3.48833">
        <ele>12.83</ele>
        <time>2020-07-10T09:51:24Z</time>
      </trkpt>
      <trkpt lat="47.74374" lon="-3.48829">
        <ele>13.01</ele>
        <time>2020-07-10T09:51:25Z</time>
      </trkpt>
      <trkpt lat="47.74373" lon="-3.48825">
        <ele>13.19</ele>
        <time>2020-07-10T09:51:26Z</time>
      </trkpt>
      <trkpt lat="47.74371" lon="-3.48824">
        <ele>13.46</ele>
        <time>2020-07-10T09:51:27Z</time>
      </trkpt>
      <trkpt lat="47.74368" lon="-3.48824">
        <ele>13.81</ele>
        <time>2020-07-10T09:51:28Z</time>
      </trkpt>
      <trkpt lat="47.74366" lon="-3.48824">
        <ele>14.18</ele>
        <time>2020-07-10T09:51:29Z</time>
      </trkpt>
      <trkpt lat="47.74363" lon="-3.48825">
        <ele>14.55</ele>
        <time>2020-07-10T09:51:30Z</time>
      </trkpt>
      <trkpt lat="47.74361" lon="-3.48825">
        <ele>14.86</ele>
        <time>2020-07-10T09:51:31Z</time>
      </trkpt>
      <trkpt lat="47.7436" lon="-3.48823">
        <ele>14.9</ele>
        <time>2020-07-10T09:51:32Z</time>
      </trkpt>
      <trkpt lat="47.74358" lon="-3.48822">
        <ele>14.85</ele>
        <time>2020-07-10T09:51:33Z</time>
      </trkpt>
      <trkpt lat="47.74356" lon="-3.48821">
        <ele>14.75</ele>
        <time>2020-07-10T09:51:34Z</time>
      </trkpt>
      <trkpt lat="47.74353" lon="-3.4882">
        <ele>14.63</ele>
        <time>2020-07-10T09:51:35Z</time>
      </trkpt>
      <trkpt lat="47.74351" lon="-3.48819">
        <ele>14.52</ele>
        <time>2020-07-10T09:51:36Z</time>
      </trkpt>
      <trkpt lat="47.74348" lon="-3.48817">
        <ele>14.39</ele>
        <time>2020-07-10T09:51:37Z</time>
      </trkpt>
      <trkpt lat="47.74345" lon="-3.48815">
        <ele>14.29</ele>
        <time>2020-07-10T09:51:38Z</time>
      </trkpt>
      <trkpt lat="47.74344" lon="-3.48812">
        <ele>14.25</ele>
        <time>2020-07-10T09:51:39Z</time>
      </trkpt>
      <trkpt lat="47.74342" lon="-3.48809">
        <ele>14.24</ele>
        <time>2020-07-10T09:51:40Z</time>
      </trkpt>
      <trkpt lat="47.74342" lon="-3.48806">
        <ele>14.28</ele>
        <time>2020-07-10T09:51:41Z</time>
      </trkpt>
      <trkpt lat="47.74342" lon="-3.48803">
        <ele>14.12</ele>
        <time>2020-07-10T09:51:42Z</time>
      </trkpt>
      <trkpt lat="47.74343" lon="-3.48801">
        <ele>13.88</ele>
        <time>2020-07-10T09:51:43Z</time>
      </trkpt>
      <trkpt lat="47.74344" lon="-3.48798">
        <ele>13.61</ele>
        <time>2020-07-10T09:51:44Z</time>
      </trkpt>
      <trkpt lat="47.74344" lon="-3.48795">
        <ele>13.26</ele>
        <time>2020-07-10T09:51:45Z</time>
      </trkpt>
      <trkpt lat="47.74345" lon="-3.48792">
        <ele>12.87</ele>
        <time>2020-07-10T09:51:46Z</time>
      </trkpt>
      <trkpt lat="47.74345" lon="-3.48788">
        <ele>12.44</ele>
        <time>2020-07-10T09:51:47Z</time>
      </trkpt>
      <trkpt lat="47.74346" lon="-3.48784">
        <ele>11.99</ele>
        <time>2020-07-10T09:51:48Z</time>
      </trkpt>
      <trkpt lat="47.74347" lon="-3.4878">
        <ele>11.53</ele>
        <time>2020-07-10T09:51:49Z</time>
      </trkpt>
      <trkpt lat="47.74348" lon="-3.48777">
        <ele>11.01</ele>
        <time>2020-07-10T09:51:50Z</time>
      </trkpt>
      <trkpt lat="47.74349" lon="-3.48773">
        <ele>10.22</ele>
        <time>2020-07-10T09:51:51Z</time>
      </trkpt>
      <trkpt lat="47.74349" lon="-3.48769">
        <ele>9.4</ele>
        <time>2020-07-10T09:51:52Z</time>
      </trkpt>
      <trkpt lat="47.74351" lon="-3.48766">
        <ele>8.69</ele>
        <time>2020-07-10T09:51:53Z</time>
      </trkpt>
      <trkpt lat="47.74354" lon="-3.48765">
        <ele>8.21</ele>
        <time>2020-07-10T09:51:54Z</time>
      </trkpt>
      <trkpt lat="47.74357" lon="-3.48764">
        <ele>8</ele>
        <time>2020-07-10T09:51:55Z</time>
      </trkpt>
      <trkpt lat="47.7436" lon="-3.48764">
        <ele>8.01</ele>
        <time>2020-07-10T09:51:56Z</time>
      </trkpt>
      <trkpt lat="47.74363" lon="-3.48766">
        <ele>8.22</ele>
        <time>2020-07-10T09:51:57Z</time>
      </trkpt>
      <trkpt lat="47.74366" lon="-3.48767">
        <ele>8.37</ele>
        <time>2020-07-10T09:51:58Z</time>
      </trkpt>
      <trkpt lat="47.74369" lon="-3.48768">
        <ele>8.46</ele>
        <time>2020-07-10T09:51:59Z</time>
      </trkpt>
      <trkpt lat="47.74372" lon="-3.48769">
        <ele>8.52</ele>
        <time>2020-07-10T09:52:00Z</time>
      </trkpt>
      <trkpt lat="47.74375" lon="-3.48769">
        <ele>8.51</ele>
        <time>2020-07-10T09:52:01Z</time>
      </trkpt>
      <trkpt lat="47.74379" lon="-3.48769">
        <ele>8.3</ele>
        <time>2020-07-10T09:52:02Z</time>
      </trkpt>
      <trkpt lat="47.74385" lon="-3.48766">
        <ele>7.69</ele>
        <time>2020-07-10T09:52:03Z</time>
      </trkpt>
      <trkpt lat="47.7439" lon="-3.48762">
        <ele>6.99</ele>
        <time>2020-07-10T09:52:04Z</time>
      </trkpt>
      <trkpt lat="47.74395" lon="-3.48758">
        <ele>6.38</ele>
        <time>2020-07-10T09:52:05Z</time>
      </trkpt>
      <trkpt lat="47.74401" lon="-3.48755">
        <ele>5.86</ele>
        <time>2020-07-10T09:52:06Z</time>
      </trkpt>
      <trkpt lat="47.74406" lon="-3.48752">
        <ele>5.42</ele>
        <time>2020-07-10T09:52:07Z</time>
      </trkpt>
      <trkpt lat="47.74412" lon="-3.4875">
        <ele>5.12</ele>
        <time>2020-07-10T09:52:08Z</time>
      </trkpt>
      <trkpt lat="47.74417" lon="-3.48748">
        <ele>4.98</ele>
        <time>2020-07-10T09:52:09Z</time>
      </trkpt>
      <trkpt lat="47.74421" lon="-3.48747">
        <ele>5.09</ele>
        <time>2020-07-10T09:52:10Z</time>
      </trkpt>
      <trkpt lat="47.74425" lon="-3.48746">
        <ele>5.27</ele>
        <time>2020-07-10T09:52:11Z</time>
      </trkpt>
      <trkpt lat="47.74429" lon="-3.48744">
        <ele>5.42</ele>
        <time>2020-07-10T09:52:12Z</time>
      </trkpt>
      <trkpt lat="47.74432" lon="-3.48743">
        <ele>5.54</ele>
        <time>2020-07-10T09:52:13Z</time>
      </trkpt>
      <trkpt lat="47.74436" lon="-3.48742">
        <ele>5.64</ele>
        <time>2020-07-10T09:52:14Z</time>
      </trkpt>
      <trkpt lat="47.7444" lon="-3.4874">
        <ele>5.69</ele>
        <time>2020-07-10T09:52:15Z</time>
      </trkpt>
      <trkpt lat="47.74444" lon="-3.48739">
        <ele>5.72</ele>
        <time>2020-07-10T09:52:16Z</time>
      </trkpt>
      <trkpt lat="47.74447" lon="-3.48737">
        <ele>5.69</ele>
        <time>2020-07-10T09:52:17Z</time>
      </trkpt>
      <trkpt lat="47.74451" lon="-3.48735">
        <ele>5.66</ele>
        <time>2020-07-10T09:52:18Z</time>
      </trkpt>
      <trkpt lat="47.74454" lon="-3.48733">
        <ele>5.59</ele>
        <time>2020-07-10T09:52:19Z</time>
      </trkpt>
      <trkpt lat="47.74458" lon="-3.48731">
        <ele>5.51</ele>
        <time>2020-07-10T09:52:20Z</time>
      </trkpt>
      <trkpt lat="47.74461" lon="-3.48728">
        <ele>5.34</ele>
        <time>2020-07-10T09:52:21Z</time>
      </trkpt>
      <trkpt lat="47.74465" lon="-3.48725">
        <ele>5.16</ele>
        <time>2020-07-10T09:52:22Z</time>
      </trkpt>
      <trkpt lat="47.74469" lon="-3.48723">
        <ele>5.02</ele>
        <time>2020-07-10T09:52:23Z</time>
      </trkpt>
      <trkpt lat="47.74473" lon="-3.4872">
        <ele>4.97</ele>
        <time>2020-07-10T09:52:24Z</time>
      </trkpt>
      <trkpt lat="47.74478" lon="-3.48719">
        <ele>5.02</ele>
        <time>2020-07-10T09:52:25Z</time>
      </trkpt>
      <trkpt lat="47.74482" lon="-3.48717">
        <ele>5.08</ele>
        <time>2020-07-10T09:52:26Z</time>
      </trkpt>
      <trkpt lat="47.74486" lon="-3.48715">
        <ele>5.08</ele>
        <time>2020-07-10T09:52:27Z</time>
      </trkpt>
      <trkpt lat="47.7449" lon="-3.48713">
        <ele>5.07</ele>
        <time>2020-07-10T09:52:28Z</time>
      </trkpt>
      <trkpt lat="47.74493" lon="-3.4871">
        <ele>5.02</ele>
        <time>2020-07-10T09:52:29Z</time>
      </trkpt>
      <trkpt lat="47.74496" lon="-3.48709">
        <ele>4.98</ele>
        <time>2020-07-10T09:52:30Z</time>
      </trkpt>
      <trkpt lat="47.745" lon="-3.48707">
        <ele>4.91</ele>
        <time>2020-07-10T09:52:31Z</time>
      </trkpt>
      <trkpt lat="47.74503" lon="-3.48705">
        <ele>4.93</ele>
        <time>2020-07-10T09:52:32Z</time>
      </trkpt>
      <trkpt lat="47.74506" lon="-3.48704">
        <ele>4.95</ele>
        <time>2020-07-10T09:52:33Z</time>
      </trkpt>
      <trkpt lat="47.74509" lon="-3.48703">
        <ele>4.99</ele>
        <time>2020-07-10T09:52:34Z</time>
      </trkpt>
      <trkpt lat="47.74511" lon="-3.48702">
        <ele>5.01</ele>
        <time>2020-07-10T09:52:35Z</time>
      </trkpt>
      <trkpt lat="47.74514" lon="-3.487">
        <ele>5.01</ele>
        <time>2020-07-10T09:52:36Z</time>
      </trkpt>
      <trkpt lat="47.74516" lon="-3.48699">
        <ele>4.99</ele>
        <time>2020-07-10T09:52:37Z</time>
      </trkpt>
      <trkpt lat="47.74519" lon="-3.48697">
        <ele>4.96</ele>
        <time>2020-07-10T09:52:38Z</time>
      </trkpt>
      <trkpt lat="47.74521" lon="-3.48696">
        <ele>4.93</ele>
        <time>2020-07-10T09:52:39Z</time>
      </trkpt>
      <trkpt lat="47.74523" lon="-3.48695">
        <ele>4.88</ele>
        <time>2020-07-10T09:52:40Z</time>
      </trkpt>
      <trkpt lat="47.74525" lon="-3.48693">
        <ele>4.86</ele>
        <time>2020-07-10T09:52:41Z</time>
      </trkpt>
      <trkpt lat="47.74527" lon="-3.48692">
        <ele>4.87</ele>
        <time>2020-07-10T09:52:42Z</time>
      </trkpt>
      <trkpt lat="47.74529" lon="-3.48691">
        <ele>4.93</ele>
        <time>2020-07-10T09:52:43Z</time>
      </trkpt>
      <trkpt lat="47.7453" lon="-3.4869">
        <ele>5</ele>
        <time>2020-07-10T09:52:44Z</time>
      </trkpt>
      <trkpt lat="47.7453" lon="-3.4869">
        <ele>5.07</ele>
        <time>2020-07-10T09:52:45Z</time>
      </trkpt>
      <trkpt lat="47.7453" lon="-3.48691">
        <ele>5.12</ele>
        <time>2020-07-10T09:52:46Z</time>
      </trkpt>
      <trkpt lat="47.74531" lon="-3.48691">
        <ele>5.19</ele>
        <time>2020-07-10T09:52:47Z</time>
      </trkpt>
      <trkpt lat="47.74531" lon="-3.48691">
        <ele>5.21</ele>
        <time>2020-07-10T09:52:48Z</time>
      </trkpt>
      <trkpt lat="47.74532" lon="-3.48695">
        <ele>5.41</ele>
        <time>2020-07-10T09:52:49Z</time>
      </trkpt>
      <trkpt lat="47.74533" lon="-3.48696">
        <ele>5.63</ele>
        <time>2020-07-10T09:52:50Z</time>
      </trkpt>
      <trkpt lat="47.74533" lon="-3.48698">
        <ele>5.82</ele>
        <time>2020-07-10T09:52:51Z</time>
      </trkpt>
      <trkpt lat="47.74533" lon="-3.48699">
        <ele>5.97</ele>
        <time>2020-07-10T09:52:52Z</time>
      </trkpt>
      <trkpt lat="47.74533" lon="-3.487">
        <ele>6.17</ele>
        <time>2020-07-10T09:52:53Z</time>
      </trkpt>
      <trkpt lat="47.74534" lon="-3.48702">
        <ele>6.41</ele>
        <time>2020-07-10T09:52:54Z</time>
      </trkpt>
      <trkpt lat="47.74534" lon="-3.48703">
        <ele>6.59</ele>
        <time>2020-07-10T09:52:55Z</time>
      </trkpt>
      <trkpt lat="47.74534" lon="-3.48704">
        <ele>6.71</ele>
        <time>2020-07-10T09:52:56Z</time>
      </trkpt>
      <trkpt lat="47.74535" lon="-3.48706">
        <ele>6.98</ele>
        <time>2020-07-10T09:52:57Z</time>
      </trkpt>
      <trkpt lat="47.74535" lon="-3.48708">
        <ele>7.3</ele>
        <time>2020-07-10T09:52:58Z</time>
      </trkpt>
      <trkpt lat="47.74536" lon="-3.4871">
        <ele>7.57</ele>
        <time>2020-07-10T09:52:59Z</time>
      </trkpt>
      <trkpt lat="47.74536" lon="-3.48711">
        <ele>7.84</ele>
        <time>2020-07-10T09:53:00Z</time>
      </trkpt>
      <trkpt lat="47.74537" lon="-3.48713">
        <ele>8.12</ele>
        <time>2020-07-10T09:53:01Z</time>
      </trkpt>
      <trkpt lat="47.74538" lon="-3.48714">
        <ele>8.37</ele>
        <time>2020-07-10T09:53:02Z</time>
      </trkpt>
      <trkpt lat="47.74538" lon="-3.48716">
        <ele>8.66</ele>
        <time>2020-07-10T09:53:03Z</time>
      </trkpt>
      <trkpt lat="47.74539" lon="-3.48719">
        <ele>9</ele>
        <time>2020-07-10T09:53:04Z</time>
      </trkpt>
      <trkpt lat="47.7454" lon="-3.48721">
        <ele>9.42</ele>
        <time>2020-07-10T09:53:05Z</time>
      </trkpt>
      <trkpt lat="47.74541" lon="-3.48723">
        <ele>9.78</ele>
        <time>2020-07-10T09:53:06Z</time>
      </trkpt>
      <trkpt lat="47.74542" lon="-3.48724">
        <ele>10.15</ele>
        <time>2020-07-10T09:53:07Z</time>
      </trkpt>
      <trkpt lat="47.74542" lon="-3.48726">
        <ele>10.52</ele>
        <time>2020-07-10T09:53:08Z</time>
      </trkpt>
      <trkpt lat="47.74543" lon="-3.48727">
        <ele>10.9</ele>
        <time>2020-07-10T09:53:09Z</time>
      </trkpt>
      <trkpt lat="47.74543" lon="-3.48729">
        <ele>11.23</ele>
        <time>2020-07-10T09:53:10Z</time>
      </trkpt>
      <trkpt lat="47.74544" lon="-3.4873">
        <ele>11.49</ele>
        <time>2020-07-10T09:53:11Z</time>
      </trkpt>
      <trkpt lat="47.74544" lon="-3.48732">
        <ele>11.74</ele>
        <time>2020-07-10T09:53:12Z</time>
      </trkpt>
      <trkpt lat="47.74544" lon="-3.48734">
        <ele>12.07</ele>
        <time>2020-07-10T09:53:13Z</time>
      </trkpt>
      <trkpt lat="47.74544" lon="-3.48736">
        <ele>12.4</ele>
        <time>2020-07-10T09:53:14Z</time>
      </trkpt>
      <trkpt lat="47.74544" lon="-3.48738">
        <ele>12.74</ele>
        <time>2020-07-10T09:53:15Z</time>
      </trkpt>
      <trkpt lat="47.74545" lon="-3.4874">
        <ele>13.13</ele>
        <time>2020-07-10T09:53:16Z</time>
      </trkpt>
      <trkpt lat="47.74544" lon="-3.48743">
        <ele>13.48</ele>
        <time>2020-07-10T09:53:17Z</time>
      </trkpt>
      <trkpt lat="47.74544" lon="-3.48745">
        <ele>13.84</ele>
        <time>2020-07-10T09:53:18Z</time>
      </trkpt>
      <trkpt lat="47.74545" lon="-3.48747">
        <ele>14.19</ele>
        <time>2020-07-10T09:53:19Z</time>
      </trkpt>
      <trkpt lat="47.74546" lon="-3.48748">
        <ele>14.54</ele>
        <time>2020-07-10T09:53:20Z</time>
      </trkpt>
      <trkpt lat="47.74546" lon="-3.4875">
        <ele>14.86</ele>
        <time>2020-07-10T09:53:21Z</time>
      </trkpt>
      <trkpt lat="47.74547" lon="-3.48752">
        <ele>15.26</ele>
        <time>2020-07-10T09:53:22Z</time>
      </trkpt>
      <trkpt lat="47.74548" lon="-3.48754">
        <ele>15.64</ele>
        <time>2020-07-10T09:53:23Z</time>
      </trkpt>
      <trkpt lat="47.74549" lon="-3.48757">
        <ele>16.07</ele>
        <time>2020-07-10T09:53:24Z</time>
      </trkpt>
      <trkpt lat="47.74549" lon="-3.48759">
        <ele>16.44</ele>
        <time>2020-07-10T09:53:25Z</time>
      </trkpt>
      <trkpt lat="47.74549" lon="-3.48761">
        <ele>16.81</ele>
        <time>2020-07-10T09:53:26Z</time>
      </trkpt>
      <trkpt lat="47.7455" lon="-3.48763">
        <ele>17.21</ele>
        <time>2020-07-10T09:53:27Z</time>
      </trkpt>
      <trkpt lat="47.74551" lon="-3.48765">
        <ele>17.57</ele>
        <time>2020-07-10T09:53:28Z</time>
      </trkpt>
      <trkpt lat="47.74551" lon="-3.48767">
        <ele>17.93</ele>
        <time>2020-07-10T09:53:29Z</time>
      </trkpt>
      <trkpt lat="47.74552" lon="-3.48769">
        <ele>18.28</ele>
        <time>2020-07-10T09:53:30Z</time>
      </trkpt>
      <trkpt lat="47.74552" lon="-3.48771">
        <ele>18.6</ele>
        <time>2020-07-10T09:53:31Z</time>
      </trkpt>
      <trkpt lat="47.74552" lon="-3.48772">
        <ele>18.83</ele>
        <time>2020-07-10T09:53:32Z</time>
      </trkpt>
      <trkpt lat="47.74553" lon="-3.48774">
        <ele>19.1</ele>
        <time>2020-07-10T09:53:33Z</time>
      </trkpt>
      <trkpt lat="47.74553" lon="-3.48775">
        <ele>19.36</ele>
        <time>2020-07-10T09:53:34Z</time>
      </trkpt>
      <trkpt lat="47.74555" lon="-3.48776">
        <ele>19.62</ele>
        <time>2020-07-10T09:53:35Z</time>
      </trkpt>
      <trkpt lat="47.74556" lon="-3.48777">
        <ele>19.82</ele>
        <time>2020-07-10T09:53:36Z</time>
      </trkpt>
      <trkpt lat="47.74558" lon="-3.48776">
        <ele>19.88</ele>
        <time>2020-07-10T09:53:37Z</time>
      </trkpt>
      <trkpt lat="47.7456" lon="-3.48775">
        <ele>19.9</ele>
        <time>2020-07-10T09:53:38Z</time>
      </trkpt>
      <trkpt lat="47.74562" lon="-3.48775">
        <ele>19.94</ele>
        <time>2020-07-10T09:53:39Z</time>
      </trkpt>
      <trkpt lat="47.74564" lon="-3.48775">
        <ele>20.12</ele>
        <time>2020-07-10T09:53:40Z</time>
      </trkpt>
      <trkpt lat="47.74566" lon="-3.48776">
        <ele>20.33</ele>
        <time>2020-07-10T09:53:41Z</time>
      </trkpt>
      <trkpt lat="47.74569" lon="-3.48776">
        <ele>20.5</ele>
        <time>2020-07-10T09:53:42Z</time>
      </trkpt>
      <trkpt lat="47.74571" lon="-3.48776">
        <ele>20.69</ele>
        <time>2020-07-10T09:53:43Z</time>
      </trkpt>
      <trkpt lat="47.74573" lon="-3.48775">
        <ele>20.82</ele>
        <time>2020-07-10T09:53:44Z</time>
      </trkpt>
      <trkpt lat="47.74576" lon="-3.48775">
        <ele>20.93</ele>
        <time>2020-07-10T09:53:45Z</time>
      </trkpt>
      <trkpt lat="47.74578" lon="-3.48775">
        <ele>21</ele>
        <time>2020-07-10T09:53:46Z</time>
      </trkpt>
      <trkpt lat="47.7458" lon="-3.48775">
        <ele>21.16</ele>
        <time>2020-07-10T09:53:47Z</time>
      </trkpt>
      <trkpt lat="47.74582" lon="-3.48775">
        <ele>21.32</ele>
        <time>2020-07-10T09:53:48Z</time>
      </trkpt>
      <trkpt lat="47.74585" lon="-3.48775">
        <ele>21.52</ele>
        <time>2020-07-10T09:53:49Z</time>
      </trkpt>
      <trkpt lat="47.74588" lon="-3.48775">
        <ele>21.69</ele>
        <time>2020-07-10T09:53:50Z</time>
      </trkpt>
      <trkpt lat="47.7459" lon="-3.48775">
        <ele>21.92</ele>
        <time>2020-07-10T09:53:51Z</time>
      </trkpt>
      <trkpt lat="47.74593" lon="-3.48775">
        <ele>22.16</ele>
        <time>2020-07-10T09:53:52Z</time>
      </trkpt>
      <trkpt lat="47.74595" lon="-3.48775">
        <ele>22.37</ele>
        <time>2020-07-10T09:53:53Z</time>
      </trkpt>
      <trkpt lat="47.74598" lon="-3.48776">
        <ele>22.67</ele>
        <time>2020-07-10T09:53:54Z</time>
      </trkpt>
      <trkpt lat="47.74601" lon="-3.48776">
        <ele>22.83</ele>
        <time>2020-07-10T09:53:55Z</time>
      </trkpt>
      <trkpt lat="47.74604" lon="-3.48776">
        <ele>23.12</ele>
        <time>2020-07-10T09:53:56Z</time>
      </trkpt>
      <trkpt lat="47.74606" lon="-3.48777">
        <ele>23.41</ele>
        <time>2020-07-10T09:53:57Z</time>
      </trkpt>
      <trkpt lat="47.74609" lon="-3.48778">
        <ele>23.71</ele>
        <time>2020-07-10T09:53:58Z</time>
      </trkpt>
      <trkpt lat="47.74612" lon="-3.48778">
        <ele>23.96</ele>
        <time>2020-07-10T09:53:59Z</time>
      </trkpt>
      <trkpt lat="47.74614" lon="-3.48778">
        <ele>24.1</ele>
        <time>2020-07-10T09:54:00Z</time>
      </trkpt>
      <trkpt lat="47.74617" lon="-3.48778">
        <ele>24.21</ele>
        <time>2020-07-10T09:54:01Z</time>
      </trkpt>
      <trkpt lat="47.74619" lon="-3.48779">
        <ele>24.41</ele>
        <time>2020-07-10T09:54:02Z</time>
      </trkpt>
      <trkpt lat="47.74621" lon="-3.4878">
        <ele>24.66</ele>
        <time>2020-07-10T09:54:03Z</time>
      </trkpt>
      <trkpt lat="47.74623" lon="-3.48782">
        <ele>24.94</ele>
        <time>2020-07-10T09:54:04Z</time>
      </trkpt>
      <trkpt lat="47.74625" lon="-3.48784">
        <ele>25.26</ele>
        <time>2020-07-10T09:54:05Z</time>
      </trkpt>
      <trkpt lat="47.74627" lon="-3.48786">
        <ele>25.58</ele>
        <time>2020-07-10T09:54:06Z</time>
      </trkpt>
      <trkpt lat="47.74629" lon="-3.48788">
        <ele>25.89</ele>
        <time>2020-07-10T09:54:07Z</time>
      </trkpt>
      <trkpt lat="47.7463" lon="-3.4879">
        <ele>26.17</ele>
        <time>2020-07-10T09:54:08Z</time>
      </trkpt>
      <trkpt lat="47.74631" lon="-3.48792">
        <ele>26.38</ele>
        <time>2020-07-10T09:54:09Z</time>
      </trkpt>
      <trkpt lat="47.74633" lon="-3.48793">
        <ele>26.55</ele>
        <time>2020-07-10T09:54:10Z</time>
      </trkpt>
      <trkpt lat="47.74635" lon="-3.48794">
        <ele>26.7</ele>
        <time>2020-07-10T09:54:11Z</time>
      </trkpt>
      <trkpt lat="47.74636" lon="-3.48795">
        <ele>26.84</ele>
        <time>2020-07-10T09:54:12Z</time>
      </trkpt>
      <trkpt lat="47.74637" lon="-3.48796">
        <ele>26.97</ele>
        <time>2020-07-10T09:54:13Z</time>
      </trkpt>
      <trkpt lat="47.74639" lon="-3.48797">
        <ele>27.06</ele>
        <time>2020-07-10T09:54:14Z</time>
      </trkpt>
      <trkpt lat="47.74641" lon="-3.48798">
        <ele>27.09</ele>
        <time>2020-07-10T09:54:15Z</time>
      </trkpt>
      <trkpt lat="47.74644" lon="-3.48798">
        <ele>27.05</ele>
        <time>2020-07-10T09:54:16Z</time>
      </trkpt>
      <trkpt lat="47.74647" lon="-3.48798">
        <ele>27.01</ele>
        <time>2020-07-10T09:54:17Z</time>
      </trkpt>
      <trkpt lat="47.7465" lon="-3.48799">
        <ele>27</ele>
        <time>2020-07-10T09:54:18Z</time>
      </trkpt>
      <trkpt lat="47.74653" lon="-3.488">
        <ele>26.99</ele>
        <time>2020-07-10T09:54:19Z</time>
      </trkpt>
      <trkpt lat="47.74656" lon="-3.48801">
        <ele>26.99</ele>
        <time>2020-07-10T09:54:20Z</time>
      </trkpt>
      <trkpt lat="47.7466" lon="-3.48802">
        <ele>26.99</ele>
        <time>2020-07-10T09:54:21Z</time>
      </trkpt>
      <trkpt lat="47.74663" lon="-3.48804">
        <ele>26.99</ele>
        <time>2020-07-10T09:54:22Z</time>
      </trkpt>
      <trkpt lat="47.74667" lon="-3.48807">
        <ele>27.03</ele>
        <time>2020-07-10T09:54:23Z</time>
      </trkpt>
      <trkpt lat="47.74669" lon="-3.48812">
        <ele>27.11</ele>
        <time>2020-07-10T09:54:24Z</time>
      </trkpt>
      <trkpt lat="47.74671" lon="-3.48818">
        <ele>27.25</ele>
        <time>2020-07-10T09:54:25Z</time>
      </trkpt>
      <trkpt lat="47.74671" lon="-3.48824">
        <ele>27.41</ele>
        <time>2020-07-10T09:54:26Z</time>
      </trkpt>
      <trkpt lat="47.74672" lon="-3.48829">
        <ele>27.57</ele>
        <time>2020-07-10T09:54:27Z</time>
      </trkpt>
      <trkpt lat="47.74673" lon="-3.48834">
        <ele>27.74</ele>
        <time>2020-07-10T09:54:28Z</time>
      </trkpt>
      <trkpt lat="47.74673" lon="-3.48839">
        <ele>27.91</ele>
        <time>2020-07-10T09:54:29Z</time>
      </trkpt>
      <trkpt lat="47.74674" lon="-3.48844">
        <ele>28.07</ele>
        <time>2020-07-10T09:54:30Z</time>
      </trkpt>
      <trkpt lat="47.74674" lon="-3.48849">
        <ele>28.22</ele>
        <time>2020-07-10T09:54:31Z</time>
      </trkpt>
      <trkpt lat="47.74675" lon="-3.48854">
        <ele>28.36</ele>
        <time>2020-07-10T09:54:32Z</time>
      </trkpt>
      <trkpt lat="47.74677" lon="-3.48858">
        <ele>28.49</ele>
        <time>2020-07-10T09:54:33Z</time>
      </trkpt>
      <trkpt lat="47.74678" lon="-3.48863">
        <ele>28.53</ele>
        <time>2020-07-10T09:54:34Z</time>
      </trkpt>
      <trkpt lat="47.74679" lon="-3.48869">
        <ele>28.43</ele>
        <time>2020-07-10T09:54:35Z</time>
      </trkpt>
      <trkpt lat="47.74681" lon="-3.48875">
        <ele>28.3</ele>
        <time>2020-07-10T09:54:36Z</time>
      </trkpt>
      <trkpt lat="47.74682" lon="-3.48882">
        <ele>28.17</ele>
        <time>2020-07-10T09:54:37Z</time>
      </trkpt>
      <trkpt lat="47.74684" lon="-3.48888">
        <ele>28.06</ele>
        <time>2020-07-10T09:54:38Z</time>
      </trkpt>
      <trkpt lat="47.74687" lon="-3.48894">
        <ele>28.02</ele>
        <time>2020-07-10T09:54:39Z</time>
      </trkpt>
      <trkpt lat="47.74688" lon="-3.489">
        <ele>28.01</ele>
        <time>2020-07-10T09:54:40Z</time>
      </trkpt>
      <trkpt lat="47.74689" lon="-3.48907">
        <ele>28</ele>
        <time>2020-07-10T09:54:41Z</time>
      </trkpt>
      <trkpt lat="47.74691" lon="-3.48914">
        <ele>28</ele>
        <time>2020-07-10T09:54:42Z</time>
      </trkpt>
      <trkpt lat="47.74692" lon="-3.4892">
        <ele>27.91</ele>
        <time>2020-07-10T09:54:43Z</time>
      </trkpt>
      <trkpt lat="47.74694" lon="-3.48927">
        <ele>27.73</ele>
        <time>2020-07-10T09:54:44Z</time>
      </trkpt>
      <trkpt lat="47.74697" lon="-3.48933">
        <ele>27.54</ele>
        <time>2020-07-10T09:54:45Z</time>
      </trkpt>
      <trkpt lat="47.74699" lon="-3.48938">
        <ele>27.4</ele>
        <time>2020-07-10T09:54:46Z</time>
      </trkpt>
      <trkpt lat="47.74701" lon="-3.48943">
        <ele>27.32</ele>
        <time>2020-07-10T09:54:47Z</time>
      </trkpt>
      <trkpt lat="47.74705" lon="-3.48946">
        <ele>27.36</ele>
        <time>2020-07-10T09:54:48Z</time>
      </trkpt>
      <trkpt lat="47.74709" lon="-3.48947">
        <ele>27.47</ele>
        <time>2020-07-10T09:54:49Z</time>
      </trkpt>
      <trkpt lat="47.74713" lon="-3.48947">
        <ele>27.6</ele>
        <time>2020-07-10T09:54:50Z</time>
      </trkpt>
      <trkpt lat="47.74716" lon="-3.48946">
        <ele>27.73</ele>
        <time>2020-07-10T09:54:51Z</time>
      </trkpt>
      <trkpt lat="47.7472" lon="-3.48945">
        <ele>27.86</ele>
        <time>2020-07-10T09:54:52Z</time>
      </trkpt>
      <trkpt lat="47.74723" lon="-3.48943">
        <ele>27.99</ele>
        <time>2020-07-10T09:54:53Z</time>
      </trkpt>
      <trkpt lat="47.74727" lon="-3.48942">
        <ele>28.12</ele>
        <time>2020-07-10T09:54:54Z</time>
      </trkpt>
      <trkpt lat="47.74731" lon="-3.48941">
        <ele>28.26</ele>
        <time>2020-07-10T09:54:55Z</time>
      </trkpt>
      <trkpt lat="47.74735" lon="-3.48939">
        <ele>28.4</ele>
        <time>2020-07-10T09:54:56Z</time>
      </trkpt>
      <trkpt lat="47.74739" lon="-3.48938">
        <ele>28.55</ele>
        <time>2020-07-10T09:54:57Z</time>
      </trkpt>
      <trkpt lat="47.74744" lon="-3.48937">
        <ele>28.71</ele>
        <time>2020-07-10T09:54:58Z</time>
      </trkpt>
      <trkpt lat="47.74748" lon="-3.48935">
        <ele>28.87</ele>
        <time>2020-07-10T09:54:59Z</time>
      </trkpt>
      <trkpt lat="47.74752" lon="-3.48934">
        <ele>29</ele>
        <time>2020-07-10T09:55:00Z</time>
      </trkpt>
      <trkpt lat="47.74757" lon="-3.48934">
        <ele>29.1</ele>
        <time>2020-07-10T09:55:01Z</time>
      </trkpt>
      <trkpt lat="47.74761" lon="-3.48933">
        <ele>29.19</ele>
        <time>2020-07-10T09:55:02Z</time>
      </trkpt>
      <trkpt lat="47.74765" lon="-3.48931">
        <ele>29.27</ele>
        <time>2020-07-10T09:55:03Z</time>
      </trkpt>
      <trkpt lat="47.7477" lon="-3.4893">
        <ele>29.33</ele>
        <time>2020-07-10T09:55:04Z</time>
      </trkpt>
      <trkpt lat="47.74775" lon="-3.48929">
        <ele>29.38</ele>
        <time>2020-07-10T09:55:05Z</time>
      </trkpt>
      <trkpt lat="47.74779" lon="-3.48928">
        <ele>29.4</ele>
        <time>2020-07-10T09:55:06Z</time>
      </trkpt>
      <trkpt lat="47.74783" lon="-3.48927">
        <ele>29.34</ele>
        <time>2020-07-10T09:55:07Z</time>
      </trkpt>
      <trkpt lat="47.74788" lon="-3.48927">
        <ele>29.26</ele>
        <time>2020-07-10T09:55:08Z</time>
      </trkpt>
      <trkpt lat="47.74792" lon="-3.48926">
        <ele>29.19</ele>
        <time>2020-07-10T09:55:09Z</time>
      </trkpt>
      <trkpt lat="47.74797" lon="-3.48925">
        <ele>29.12</ele>
        <time>2020-07-10T09:55:10Z</time>
      </trkpt>
      <trkpt lat="47.74802" lon="-3.48924">
        <ele>29.06</ele>
        <time>2020-07-10T09:55:11Z</time>
      </trkpt>
      <trkpt lat="47.74807" lon="-3.48923">
        <ele>28.97</ele>
        <time>2020-07-10T09:55:12Z</time>
      </trkpt>
      <trkpt lat="47.74812" lon="-3.48922">
        <ele>28.8</ele>
        <time>2020-07-10T09:55:13Z</time>
      </trkpt>
      <trkpt lat="47.74817" lon="-3.48921">
        <ele>28.61</ele>
        <time>2020-07-10T09:55:14Z</time>
      </trkpt>
      <trkpt lat="47.74822" lon="-3.4892">
        <ele>28.43</ele>
        <time>2020-07-10T09:55:15Z</time>
      </trkpt>
      <trkpt lat="47.74827" lon="-3.48919">
        <ele>28.25</ele>
        <time>2020-07-10T09:55:16Z</time>
      </trkpt>
      <trkpt lat="47.74832" lon="-3.48917">
        <ele>28.09</ele>
        <time>2020-07-10T09:55:17Z</time>
      </trkpt>
      <trkpt lat="47.74838" lon="-3.48916">
        <ele>27.89</ele>
        <time>2020-07-10T09:55:18Z</time>
      </trkpt>
      <trkpt lat="47.74843" lon="-3.48915">
        <ele>27.69</ele>
        <time>2020-07-10T09:55:19Z</time>
      </trkpt>
      <trkpt lat="47.74849" lon="-3.48914">
        <ele>27.48</ele>
        <time>2020-07-10T09:55:20Z</time>
      </trkpt>
      <trkpt lat="47.74854" lon="-3.48913">
        <ele>27.3</ele>
        <time>2020-07-10T09:55:21Z</time>
      </trkpt>
      <trkpt lat="47.74859" lon="-3.48912">
        <ele>27.14</ele>
        <time>2020-07-10T09:55:22Z</time>
      </trkpt>
      <trkpt lat="47.74864" lon="-3.4891">
        <ele>27.04</ele>
        <time>2020-07-10T09:55:23Z</time>
      </trkpt>
      <trkpt lat="47.74868" lon="-3.48908">
        <ele>27.01</ele>
        <time>2020-07-10T09:55:24Z</time>
      </trkpt>
      <trkpt lat="47.74873" lon="-3.48907">
        <ele>27</ele>
        <time>2020-07-10T09:55:25Z</time>
      </trkpt>
      <trkpt lat="47.74878" lon="-3.48906">
        <ele>27</ele>
        <time>2020-07-10T09:55:26Z</time>
      </trkpt>
      <trkpt lat="47.74883" lon="-3.48904">
        <ele>27</ele>
        <time>2020-07-10T09:55:27Z</time>
      </trkpt>
      <trkpt lat="47.74888" lon="-3.48904">
        <ele>27</ele>
        <time>2020-07-10T09:55:28Z</time>
      </trkpt>
      <trkpt lat="47.74893" lon="-3.48903">
        <ele>27</ele>
        <time>2020-07-10T09:55:29Z</time>
      </trkpt>
      <trkpt lat="47.74897" lon="-3.48903">
        <ele>27</ele>
        <time>2020-07-10T09:55:30Z</time>
      </trkpt>
      <trkpt lat="47.74902" lon="-3.48905">
        <ele>27</ele>
        <time>2020-07-10T09:55:31Z</time>
      </trkpt>
      <trkpt lat="47.74906" lon="-3.48908">
        <ele>27</ele>
        <time>2020-07-10T09:55:32Z</time>
      </trkpt>
      <trkpt lat="47.74911" lon="-3.48911">
        <ele>27</ele>
        <time>2020-07-10T09:55:33Z</time>
      </trkpt>
      <trkpt lat="47.74915" lon="-3.48915">
        <ele>27</ele>
        <time>2020-07-10T09:55:34Z</time>
      </trkpt>
      <trkpt lat="47.74919" lon="-3.48917">
        <ele>27.11</ele>
        <time>2020-07-10T09:55:35Z</time>
      </trkpt>
      <trkpt lat="47.74924" lon="-3.4892">
        <ele>27.3</ele>
        <time>2020-07-10T09:55:36Z</time>
      </trkpt>
      <trkpt lat="47.74928" lon="-3.48923">
        <ele>27.5</ele>
        <time>2020-07-10T09:55:37Z</time>
      </trkpt>
      <trkpt lat="47.74933" lon="-3.48926">
        <ele>27.73</ele>
        <time>2020-07-10T09:55:38Z</time>
      </trkpt>
      <trkpt lat="47.74937" lon="-3.48929">
        <ele>27.95</ele>
        <time>2020-07-10T09:55:39Z</time>
      </trkpt>
      <trkpt lat="47.74942" lon="-3.48932">
        <ele>28.17</ele>
        <time>2020-07-10T09:55:40Z</time>
      </trkpt>
      <trkpt lat="47.74946" lon="-3.48935">
        <ele>28.38</ele>
        <time>2020-07-10T09:55:41Z</time>
      </trkpt>
      <trkpt lat="47.7495" lon="-3.48937">
        <ele>28.57</ele>
        <time>2020-07-10T09:55:42Z</time>
      </trkpt>
      <trkpt lat="47.74954" lon="-3.4894">
        <ele>28.76</ele>
        <time>2020-07-10T09:55:43Z</time>
      </trkpt>
      <trkpt lat="47.74959" lon="-3.48943">
        <ele>28.99</ele>
        <time>2020-07-10T09:55:44Z</time>
      </trkpt>
      <trkpt lat="47.74963" lon="-3.48945">
        <ele>29.2</ele>
        <time>2020-07-10T09:55:45Z</time>
      </trkpt>
      <trkpt lat="47.74966" lon="-3.48948">
        <ele>29.39</ele>
        <time>2020-07-10T09:55:46Z</time>
      </trkpt>
      <trkpt lat="47.7497" lon="-3.4895">
        <ele>29.57</ele>
        <time>2020-07-10T09:55:47Z</time>
      </trkpt>
      <trkpt lat="47.74974" lon="-3.48953">
        <ele>29.77</ele>
        <time>2020-07-10T09:55:48Z</time>
      </trkpt>
      <trkpt lat="47.74978" lon="-3.48955">
        <ele>29.97</ele>
        <time>2020-07-10T09:55:49Z</time>
      </trkpt>
      <trkpt lat="47.74982" lon="-3.48957">
        <ele>30.17</ele>
        <time>2020-07-10T09:55:50Z</time>
      </trkpt>
      <trkpt lat="47.74986" lon="-3.4896">
        <ele>30.36</ele>
        <time>2020-07-10T09:55:51Z</time>
      </trkpt>
      <trkpt lat="47.7499" lon="-3.48963">
        <ele>30.55</ele>
        <time>2020-07-10T09:55:52Z</time>
      </trkpt>
      <trkpt lat="47.74994" lon="-3.48965">
        <ele>30.72</ele>
        <time>2020-07-10T09:55:53Z</time>
      </trkpt>
      <trkpt lat="47.74998" lon="-3.48968">
        <ele>30.91</ele>
        <time>2020-07-10T09:55:54Z</time>
      </trkpt>
      <trkpt lat="47.75002" lon="-3.48971">
        <ele>31.1</ele>
        <time>2020-07-10T09:55:55Z</time>
      </trkpt>
      <trkpt lat="47.75006" lon="-3.48973">
        <ele>31.26</ele>
        <time>2020-07-10T09:55:56Z</time>
      </trkpt>
      <trkpt lat="47.75009" lon="-3.48976">
        <ele>31.37</ele>
        <time>2020-07-10T09:55:57Z</time>
      </trkpt>
      <trkpt lat="47.75013" lon="-3.48978">
        <ele>31.47</ele>
        <time>2020-07-10T09:55:58Z</time>
      </trkpt>
      <trkpt lat="47.75018" lon="-3.48981">
        <ele>31.6</ele>
        <time>2020-07-10T09:55:59Z</time>
      </trkpt>
      <trkpt lat="47.75021" lon="-3.48983">
        <ele>31.69</ele>
        <time>2020-07-10T09:56:00Z</time>
      </trkpt>
      <trkpt lat="47.75025" lon="-3.48986">
        <ele>31.79</ele>
        <time>2020-07-10T09:56:01Z</time>
      </trkpt>
      <trkpt lat="47.75028" lon="-3.48988">
        <ele>31.89</ele>
        <time>2020-07-10T09:56:02Z</time>
      </trkpt>
      <trkpt lat="47.75032" lon="-3.48989">
        <ele>32.01</ele>
        <time>2020-07-10T09:56:03Z</time>
      </trkpt>
      <trkpt lat="47.75035" lon="-3.48992">
        <ele>32.07</ele>
        <time>2020-07-10T09:56:04Z</time>
      </trkpt>
      <trkpt lat="47.75038" lon="-3.48995">
        <ele>32.06</ele>
        <time>2020-07-10T09:56:05Z</time>
      </trkpt>
      <trkpt lat="47.7504" lon="-3.49">
        <ele>31.93</ele>
        <time>2020-07-10T09:56:06Z</time>
      </trkpt>
      <trkpt lat="47.75041" lon="-3.49005">
        <ele>31.8</ele>
        <time>2020-07-10T09:56:07Z</time>
      </trkpt>
      <trkpt lat="47.75043" lon="-3.4901">
        <ele>31.63</ele>
        <time>2020-07-10T09:56:08Z</time>
      </trkpt>
      <trkpt lat="47.75045" lon="-3.49016">
        <ele>31.41</ele>
        <time>2020-07-10T09:56:09Z</time>
      </trkpt>
      <trkpt lat="47.75047" lon="-3.49023">
        <ele>31.13</ele>
        <time>2020-07-10T09:56:10Z</time>
      </trkpt>
      <trkpt lat="47.75049" lon="-3.4903">
        <ele>30.85</ele>
        <time>2020-07-10T09:56:11Z</time>
      </trkpt>
      <trkpt lat="47.7505" lon="-3.49036">
        <ele>30.77</ele>
        <time>2020-07-10T09:56:12Z</time>
      </trkpt>
      <trkpt lat="47.75051" lon="-3.49043">
        <ele>30.77</ele>
        <time>2020-07-10T09:56:13Z</time>
      </trkpt>
      <trkpt lat="47.75052" lon="-3.4905">
        <ele>30.79</ele>
        <time>2020-07-10T09:56:14Z</time>
      </trkpt>
      <trkpt lat="47.75054" lon="-3.49057">
        <ele>30.79</ele>
        <time>2020-07-10T09:56:15Z</time>
      </trkpt>
      <trkpt lat="47.75055" lon="-3.49065">
        <ele>30.66</ele>
        <time>2020-07-10T09:56:16Z</time>
      </trkpt>
      <trkpt lat="47.75056" lon="-3.49072">
        <ele>30.49</ele>
        <time>2020-07-10T09:56:17Z</time>
      </trkpt>
      <trkpt lat="47.75056" lon="-3.49079">
        <ele>30.27</ele>
        <time>2020-07-10T09:56:18Z</time>
      </trkpt>
      <trkpt lat="47.75058" lon="-3.49086">
        <ele>30.07</ele>
        <time>2020-07-10T09:56:19Z</time>
      </trkpt>
      <trkpt lat="47.75059" lon="-3.49093">
        <ele>29.91</ele>
        <time>2020-07-10T09:56:20Z</time>
      </trkpt>
      <trkpt lat="47.75061" lon="-3.491">
        <ele>29.78</ele>
        <time>2020-07-10T09:56:21Z</time>
      </trkpt>
      <trkpt lat="47.75062" lon="-3.49107">
        <ele>29.66</ele>
        <time>2020-07-10T09:56:22Z</time>
      </trkpt>
      <trkpt lat="47.75064" lon="-3.49114">
        <ele>29.6</ele>
        <time>2020-07-10T09:56:23Z</time>
      </trkpt>
      <trkpt lat="47.75065" lon="-3.49121">
        <ele>29.64</ele>
        <time>2020-07-10T09:56:24Z</time>
      </trkpt>
      <trkpt lat="47.75066" lon="-3.49128">
        <ele>29.71</ele>
        <time>2020-07-10T09:56:25Z</time>
      </trkpt>
      <trkpt lat="47.75067" lon="-3.49135">
        <ele>29.8</ele>
        <time>2020-07-10T09:56:26Z</time>
      </trkpt>
      <trkpt lat="47.75069" lon="-3.49142">
        <ele>29.86</ele>
        <time>2020-07-10T09:56:27Z</time>
      </trkpt>
      <trkpt lat="47.75071" lon="-3.4915">
        <ele>29.86</ele>
        <time>2020-07-10T09:56:28Z</time>
      </trkpt>
      <trkpt lat="47.75072" lon="-3.49157">
        <ele>29.81</ele>
        <time>2020-07-10T09:56:29Z</time>
      </trkpt>
      <trkpt lat="47.75074" lon="-3.49165">
        <ele>29.74</ele>
        <time>2020-07-10T09:56:30Z</time>
      </trkpt>
      <trkpt lat="47.75075" lon="-3.49172">
        <ele>29.68</ele>
        <time>2020-07-10T09:56:31Z</time>
      </trkpt>
      <trkpt lat="47.75077" lon="-3.49179">
        <ele>29.66</ele>
        <time>2020-07-10T09:56:32Z</time>
      </trkpt>
      <trkpt lat="47.75077" lon="-3.49185">
        <ele>29.64</ele>
        <time>2020-07-10T09:56:33Z</time>
      </trkpt>
      <trkpt lat="47.75078" lon="-3.49191">
        <ele>29.65</ele>
        <time>2020-07-10T09:56:34Z</time>
      </trkpt>
      <trkpt lat="47.75079" lon="-3.49198">
        <ele>29.67</ele>
        <time>2020-07-10T09:56:35Z</time>
      </trkpt>
      <trkpt lat="47.75079" lon="-3.49205">
        <ele>29.7</ele>
        <time>2020-07-10T09:56:36Z</time>
      </trkpt>
      <trkpt lat="47.75081" lon="-3.4921">
        <ele>29.78</ele>
        <time>2020-07-10T09:56:37Z</time>
      </trkpt>
      <trkpt lat="47.75083" lon="-3.49215">
        <ele>29.94</ele>
        <time>2020-07-10T09:56:38Z</time>
      </trkpt>
      <trkpt lat="47.75088" lon="-3.49219">
        <ele>29.98</ele>
        <time>2020-07-10T09:56:39Z</time>
      </trkpt>
      <trkpt lat="47.75092" lon="-3.49222">
        <ele>29.99</ele>
        <time>2020-07-10T09:56:40Z</time>
      </trkpt>
      <trkpt lat="47.75097" lon="-3.49224">
        <ele>29.98</ele>
        <time>2020-07-10T09:56:41Z</time>
      </trkpt>
      <trkpt lat="47.75103" lon="-3.49226">
        <ele>29.93</ele>
        <time>2020-07-10T09:56:42Z</time>
      </trkpt>
      <trkpt lat="47.75108" lon="-3.49228">
        <ele>29.86</ele>
        <time>2020-07-10T09:56:43Z</time>
      </trkpt>
      <trkpt lat="47.75113" lon="-3.49229">
        <ele>29.74</ele>
        <time>2020-07-10T09:56:44Z</time>
      </trkpt>
      <trkpt lat="47.75118" lon="-3.49232">
        <ele>29.56</ele>
        <time>2020-07-10T09:56:45Z</time>
      </trkpt>
      <trkpt lat="47.75123" lon="-3.49235">
        <ele>29.39</ele>
        <time>2020-07-10T09:56:46Z</time>
      </trkpt>
      <trkpt lat="47.75129" lon="-3.49237">
        <ele>29.24</ele>
        <time>2020-07-10T09:56:47Z</time>
      </trkpt>
      <trkpt lat="47.75134" lon="-3.49238">
        <ele>29.12</ele>
        <time>2020-07-10T09:56:48Z</time>
      </trkpt>
      <trkpt lat="47.7514" lon="-3.49239">
        <ele>28.97</ele>
        <time>2020-07-10T09:56:49Z</time>
      </trkpt>
      <trkpt lat="47.75146" lon="-3.49242">
        <ele>28.66</ele>
        <time>2020-07-10T09:56:50Z</time>
      </trkpt>
      <trkpt lat="47.75151" lon="-3.49244">
        <ele>28.29</ele>
        <time>2020-07-10T09:56:51Z</time>
      </trkpt>
      <trkpt lat="47.75156" lon="-3.49247">
        <ele>27.92</ele>
        <time>2020-07-10T09:56:52Z</time>
      </trkpt>
      <trkpt lat="47.75162" lon="-3.49249">
        <ele>27.51</ele>
        <time>2020-07-10T09:56:53Z</time>
      </trkpt>
      <trkpt lat="47.75168" lon="-3.49251">
        <ele>27.09</ele>
        <time>2020-07-10T09:56:54Z</time>
      </trkpt>
      <trkpt lat="47.75173" lon="-3.49253">
        <ele>26.68</ele>
        <time>2020-07-10T09:56:55Z</time>
      </trkpt>
      <trkpt lat="47.75179" lon="-3.49256">
        <ele>26.28</ele>
        <time>2020-07-10T09:56:56Z</time>
      </trkpt>
      <trkpt lat="47.75185" lon="-3.49259">
        <ele>25.87</ele>
        <time>2020-07-10T09:56:57Z</time>
      </trkpt>
      <trkpt lat="47.75191" lon="-3.49262">
        <ele>25.45</ele>
        <time>2020-07-10T09:56:58Z</time>
      </trkpt>
      <trkpt lat="47.75198" lon="-3.49265">
        <ele>25.02</ele>
        <time>2020-07-10T09:56:59Z</time>
      </trkpt>
      <trkpt lat="47.75205" lon="-3.49267">
        <ele>24.59</ele>
        <time>2020-07-10T09:57:00Z</time>
      </trkpt>
      <trkpt lat="47.75211" lon="-3.49268">
        <ele>24.19</ele>
        <time>2020-07-10T09:57:01Z</time>
      </trkpt>
      <trkpt lat="47.75218" lon="-3.49269">
        <ele>23.78</ele>
        <time>2020-07-10T09:57:02Z</time>
      </trkpt>
      <trkpt lat="47.75225" lon="-3.49269">
        <ele>23.37</ele>
        <time>2020-07-10T09:57:03Z</time>
      </trkpt>
      <trkpt lat="47.75232" lon="-3.49269">
        <ele>23.03</ele>
        <time>2020-07-10T09:57:04Z</time>
      </trkpt>
      <trkpt lat="47.75238" lon="-3.49268">
        <ele>22.71</ele>
        <time>2020-07-10T09:57:05Z</time>
      </trkpt>
      <trkpt lat="47.75244" lon="-3.49267">
        <ele>22.42</ele>
        <time>2020-07-10T09:57:06Z</time>
      </trkpt>
      <trkpt lat="47.7525" lon="-3.49266">
        <ele>22.14</ele>
        <time>2020-07-10T09:57:07Z</time>
      </trkpt>
      <trkpt lat="47.75255" lon="-3.49265">
        <ele>21.83</ele>
        <time>2020-07-10T09:57:08Z</time>
      </trkpt>
      <trkpt lat="47.75261" lon="-3.49265">
        <ele>21.53</ele>
        <time>2020-07-10T09:57:09Z</time>
      </trkpt>
      <trkpt lat="47.75267" lon="-3.49264">
        <ele>21.22</ele>
        <time>2020-07-10T09:57:10Z</time>
      </trkpt>
      <trkpt lat="47.75272" lon="-3.49264">
        <ele>20.94</ele>
        <time>2020-07-10T09:57:11Z</time>
      </trkpt>
      <trkpt lat="47.75277" lon="-3.49264">
        <ele>20.66</ele>
        <time>2020-07-10T09:57:12Z</time>
      </trkpt>
      <trkpt lat="47.75283" lon="-3.49263">
        <ele>20.5</ele>
        <time>2020-07-10T09:57:13Z</time>
      </trkpt>
      <trkpt lat="47.75289" lon="-3.49263">
        <ele>20.38</ele>
        <time>2020-07-10T09:57:14Z</time>
      </trkpt>
      <trkpt lat="47.75295" lon="-3.49262">
        <ele>20.26</ele>
        <time>2020-07-10T09:57:15Z</time>
      </trkpt>
      <trkpt lat="47.75301" lon="-3.49262">
        <ele>20.14</ele>
        <time>2020-07-10T09:57:16Z</time>
      </trkpt>
      <trkpt lat="47.75307" lon="-3.49262">
        <ele>20.03</ele>
        <time>2020-07-10T09:57:17Z</time>
      </trkpt>
      <trkpt lat="47.75313" lon="-3.49261">
        <ele>19.93</ele>
        <time>2020-07-10T09:57:18Z</time>
      </trkpt>
      <trkpt lat="47.75319" lon="-3.49261">
        <ele>19.85</ele>
        <time>2020-07-10T09:57:19Z</time>
      </trkpt>
      <trkpt lat="47.75325" lon="-3.4926">
        <ele>19.77</ele>
        <time>2020-07-10T09:57:20Z</time>
      </trkpt>
      <trkpt lat="47.75331" lon="-3.4926">
        <ele>19.71</ele>
        <time>2020-07-10T09:57:21Z</time>
      </trkpt>
      <trkpt lat="47.75336" lon="-3.49259">
        <ele>19.61</ele>
        <time>2020-07-10T09:57:22Z</time>
      </trkpt>
      <trkpt lat="47.75342" lon="-3.49259">
        <ele>19.45</ele>
        <time>2020-07-10T09:57:23Z</time>
      </trkpt>
      <trkpt lat="47.75347" lon="-3.49258">
        <ele>19.29</ele>
        <time>2020-07-10T09:57:24Z</time>
      </trkpt>
      <trkpt lat="47.75352" lon="-3.49258">
        <ele>19.11</ele>
        <time>2020-07-10T09:57:25Z</time>
      </trkpt>
      <trkpt lat="47.75357" lon="-3.49258">
        <ele>18.94</ele>
        <time>2020-07-10T09:57:26Z</time>
      </trkpt>
      <trkpt lat="47.75363" lon="-3.49258">
        <ele>18.75</ele>
        <time>2020-07-10T09:57:27Z</time>
      </trkpt>
      <trkpt lat="47.75368" lon="-3.49257">
        <ele>18.57</ele>
        <time>2020-07-10T09:57:28Z</time>
      </trkpt>
      <trkpt lat="47.75373" lon="-3.49257">
        <ele>18.39</ele>
        <time>2020-07-10T09:57:29Z</time>
      </trkpt>
      <trkpt lat="47.75378" lon="-3.49257">
        <ele>18.21</ele>
        <time>2020-07-10T09:57:30Z</time>
      </trkpt>
      <trkpt lat="47.75383" lon="-3.49256">
        <ele>18.05</ele>
        <time>2020-07-10T09:57:31Z</time>
      </trkpt>
      <trkpt lat="47.75388" lon="-3.49256">
        <ele>17.88</ele>
        <time>2020-07-10T09:57:32Z</time>
      </trkpt>
      <trkpt lat="47.75393" lon="-3.49256">
        <ele>17.74</ele>
        <time>2020-07-10T09:57:33Z</time>
      </trkpt>
      <trkpt lat="47.75398" lon="-3.49255">
        <ele>17.61</ele>
        <time>2020-07-10T09:57:34Z</time>
      </trkpt>
      <trkpt lat="47.75402" lon="-3.49255">
        <ele>17.48</ele>
        <time>2020-07-10T09:57:35Z</time>
      </trkpt>
      <trkpt lat="47.75407" lon="-3.49255">
        <ele>17.34</ele>
        <time>2020-07-10T09:57:36Z</time>
      </trkpt>
      <trkpt lat="47.75412" lon="-3.49256">
        <ele>17.19</ele>
        <time>2020-07-10T09:57:37Z</time>
      </trkpt>
      <trkpt lat="47.75417" lon="-3.49258">
        <ele>17.06</ele>
        <time>2020-07-10T09:57:38Z</time>
      </trkpt>
      <trkpt lat="47.75422" lon="-3.4926">
        <ele>17.02</ele>
        <time>2020-07-10T09:57:39Z</time>
      </trkpt>
      <trkpt lat="47.75427" lon="-3.49263">
        <ele>17.01</ele>
        <time>2020-07-10T09:57:40Z</time>
      </trkpt>
      <trkpt lat="47.75433" lon="-3.49266">
        <ele>17</ele>
        <time>2020-07-10T09:57:41Z</time>
      </trkpt>
      <trkpt lat="47.75438" lon="-3.49268">
        <ele>17</ele>
        <time>2020-07-10T09:57:42Z</time>
      </trkpt>
      <trkpt lat="47.75444" lon="-3.49271">
        <ele>17</ele>
        <time>2020-07-10T09:57:43Z</time>
      </trkpt>
      <trkpt lat="47.75449" lon="-3.49275">
        <ele>17</ele>
        <time>2020-07-10T09:57:44Z</time>
      </trkpt>
      <trkpt lat="47.75455" lon="-3.49278">
        <ele>17</ele>
        <time>2020-07-10T09:57:45Z</time>
      </trkpt>
      <trkpt lat="47.75459" lon="-3.49281">
        <ele>16.92</ele>
        <time>2020-07-10T09:57:46Z</time>
      </trkpt>
      <trkpt lat="47.75464" lon="-3.49284">
        <ele>16.82</ele>
        <time>2020-07-10T09:57:47Z</time>
      </trkpt>
      <trkpt lat="47.75468" lon="-3.49287">
        <ele>16.71</ele>
        <time>2020-07-10T09:57:48Z</time>
      </trkpt>
      <trkpt lat="47.75473" lon="-3.4929">
        <ele>16.6</ele>
        <time>2020-07-10T09:57:49Z</time>
      </trkpt>
      <trkpt lat="47.75477" lon="-3.49292">
        <ele>16.45</ele>
        <time>2020-07-10T09:57:50Z</time>
      </trkpt>
      <trkpt lat="47.75481" lon="-3.49295">
        <ele>16.32</ele>
        <time>2020-07-10T09:57:51Z</time>
      </trkpt>
      <trkpt lat="47.75485" lon="-3.49297">
        <ele>16.21</ele>
        <time>2020-07-10T09:57:52Z</time>
      </trkpt>
      <trkpt lat="47.75491" lon="-3.49301">
        <ele>16.1</ele>
        <time>2020-07-10T09:57:53Z</time>
      </trkpt>
      <trkpt lat="47.75496" lon="-3.49303">
        <ele>16.04</ele>
        <time>2020-07-10T09:57:54Z</time>
      </trkpt>
      <trkpt lat="47.75501" lon="-3.49306">
        <ele>16.05</ele>
        <time>2020-07-10T09:57:55Z</time>
      </trkpt>
      <trkpt lat="47.75507" lon="-3.49308">
        <ele>16.19</ele>
        <time>2020-07-10T09:57:56Z</time>
      </trkpt>
      <trkpt lat="47.75512" lon="-3.49311">
        <ele>16.36</ele>
        <time>2020-07-10T09:57:57Z</time>
      </trkpt>
      <trkpt lat="47.75517" lon="-3.49313">
        <ele>16.53</ele>
        <time>2020-07-10T09:57:58Z</time>
      </trkpt>
      <trkpt lat="47.75521" lon="-3.49316">
        <ele>16.7</ele>
        <time>2020-07-10T09:57:59Z</time>
      </trkpt>
      <trkpt lat="47.75526" lon="-3.4932">
        <ele>16.87</ele>
        <time>2020-07-10T09:58:00Z</time>
      </trkpt>
      <trkpt lat="47.7553" lon="-3.49324">
        <ele>17.02</ele>
        <time>2020-07-10T09:58:01Z</time>
      </trkpt>
      <trkpt lat="47.75533" lon="-3.49329">
        <ele>17.15</ele>
        <time>2020-07-10T09:58:02Z</time>
      </trkpt>
      <trkpt lat="47.75535" lon="-3.49334">
        <ele>17.21</ele>
        <time>2020-07-10T09:58:03Z</time>
      </trkpt>
      <trkpt lat="47.75537" lon="-3.49341">
        <ele>17.16</ele>
        <time>2020-07-10T09:58:04Z</time>
      </trkpt>
      <trkpt lat="47.75538" lon="-3.49348">
        <ele>17.06</ele>
        <time>2020-07-10T09:58:05Z</time>
      </trkpt>
      <trkpt lat="47.75538" lon="-3.49354">
        <ele>16.94</ele>
        <time>2020-07-10T09:58:06Z</time>
      </trkpt>
      <trkpt lat="47.75538" lon="-3.49361">
        <ele>16.81</ele>
        <time>2020-07-10T09:58:07Z</time>
      </trkpt>
      <trkpt lat="47.75539" lon="-3.49367">
        <ele>16.82</ele>
        <time>2020-07-10T09:58:08Z</time>
      </trkpt>
      <trkpt lat="47.75538" lon="-3.49376">
        <ele>16.85</ele>
        <time>2020-07-10T09:58:09Z</time>
      </trkpt>
      <trkpt lat="47.75538" lon="-3.49383">
        <ele>16.92</ele>
        <time>2020-07-10T09:58:10Z</time>
      </trkpt>
      <trkpt lat="47.75537" lon="-3.49392">
        <ele>16.98</ele>
        <time>2020-07-10T09:58:11Z</time>
      </trkpt>
      <trkpt lat="47.75537" lon="-3.49399">
        <ele>16.99</ele>
        <time>2020-07-10T09:58:12Z</time>
      </trkpt>
      <trkpt lat="47.75536" lon="-3.49407">
        <ele>17</ele>
        <time>2020-07-10T09:58:13Z</time>
      </trkpt>
      <trkpt lat="47.75536" lon="-3.49415">
        <ele>17</ele>
        <time>2020-07-10T09:58:14Z</time>
      </trkpt>
      <trkpt lat="47.75536" lon="-3.49421">
        <ele>17</ele>
        <time>2020-07-10T09:58:15Z</time>
      </trkpt>
      <trkpt lat="47.75535" lon="-3.49427">
        <ele>17</ele>
        <time>2020-07-10T09:58:16Z</time>
      </trkpt>
      <trkpt lat="47.75535" lon="-3.49432">
        <ele>17</ele>
        <time>2020-07-10T09:58:17Z</time>
      </trkpt>
      <trkpt lat="47.75535" lon="-3.49438">
        <ele>17</ele>
        <time>2020-07-10T09:58:18Z</time>
      </trkpt>
      <trkpt lat="47.75536" lon="-3.49444">
        <ele>17</ele>
        <time>2020-07-10T09:58:19Z</time>
      </trkpt>
      <trkpt lat="47.75536" lon="-3.49449">
        <ele>16.95</ele>
        <time>2020-07-10T09:58:20Z</time>
      </trkpt>
      <trkpt lat="47.75536" lon="-3.49455">
        <ele>16.88</ele>
        <time>2020-07-10T09:58:21Z</time>
      </trkpt>
      <trkpt lat="47.75536" lon="-3.49462">
        <ele>16.79</ele>
        <time>2020-07-10T09:58:22Z</time>
      </trkpt>
      <trkpt lat="47.75537" lon="-3.49469">
        <ele>16.71</ele>
        <time>2020-07-10T09:58:23Z</time>
      </trkpt>
      <trkpt lat="47.75537" lon="-3.49477">
        <ele>16.76</ele>
        <time>2020-07-10T09:58:24Z</time>
      </trkpt>
      <trkpt lat="47.75539" lon="-3.49485">
        <ele>16.98</ele>
        <time>2020-07-10T09:58:25Z</time>
      </trkpt>
      <trkpt lat="47.7554" lon="-3.49492">
        <ele>17.2</ele>
        <time>2020-07-10T09:58:26Z</time>
      </trkpt>
      <trkpt lat="47.75541" lon="-3.49499">
        <ele>17.38</ele>
        <time>2020-07-10T09:58:27Z</time>
      </trkpt>
      <trkpt lat="47.75541" lon="-3.49505">
        <ele>17.46</ele>
        <time>2020-07-10T09:58:28Z</time>
      </trkpt>
      <trkpt lat="47.75542" lon="-3.49511">
        <ele>17.49</ele>
        <time>2020-07-10T09:58:29Z</time>
      </trkpt>
      <trkpt lat="47.75542" lon="-3.49517">
        <ele>17.51</ele>
        <time>2020-07-10T09:58:30Z</time>
      </trkpt>
      <trkpt lat="47.75541" lon="-3.49523">
        <ele>17.49</ele>
        <time>2020-07-10T09:58:31Z</time>
      </trkpt>
      <trkpt lat="47.75541" lon="-3.49529">
        <ele>17.48</ele>
        <time>2020-07-10T09:58:32Z</time>
      </trkpt>
      <trkpt lat="47.75541" lon="-3.49536">
        <ele>17.47</ele>
        <time>2020-07-10T09:58:33Z</time>
      </trkpt>
      <trkpt lat="47.7554" lon="-3.49543">
        <ele>17.46</ele>
        <time>2020-07-10T09:58:34Z</time>
      </trkpt>
      <trkpt lat="47.7554" lon="-3.4955">
        <ele>17.46</ele>
        <time>2020-07-10T09:58:35Z</time>
      </trkpt>
      <trkpt lat="47.7554" lon="-3.49557">
        <ele>17.48</ele>
        <time>2020-07-10T09:58:36Z</time>
      </trkpt>
      <trkpt lat="47.75541" lon="-3.49564">
        <ele>17.58</ele>
        <time>2020-07-10T09:58:37Z</time>
      </trkpt>
      <trkpt lat="47.75541" lon="-3.4957">
        <ele>17.7</ele>
        <time>2020-07-10T09:58:38Z</time>
      </trkpt>
      <trkpt lat="47.75541" lon="-3.49577">
        <ele>17.83</ele>
        <time>2020-07-10T09:58:39Z</time>
      </trkpt>
      <trkpt lat="47.75542" lon="-3.49584">
        <ele>17.95</ele>
        <time>2020-07-10T09:58:40Z</time>
      </trkpt>
      <trkpt lat="47.75542" lon="-3.49591">
        <ele>18.09</ele>
        <time>2020-07-10T09:58:41Z</time>
      </trkpt>
      <trkpt lat="47.75543" lon="-3.49598">
        <ele>18.23</ele>
        <time>2020-07-10T09:58:42Z</time>
      </trkpt>
      <trkpt lat="47.75544" lon="-3.49606">
        <ele>18.39</ele>
        <time>2020-07-10T09:58:43Z</time>
      </trkpt>
      <trkpt lat="47.75545" lon="-3.49613">
        <ele>18.54</ele>
        <time>2020-07-10T09:58:44Z</time>
      </trkpt>
      <trkpt lat="47.75546" lon="-3.4962">
        <ele>18.62</ele>
        <time>2020-07-10T09:58:45Z</time>
      </trkpt>
      <trkpt lat="47.75547" lon="-3.49627">
        <ele>18.68</ele>
        <time>2020-07-10T09:58:46Z</time>
      </trkpt>
      <trkpt lat="47.75548" lon="-3.49634">
        <ele>18.72</ele>
        <time>2020-07-10T09:58:47Z</time>
      </trkpt>
      <trkpt lat="47.75549" lon="-3.49642">
        <ele>18.83</ele>
        <time>2020-07-10T09:58:48Z</time>
      </trkpt>
      <trkpt lat="47.75551" lon="-3.49649">
        <ele>19.08</ele>
        <time>2020-07-10T09:58:49Z</time>
      </trkpt>
      <trkpt lat="47.75552" lon="-3.49655">
        <ele>19.35</ele>
        <time>2020-07-10T09:58:50Z</time>
      </trkpt>
      <trkpt lat="47.75553" lon="-3.49662">
        <ele>19.63</ele>
        <time>2020-07-10T09:58:51Z</time>
      </trkpt>
      <trkpt lat="47.75554" lon="-3.49669">
        <ele>19.85</ele>
        <time>2020-07-10T09:58:52Z</time>
      </trkpt>
      <trkpt lat="47.75555" lon="-3.49676">
        <ele>19.94</ele>
        <time>2020-07-10T09:58:53Z</time>
      </trkpt>
      <trkpt lat="47.75556" lon="-3.49682">
        <ele>20.01</ele>
        <time>2020-07-10T09:58:54Z</time>
      </trkpt>
      <trkpt lat="47.75557" lon="-3.4969">
        <ele>20.08</ele>
        <time>2020-07-10T09:58:55Z</time>
      </trkpt>
      <trkpt lat="47.75558" lon="-3.49698">
        <ele>20.22</ele>
        <time>2020-07-10T09:58:56Z</time>
      </trkpt>
      <trkpt lat="47.7556" lon="-3.49704">
        <ele>20.48</ele>
        <time>2020-07-10T09:58:57Z</time>
      </trkpt>
      <trkpt lat="47.75561" lon="-3.49711">
        <ele>20.74</ele>
        <time>2020-07-10T09:58:58Z</time>
      </trkpt>
      <trkpt lat="47.75562" lon="-3.49717">
        <ele>20.98</ele>
        <time>2020-07-10T09:58:59Z</time>
      </trkpt>
      <trkpt lat="47.75564" lon="-3.49723">
        <ele>21.21</ele>
        <time>2020-07-10T09:59:00Z</time>
      </trkpt>
      <trkpt lat="47.75565" lon="-3.49728">
        <ele>21.46</ele>
        <time>2020-07-10T09:59:01Z</time>
      </trkpt>
      <trkpt lat="47.75567" lon="-3.49734">
        <ele>21.71</ele>
        <time>2020-07-10T09:59:02Z</time>
      </trkpt>
      <trkpt lat="47.75569" lon="-3.49739">
        <ele>21.97</ele>
        <time>2020-07-10T09:59:03Z</time>
      </trkpt>
      <trkpt lat="47.7557" lon="-3.49745">
        <ele>22.24</ele>
        <time>2020-07-10T09:59:04Z</time>
      </trkpt>
      <trkpt lat="47.75572" lon="-3.49753">
        <ele>22.5</ele>
        <time>2020-07-10T09:59:05Z</time>
      </trkpt>
      <trkpt lat="47.75573" lon="-3.4976">
        <ele>22.68</ele>
        <time>2020-07-10T09:59:06Z</time>
      </trkpt>
      <trkpt lat="47.75573" lon="-3.49767">
        <ele>22.81</ele>
        <time>2020-07-10T09:59:07Z</time>
      </trkpt>
      <trkpt lat="47.75574" lon="-3.49773">
        <ele>22.9</ele>
        <time>2020-07-10T09:59:08Z</time>
      </trkpt>
      <trkpt lat="47.75574" lon="-3.49779">
        <ele>23</ele>
        <time>2020-07-10T09:59:09Z</time>
      </trkpt>
      <trkpt lat="47.75574" lon="-3.49787">
        <ele>23.14</ele>
        <time>2020-07-10T09:59:10Z</time>
      </trkpt>
      <trkpt lat="47.75573" lon="-3.49794">
        <ele>23.31</ele>
        <time>2020-07-10T09:59:11Z</time>
      </trkpt>
      <trkpt lat="47.75572" lon="-3.49802">
        <ele>23.46</ele>
        <time>2020-07-10T09:59:12Z</time>
      </trkpt>
      <trkpt lat="47.75572" lon="-3.49809">
        <ele>23.64</ele>
        <time>2020-07-10T09:59:13Z</time>
      </trkpt>
      <trkpt lat="47.75572" lon="-3.49816">
        <ele>23.87</ele>
        <time>2020-07-10T09:59:14Z</time>
      </trkpt>
      <trkpt lat="47.75572" lon="-3.49823">
        <ele>24.12</ele>
        <time>2020-07-10T09:59:15Z</time>
      </trkpt>
      <trkpt lat="47.75573" lon="-3.49829">
        <ele>24.38</ele>
        <time>2020-07-10T09:59:16Z</time>
      </trkpt>
      <trkpt lat="47.75574" lon="-3.49835">
        <ele>24.59</ele>
        <time>2020-07-10T09:59:17Z</time>
      </trkpt>
      <trkpt lat="47.75576" lon="-3.4984">
        <ele>24.73</ele>
        <time>2020-07-10T09:59:18Z</time>
      </trkpt>
      <trkpt lat="47.75578" lon="-3.49845">
        <ele>24.83</ele>
        <time>2020-07-10T09:59:19Z</time>
      </trkpt>
      <trkpt lat="47.7558" lon="-3.49849">
        <ele>24.91</ele>
        <time>2020-07-10T09:59:20Z</time>
      </trkpt>
      <trkpt lat="47.75583" lon="-3.49853">
        <ele>24.97</ele>
        <time>2020-07-10T09:59:21Z</time>
      </trkpt>
      <trkpt lat="47.75585" lon="-3.49857">
        <ele>25.02</ele>
        <time>2020-07-10T09:59:22Z</time>
      </trkpt>
      <trkpt lat="47.75587" lon="-3.4986">
        <ele>25.11</ele>
        <time>2020-07-10T09:59:23Z</time>
      </trkpt>
      <trkpt lat="47.75589" lon="-3.4986">
        <ele>25.18</ele>
        <time>2020-07-10T09:59:24Z</time>
      </trkpt>
      <trkpt lat="47.75591" lon="-3.49859">
        <ele>25.24</ele>
        <time>2020-07-10T09:59:25Z</time>
      </trkpt>
      <trkpt lat="47.75593" lon="-3.49857">
        <ele>25.29</ele>
        <time>2020-07-10T09:59:26Z</time>
      </trkpt>
      <trkpt lat="47.75595" lon="-3.49855">
        <ele>25.31</ele>
        <time>2020-07-10T09:59:27Z</time>
      </trkpt>
      <trkpt lat="47.75596" lon="-3.49852">
        <ele>25.31</ele>
        <time>2020-07-10T09:59:28Z</time>
      </trkpt>
      <trkpt lat="47.75597" lon="-3.4985">
        <ele>25.3</ele>
        <time>2020-07-10T09:59:29Z</time>
      </trkpt>
      <trkpt lat="47.75599" lon="-3.49849">
        <ele>25.32</ele>
        <time>2020-07-10T09:59:30Z</time>
      </trkpt>
      <trkpt lat="47.756" lon="-3.49851">
        <ele>25.35</ele>
        <time>2020-07-10T09:59:31Z</time>
      </trkpt>
      <trkpt lat="47.75599" lon="-3.49853">
        <ele>25.39</ele>
        <time>2020-07-10T09:59:32Z</time>
      </trkpt>
      <trkpt lat="47.75597" lon="-3.49856">
        <ele>25.41</ele>
        <time>2020-07-10T09:59:33Z</time>
      </trkpt>
      <trkpt lat="47.75595" lon="-3.49859">
        <ele>25.41</ele>
        <time>2020-07-10T09:59:34Z</time>
      </trkpt>
      <trkpt lat="47.75593" lon="-3.49863">
        <ele>25.4</ele>
        <time>2020-07-10T09:59:35Z</time>
      </trkpt>
      <trkpt lat="47.7559" lon="-3.49868">
        <ele>25.41</ele>
        <time>2020-07-10T09:59:36Z</time>
      </trkpt>
      <trkpt lat="47.75588" lon="-3.49872">
        <ele>25.48</ele>
        <time>2020-07-10T09:59:37Z</time>
      </trkpt>
      <trkpt lat="47.75585" lon="-3.49879">
        <ele>25.6</ele>
        <time>2020-07-10T09:59:38Z</time>
      </trkpt>
      <trkpt lat="47.75583" lon="-3.49885">
        <ele>25.77</ele>
        <time>2020-07-10T09:59:39Z</time>
      </trkpt>
      <trkpt lat="47.75581" lon="-3.49891">
        <ele>25.88</ele>
        <time>2020-07-10T09:59:40Z</time>
      </trkpt>
      <trkpt lat="47.75579" lon="-3.49897">
        <ele>25.89</ele>
        <time>2020-07-10T09:59:41Z</time>
      </trkpt>
      <trkpt lat="47.75578" lon="-3.49902">
        <ele>25.9</ele>
        <time>2020-07-10T09:59:42Z</time>
      </trkpt>
      <trkpt lat="47.75577" lon="-3.49907">
        <ele>25.91</ele>
        <time>2020-07-10T09:59:43Z</time>
      </trkpt>
      <trkpt lat="47.75576" lon="-3.49912">
        <ele>25.94</ele>
        <time>2020-07-10T09:59:44Z</time>
      </trkpt>
      <trkpt lat="47.75575" lon="-3.49917">
        <ele>25.98</ele>
        <time>2020-07-10T09:59:45Z</time>
      </trkpt>
      <trkpt lat="47.75574" lon="-3.49921">
        <ele>25.99</ele>
        <time>2020-07-10T09:59:46Z</time>
      </trkpt>
      <trkpt lat="47.75574" lon="-3.49926">
        <ele>26</ele>
        <time>2020-07-10T09:59:47Z</time>
      </trkpt>
      <trkpt lat="47.75574" lon="-3.49932">
        <ele>26</ele>
        <time>2020-07-10T09:59:48Z</time>
      </trkpt>
      <trkpt lat="47.75574" lon="-3.49938">
        <ele>26</ele>
        <time>2020-07-10T09:59:49Z</time>
      </trkpt>
      <trkpt lat="47.75574" lon="-3.49945">
        <ele>26</ele>
        <time>2020-07-10T09:59:50Z</time>
      </trkpt>
      <trkpt lat="47.75574" lon="-3.49952">
        <ele>26</ele>
        <time>2020-07-10T09:59:51Z</time>
      </trkpt>
      <trkpt lat="47.75574" lon="-3.4996">
        <ele>26</ele>
        <time>2020-07-10T09:59:52Z</time>
      </trkpt>
      <trkpt lat="47.75574" lon="-3.49967">
        <ele>26</ele>
        <time>2020-07-10T09:59:53Z</time>
      </trkpt>
      <trkpt lat="47.75574" lon="-3.49974">
        <ele>26</ele>
        <time>2020-07-10T09:59:54Z</time>
      </trkpt>
      <trkpt lat="47.75574" lon="-3.49981">
        <ele>26</ele>
        <time>2020-07-10T09:59:55Z</time>
      </trkpt>
      <trkpt lat="47.75575" lon="-3.49988">
        <ele>26</ele>
        <time>2020-07-10T09:59:56Z</time>
      </trkpt>
      <trkpt lat="47.75575" lon="-3.49995">
        <ele>26</ele>
        <time>2020-07-10T09:59:57Z</time>
      </trkpt>
      <trkpt lat="47.75576" lon="-3.50003">
        <ele>25.95</ele>
        <time>2020-07-10T09:59:58Z</time>
      </trkpt>
      <trkpt lat="47.75576" lon="-3.5001">
        <ele>25.8</ele>
        <time>2020-07-10T09:59:59Z</time>
      </trkpt>
      <trkpt lat="47.75577" lon="-3.50017">
        <ele>25.62</ele>
        <time>2020-07-10T10:00:00Z</time>
      </trkpt>
      <trkpt lat="47.75577" lon="-3.50023">
        <ele>25.44</ele>
        <time>2020-07-10T10:00:01Z</time>
      </trkpt>
      <trkpt lat="47.75577" lon="-3.50027">
        <ele>25.3</ele>
        <time>2020-07-10T10:00:02Z</time>
      </trkpt>
      <trkpt lat="47.75578" lon="-3.5003">
        <ele>25.15</ele>
        <time>2020-07-10T10:00:03Z</time>
      </trkpt>
      <trkpt lat="47.75578" lon="-3.50031">
        <ele>25.05</ele>
        <time>2020-07-10T10:00:04Z</time>
      </trkpt>
      <trkpt lat="47.75578" lon="-3.50032">
        <ele>24.95</ele>
        <time>2020-07-10T10:00:05Z</time>
      </trkpt>
      <trkpt lat="47.75577" lon="-3.50034">
        <ele>24.85</ele>
        <time>2020-07-10T10:00:06Z</time>
      </trkpt>
      <trkpt lat="47.75576" lon="-3.50037">
        <ele>24.75</ele>
        <time>2020-07-10T10:00:07Z</time>
      </trkpt>
      <trkpt lat="47.75573" lon="-3.5004">
        <ele>24.65</ele>
        <time>2020-07-10T10:00:08Z</time>
      </trkpt>
      <trkpt lat="47.75571" lon="-3.50045">
        <ele>24.54</ele>
        <time>2020-07-10T10:00:09Z</time>
      </trkpt>
      <trkpt lat="47.75569" lon="-3.5005">
        <ele>24.4</ele>
        <time>2020-07-10T10:00:10Z</time>
      </trkpt>
      <trkpt lat="47.75566" lon="-3.50056">
        <ele>24.27</ele>
        <time>2020-07-10T10:00:11Z</time>
      </trkpt>
      <trkpt lat="47.75564" lon="-3.50062">
        <ele>24.21</ele>
        <time>2020-07-10T10:00:12Z</time>
      </trkpt>
      <trkpt lat="47.75561" lon="-3.50068">
        <ele>24.15</ele>
        <time>2020-07-10T10:00:13Z</time>
      </trkpt>
      <trkpt lat="47.7556" lon="-3.50073">
        <ele>24.08</ele>
        <time>2020-07-10T10:00:14Z</time>
      </trkpt>
      <trkpt lat="47.7556" lon="-3.50077">
        <ele>23.96</ele>
        <time>2020-07-10T10:00:15Z</time>
      </trkpt>
      <trkpt lat="47.75561" lon="-3.50082">
        <ele>23.75</ele>
        <time>2020-07-10T10:00:16Z</time>
      </trkpt>
      <trkpt lat="47.75563" lon="-3.50085">
        <ele>23.52</ele>
        <time>2020-07-10T10:00:17Z</time>
      </trkpt>
      <trkpt lat="47.75567" lon="-3.5009">
        <ele>23.2</ele>
        <time>2020-07-10T10:00:18Z</time>
      </trkpt>
      <trkpt lat="47.75572" lon="-3.50096">
        <ele>22.76</ele>
        <time>2020-07-10T10:00:19Z</time>
      </trkpt>
      <trkpt lat="47.75577" lon="-3.50102">
        <ele>22.17</ele>
        <time>2020-07-10T10:00:20Z</time>
      </trkpt>
      <trkpt lat="47.75583" lon="-3.50109">
        <ele>21.43</ele>
        <time>2020-07-10T10:00:21Z</time>
      </trkpt>
      <trkpt lat="47.75589" lon="-3.50116">
        <ele>20.87</ele>
        <time>2020-07-10T10:00:22Z</time>
      </trkpt>
      <trkpt lat="47.75594" lon="-3.50122">
        <ele>20.41</ele>
        <time>2020-07-10T10:00:23Z</time>
      </trkpt>
      <trkpt lat="47.75599" lon="-3.50129">
        <ele>20.02</ele>
        <time>2020-07-10T10:00:24Z</time>
      </trkpt>
      <trkpt lat="47.75605" lon="-3.50137">
        <ele>19.6</ele>
        <time>2020-07-10T10:00:25Z</time>
      </trkpt>
      <trkpt lat="47.75611" lon="-3.50144">
        <ele>19.06</ele>
        <time>2020-07-10T10:00:26Z</time>
      </trkpt>
      <trkpt lat="47.75617" lon="-3.50151">
        <ele>18.32</ele>
        <time>2020-07-10T10:00:27Z</time>
      </trkpt>
      <trkpt lat="47.75623" lon="-3.50158">
        <ele>17.62</ele>
        <time>2020-07-10T10:00:28Z</time>
      </trkpt>
      <trkpt lat="47.75629" lon="-3.50165">
        <ele>16.99</ele>
        <time>2020-07-10T10:00:29Z</time>
      </trkpt>
      <trkpt lat="47.75635" lon="-3.50172">
        <ele>16.52</ele>
        <time>2020-07-10T10:00:30Z</time>
      </trkpt>
      <trkpt lat="47.75639" lon="-3.5018">
        <ele>16.14</ele>
        <time>2020-07-10T10:00:31Z</time>
      </trkpt>
      <trkpt lat="47.75644" lon="-3.50188">
        <ele>15.91</ele>
        <time>2020-07-10T10:00:32Z</time>
      </trkpt>
      <trkpt lat="47.75648" lon="-3.50196">
        <ele>15.73</ele>
        <time>2020-07-10T10:00:33Z</time>
      </trkpt>
      <trkpt lat="47.75652" lon="-3.50204">
        <ele>15.58</ele>
        <time>2020-07-10T10:00:34Z</time>
      </trkpt>
      <trkpt lat="47.75656" lon="-3.50213">
        <ele>15.45</ele>
        <time>2020-07-10T10:00:35Z</time>
      </trkpt>
      <trkpt lat="47.75659" lon="-3.5022">
        <ele>15.32</ele>
        <time>2020-07-10T10:00:36Z</time>
      </trkpt>
      <trkpt lat="47.75663" lon="-3.50228">
        <ele>15.18</ele>
        <time>2020-07-10T10:00:37Z</time>
      </trkpt>
      <trkpt lat="47.75666" lon="-3.50235">
        <ele>15.06</ele>
        <time>2020-07-10T10:00:38Z</time>
      </trkpt>
      <trkpt lat="47.7567" lon="-3.50242">
        <ele>14.94</ele>
        <time>2020-07-10T10:00:39Z</time>
      </trkpt>
      <trkpt lat="47.75673" lon="-3.5025">
        <ele>14.82</ele>
        <time>2020-07-10T10:00:40Z</time>
      </trkpt>
      <trkpt lat="47.75677" lon="-3.50257">
        <ele>14.58</ele>
        <time>2020-07-10T10:00:41Z</time>
      </trkpt>
      <trkpt lat="47.7568" lon="-3.50265">
        <ele>14.35</ele>
        <time>2020-07-10T10:00:42Z</time>
      </trkpt>
      <trkpt lat="47.75684" lon="-3.50272">
        <ele>14.16</ele>
        <time>2020-07-10T10:00:43Z</time>
      </trkpt>
      <trkpt lat="47.75687" lon="-3.50279">
        <ele>14.01</ele>
        <time>2020-07-10T10:00:44Z</time>
      </trkpt>
      <trkpt lat="47.75691" lon="-3.50287">
        <ele>13.77</ele>
        <time>2020-07-10T10:00:45Z</time>
      </trkpt>
      <trkpt lat="47.75694" lon="-3.50294">
        <ele>13.52</ele>
        <time>2020-07-10T10:00:46Z</time>
      </trkpt>
      <trkpt lat="47.75698" lon="-3.50302">
        <ele>13.24</ele>
        <time>2020-07-10T10:00:47Z</time>
      </trkpt>
      <trkpt lat="47.75701" lon="-3.50309">
        <ele>13</ele>
        <time>2020-07-10T10:00:48Z</time>
      </trkpt>
      <trkpt lat="47.75705" lon="-3.50317">
        <ele>12.82</ele>
        <time>2020-07-10T10:00:49Z</time>
      </trkpt>
      <trkpt lat="47.75708" lon="-3.50324">
        <ele>12.71</ele>
        <time>2020-07-10T10:00:50Z</time>
      </trkpt>
      <trkpt lat="47.75712" lon="-3.50332">
        <ele>12.67</ele>
        <time>2020-07-10T10:00:51Z</time>
      </trkpt>
      <trkpt lat="47.75715" lon="-3.50339">
        <ele>12.53</ele>
        <time>2020-07-10T10:00:52Z</time>
      </trkpt>
      <trkpt lat="47.75719" lon="-3.50347">
        <ele>12.37</ele>
        <time>2020-07-10T10:00:53Z</time>
      </trkpt>
      <trkpt lat="47.75722" lon="-3.50355">
        <ele>12.25</ele>
        <time>2020-07-10T10:00:54Z</time>
      </trkpt>
      <trkpt lat="47.75726" lon="-3.50363">
        <ele>12.03</ele>
        <time>2020-07-10T10:00:55Z</time>
      </trkpt>
      <trkpt lat="47.75729" lon="-3.50371">
        <ele>11.82</ele>
        <time>2020-07-10T10:00:56Z</time>
      </trkpt>
      <trkpt lat="47.75732" lon="-3.50379">
        <ele>11.66</ele>
        <time>2020-07-10T10:00:57Z</time>
      </trkpt>
      <trkpt lat="47.75736" lon="-3.50387">
        <ele>11.56</ele>
        <time>2020-07-10T10:00:58Z</time>
      </trkpt>
      <trkpt lat="47.75739" lon="-3.50395">
        <ele>11.44</ele>
        <time>2020-07-10T10:00:59Z</time>
      </trkpt>
      <trkpt lat="47.75743" lon="-3.50403">
        <ele>11.3</ele>
        <time>2020-07-10T10:01:00Z</time>
      </trkpt>
      <trkpt lat="47.75747" lon="-3.50411">
        <ele>11.16</ele>
        <time>2020-07-10T10:01:01Z</time>
      </trkpt>
      <trkpt lat="47.7575" lon="-3.50418">
        <ele>11.02</ele>
        <time>2020-07-10T10:01:02Z</time>
      </trkpt>
      <trkpt lat="47.75754" lon="-3.50425">
        <ele>10.8</ele>
        <time>2020-07-10T10:01:03Z</time>
      </trkpt>
      <trkpt lat="47.75757" lon="-3.50432">
        <ele>10.56</ele>
        <time>2020-07-10T10:01:04Z</time>
      </trkpt>
      <trkpt lat="47.7576" lon="-3.50439">
        <ele>10.32</ele>
        <time>2020-07-10T10:01:05Z</time>
      </trkpt>
      <trkpt lat="47.75762" lon="-3.50445">
        <ele>10.09</ele>
        <time>2020-07-10T10:01:06Z</time>
      </trkpt>
      <trkpt lat="47.75765" lon="-3.50452">
        <ele>9.94</ele>
        <time>2020-07-10T10:01:07Z</time>
      </trkpt>
      <trkpt lat="47.75768" lon="-3.50459">
        <ele>9.85</ele>
        <time>2020-07-10T10:01:08Z</time>
      </trkpt>
      <trkpt lat="47.7577" lon="-3.50465">
        <ele>9.82</ele>
        <time>2020-07-10T10:01:09Z</time>
      </trkpt>
      <trkpt lat="47.75773" lon="-3.50473">
        <ele>9.84</ele>
        <time>2020-07-10T10:01:10Z</time>
      </trkpt>
      <trkpt lat="47.75776" lon="-3.5048">
        <ele>9.91</ele>
        <time>2020-07-10T10:01:11Z</time>
      </trkpt>
      <trkpt lat="47.7578" lon="-3.50487">
        <ele>9.93</ele>
        <time>2020-07-10T10:01:12Z</time>
      </trkpt>
      <trkpt lat="47.75783" lon="-3.50495">
        <ele>9.85</ele>
        <time>2020-07-10T10:01:13Z</time>
      </trkpt>
      <trkpt lat="47.75786" lon="-3.50502">
        <ele>9.68</ele>
        <time>2020-07-10T10:01:14Z</time>
      </trkpt>
      <trkpt lat="47.7579" lon="-3.50508">
        <ele>9.3</ele>
        <time>2020-07-10T10:01:15Z</time>
      </trkpt>
      <trkpt lat="47.75793" lon="-3.50515">
        <ele>8.86</ele>
        <time>2020-07-10T10:01:16Z</time>
      </trkpt>
      <trkpt lat="47.75795" lon="-3.50519">
        <ele>8.42</ele>
        <time>2020-07-10T10:01:17Z</time>
      </trkpt>
      <trkpt lat="47.75799" lon="-3.50521">
        <ele>8.05</ele>
        <time>2020-07-10T10:01:18Z</time>
      </trkpt>
      <trkpt lat="47.75802" lon="-3.50522">
        <ele>7.8</ele>
        <time>2020-07-10T10:01:19Z</time>
      </trkpt>
      <trkpt lat="47.75805" lon="-3.50519">
        <ele>7.71</ele>
        <time>2020-07-10T10:01:20Z</time>
      </trkpt>
      <trkpt lat="47.75808" lon="-3.50514">
        <ele>7.74</ele>
        <time>2020-07-10T10:01:21Z</time>
      </trkpt>
      <trkpt lat="47.75811" lon="-3.50509">
        <ele>7.78</ele>
        <time>2020-07-10T10:01:22Z</time>
      </trkpt>
      <trkpt lat="47.75815" lon="-3.50503">
        <ele>7.79</ele>
        <time>2020-07-10T10:01:23Z</time>
      </trkpt>
      <trkpt lat="47.75818" lon="-3.505">
        <ele>7.69</ele>
        <time>2020-07-10T10:01:24Z</time>
      </trkpt>
      <trkpt lat="47.75822" lon="-3.50499">
        <ele>7.4</ele>
        <time>2020-07-10T10:01:25Z</time>
      </trkpt>
      <trkpt lat="47.75825" lon="-3.505">
        <ele>7.03</ele>
        <time>2020-07-10T10:01:26Z</time>
      </trkpt>
      <trkpt lat="47.75829" lon="-3.505">
        <ele>6.59</ele>
        <time>2020-07-10T10:01:27Z</time>
      </trkpt>
      <trkpt lat="47.75833" lon="-3.50498">
        <ele>6.22</ele>
        <time>2020-07-10T10:01:28Z</time>
      </trkpt>
      <trkpt lat="47.75838" lon="-3.50494">
        <ele>5.93</ele>
        <time>2020-07-10T10:01:29Z</time>
      </trkpt>
      <trkpt lat="47.75842" lon="-3.5049">
        <ele>5.68</ele>
        <time>2020-07-10T10:01:30Z</time>
      </trkpt>
      <trkpt lat="47.75846" lon="-3.50486">
        <ele>5.45</ele>
        <time>2020-07-10T10:01:31Z</time>
      </trkpt>
      <trkpt lat="47.7585" lon="-3.50481">
        <ele>5.31</ele>
        <time>2020-07-10T10:01:32Z</time>
      </trkpt>
      <trkpt lat="47.75854" lon="-3.50476">
        <ele>5.25</ele>
        <time>2020-07-10T10:01:33Z</time>
      </trkpt>
      <trkpt lat="47.75858" lon="-3.50473">
        <ele>5.21</ele>
        <time>2020-07-10T10:01:34Z</time>
      </trkpt>
      <trkpt lat="47.75861" lon="-3.5047">
        <ele>5.21</ele>
        <time>2020-07-10T10:01:35Z</time>
      </trkpt>
      <trkpt lat="47.75864" lon="-3.50466">
        <ele>5.22</ele>
        <time>2020-07-10T10:01:36Z</time>
      </trkpt>
      <trkpt lat="47.75868" lon="-3.50463">
        <ele>5.16</ele>
        <time>2020-07-10T10:01:37Z</time>
      </trkpt>
      <trkpt lat="47.75871" lon="-3.50459">
        <ele>5.08</ele>
        <time>2020-07-10T10:01:38Z</time>
      </trkpt>
      <trkpt lat="47.75875" lon="-3.50454">
        <ele>4.97</ele>
        <time>2020-07-10T10:01:39Z</time>
      </trkpt>
      <trkpt lat="47.75879" lon="-3.5045">
        <ele>4.85</ele>
        <time>2020-07-10T10:01:40Z</time>
      </trkpt>
      <trkpt lat="47.75882" lon="-3.50445">
        <ele>4.72</ele>
        <time>2020-07-10T10:01:41Z</time>
      </trkpt>
      <trkpt lat="47.75886" lon="-3.5044">
        <ele>4.56</ele>
        <time>2020-07-10T10:01:42Z</time>
      </trkpt>
      <trkpt lat="47.75888" lon="-3.50434">
        <ele>4.46</ele>
        <time>2020-07-10T10:01:43Z</time>
      </trkpt>
      <trkpt lat="47.75891" lon="-3.50427">
        <ele>4.46</ele>
        <time>2020-07-10T10:01:44Z</time>
      </trkpt>
      <trkpt lat="47.75893" lon="-3.5042">
        <ele>4.55</ele>
        <time>2020-07-10T10:01:45Z</time>
      </trkpt>
      <trkpt lat="47.75895" lon="-3.50413">
        <ele>4.64</ele>
        <time>2020-07-10T10:01:46Z</time>
      </trkpt>
      <trkpt lat="47.75897" lon="-3.50407">
        <ele>4.63</ele>
        <time>2020-07-10T10:01:47Z</time>
      </trkpt>
      <trkpt lat="47.759" lon="-3.504">
        <ele>4.57</ele>
        <time>2020-07-10T10:01:48Z</time>
      </trkpt>
      <trkpt lat="47.75902" lon="-3.50393">
        <ele>4.51</ele>
        <time>2020-07-10T10:01:49Z</time>
      </trkpt>
      <trkpt lat="47.75904" lon="-3.50385">
        <ele>4.41</ele>
        <time>2020-07-10T10:01:50Z</time>
      </trkpt>
      <trkpt lat="47.75906" lon="-3.50377">
        <ele>4.24</ele>
        <time>2020-07-10T10:01:51Z</time>
      </trkpt>
      <trkpt lat="47.75907" lon="-3.5037">
        <ele>4.09</ele>
        <time>2020-07-10T10:01:52Z</time>
      </trkpt>
      <trkpt lat="47.75908" lon="-3.50361">
        <ele>3.94</ele>
        <time>2020-07-10T10:01:53Z</time>
      </trkpt>
      <trkpt lat="47.75909" lon="-3.50354">
        <ele>3.79</ele>
        <time>2020-07-10T10:01:54Z</time>
      </trkpt>
      <trkpt lat="47.7591" lon="-3.50347">
        <ele>3.66</ele>
        <time>2020-07-10T10:01:55Z</time>
      </trkpt>
      <trkpt lat="47.75911" lon="-3.50339">
        <ele>3.51</ele>
        <time>2020-07-10T10:01:56Z</time>
      </trkpt>
      <trkpt lat="47.75912" lon="-3.50331">
        <ele>3.39</ele>
        <time>2020-07-10T10:01:57Z</time>
      </trkpt>
      <trkpt lat="47.75913" lon="-3.50323">
        <ele>3.27</ele>
        <time>2020-07-10T10:01:58Z</time>
      </trkpt>
      <trkpt lat="47.75914" lon="-3.50316">
        <ele>3.16</ele>
        <time>2020-07-10T10:01:59Z</time>
      </trkpt>
      <trkpt lat="47.75916" lon="-3.5031">
        <ele>3.06</ele>
        <time>2020-07-10T10:02:00Z</time>
      </trkpt>
      <trkpt lat="47.75919" lon="-3.50303">
        <ele>2.97</ele>
        <time>2020-07-10T10:02:01Z</time>
      </trkpt>
      <trkpt lat="47.7592" lon="-3.50296">
        <ele>2.91</ele>
        <time>2020-07-10T10:02:02Z</time>
      </trkpt>
      <trkpt lat="47.75921" lon="-3.50289">
        <ele>2.86</ele>
        <time>2020-07-10T10:02:03Z</time>
      </trkpt>
      <trkpt lat="47.75922" lon="-3.50282">
        <ele>2.83</ele>
        <time>2020-07-10T10:02:04Z</time>
      </trkpt>
      <trkpt lat="47.75921" lon="-3.50275">
        <ele>2.83</ele>
        <time>2020-07-10T10:02:05Z</time>
      </trkpt>
      <trkpt lat="47.75919" lon="-3.50269">
        <ele>2.88</ele>
        <time>2020-07-10T10:02:06Z</time>
      </trkpt>
      <trkpt lat="47.75918" lon="-3.50266">
        <ele>2.94</ele>
        <time>2020-07-10T10:02:07Z</time>
      </trkpt>
      <trkpt lat="47.75917" lon="-3.50262">
        <ele>2.98</ele>
        <time>2020-07-10T10:02:08Z</time>
      </trkpt>
      <trkpt lat="47.75916" lon="-3.50258">
        <ele>2.99</ele>
        <time>2020-07-10T10:02:09Z</time>
      </trkpt>
      <trkpt lat="47.75915" lon="-3.50256">
        <ele>3</ele>
        <time>2020-07-10T10:02:10Z</time>
      </trkpt>
      <trkpt lat="47.75915" lon="-3.50253">
        <ele>3</ele>
        <time>2020-07-10T10:02:11Z</time>
      </trkpt>
      <trkpt lat="47.75915" lon="-3.5025">
        <ele>3</ele>
        <time>2020-07-10T10:02:12Z</time>
      </trkpt>
      <trkpt lat="47.75915" lon="-3.50246">
        <ele>3</ele>
        <time>2020-07-10T10:02:13Z</time>
      </trkpt>
      <trkpt lat="47.75915" lon="-3.50242">
        <ele>3</ele>
        <time>2020-07-10T10:02:14Z</time>
      </trkpt>
      <trkpt lat="47.75915" lon="-3.50239">
        <ele>3</ele>
        <time>2020-07-10T10:02:15Z</time>
      </trkpt>
      <trkpt lat="47.75914" lon="-3.50235">
        <ele>3</ele>
        <time>2020-07-10T10:02:16Z</time>
      </trkpt>
      <trkpt lat="47.75915" lon="-3.50231">
        <ele>3</ele>
        <time>2020-07-10T10:02:17Z</time>
      </trkpt>
      <trkpt lat="47.75915" lon="-3.50227">
        <ele>3</ele>
        <time>2020-07-10T10:02:18Z</time>
      </trkpt>
      <trkpt lat="47.75917" lon="-3.50223">
        <ele>3</ele>
        <time>2020-07-10T10:02:19Z</time>
      </trkpt>
      <trkpt lat="47.75919" lon="-3.50218">
        <ele>3.01</ele>
        <time>2020-07-10T10:02:20Z</time>
      </trkpt>
      <trkpt lat="47.7592" lon="-3.50213">
        <ele>3.03</ele>
        <time>2020-07-10T10:02:21Z</time>
      </trkpt>
      <trkpt lat="47.75921" lon="-3.5021">
        <ele>3.06</ele>
        <time>2020-07-10T10:02:22Z</time>
      </trkpt>
      <trkpt lat="47.75922" lon="-3.50204">
        <ele>3.11</ele>
        <time>2020-07-10T10:02:23Z</time>
      </trkpt>
      <trkpt lat="47.75922" lon="-3.50197">
        <ele>3.16</ele>
        <time>2020-07-10T10:02:24Z</time>
      </trkpt>
      <trkpt lat="47.75922" lon="-3.50193">
        <ele>3.23</ele>
        <time>2020-07-10T10:02:25Z</time>
      </trkpt>
      <trkpt lat="47.7592" lon="-3.50187">
        <ele>3.32</ele>
        <time>2020-07-10T10:02:26Z</time>
      </trkpt>
      <trkpt lat="47.75918" lon="-3.50179">
        <ele>3.5</ele>
        <time>2020-07-10T10:02:27Z</time>
      </trkpt>
      <trkpt lat="47.75916" lon="-3.50171">
        <ele>3.73</ele>
        <time>2020-07-10T10:02:28Z</time>
      </trkpt>
      <trkpt lat="47.75918" lon="-3.50166">
        <ele>3.93</ele>
        <time>2020-07-10T10:02:29Z</time>
      </trkpt>
      <trkpt lat="47.7592" lon="-3.50161">
        <ele>4.12</ele>
        <time>2020-07-10T10:02:30Z</time>
      </trkpt>
      <trkpt lat="47.75923" lon="-3.50158">
        <ele>4.25</ele>
        <time>2020-07-10T10:02:31Z</time>
      </trkpt>
      <trkpt lat="47.75926" lon="-3.50155">
        <ele>4.37</ele>
        <time>2020-07-10T10:02:32Z</time>
      </trkpt>
      <trkpt lat="47.75928" lon="-3.50151">
        <ele>4.52</ele>
        <time>2020-07-10T10:02:33Z</time>
      </trkpt>
      <trkpt lat="47.7593" lon="-3.50144">
        <ele>4.72</ele>
        <time>2020-07-10T10:02:34Z</time>
      </trkpt>
      <trkpt lat="47.75932" lon="-3.50138">
        <ele>4.93</ele>
        <time>2020-07-10T10:02:35Z</time>
      </trkpt>
      <trkpt lat="47.75934" lon="-3.50134">
        <ele>5.1</ele>
        <time>2020-07-10T10:02:36Z</time>
      </trkpt>
      <trkpt lat="47.75937" lon="-3.5013">
        <ele>5.25</ele>
        <time>2020-07-10T10:02:37Z</time>
      </trkpt>
      <trkpt lat="47.7594" lon="-3.50126">
        <ele>5.4</ele>
        <time>2020-07-10T10:02:38Z</time>
      </trkpt>
      <trkpt lat="47.75943" lon="-3.50121">
        <ele>5.57</ele>
        <time>2020-07-10T10:02:39Z</time>
      </trkpt>
      <trkpt lat="47.75946" lon="-3.50117">
        <ele>5.73</ele>
        <time>2020-07-10T10:02:40Z</time>
      </trkpt>
      <trkpt lat="47.75949" lon="-3.50113">
        <ele>5.88</ele>
        <time>2020-07-10T10:02:41Z</time>
      </trkpt>
      <trkpt lat="47.75951" lon="-3.50109">
        <ele>6.03</ele>
        <time>2020-07-10T10:02:42Z</time>
      </trkpt>
      <trkpt lat="47.75954" lon="-3.50105">
        <ele>6.23</ele>
        <time>2020-07-10T10:02:43Z</time>
      </trkpt>
      <trkpt lat="47.75957" lon="-3.50101">
        <ele>6.44</ele>
        <time>2020-07-10T10:02:44Z</time>
      </trkpt>
      <trkpt lat="47.75961" lon="-3.50097">
        <ele>6.7</ele>
        <time>2020-07-10T10:02:45Z</time>
      </trkpt>
      <trkpt lat="47.75964" lon="-3.50093">
        <ele>7</ele>
        <time>2020-07-10T10:02:46Z</time>
      </trkpt>
      <trkpt lat="47.75967" lon="-3.50088">
        <ele>7.36</ele>
        <time>2020-07-10T10:02:47Z</time>
      </trkpt>
      <trkpt lat="47.7597" lon="-3.50083">
        <ele>7.76</ele>
        <time>2020-07-10T10:02:48Z</time>
      </trkpt>
      <trkpt lat="47.75974" lon="-3.50079">
        <ele>7.88</ele>
        <time>2020-07-10T10:02:49Z</time>
      </trkpt>
      <trkpt lat="47.75977" lon="-3.50075">
        <ele>7.84</ele>
        <time>2020-07-10T10:02:50Z</time>
      </trkpt>
      <trkpt lat="47.75981" lon="-3.5007">
        <ele>7.74</ele>
        <time>2020-07-10T10:02:51Z</time>
      </trkpt>
      <trkpt lat="47.75984" lon="-3.50066">
        <ele>7.63</ele>
        <time>2020-07-10T10:02:52Z</time>
      </trkpt>
      <trkpt lat="47.75987" lon="-3.50061">
        <ele>7.51</ele>
        <time>2020-07-10T10:02:53Z</time>
      </trkpt>
      <trkpt lat="47.75991" lon="-3.50057">
        <ele>7.38</ele>
        <time>2020-07-10T10:02:54Z</time>
      </trkpt>
      <trkpt lat="47.75994" lon="-3.50052">
        <ele>7.27</ele>
        <time>2020-07-10T10:02:55Z</time>
      </trkpt>
      <trkpt lat="47.75998" lon="-3.50047">
        <ele>7.15</ele>
        <time>2020-07-10T10:02:56Z</time>
      </trkpt>
      <trkpt lat="47.76001" lon="-3.50042">
        <ele>7.01</ele>
        <time>2020-07-10T10:02:57Z</time>
      </trkpt>
      <trkpt lat="47.76005" lon="-3.50037">
        <ele>6.88</ele>
        <time>2020-07-10T10:02:58Z</time>
      </trkpt>
      <trkpt lat="47.76009" lon="-3.50033">
        <ele>6.74</ele>
        <time>2020-07-10T10:02:59Z</time>
      </trkpt>
      <trkpt lat="47.76013" lon="-3.50029">
        <ele>6.61</ele>
        <time>2020-07-10T10:03:00Z</time>
      </trkpt>
      <trkpt lat="47.76016" lon="-3.50024">
        <ele>6.47</ele>
        <time>2020-07-10T10:03:01Z</time>
      </trkpt>
      <trkpt lat="47.7602" lon="-3.5002">
        <ele>6.34</ele>
        <time>2020-07-10T10:03:02Z</time>
      </trkpt>
      <trkpt lat="47.76024" lon="-3.50016">
        <ele>6.2</ele>
        <time>2020-07-10T10:03:03Z</time>
      </trkpt>
      <trkpt lat="47.76028" lon="-3.50011">
        <ele>6.05</ele>
        <time>2020-07-10T10:03:04Z</time>
      </trkpt>
      <trkpt lat="47.76032" lon="-3.50006">
        <ele>5.89</ele>
        <time>2020-07-10T10:03:05Z</time>
      </trkpt>
      <trkpt lat="47.76036" lon="-3.50001">
        <ele>5.76</ele>
        <time>2020-07-10T10:03:06Z</time>
      </trkpt>
      <trkpt lat="47.76039" lon="-3.49996">
        <ele>5.76</ele>
        <time>2020-07-10T10:03:07Z</time>
      </trkpt>
      <trkpt lat="47.76043" lon="-3.49992">
        <ele>5.87</ele>
        <time>2020-07-10T10:03:08Z</time>
      </trkpt>
      <trkpt lat="47.76046" lon="-3.49987">
        <ele>6.04</ele>
        <time>2020-07-10T10:03:09Z</time>
      </trkpt>
      <trkpt lat="47.76049" lon="-3.49982">
        <ele>6.26</ele>
        <time>2020-07-10T10:03:10Z</time>
      </trkpt>
      <trkpt lat="47.7605" lon="-3.49977">
        <ele>6.56</ele>
        <time>2020-07-10T10:03:11Z</time>
      </trkpt>
      <trkpt lat="47.76051" lon="-3.4997">
        <ele>6.91</ele>
        <time>2020-07-10T10:03:12Z</time>
      </trkpt>
      <trkpt lat="47.76051" lon="-3.49964">
        <ele>7.17</ele>
        <time>2020-07-10T10:03:13Z</time>
      </trkpt>
      <trkpt lat="47.76051" lon="-3.49959">
        <ele>7.39</ele>
        <time>2020-07-10T10:03:14Z</time>
      </trkpt>
      <trkpt lat="47.7605" lon="-3.49954">
        <ele>7.59</ele>
        <time>2020-07-10T10:03:15Z</time>
      </trkpt>
      <trkpt lat="47.7605" lon="-3.49948">
        <ele>7.78</ele>
        <time>2020-07-10T10:03:16Z</time>
      </trkpt>
      <trkpt lat="47.76049" lon="-3.49944">
        <ele>7.95</ele>
        <time>2020-07-10T10:03:17Z</time>
      </trkpt>
      <trkpt lat="47.76049" lon="-3.4994">
        <ele>8.2</ele>
        <time>2020-07-10T10:03:18Z</time>
      </trkpt>
      <trkpt lat="47.76049" lon="-3.49935">
        <ele>8.5</ele>
        <time>2020-07-10T10:03:19Z</time>
      </trkpt>
      <trkpt lat="47.76049" lon="-3.4993">
        <ele>8.79</ele>
        <time>2020-07-10T10:03:20Z</time>
      </trkpt>
      <trkpt lat="47.76049" lon="-3.49925">
        <ele>9.09</ele>
        <time>2020-07-10T10:03:21Z</time>
      </trkpt>
      <trkpt lat="47.76049" lon="-3.49921">
        <ele>9.38</ele>
        <time>2020-07-10T10:03:22Z</time>
      </trkpt>
      <trkpt lat="47.76048" lon="-3.49916">
        <ele>9.65</ele>
        <time>2020-07-10T10:03:23Z</time>
      </trkpt>
      <trkpt lat="47.76048" lon="-3.49911">
        <ele>10</ele>
        <time>2020-07-10T10:03:24Z</time>
      </trkpt>
      <trkpt lat="47.76048" lon="-3.49907">
        <ele>10.32</ele>
        <time>2020-07-10T10:03:25Z</time>
      </trkpt>
      <trkpt lat="47.76048" lon="-3.49902">
        <ele>10.64</ele>
        <time>2020-07-10T10:03:26Z</time>
      </trkpt>
      <trkpt lat="47.76047" lon="-3.49898">
        <ele>10.95</ele>
        <time>2020-07-10T10:03:27Z</time>
      </trkpt>
      <trkpt lat="47.76047" lon="-3.49894">
        <ele>11.24</ele>
        <time>2020-07-10T10:03:28Z</time>
      </trkpt>
      <trkpt lat="47.76047" lon="-3.49889">
        <ele>11.53</ele>
        <time>2020-07-10T10:03:29Z</time>
      </trkpt>
      <trkpt lat="47.76047" lon="-3.49886">
        <ele>11.78</ele>
        <time>2020-07-10T10:03:30Z</time>
      </trkpt>
      <trkpt lat="47.76046" lon="-3.49882">
        <ele>12.01</ele>
        <time>2020-07-10T10:03:31Z</time>
      </trkpt>
      <trkpt lat="47.76047" lon="-3.49878">
        <ele>12.26</ele>
        <time>2020-07-10T10:03:32Z</time>
      </trkpt>
      <trkpt lat="47.76046" lon="-3.49873">
        <ele>12.51</ele>
        <time>2020-07-10T10:03:33Z</time>
      </trkpt>
      <trkpt lat="47.76046" lon="-3.49869">
        <ele>12.78</ele>
        <time>2020-07-10T10:03:34Z</time>
      </trkpt>
      <trkpt lat="47.76046" lon="-3.49865">
        <ele>13.03</ele>
        <time>2020-07-10T10:03:35Z</time>
      </trkpt>
      <trkpt lat="47.76046" lon="-3.4986">
        <ele>13.29</ele>
        <time>2020-07-10T10:03:36Z</time>
      </trkpt>
      <trkpt lat="47.76046" lon="-3.49856">
        <ele>13.59</ele>
        <time>2020-07-10T10:03:37Z</time>
      </trkpt>
      <trkpt lat="47.76046" lon="-3.49852">
        <ele>13.88</ele>
        <time>2020-07-10T10:03:38Z</time>
      </trkpt>
      <trkpt lat="47.76046" lon="-3.49848">
        <ele>14.16</ele>
        <time>2020-07-10T10:03:39Z</time>
      </trkpt>
      <trkpt lat="47.76046" lon="-3.49844">
        <ele>14.45</ele>
        <time>2020-07-10T10:03:40Z</time>
      </trkpt>
      <trkpt lat="47.76046" lon="-3.4984">
        <ele>14.74</ele>
        <time>2020-07-10T10:03:41Z</time>
      </trkpt>
      <trkpt lat="47.76046" lon="-3.49836">
        <ele>15.05</ele>
        <time>2020-07-10T10:03:42Z</time>
      </trkpt>
      <trkpt lat="47.76047" lon="-3.49831">
        <ele>15.4</ele>
        <time>2020-07-10T10:03:43Z</time>
      </trkpt>
      <trkpt lat="47.76047" lon="-3.49827">
        <ele>15.78</ele>
        <time>2020-07-10T10:03:44Z</time>
      </trkpt>
      <trkpt lat="47.76048" lon="-3.49823">
        <ele>16.12</ele>
        <time>2020-07-10T10:03:45Z</time>
      </trkpt>
      <trkpt lat="47.76048" lon="-3.49819">
        <ele>16.46</ele>
        <time>2020-07-10T10:03:46Z</time>
      </trkpt>
      <trkpt lat="47.76048" lon="-3.49815">
        <ele>16.8</ele>
        <time>2020-07-10T10:03:47Z</time>
      </trkpt>
      <trkpt lat="47.76048" lon="-3.49811">
        <ele>17.16</ele>
        <time>2020-07-10T10:03:48Z</time>
      </trkpt>
      <trkpt lat="47.76048" lon="-3.49806">
        <ele>17.51</ele>
        <time>2020-07-10T10:03:49Z</time>
      </trkpt>
      <trkpt lat="47.76049" lon="-3.49802">
        <ele>17.83</ele>
        <time>2020-07-10T10:03:50Z</time>
      </trkpt>
      <trkpt lat="47.76049" lon="-3.49797">
        <ele>18.13</ele>
        <time>2020-07-10T10:03:51Z</time>
      </trkpt>
      <trkpt lat="47.76049" lon="-3.49793">
        <ele>18.41</ele>
        <time>2020-07-10T10:03:52Z</time>
      </trkpt>
      <trkpt lat="47.76049" lon="-3.49789">
        <ele>18.7</ele>
        <time>2020-07-10T10:03:53Z</time>
      </trkpt>
      <trkpt lat="47.76049" lon="-3.49784">
        <ele>18.99</ele>
        <time>2020-07-10T10:03:54Z</time>
      </trkpt>
      <trkpt lat="47.76049" lon="-3.4978">
        <ele>19.27</ele>
        <time>2020-07-10T10:03:55Z</time>
      </trkpt>
      <trkpt lat="47.7605" lon="-3.49776">
        <ele>19.53</ele>
        <time>2020-07-10T10:03:56Z</time>
      </trkpt>
      <trkpt lat="47.76051" lon="-3.49772">
        <ele>19.75</ele>
        <time>2020-07-10T10:03:57Z</time>
      </trkpt>
      <trkpt lat="47.76051" lon="-3.49768">
        <ele>19.96</ele>
        <time>2020-07-10T10:03:58Z</time>
      </trkpt>
      <trkpt lat="47.76052" lon="-3.49763">
        <ele>20.16</ele>
        <time>2020-07-10T10:03:59Z</time>
      </trkpt>
      <trkpt lat="47.76052" lon="-3.49759">
        <ele>20.36</ele>
        <time>2020-07-10T10:04:00Z</time>
      </trkpt>
      <trkpt lat="47.76053" lon="-3.49754">
        <ele>20.56</ele>
        <time>2020-07-10T10:04:01Z</time>
      </trkpt>
      <trkpt lat="47.76053" lon="-3.4975">
        <ele>20.75</ele>
        <time>2020-07-10T10:04:02Z</time>
      </trkpt>
      <trkpt lat="47.76054" lon="-3.49746">
        <ele>21.02</ele>
        <time>2020-07-10T10:04:03Z</time>
      </trkpt>
      <trkpt lat="47.76055" lon="-3.49742">
        <ele>21.36</ele>
        <time>2020-07-10T10:04:04Z</time>
      </trkpt>
      <trkpt lat="47.76055" lon="-3.49738">
        <ele>21.7</ele>
        <time>2020-07-10T10:04:05Z</time>
      </trkpt>
      <trkpt lat="47.76056" lon="-3.49734">
        <ele>22.04</ele>
        <time>2020-07-10T10:04:06Z</time>
      </trkpt>
      <trkpt lat="47.76057" lon="-3.4973">
        <ele>22.36</ele>
        <time>2020-07-10T10:04:07Z</time>
      </trkpt>
      <trkpt lat="47.76058" lon="-3.49726">
        <ele>22.68</ele>
        <time>2020-07-10T10:04:08Z</time>
      </trkpt>
      <trkpt lat="47.76059" lon="-3.49722">
        <ele>23.01</ele>
        <time>2020-07-10T10:04:09Z</time>
      </trkpt>
      <trkpt lat="47.76061" lon="-3.49718">
        <ele>23.31</ele>
        <time>2020-07-10T10:04:10Z</time>
      </trkpt>
      <trkpt lat="47.76062" lon="-3.49714">
        <ele>23.6</ele>
        <time>2020-07-10T10:04:11Z</time>
      </trkpt>
      <trkpt lat="47.76062" lon="-3.4971">
        <ele>23.89</ele>
        <time>2020-07-10T10:04:12Z</time>
      </trkpt>
      <trkpt lat="47.76063" lon="-3.49706">
        <ele>24.18</ele>
        <time>2020-07-10T10:04:13Z</time>
      </trkpt>
      <trkpt lat="47.76064" lon="-3.49702">
        <ele>24.45</ele>
        <time>2020-07-10T10:04:14Z</time>
      </trkpt>
      <trkpt lat="47.76065" lon="-3.49698">
        <ele>24.7</ele>
        <time>2020-07-10T10:04:15Z</time>
      </trkpt>
      <trkpt lat="47.76066" lon="-3.49694">
        <ele>24.93</ele>
        <time>2020-07-10T10:04:16Z</time>
      </trkpt>
      <trkpt lat="47.76067" lon="-3.4969">
        <ele>25.1</ele>
        <time>2020-07-10T10:04:17Z</time>
      </trkpt>
      <trkpt lat="47.76068" lon="-3.49685">
        <ele>25.26</ele>
        <time>2020-07-10T10:04:18Z</time>
      </trkpt>
      <trkpt lat="47.76068" lon="-3.49681">
        <ele>25.41</ele>
        <time>2020-07-10T10:04:19Z</time>
      </trkpt>
      <trkpt lat="47.76069" lon="-3.49677">
        <ele>25.55</ele>
        <time>2020-07-10T10:04:20Z</time>
      </trkpt>
      <trkpt lat="47.76069" lon="-3.49673">
        <ele>25.7</ele>
        <time>2020-07-10T10:04:21Z</time>
      </trkpt>
      <trkpt lat="47.7607" lon="-3.49669">
        <ele>25.85</ele>
        <time>2020-07-10T10:04:22Z</time>
      </trkpt>
      <trkpt lat="47.76071" lon="-3.49665">
        <ele>26.04</ele>
        <time>2020-07-10T10:04:23Z</time>
      </trkpt>
      <trkpt lat="47.76071" lon="-3.4966">
        <ele>26.27</ele>
        <time>2020-07-10T10:04:24Z</time>
      </trkpt>
      <trkpt lat="47.76073" lon="-3.49656">
        <ele>26.53</ele>
        <time>2020-07-10T10:04:25Z</time>
      </trkpt>
      <trkpt lat="47.76074" lon="-3.49651">
        <ele>26.82</ele>
        <time>2020-07-10T10:04:26Z</time>
      </trkpt>
      <trkpt lat="47.76075" lon="-3.49646">
        <ele>27.14</ele>
        <time>2020-07-10T10:04:27Z</time>
      </trkpt>
      <trkpt lat="47.76077" lon="-3.49641">
        <ele>27.47</ele>
        <time>2020-07-10T10:04:28Z</time>
      </trkpt>
      <trkpt lat="47.76078" lon="-3.49637">
        <ele>27.76</ele>
        <time>2020-07-10T10:04:29Z</time>
      </trkpt>
      <trkpt lat="47.76079" lon="-3.49632">
        <ele>28</ele>
        <time>2020-07-10T10:04:30Z</time>
      </trkpt>
      <trkpt lat="47.7608" lon="-3.49628">
        <ele>28.22</ele>
        <time>2020-07-10T10:04:31Z</time>
      </trkpt>
      <trkpt lat="47.76081" lon="-3.49624">
        <ele>28.43</ele>
        <time>2020-07-10T10:04:32Z</time>
      </trkpt>
      <trkpt lat="47.76083" lon="-3.49619">
        <ele>28.62</ele>
        <time>2020-07-10T10:04:33Z</time>
      </trkpt>
      <trkpt lat="47.76084" lon="-3.49615">
        <ele>28.77</ele>
        <time>2020-07-10T10:04:34Z</time>
      </trkpt>
      <trkpt lat="47.76086" lon="-3.49611">
        <ele>28.88</ele>
        <time>2020-07-10T10:04:35Z</time>
      </trkpt>
      <trkpt lat="47.76087" lon="-3.49607">
        <ele>28.98</ele>
        <time>2020-07-10T10:04:36Z</time>
      </trkpt>
      <trkpt lat="47.76088" lon="-3.49603">
        <ele>29.09</ele>
        <time>2020-07-10T10:04:37Z</time>
      </trkpt>
      <trkpt lat="47.76089" lon="-3.49598">
        <ele>29.21</ele>
        <time>2020-07-10T10:04:38Z</time>
      </trkpt>
      <trkpt lat="47.7609" lon="-3.49594">
        <ele>29.33</ele>
        <time>2020-07-10T10:04:39Z</time>
      </trkpt>
      <trkpt lat="47.76091" lon="-3.49589">
        <ele>29.47</ele>
        <time>2020-07-10T10:04:40Z</time>
      </trkpt>
      <trkpt lat="47.76092" lon="-3.49584">
        <ele>29.61</ele>
        <time>2020-07-10T10:04:41Z</time>
      </trkpt>
      <trkpt lat="47.76093" lon="-3.49579">
        <ele>29.76</ele>
        <time>2020-07-10T10:04:42Z</time>
      </trkpt>
      <trkpt lat="47.76093" lon="-3.49575">
        <ele>29.9</ele>
        <time>2020-07-10T10:04:43Z</time>
      </trkpt>
      <trkpt lat="47.76094" lon="-3.49572">
        <ele>30</ele>
        <time>2020-07-10T10:04:44Z</time>
      </trkpt>
      <trkpt lat="47.76097" lon="-3.4957">
        <ele>29.99</ele>
        <time>2020-07-10T10:04:45Z</time>
      </trkpt>
      <trkpt lat="47.76101" lon="-3.49569">
        <ele>29.92</ele>
        <time>2020-07-10T10:04:46Z</time>
      </trkpt>
      <trkpt lat="47.76104" lon="-3.49571">
        <ele>29.77</ele>
        <time>2020-07-10T10:04:47Z</time>
      </trkpt>
      <trkpt lat="47.76108" lon="-3.49572">
        <ele>29.59</ele>
        <time>2020-07-10T10:04:48Z</time>
      </trkpt>
      <trkpt lat="47.76112" lon="-3.49572">
        <ele>29.42</ele>
        <time>2020-07-10T10:04:49Z</time>
      </trkpt>
      <trkpt lat="47.76117" lon="-3.49573">
        <ele>29.19</ele>
        <time>2020-07-10T10:04:50Z</time>
      </trkpt>
      <trkpt lat="47.76121" lon="-3.49574">
        <ele>28.95</ele>
        <time>2020-07-10T10:04:51Z</time>
      </trkpt>
      <trkpt lat="47.76126" lon="-3.49576">
        <ele>28.7</ele>
        <time>2020-07-10T10:04:52Z</time>
      </trkpt>
      <trkpt lat="47.7613" lon="-3.49577">
        <ele>28.47</ele>
        <time>2020-07-10T10:04:53Z</time>
      </trkpt>
      <trkpt lat="47.76134" lon="-3.49577">
        <ele>28.28</ele>
        <time>2020-07-10T10:04:54Z</time>
      </trkpt>
      <trkpt lat="47.76138" lon="-3.49574">
        <ele>28.13</ele>
        <time>2020-07-10T10:04:55Z</time>
      </trkpt>
      <trkpt lat="47.76141" lon="-3.4957">
        <ele>27.96</ele>
        <time>2020-07-10T10:04:56Z</time>
      </trkpt>
      <trkpt lat="47.76143" lon="-3.49566">
        <ele>27.76</ele>
        <time>2020-07-10T10:04:57Z</time>
      </trkpt>
      <trkpt lat="47.76146" lon="-3.49561">
        <ele>27.58</ele>
        <time>2020-07-10T10:04:58Z</time>
      </trkpt>
      <trkpt lat="47.76148" lon="-3.49556">
        <ele>27.41</ele>
        <time>2020-07-10T10:04:59Z</time>
      </trkpt>
      <trkpt lat="47.76151" lon="-3.49551">
        <ele>27.23</ele>
        <time>2020-07-10T10:05:00Z</time>
      </trkpt>
      <trkpt lat="47.76154" lon="-3.49546">
        <ele>27.03</ele>
        <time>2020-07-10T10:05:01Z</time>
      </trkpt>
      <trkpt lat="47.76156" lon="-3.49539">
        <ele>26.85</ele>
        <time>2020-07-10T10:05:02Z</time>
      </trkpt>
      <trkpt lat="47.76158" lon="-3.49531">
        <ele>26.71</ele>
        <time>2020-07-10T10:05:03Z</time>
      </trkpt>
      <trkpt lat="47.7616" lon="-3.49524">
        <ele>26.58</ele>
        <time>2020-07-10T10:05:04Z</time>
      </trkpt>
      <trkpt lat="47.76163" lon="-3.49517">
        <ele>26.42</ele>
        <time>2020-07-10T10:05:05Z</time>
      </trkpt>
      <trkpt lat="47.76166" lon="-3.4951">
        <ele>26.19</ele>
        <time>2020-07-10T10:05:06Z</time>
      </trkpt>
      <trkpt lat="47.76169" lon="-3.49503">
        <ele>25.91</ele>
        <time>2020-07-10T10:05:07Z</time>
      </trkpt>
      <trkpt lat="47.76171" lon="-3.49495">
        <ele>25.72</ele>
        <time>2020-07-10T10:05:08Z</time>
      </trkpt>
      <trkpt lat="47.76174" lon="-3.49488">
        <ele>25.69</ele>
        <time>2020-07-10T10:05:09Z</time>
      </trkpt>
      <trkpt lat="47.76176" lon="-3.4948">
        <ele>25.69</ele>
        <time>2020-07-10T10:05:10Z</time>
      </trkpt>
      <trkpt lat="47.76179" lon="-3.49472">
        <ele>25.65</ele>
        <time>2020-07-10T10:05:11Z</time>
      </trkpt>
      <trkpt lat="47.76182" lon="-3.49465">
        <ele>25.51</ele>
        <time>2020-07-10T10:05:12Z</time>
      </trkpt>
      <trkpt lat="47.76185" lon="-3.49458">
        <ele>25.4</ele>
        <time>2020-07-10T10:05:13Z</time>
      </trkpt>
      <trkpt lat="47.76188" lon="-3.49452">
        <ele>25.32</ele>
        <time>2020-07-10T10:05:14Z</time>
      </trkpt>
      <trkpt lat="47.76191" lon="-3.49447">
        <ele>25.22</ele>
        <time>2020-07-10T10:05:15Z</time>
      </trkpt>
      <trkpt lat="47.76196" lon="-3.49444">
        <ele>24.94</ele>
        <time>2020-07-10T10:05:16Z</time>
      </trkpt>
      <trkpt lat="47.76203" lon="-3.49445">
        <ele>24.36</ele>
        <time>2020-07-10T10:05:17Z</time>
      </trkpt>
      <trkpt lat="47.76209" lon="-3.49448">
        <ele>23.66</ele>
        <time>2020-07-10T10:05:18Z</time>
      </trkpt>
      <trkpt lat="47.76215" lon="-3.49452">
        <ele>22.87</ele>
        <time>2020-07-10T10:05:19Z</time>
      </trkpt>
      <trkpt lat="47.7622" lon="-3.49457">
        <ele>22.11</ele>
        <time>2020-07-10T10:05:20Z</time>
      </trkpt>
      <trkpt lat="47.76226" lon="-3.49462">
        <ele>21.47</ele>
        <time>2020-07-10T10:05:21Z</time>
      </trkpt>
      <trkpt lat="47.76232" lon="-3.49467">
        <ele>20.98</ele>
        <time>2020-07-10T10:05:22Z</time>
      </trkpt>
      <trkpt lat="47.76238" lon="-3.49473">
        <ele>20.58</ele>
        <time>2020-07-10T10:05:23Z</time>
      </trkpt>
      <trkpt lat="47.76244" lon="-3.49479">
        <ele>20.19</ele>
        <time>2020-07-10T10:05:24Z</time>
      </trkpt>
      <trkpt lat="47.76251" lon="-3.49485">
        <ele>19.68</ele>
        <time>2020-07-10T10:05:25Z</time>
      </trkpt>
      <trkpt lat="47.76259" lon="-3.49491">
        <ele>19</ele>
        <time>2020-07-10T10:05:26Z</time>
      </trkpt>
      <trkpt lat="47.76266" lon="-3.49497">
        <ele>18.3</ele>
        <time>2020-07-10T10:05:27Z</time>
      </trkpt>
      <trkpt lat="47.76273" lon="-3.49503">
        <ele>17.55</ele>
        <time>2020-07-10T10:05:28Z</time>
      </trkpt>
      <trkpt lat="47.76281" lon="-3.49508">
        <ele>16.85</ele>
        <time>2020-07-10T10:05:29Z</time>
      </trkpt>
      <trkpt lat="47.76289" lon="-3.49514">
        <ele>16.19</ele>
        <time>2020-07-10T10:05:30Z</time>
      </trkpt>
      <trkpt lat="47.76297" lon="-3.4952">
        <ele>15.45</ele>
        <time>2020-07-10T10:05:31Z</time>
      </trkpt>
      <trkpt lat="47.76305" lon="-3.49526">
        <ele>14.58</ele>
        <time>2020-07-10T10:05:32Z</time>
      </trkpt>
      <trkpt lat="47.76313" lon="-3.49532">
        <ele>13.96</ele>
        <time>2020-07-10T10:05:33Z</time>
      </trkpt>
      <trkpt lat="47.76321" lon="-3.49539">
        <ele>13.46</ele>
        <time>2020-07-10T10:05:34Z</time>
      </trkpt>
      <trkpt lat="47.76328" lon="-3.49545">
        <ele>12.93</ele>
        <time>2020-07-10T10:05:35Z</time>
      </trkpt>
      <trkpt lat="47.76336" lon="-3.49554">
        <ele>12.1</ele>
        <time>2020-07-10T10:05:36Z</time>
      </trkpt>
      <trkpt lat="47.76343" lon="-3.49563">
        <ele>11.26</ele>
        <time>2020-07-10T10:05:37Z</time>
      </trkpt>
      <trkpt lat="47.76349" lon="-3.49571">
        <ele>10.35</ele>
        <time>2020-07-10T10:05:38Z</time>
      </trkpt>
      <trkpt lat="47.76356" lon="-3.49578">
        <ele>9.3</ele>
        <time>2020-07-10T10:05:39Z</time>
      </trkpt>
      <trkpt lat="47.76363" lon="-3.49581">
        <ele>8.29</ele>
        <time>2020-07-10T10:05:40Z</time>
      </trkpt>
      <trkpt lat="47.76368" lon="-3.49583">
        <ele>7.55</ele>
        <time>2020-07-10T10:05:41Z</time>
      </trkpt>
      <trkpt lat="47.76372" lon="-3.49581">
        <ele>7.05</ele>
        <time>2020-07-10T10:05:42Z</time>
      </trkpt>
      <trkpt lat="47.76376" lon="-3.49579">
        <ele>6.65</ele>
        <time>2020-07-10T10:05:43Z</time>
      </trkpt>
      <trkpt lat="47.76379" lon="-3.49577">
        <ele>6.29</ele>
        <time>2020-07-10T10:05:44Z</time>
      </trkpt>
      <trkpt lat="47.7638" lon="-3.49573">
        <ele>6.12</ele>
        <time>2020-07-10T10:05:45Z</time>
      </trkpt>
      <trkpt lat="47.7638" lon="-3.49567">
        <ele>6.11</ele>
        <time>2020-07-10T10:05:46Z</time>
      </trkpt>
      <trkpt lat="47.76381" lon="-3.4956">
        <ele>6.13</ele>
        <time>2020-07-10T10:05:47Z</time>
      </trkpt>
      <trkpt lat="47.76381" lon="-3.49551">
        <ele>6.31</ele>
        <time>2020-07-10T10:05:48Z</time>
      </trkpt>
      <trkpt lat="47.7638" lon="-3.49544">
        <ele>6.61</ele>
        <time>2020-07-10T10:05:49Z</time>
      </trkpt>
      <trkpt lat="47.76381" lon="-3.49537">
        <ele>6.84</ele>
        <time>2020-07-10T10:05:50Z</time>
      </trkpt>
      <trkpt lat="47.76382" lon="-3.4953">
        <ele>7.02</ele>
        <time>2020-07-10T10:05:51Z</time>
      </trkpt>
      <trkpt lat="47.76384" lon="-3.49521">
        <ele>7.12</ele>
        <time>2020-07-10T10:05:52Z</time>
      </trkpt>
      <trkpt lat="47.76385" lon="-3.49514">
        <ele>7.18</ele>
        <time>2020-07-10T10:05:53Z</time>
      </trkpt>
      <trkpt lat="47.76386" lon="-3.49506">
        <ele>7.25</ele>
        <time>2020-07-10T10:05:54Z</time>
      </trkpt>
      <trkpt lat="47.76387" lon="-3.49499">
        <ele>7.25</ele>
        <time>2020-07-10T10:05:55Z</time>
      </trkpt>
      <trkpt lat="47.76388" lon="-3.49492">
        <ele>7.13</ele>
        <time>2020-07-10T10:05:56Z</time>
      </trkpt>
      <trkpt lat="47.76388" lon="-3.49484">
        <ele>7.14</ele>
        <time>2020-07-10T10:05:57Z</time>
      </trkpt>
      <trkpt lat="47.76389" lon="-3.49478">
        <ele>7.03</ele>
        <time>2020-07-10T10:05:58Z</time>
      </trkpt>
      <trkpt lat="47.7639" lon="-3.49472">
        <ele>6.94</ele>
        <time>2020-07-10T10:05:59Z</time>
      </trkpt>
      <trkpt lat="47.7639" lon="-3.49466">
        <ele>6.9</ele>
        <time>2020-07-10T10:06:00Z</time>
      </trkpt>
      <trkpt lat="47.76393" lon="-3.49461">
        <ele>6.79</ele>
        <time>2020-07-10T10:06:01Z</time>
      </trkpt>
      <trkpt lat="47.76396" lon="-3.49458">
        <ele>6.59</ele>
        <time>2020-07-10T10:06:02Z</time>
      </trkpt>
      <trkpt lat="47.764" lon="-3.49456">
        <ele>6.33</ele>
        <time>2020-07-10T10:06:03Z</time>
      </trkpt>
      <trkpt lat="47.76403" lon="-3.49453">
        <ele>6.07</ele>
        <time>2020-07-10T10:06:04Z</time>
      </trkpt>
      <trkpt lat="47.76406" lon="-3.49448">
        <ele>5.84</ele>
        <time>2020-07-10T10:06:05Z</time>
      </trkpt>
      <trkpt lat="47.76409" lon="-3.49443">
        <ele>5.66</ele>
        <time>2020-07-10T10:06:06Z</time>
      </trkpt>
      <trkpt lat="47.76414" lon="-3.49436">
        <ele>5.54</ele>
        <time>2020-07-10T10:06:07Z</time>
      </trkpt>
      <trkpt lat="47.76418" lon="-3.49429">
        <ele>5.49</ele>
        <time>2020-07-10T10:06:08Z</time>
      </trkpt>
      <trkpt lat="47.76421" lon="-3.49421">
        <ele>5.54</ele>
        <time>2020-07-10T10:06:09Z</time>
      </trkpt>
      <trkpt lat="47.76422" lon="-3.49413">
        <ele>5.66</ele>
        <time>2020-07-10T10:06:10Z</time>
      </trkpt>
      <trkpt lat="47.76423" lon="-3.49405">
        <ele>5.78</ele>
        <time>2020-07-10T10:06:11Z</time>
      </trkpt>
      <trkpt lat="47.76423" lon="-3.49399">
        <ele>5.94</ele>
        <time>2020-07-10T10:06:12Z</time>
      </trkpt>
      <trkpt lat="47.76423" lon="-3.49394">
        <ele>6.1</ele>
        <time>2020-07-10T10:06:13Z</time>
      </trkpt>
      <trkpt lat="47.76423" lon="-3.49389">
        <ele>6.23</ele>
        <time>2020-07-10T10:06:14Z</time>
      </trkpt>
      <trkpt lat="47.76423" lon="-3.49383">
        <ele>6.25</ele>
        <time>2020-07-10T10:06:15Z</time>
      </trkpt>
      <trkpt lat="47.76424" lon="-3.49377">
        <ele>6.23</ele>
        <time>2020-07-10T10:06:16Z</time>
      </trkpt>
      <trkpt lat="47.76424" lon="-3.49371">
        <ele>6.19</ele>
        <time>2020-07-10T10:06:17Z</time>
      </trkpt>
      <trkpt lat="47.76426" lon="-3.49366">
        <ele>6.04</ele>
        <time>2020-07-10T10:06:18Z</time>
      </trkpt>
      <trkpt lat="47.76426" lon="-3.4936">
        <ele>5.99</ele>
        <time>2020-07-10T10:06:19Z</time>
      </trkpt>
      <trkpt lat="47.76425" lon="-3.49355">
        <ele>6.16</ele>
        <time>2020-07-10T10:06:20Z</time>
      </trkpt>
      <trkpt lat="47.76425" lon="-3.4935">
        <ele>6.3</ele>
        <time>2020-07-10T10:06:21Z</time>
      </trkpt>
      <trkpt lat="47.76425" lon="-3.49345">
        <ele>6.42</ele>
        <time>2020-07-10T10:06:22Z</time>
      </trkpt>
      <trkpt lat="47.76426" lon="-3.49338">
        <ele>6.54</ele>
        <time>2020-07-10T10:06:23Z</time>
      </trkpt>
      <trkpt lat="47.76427" lon="-3.49332">
        <ele>6.52</ele>
        <time>2020-07-10T10:06:24Z</time>
      </trkpt>
      <trkpt lat="47.76428" lon="-3.49325">
        <ele>6.38</ele>
        <time>2020-07-10T10:06:25Z</time>
      </trkpt>
      <trkpt lat="47.7643" lon="-3.49319">
        <ele>6.15</ele>
        <time>2020-07-10T10:06:26Z</time>
      </trkpt>
      <trkpt lat="47.76431" lon="-3.49312">
        <ele>6.02</ele>
        <time>2020-07-10T10:06:27Z</time>
      </trkpt>
      <trkpt lat="47.76431" lon="-3.49304">
        <ele>5.94</ele>
        <time>2020-07-10T10:06:28Z</time>
      </trkpt>
      <trkpt lat="47.76432" lon="-3.49297">
        <ele>5.89</ele>
        <time>2020-07-10T10:06:29Z</time>
      </trkpt>
      <trkpt lat="47.76433" lon="-3.4929">
        <ele>5.74</ele>
        <time>2020-07-10T10:06:30Z</time>
      </trkpt>
      <trkpt lat="47.76433" lon="-3.49283">
        <ele>5.69</ele>
        <time>2020-07-10T10:06:31Z</time>
      </trkpt>
      <trkpt lat="47.76432" lon="-3.49277">
        <ele>5.8</ele>
        <time>2020-07-10T10:06:32Z</time>
      </trkpt>
      <trkpt lat="47.7643" lon="-3.49271">
        <ele>5.98</ele>
        <time>2020-07-10T10:06:33Z</time>
      </trkpt>
      <trkpt lat="47.7643" lon="-3.49268">
        <ele>6.03</ele>
        <time>2020-07-10T10:06:34Z</time>
      </trkpt>
      <trkpt lat="47.7643" lon="-3.49266">
        <ele>6.1</ele>
        <time>2020-07-10T10:06:35Z</time>
      </trkpt>
      <trkpt lat="47.76428" lon="-3.49263">
        <ele>6.27</ele>
        <time>2020-07-10T10:06:36Z</time>
      </trkpt>
      <trkpt lat="47.76427" lon="-3.49262">
        <ele>6.39</ele>
        <time>2020-07-10T10:06:37Z</time>
      </trkpt>
      <trkpt lat="47.76426" lon="-3.4926">
        <ele>6.54</ele>
        <time>2020-07-10T10:06:38Z</time>
      </trkpt>
      <trkpt lat="47.76426" lon="-3.4926">
        <ele>6.59</ele>
        <time>2020-07-10T10:06:39Z</time>
      </trkpt>
      <trkpt lat="47.76426" lon="-3.4926">
        <ele>6.6</ele>
        <time>2020-07-10T10:06:40Z</time>
      </trkpt>
      <trkpt lat="47.76426" lon="-3.4926">
        <ele>6.61</ele>
        <time>2020-07-10T10:06:41Z</time>
      </trkpt>
      <trkpt lat="47.76426" lon="-3.4926">
        <ele>6.61</ele>
        <time>2020-07-10T10:06:42Z</time>
      </trkpt>
      <trkpt lat="47.76426" lon="-3.4926">
        <ele>6.61</ele>
        <time>2020-07-10T10:06:43Z</time>
      </trkpt>
      <trkpt lat="47.76426" lon="-3.4926">
        <ele>6.61</ele>
        <time>2020-07-10T10:06:44Z</time>
      </trkpt>
      <trkpt lat="47.76426" lon="-3.4926">
        <ele>6.61</ele>
        <time>2020-07-10T10:06:45Z</time>
      </trkpt>
      <trkpt lat="47.76426" lon="-3.4926">
        <ele>6.61</ele>
        <time>2020-07-10T10:06:46Z</time>
      </trkpt>
      <trkpt lat="47.76426" lon="-3.4926">
        <ele>6.61</ele>
        <time>2020-07-10T10:06:47Z</time>
      </trkpt>
      <trkpt lat="47.76426" lon="-3.4926">
        <ele>6.61</ele>
        <time>2020-07-10T10:06:48Z</time>
      </trkpt>
      <trkpt lat="47.76425" lon="-3.49253">
        <ele>6.76</ele>
        <time>2020-07-10T10:06:49Z</time>
      </trkpt>
      <trkpt lat="47.76425" lon="-3.49251">
        <ele>6.82</ele>
        <time>2020-07-10T10:06:50Z</time>
      </trkpt>
      <trkpt lat="47.76424" lon="-3.49248">
        <ele>6.89</ele>
        <time>2020-07-10T10:06:51Z</time>
      </trkpt>
      <trkpt lat="47.76423" lon="-3.49245">
        <ele>6.97</ele>
        <time>2020-07-10T10:06:52Z</time>
      </trkpt>
      <trkpt lat="47.76423" lon="-3.49243">
        <ele>6.94</ele>
        <time>2020-07-10T10:06:53Z</time>
      </trkpt>
      <trkpt lat="47.76422" lon="-3.49239">
        <ele>6.91</ele>
        <time>2020-07-10T10:06:54Z</time>
      </trkpt>
      <trkpt lat="47.76423" lon="-3.49236">
        <ele>6.81</ele>
        <time>2020-07-10T10:06:55Z</time>
      </trkpt>
      <trkpt lat="47.76422" lon="-3.49231">
        <ele>6.71</ele>
        <time>2020-07-10T10:06:56Z</time>
      </trkpt>
      <trkpt lat="47.76421" lon="-3.49228">
        <ele>6.74</ele>
        <time>2020-07-10T10:06:57Z</time>
      </trkpt>
      <trkpt lat="47.76419" lon="-3.49225">
        <ele>6.78</ele>
        <time>2020-07-10T10:06:58Z</time>
      </trkpt>
      <trkpt lat="47.76419" lon="-3.49218">
        <ele>6.78</ele>
        <time>2020-07-10T10:06:59Z</time>
      </trkpt>
      <trkpt lat="47.76417" lon="-3.49212">
        <ele>6.89</ele>
        <time>2020-07-10T10:07:00Z</time>
      </trkpt>
      <trkpt lat="47.76416" lon="-3.49206">
        <ele>7.06</ele>
        <time>2020-07-10T10:07:01Z</time>
      </trkpt>
      <trkpt lat="47.76415" lon="-3.492">
        <ele>7.21</ele>
        <time>2020-07-10T10:07:02Z</time>
      </trkpt>
      <trkpt lat="47.76414" lon="-3.49193">
        <ele>7.38</ele>
        <time>2020-07-10T10:07:03Z</time>
      </trkpt>
      <trkpt lat="47.76413" lon="-3.49187">
        <ele>7.45</ele>
        <time>2020-07-10T10:07:04Z</time>
      </trkpt>
      <trkpt lat="47.76412" lon="-3.4918">
        <ele>7.42</ele>
        <time>2020-07-10T10:07:05Z</time>
      </trkpt>
      <trkpt lat="47.76411" lon="-3.49173">
        <ele>7.34</ele>
        <time>2020-07-10T10:07:06Z</time>
      </trkpt>
      <trkpt lat="47.76411" lon="-3.49166">
        <ele>7.21</ele>
        <time>2020-07-10T10:07:07Z</time>
      </trkpt>
      <trkpt lat="47.7641" lon="-3.49158">
        <ele>7.47</ele>
        <time>2020-07-10T10:07:08Z</time>
      </trkpt>
      <trkpt lat="47.76409" lon="-3.49151">
        <ele>7.71</ele>
        <time>2020-07-10T10:07:09Z</time>
      </trkpt>
      <trkpt lat="47.76408" lon="-3.49145">
        <ele>7.99</ele>
        <time>2020-07-10T10:07:10Z</time>
      </trkpt>
      <trkpt lat="47.76407" lon="-3.49139">
        <ele>8.24</ele>
        <time>2020-07-10T10:07:11Z</time>
      </trkpt>
      <trkpt lat="47.76407" lon="-3.49132">
        <ele>8.47</ele>
        <time>2020-07-10T10:07:12Z</time>
      </trkpt>
      <trkpt lat="47.76406" lon="-3.49126">
        <ele>8.59</ele>
        <time>2020-07-10T10:07:13Z</time>
      </trkpt>
      <trkpt lat="47.76406" lon="-3.4912">
        <ele>8.66</ele>
        <time>2020-07-10T10:07:14Z</time>
      </trkpt>
      <trkpt lat="47.76406" lon="-3.49113">
        <ele>8.74</ele>
        <time>2020-07-10T10:07:15Z</time>
      </trkpt>
      <trkpt lat="47.76405" lon="-3.49107">
        <ele>8.88</ele>
        <time>2020-07-10T10:07:16Z</time>
      </trkpt>
      <trkpt lat="47.76404" lon="-3.49101">
        <ele>9.04</ele>
        <time>2020-07-10T10:07:17Z</time>
      </trkpt>
      <trkpt lat="47.76404" lon="-3.49095">
        <ele>9.21</ele>
        <time>2020-07-10T10:07:18Z</time>
      </trkpt>
      <trkpt lat="47.76403" lon="-3.49089">
        <ele>9.31</ele>
        <time>2020-07-10T10:07:19Z</time>
      </trkpt>
      <trkpt lat="47.76403" lon="-3.49083">
        <ele>9.41</ele>
        <time>2020-07-10T10:07:20Z</time>
      </trkpt>
      <trkpt lat="47.76403" lon="-3.49077">
        <ele>9.51</ele>
        <time>2020-07-10T10:07:21Z</time>
      </trkpt>
      <trkpt lat="47.76403" lon="-3.49071">
        <ele>9.68</ele>
        <time>2020-07-10T10:07:22Z</time>
      </trkpt>
      <trkpt lat="47.76402" lon="-3.49065">
        <ele>9.87</ele>
        <time>2020-07-10T10:07:23Z</time>
      </trkpt>
      <trkpt lat="47.76402" lon="-3.4906">
        <ele>10.06</ele>
        <time>2020-07-10T10:07:24Z</time>
      </trkpt>
      <trkpt lat="47.76402" lon="-3.49054">
        <ele>10.19</ele>
        <time>2020-07-10T10:07:25Z</time>
      </trkpt>
      <trkpt lat="47.76401" lon="-3.49048">
        <ele>10.2</ele>
        <time>2020-07-10T10:07:26Z</time>
      </trkpt>
      <trkpt lat="47.76401" lon="-3.49042">
        <ele>10.13</ele>
        <time>2020-07-10T10:07:27Z</time>
      </trkpt>
      <trkpt lat="47.76401" lon="-3.49037">
        <ele>10.04</ele>
        <time>2020-07-10T10:07:28Z</time>
      </trkpt>
      <trkpt lat="47.76401" lon="-3.49033">
        <ele>10.02</ele>
        <time>2020-07-10T10:07:29Z</time>
      </trkpt>
      <trkpt lat="47.76401" lon="-3.49029">
        <ele>9.93</ele>
        <time>2020-07-10T10:07:30Z</time>
      </trkpt>
      <trkpt lat="47.76402" lon="-3.49024">
        <ele>9.82</ele>
        <time>2020-07-10T10:07:31Z</time>
      </trkpt>
      <trkpt lat="47.76402" lon="-3.49019">
        <ele>9.69</ele>
        <time>2020-07-10T10:07:32Z</time>
      </trkpt>
      <trkpt lat="47.76403" lon="-3.49014">
        <ele>9.6</ele>
        <time>2020-07-10T10:07:33Z</time>
      </trkpt>
      <trkpt lat="47.76403" lon="-3.49008">
        <ele>9.55</ele>
        <time>2020-07-10T10:07:34Z</time>
      </trkpt>
      <trkpt lat="47.76402" lon="-3.49002">
        <ele>9.61</ele>
        <time>2020-07-10T10:07:35Z</time>
      </trkpt>
      <trkpt lat="47.76402" lon="-3.48996">
        <ele>9.67</ele>
        <time>2020-07-10T10:07:36Z</time>
      </trkpt>
      <trkpt lat="47.764" lon="-3.48989">
        <ele>9.92</ele>
        <time>2020-07-10T10:07:37Z</time>
      </trkpt>
      <trkpt lat="47.76398" lon="-3.48981">
        <ele>10.23</ele>
        <time>2020-07-10T10:07:38Z</time>
      </trkpt>
      <trkpt lat="47.76397" lon="-3.48974">
        <ele>10.45</ele>
        <time>2020-07-10T10:07:39Z</time>
      </trkpt>
      <trkpt lat="47.76397" lon="-3.48969">
        <ele>10.53</ele>
        <time>2020-07-10T10:07:40Z</time>
      </trkpt>
      <trkpt lat="47.76396" lon="-3.48964">
        <ele>10.7</ele>
        <time>2020-07-10T10:07:41Z</time>
      </trkpt>
      <trkpt lat="47.76395" lon="-3.48957">
        <ele>10.94</ele>
        <time>2020-07-10T10:07:42Z</time>
      </trkpt>
      <trkpt lat="47.76395" lon="-3.48951">
        <ele>11.06</ele>
        <time>2020-07-10T10:07:43Z</time>
      </trkpt>
      <trkpt lat="47.76394" lon="-3.48944">
        <ele>11.22</ele>
        <time>2020-07-10T10:07:44Z</time>
      </trkpt>
      <trkpt lat="47.76394" lon="-3.48939">
        <ele>11.41</ele>
        <time>2020-07-10T10:07:45Z</time>
      </trkpt>
      <trkpt lat="47.76394" lon="-3.48934">
        <ele>11.56</ele>
        <time>2020-07-10T10:07:46Z</time>
      </trkpt>
      <trkpt lat="47.76394" lon="-3.48929">
        <ele>11.69</ele>
        <time>2020-07-10T10:07:47Z</time>
      </trkpt>
      <trkpt lat="47.76394" lon="-3.48925">
        <ele>11.81</ele>
        <time>2020-07-10T10:07:48Z</time>
      </trkpt>
      <trkpt lat="47.76394" lon="-3.48921">
        <ele>11.94</ele>
        <time>2020-07-10T10:07:49Z</time>
      </trkpt>
      <trkpt lat="47.76394" lon="-3.48916">
        <ele>12.1</ele>
        <time>2020-07-10T10:07:50Z</time>
      </trkpt>
      <trkpt lat="47.76394" lon="-3.48909">
        <ele>12.16</ele>
        <time>2020-07-10T10:07:51Z</time>
      </trkpt>
      <trkpt lat="47.76394" lon="-3.48902">
        <ele>12.23</ele>
        <time>2020-07-10T10:07:52Z</time>
      </trkpt>
      <trkpt lat="47.76392" lon="-3.48893">
        <ele>12.46</ele>
        <time>2020-07-10T10:07:53Z</time>
      </trkpt>
      <trkpt lat="47.76391" lon="-3.48884">
        <ele>12.64</ele>
        <time>2020-07-10T10:07:54Z</time>
      </trkpt>
      <trkpt lat="47.7639" lon="-3.48877">
        <ele>12.75</ele>
        <time>2020-07-10T10:07:55Z</time>
      </trkpt>
      <trkpt lat="47.7639" lon="-3.4887">
        <ele>12.83</ele>
        <time>2020-07-10T10:07:56Z</time>
      </trkpt>
      <trkpt lat="47.7639" lon="-3.48864">
        <ele>12.87</ele>
        <time>2020-07-10T10:07:57Z</time>
      </trkpt>
      <trkpt lat="47.76389" lon="-3.48859">
        <ele>12.93</ele>
        <time>2020-07-10T10:07:58Z</time>
      </trkpt>
      <trkpt lat="47.76388" lon="-3.48852">
        <ele>12.84</ele>
        <time>2020-07-10T10:07:59Z</time>
      </trkpt>
      <trkpt lat="47.76386" lon="-3.48847">
        <ele>12.81</ele>
        <time>2020-07-10T10:08:00Z</time>
      </trkpt>
      <trkpt lat="47.76384" lon="-3.48841">
        <ele>12.76</ele>
        <time>2020-07-10T10:08:01Z</time>
      </trkpt>
      <trkpt lat="47.76384" lon="-3.48833">
        <ele>12.63</ele>
        <time>2020-07-10T10:08:02Z</time>
      </trkpt>
      <trkpt lat="47.76382" lon="-3.48825">
        <ele>12.65</ele>
        <time>2020-07-10T10:08:03Z</time>
      </trkpt>
      <trkpt lat="47.76381" lon="-3.48818">
        <ele>12.69</ele>
        <time>2020-07-10T10:08:04Z</time>
      </trkpt>
      <trkpt lat="47.76379" lon="-3.48809">
        <ele>12.72</ele>
        <time>2020-07-10T10:08:05Z</time>
      </trkpt>
      <trkpt lat="47.76378" lon="-3.48802">
        <ele>12.67</ele>
        <time>2020-07-10T10:08:06Z</time>
      </trkpt>
      <trkpt lat="47.76377" lon="-3.48795">
        <ele>12.53</ele>
        <time>2020-07-10T10:08:07Z</time>
      </trkpt>
      <trkpt lat="47.76376" lon="-3.48788">
        <ele>12.38</ele>
        <time>2020-07-10T10:08:08Z</time>
      </trkpt>
      <trkpt lat="47.76374" lon="-3.48782">
        <ele>12.24</ele>
        <time>2020-07-10T10:08:09Z</time>
      </trkpt>
      <trkpt lat="47.76373" lon="-3.48776">
        <ele>12.13</ele>
        <time>2020-07-10T10:08:10Z</time>
      </trkpt>
      <trkpt lat="47.76371" lon="-3.48768">
        <ele>12.07</ele>
        <time>2020-07-10T10:08:11Z</time>
      </trkpt>
      <trkpt lat="47.7637" lon="-3.4876">
        <ele>11.99</ele>
        <time>2020-07-10T10:08:12Z</time>
      </trkpt>
      <trkpt lat="47.76368" lon="-3.48752">
        <ele>11.86</ele>
        <time>2020-07-10T10:08:13Z</time>
      </trkpt>
      <trkpt lat="47.76367" lon="-3.48746">
        <ele>11.83</ele>
        <time>2020-07-10T10:08:14Z</time>
      </trkpt>
      <trkpt lat="47.76367" lon="-3.48741">
        <ele>11.86</ele>
        <time>2020-07-10T10:08:15Z</time>
      </trkpt>
      <trkpt lat="47.76367" lon="-3.48737">
        <ele>11.87</ele>
        <time>2020-07-10T10:08:16Z</time>
      </trkpt>
      <trkpt lat="47.7637" lon="-3.48734">
        <ele>11.87</ele>
        <time>2020-07-10T10:08:17Z</time>
      </trkpt>
      <trkpt lat="47.76373" lon="-3.48731">
        <ele>11.86</ele>
        <time>2020-07-10T10:08:18Z</time>
      </trkpt>
      <trkpt lat="47.76377" lon="-3.48728">
        <ele>11.87</ele>
        <time>2020-07-10T10:08:19Z</time>
      </trkpt>
      <trkpt lat="47.76381" lon="-3.48725">
        <ele>11.91</ele>
        <time>2020-07-10T10:08:20Z</time>
      </trkpt>
      <trkpt lat="47.76386" lon="-3.48723">
        <ele>11.96</ele>
        <time>2020-07-10T10:08:21Z</time>
      </trkpt>
      <trkpt lat="47.7639" lon="-3.48721">
        <ele>11.99</ele>
        <time>2020-07-10T10:08:22Z</time>
      </trkpt>
      <trkpt lat="47.76395" lon="-3.4872">
        <ele>12</ele>
        <time>2020-07-10T10:08:23Z</time>
      </trkpt>
      <trkpt lat="47.76399" lon="-3.48718">
        <ele>12</ele>
        <time>2020-07-10T10:08:24Z</time>
      </trkpt>
      <trkpt lat="47.76403" lon="-3.48717">
        <ele>12</ele>
        <time>2020-07-10T10:08:25Z</time>
      </trkpt>
      <trkpt lat="47.76407" lon="-3.48715">
        <ele>12</ele>
        <time>2020-07-10T10:08:26Z</time>
      </trkpt>
      <trkpt lat="47.76411" lon="-3.48713">
        <ele>12</ele>
        <time>2020-07-10T10:08:27Z</time>
      </trkpt>
      <trkpt lat="47.76415" lon="-3.48712">
        <ele>12</ele>
        <time>2020-07-10T10:08:28Z</time>
      </trkpt>
      <trkpt lat="47.76419" lon="-3.4871">
        <ele>12.03</ele>
        <time>2020-07-10T10:08:29Z</time>
      </trkpt>
      <trkpt lat="47.76424" lon="-3.48705">
        <ele>12.12</ele>
        <time>2020-07-10T10:08:30Z</time>
      </trkpt>
      <trkpt lat="47.76428" lon="-3.487">
        <ele>12.26</ele>
        <time>2020-07-10T10:08:31Z</time>
      </trkpt>
      <trkpt lat="47.7643" lon="-3.48694">
        <ele>12.42</ele>
        <time>2020-07-10T10:08:32Z</time>
      </trkpt>
      <trkpt lat="47.76432" lon="-3.48688">
        <ele>12.75</ele>
        <time>2020-07-10T10:08:33Z</time>
      </trkpt>
      <trkpt lat="47.76433" lon="-3.48682">
        <ele>13.14</ele>
        <time>2020-07-10T10:08:34Z</time>
      </trkpt>
      <trkpt lat="47.76435" lon="-3.48676">
        <ele>13.55</ele>
        <time>2020-07-10T10:08:35Z</time>
      </trkpt>
      <trkpt lat="47.76436" lon="-3.4867">
        <ele>13.98</ele>
        <time>2020-07-10T10:08:36Z</time>
      </trkpt>
      <trkpt lat="47.76437" lon="-3.48664">
        <ele>14.37</ele>
        <time>2020-07-10T10:08:37Z</time>
      </trkpt>
      <trkpt lat="47.76438" lon="-3.48658">
        <ele>14.67</ele>
        <time>2020-07-10T10:08:38Z</time>
      </trkpt>
      <trkpt lat="47.7644" lon="-3.48652">
        <ele>14.96</ele>
        <time>2020-07-10T10:08:39Z</time>
      </trkpt>
      <trkpt lat="47.76441" lon="-3.48646">
        <ele>15.26</ele>
        <time>2020-07-10T10:08:40Z</time>
      </trkpt>
      <trkpt lat="47.76442" lon="-3.48638">
        <ele>15.57</ele>
        <time>2020-07-10T10:08:41Z</time>
      </trkpt>
      <trkpt lat="47.76442" lon="-3.48631">
        <ele>15.9</ele>
        <time>2020-07-10T10:08:42Z</time>
      </trkpt>
      <trkpt lat="47.76443" lon="-3.48625">
        <ele>16.17</ele>
        <time>2020-07-10T10:08:43Z</time>
      </trkpt>
      <trkpt lat="47.76444" lon="-3.48619">
        <ele>16.5</ele>
        <time>2020-07-10T10:08:44Z</time>
      </trkpt>
      <trkpt lat="47.76445" lon="-3.48612">
        <ele>16.82</ele>
        <time>2020-07-10T10:08:45Z</time>
      </trkpt>
      <trkpt lat="47.76446" lon="-3.48606">
        <ele>17.09</ele>
        <time>2020-07-10T10:08:46Z</time>
      </trkpt>
      <trkpt lat="47.76447" lon="-3.48601">
        <ele>17.35</ele>
        <time>2020-07-10T10:08:47Z</time>
      </trkpt>
      <trkpt lat="47.76448" lon="-3.48595">
        <ele>17.61</ele>
        <time>2020-07-10T10:08:48Z</time>
      </trkpt>
      <trkpt lat="47.7645" lon="-3.48589">
        <ele>17.88</ele>
        <time>2020-07-10T10:08:49Z</time>
      </trkpt>
      <trkpt lat="47.76451" lon="-3.48581">
        <ele>18.13</ele>
        <time>2020-07-10T10:08:50Z</time>
      </trkpt>
      <trkpt lat="47.76453" lon="-3.48575">
        <ele>18.24</ele>
        <time>2020-07-10T10:08:51Z</time>
      </trkpt>
      <trkpt lat="47.76454" lon="-3.48569">
        <ele>18.31</ele>
        <time>2020-07-10T10:08:52Z</time>
      </trkpt>
      <trkpt lat="47.76456" lon="-3.48564">
        <ele>18.38</ele>
        <time>2020-07-10T10:08:53Z</time>
      </trkpt>
      <trkpt lat="47.76458" lon="-3.48559">
        <ele>18.45</ele>
        <time>2020-07-10T10:08:54Z</time>
      </trkpt>
      <trkpt lat="47.76459" lon="-3.48552">
        <ele>18.6</ele>
        <time>2020-07-10T10:08:55Z</time>
      </trkpt>
      <trkpt lat="47.7646" lon="-3.48546">
        <ele>18.84</ele>
        <time>2020-07-10T10:08:56Z</time>
      </trkpt>
      <trkpt lat="47.76461" lon="-3.4854">
        <ele>19.08</ele>
        <time>2020-07-10T10:08:57Z</time>
      </trkpt>
      <trkpt lat="47.76462" lon="-3.48533">
        <ele>19.34</ele>
        <time>2020-07-10T10:08:58Z</time>
      </trkpt>
      <trkpt lat="47.76464" lon="-3.48528">
        <ele>19.58</ele>
        <time>2020-07-10T10:08:59Z</time>
      </trkpt>
      <trkpt lat="47.76465" lon="-3.48521">
        <ele>19.66</ele>
        <time>2020-07-10T10:09:00Z</time>
      </trkpt>
      <trkpt lat="47.76467" lon="-3.48516">
        <ele>19.71</ele>
        <time>2020-07-10T10:09:01Z</time>
      </trkpt>
      <trkpt lat="47.76469" lon="-3.48509">
        <ele>19.76</ele>
        <time>2020-07-10T10:09:02Z</time>
      </trkpt>
      <trkpt lat="47.7647" lon="-3.48502">
        <ele>19.81</ele>
        <time>2020-07-10T10:09:03Z</time>
      </trkpt>
      <trkpt lat="47.76472" lon="-3.48496">
        <ele>20.01</ele>
        <time>2020-07-10T10:09:04Z</time>
      </trkpt>
      <trkpt lat="47.76473" lon="-3.4849">
        <ele>20.3</ele>
        <time>2020-07-10T10:09:05Z</time>
      </trkpt>
      <trkpt lat="47.76474" lon="-3.48485">
        <ele>20.58</ele>
        <time>2020-07-10T10:09:06Z</time>
      </trkpt>
      <trkpt lat="47.76475" lon="-3.48478">
        <ele>20.85</ele>
        <time>2020-07-10T10:09:07Z</time>
      </trkpt>
      <trkpt lat="47.76476" lon="-3.48473">
        <ele>21.14</ele>
        <time>2020-07-10T10:09:08Z</time>
      </trkpt>
      <trkpt lat="47.76477" lon="-3.48466">
        <ele>21.44</ele>
        <time>2020-07-10T10:09:09Z</time>
      </trkpt>
      <trkpt lat="47.76478" lon="-3.4846">
        <ele>21.75</ele>
        <time>2020-07-10T10:09:10Z</time>
      </trkpt>
      <trkpt lat="47.76479" lon="-3.48454">
        <ele>22.03</ele>
        <time>2020-07-10T10:09:11Z</time>
      </trkpt>
      <trkpt lat="47.7648" lon="-3.48448">
        <ele>22.32</ele>
        <time>2020-07-10T10:09:12Z</time>
      </trkpt>
      <trkpt lat="47.76481" lon="-3.48442">
        <ele>22.6</ele>
        <time>2020-07-10T10:09:13Z</time>
      </trkpt>
      <trkpt lat="47.76483" lon="-3.48435">
        <ele>22.86</ele>
        <time>2020-07-10T10:09:14Z</time>
      </trkpt>
      <trkpt lat="47.76484" lon="-3.4843">
        <ele>23.07</ele>
        <time>2020-07-10T10:09:15Z</time>
      </trkpt>
      <trkpt lat="47.76485" lon="-3.48423">
        <ele>23.25</ele>
        <time>2020-07-10T10:09:16Z</time>
      </trkpt>
      <trkpt lat="47.76486" lon="-3.48416">
        <ele>23.42</ele>
        <time>2020-07-10T10:09:17Z</time>
      </trkpt>
      <trkpt lat="47.76486" lon="-3.48409">
        <ele>23.67</ele>
        <time>2020-07-10T10:09:18Z</time>
      </trkpt>
      <trkpt lat="47.76487" lon="-3.48402">
        <ele>23.94</ele>
        <time>2020-07-10T10:09:19Z</time>
      </trkpt>
      <trkpt lat="47.76489" lon="-3.48395">
        <ele>24.23</ele>
        <time>2020-07-10T10:09:20Z</time>
      </trkpt>
      <trkpt lat="47.7649" lon="-3.48388">
        <ele>24.52</ele>
        <time>2020-07-10T10:09:21Z</time>
      </trkpt>
      <trkpt lat="47.76491" lon="-3.48382">
        <ele>24.75</ele>
        <time>2020-07-10T10:09:22Z</time>
      </trkpt>
      <trkpt lat="47.76492" lon="-3.48376">
        <ele>24.98</ele>
        <time>2020-07-10T10:09:23Z</time>
      </trkpt>
      <trkpt lat="47.76494" lon="-3.48369">
        <ele>25.21</ele>
        <time>2020-07-10T10:09:24Z</time>
      </trkpt>
      <trkpt lat="47.76494" lon="-3.48362">
        <ele>25.44</ele>
        <time>2020-07-10T10:09:25Z</time>
      </trkpt>
      <trkpt lat="47.76495" lon="-3.48356">
        <ele>25.62</ele>
        <time>2020-07-10T10:09:26Z</time>
      </trkpt>
      <trkpt lat="47.76496" lon="-3.48349">
        <ele>25.75</ele>
        <time>2020-07-10T10:09:27Z</time>
      </trkpt>
      <trkpt lat="47.76498" lon="-3.48343">
        <ele>25.85</ele>
        <time>2020-07-10T10:09:28Z</time>
      </trkpt>
      <trkpt lat="47.76499" lon="-3.48337">
        <ele>25.93</ele>
        <time>2020-07-10T10:09:29Z</time>
      </trkpt>
      <trkpt lat="47.765" lon="-3.4833">
        <ele>26.06</ele>
        <time>2020-07-10T10:09:30Z</time>
      </trkpt>
      <trkpt lat="47.76502" lon="-3.48323">
        <ele>26.31</ele>
        <time>2020-07-10T10:09:31Z</time>
      </trkpt>
      <trkpt lat="47.76503" lon="-3.48317">
        <ele>26.58</ele>
        <time>2020-07-10T10:09:32Z</time>
      </trkpt>
      <trkpt lat="47.76505" lon="-3.48311">
        <ele>26.86</ele>
        <time>2020-07-10T10:09:33Z</time>
      </trkpt>
      <trkpt lat="47.76507" lon="-3.48305">
        <ele>27.13</ele>
        <time>2020-07-10T10:09:34Z</time>
      </trkpt>
      <trkpt lat="47.76508" lon="-3.48298">
        <ele>27.24</ele>
        <time>2020-07-10T10:09:35Z</time>
      </trkpt>
      <trkpt lat="47.76509" lon="-3.48291">
        <ele>27.3</ele>
        <time>2020-07-10T10:09:36Z</time>
      </trkpt>
      <trkpt lat="47.7651" lon="-3.48285">
        <ele>27.35</ele>
        <time>2020-07-10T10:09:37Z</time>
      </trkpt>
      <trkpt lat="47.76512" lon="-3.48278">
        <ele>27.4</ele>
        <time>2020-07-10T10:09:38Z</time>
      </trkpt>
      <trkpt lat="47.76514" lon="-3.48271">
        <ele>27.46</ele>
        <time>2020-07-10T10:09:39Z</time>
      </trkpt>
      <trkpt lat="47.76515" lon="-3.48265">
        <ele>27.52</ele>
        <time>2020-07-10T10:09:40Z</time>
      </trkpt>
      <trkpt lat="47.76516" lon="-3.4826">
        <ele>27.56</ele>
        <time>2020-07-10T10:09:41Z</time>
      </trkpt>
      <trkpt lat="47.76518" lon="-3.48254">
        <ele>27.61</ele>
        <time>2020-07-10T10:09:42Z</time>
      </trkpt>
      <trkpt lat="47.76519" lon="-3.48248">
        <ele>27.67</ele>
        <time>2020-07-10T10:09:43Z</time>
      </trkpt>
      <trkpt lat="47.76521" lon="-3.48241">
        <ele>27.72</ele>
        <time>2020-07-10T10:09:44Z</time>
      </trkpt>
      <trkpt lat="47.76522" lon="-3.48235">
        <ele>27.76</ele>
        <time>2020-07-10T10:09:45Z</time>
      </trkpt>
      <trkpt lat="47.76523" lon="-3.48229">
        <ele>27.8</ele>
        <time>2020-07-10T10:09:46Z</time>
      </trkpt>
      <trkpt lat="47.76523" lon="-3.48222">
        <ele>27.83</ele>
        <time>2020-07-10T10:09:47Z</time>
      </trkpt>
      <trkpt lat="47.76524" lon="-3.48216">
        <ele>27.68</ele>
        <time>2020-07-10T10:09:48Z</time>
      </trkpt>
      <trkpt lat="47.76524" lon="-3.48209">
        <ele>27.45</ele>
        <time>2020-07-10T10:09:49Z</time>
      </trkpt>
      <trkpt lat="47.76523" lon="-3.48201">
        <ele>27.16</ele>
        <time>2020-07-10T10:09:50Z</time>
      </trkpt>
      <trkpt lat="47.76523" lon="-3.48194">
        <ele>26.94</ele>
        <time>2020-07-10T10:09:51Z</time>
      </trkpt>
      <trkpt lat="47.76523" lon="-3.48187">
        <ele>26.82</ele>
        <time>2020-07-10T10:09:52Z</time>
      </trkpt>
      <trkpt lat="47.76523" lon="-3.4818">
        <ele>26.77</ele>
        <time>2020-07-10T10:09:53Z</time>
      </trkpt>
      <trkpt lat="47.76523" lon="-3.48174">
        <ele>26.74</ele>
        <time>2020-07-10T10:09:54Z</time>
      </trkpt>
      <trkpt lat="47.76524" lon="-3.48167">
        <ele>26.73</ele>
        <time>2020-07-10T10:09:55Z</time>
      </trkpt>
      <trkpt lat="47.76525" lon="-3.48161">
        <ele>26.66</ele>
        <time>2020-07-10T10:09:56Z</time>
      </trkpt>
      <trkpt lat="47.76526" lon="-3.48155">
        <ele>26.52</ele>
        <time>2020-07-10T10:09:57Z</time>
      </trkpt>
      <trkpt lat="47.76527" lon="-3.48148">
        <ele>26.36</ele>
        <time>2020-07-10T10:09:58Z</time>
      </trkpt>
      <trkpt lat="47.76528" lon="-3.48142">
        <ele>26.17</ele>
        <time>2020-07-10T10:09:59Z</time>
      </trkpt>
      <trkpt lat="47.7653" lon="-3.48135">
        <ele>26.1</ele>
        <time>2020-07-10T10:10:00Z</time>
      </trkpt>
      <trkpt lat="47.76532" lon="-3.48129">
        <ele>26.14</ele>
        <time>2020-07-10T10:10:01Z</time>
      </trkpt>
      <trkpt lat="47.76535" lon="-3.48124">
        <ele>26.23</ele>
        <time>2020-07-10T10:10:02Z</time>
      </trkpt>
      <trkpt lat="47.76537" lon="-3.48119">
        <ele>26.31</ele>
        <time>2020-07-10T10:10:03Z</time>
      </trkpt>
      <trkpt lat="47.76539" lon="-3.48113">
        <ele>26.39</ele>
        <time>2020-07-10T10:10:04Z</time>
      </trkpt>
      <trkpt lat="47.76542" lon="-3.48107">
        <ele>26.47</ele>
        <time>2020-07-10T10:10:05Z</time>
      </trkpt>
      <trkpt lat="47.76544" lon="-3.481">
        <ele>26.55</ele>
        <time>2020-07-10T10:10:06Z</time>
      </trkpt>
      <trkpt lat="47.76545" lon="-3.48094">
        <ele>26.61</ele>
        <time>2020-07-10T10:10:07Z</time>
      </trkpt>
      <trkpt lat="47.76546" lon="-3.4809">
        <ele>26.63</ele>
        <time>2020-07-10T10:10:08Z</time>
      </trkpt>
      <trkpt lat="47.76546" lon="-3.48088">
        <ele>26.66</ele>
        <time>2020-07-10T10:10:09Z</time>
      </trkpt>
      <trkpt lat="47.76548" lon="-3.48085">
        <ele>26.69</ele>
        <time>2020-07-10T10:10:10Z</time>
      </trkpt>
      <trkpt lat="47.76548" lon="-3.48084">
        <ele>26.72</ele>
        <time>2020-07-10T10:10:11Z</time>
      </trkpt>
      <trkpt lat="47.76548" lon="-3.48082">
        <ele>26.77</ele>
        <time>2020-07-10T10:10:12Z</time>
      </trkpt>
      <trkpt lat="47.76549" lon="-3.48082">
        <ele>26.79</ele>
        <time>2020-07-10T10:10:13Z</time>
      </trkpt>
      <trkpt lat="47.76549" lon="-3.48082">
        <ele>26.82</ele>
        <time>2020-07-10T10:10:14Z</time>
      </trkpt>
      <trkpt lat="47.76549" lon="-3.48082">
        <ele>26.83</ele>
        <time>2020-07-10T10:10:15Z</time>
      </trkpt>
      <trkpt lat="47.76549" lon="-3.48082">
        <ele>26.83</ele>
        <time>2020-07-10T10:10:16Z</time>
      </trkpt>
      <trkpt lat="47.76549" lon="-3.48082">
        <ele>26.83</ele>
        <time>2020-07-10T10:10:17Z</time>
      </trkpt>
      <trkpt lat="47.76549" lon="-3.48082">
        <ele>26.83</ele>
        <time>2020-07-10T10:10:18Z</time>
      </trkpt>
      <trkpt lat="47.76549" lon="-3.48082">
        <ele>26.83</ele>
        <time>2020-07-10T10:10:19Z</time>
      </trkpt>
      <trkpt lat="47.76549" lon="-3.48082">
        <ele>26.83</ele>
        <time>2020-07-10T10:10:20Z</time>
      </trkpt>
      <trkpt lat="47.76549" lon="-3.48082">
        <ele>26.83</ele>
        <time>2020-07-10T10:10:21Z</time>
      </trkpt>
      <trkpt lat="47.76549" lon="-3.48082">
        <ele>26.83</ele>
        <time>2020-07-10T10:10:22Z</time>
      </trkpt>
      <trkpt lat="47.76549" lon="-3.48082">
        <ele>26.83</ele>
        <time>2020-07-10T10:10:23Z</time>
      </trkpt>
      <trkpt lat="47.76549" lon="-3.48082">
        <ele>26.83</ele>
        <time>2020-07-10T10:10:24Z</time>
      </trkpt>
      <trkpt lat="47.76549" lon="-3.48082">
        <ele>26.83</ele>
        <time>2020-07-10T10:10:25Z</time>
      </trkpt>
      <trkpt lat="47.76549" lon="-3.48082">
        <ele>26.83</ele>
        <time>2020-07-10T10:10:26Z</time>
      </trkpt>
      <trkpt lat="47.76549" lon="-3.48082">
        <ele>26.83</ele>
        <time>2020-07-10T10:10:27Z</time>
      </trkpt>
      <trkpt lat="47.76549" lon="-3.48082">
        <ele>26.83</ele>
        <time>2020-07-10T10:10:28Z</time>
      </trkpt>
      <trkpt lat="47.76549" lon="-3.48082">
        <ele>26.83</ele>
        <time>2020-07-10T10:10:29Z</time>
      </trkpt>
      <trkpt lat="47.76549" lon="-3.48082">
        <ele>26.83</ele>
        <time>2020-07-10T10:10:30Z</time>
      </trkpt>
      <trkpt lat="47.76549" lon="-3.48082">
        <ele>26.83</ele>
        <time>2020-07-10T10:10:31Z</time>
      </trkpt>
      <trkpt lat="47.76549" lon="-3.48082">
        <ele>26.83</ele>
        <time>2020-07-10T10:10:32Z</time>
      </trkpt>
      <trkpt lat="47.76549" lon="-3.48082">
        <ele>26.83</ele>
        <time>2020-07-10T10:10:33Z</time>
      </trkpt>
      <trkpt lat="47.76549" lon="-3.48082">
        <ele>26.83</ele>
        <time>2020-07-10T10:10:34Z</time>
      </trkpt>
      <trkpt lat="47.76549" lon="-3.48082">
        <ele>26.83</ele>
        <time>2020-07-10T10:10:35Z</time>
      </trkpt>
      <trkpt lat="47.76549" lon="-3.48082">
        <ele>26.83</ele>
        <time>2020-07-10T10:10:36Z</time>
      </trkpt>
      <trkpt lat="47.76549" lon="-3.48082">
        <ele>26.83</ele>
        <time>2020-07-10T10:10:37Z</time>
      </trkpt>
      <trkpt lat="47.76549" lon="-3.48082">
        <ele>26.83</ele>
        <time>2020-07-10T10:10:38Z</time>
      </trkpt>
      <trkpt lat="47.76549" lon="-3.48082">
        <ele>26.83</ele>
        <time>2020-07-10T10:10:39Z</time>
      </trkpt>
      <trkpt lat="47.76549" lon="-3.48082">
        <ele>26.83</ele>
        <time>2020-07-10T10:10:40Z</time>
      </trkpt>
      <trkpt lat="47.76549" lon="-3.48082">
        <ele>26.83</ele>
        <time>2020-07-10T10:10:41Z</time>
      </trkpt>
      <trkpt lat="47.76549" lon="-3.48082">
        <ele>26.83</ele>
        <time>2020-07-10T10:10:42Z</time>
      </trkpt>
      <trkpt lat="47.76549" lon="-3.48082">
        <ele>26.83</ele>
        <time>2020-07-10T10:10:43Z</time>
      </trkpt>
      <trkpt lat="47.76549" lon="-3.48082">
        <ele>26.83</ele>
        <time>2020-07-10T10:10:44Z</time>
      </trkpt>
      <trkpt lat="47.76549" lon="-3.48082">
        <ele>26.83</ele>
        <time>2020-07-10T10:10:45Z</time>
      </trkpt>
      <trkpt lat="47.76549" lon="-3.48082">
        <ele>26.83</ele>
        <time>2020-07-10T10:10:46Z</time>
      </trkpt>
      <trkpt lat="47.76549" lon="-3.48082">
        <ele>26.83</ele>
        <time>2020-07-10T10:10:47Z</time>
      </trkpt>
      <trkpt lat="47.76549" lon="-3.48082">
        <ele>26.83</ele>
        <time>2020-07-10T10:10:48Z</time>
      </trkpt>
      <trkpt lat="47.76549" lon="-3.48082">
        <ele>26.83</ele>
        <time>2020-07-10T10:10:49Z</time>
      </trkpt>
      <trkpt lat="47.76549" lon="-3.48082">
        <ele>26.83</ele>
        <time>2020-07-10T10:10:50Z</time>
      </trkpt>
      <trkpt lat="47.76549" lon="-3.48082">
        <ele>26.83</ele>
        <time>2020-07-10T10:10:51Z</time>
      </trkpt>
      <trkpt lat="47.76549" lon="-3.48082">
        <ele>26.83</ele>
        <time>2020-07-10T10:10:52Z</time>
      </trkpt>
      <trkpt lat="47.76549" lon="-3.48082">
        <ele>26.83</ele>
        <time>2020-07-10T10:10:53Z</time>
      </trkpt>
      <trkpt lat="47.76549" lon="-3.48082">
        <ele>26.83</ele>
        <time>2020-07-10T10:10:54Z</time>
      </trkpt>
      <trkpt lat="47.76549" lon="-3.48082">
        <ele>26.83</ele>
        <time>2020-07-10T10:10:55Z</time>
      </trkpt>
      <trkpt lat="47.76549" lon="-3.48082">
        <ele>26.83</ele>
        <time>2020-07-10T10:10:56Z</time>
      </trkpt>
      <trkpt lat="47.76549" lon="-3.48082">
        <ele>26.83</ele>
        <time>2020-07-10T10:10:57Z</time>
      </trkpt>
      <trkpt lat="47.76549" lon="-3.48082">
        <ele>26.83</ele>
        <time>2020-07-10T10:10:58Z</time>
      </trkpt>
      <trkpt lat="47.76549" lon="-3.48082">
        <ele>26.83</ele>
        <time>2020-07-10T10:10:59Z</time>
      </trkpt>
      <trkpt lat="47.76549" lon="-3.48082">
        <ele>26.83</ele>
        <time>2020-07-10T10:11:00Z</time>
      </trkpt>
      <trkpt lat="47.76549" lon="-3.48082">
        <ele>26.83</ele>
        <time>2020-07-10T10:11:01Z</time>
      </trkpt>
      <trkpt lat="47.76549" lon="-3.48082">
        <ele>26.83</ele>
        <time>2020-07-10T10:11:02Z</time>
      </trkpt>
      <trkpt lat="47.76549" lon="-3.48082">
        <ele>26.83</ele>
        <time>2020-07-10T10:11:03Z</time>
      </trkpt>
      <trkpt lat="47.76549" lon="-3.48082">
        <ele>26.83</ele>
        <time>2020-07-10T10:11:04Z</time>
      </trkpt>
      <trkpt lat="47.76549" lon="-3.48082">
        <ele>26.83</ele>
        <time>2020-07-10T10:11:05Z</time>
      </trkpt>
      <trkpt lat="47.76549" lon="-3.48082">
        <ele>26.83</ele>
        <time>2020-07-10T10:11:06Z</time>
      </trkpt>
      <trkpt lat="47.76549" lon="-3.48082">
        <ele>26.83</ele>
        <time>2020-07-10T10:11:07Z</time>
      </trkpt>
      <trkpt lat="47.76549" lon="-3.48082">
        <ele>26.83</ele>
        <time>2020-07-10T10:11:08Z</time>
      </trkpt>
      <trkpt lat="47.76549" lon="-3.48082">
        <ele>26.83</ele>
        <time>2020-07-10T10:11:09Z</time>
      </trkpt>
      <trkpt lat="47.76549" lon="-3.48082">
        <ele>26.83</ele>
        <time>2020-07-10T10:11:10Z</time>
      </trkpt>
      <trkpt lat="47.76549" lon="-3.48082">
        <ele>26.83</ele>
        <time>2020-07-10T10:11:11Z</time>
      </trkpt>
      <trkpt lat="47.76549" lon="-3.48082">
        <ele>26.83</ele>
        <time>2020-07-10T10:11:12Z</time>
      </trkpt>
      <trkpt lat="47.76549" lon="-3.48082">
        <ele>26.83</ele>
        <time>2020-07-10T10:11:13Z</time>
      </trkpt>
      <trkpt lat="47.76549" lon="-3.48082">
        <ele>26.83</ele>
        <time>2020-07-10T10:11:14Z</time>
      </trkpt>
      <trkpt lat="47.76549" lon="-3.48082">
        <ele>26.83</ele>
        <time>2020-07-10T10:11:15Z</time>
      </trkpt>
      <trkpt lat="47.76549" lon="-3.48082">
        <ele>26.83</ele>
        <time>2020-07-10T10:11:16Z</time>
      </trkpt>
      <trkpt lat="47.76549" lon="-3.48082">
        <ele>26.83</ele>
        <time>2020-07-10T10:11:17Z</time>
      </trkpt>
      <trkpt lat="47.76549" lon="-3.48082">
        <ele>26.83</ele>
        <time>2020-07-10T10:11:18Z</time>
      </trkpt>
      <trkpt lat="47.76549" lon="-3.48082">
        <ele>26.83</ele>
        <time>2020-07-10T10:11:19Z</time>
      </trkpt>
      <trkpt lat="47.76549" lon="-3.48082">
        <ele>26.83</ele>
        <time>2020-07-10T10:11:20Z</time>
      </trkpt>
      <trkpt lat="47.76549" lon="-3.48082">
        <ele>26.83</ele>
        <time>2020-07-10T10:11:21Z</time>
      </trkpt>
      <trkpt lat="47.76549" lon="-3.48082">
        <ele>26.83</ele>
        <time>2020-07-10T10:11:22Z</time>
      </trkpt>
      <trkpt lat="47.76549" lon="-3.48082">
        <ele>26.83</ele>
        <time>2020-07-10T10:11:23Z</time>
      </trkpt>
      <trkpt lat="47.76549" lon="-3.48082">
        <ele>26.83</ele>
        <time>2020-07-10T10:11:24Z</time>
      </trkpt>
      <trkpt lat="47.76549" lon="-3.48082">
        <ele>26.83</ele>
        <time>2020-07-10T10:11:25Z</time>
      </trkpt>
      <trkpt lat="47.76549" lon="-3.48082">
        <ele>26.83</ele>
        <time>2020-07-10T10:11:26Z</time>
      </trkpt>
      <trkpt lat="47.76549" lon="-3.48082">
        <ele>26.83</ele>
        <time>2020-07-10T10:11:27Z</time>
      </trkpt>
      <trkpt lat="47.76549" lon="-3.48082">
        <ele>26.83</ele>
        <time>2020-07-10T10:11:28Z</time>
      </trkpt>
      <trkpt lat="47.76549" lon="-3.48082">
        <ele>26.83</ele>
        <time>2020-07-10T10:11:29Z</time>
      </trkpt>
      <trkpt lat="47.76549" lon="-3.48082">
        <ele>26.83</ele>
        <time>2020-07-10T10:11:30Z</time>
      </trkpt>
      <trkpt lat="47.76549" lon="-3.48082">
        <ele>26.83</ele>
        <time>2020-07-10T10:11:31Z</time>
      </trkpt>
      <trkpt lat="47.76549" lon="-3.48082">
        <ele>26.83</ele>
        <time>2020-07-10T10:11:32Z</time>
      </trkpt>
      <trkpt lat="47.7655" lon="-3.48082">
        <ele>26.84</ele>
        <time>2020-07-10T10:11:33Z</time>
      </trkpt>
      <trkpt lat="47.76551" lon="-3.48079">
        <ele>26.93</ele>
        <time>2020-07-10T10:11:34Z</time>
      </trkpt>
      <trkpt lat="47.76551" lon="-3.48076">
        <ele>27.06</ele>
        <time>2020-07-10T10:11:35Z</time>
      </trkpt>
      <trkpt lat="47.76553" lon="-3.48072">
        <ele>27.22</ele>
        <time>2020-07-10T10:11:36Z</time>
      </trkpt>
      <trkpt lat="47.76554" lon="-3.48068">
        <ele>27.41</ele>
        <time>2020-07-10T10:11:37Z</time>
      </trkpt>
      <trkpt lat="47.76555" lon="-3.48063">
        <ele>27.62</ele>
        <time>2020-07-10T10:11:38Z</time>
      </trkpt>
      <trkpt lat="47.76557" lon="-3.48059">
        <ele>27.84</ele>
        <time>2020-07-10T10:11:39Z</time>
      </trkpt>
      <trkpt lat="47.76559" lon="-3.48055">
        <ele>28.03</ele>
        <time>2020-07-10T10:11:40Z</time>
      </trkpt>
      <trkpt lat="47.7656" lon="-3.4805">
        <ele>28.13</ele>
        <time>2020-07-10T10:11:41Z</time>
      </trkpt>
      <trkpt lat="47.76562" lon="-3.48046">
        <ele>28.2</ele>
        <time>2020-07-10T10:11:42Z</time>
      </trkpt>
      <trkpt lat="47.76564" lon="-3.48043">
        <ele>28.26</ele>
        <time>2020-07-10T10:11:43Z</time>
      </trkpt>
      <trkpt lat="47.76565" lon="-3.48039">
        <ele>28.33</ele>
        <time>2020-07-10T10:11:44Z</time>
      </trkpt>
      <trkpt lat="47.76567" lon="-3.48036">
        <ele>28.39</ele>
        <time>2020-07-10T10:11:45Z</time>
      </trkpt>
      <trkpt lat="47.76569" lon="-3.48032">
        <ele>28.45</ele>
        <time>2020-07-10T10:11:46Z</time>
      </trkpt>
      <trkpt lat="47.7657" lon="-3.48029">
        <ele>28.5</ele>
        <time>2020-07-10T10:11:47Z</time>
      </trkpt>
      <trkpt lat="47.7657" lon="-3.48025">
        <ele>28.58</ele>
        <time>2020-07-10T10:11:48Z</time>
      </trkpt>
      <trkpt lat="47.76571" lon="-3.48022">
        <ele>28.71</ele>
        <time>2020-07-10T10:11:49Z</time>
      </trkpt>
      <trkpt lat="47.76572" lon="-3.48017">
        <ele>28.92</ele>
        <time>2020-07-10T10:11:50Z</time>
      </trkpt>
      <trkpt lat="47.76574" lon="-3.48011">
        <ele>29.15</ele>
        <time>2020-07-10T10:11:51Z</time>
      </trkpt>
      <trkpt lat="47.76575" lon="-3.48007">
        <ele>29.36</ele>
        <time>2020-07-10T10:11:52Z</time>
      </trkpt>
      <trkpt lat="47.76576" lon="-3.48002">
        <ele>29.59</ele>
        <time>2020-07-10T10:11:53Z</time>
      </trkpt>
      <trkpt lat="47.76577" lon="-3.47997">
        <ele>29.81</ele>
        <time>2020-07-10T10:11:54Z</time>
      </trkpt>
      <trkpt lat="47.76578" lon="-3.47991">
        <ele>30.04</ele>
        <time>2020-07-10T10:11:55Z</time>
      </trkpt>
      <trkpt lat="47.76579" lon="-3.47986">
        <ele>30.25</ele>
        <time>2020-07-10T10:11:56Z</time>
      </trkpt>
      <trkpt lat="47.7658" lon="-3.47981">
        <ele>30.47</ele>
        <time>2020-07-10T10:11:57Z</time>
      </trkpt>
      <trkpt lat="47.76581" lon="-3.47975">
        <ele>30.71</ele>
        <time>2020-07-10T10:11:58Z</time>
      </trkpt>
      <trkpt lat="47.76581" lon="-3.47968">
        <ele>30.97</ele>
        <time>2020-07-10T10:11:59Z</time>
      </trkpt>
      <trkpt lat="47.76583" lon="-3.47962">
        <ele>31.22</ele>
        <time>2020-07-10T10:12:00Z</time>
      </trkpt>
      <trkpt lat="47.76583" lon="-3.47957">
        <ele>31.46</ele>
        <time>2020-07-10T10:12:01Z</time>
      </trkpt>
      <trkpt lat="47.76584" lon="-3.47952">
        <ele>31.67</ele>
        <time>2020-07-10T10:12:02Z</time>
      </trkpt>
      <trkpt lat="47.76585" lon="-3.47947">
        <ele>31.88</ele>
        <time>2020-07-10T10:12:03Z</time>
      </trkpt>
      <trkpt lat="47.76586" lon="-3.47943">
        <ele>32.06</ele>
        <time>2020-07-10T10:12:04Z</time>
      </trkpt>
      <trkpt lat="47.76587" lon="-3.47941">
        <ele>32.22</ele>
        <time>2020-07-10T10:12:05Z</time>
      </trkpt>
      <trkpt lat="47.7659" lon="-3.47939">
        <ele>32.37</ele>
        <time>2020-07-10T10:12:06Z</time>
      </trkpt>
      <trkpt lat="47.76592" lon="-3.47939">
        <ele>32.47</ele>
        <time>2020-07-10T10:12:07Z</time>
      </trkpt>
      <trkpt lat="47.76594" lon="-3.47939">
        <ele>32.54</ele>
        <time>2020-07-10T10:12:08Z</time>
      </trkpt>
      <trkpt lat="47.76597" lon="-3.4794">
        <ele>32.61</ele>
        <time>2020-07-10T10:12:09Z</time>
      </trkpt>
      <trkpt lat="47.766" lon="-3.47941">
        <ele>32.69</ele>
        <time>2020-07-10T10:12:10Z</time>
      </trkpt>
      <trkpt lat="47.76604" lon="-3.47942">
        <ele>32.78</ele>
        <time>2020-07-10T10:12:11Z</time>
      </trkpt>
      <trkpt lat="47.76607" lon="-3.47942">
        <ele>32.88</ele>
        <time>2020-07-10T10:12:12Z</time>
      </trkpt>
      <trkpt lat="47.76611" lon="-3.47941">
        <ele>33.06</ele>
        <time>2020-07-10T10:12:13Z</time>
      </trkpt>
      <trkpt lat="47.76617" lon="-3.4794">
        <ele>33.41</ele>
        <time>2020-07-10T10:12:14Z</time>
      </trkpt>
      <trkpt lat="47.76621" lon="-3.47939">
        <ele>33.79</ele>
        <time>2020-07-10T10:12:15Z</time>
      </trkpt>
      <trkpt lat="47.76626" lon="-3.47938">
        <ele>34.17</ele>
        <time>2020-07-10T10:12:16Z</time>
      </trkpt>
      <trkpt lat="47.7663" lon="-3.47937">
        <ele>34.51</ele>
        <time>2020-07-10T10:12:17Z</time>
      </trkpt>
      <trkpt lat="47.76635" lon="-3.47937">
        <ele>34.84</ele>
        <time>2020-07-10T10:12:18Z</time>
      </trkpt>
      <trkpt lat="47.76639" lon="-3.47937">
        <ele>35.15</ele>
        <time>2020-07-10T10:12:19Z</time>
      </trkpt>
      <trkpt lat="47.76643" lon="-3.47937">
        <ele>35.33</ele>
        <time>2020-07-10T10:12:20Z</time>
      </trkpt>
      <trkpt lat="47.76646" lon="-3.47937">
        <ele>35.48</ele>
        <time>2020-07-10T10:12:21Z</time>
      </trkpt>
      <trkpt lat="47.7665" lon="-3.47936">
        <ele>35.63</ele>
        <time>2020-07-10T10:12:22Z</time>
      </trkpt>
      <trkpt lat="47.76654" lon="-3.47936">
        <ele>35.77</ele>
        <time>2020-07-10T10:12:23Z</time>
      </trkpt>
      <trkpt lat="47.76657" lon="-3.47936">
        <ele>35.91</ele>
        <time>2020-07-10T10:12:24Z</time>
      </trkpt>
      <trkpt lat="47.76661" lon="-3.47936">
        <ele>36.05</ele>
        <time>2020-07-10T10:12:25Z</time>
      </trkpt>
      <trkpt lat="47.76665" lon="-3.47935">
        <ele>36.19</ele>
        <time>2020-07-10T10:12:26Z</time>
      </trkpt>
      <trkpt lat="47.76669" lon="-3.47935">
        <ele>36.35</ele>
        <time>2020-07-10T10:12:27Z</time>
      </trkpt>
      <trkpt lat="47.76674" lon="-3.47935">
        <ele>36.52</ele>
        <time>2020-07-10T10:12:28Z</time>
      </trkpt>
      <trkpt lat="47.76679" lon="-3.47935">
        <ele>36.69</ele>
        <time>2020-07-10T10:12:29Z</time>
      </trkpt>
      <trkpt lat="47.76683" lon="-3.47935">
        <ele>36.86</ele>
        <time>2020-07-10T10:12:30Z</time>
      </trkpt>
      <trkpt lat="47.76688" lon="-3.47935">
        <ele>37.03</ele>
        <time>2020-07-10T10:12:31Z</time>
      </trkpt>
      <trkpt lat="47.76692" lon="-3.47935">
        <ele>37.19</ele>
        <time>2020-07-10T10:12:32Z</time>
      </trkpt>
      <trkpt lat="47.76696" lon="-3.47934">
        <ele>37.34</ele>
        <time>2020-07-10T10:12:33Z</time>
      </trkpt>
      <trkpt lat="47.767" lon="-3.47933">
        <ele>37.46</ele>
        <time>2020-07-10T10:12:34Z</time>
      </trkpt>
      <trkpt lat="47.76704" lon="-3.47933">
        <ele>37.57</ele>
        <time>2020-07-10T10:12:35Z</time>
      </trkpt>
      <trkpt lat="47.76708" lon="-3.47933">
        <ele>37.67</ele>
        <time>2020-07-10T10:12:36Z</time>
      </trkpt>
      <trkpt lat="47.76712" lon="-3.47933">
        <ele>37.75</ele>
        <time>2020-07-10T10:12:37Z</time>
      </trkpt>
      <trkpt lat="47.76716" lon="-3.47933">
        <ele>37.84</ele>
        <time>2020-07-10T10:12:38Z</time>
      </trkpt>
      <trkpt lat="47.7672" lon="-3.47933">
        <ele>37.92</ele>
        <time>2020-07-10T10:12:39Z</time>
      </trkpt>
      <trkpt lat="47.76725" lon="-3.47932">
        <ele>38.03</ele>
        <time>2020-07-10T10:12:40Z</time>
      </trkpt>
      <trkpt lat="47.76729" lon="-3.47932">
        <ele>38.18</ele>
        <time>2020-07-10T10:12:41Z</time>
      </trkpt>
      <trkpt lat="47.76733" lon="-3.47932">
        <ele>38.32</ele>
        <time>2020-07-10T10:12:42Z</time>
      </trkpt>
      <trkpt lat="47.76737" lon="-3.47931">
        <ele>38.48</ele>
        <time>2020-07-10T10:12:43Z</time>
      </trkpt>
      <trkpt lat="47.76742" lon="-3.47931">
        <ele>38.63</ele>
        <time>2020-07-10T10:12:44Z</time>
      </trkpt>
      <trkpt lat="47.76746" lon="-3.47931">
        <ele>38.79</ele>
        <time>2020-07-10T10:12:45Z</time>
      </trkpt>
      <trkpt lat="47.7675" lon="-3.4793">
        <ele>38.94</ele>
        <time>2020-07-10T10:12:46Z</time>
      </trkpt>
      <trkpt lat="47.76754" lon="-3.4793">
        <ele>39.04</ele>
        <time>2020-07-10T10:12:47Z</time>
      </trkpt>
      <trkpt lat="47.76759" lon="-3.4793">
        <ele>39.13</ele>
        <time>2020-07-10T10:12:48Z</time>
      </trkpt>
      <trkpt lat="47.76763" lon="-3.47929">
        <ele>39.22</ele>
        <time>2020-07-10T10:12:49Z</time>
      </trkpt>
      <trkpt lat="47.76768" lon="-3.47929">
        <ele>39.31</ele>
        <time>2020-07-10T10:12:50Z</time>
      </trkpt>
      <trkpt lat="47.76772" lon="-3.47929">
        <ele>39.41</ele>
        <time>2020-07-10T10:12:51Z</time>
      </trkpt>
      <trkpt lat="47.76776" lon="-3.47928">
        <ele>39.51</ele>
        <time>2020-07-10T10:12:52Z</time>
      </trkpt>
      <trkpt lat="47.76781" lon="-3.47928">
        <ele>39.61</ele>
        <time>2020-07-10T10:12:53Z</time>
      </trkpt>
      <trkpt lat="47.76785" lon="-3.47927">
        <ele>39.69</ele>
        <time>2020-07-10T10:12:54Z</time>
      </trkpt>
      <trkpt lat="47.7679" lon="-3.47927">
        <ele>39.76</ele>
        <time>2020-07-10T10:12:55Z</time>
      </trkpt>
      <trkpt lat="47.76794" lon="-3.47926">
        <ele>39.83</ele>
        <time>2020-07-10T10:12:56Z</time>
      </trkpt>
      <trkpt lat="47.76799" lon="-3.47926">
        <ele>39.89</ele>
        <time>2020-07-10T10:12:57Z</time>
      </trkpt>
      <trkpt lat="47.76804" lon="-3.47925">
        <ele>39.95</ele>
        <time>2020-07-10T10:12:58Z</time>
      </trkpt>
      <trkpt lat="47.76809" lon="-3.47925">
        <ele>39.96</ele>
        <time>2020-07-10T10:12:59Z</time>
      </trkpt>
      <trkpt lat="47.76814" lon="-3.47924">
        <ele>39.94</ele>
        <time>2020-07-10T10:13:00Z</time>
      </trkpt>
      <trkpt lat="47.76819" lon="-3.47923">
        <ele>39.9</ele>
        <time>2020-07-10T10:13:01Z</time>
      </trkpt>
      <trkpt lat="47.76824" lon="-3.47923">
        <ele>39.87</ele>
        <time>2020-07-10T10:13:02Z</time>
      </trkpt>
      <trkpt lat="47.76829" lon="-3.47922">
        <ele>39.85</ele>
        <time>2020-07-10T10:13:03Z</time>
      </trkpt>
      <trkpt lat="47.76834" lon="-3.47922">
        <ele>39.83</ele>
        <time>2020-07-10T10:13:04Z</time>
      </trkpt>
      <trkpt lat="47.76839" lon="-3.47921">
        <ele>39.86</ele>
        <time>2020-07-10T10:13:05Z</time>
      </trkpt>
      <trkpt lat="47.76843" lon="-3.4792">
        <ele>39.91</ele>
        <time>2020-07-10T10:13:06Z</time>
      </trkpt>
      <trkpt lat="47.76849" lon="-3.47919">
        <ele>39.94</ele>
        <time>2020-07-10T10:13:07Z</time>
      </trkpt>
      <trkpt lat="47.76854" lon="-3.47919">
        <ele>39.97</ele>
        <time>2020-07-10T10:13:08Z</time>
      </trkpt>
      <trkpt lat="47.76859" lon="-3.47918">
        <ele>39.99</ele>
        <time>2020-07-10T10:13:09Z</time>
      </trkpt>
      <trkpt lat="47.76864" lon="-3.47917">
        <ele>40.06</ele>
        <time>2020-07-10T10:13:10Z</time>
      </trkpt>
      <trkpt lat="47.76869" lon="-3.47917">
        <ele>40.2</ele>
        <time>2020-07-10T10:13:11Z</time>
      </trkpt>
      <trkpt lat="47.76873" lon="-3.47916">
        <ele>40.38</ele>
        <time>2020-07-10T10:13:12Z</time>
      </trkpt>
      <trkpt lat="47.76879" lon="-3.47916">
        <ele>40.57</ele>
        <time>2020-07-10T10:13:13Z</time>
      </trkpt>
      <trkpt lat="47.76883" lon="-3.47915">
        <ele>40.77</ele>
        <time>2020-07-10T10:13:14Z</time>
      </trkpt>
      <trkpt lat="47.76888" lon="-3.47915">
        <ele>40.97</ele>
        <time>2020-07-10T10:13:15Z</time>
      </trkpt>
      <trkpt lat="47.76893" lon="-3.47914">
        <ele>41.17</ele>
        <time>2020-07-10T10:13:16Z</time>
      </trkpt>
      <trkpt lat="47.76898" lon="-3.47913">
        <ele>41.37</ele>
        <time>2020-07-10T10:13:17Z</time>
      </trkpt>
      <trkpt lat="47.76903" lon="-3.47913">
        <ele>41.55</ele>
        <time>2020-07-10T10:13:18Z</time>
      </trkpt>
      <trkpt lat="47.76907" lon="-3.47913">
        <ele>41.71</ele>
        <time>2020-07-10T10:13:19Z</time>
      </trkpt>
      <trkpt lat="47.76912" lon="-3.47913">
        <ele>41.87</ele>
        <time>2020-07-10T10:13:20Z</time>
      </trkpt>
      <trkpt lat="47.76916" lon="-3.47913">
        <ele>42.05</ele>
        <time>2020-07-10T10:13:21Z</time>
      </trkpt>
      <trkpt lat="47.76921" lon="-3.47912">
        <ele>42.21</ele>
        <time>2020-07-10T10:13:22Z</time>
      </trkpt>
      <trkpt lat="47.76925" lon="-3.47912">
        <ele>42.36</ele>
        <time>2020-07-10T10:13:23Z</time>
      </trkpt>
      <trkpt lat="47.7693" lon="-3.47912">
        <ele>42.5</ele>
        <time>2020-07-10T10:13:24Z</time>
      </trkpt>
      <trkpt lat="47.76934" lon="-3.47912">
        <ele>42.64</ele>
        <time>2020-07-10T10:13:25Z</time>
      </trkpt>
      <trkpt lat="47.76939" lon="-3.47912">
        <ele>42.78</ele>
        <time>2020-07-10T10:13:26Z</time>
      </trkpt>
      <trkpt lat="47.76944" lon="-3.47912">
        <ele>42.92</ele>
        <time>2020-07-10T10:13:27Z</time>
      </trkpt>
      <trkpt lat="47.76949" lon="-3.47912">
        <ele>43.08</ele>
        <time>2020-07-10T10:13:28Z</time>
      </trkpt>
      <trkpt lat="47.76953" lon="-3.47912">
        <ele>43.24</ele>
        <time>2020-07-10T10:13:29Z</time>
      </trkpt>
      <trkpt lat="47.76958" lon="-3.47911">
        <ele>43.42</ele>
        <time>2020-07-10T10:13:30Z</time>
      </trkpt>
      <trkpt lat="47.76963" lon="-3.47911">
        <ele>43.59</ele>
        <time>2020-07-10T10:13:31Z</time>
      </trkpt>
      <trkpt lat="47.76967" lon="-3.47911">
        <ele>43.75</ele>
        <time>2020-07-10T10:13:32Z</time>
      </trkpt>
      <trkpt lat="47.76972" lon="-3.4791">
        <ele>43.92</ele>
        <time>2020-07-10T10:13:33Z</time>
      </trkpt>
      <trkpt lat="47.76977" lon="-3.4791">
        <ele>44.01</ele>
        <time>2020-07-10T10:13:34Z</time>
      </trkpt>
      <trkpt lat="47.76982" lon="-3.47909">
        <ele>44.07</ele>
        <time>2020-07-10T10:13:35Z</time>
      </trkpt>
      <trkpt lat="47.76987" lon="-3.47909">
        <ele>44.13</ele>
        <time>2020-07-10T10:13:36Z</time>
      </trkpt>
      <trkpt lat="47.76992" lon="-3.47908">
        <ele>44.19</ele>
        <time>2020-07-10T10:13:37Z</time>
      </trkpt>
      <trkpt lat="47.76997" lon="-3.47908">
        <ele>44.26</ele>
        <time>2020-07-10T10:13:38Z</time>
      </trkpt>
      <trkpt lat="47.77001" lon="-3.47907">
        <ele>44.35</ele>
        <time>2020-07-10T10:13:39Z</time>
      </trkpt>
      <trkpt lat="47.77011" lon="-3.47906">
        <ele>44.64</ele>
        <time>2020-07-10T10:13:41Z</time>
      </trkpt>
      <trkpt lat="47.77015" lon="-3.47906">
        <ele>44.85</ele>
        <time>2020-07-10T10:13:42Z</time>
      </trkpt>
      <trkpt lat="47.7702" lon="-3.47905">
        <ele>45.04</ele>
        <time>2020-07-10T10:13:43Z</time>
      </trkpt>
      <trkpt lat="47.77024" lon="-3.47905">
        <ele>45.23</ele>
        <time>2020-07-10T10:13:44Z</time>
      </trkpt>
      <trkpt lat="47.77029" lon="-3.47905">
        <ele>45.4</ele>
        <time>2020-07-10T10:13:45Z</time>
      </trkpt>
      <trkpt lat="47.77034" lon="-3.47904">
        <ele>45.52</ele>
        <time>2020-07-10T10:13:46Z</time>
      </trkpt>
      <trkpt lat="47.77039" lon="-3.47904">
        <ele>45.63</ele>
        <time>2020-07-10T10:13:47Z</time>
      </trkpt>
      <trkpt lat="47.77044" lon="-3.47903">
        <ele>45.73</ele>
        <time>2020-07-10T10:13:48Z</time>
      </trkpt>
      <trkpt lat="47.77048" lon="-3.47903">
        <ele>45.83</ele>
        <time>2020-07-10T10:13:49Z</time>
      </trkpt>
      <trkpt lat="47.77053" lon="-3.47902">
        <ele>45.92</ele>
        <time>2020-07-10T10:13:50Z</time>
      </trkpt>
      <trkpt lat="47.77058" lon="-3.47901">
        <ele>46.01</ele>
        <time>2020-07-10T10:13:51Z</time>
      </trkpt>
      <trkpt lat="47.77063" lon="-3.479">
        <ele>46.11</ele>
        <time>2020-07-10T10:13:52Z</time>
      </trkpt>
      <trkpt lat="47.77067" lon="-3.47899">
        <ele>46.22</ele>
        <time>2020-07-10T10:13:53Z</time>
      </trkpt>
      <trkpt lat="47.77072" lon="-3.47898">
        <ele>46.34</ele>
        <time>2020-07-10T10:13:54Z</time>
      </trkpt>
      <trkpt lat="47.77077" lon="-3.47898">
        <ele>46.47</ele>
        <time>2020-07-10T10:13:55Z</time>
      </trkpt>
      <trkpt lat="47.77082" lon="-3.47897">
        <ele>46.6</ele>
        <time>2020-07-10T10:13:56Z</time>
      </trkpt>
      <trkpt lat="47.77087" lon="-3.47897">
        <ele>46.71</ele>
        <time>2020-07-10T10:13:57Z</time>
      </trkpt>
      <trkpt lat="47.77092" lon="-3.47896">
        <ele>46.78</ele>
        <time>2020-07-10T10:13:58Z</time>
      </trkpt>
      <trkpt lat="47.77097" lon="-3.47896">
        <ele>46.85</ele>
        <time>2020-07-10T10:13:59Z</time>
      </trkpt>
      <trkpt lat="47.77102" lon="-3.47895">
        <ele>46.9</ele>
        <time>2020-07-10T10:14:00Z</time>
      </trkpt>
      <trkpt lat="47.77106" lon="-3.47895">
        <ele>46.95</ele>
        <time>2020-07-10T10:14:01Z</time>
      </trkpt>
      <trkpt lat="47.77111" lon="-3.47894">
        <ele>46.98</ele>
        <time>2020-07-10T10:14:02Z</time>
      </trkpt>
      <trkpt lat="47.77116" lon="-3.47894">
        <ele>47</ele>
        <time>2020-07-10T10:14:03Z</time>
      </trkpt>
      <trkpt lat="47.7712" lon="-3.47895">
        <ele>47</ele>
        <time>2020-07-10T10:14:04Z</time>
      </trkpt>
      <trkpt lat="47.77124" lon="-3.47895">
        <ele>47</ele>
        <time>2020-07-10T10:14:05Z</time>
      </trkpt>
      <trkpt lat="47.77128" lon="-3.47895">
        <ele>47</ele>
        <time>2020-07-10T10:14:06Z</time>
      </trkpt>
      <trkpt lat="47.77132" lon="-3.47894">
        <ele>47</ele>
        <time>2020-07-10T10:14:07Z</time>
      </trkpt>
      <trkpt lat="47.77136" lon="-3.47893">
        <ele>47</ele>
        <time>2020-07-10T10:14:08Z</time>
      </trkpt>
      <trkpt lat="47.77141" lon="-3.47893">
        <ele>47</ele>
        <time>2020-07-10T10:14:09Z</time>
      </trkpt>
      <trkpt lat="47.77146" lon="-3.47891">
        <ele>47</ele>
        <time>2020-07-10T10:14:10Z</time>
      </trkpt>
      <trkpt lat="47.7715" lon="-3.4789">
        <ele>47</ele>
        <time>2020-07-10T10:14:11Z</time>
      </trkpt>
      <trkpt lat="47.77155" lon="-3.47889">
        <ele>47</ele>
        <time>2020-07-10T10:14:12Z</time>
      </trkpt>
      <trkpt lat="47.77159" lon="-3.47889">
        <ele>47</ele>
        <time>2020-07-10T10:14:13Z</time>
      </trkpt>
      <trkpt lat="47.77162" lon="-3.47888">
        <ele>47</ele>
        <time>2020-07-10T10:14:14Z</time>
      </trkpt>
      <trkpt lat="47.77166" lon="-3.47883">
        <ele>47.01</ele>
        <time>2020-07-10T10:14:15Z</time>
      </trkpt>
      <trkpt lat="47.77168" lon="-3.47877">
        <ele>46.97</ele>
        <time>2020-07-10T10:14:16Z</time>
      </trkpt>
      <trkpt lat="47.77168" lon="-3.47869">
        <ele>46.94</ele>
        <time>2020-07-10T10:14:17Z</time>
      </trkpt>
      <trkpt lat="47.77168" lon="-3.47862">
        <ele>46.94</ele>
        <time>2020-07-10T10:14:18Z</time>
      </trkpt>
      <trkpt lat="47.77168" lon="-3.47854">
        <ele>46.94</ele>
        <time>2020-07-10T10:14:19Z</time>
      </trkpt>
      <trkpt lat="47.77168" lon="-3.47846">
        <ele>46.96</ele>
        <time>2020-07-10T10:14:20Z</time>
      </trkpt>
      <trkpt lat="47.77167" lon="-3.47838">
        <ele>46.97</ele>
        <time>2020-07-10T10:14:21Z</time>
      </trkpt>
      <trkpt lat="47.77167" lon="-3.47831">
        <ele>46.99</ele>
        <time>2020-07-10T10:14:22Z</time>
      </trkpt>
      <trkpt lat="47.77166" lon="-3.47823">
        <ele>47</ele>
        <time>2020-07-10T10:14:23Z</time>
      </trkpt>
      <trkpt lat="47.77165" lon="-3.47815">
        <ele>47</ele>
        <time>2020-07-10T10:14:24Z</time>
      </trkpt>
      <trkpt lat="47.77164" lon="-3.47808">
        <ele>47</ele>
        <time>2020-07-10T10:14:25Z</time>
      </trkpt>
      <trkpt lat="47.77164" lon="-3.478">
        <ele>47</ele>
        <time>2020-07-10T10:14:26Z</time>
      </trkpt>
      <trkpt lat="47.77163" lon="-3.47792">
        <ele>47</ele>
        <time>2020-07-10T10:14:27Z</time>
      </trkpt>
      <trkpt lat="47.77162" lon="-3.47783">
        <ele>47</ele>
        <time>2020-07-10T10:14:28Z</time>
      </trkpt>
      <trkpt lat="47.77162" lon="-3.47775">
        <ele>47</ele>
        <time>2020-07-10T10:14:29Z</time>
      </trkpt>
      <trkpt lat="47.77161" lon="-3.47766">
        <ele>47</ele>
        <time>2020-07-10T10:14:30Z</time>
      </trkpt>
      <trkpt lat="47.77161" lon="-3.47758">
        <ele>47</ele>
        <time>2020-07-10T10:14:31Z</time>
      </trkpt>
      <trkpt lat="47.77161" lon="-3.47749">
        <ele>46.99</ele>
        <time>2020-07-10T10:14:32Z</time>
      </trkpt>
      <trkpt lat="47.77162" lon="-3.47741">
        <ele>46.82</ele>
        <time>2020-07-10T10:14:33Z</time>
      </trkpt>
      <trkpt lat="47.77162" lon="-3.47733">
        <ele>46.59</ele>
        <time>2020-07-10T10:14:34Z</time>
      </trkpt>
      <trkpt lat="47.77164" lon="-3.47725">
        <ele>46.32</ele>
        <time>2020-07-10T10:14:35Z</time>
      </trkpt>
      <trkpt lat="47.77165" lon="-3.47717">
        <ele>46.14</ele>
        <time>2020-07-10T10:14:36Z</time>
      </trkpt>
      <trkpt lat="47.77166" lon="-3.47709">
        <ele>46.05</ele>
        <time>2020-07-10T10:14:37Z</time>
      </trkpt>
      <trkpt lat="47.77168" lon="-3.47702">
        <ele>45.98</ele>
        <time>2020-07-10T10:14:38Z</time>
      </trkpt>
      <trkpt lat="47.77169" lon="-3.47694">
        <ele>45.93</ele>
        <time>2020-07-10T10:14:39Z</time>
      </trkpt>
      <trkpt lat="47.77171" lon="-3.47687">
        <ele>45.87</ele>
        <time>2020-07-10T10:14:40Z</time>
      </trkpt>
      <trkpt lat="47.77172" lon="-3.4768">
        <ele>45.82</ele>
        <time>2020-07-10T10:14:41Z</time>
      </trkpt>
      <trkpt lat="47.77174" lon="-3.47673">
        <ele>45.76</ele>
        <time>2020-07-10T10:14:42Z</time>
      </trkpt>
      <trkpt lat="47.77176" lon="-3.47665">
        <ele>45.67</ele>
        <time>2020-07-10T10:14:43Z</time>
      </trkpt>
      <trkpt lat="47.77178" lon="-3.47657">
        <ele>45.48</ele>
        <time>2020-07-10T10:14:44Z</time>
      </trkpt>
      <trkpt lat="47.77179" lon="-3.4765">
        <ele>45.3</ele>
        <time>2020-07-10T10:14:45Z</time>
      </trkpt>
      <trkpt lat="47.77181" lon="-3.47643">
        <ele>45.13</ele>
        <time>2020-07-10T10:14:46Z</time>
      </trkpt>
      <trkpt lat="47.77184" lon="-3.47636">
        <ele>45</ele>
        <time>2020-07-10T10:14:47Z</time>
      </trkpt>
      <trkpt lat="47.77188" lon="-3.47632">
        <ele>44.86</ele>
        <time>2020-07-10T10:14:48Z</time>
      </trkpt>
      <trkpt lat="47.77194" lon="-3.47629">
        <ele>44.72</ele>
        <time>2020-07-10T10:14:49Z</time>
      </trkpt>
      <trkpt lat="47.77199" lon="-3.47629">
        <ele>44.47</ele>
        <time>2020-07-10T10:14:50Z</time>
      </trkpt>
      <trkpt lat="47.77204" lon="-3.47631">
        <ele>44.2</ele>
        <time>2020-07-10T10:14:51Z</time>
      </trkpt>
      <trkpt lat="47.77211" lon="-3.47633">
        <ele>43.89</ele>
        <time>2020-07-10T10:14:52Z</time>
      </trkpt>
      <trkpt lat="47.77217" lon="-3.47636">
        <ele>43.54</ele>
        <time>2020-07-10T10:14:53Z</time>
      </trkpt>
      <trkpt lat="47.77222" lon="-3.47637">
        <ele>43.16</ele>
        <time>2020-07-10T10:14:54Z</time>
      </trkpt>
      <trkpt lat="47.77228" lon="-3.47639">
        <ele>42.74</ele>
        <time>2020-07-10T10:14:55Z</time>
      </trkpt>
      <trkpt lat="47.77234" lon="-3.4764">
        <ele>42.3</ele>
        <time>2020-07-10T10:14:56Z</time>
      </trkpt>
      <trkpt lat="47.77241" lon="-3.47642">
        <ele>41.85</ele>
        <time>2020-07-10T10:14:57Z</time>
      </trkpt>
      <trkpt lat="47.77247" lon="-3.47643">
        <ele>41.4</ele>
        <time>2020-07-10T10:14:58Z</time>
      </trkpt>
      <trkpt lat="47.77254" lon="-3.47644">
        <ele>40.8</ele>
        <time>2020-07-10T10:14:59Z</time>
      </trkpt>
      <trkpt lat="47.77261" lon="-3.47646">
        <ele>40.05</ele>
        <time>2020-07-10T10:15:00Z</time>
      </trkpt>
      <trkpt lat="47.77268" lon="-3.47648">
        <ele>39.19</ele>
        <time>2020-07-10T10:15:01Z</time>
      </trkpt>
      <trkpt lat="47.77276" lon="-3.47651">
        <ele>38.24</ele>
        <time>2020-07-10T10:15:02Z</time>
      </trkpt>
      <trkpt lat="47.77283" lon="-3.47655">
        <ele>37.32</ele>
        <time>2020-07-10T10:15:03Z</time>
      </trkpt>
      <trkpt lat="47.77291" lon="-3.47659">
        <ele>36.42</ele>
        <time>2020-07-10T10:15:04Z</time>
      </trkpt>
      <trkpt lat="47.77298" lon="-3.47662">
        <ele>35.48</ele>
        <time>2020-07-10T10:15:05Z</time>
      </trkpt>
      <trkpt lat="47.77306" lon="-3.47665">
        <ele>34.47</ele>
        <time>2020-07-10T10:15:06Z</time>
      </trkpt>
      <trkpt lat="47.77314" lon="-3.47669">
        <ele>33.19</ele>
        <time>2020-07-10T10:15:07Z</time>
      </trkpt>
      <trkpt lat="47.77323" lon="-3.47672">
        <ele>31.78</ele>
        <time>2020-07-10T10:15:08Z</time>
      </trkpt>
      <trkpt lat="47.77332" lon="-3.47674">
        <ele>30.47</ele>
        <time>2020-07-10T10:15:09Z</time>
      </trkpt>
      <trkpt lat="47.77342" lon="-3.4768">
        <ele>28.96</ele>
        <time>2020-07-10T10:15:10Z</time>
      </trkpt>
      <trkpt lat="47.77355" lon="-3.47681">
        <ele>27.16</ele>
        <time>2020-07-10T10:15:11Z</time>
      </trkpt>
      <trkpt lat="47.77366" lon="-3.47682">
        <ele>25.39</ele>
        <time>2020-07-10T10:15:12Z</time>
      </trkpt>
      <trkpt lat="47.77375" lon="-3.47686">
        <ele>23.67</ele>
        <time>2020-07-10T10:15:13Z</time>
      </trkpt>
      <trkpt lat="47.77384" lon="-3.47686">
        <ele>22.15</ele>
        <time>2020-07-10T10:15:14Z</time>
      </trkpt>
      <trkpt lat="47.77392" lon="-3.47689">
        <ele>20.82</ele>
        <time>2020-07-10T10:15:15Z</time>
      </trkpt>
      <trkpt lat="47.774" lon="-3.47692">
        <ele>20.04</ele>
        <time>2020-07-10T10:15:16Z</time>
      </trkpt>
      <trkpt lat="47.77408" lon="-3.47695">
        <ele>19.53</ele>
        <time>2020-07-10T10:15:17Z</time>
      </trkpt>
      <trkpt lat="47.77414" lon="-3.47699">
        <ele>19.12</ele>
        <time>2020-07-10T10:15:18Z</time>
      </trkpt>
      <trkpt lat="47.77419" lon="-3.47701">
        <ele>18.98</ele>
        <time>2020-07-10T10:15:19Z</time>
      </trkpt>
      <trkpt lat="47.77421" lon="-3.47703">
        <ele>19.05</ele>
        <time>2020-07-10T10:15:20Z</time>
      </trkpt>
      <trkpt lat="47.77424" lon="-3.47706">
        <ele>19.18</ele>
        <time>2020-07-10T10:15:21Z</time>
      </trkpt>
      <trkpt lat="47.77426" lon="-3.47708">
        <ele>19.31</ele>
        <time>2020-07-10T10:15:22Z</time>
      </trkpt>
      <trkpt lat="47.77428" lon="-3.47708">
        <ele>19.5</ele>
        <time>2020-07-10T10:15:23Z</time>
      </trkpt>
      <trkpt lat="47.77431" lon="-3.47706">
        <ele>19.73</ele>
        <time>2020-07-10T10:15:24Z</time>
      </trkpt>
      <trkpt lat="47.77433" lon="-3.47704">
        <ele>19.96</ele>
        <time>2020-07-10T10:15:25Z</time>
      </trkpt>
      <trkpt lat="47.77436" lon="-3.477">
        <ele>20.21</ele>
        <time>2020-07-10T10:15:26Z</time>
      </trkpt>
      <trkpt lat="47.77437" lon="-3.47696">
        <ele>20.39</ele>
        <time>2020-07-10T10:15:27Z</time>
      </trkpt>
      <trkpt lat="47.77438" lon="-3.47692">
        <ele>20.52</ele>
        <time>2020-07-10T10:15:28Z</time>
      </trkpt>
      <trkpt lat="47.7744" lon="-3.47686">
        <ele>20.64</ele>
        <time>2020-07-10T10:15:29Z</time>
      </trkpt>
      <trkpt lat="47.7744" lon="-3.4768">
        <ele>20.68</ele>
        <time>2020-07-10T10:15:30Z</time>
      </trkpt>
      <trkpt lat="47.7744" lon="-3.47675">
        <ele>20.68</ele>
        <time>2020-07-10T10:15:31Z</time>
      </trkpt>
      <trkpt lat="47.7744" lon="-3.47671">
        <ele>20.67</ele>
        <time>2020-07-10T10:15:32Z</time>
      </trkpt>
      <trkpt lat="47.77441" lon="-3.47665">
        <ele>20.7</ele>
        <time>2020-07-10T10:15:33Z</time>
      </trkpt>
      <trkpt lat="47.77441" lon="-3.4766">
        <ele>20.72</ele>
        <time>2020-07-10T10:15:34Z</time>
      </trkpt>
      <trkpt lat="47.77441" lon="-3.47654">
        <ele>20.75</ele>
        <time>2020-07-10T10:15:35Z</time>
      </trkpt>
      <trkpt lat="47.77442" lon="-3.47649">
        <ele>20.79</ele>
        <time>2020-07-10T10:15:36Z</time>
      </trkpt>
      <trkpt lat="47.77443" lon="-3.47643">
        <ele>20.84</ele>
        <time>2020-07-10T10:15:37Z</time>
      </trkpt>
      <trkpt lat="47.77444" lon="-3.47635">
        <ele>20.94</ele>
        <time>2020-07-10T10:15:38Z</time>
      </trkpt>
      <trkpt lat="47.77444" lon="-3.4763">
        <ele>20.99</ele>
        <time>2020-07-10T10:15:39Z</time>
      </trkpt>
      <trkpt lat="47.77444" lon="-3.47625">
        <ele>20.99</ele>
        <time>2020-07-10T10:15:40Z</time>
      </trkpt>
      <trkpt lat="47.77445" lon="-3.47619">
        <ele>21.03</ele>
        <time>2020-07-10T10:15:41Z</time>
      </trkpt>
      <trkpt lat="47.77444" lon="-3.4761">
        <ele>21.02</ele>
        <time>2020-07-10T10:15:42Z</time>
      </trkpt>
      <trkpt lat="47.77445" lon="-3.47605">
        <ele>21.15</ele>
        <time>2020-07-10T10:15:43Z</time>
      </trkpt>
      <trkpt lat="47.77446" lon="-3.476">
        <ele>21.28</ele>
        <time>2020-07-10T10:15:44Z</time>
      </trkpt>
      <trkpt lat="47.77446" lon="-3.47594">
        <ele>21.34</ele>
        <time>2020-07-10T10:15:45Z</time>
      </trkpt>
      <trkpt lat="47.77446" lon="-3.4759">
        <ele>21.46</ele>
        <time>2020-07-10T10:15:46Z</time>
      </trkpt>
      <trkpt lat="47.77447" lon="-3.47585">
        <ele>21.71</ele>
        <time>2020-07-10T10:15:47Z</time>
      </trkpt>
      <trkpt lat="47.77448" lon="-3.4758">
        <ele>21.97</ele>
        <time>2020-07-10T10:15:48Z</time>
      </trkpt>
      <trkpt lat="47.77448" lon="-3.47574">
        <ele>22.3</ele>
        <time>2020-07-10T10:15:49Z</time>
      </trkpt>
      <trkpt lat="47.77449" lon="-3.47569">
        <ele>22.67</ele>
        <time>2020-07-10T10:15:50Z</time>
      </trkpt>
      <trkpt lat="47.7745" lon="-3.47564">
        <ele>22.95</ele>
        <time>2020-07-10T10:15:51Z</time>
      </trkpt>
      <trkpt lat="47.77451" lon="-3.4756">
        <ele>23.26</ele>
        <time>2020-07-10T10:15:52Z</time>
      </trkpt>
      <trkpt lat="47.77451" lon="-3.47556">
        <ele>23.56</ele>
        <time>2020-07-10T10:15:53Z</time>
      </trkpt>
      <trkpt lat="47.77452" lon="-3.47551">
        <ele>23.74</ele>
        <time>2020-07-10T10:15:54Z</time>
      </trkpt>
      <trkpt lat="47.77452" lon="-3.47546">
        <ele>23.76</ele>
        <time>2020-07-10T10:15:55Z</time>
      </trkpt>
      <trkpt lat="47.77452" lon="-3.47541">
        <ele>23.76</ele>
        <time>2020-07-10T10:15:56Z</time>
      </trkpt>
      <trkpt lat="47.77453" lon="-3.47535">
        <ele>23.83</ele>
        <time>2020-07-10T10:15:57Z</time>
      </trkpt>
      <trkpt lat="47.77454" lon="-3.47531">
        <ele>23.95</ele>
        <time>2020-07-10T10:15:58Z</time>
      </trkpt>
      <trkpt lat="47.77454" lon="-3.47527">
        <ele>24.06</ele>
        <time>2020-07-10T10:15:59Z</time>
      </trkpt>
      <trkpt lat="47.77456" lon="-3.47521">
        <ele>24.22</ele>
        <time>2020-07-10T10:16:00Z</time>
      </trkpt>
      <trkpt lat="47.77457" lon="-3.47517">
        <ele>24.35</ele>
        <time>2020-07-10T10:16:01Z</time>
      </trkpt>
      <trkpt lat="47.77458" lon="-3.47512">
        <ele>24.37</ele>
        <time>2020-07-10T10:16:02Z</time>
      </trkpt>
      <trkpt lat="47.77459" lon="-3.47509">
        <ele>24.38</ele>
        <time>2020-07-10T10:16:03Z</time>
      </trkpt>
      <trkpt lat="47.77459" lon="-3.47502">
        <ele>24.31</ele>
        <time>2020-07-10T10:16:04Z</time>
      </trkpt>
      <trkpt lat="47.7746" lon="-3.47495">
        <ele>24.17</ele>
        <time>2020-07-10T10:16:05Z</time>
      </trkpt>
      <trkpt lat="47.77461" lon="-3.47489">
        <ele>23.83</ele>
        <time>2020-07-10T10:16:06Z</time>
      </trkpt>
      <trkpt lat="47.77461" lon="-3.47486">
        <ele>23.7</ele>
        <time>2020-07-10T10:16:07Z</time>
      </trkpt>
      <trkpt lat="47.77462" lon="-3.47483">
        <ele>23.62</ele>
        <time>2020-07-10T10:16:08Z</time>
      </trkpt>
      <trkpt lat="47.77465" lon="-3.47479">
        <ele>23.9</ele>
        <time>2020-07-10T10:16:09Z</time>
      </trkpt>
      <trkpt lat="47.77466" lon="-3.47479">
        <ele>24.06</ele>
        <time>2020-07-10T10:16:10Z</time>
      </trkpt>
      <trkpt lat="47.77466" lon="-3.47479">
        <ele>24.13</ele>
        <time>2020-07-10T10:16:11Z</time>
      </trkpt>
      <trkpt lat="47.77466" lon="-3.47479">
        <ele>24.15</ele>
        <time>2020-07-10T10:16:12Z</time>
      </trkpt>
      <trkpt lat="47.77466" lon="-3.47479">
        <ele>24.15</ele>
        <time>2020-07-10T10:16:13Z</time>
      </trkpt>
      <trkpt lat="47.77466" lon="-3.47479">
        <ele>24.16</ele>
        <time>2020-07-10T10:16:14Z</time>
      </trkpt>
      <trkpt lat="47.77466" lon="-3.47479">
        <ele>24.16</ele>
        <time>2020-07-10T10:16:15Z</time>
      </trkpt>
      <trkpt lat="47.77466" lon="-3.47479">
        <ele>24.16</ele>
        <time>2020-07-10T10:16:16Z</time>
      </trkpt>
      <trkpt lat="47.77466" lon="-3.47479">
        <ele>24.16</ele>
        <time>2020-07-10T10:16:17Z</time>
      </trkpt>
      <trkpt lat="47.77466" lon="-3.47479">
        <ele>24.16</ele>
        <time>2020-07-10T10:16:18Z</time>
      </trkpt>
      <trkpt lat="47.77463" lon="-3.47466">
        <ele>23.38</ele>
        <time>2020-07-10T10:16:19Z</time>
      </trkpt>
      <trkpt lat="47.77462" lon="-3.47463">
        <ele>23.02</ele>
        <time>2020-07-10T10:16:20Z</time>
      </trkpt>
      <trkpt lat="47.77462" lon="-3.47459">
        <ele>22.83</ele>
        <time>2020-07-10T10:16:21Z</time>
      </trkpt>
      <trkpt lat="47.77461" lon="-3.47456">
        <ele>22.73</ele>
        <time>2020-07-10T10:16:22Z</time>
      </trkpt>
      <trkpt lat="47.7746" lon="-3.47453">
        <ele>22.55</ele>
        <time>2020-07-10T10:16:23Z</time>
      </trkpt>
      <trkpt lat="47.77459" lon="-3.47448">
        <ele>22.24</ele>
        <time>2020-07-10T10:16:24Z</time>
      </trkpt>
      <trkpt lat="47.77459" lon="-3.47445">
        <ele>22.12</ele>
        <time>2020-07-10T10:16:25Z</time>
      </trkpt>
      <trkpt lat="47.77459" lon="-3.4744">
        <ele>22.03</ele>
        <time>2020-07-10T10:16:26Z</time>
      </trkpt>
      <trkpt lat="47.77458" lon="-3.47434">
        <ele>21.83</ele>
        <time>2020-07-10T10:16:27Z</time>
      </trkpt>
      <trkpt lat="47.77458" lon="-3.4743">
        <ele>21.7</ele>
        <time>2020-07-10T10:16:28Z</time>
      </trkpt>
      <trkpt lat="47.77458" lon="-3.47426">
        <ele>21.6</ele>
        <time>2020-07-10T10:16:29Z</time>
      </trkpt>
      <trkpt lat="47.77457" lon="-3.47421">
        <ele>21.48</ele>
        <time>2020-07-10T10:16:30Z</time>
      </trkpt>
      <trkpt lat="47.77457" lon="-3.47416">
        <ele>21.31</ele>
        <time>2020-07-10T10:16:31Z</time>
      </trkpt>
      <trkpt lat="47.77456" lon="-3.47411">
        <ele>21.23</ele>
        <time>2020-07-10T10:16:32Z</time>
      </trkpt>
      <trkpt lat="47.77456" lon="-3.47406">
        <ele>21.27</ele>
        <time>2020-07-10T10:16:33Z</time>
      </trkpt>
      <trkpt lat="47.77455" lon="-3.47397">
        <ele>21.32</ele>
        <time>2020-07-10T10:16:34Z</time>
      </trkpt>
      <trkpt lat="47.77454" lon="-3.47391">
        <ele>21.29</ele>
        <time>2020-07-10T10:16:35Z</time>
      </trkpt>
      <trkpt lat="47.77453" lon="-3.47386">
        <ele>21.2</ele>
        <time>2020-07-10T10:16:36Z</time>
      </trkpt>
      <trkpt lat="47.77452" lon="-3.47382">
        <ele>21.09</ele>
        <time>2020-07-10T10:16:37Z</time>
      </trkpt>
      <trkpt lat="47.77451" lon="-3.47378">
        <ele>21.02</ele>
        <time>2020-07-10T10:16:38Z</time>
      </trkpt>
      <trkpt lat="47.77451" lon="-3.47373">
        <ele>21.02</ele>
        <time>2020-07-10T10:16:39Z</time>
      </trkpt>
      <trkpt lat="47.77452" lon="-3.47367">
        <ele>21.07</ele>
        <time>2020-07-10T10:16:40Z</time>
      </trkpt>
      <trkpt lat="47.77452" lon="-3.47362">
        <ele>21.12</ele>
        <time>2020-07-10T10:16:41Z</time>
      </trkpt>
      <trkpt lat="47.77453" lon="-3.47356">
        <ele>21.22</ele>
        <time>2020-07-10T10:16:42Z</time>
      </trkpt>
      <trkpt lat="47.77453" lon="-3.47351">
        <ele>21.31</ele>
        <time>2020-07-10T10:16:43Z</time>
      </trkpt>
      <trkpt lat="47.77453" lon="-3.47346">
        <ele>21.37</ele>
        <time>2020-07-10T10:16:44Z</time>
      </trkpt>
      <trkpt lat="47.77451" lon="-3.47341">
        <ele>21.35</ele>
        <time>2020-07-10T10:16:45Z</time>
      </trkpt>
      <trkpt lat="47.77451" lon="-3.47333">
        <ele>21.43</ele>
        <time>2020-07-10T10:16:46Z</time>
      </trkpt>
      <trkpt lat="47.7745" lon="-3.47328">
        <ele>21.36</ele>
        <time>2020-07-10T10:16:47Z</time>
      </trkpt>
      <trkpt lat="47.7745" lon="-3.47321">
        <ele>21.29</ele>
        <time>2020-07-10T10:16:48Z</time>
      </trkpt>
      <trkpt lat="47.77451" lon="-3.47315">
        <ele>21.25</ele>
        <time>2020-07-10T10:16:49Z</time>
      </trkpt>
      <trkpt lat="47.77451" lon="-3.4731">
        <ele>21.25</ele>
        <time>2020-07-10T10:16:50Z</time>
      </trkpt>
      <trkpt lat="47.77452" lon="-3.47306">
        <ele>21.33</ele>
        <time>2020-07-10T10:16:51Z</time>
      </trkpt>
      <trkpt lat="47.77452" lon="-3.47303">
        <ele>21.52</ele>
        <time>2020-07-10T10:16:52Z</time>
      </trkpt>
      <trkpt lat="47.77452" lon="-3.47298">
        <ele>21.74</ele>
        <time>2020-07-10T10:16:53Z</time>
      </trkpt>
      <trkpt lat="47.77451" lon="-3.47294">
        <ele>21.87</ele>
        <time>2020-07-10T10:16:54Z</time>
      </trkpt>
      <trkpt lat="47.77452" lon="-3.4729">
        <ele>22.15</ele>
        <time>2020-07-10T10:16:55Z</time>
      </trkpt>
      <trkpt lat="47.77454" lon="-3.47283">
        <ele>22.77</ele>
        <time>2020-07-10T10:16:56Z</time>
      </trkpt>
      <trkpt lat="47.77454" lon="-3.47279">
        <ele>23.1</ele>
        <time>2020-07-10T10:16:57Z</time>
      </trkpt>
      <trkpt lat="47.77454" lon="-3.47276">
        <ele>23.23</ele>
        <time>2020-07-10T10:16:58Z</time>
      </trkpt>
      <trkpt lat="47.77454" lon="-3.47275">
        <ele>23.27</ele>
        <time>2020-07-10T10:16:59Z</time>
      </trkpt>
      <trkpt lat="47.77454" lon="-3.47274">
        <ele>23.32</ele>
        <time>2020-07-10T10:17:00Z</time>
      </trkpt>
      <trkpt lat="47.77454" lon="-3.47273">
        <ele>23.34</ele>
        <time>2020-07-10T10:17:01Z</time>
      </trkpt>
      <trkpt lat="47.77454" lon="-3.47273">
        <ele>23.34</ele>
        <time>2020-07-10T10:17:02Z</time>
      </trkpt>
      <trkpt lat="47.77454" lon="-3.47273">
        <ele>23.35</ele>
        <time>2020-07-10T10:17:03Z</time>
      </trkpt>
      <trkpt lat="47.77454" lon="-3.47273">
        <ele>23.35</ele>
        <time>2020-07-10T10:17:04Z</time>
      </trkpt>
      <trkpt lat="47.77454" lon="-3.47273">
        <ele>23.35</ele>
        <time>2020-07-10T10:17:05Z</time>
      </trkpt>
      <trkpt lat="47.77456" lon="-3.47268">
        <ele>23.48</ele>
        <time>2020-07-10T10:17:06Z</time>
      </trkpt>
      <trkpt lat="47.77456" lon="-3.47266">
        <ele>23.47</ele>
        <time>2020-07-10T10:17:07Z</time>
      </trkpt>
      <trkpt lat="47.77456" lon="-3.47265">
        <ele>23.48</ele>
        <time>2020-07-10T10:17:08Z</time>
      </trkpt>
      <trkpt lat="47.77456" lon="-3.47265">
        <ele>23.5</ele>
        <time>2020-07-10T10:17:09Z</time>
      </trkpt>
      <trkpt lat="47.77456" lon="-3.47265">
        <ele>23.51</ele>
        <time>2020-07-10T10:17:10Z</time>
      </trkpt>
      <trkpt lat="47.77456" lon="-3.47265">
        <ele>23.51</ele>
        <time>2020-07-10T10:17:11Z</time>
      </trkpt>
      <trkpt lat="47.77456" lon="-3.47265">
        <ele>23.51</ele>
        <time>2020-07-10T10:17:12Z</time>
      </trkpt>
      <trkpt lat="47.77456" lon="-3.47265">
        <ele>23.51</ele>
        <time>2020-07-10T10:17:13Z</time>
      </trkpt>
      <trkpt lat="47.77456" lon="-3.47265">
        <ele>23.51</ele>
        <time>2020-07-10T10:17:14Z</time>
      </trkpt>
      <trkpt lat="47.77456" lon="-3.47265">
        <ele>23.51</ele>
        <time>2020-07-10T10:17:15Z</time>
      </trkpt>
      <trkpt lat="47.77456" lon="-3.47265">
        <ele>23.51</ele>
        <time>2020-07-10T10:17:16Z</time>
      </trkpt>
      <trkpt lat="47.77456" lon="-3.47265">
        <ele>23.51</ele>
        <time>2020-07-10T10:17:17Z</time>
      </trkpt>
      <trkpt lat="47.77456" lon="-3.47265">
        <ele>23.51</ele>
        <time>2020-07-10T10:17:18Z</time>
      </trkpt>
      <trkpt lat="47.77456" lon="-3.47265">
        <ele>23.51</ele>
        <time>2020-07-10T10:17:19Z</time>
      </trkpt>
      <trkpt lat="47.77456" lon="-3.47265">
        <ele>23.51</ele>
        <time>2020-07-10T10:17:20Z</time>
      </trkpt>
      <trkpt lat="47.77456" lon="-3.47265">
        <ele>23.51</ele>
        <time>2020-07-10T10:17:21Z</time>
      </trkpt>
      <trkpt lat="47.77456" lon="-3.47265">
        <ele>23.51</ele>
        <time>2020-07-10T10:17:22Z</time>
      </trkpt>
      <trkpt lat="47.77456" lon="-3.47265">
        <ele>23.51</ele>
        <time>2020-07-10T10:17:23Z</time>
      </trkpt>
      <trkpt lat="47.77456" lon="-3.47265">
        <ele>23.51</ele>
        <time>2020-07-10T10:17:24Z</time>
      </trkpt>
      <trkpt lat="47.77456" lon="-3.47265">
        <ele>23.51</ele>
        <time>2020-07-10T10:17:25Z</time>
      </trkpt>
      <trkpt lat="47.77456" lon="-3.47265">
        <ele>23.51</ele>
        <time>2020-07-10T10:17:26Z</time>
      </trkpt>
      <trkpt lat="47.77456" lon="-3.47265">
        <ele>23.51</ele>
        <time>2020-07-10T10:17:27Z</time>
      </trkpt>
      <trkpt lat="47.77456" lon="-3.47265">
        <ele>23.51</ele>
        <time>2020-07-10T10:17:28Z</time>
      </trkpt>
      <trkpt lat="47.77456" lon="-3.47265">
        <ele>23.51</ele>
        <time>2020-07-10T10:17:29Z</time>
      </trkpt>
      <trkpt lat="47.77456" lon="-3.47265">
        <ele>23.51</ele>
        <time>2020-07-10T10:17:30Z</time>
      </trkpt>
      <trkpt lat="47.77447" lon="-3.47261">
        <ele>22.71</ele>
        <time>2020-07-10T10:17:31Z</time>
      </trkpt>
      <trkpt lat="47.77447" lon="-3.47261">
        <ele>22.43</ele>
        <time>2020-07-10T10:17:32Z</time>
      </trkpt>
      <trkpt lat="47.77447" lon="-3.47262">
        <ele>22.38</ele>
        <time>2020-07-10T10:17:33Z</time>
      </trkpt>
      <trkpt lat="47.77449" lon="-3.47262">
        <ele>22.48</ele>
        <time>2020-07-10T10:17:34Z</time>
      </trkpt>
      <trkpt lat="47.77448" lon="-3.47264">
        <ele>22.5</ele>
        <time>2020-07-10T10:17:35Z</time>
      </trkpt>
      <trkpt lat="47.7745" lon="-3.47264">
        <ele>22.63</ele>
        <time>2020-07-10T10:17:36Z</time>
      </trkpt>
      <trkpt lat="47.7745" lon="-3.47264">
        <ele>22.69</ele>
        <time>2020-07-10T10:17:37Z</time>
      </trkpt>
      <trkpt lat="47.77451" lon="-3.47264">
        <ele>22.78</ele>
        <time>2020-07-10T10:17:38Z</time>
      </trkpt>
      <trkpt lat="47.77452" lon="-3.47263">
        <ele>22.88</ele>
        <time>2020-07-10T10:17:39Z</time>
      </trkpt>
      <trkpt lat="47.77453" lon="-3.47263">
        <ele>23.01</ele>
        <time>2020-07-10T10:17:40Z</time>
      </trkpt>
      <trkpt lat="47.77455" lon="-3.47262">
        <ele>23.19</ele>
        <time>2020-07-10T10:17:41Z</time>
      </trkpt>
      <trkpt lat="47.77456" lon="-3.47262">
        <ele>23.37</ele>
        <time>2020-07-10T10:17:42Z</time>
      </trkpt>
      <trkpt lat="47.77458" lon="-3.4726">
        <ele>23.53</ele>
        <time>2020-07-10T10:17:43Z</time>
      </trkpt>
      <trkpt lat="47.7746" lon="-3.47259">
        <ele>23.72</ele>
        <time>2020-07-10T10:17:44Z</time>
      </trkpt>
      <trkpt lat="47.77461" lon="-3.47259">
        <ele>23.93</ele>
        <time>2020-07-10T10:17:45Z</time>
      </trkpt>
      <trkpt lat="47.77464" lon="-3.47259">
        <ele>24.19</ele>
        <time>2020-07-10T10:17:46Z</time>
      </trkpt>
      <trkpt lat="47.77465" lon="-3.4726">
        <ele>24.42</ele>
        <time>2020-07-10T10:17:47Z</time>
      </trkpt>
      <trkpt lat="47.77467" lon="-3.4726">
        <ele>24.69</ele>
        <time>2020-07-10T10:17:48Z</time>
      </trkpt>
      <trkpt lat="47.7747" lon="-3.47262">
        <ele>24.99</ele>
        <time>2020-07-10T10:17:49Z</time>
      </trkpt>
      <trkpt lat="47.77473" lon="-3.47263">
        <ele>25.35</ele>
        <time>2020-07-10T10:17:50Z</time>
      </trkpt>
      <trkpt lat="47.77475" lon="-3.47264">
        <ele>25.71</ele>
        <time>2020-07-10T10:17:51Z</time>
      </trkpt>
      <trkpt lat="47.77477" lon="-3.47266">
        <ele>26.03</ele>
        <time>2020-07-10T10:17:52Z</time>
      </trkpt>
      <trkpt lat="47.77479" lon="-3.47267">
        <ele>26.3</ele>
        <time>2020-07-10T10:17:53Z</time>
      </trkpt>
      <trkpt lat="47.7748" lon="-3.47269">
        <ele>26.54</ele>
        <time>2020-07-10T10:17:54Z</time>
      </trkpt>
      <trkpt lat="47.77482" lon="-3.47271">
        <ele>26.8</ele>
        <time>2020-07-10T10:17:55Z</time>
      </trkpt>
      <trkpt lat="47.77484" lon="-3.47273">
        <ele>27.05</ele>
        <time>2020-07-10T10:17:56Z</time>
      </trkpt>
      <trkpt lat="47.77485" lon="-3.47275">
        <ele>27.25</ele>
        <time>2020-07-10T10:17:57Z</time>
      </trkpt>
      <trkpt lat="47.77487" lon="-3.47275">
        <ele>27.44</ele>
        <time>2020-07-10T10:17:58Z</time>
      </trkpt>
      <trkpt lat="47.77488" lon="-3.47277">
        <ele>27.6</ele>
        <time>2020-07-10T10:17:59Z</time>
      </trkpt>
      <trkpt lat="47.77489" lon="-3.47279">
        <ele>27.71</ele>
        <time>2020-07-10T10:18:00Z</time>
      </trkpt>
      <trkpt lat="47.7749" lon="-3.47281">
        <ele>27.82</ele>
        <time>2020-07-10T10:18:01Z</time>
      </trkpt>
      <trkpt lat="47.77491" lon="-3.47282">
        <ele>27.91</ele>
        <time>2020-07-10T10:18:02Z</time>
      </trkpt>
      <trkpt lat="47.77492" lon="-3.47284">
        <ele>28.02</ele>
        <time>2020-07-10T10:18:03Z</time>
      </trkpt>
      <trkpt lat="47.77493" lon="-3.47286">
        <ele>28.08</ele>
        <time>2020-07-10T10:18:04Z</time>
      </trkpt>
      <trkpt lat="47.77494" lon="-3.47288">
        <ele>28.19</ele>
        <time>2020-07-10T10:18:05Z</time>
      </trkpt>
      <trkpt lat="47.77495" lon="-3.47291">
        <ele>28.35</ele>
        <time>2020-07-10T10:18:06Z</time>
      </trkpt>
      <trkpt lat="47.77497" lon="-3.47292">
        <ele>28.52</ele>
        <time>2020-07-10T10:18:07Z</time>
      </trkpt>
      <trkpt lat="47.77498" lon="-3.47294">
        <ele>28.68</ele>
        <time>2020-07-10T10:18:08Z</time>
      </trkpt>
      <trkpt lat="47.77499" lon="-3.47295">
        <ele>28.84</ele>
        <time>2020-07-10T10:18:09Z</time>
      </trkpt>
      <trkpt lat="47.775" lon="-3.47296">
        <ele>28.94</ele>
        <time>2020-07-10T10:18:10Z</time>
      </trkpt>
      <trkpt lat="47.775" lon="-3.47297">
        <ele>28.95</ele>
        <time>2020-07-10T10:18:11Z</time>
      </trkpt>
      <trkpt lat="47.775" lon="-3.47297">
        <ele>28.95</ele>
        <time>2020-07-10T10:18:12Z</time>
      </trkpt>
      <trkpt lat="47.775" lon="-3.47297">
        <ele>28.96</ele>
        <time>2020-07-10T10:18:13Z</time>
      </trkpt>
      <trkpt lat="47.775" lon="-3.47297">
        <ele>28.96</ele>
        <time>2020-07-10T10:18:14Z</time>
      </trkpt>
      <trkpt lat="47.775" lon="-3.47297">
        <ele>28.96</ele>
        <time>2020-07-10T10:18:15Z</time>
      </trkpt>
      <trkpt lat="47.775" lon="-3.47297">
        <ele>28.96</ele>
        <time>2020-07-10T10:18:16Z</time>
      </trkpt>
      <trkpt lat="47.775" lon="-3.47297">
        <ele>28.96</ele>
        <time>2020-07-10T10:18:17Z</time>
      </trkpt>
      <trkpt lat="47.775" lon="-3.47297">
        <ele>28.96</ele>
        <time>2020-07-10T10:18:18Z</time>
      </trkpt>
      <trkpt lat="47.775" lon="-3.47297">
        <ele>28.96</ele>
        <time>2020-07-10T10:18:19Z</time>
      </trkpt>
      <trkpt lat="47.775" lon="-3.47297">
        <ele>28.96</ele>
        <time>2020-07-10T10:18:20Z</time>
      </trkpt>
      <trkpt lat="47.775" lon="-3.47297">
        <ele>28.96</ele>
        <time>2020-07-10T10:18:21Z</time>
      </trkpt>
      <trkpt lat="47.775" lon="-3.47297">
        <ele>28.96</ele>
        <time>2020-07-10T10:18:22Z</time>
      </trkpt>
      <trkpt lat="47.775" lon="-3.47297">
        <ele>28.96</ele>
        <time>2020-07-10T10:18:23Z</time>
      </trkpt>
      <trkpt lat="47.775" lon="-3.47297">
        <ele>28.96</ele>
        <time>2020-07-10T10:18:24Z</time>
      </trkpt>
      <trkpt lat="47.775" lon="-3.47297">
        <ele>28.96</ele>
        <time>2020-07-10T10:18:25Z</time>
      </trkpt>
      <trkpt lat="47.775" lon="-3.47297">
        <ele>28.96</ele>
        <time>2020-07-10T10:18:26Z</time>
      </trkpt>
      <trkpt lat="47.775" lon="-3.47297">
        <ele>28.96</ele>
        <time>2020-07-10T10:18:27Z</time>
      </trkpt>
      <trkpt lat="47.775" lon="-3.47297">
        <ele>28.96</ele>
        <time>2020-07-10T10:18:28Z</time>
      </trkpt>
      <trkpt lat="47.77502" lon="-3.47302">
        <ele>29.11</ele>
        <time>2020-07-10T10:18:29Z</time>
      </trkpt>
      <trkpt lat="47.77503" lon="-3.47305">
        <ele>29.22</ele>
        <time>2020-07-10T10:18:30Z</time>
      </trkpt>
      <trkpt lat="47.77503" lon="-3.47308">
        <ele>29.38</ele>
        <time>2020-07-10T10:18:31Z</time>
      </trkpt>
      <trkpt lat="47.77505" lon="-3.47311">
        <ele>29.61</ele>
        <time>2020-07-10T10:18:32Z</time>
      </trkpt>
      <trkpt lat="47.77506" lon="-3.47315">
        <ele>29.83</ele>
        <time>2020-07-10T10:18:33Z</time>
      </trkpt>
      <trkpt lat="47.77506" lon="-3.47318">
        <ele>30</ele>
        <time>2020-07-10T10:18:34Z</time>
      </trkpt>
      <trkpt lat="47.77507" lon="-3.4732">
        <ele>30.19</ele>
        <time>2020-07-10T10:18:35Z</time>
      </trkpt>
      <trkpt lat="47.77509" lon="-3.47325">
        <ele>30.53</ele>
        <time>2020-07-10T10:18:36Z</time>
      </trkpt>
      <trkpt lat="47.7751" lon="-3.47328">
        <ele>30.79</ele>
        <time>2020-07-10T10:18:37Z</time>
      </trkpt>
      <trkpt lat="47.7751" lon="-3.47331">
        <ele>30.98</ele>
        <time>2020-07-10T10:18:38Z</time>
      </trkpt>
      <trkpt lat="47.77511" lon="-3.47334">
        <ele>31.16</ele>
        <time>2020-07-10T10:18:39Z</time>
      </trkpt>
      <trkpt lat="47.77512" lon="-3.47337">
        <ele>31.37</ele>
        <time>2020-07-10T10:18:40Z</time>
      </trkpt>
      <trkpt lat="47.77514" lon="-3.4734">
        <ele>31.63</ele>
        <time>2020-07-10T10:18:41Z</time>
      </trkpt>
      <trkpt lat="47.77515" lon="-3.47342">
        <ele>31.88</ele>
        <time>2020-07-10T10:18:42Z</time>
      </trkpt>
      <trkpt lat="47.77518" lon="-3.47345">
        <ele>32.21</ele>
        <time>2020-07-10T10:18:43Z</time>
      </trkpt>
      <trkpt lat="47.77519" lon="-3.47348">
        <ele>32.46</ele>
        <time>2020-07-10T10:18:44Z</time>
      </trkpt>
      <trkpt lat="47.7752" lon="-3.47351">
        <ele>32.68</ele>
        <time>2020-07-10T10:18:45Z</time>
      </trkpt>
      <trkpt lat="47.77521" lon="-3.47353">
        <ele>32.9</ele>
        <time>2020-07-10T10:18:46Z</time>
      </trkpt>
      <trkpt lat="47.77523" lon="-3.47356">
        <ele>33.15</ele>
        <time>2020-07-10T10:18:47Z</time>
      </trkpt>
      <trkpt lat="47.77524" lon="-3.47358">
        <ele>33.4</ele>
        <time>2020-07-10T10:18:48Z</time>
      </trkpt>
      <trkpt lat="47.77527" lon="-3.47362">
        <ele>33.81</ele>
        <time>2020-07-10T10:18:49Z</time>
      </trkpt>
      <trkpt lat="47.77529" lon="-3.47365">
        <ele>34.12</ele>
        <time>2020-07-10T10:18:50Z</time>
      </trkpt>
      <trkpt lat="47.7753" lon="-3.47368">
        <ele>34.4</ele>
        <time>2020-07-10T10:18:51Z</time>
      </trkpt>
      <trkpt lat="47.77532" lon="-3.47371">
        <ele>34.67</ele>
        <time>2020-07-10T10:18:52Z</time>
      </trkpt>
      <trkpt lat="47.77534" lon="-3.47374">
        <ele>34.91</ele>
        <time>2020-07-10T10:18:53Z</time>
      </trkpt>
      <trkpt lat="47.77537" lon="-3.47378">
        <ele>35.25</ele>
        <time>2020-07-10T10:18:54Z</time>
      </trkpt>
      <trkpt lat="47.77539" lon="-3.4738">
        <ele>35.5</ele>
        <time>2020-07-10T10:18:55Z</time>
      </trkpt>
      <trkpt lat="47.7754" lon="-3.47382">
        <ele>35.7</ele>
        <time>2020-07-10T10:18:56Z</time>
      </trkpt>
      <trkpt lat="47.77542" lon="-3.47384">
        <ele>35.86</ele>
        <time>2020-07-10T10:18:57Z</time>
      </trkpt>
      <trkpt lat="47.77544" lon="-3.47387">
        <ele>36.04</ele>
        <time>2020-07-10T10:18:58Z</time>
      </trkpt>
      <trkpt lat="47.77546" lon="-3.47393">
        <ele>36.32</ele>
        <time>2020-07-10T10:18:59Z</time>
      </trkpt>
      <trkpt lat="47.77548" lon="-3.47395">
        <ele>36.58</ele>
        <time>2020-07-10T10:19:00Z</time>
      </trkpt>
      <trkpt lat="47.7755" lon="-3.47397">
        <ele>36.81</ele>
        <time>2020-07-10T10:19:01Z</time>
      </trkpt>
      <trkpt lat="47.77552" lon="-3.47397">
        <ele>37</ele>
        <time>2020-07-10T10:19:02Z</time>
      </trkpt>
      <trkpt lat="47.77554" lon="-3.47397">
        <ele>37.14</ele>
        <time>2020-07-10T10:19:03Z</time>
      </trkpt>
      <trkpt lat="47.77556" lon="-3.47396">
        <ele>37.22</ele>
        <time>2020-07-10T10:19:04Z</time>
      </trkpt>
      <trkpt lat="47.77557" lon="-3.47394">
        <ele>37.24</ele>
        <time>2020-07-10T10:19:05Z</time>
      </trkpt>
      <trkpt lat="47.77558" lon="-3.47391">
        <ele>37.22</ele>
        <time>2020-07-10T10:19:06Z</time>
      </trkpt>
      <trkpt lat="47.77559" lon="-3.47388">
        <ele>37.21</ele>
        <time>2020-07-10T10:19:07Z</time>
      </trkpt>
      <trkpt lat="47.7756" lon="-3.47385">
        <ele>37.29</ele>
        <time>2020-07-10T10:19:08Z</time>
      </trkpt>
      <trkpt lat="47.77562" lon="-3.47383">
        <ele>37.42</ele>
        <time>2020-07-10T10:19:09Z</time>
      </trkpt>
      <trkpt lat="47.77565" lon="-3.47381">
        <ele>37.6</ele>
        <time>2020-07-10T10:19:10Z</time>
      </trkpt>
      <trkpt lat="47.77567" lon="-3.47379">
        <ele>37.74</ele>
        <time>2020-07-10T10:19:11Z</time>
      </trkpt>
      <trkpt lat="47.77569" lon="-3.47377">
        <ele>37.89</ele>
        <time>2020-07-10T10:19:12Z</time>
      </trkpt>
      <trkpt lat="47.77571" lon="-3.47375">
        <ele>38.05</ele>
        <time>2020-07-10T10:19:13Z</time>
      </trkpt>
      <trkpt lat="47.77575" lon="-3.47373">
        <ele>38.27</ele>
        <time>2020-07-10T10:19:14Z</time>
      </trkpt>
      <trkpt lat="47.77578" lon="-3.4737">
        <ele>38.49</ele>
        <time>2020-07-10T10:19:15Z</time>
      </trkpt>
      <trkpt lat="47.77579" lon="-3.47368">
        <ele>38.65</ele>
        <time>2020-07-10T10:19:16Z</time>
      </trkpt>
      <trkpt lat="47.77582" lon="-3.47366">
        <ele>38.82</ele>
        <time>2020-07-10T10:19:17Z</time>
      </trkpt>
      <trkpt lat="47.77585" lon="-3.47364">
        <ele>38.98</ele>
        <time>2020-07-10T10:19:18Z</time>
      </trkpt>
      <trkpt lat="47.77587" lon="-3.47363">
        <ele>39.1</ele>
        <time>2020-07-10T10:19:19Z</time>
      </trkpt>
      <trkpt lat="47.7759" lon="-3.47361">
        <ele>39.2</ele>
        <time>2020-07-10T10:19:20Z</time>
      </trkpt>
      <trkpt lat="47.77593" lon="-3.47359">
        <ele>39.3</ele>
        <time>2020-07-10T10:19:21Z</time>
      </trkpt>
      <trkpt lat="47.77596" lon="-3.47357">
        <ele>39.4</ele>
        <time>2020-07-10T10:19:22Z</time>
      </trkpt>
      <trkpt lat="47.776" lon="-3.47352">
        <ele>39.54</ele>
        <time>2020-07-10T10:19:23Z</time>
      </trkpt>
      <trkpt lat="47.77602" lon="-3.47348">
        <ele>39.64</ele>
        <time>2020-07-10T10:19:24Z</time>
      </trkpt>
      <trkpt lat="47.77605" lon="-3.47344">
        <ele>39.73</ele>
        <time>2020-07-10T10:19:25Z</time>
      </trkpt>
      <trkpt lat="47.77607" lon="-3.47341">
        <ele>39.82</ele>
        <time>2020-07-10T10:19:26Z</time>
      </trkpt>
      <trkpt lat="47.77609" lon="-3.47339">
        <ele>39.88</ele>
        <time>2020-07-10T10:19:27Z</time>
      </trkpt>
      <trkpt lat="47.7761" lon="-3.47336">
        <ele>39.93</ele>
        <time>2020-07-10T10:19:28Z</time>
      </trkpt>
      <trkpt lat="47.77611" lon="-3.47333">
        <ele>39.98</ele>
        <time>2020-07-10T10:19:29Z</time>
      </trkpt>
      <trkpt lat="47.77613" lon="-3.4733">
        <ele>40.03</ele>
        <time>2020-07-10T10:19:30Z</time>
      </trkpt>
      <trkpt lat="47.77615" lon="-3.47327">
        <ele>40.08</ele>
        <time>2020-07-10T10:19:31Z</time>
      </trkpt>
      <trkpt lat="47.77618" lon="-3.47324">
        <ele>40.13</ele>
        <time>2020-07-10T10:19:32Z</time>
      </trkpt>
      <trkpt lat="47.7762" lon="-3.47321">
        <ele>40.16</ele>
        <time>2020-07-10T10:19:33Z</time>
      </trkpt>
      <trkpt lat="47.77621" lon="-3.47318">
        <ele>40.16</ele>
        <time>2020-07-10T10:19:34Z</time>
      </trkpt>
      <trkpt lat="47.77622" lon="-3.47314">
        <ele>40.13</ele>
        <time>2020-07-10T10:19:35Z</time>
      </trkpt>
      <trkpt lat="47.77624" lon="-3.4731">
        <ele>40.09</ele>
        <time>2020-07-10T10:19:36Z</time>
      </trkpt>
      <trkpt lat="47.77625" lon="-3.47304">
        <ele>39.99</ele>
        <time>2020-07-10T10:19:37Z</time>
      </trkpt>
      <trkpt lat="47.77627" lon="-3.473">
        <ele>39.85</ele>
        <time>2020-07-10T10:19:38Z</time>
      </trkpt>
      <trkpt lat="47.77628" lon="-3.47295">
        <ele>39.68</ele>
        <time>2020-07-10T10:19:39Z</time>
      </trkpt>
      <trkpt lat="47.77629" lon="-3.47289">
        <ele>39.5</ele>
        <time>2020-07-10T10:19:40Z</time>
      </trkpt>
      <trkpt lat="47.7763" lon="-3.47284">
        <ele>39.31</ele>
        <time>2020-07-10T10:19:41Z</time>
      </trkpt>
      <trkpt lat="47.77632" lon="-3.47279">
        <ele>39.13</ele>
        <time>2020-07-10T10:19:42Z</time>
      </trkpt>
      <trkpt lat="47.77635" lon="-3.47276">
        <ele>38.99</ele>
        <time>2020-07-10T10:19:43Z</time>
      </trkpt>
      <trkpt lat="47.77638" lon="-3.47273">
        <ele>38.87</ele>
        <time>2020-07-10T10:19:44Z</time>
      </trkpt>
      <trkpt lat="47.7764" lon="-3.47271">
        <ele>38.73</ele>
        <time>2020-07-10T10:19:45Z</time>
      </trkpt>
      <trkpt lat="47.77642" lon="-3.4727">
        <ele>38.57</ele>
        <time>2020-07-10T10:19:46Z</time>
      </trkpt>
      <trkpt lat="47.77645" lon="-3.47268">
        <ele>38.32</ele>
        <time>2020-07-10T10:19:47Z</time>
      </trkpt>
      <trkpt lat="47.77647" lon="-3.47265">
        <ele>38.05</ele>
        <time>2020-07-10T10:19:48Z</time>
      </trkpt>
      <trkpt lat="47.7765" lon="-3.47259">
        <ele>37.71</ele>
        <time>2020-07-10T10:19:49Z</time>
      </trkpt>
      <trkpt lat="47.77651" lon="-3.47254">
        <ele>37.4</ele>
        <time>2020-07-10T10:19:50Z</time>
      </trkpt>
      <trkpt lat="47.77652" lon="-3.47248">
        <ele>37.06</ele>
        <time>2020-07-10T10:19:51Z</time>
      </trkpt>
      <trkpt lat="47.77652" lon="-3.47242">
        <ele>36.73</ele>
        <time>2020-07-10T10:19:52Z</time>
      </trkpt>
      <trkpt lat="47.77651" lon="-3.47236">
        <ele>36.47</ele>
        <time>2020-07-10T10:19:53Z</time>
      </trkpt>
      <trkpt lat="47.77648" lon="-3.47231">
        <ele>36.27</ele>
        <time>2020-07-10T10:19:54Z</time>
      </trkpt>
      <trkpt lat="47.77646" lon="-3.47226">
        <ele>36.07</ele>
        <time>2020-07-10T10:19:55Z</time>
      </trkpt>
      <trkpt lat="47.77643" lon="-3.4722">
        <ele>35.86</ele>
        <time>2020-07-10T10:19:56Z</time>
      </trkpt>
      <trkpt lat="47.77641" lon="-3.47215">
        <ele>35.72</ele>
        <time>2020-07-10T10:19:57Z</time>
      </trkpt>
      <trkpt lat="47.77639" lon="-3.4721">
        <ele>35.61</ele>
        <time>2020-07-10T10:19:58Z</time>
      </trkpt>
      <trkpt lat="47.77638" lon="-3.47204">
        <ele>35.46</ele>
        <time>2020-07-10T10:19:59Z</time>
      </trkpt>
      <trkpt lat="47.77637" lon="-3.47198">
        <ele>35.29</ele>
        <time>2020-07-10T10:20:00Z</time>
      </trkpt>
      <trkpt lat="47.77636" lon="-3.47192">
        <ele>35.02</ele>
        <time>2020-07-10T10:20:01Z</time>
      </trkpt>
      <trkpt lat="47.77634" lon="-3.47186">
        <ele>34.53</ele>
        <time>2020-07-10T10:20:02Z</time>
      </trkpt>
      <trkpt lat="47.77634" lon="-3.4718">
        <ele>33.95</ele>
        <time>2020-07-10T10:20:03Z</time>
      </trkpt>
      <trkpt lat="47.77634" lon="-3.47174">
        <ele>33.37</ele>
        <time>2020-07-10T10:20:04Z</time>
      </trkpt>
      <trkpt lat="47.77636" lon="-3.4717">
        <ele>32.8</ele>
        <time>2020-07-10T10:20:05Z</time>
      </trkpt>
      <trkpt lat="47.77638" lon="-3.47167">
        <ele>32.31</ele>
        <time>2020-07-10T10:20:06Z</time>
      </trkpt>
      <trkpt lat="47.77641" lon="-3.47166">
        <ele>31.76</ele>
        <time>2020-07-10T10:20:07Z</time>
      </trkpt>
      <trkpt lat="47.77645" lon="-3.47167">
        <ele>31.32</ele>
        <time>2020-07-10T10:20:08Z</time>
      </trkpt>
      <trkpt lat="47.7765" lon="-3.47169">
        <ele>30.88</ele>
        <time>2020-07-10T10:20:09Z</time>
      </trkpt>
      <trkpt lat="47.77654" lon="-3.47171">
        <ele>30.51</ele>
        <time>2020-07-10T10:20:10Z</time>
      </trkpt>
      <trkpt lat="47.77659" lon="-3.47173">
        <ele>30.16</ele>
        <time>2020-07-10T10:20:11Z</time>
      </trkpt>
      <trkpt lat="47.77664" lon="-3.47175">
        <ele>29.88</ele>
        <time>2020-07-10T10:20:12Z</time>
      </trkpt>
      <trkpt lat="47.77669" lon="-3.47176">
        <ele>29.68</ele>
        <time>2020-07-10T10:20:13Z</time>
      </trkpt>
      <trkpt lat="47.77675" lon="-3.47178">
        <ele>29.6</ele>
        <time>2020-07-10T10:20:14Z</time>
      </trkpt>
      <trkpt lat="47.77681" lon="-3.47177">
        <ele>29.3</ele>
        <time>2020-07-10T10:20:15Z</time>
      </trkpt>
      <trkpt lat="47.77687" lon="-3.47176">
        <ele>28.91</ele>
        <time>2020-07-10T10:20:16Z</time>
      </trkpt>
      <trkpt lat="47.77692" lon="-3.47176">
        <ele>28.6</ele>
        <time>2020-07-10T10:20:17Z</time>
      </trkpt>
      <trkpt lat="47.77696" lon="-3.47175">
        <ele>28.27</ele>
        <time>2020-07-10T10:20:18Z</time>
      </trkpt>
      <trkpt lat="47.777" lon="-3.47174">
        <ele>27.87</ele>
        <time>2020-07-10T10:20:19Z</time>
      </trkpt>
      <trkpt lat="47.77704" lon="-3.47171">
        <ele>27.38</ele>
        <time>2020-07-10T10:20:20Z</time>
      </trkpt>
      <trkpt lat="47.77707" lon="-3.4717">
        <ele>27</ele>
        <time>2020-07-10T10:20:21Z</time>
      </trkpt>
      <trkpt lat="47.77711" lon="-3.47169">
        <ele>26.72</ele>
        <time>2020-07-10T10:20:22Z</time>
      </trkpt>
      <trkpt lat="47.77714" lon="-3.47169">
        <ele>26.52</ele>
        <time>2020-07-10T10:20:23Z</time>
      </trkpt>
      <trkpt lat="47.77718" lon="-3.47169">
        <ele>26.35</ele>
        <time>2020-07-10T10:20:24Z</time>
      </trkpt>
      <trkpt lat="47.77722" lon="-3.4717">
        <ele>26.18</ele>
        <time>2020-07-10T10:20:25Z</time>
      </trkpt>
      <trkpt lat="47.77726" lon="-3.4717">
        <ele>26.22</ele>
        <time>2020-07-10T10:20:26Z</time>
      </trkpt>
      <trkpt lat="47.7773" lon="-3.4717">
        <ele>26.32</ele>
        <time>2020-07-10T10:20:27Z</time>
      </trkpt>
      <trkpt lat="47.77735" lon="-3.47168">
        <ele>26.44</ele>
        <time>2020-07-10T10:20:28Z</time>
      </trkpt>
      <trkpt lat="47.77739" lon="-3.47168">
        <ele>26.56</ele>
        <time>2020-07-10T10:20:29Z</time>
      </trkpt>
      <trkpt lat="47.77743" lon="-3.47167">
        <ele>26.7</ele>
        <time>2020-07-10T10:20:30Z</time>
      </trkpt>
      <trkpt lat="47.77747" lon="-3.47168">
        <ele>26.84</ele>
        <time>2020-07-10T10:20:31Z</time>
      </trkpt>
      <trkpt lat="47.77751" lon="-3.47169">
        <ele>27</ele>
        <time>2020-07-10T10:20:32Z</time>
      </trkpt>
      <trkpt lat="47.77755" lon="-3.47169">
        <ele>27.24</ele>
        <time>2020-07-10T10:20:33Z</time>
      </trkpt>
      <trkpt lat="47.77759" lon="-3.47169">
        <ele>27.5</ele>
        <time>2020-07-10T10:20:34Z</time>
      </trkpt>
      <trkpt lat="47.77762" lon="-3.47169">
        <ele>27.75</ele>
        <time>2020-07-10T10:20:35Z</time>
      </trkpt>
      <trkpt lat="47.77766" lon="-3.47169">
        <ele>28.02</ele>
        <time>2020-07-10T10:20:36Z</time>
      </trkpt>
      <trkpt lat="47.7777" lon="-3.47169">
        <ele>28.31</ele>
        <time>2020-07-10T10:20:37Z</time>
      </trkpt>
      <trkpt lat="47.77773" lon="-3.47169">
        <ele>28.57</ele>
        <time>2020-07-10T10:20:38Z</time>
      </trkpt>
      <trkpt lat="47.77778" lon="-3.47171">
        <ele>28.89</ele>
        <time>2020-07-10T10:20:39Z</time>
      </trkpt>
      <trkpt lat="47.77782" lon="-3.47171">
        <ele>29.16</ele>
        <time>2020-07-10T10:20:40Z</time>
      </trkpt>
      <trkpt lat="47.77787" lon="-3.47172">
        <ele>29.5</ele>
        <time>2020-07-10T10:20:41Z</time>
      </trkpt>
      <trkpt lat="47.77791" lon="-3.47171">
        <ele>29.82</ele>
        <time>2020-07-10T10:20:42Z</time>
      </trkpt>
      <trkpt lat="47.77795" lon="-3.4717">
        <ele>30.1</ele>
        <time>2020-07-10T10:20:43Z</time>
      </trkpt>
      <trkpt lat="47.77798" lon="-3.47169">
        <ele>30.37</ele>
        <time>2020-07-10T10:20:44Z</time>
      </trkpt>
      <trkpt lat="47.77802" lon="-3.4717">
        <ele>30.66</ele>
        <time>2020-07-10T10:20:45Z</time>
      </trkpt>
      <trkpt lat="47.77808" lon="-3.4717">
        <ele>30.95</ele>
        <time>2020-07-10T10:20:46Z</time>
      </trkpt>
      <trkpt lat="47.77812" lon="-3.47169">
        <ele>31.13</ele>
        <time>2020-07-10T10:20:47Z</time>
      </trkpt>
      <trkpt lat="47.77816" lon="-3.4717">
        <ele>31.27</ele>
        <time>2020-07-10T10:20:48Z</time>
      </trkpt>
      <trkpt lat="47.77821" lon="-3.4717">
        <ele>31.41</ele>
        <time>2020-07-10T10:20:49Z</time>
      </trkpt>
      <trkpt lat="47.77824" lon="-3.4717">
        <ele>31.53</ele>
        <time>2020-07-10T10:20:50Z</time>
      </trkpt>
      <trkpt lat="47.77828" lon="-3.47169">
        <ele>31.67</ele>
        <time>2020-07-10T10:20:51Z</time>
      </trkpt>
      <trkpt lat="47.77832" lon="-3.47169">
        <ele>31.82</ele>
        <time>2020-07-10T10:20:52Z</time>
      </trkpt>
      <trkpt lat="47.77835" lon="-3.47169">
        <ele>31.89</ele>
        <time>2020-07-10T10:20:53Z</time>
      </trkpt>
      <trkpt lat="47.7784" lon="-3.47169">
        <ele>31.9</ele>
        <time>2020-07-10T10:20:54Z</time>
      </trkpt>
      <trkpt lat="47.77844" lon="-3.4717">
        <ele>31.89</ele>
        <time>2020-07-10T10:20:55Z</time>
      </trkpt>
      <trkpt lat="47.77848" lon="-3.4717">
        <ele>31.89</ele>
        <time>2020-07-10T10:20:56Z</time>
      </trkpt>
      <trkpt lat="47.77852" lon="-3.47169">
        <ele>31.92</ele>
        <time>2020-07-10T10:20:57Z</time>
      </trkpt>
      <trkpt lat="47.77857" lon="-3.4717">
        <ele>31.9</ele>
        <time>2020-07-10T10:20:58Z</time>
      </trkpt>
      <trkpt lat="47.77861" lon="-3.4717">
        <ele>31.89</ele>
        <time>2020-07-10T10:20:59Z</time>
      </trkpt>
      <trkpt lat="47.77865" lon="-3.47169">
        <ele>31.81</ele>
        <time>2020-07-10T10:21:00Z</time>
      </trkpt>
      <trkpt lat="47.77869" lon="-3.47169">
        <ele>31.69</ele>
        <time>2020-07-10T10:21:01Z</time>
      </trkpt>
      <trkpt lat="47.77874" lon="-3.47167">
        <ele>31.59</ele>
        <time>2020-07-10T10:21:02Z</time>
      </trkpt>
      <trkpt lat="47.77878" lon="-3.47167">
        <ele>31.45</ele>
        <time>2020-07-10T10:21:03Z</time>
      </trkpt>
      <trkpt lat="47.77882" lon="-3.47168">
        <ele>31.3</ele>
        <time>2020-07-10T10:21:04Z</time>
      </trkpt>
      <trkpt lat="47.77886" lon="-3.47167">
        <ele>31.16</ele>
        <time>2020-07-10T10:21:05Z</time>
      </trkpt>
      <trkpt lat="47.7789" lon="-3.47167">
        <ele>31.05</ele>
        <time>2020-07-10T10:21:06Z</time>
      </trkpt>
      <trkpt lat="47.77894" lon="-3.47168">
        <ele>31.01</ele>
        <time>2020-07-10T10:21:07Z</time>
      </trkpt>
      <trkpt lat="47.77898" lon="-3.47169">
        <ele>31</ele>
        <time>2020-07-10T10:21:08Z</time>
      </trkpt>
      <trkpt lat="47.77902" lon="-3.47168">
        <ele>31</ele>
        <time>2020-07-10T10:21:09Z</time>
      </trkpt>
      <trkpt lat="47.77907" lon="-3.47167">
        <ele>31</ele>
        <time>2020-07-10T10:21:10Z</time>
      </trkpt>
      <trkpt lat="47.7791" lon="-3.47166">
        <ele>31.02</ele>
        <time>2020-07-10T10:21:11Z</time>
      </trkpt>
      <trkpt lat="47.77914" lon="-3.47165">
        <ele>31.08</ele>
        <time>2020-07-10T10:21:12Z</time>
      </trkpt>
      <trkpt lat="47.77918" lon="-3.47164">
        <ele>31.2</ele>
        <time>2020-07-10T10:21:13Z</time>
      </trkpt>
      <trkpt lat="47.77921" lon="-3.47163">
        <ele>31.36</ele>
        <time>2020-07-10T10:21:14Z</time>
      </trkpt>
      <trkpt lat="47.77924" lon="-3.47162">
        <ele>31.5</ele>
        <time>2020-07-10T10:21:15Z</time>
      </trkpt>
      <trkpt lat="47.77926" lon="-3.47161">
        <ele>31.63</ele>
        <time>2020-07-10T10:21:16Z</time>
      </trkpt>
      <trkpt lat="47.77929" lon="-3.47159">
        <ele>31.79</ele>
        <time>2020-07-10T10:21:17Z</time>
      </trkpt>
      <trkpt lat="47.77932" lon="-3.47157">
        <ele>31.96</ele>
        <time>2020-07-10T10:21:18Z</time>
      </trkpt>
      <trkpt lat="47.77937" lon="-3.47156">
        <ele>32.14</ele>
        <time>2020-07-10T10:21:19Z</time>
      </trkpt>
      <trkpt lat="47.77942" lon="-3.47155">
        <ele>32.29</ele>
        <time>2020-07-10T10:21:20Z</time>
      </trkpt>
      <trkpt lat="47.77948" lon="-3.47155">
        <ele>32.56</ele>
        <time>2020-07-10T10:21:21Z</time>
      </trkpt>
      <trkpt lat="47.77953" lon="-3.47153">
        <ele>32.92</ele>
        <time>2020-07-10T10:21:22Z</time>
      </trkpt>
      <trkpt lat="47.77957" lon="-3.47153">
        <ele>33.27</ele>
        <time>2020-07-10T10:21:23Z</time>
      </trkpt>
      <trkpt lat="47.77962" lon="-3.47151">
        <ele>33.64</ele>
        <time>2020-07-10T10:21:24Z</time>
      </trkpt>
      <trkpt lat="47.77965" lon="-3.47149">
        <ele>33.94</ele>
        <time>2020-07-10T10:21:25Z</time>
      </trkpt>
      <trkpt lat="47.77968" lon="-3.47148">
        <ele>34.22</ele>
        <time>2020-07-10T10:21:26Z</time>
      </trkpt>
      <trkpt lat="47.77973" lon="-3.47148">
        <ele>34.55</ele>
        <time>2020-07-10T10:21:27Z</time>
      </trkpt>
      <trkpt lat="47.77978" lon="-3.47148">
        <ele>34.8</ele>
        <time>2020-07-10T10:21:28Z</time>
      </trkpt>
      <trkpt lat="47.77982" lon="-3.47147">
        <ele>34.98</ele>
        <time>2020-07-10T10:21:29Z</time>
      </trkpt>
      <trkpt lat="47.77986" lon="-3.47147">
        <ele>35.15</ele>
        <time>2020-07-10T10:21:30Z</time>
      </trkpt>
      <trkpt lat="47.7799" lon="-3.47146">
        <ele>35.32</ele>
        <time>2020-07-10T10:21:31Z</time>
      </trkpt>
      <trkpt lat="47.77995" lon="-3.47144">
        <ele>35.54</ele>
        <time>2020-07-10T10:21:32Z</time>
      </trkpt>
      <trkpt lat="47.77999" lon="-3.47142">
        <ele>35.76</ele>
        <time>2020-07-10T10:21:33Z</time>
      </trkpt>
      <trkpt lat="47.78003" lon="-3.4714">
        <ele>35.98</ele>
        <time>2020-07-10T10:21:34Z</time>
      </trkpt>
      <trkpt lat="47.78007" lon="-3.47138">
        <ele>36.17</ele>
        <time>2020-07-10T10:21:35Z</time>
      </trkpt>
      <trkpt lat="47.78011" lon="-3.47137">
        <ele>36.35</ele>
        <time>2020-07-10T10:21:36Z</time>
      </trkpt>
      <trkpt lat="47.78015" lon="-3.47136">
        <ele>36.54</ele>
        <time>2020-07-10T10:21:37Z</time>
      </trkpt>
      <trkpt lat="47.78019" lon="-3.47135">
        <ele>36.71</ele>
        <time>2020-07-10T10:21:38Z</time>
      </trkpt>
      <trkpt lat="47.78022" lon="-3.47134">
        <ele>36.86</ele>
        <time>2020-07-10T10:21:39Z</time>
      </trkpt>
      <trkpt lat="47.78025" lon="-3.47134">
        <ele>37.02</ele>
        <time>2020-07-10T10:21:40Z</time>
      </trkpt>
      <trkpt lat="47.78029" lon="-3.47133">
        <ele>37.18</ele>
        <time>2020-07-10T10:21:41Z</time>
      </trkpt>
      <trkpt lat="47.78031" lon="-3.47133">
        <ele>37.31</ele>
        <time>2020-07-10T10:21:42Z</time>
      </trkpt>
      <trkpt lat="47.78033" lon="-3.47132">
        <ele>37.41</ele>
        <time>2020-07-10T10:21:43Z</time>
      </trkpt>
      <trkpt lat="47.78034" lon="-3.47131">
        <ele>37.53</ele>
        <time>2020-07-10T10:21:44Z</time>
      </trkpt>
      <trkpt lat="47.78035" lon="-3.47129">
        <ele>37.67</ele>
        <time>2020-07-10T10:21:45Z</time>
      </trkpt>
      <trkpt lat="47.78036" lon="-3.47127">
        <ele>37.81</ele>
        <time>2020-07-10T10:21:46Z</time>
      </trkpt>
      <trkpt lat="47.78037" lon="-3.47125">
        <ele>37.94</ele>
        <time>2020-07-10T10:21:47Z</time>
      </trkpt>
      <trkpt lat="47.78037" lon="-3.47123">
        <ele>38.05</ele>
        <time>2020-07-10T10:21:48Z</time>
      </trkpt>
      <trkpt lat="47.78039" lon="-3.4712">
        <ele>38.25</ele>
        <time>2020-07-10T10:21:49Z</time>
      </trkpt>
      <trkpt lat="47.7804" lon="-3.47116">
        <ele>38.52</ele>
        <time>2020-07-10T10:21:50Z</time>
      </trkpt>
      <trkpt lat="47.78041" lon="-3.47112">
        <ele>38.78</ele>
        <time>2020-07-10T10:21:51Z</time>
      </trkpt>
      <trkpt lat="47.78041" lon="-3.47108">
        <ele>38.96</ele>
        <time>2020-07-10T10:21:52Z</time>
      </trkpt>
      <trkpt lat="47.78042" lon="-3.47104">
        <ele>39.08</ele>
        <time>2020-07-10T10:21:53Z</time>
      </trkpt>
      <trkpt lat="47.78042" lon="-3.47099">
        <ele>39.17</ele>
        <time>2020-07-10T10:21:54Z</time>
      </trkpt>
      <trkpt lat="47.78041" lon="-3.47095">
        <ele>39.26</ele>
        <time>2020-07-10T10:21:55Z</time>
      </trkpt>
      <trkpt lat="47.78041" lon="-3.47091">
        <ele>39.31</ele>
        <time>2020-07-10T10:21:56Z</time>
      </trkpt>
      <trkpt lat="47.78041" lon="-3.47087">
        <ele>39.37</ele>
        <time>2020-07-10T10:21:57Z</time>
      </trkpt>
      <trkpt lat="47.7804" lon="-3.47082">
        <ele>39.5</ele>
        <time>2020-07-10T10:21:58Z</time>
      </trkpt>
      <trkpt lat="47.7804" lon="-3.47078">
        <ele>39.98</ele>
        <time>2020-07-10T10:21:59Z</time>
      </trkpt>
      <trkpt lat="47.78039" lon="-3.47072">
        <ele>40.61</ele>
        <time>2020-07-10T10:22:00Z</time>
      </trkpt>
      <trkpt lat="47.78038" lon="-3.47068">
        <ele>41.18</ele>
        <time>2020-07-10T10:22:01Z</time>
      </trkpt>
      <trkpt lat="47.78037" lon="-3.47063">
        <ele>41.72</ele>
        <time>2020-07-10T10:22:02Z</time>
      </trkpt>
      <trkpt lat="47.78036" lon="-3.47059">
        <ele>42.26</ele>
        <time>2020-07-10T10:22:03Z</time>
      </trkpt>
      <trkpt lat="47.78035" lon="-3.47056">
        <ele>42.79</ele>
        <time>2020-07-10T10:22:04Z</time>
      </trkpt>
      <trkpt lat="47.78034" lon="-3.47052">
        <ele>43.45</ele>
        <time>2020-07-10T10:22:05Z</time>
      </trkpt>
      <trkpt lat="47.78033" lon="-3.47048">
        <ele>44.24</ele>
        <time>2020-07-10T10:22:06Z</time>
      </trkpt>
      <trkpt lat="47.78032" lon="-3.47044">
        <ele>45.05</ele>
        <time>2020-07-10T10:22:07Z</time>
      </trkpt>
      <trkpt lat="47.78031" lon="-3.47041">
        <ele>45.83</ele>
        <time>2020-07-10T10:22:08Z</time>
      </trkpt>
      <trkpt lat="47.78029" lon="-3.47038">
        <ele>46.43</ele>
        <time>2020-07-10T10:22:09Z</time>
      </trkpt>
      <trkpt lat="47.78028" lon="-3.47036">
        <ele>46.91</ele>
        <time>2020-07-10T10:22:10Z</time>
      </trkpt>
      <trkpt lat="47.78026" lon="-3.47034">
        <ele>47.35</ele>
        <time>2020-07-10T10:22:11Z</time>
      </trkpt>
      <trkpt lat="47.78024" lon="-3.47031">
        <ele>47.86</ele>
        <time>2020-07-10T10:22:12Z</time>
      </trkpt>
      <trkpt lat="47.78022" lon="-3.47027">
        <ele>48.45</ele>
        <time>2020-07-10T10:22:13Z</time>
      </trkpt>
      <trkpt lat="47.7802" lon="-3.47024">
        <ele>48.73</ele>
        <time>2020-07-10T10:22:14Z</time>
      </trkpt>
      <trkpt lat="47.78018" lon="-3.47022">
        <ele>48.92</ele>
        <time>2020-07-10T10:22:15Z</time>
      </trkpt>
      <trkpt lat="47.78016" lon="-3.4702">
        <ele>49.08</ele>
        <time>2020-07-10T10:22:16Z</time>
      </trkpt>
      <trkpt lat="47.78015" lon="-3.47017">
        <ele>49.24</ele>
        <time>2020-07-10T10:22:17Z</time>
      </trkpt>
      <trkpt lat="47.78012" lon="-3.47015">
        <ele>49.46</ele>
        <time>2020-07-10T10:22:18Z</time>
      </trkpt>
      <trkpt lat="47.7801" lon="-3.47013">
        <ele>49.75</ele>
        <time>2020-07-10T10:22:19Z</time>
      </trkpt>
      <trkpt lat="47.78008" lon="-3.4701">
        <ele>50.07</ele>
        <time>2020-07-10T10:22:20Z</time>
      </trkpt>
      <trkpt lat="47.78007" lon="-3.47009">
        <ele>50.32</ele>
        <time>2020-07-10T10:22:21Z</time>
      </trkpt>
      <trkpt lat="47.78005" lon="-3.47007">
        <ele>50.62</ele>
        <time>2020-07-10T10:22:22Z</time>
      </trkpt>
      <trkpt lat="47.78001" lon="-3.47006">
        <ele>50.87</ele>
        <time>2020-07-10T10:22:23Z</time>
      </trkpt>
      <trkpt lat="47.77998" lon="-3.47005">
        <ele>51.01</ele>
        <time>2020-07-10T10:22:24Z</time>
      </trkpt>
      <trkpt lat="47.77996" lon="-3.47004">
        <ele>51.16</ele>
        <time>2020-07-10T10:22:25Z</time>
      </trkpt>
      <trkpt lat="47.77994" lon="-3.47003">
        <ele>51.31</ele>
        <time>2020-07-10T10:22:26Z</time>
      </trkpt>
      <trkpt lat="47.77992" lon="-3.47001">
        <ele>51.69</ele>
        <time>2020-07-10T10:22:27Z</time>
      </trkpt>
      <trkpt lat="47.7799" lon="-3.47">
        <ele>51.93</ele>
        <time>2020-07-10T10:22:28Z</time>
      </trkpt>
      <trkpt lat="47.77989" lon="-3.46998">
        <ele>52.07</ele>
        <time>2020-07-10T10:22:29Z</time>
      </trkpt>
      <trkpt lat="47.77987" lon="-3.46997">
        <ele>52.16</ele>
        <time>2020-07-10T10:22:30Z</time>
      </trkpt>
      <trkpt lat="47.77985" lon="-3.46996">
        <ele>52.24</ele>
        <time>2020-07-10T10:22:31Z</time>
      </trkpt>
      <trkpt lat="47.77983" lon="-3.46995">
        <ele>52.31</ele>
        <time>2020-07-10T10:22:32Z</time>
      </trkpt>
      <trkpt lat="47.77982" lon="-3.46994">
        <ele>52.38</ele>
        <time>2020-07-10T10:22:33Z</time>
      </trkpt>
      <trkpt lat="47.7798" lon="-3.46993">
        <ele>52.47</ele>
        <time>2020-07-10T10:22:34Z</time>
      </trkpt>
      <trkpt lat="47.77977" lon="-3.46991">
        <ele>52.57</ele>
        <time>2020-07-10T10:22:35Z</time>
      </trkpt>
      <trkpt lat="47.77976" lon="-3.4699">
        <ele>52.7</ele>
        <time>2020-07-10T10:22:36Z</time>
      </trkpt>
      <trkpt lat="47.77974" lon="-3.46989">
        <ele>52.79</ele>
        <time>2020-07-10T10:22:37Z</time>
      </trkpt>
      <trkpt lat="47.77974" lon="-3.46987">
        <ele>52.87</ele>
        <time>2020-07-10T10:22:38Z</time>
      </trkpt>
      <trkpt lat="47.77975" lon="-3.46987">
        <ele>52.92</ele>
        <time>2020-07-10T10:22:39Z</time>
      </trkpt>
      <trkpt lat="47.77975" lon="-3.46987">
        <ele>52.93</ele>
        <time>2020-07-10T10:22:40Z</time>
      </trkpt>
      <trkpt lat="47.77975" lon="-3.46987">
        <ele>52.93</ele>
        <time>2020-07-10T10:22:41Z</time>
      </trkpt>
      <trkpt lat="47.77975" lon="-3.46987">
        <ele>52.94</ele>
        <time>2020-07-10T10:22:42Z</time>
      </trkpt>
      <trkpt lat="47.77975" lon="-3.46987">
        <ele>52.94</ele>
        <time>2020-07-10T10:22:43Z</time>
      </trkpt>
      <trkpt lat="47.77975" lon="-3.46987">
        <ele>52.94</ele>
        <time>2020-07-10T10:22:44Z</time>
      </trkpt>
      <trkpt lat="47.77975" lon="-3.46987">
        <ele>52.94</ele>
        <time>2020-07-10T10:22:45Z</time>
      </trkpt>
      <trkpt lat="47.77975" lon="-3.46987">
        <ele>52.94</ele>
        <time>2020-07-10T10:22:46Z</time>
      </trkpt>
      <trkpt lat="47.77975" lon="-3.46987">
        <ele>52.94</ele>
        <time>2020-07-10T10:22:47Z</time>
      </trkpt>
      <trkpt lat="47.77975" lon="-3.46987">
        <ele>52.94</ele>
        <time>2020-07-10T10:22:48Z</time>
      </trkpt>
      <trkpt lat="47.77975" lon="-3.46987">
        <ele>52.94</ele>
        <time>2020-07-10T10:22:49Z</time>
      </trkpt>
      <trkpt lat="47.77975" lon="-3.46987">
        <ele>52.94</ele>
        <time>2020-07-10T10:22:50Z</time>
      </trkpt>
      <trkpt lat="47.77975" lon="-3.46987">
        <ele>52.94</ele>
        <time>2020-07-10T10:22:51Z</time>
      </trkpt>
      <trkpt lat="47.77974" lon="-3.46976">
        <ele>53.49</ele>
        <time>2020-07-10T10:22:52Z</time>
      </trkpt>
      <trkpt lat="47.77974" lon="-3.46976">
        <ele>53.68</ele>
        <time>2020-07-10T10:22:53Z</time>
      </trkpt>
      <trkpt lat="47.77975" lon="-3.46976">
        <ele>53.73</ele>
        <time>2020-07-10T10:22:54Z</time>
      </trkpt>
      <trkpt lat="47.77976" lon="-3.46974">
        <ele>53.81</ele>
        <time>2020-07-10T10:22:55Z</time>
      </trkpt>
      <trkpt lat="47.77977" lon="-3.46973">
        <ele>53.9</ele>
        <time>2020-07-10T10:22:56Z</time>
      </trkpt>
      <trkpt lat="47.77979" lon="-3.46972">
        <ele>53.99</ele>
        <time>2020-07-10T10:22:57Z</time>
      </trkpt>
      <trkpt lat="47.77982" lon="-3.46971">
        <ele>54.04</ele>
        <time>2020-07-10T10:22:58Z</time>
      </trkpt>
      <trkpt lat="47.77985" lon="-3.4697">
        <ele>54.1</ele>
        <time>2020-07-10T10:22:59Z</time>
      </trkpt>
      <trkpt lat="47.77988" lon="-3.46968">
        <ele>54.18</ele>
        <time>2020-07-10T10:23:00Z</time>
      </trkpt>
      <trkpt lat="47.77989" lon="-3.46967">
        <ele>54.24</ele>
        <time>2020-07-10T10:23:01Z</time>
      </trkpt>
      <trkpt lat="47.77991" lon="-3.46965">
        <ele>54.31</ele>
        <time>2020-07-10T10:23:02Z</time>
      </trkpt>
      <trkpt lat="47.77993" lon="-3.46962">
        <ele>54.4</ele>
        <time>2020-07-10T10:23:03Z</time>
      </trkpt>
      <trkpt lat="47.77995" lon="-3.4696">
        <ele>54.48</ele>
        <time>2020-07-10T10:23:04Z</time>
      </trkpt>
      <trkpt lat="47.77998" lon="-3.46958">
        <ele>54.52</ele>
        <time>2020-07-10T10:23:05Z</time>
      </trkpt>
      <trkpt lat="47.78001" lon="-3.46956">
        <ele>54.56</ele>
        <time>2020-07-10T10:23:06Z</time>
      </trkpt>
      <trkpt lat="47.78003" lon="-3.46953">
        <ele>54.56</ele>
        <time>2020-07-10T10:23:07Z</time>
      </trkpt>
      <trkpt lat="47.78005" lon="-3.46951">
        <ele>54.58</ele>
        <time>2020-07-10T10:23:08Z</time>
      </trkpt>
      <trkpt lat="47.78008" lon="-3.46948">
        <ele>54.57</ele>
        <time>2020-07-10T10:23:09Z</time>
      </trkpt>
      <trkpt lat="47.78011" lon="-3.46946">
        <ele>54.56</ele>
        <time>2020-07-10T10:23:10Z</time>
      </trkpt>
      <trkpt lat="47.78014" lon="-3.46944">
        <ele>54.52</ele>
        <time>2020-07-10T10:23:11Z</time>
      </trkpt>
      <trkpt lat="47.78017" lon="-3.46943">
        <ele>54.5</ele>
        <time>2020-07-10T10:23:12Z</time>
      </trkpt>
      <trkpt lat="47.7802" lon="-3.46941">
        <ele>54.49</ele>
        <time>2020-07-10T10:23:13Z</time>
      </trkpt>
      <trkpt lat="47.78024" lon="-3.46939">
        <ele>54.49</ele>
        <time>2020-07-10T10:23:14Z</time>
      </trkpt>
      <trkpt lat="47.78027" lon="-3.46937">
        <ele>54.55</ele>
        <time>2020-07-10T10:23:15Z</time>
      </trkpt>
      <trkpt lat="47.78031" lon="-3.46934">
        <ele>54.64</ele>
        <time>2020-07-10T10:23:16Z</time>
      </trkpt>
      <trkpt lat="47.78034" lon="-3.46932">
        <ele>54.75</ele>
        <time>2020-07-10T10:23:17Z</time>
      </trkpt>
      <trkpt lat="47.78037" lon="-3.46929">
        <ele>54.87</ele>
        <time>2020-07-10T10:23:18Z</time>
      </trkpt>
      <trkpt lat="47.78041" lon="-3.46926">
        <ele>54.96</ele>
        <time>2020-07-10T10:23:19Z</time>
      </trkpt>
      <trkpt lat="47.78044" lon="-3.46923">
        <ele>55.04</ele>
        <time>2020-07-10T10:23:20Z</time>
      </trkpt>
      <trkpt lat="47.78048" lon="-3.46921">
        <ele>55.06</ele>
        <time>2020-07-10T10:23:21Z</time>
      </trkpt>
      <trkpt lat="47.78051" lon="-3.46919">
        <ele>55.04</ele>
        <time>2020-07-10T10:23:22Z</time>
      </trkpt>
      <trkpt lat="47.78055" lon="-3.46917">
        <ele>55.01</ele>
        <time>2020-07-10T10:23:23Z</time>
      </trkpt>
      <trkpt lat="47.7806" lon="-3.46915">
        <ele>54.73</ele>
        <time>2020-07-10T10:23:24Z</time>
      </trkpt>
      <trkpt lat="47.78064" lon="-3.46913">
        <ele>54.41</ele>
        <time>2020-07-10T10:23:25Z</time>
      </trkpt>
      <trkpt lat="47.78068" lon="-3.4691">
        <ele>54.1</ele>
        <time>2020-07-10T10:23:26Z</time>
      </trkpt>
      <trkpt lat="47.78073" lon="-3.46908">
        <ele>53.8</ele>
        <time>2020-07-10T10:23:27Z</time>
      </trkpt>
      <trkpt lat="47.78077" lon="-3.46906">
        <ele>53.54</ele>
        <time>2020-07-10T10:23:28Z</time>
      </trkpt>
      <trkpt lat="47.7808" lon="-3.46903">
        <ele>53.36</ele>
        <time>2020-07-10T10:23:29Z</time>
      </trkpt>
      <trkpt lat="47.78084" lon="-3.46899">
        <ele>53.27</ele>
        <time>2020-07-10T10:23:30Z</time>
      </trkpt>
      <trkpt lat="47.78087" lon="-3.46896">
        <ele>53.22</ele>
        <time>2020-07-10T10:23:31Z</time>
      </trkpt>
      <trkpt lat="47.78091" lon="-3.46892">
        <ele>53.21</ele>
        <time>2020-07-10T10:23:32Z</time>
      </trkpt>
      <trkpt lat="47.78094" lon="-3.46888">
        <ele>53.22</ele>
        <time>2020-07-10T10:23:33Z</time>
      </trkpt>
      <trkpt lat="47.78098" lon="-3.46884">
        <ele>53.15</ele>
        <time>2020-07-10T10:23:34Z</time>
      </trkpt>
      <trkpt lat="47.78101" lon="-3.4688">
        <ele>53.06</ele>
        <time>2020-07-10T10:23:35Z</time>
      </trkpt>
      <trkpt lat="47.78105" lon="-3.46875">
        <ele>52.98</ele>
        <time>2020-07-10T10:23:36Z</time>
      </trkpt>
      <trkpt lat="47.78108" lon="-3.46871">
        <ele>52.9</ele>
        <time>2020-07-10T10:23:37Z</time>
      </trkpt>
      <trkpt lat="47.78111" lon="-3.46866">
        <ele>52.86</ele>
        <time>2020-07-10T10:23:38Z</time>
      </trkpt>
      <trkpt lat="47.78114" lon="-3.46862">
        <ele>52.77</ele>
        <time>2020-07-10T10:23:39Z</time>
      </trkpt>
      <trkpt lat="47.78118" lon="-3.46858">
        <ele>52.71</ele>
        <time>2020-07-10T10:23:40Z</time>
      </trkpt>
      <trkpt lat="47.78121" lon="-3.46853">
        <ele>52.7</ele>
        <time>2020-07-10T10:23:41Z</time>
      </trkpt>
      <trkpt lat="47.78124" lon="-3.46848">
        <ele>52.75</ele>
        <time>2020-07-10T10:23:42Z</time>
      </trkpt>
      <trkpt lat="47.78127" lon="-3.46843">
        <ele>52.86</ele>
        <time>2020-07-10T10:23:43Z</time>
      </trkpt>
      <trkpt lat="47.78129" lon="-3.46838">
        <ele>53</ele>
        <time>2020-07-10T10:23:44Z</time>
      </trkpt>
      <trkpt lat="47.78132" lon="-3.46833">
        <ele>53.17</ele>
        <time>2020-07-10T10:23:45Z</time>
      </trkpt>
      <trkpt lat="47.78135" lon="-3.46829">
        <ele>53.16</ele>
        <time>2020-07-10T10:23:46Z</time>
      </trkpt>
      <trkpt lat="47.78138" lon="-3.46826">
        <ele>53.07</ele>
        <time>2020-07-10T10:23:47Z</time>
      </trkpt>
      <trkpt lat="47.78142" lon="-3.46822">
        <ele>52.91</ele>
        <time>2020-07-10T10:23:48Z</time>
      </trkpt>
      <trkpt lat="47.78145" lon="-3.46818">
        <ele>52.75</ele>
        <time>2020-07-10T10:23:49Z</time>
      </trkpt>
      <trkpt lat="47.78149" lon="-3.46813">
        <ele>52.59</ele>
        <time>2020-07-10T10:23:50Z</time>
      </trkpt>
      <trkpt lat="47.78153" lon="-3.46808">
        <ele>52.48</ele>
        <time>2020-07-10T10:23:51Z</time>
      </trkpt>
      <trkpt lat="47.78157" lon="-3.46804">
        <ele>52.39</ele>
        <time>2020-07-10T10:23:52Z</time>
      </trkpt>
      <trkpt lat="47.78162" lon="-3.46801">
        <ele>52.35</ele>
        <time>2020-07-10T10:23:53Z</time>
      </trkpt>
      <trkpt lat="47.78166" lon="-3.46797">
        <ele>52.32</ele>
        <time>2020-07-10T10:23:54Z</time>
      </trkpt>
      <trkpt lat="47.7817" lon="-3.46793">
        <ele>52.31</ele>
        <time>2020-07-10T10:23:55Z</time>
      </trkpt>
      <trkpt lat="47.78176" lon="-3.46787">
        <ele>52.33</ele>
        <time>2020-07-10T10:23:56Z</time>
      </trkpt>
      <trkpt lat="47.78179" lon="-3.46781">
        <ele>52.41</ele>
        <time>2020-07-10T10:23:57Z</time>
      </trkpt>
      <trkpt lat="47.78182" lon="-3.46773">
        <ele>52.36</ele>
        <time>2020-07-10T10:23:58Z</time>
      </trkpt>
      <trkpt lat="47.78185" lon="-3.46764">
        <ele>52.13</ele>
        <time>2020-07-10T10:23:59Z</time>
      </trkpt>
      <trkpt lat="47.78185" lon="-3.46756">
        <ele>51.91</ele>
        <time>2020-07-10T10:24:00Z</time>
      </trkpt>
      <trkpt lat="47.78186" lon="-3.46747">
        <ele>51.52</ele>
        <time>2020-07-10T10:24:01Z</time>
      </trkpt>
      <trkpt lat="47.78185" lon="-3.46738">
        <ele>50.9</ele>
        <time>2020-07-10T10:24:02Z</time>
      </trkpt>
      <trkpt lat="47.78183" lon="-3.4673">
        <ele>50.33</ele>
        <time>2020-07-10T10:24:03Z</time>
      </trkpt>
      <trkpt lat="47.7818" lon="-3.46723">
        <ele>49.83</ele>
        <time>2020-07-10T10:24:04Z</time>
      </trkpt>
      <trkpt lat="47.78176" lon="-3.46717">
        <ele>49.32</ele>
        <time>2020-07-10T10:24:05Z</time>
      </trkpt>
      <trkpt lat="47.78171" lon="-3.46711">
        <ele>48.86</ele>
        <time>2020-07-10T10:24:06Z</time>
      </trkpt>
      <trkpt lat="47.78166" lon="-3.46708">
        <ele>48.57</ele>
        <time>2020-07-10T10:24:07Z</time>
      </trkpt>
      <trkpt lat="47.78163" lon="-3.46706">
        <ele>48.44</ele>
        <time>2020-07-10T10:24:08Z</time>
      </trkpt>
      <trkpt lat="47.7816" lon="-3.46705">
        <ele>48.41</ele>
        <time>2020-07-10T10:24:09Z</time>
      </trkpt>
      <trkpt lat="47.78156" lon="-3.46705">
        <ele>48.49</ele>
        <time>2020-07-10T10:24:10Z</time>
      </trkpt>
      <trkpt lat="47.78151" lon="-3.46704">
        <ele>48.53</ele>
        <time>2020-07-10T10:24:11Z</time>
      </trkpt>
      <trkpt lat="47.78148" lon="-3.46701">
        <ele>48.44</ele>
        <time>2020-07-10T10:24:12Z</time>
      </trkpt>
      <trkpt lat="47.78144" lon="-3.46699">
        <ele>48.36</ele>
        <time>2020-07-10T10:24:13Z</time>
      </trkpt>
      <trkpt lat="47.78141" lon="-3.46696">
        <ele>48.17</ele>
        <time>2020-07-10T10:24:14Z</time>
      </trkpt>
      <trkpt lat="47.78137" lon="-3.46691">
        <ele>47.96</ele>
        <time>2020-07-10T10:24:15Z</time>
      </trkpt>
      <trkpt lat="47.78133" lon="-3.46685">
        <ele>47.84</ele>
        <time>2020-07-10T10:24:16Z</time>
      </trkpt>
      <trkpt lat="47.78128" lon="-3.46677">
        <ele>47.82</ele>
        <time>2020-07-10T10:24:17Z</time>
      </trkpt>
      <trkpt lat="47.78122" lon="-3.46671">
        <ele>48.11</ele>
        <time>2020-07-10T10:24:18Z</time>
      </trkpt>
      <trkpt lat="47.78118" lon="-3.46662">
        <ele>48.4</ele>
        <time>2020-07-10T10:24:19Z</time>
      </trkpt>
      <trkpt lat="47.78113" lon="-3.46656">
        <ele>48.79</ele>
        <time>2020-07-10T10:24:20Z</time>
      </trkpt>
      <trkpt lat="47.78107" lon="-3.4665">
        <ele>49.09</ele>
        <time>2020-07-10T10:24:21Z</time>
      </trkpt>
      <trkpt lat="47.78103" lon="-3.46645">
        <ele>49.35</ele>
        <time>2020-07-10T10:24:22Z</time>
      </trkpt>
      <trkpt lat="47.78099" lon="-3.4664">
        <ele>49.63</ele>
        <time>2020-07-10T10:24:23Z</time>
      </trkpt>
      <trkpt lat="47.78096" lon="-3.46636">
        <ele>49.96</ele>
        <time>2020-07-10T10:24:24Z</time>
      </trkpt>
      <trkpt lat="47.78093" lon="-3.46633">
        <ele>50.29</ele>
        <time>2020-07-10T10:24:25Z</time>
      </trkpt>
      <trkpt lat="47.78089" lon="-3.4663">
        <ele>50.71</ele>
        <time>2020-07-10T10:24:26Z</time>
      </trkpt>
      <trkpt lat="47.78085" lon="-3.46627">
        <ele>51.1</ele>
        <time>2020-07-10T10:24:27Z</time>
      </trkpt>
      <trkpt lat="47.78083" lon="-3.46623">
        <ele>51.38</ele>
        <time>2020-07-10T10:24:28Z</time>
      </trkpt>
      <trkpt lat="47.78081" lon="-3.46619">
        <ele>51.5</ele>
        <time>2020-07-10T10:24:29Z</time>
      </trkpt>
      <trkpt lat="47.78079" lon="-3.46614">
        <ele>51.54</ele>
        <time>2020-07-10T10:24:30Z</time>
      </trkpt>
      <trkpt lat="47.78077" lon="-3.46609">
        <ele>51.57</ele>
        <time>2020-07-10T10:24:31Z</time>
      </trkpt>
      <trkpt lat="47.78075" lon="-3.46605">
        <ele>51.6</ele>
        <time>2020-07-10T10:24:32Z</time>
      </trkpt>
      <trkpt lat="47.78073" lon="-3.466">
        <ele>51.6</ele>
        <time>2020-07-10T10:24:33Z</time>
      </trkpt>
      <trkpt lat="47.7807" lon="-3.46596">
        <ele>51.61</ele>
        <time>2020-07-10T10:24:34Z</time>
      </trkpt>
      <trkpt lat="47.78067" lon="-3.46591">
        <ele>51.61</ele>
        <time>2020-07-10T10:24:35Z</time>
      </trkpt>
      <trkpt lat="47.78063" lon="-3.46586">
        <ele>51.6</ele>
        <time>2020-07-10T10:24:36Z</time>
      </trkpt>
      <trkpt lat="47.7806" lon="-3.46581">
        <ele>51.61</ele>
        <time>2020-07-10T10:24:37Z</time>
      </trkpt>
      <trkpt lat="47.78055" lon="-3.46577">
        <ele>51.72</ele>
        <time>2020-07-10T10:24:38Z</time>
      </trkpt>
      <trkpt lat="47.78051" lon="-3.46572">
        <ele>51.85</ele>
        <time>2020-07-10T10:24:39Z</time>
      </trkpt>
      <trkpt lat="47.78046" lon="-3.46567">
        <ele>52.02</ele>
        <time>2020-07-10T10:24:40Z</time>
      </trkpt>
      <trkpt lat="47.78041" lon="-3.46562">
        <ele>52.2</ele>
        <time>2020-07-10T10:24:41Z</time>
      </trkpt>
      <trkpt lat="47.78036" lon="-3.46558">
        <ele>52.42</ele>
        <time>2020-07-10T10:24:42Z</time>
      </trkpt>
      <trkpt lat="47.78032" lon="-3.46554">
        <ele>52.56</ele>
        <time>2020-07-10T10:24:43Z</time>
      </trkpt>
      <trkpt lat="47.78027" lon="-3.46549">
        <ele>52.57</ele>
        <time>2020-07-10T10:24:44Z</time>
      </trkpt>
      <trkpt lat="47.78023" lon="-3.46545">
        <ele>52.53</ele>
        <time>2020-07-10T10:24:45Z</time>
      </trkpt>
      <trkpt lat="47.78018" lon="-3.46541">
        <ele>52.48</ele>
        <time>2020-07-10T10:24:46Z</time>
      </trkpt>
      <trkpt lat="47.78014" lon="-3.46536">
        <ele>52.48</ele>
        <time>2020-07-10T10:24:47Z</time>
      </trkpt>
      <trkpt lat="47.78009" lon="-3.46531">
        <ele>52.51</ele>
        <time>2020-07-10T10:24:48Z</time>
      </trkpt>
      <trkpt lat="47.78004" lon="-3.46526">
        <ele>52.6</ele>
        <time>2020-07-10T10:24:49Z</time>
      </trkpt>
      <trkpt lat="47.77999" lon="-3.46522">
        <ele>52.59</ele>
        <time>2020-07-10T10:24:50Z</time>
      </trkpt>
      <trkpt lat="47.77995" lon="-3.46517">
        <ele>52.41</ele>
        <time>2020-07-10T10:24:51Z</time>
      </trkpt>
      <trkpt lat="47.77991" lon="-3.46514">
        <ele>52.22</ele>
        <time>2020-07-10T10:24:52Z</time>
      </trkpt>
      <trkpt lat="47.77986" lon="-3.4651">
        <ele>52.07</ele>
        <time>2020-07-10T10:24:53Z</time>
      </trkpt>
      <trkpt lat="47.77982" lon="-3.46505">
        <ele>51.95</ele>
        <time>2020-07-10T10:24:54Z</time>
      </trkpt>
      <trkpt lat="47.77978" lon="-3.465">
        <ele>51.83</ele>
        <time>2020-07-10T10:24:55Z</time>
      </trkpt>
      <trkpt lat="47.77975" lon="-3.46494">
        <ele>51.86</ele>
        <time>2020-07-10T10:24:56Z</time>
      </trkpt>
      <trkpt lat="47.77972" lon="-3.46488">
        <ele>51.96</ele>
        <time>2020-07-10T10:24:57Z</time>
      </trkpt>
      <trkpt lat="47.7797" lon="-3.46482">
        <ele>51.99</ele>
        <time>2020-07-10T10:24:58Z</time>
      </trkpt>
      <trkpt lat="47.77968" lon="-3.46475">
        <ele>52</ele>
        <time>2020-07-10T10:24:59Z</time>
      </trkpt>
      <trkpt lat="47.77966" lon="-3.46468">
        <ele>51.89</ele>
        <time>2020-07-10T10:25:00Z</time>
      </trkpt>
      <trkpt lat="47.77964" lon="-3.46462">
        <ele>51.7</ele>
        <time>2020-07-10T10:25:01Z</time>
      </trkpt>
      <trkpt lat="47.77962" lon="-3.46455">
        <ele>51.48</ele>
        <time>2020-07-10T10:25:02Z</time>
      </trkpt>
      <trkpt lat="47.7796" lon="-3.46448">
        <ele>51.25</ele>
        <time>2020-07-10T10:25:03Z</time>
      </trkpt>
      <trkpt lat="47.77957" lon="-3.46441">
        <ele>51.07</ele>
        <time>2020-07-10T10:25:04Z</time>
      </trkpt>
      <trkpt lat="47.77955" lon="-3.46433">
        <ele>51.02</ele>
        <time>2020-07-10T10:25:05Z</time>
      </trkpt>
      <trkpt lat="47.77953" lon="-3.46425">
        <ele>51.01</ele>
        <time>2020-07-10T10:25:06Z</time>
      </trkpt>
      <trkpt lat="47.77951" lon="-3.46417">
        <ele>51</ele>
        <time>2020-07-10T10:25:07Z</time>
      </trkpt>
      <trkpt lat="47.77949" lon="-3.46409">
        <ele>51.18</ele>
        <time>2020-07-10T10:25:08Z</time>
      </trkpt>
      <trkpt lat="47.77947" lon="-3.46402">
        <ele>51.44</ele>
        <time>2020-07-10T10:25:09Z</time>
      </trkpt>
      <trkpt lat="47.77946" lon="-3.46393">
        <ele>51.72</ele>
        <time>2020-07-10T10:25:10Z</time>
      </trkpt>
      <trkpt lat="47.77945" lon="-3.46385">
        <ele>51.92</ele>
        <time>2020-07-10T10:25:11Z</time>
      </trkpt>
      <trkpt lat="47.77944" lon="-3.46376">
        <ele>51.96</ele>
        <time>2020-07-10T10:25:12Z</time>
      </trkpt>
      <trkpt lat="47.77943" lon="-3.46367">
        <ele>51.98</ele>
        <time>2020-07-10T10:25:13Z</time>
      </trkpt>
      <trkpt lat="47.77942" lon="-3.46359">
        <ele>51.99</ele>
        <time>2020-07-10T10:25:14Z</time>
      </trkpt>
      <trkpt lat="47.77941" lon="-3.4635">
        <ele>52</ele>
        <time>2020-07-10T10:25:15Z</time>
      </trkpt>
      <trkpt lat="47.7794" lon="-3.46341">
        <ele>52</ele>
        <time>2020-07-10T10:25:16Z</time>
      </trkpt>
      <trkpt lat="47.77939" lon="-3.46333">
        <ele>52</ele>
        <time>2020-07-10T10:25:17Z</time>
      </trkpt>
      <trkpt lat="47.77937" lon="-3.46324">
        <ele>52</ele>
        <time>2020-07-10T10:25:18Z</time>
      </trkpt>
      <trkpt lat="47.77936" lon="-3.46316">
        <ele>52</ele>
        <time>2020-07-10T10:25:19Z</time>
      </trkpt>
      <trkpt lat="47.77935" lon="-3.46307">
        <ele>52</ele>
        <time>2020-07-10T10:25:20Z</time>
      </trkpt>
      <trkpt lat="47.77934" lon="-3.46299">
        <ele>52</ele>
        <time>2020-07-10T10:25:21Z</time>
      </trkpt>
      <trkpt lat="47.77933" lon="-3.46291">
        <ele>52</ele>
        <time>2020-07-10T10:25:22Z</time>
      </trkpt>
      <trkpt lat="47.77932" lon="-3.46283">
        <ele>52</ele>
        <time>2020-07-10T10:25:23Z</time>
      </trkpt>
      <trkpt lat="47.77931" lon="-3.46275">
        <ele>51.97</ele>
        <time>2020-07-10T10:25:24Z</time>
      </trkpt>
      <trkpt lat="47.7793" lon="-3.46268">
        <ele>51.86</ele>
        <time>2020-07-10T10:25:25Z</time>
      </trkpt>
      <trkpt lat="47.77929" lon="-3.46261">
        <ele>51.72</ele>
        <time>2020-07-10T10:25:26Z</time>
      </trkpt>
      <trkpt lat="47.77928" lon="-3.46255">
        <ele>51.57</ele>
        <time>2020-07-10T10:25:27Z</time>
      </trkpt>
      <trkpt lat="47.77927" lon="-3.4625">
        <ele>51.44</ele>
        <time>2020-07-10T10:25:28Z</time>
      </trkpt>
      <trkpt lat="47.77926" lon="-3.46246">
        <ele>51.26</ele>
        <time>2020-07-10T10:25:29Z</time>
      </trkpt>
      <trkpt lat="47.77924" lon="-3.46241">
        <ele>51.04</ele>
        <time>2020-07-10T10:25:30Z</time>
      </trkpt>
      <trkpt lat="47.77924" lon="-3.46236">
        <ele>50.83</ele>
        <time>2020-07-10T10:25:31Z</time>
      </trkpt>
      <trkpt lat="47.77924" lon="-3.4623">
        <ele>50.63</ele>
        <time>2020-07-10T10:25:32Z</time>
      </trkpt>
      <trkpt lat="47.77926" lon="-3.46223">
        <ele>50.46</ele>
        <time>2020-07-10T10:25:33Z</time>
      </trkpt>
      <trkpt lat="47.77928" lon="-3.46217">
        <ele>50.42</ele>
        <time>2020-07-10T10:25:34Z</time>
      </trkpt>
      <trkpt lat="47.7793" lon="-3.4621">
        <ele>50.45</ele>
        <time>2020-07-10T10:25:35Z</time>
      </trkpt>
      <trkpt lat="47.77931" lon="-3.46203">
        <ele>50.51</ele>
        <time>2020-07-10T10:25:36Z</time>
      </trkpt>
      <trkpt lat="47.77933" lon="-3.46195">
        <ele>50.56</ele>
        <time>2020-07-10T10:25:37Z</time>
      </trkpt>
      <trkpt lat="47.77934" lon="-3.46186">
        <ele>50.54</ele>
        <time>2020-07-10T10:25:38Z</time>
      </trkpt>
      <trkpt lat="47.77936" lon="-3.46178">
        <ele>50.53</ele>
        <time>2020-07-10T10:25:39Z</time>
      </trkpt>
      <trkpt lat="47.77938" lon="-3.46169">
        <ele>50.53</ele>
        <time>2020-07-10T10:25:40Z</time>
      </trkpt>
      <trkpt lat="47.77939" lon="-3.4616">
        <ele>50.59</ele>
        <time>2020-07-10T10:25:41Z</time>
      </trkpt>
      <trkpt lat="47.7794" lon="-3.46152">
        <ele>50.67</ele>
        <time>2020-07-10T10:25:42Z</time>
      </trkpt>
      <trkpt lat="47.77942" lon="-3.46145">
        <ele>50.78</ele>
        <time>2020-07-10T10:25:43Z</time>
      </trkpt>
      <trkpt lat="47.77943" lon="-3.46138">
        <ele>50.85</ele>
        <time>2020-07-10T10:25:44Z</time>
      </trkpt>
      <trkpt lat="47.77944" lon="-3.4613">
        <ele>50.74</ele>
        <time>2020-07-10T10:25:45Z</time>
      </trkpt>
      <trkpt lat="47.77946" lon="-3.46124">
        <ele>50.56</ele>
        <time>2020-07-10T10:25:46Z</time>
      </trkpt>
      <trkpt lat="47.77948" lon="-3.46117">
        <ele>50.38</ele>
        <time>2020-07-10T10:25:47Z</time>
      </trkpt>
      <trkpt lat="47.77949" lon="-3.4611">
        <ele>50.23</ele>
        <time>2020-07-10T10:25:48Z</time>
      </trkpt>
      <trkpt lat="47.7795" lon="-3.46103">
        <ele>50.17</ele>
        <time>2020-07-10T10:25:49Z</time>
      </trkpt>
      <trkpt lat="47.77952" lon="-3.46095">
        <ele>50.13</ele>
        <time>2020-07-10T10:25:50Z</time>
      </trkpt>
      <trkpt lat="47.77953" lon="-3.46087">
        <ele>50.06</ele>
        <time>2020-07-10T10:25:51Z</time>
      </trkpt>
      <trkpt lat="47.77954" lon="-3.46078">
        <ele>49.94</ele>
        <time>2020-07-10T10:25:52Z</time>
      </trkpt>
      <trkpt lat="47.77956" lon="-3.4607">
        <ele>49.78</ele>
        <time>2020-07-10T10:25:53Z</time>
      </trkpt>
      <trkpt lat="47.77957" lon="-3.46062">
        <ele>49.65</ele>
        <time>2020-07-10T10:25:54Z</time>
      </trkpt>
      <trkpt lat="47.77959" lon="-3.46054">
        <ele>49.54</ele>
        <time>2020-07-10T10:25:55Z</time>
      </trkpt>
      <trkpt lat="47.77961" lon="-3.46045">
        <ele>49.42</ele>
        <time>2020-07-10T10:25:56Z</time>
      </trkpt>
      <trkpt lat="47.77962" lon="-3.46037">
        <ele>49.26</ele>
        <time>2020-07-10T10:25:57Z</time>
      </trkpt>
      <trkpt lat="47.77962" lon="-3.46028">
        <ele>49.08</ele>
        <time>2020-07-10T10:25:58Z</time>
      </trkpt>
      <trkpt lat="47.77963" lon="-3.46019">
        <ele>49.11</ele>
        <time>2020-07-10T10:25:59Z</time>
      </trkpt>
      <trkpt lat="47.77964" lon="-3.46009">
        <ele>49.23</ele>
        <time>2020-07-10T10:26:00Z</time>
      </trkpt>
      <trkpt lat="47.77966" lon="-3.46">
        <ele>49.45</ele>
        <time>2020-07-10T10:26:01Z</time>
      </trkpt>
      <trkpt lat="47.77968" lon="-3.45991">
        <ele>49.64</ele>
        <time>2020-07-10T10:26:02Z</time>
      </trkpt>
      <trkpt lat="47.77969" lon="-3.45983">
        <ele>49.79</ele>
        <time>2020-07-10T10:26:03Z</time>
      </trkpt>
      <trkpt lat="47.7797" lon="-3.45975">
        <ele>49.88</ele>
        <time>2020-07-10T10:26:04Z</time>
      </trkpt>
      <trkpt lat="47.77972" lon="-3.45967">
        <ele>49.95</ele>
        <time>2020-07-10T10:26:05Z</time>
      </trkpt>
      <trkpt lat="47.77973" lon="-3.45959">
        <ele>50</ele>
        <time>2020-07-10T10:26:06Z</time>
      </trkpt>
      <trkpt lat="47.77975" lon="-3.45951">
        <ele>50.06</ele>
        <time>2020-07-10T10:26:07Z</time>
      </trkpt>
      <trkpt lat="47.77976" lon="-3.45944">
        <ele>50.12</ele>
        <time>2020-07-10T10:26:08Z</time>
      </trkpt>
      <trkpt lat="47.77977" lon="-3.45937">
        <ele>50.35</ele>
        <time>2020-07-10T10:26:09Z</time>
      </trkpt>
      <trkpt lat="47.77978" lon="-3.4593">
        <ele>50.63</ele>
        <time>2020-07-10T10:26:10Z</time>
      </trkpt>
      <trkpt lat="47.77979" lon="-3.45923">
        <ele>50.92</ele>
        <time>2020-07-10T10:26:11Z</time>
      </trkpt>
      <trkpt lat="47.7798" lon="-3.45916">
        <ele>51.19</ele>
        <time>2020-07-10T10:26:12Z</time>
      </trkpt>
      <trkpt lat="47.77981" lon="-3.45911">
        <ele>51.38</ele>
        <time>2020-07-10T10:26:13Z</time>
      </trkpt>
      <trkpt lat="47.77981" lon="-3.45906">
        <ele>51.52</ele>
        <time>2020-07-10T10:26:14Z</time>
      </trkpt>
      <trkpt lat="47.77982" lon="-3.45903">
        <ele>51.63</ele>
        <time>2020-07-10T10:26:15Z</time>
      </trkpt>
      <trkpt lat="47.77982" lon="-3.45901">
        <ele>51.7</ele>
        <time>2020-07-10T10:26:16Z</time>
      </trkpt>
      <trkpt lat="47.77982" lon="-3.459">
        <ele>51.73</ele>
        <time>2020-07-10T10:26:17Z</time>
      </trkpt>
      <trkpt lat="47.77983" lon="-3.45899">
        <ele>51.76</ele>
        <time>2020-07-10T10:26:18Z</time>
      </trkpt>
      <trkpt lat="47.77983" lon="-3.45898">
        <ele>51.78</ele>
        <time>2020-07-10T10:26:19Z</time>
      </trkpt>
      <trkpt lat="47.77984" lon="-3.459">
        <ele>51.77</ele>
        <time>2020-07-10T10:26:20Z</time>
      </trkpt>
      <trkpt lat="47.77985" lon="-3.45903">
        <ele>51.74</ele>
        <time>2020-07-10T10:26:21Z</time>
      </trkpt>
      <trkpt lat="47.77987" lon="-3.45905">
        <ele>51.73</ele>
        <time>2020-07-10T10:26:22Z</time>
      </trkpt>
      <trkpt lat="47.77988" lon="-3.45905">
        <ele>51.74</ele>
        <time>2020-07-10T10:26:23Z</time>
      </trkpt>
      <trkpt lat="47.77989" lon="-3.45904">
        <ele>51.77</ele>
        <time>2020-07-10T10:26:24Z</time>
      </trkpt>
      <trkpt lat="47.77989" lon="-3.45904">
        <ele>51.78</ele>
        <time>2020-07-10T10:26:25Z</time>
      </trkpt>
      <trkpt lat="47.77989" lon="-3.45904">
        <ele>51.79</ele>
        <time>2020-07-10T10:26:26Z</time>
      </trkpt>
      <trkpt lat="47.77989" lon="-3.45904">
        <ele>51.79</ele>
        <time>2020-07-10T10:26:27Z</time>
      </trkpt>
      <trkpt lat="47.77991" lon="-3.45903">
        <ele>51.82</ele>
        <time>2020-07-10T10:26:28Z</time>
      </trkpt>
      <trkpt lat="47.77992" lon="-3.45903">
        <ele>51.85</ele>
        <time>2020-07-10T10:26:29Z</time>
      </trkpt>
      <trkpt lat="47.77994" lon="-3.45902">
        <ele>51.89</ele>
        <time>2020-07-10T10:26:30Z</time>
      </trkpt>
      <trkpt lat="47.77996" lon="-3.45903">
        <ele>51.92</ele>
        <time>2020-07-10T10:26:31Z</time>
      </trkpt>
      <trkpt lat="47.77998" lon="-3.45903">
        <ele>51.95</ele>
        <time>2020-07-10T10:26:32Z</time>
      </trkpt>
      <trkpt lat="47.78" lon="-3.45904">
        <ele>51.99</ele>
        <time>2020-07-10T10:26:33Z</time>
      </trkpt>
      <trkpt lat="47.78001" lon="-3.45906">
        <ele>52.03</ele>
        <time>2020-07-10T10:26:34Z</time>
      </trkpt>
      <trkpt lat="47.78003" lon="-3.45907">
        <ele>52.09</ele>
        <time>2020-07-10T10:26:35Z</time>
      </trkpt>
      <trkpt lat="47.78006" lon="-3.45908">
        <ele>52.17</ele>
        <time>2020-07-10T10:26:36Z</time>
      </trkpt>
      <trkpt lat="47.78007" lon="-3.45908">
        <ele>52.24</ele>
        <time>2020-07-10T10:26:37Z</time>
      </trkpt>
      <trkpt lat="47.78011" lon="-3.45908">
        <ele>52.35</ele>
        <time>2020-07-10T10:26:38Z</time>
      </trkpt>
      <trkpt lat="47.78015" lon="-3.45909">
        <ele>52.47</ele>
        <time>2020-07-10T10:26:39Z</time>
      </trkpt>
      <trkpt lat="47.78018" lon="-3.45911">
        <ele>52.58</ele>
        <time>2020-07-10T10:26:40Z</time>
      </trkpt>
      <trkpt lat="47.7802" lon="-3.45913">
        <ele>52.69</ele>
        <time>2020-07-10T10:26:41Z</time>
      </trkpt>
      <trkpt lat="47.78023" lon="-3.45916">
        <ele>52.78</ele>
        <time>2020-07-10T10:26:42Z</time>
      </trkpt>
      <trkpt lat="47.78026" lon="-3.45918">
        <ele>52.89</ele>
        <time>2020-07-10T10:26:43Z</time>
      </trkpt>
      <trkpt lat="47.78028" lon="-3.45921">
        <ele>52.98</ele>
        <time>2020-07-10T10:26:44Z</time>
      </trkpt>
      <trkpt lat="47.7803" lon="-3.45923">
        <ele>53.11</ele>
        <time>2020-07-10T10:26:45Z</time>
      </trkpt>
      <trkpt lat="47.78033" lon="-3.45924">
        <ele>53.28</ele>
        <time>2020-07-10T10:26:46Z</time>
      </trkpt>
      <trkpt lat="47.78036" lon="-3.45925">
        <ele>53.48</ele>
        <time>2020-07-10T10:26:47Z</time>
      </trkpt>
      <trkpt lat="47.78038" lon="-3.45925">
        <ele>53.68</ele>
        <time>2020-07-10T10:26:48Z</time>
      </trkpt>
      <trkpt lat="47.78041" lon="-3.45924">
        <ele>53.86</ele>
        <time>2020-07-10T10:26:49Z</time>
      </trkpt>
      <trkpt lat="47.78043" lon="-3.45925">
        <ele>54.04</ele>
        <time>2020-07-10T10:26:50Z</time>
      </trkpt>
      <trkpt lat="47.78047" lon="-3.45926">
        <ele>54.27</ele>
        <time>2020-07-10T10:26:51Z</time>
      </trkpt>
      <trkpt lat="47.78051" lon="-3.45928">
        <ele>54.56</ele>
        <time>2020-07-10T10:26:52Z</time>
      </trkpt>
      <trkpt lat="47.78054" lon="-3.4593">
        <ele>54.79</ele>
        <time>2020-07-10T10:26:53Z</time>
      </trkpt>
      <trkpt lat="47.78057" lon="-3.45933">
        <ele>54.97</ele>
        <time>2020-07-10T10:26:54Z</time>
      </trkpt>
      <trkpt lat="47.7806" lon="-3.45936">
        <ele>55.11</ele>
        <time>2020-07-10T10:26:55Z</time>
      </trkpt>
      <trkpt lat="47.78063" lon="-3.45938">
        <ele>55.22</ele>
        <time>2020-07-10T10:26:56Z</time>
      </trkpt>
      <trkpt lat="47.78068" lon="-3.45941">
        <ele>55.37</ele>
        <time>2020-07-10T10:26:57Z</time>
      </trkpt>
      <trkpt lat="47.78071" lon="-3.45943">
        <ele>55.51</ele>
        <time>2020-07-10T10:26:58Z</time>
      </trkpt>
      <trkpt lat="47.78074" lon="-3.45945">
        <ele>55.61</ele>
        <time>2020-07-10T10:26:59Z</time>
      </trkpt>
      <trkpt lat="47.78077" lon="-3.45946">
        <ele>55.72</ele>
        <time>2020-07-10T10:27:00Z</time>
      </trkpt>
      <trkpt lat="47.78081" lon="-3.45948">
        <ele>55.85</ele>
        <time>2020-07-10T10:27:01Z</time>
      </trkpt>
      <trkpt lat="47.78085" lon="-3.45948">
        <ele>55.96</ele>
        <time>2020-07-10T10:27:02Z</time>
      </trkpt>
      <trkpt lat="47.78088" lon="-3.45948">
        <ele>55.99</ele>
        <time>2020-07-10T10:27:03Z</time>
      </trkpt>
      <trkpt lat="47.78092" lon="-3.45948">
        <ele>56</ele>
        <time>2020-07-10T10:27:04Z</time>
      </trkpt>
      <trkpt lat="47.78095" lon="-3.45947">
        <ele>56</ele>
        <time>2020-07-10T10:27:05Z</time>
      </trkpt>
      <trkpt lat="47.78098" lon="-3.45946">
        <ele>56</ele>
        <time>2020-07-10T10:27:06Z</time>
      </trkpt>
      <trkpt lat="47.781" lon="-3.45946">
        <ele>56</ele>
        <time>2020-07-10T10:27:07Z</time>
      </trkpt>
      <trkpt lat="47.78103" lon="-3.45945">
        <ele>56</ele>
        <time>2020-07-10T10:27:08Z</time>
      </trkpt>
      <trkpt lat="47.78108" lon="-3.45946">
        <ele>56</ele>
        <time>2020-07-10T10:27:09Z</time>
      </trkpt>
      <trkpt lat="47.78114" lon="-3.45946">
        <ele>56</ele>
        <time>2020-07-10T10:27:10Z</time>
      </trkpt>
      <trkpt lat="47.78119" lon="-3.45946">
        <ele>55.99</ele>
        <time>2020-07-10T10:27:11Z</time>
      </trkpt>
      <trkpt lat="47.78123" lon="-3.45946">
        <ele>55.98</ele>
        <time>2020-07-10T10:27:12Z</time>
      </trkpt>
      <trkpt lat="47.78127" lon="-3.45944">
        <ele>55.99</ele>
        <time>2020-07-10T10:27:13Z</time>
      </trkpt>
      <trkpt lat="47.7813" lon="-3.45943">
        <ele>56.01</ele>
        <time>2020-07-10T10:27:14Z</time>
      </trkpt>
      <trkpt lat="47.78135" lon="-3.45939">
        <ele>56.02</ele>
        <time>2020-07-10T10:27:15Z</time>
      </trkpt>
      <trkpt lat="47.7814" lon="-3.45935">
        <ele>55.97</ele>
        <time>2020-07-10T10:27:16Z</time>
      </trkpt>
      <trkpt lat="47.78143" lon="-3.4593">
        <ele>55.82</ele>
        <time>2020-07-10T10:27:17Z</time>
      </trkpt>
      <trkpt lat="47.78147" lon="-3.45927">
        <ele>55.67</ele>
        <time>2020-07-10T10:27:18Z</time>
      </trkpt>
      <trkpt lat="47.78151" lon="-3.45923">
        <ele>55.53</ele>
        <time>2020-07-10T10:27:19Z</time>
      </trkpt>
      <trkpt lat="47.78156" lon="-3.45921">
        <ele>55.35</ele>
        <time>2020-07-10T10:27:20Z</time>
      </trkpt>
      <trkpt lat="47.7816" lon="-3.45918">
        <ele>55.25</ele>
        <time>2020-07-10T10:27:21Z</time>
      </trkpt>
      <trkpt lat="47.78164" lon="-3.45913">
        <ele>55.22</ele>
        <time>2020-07-10T10:27:22Z</time>
      </trkpt>
      <trkpt lat="47.78167" lon="-3.4591">
        <ele>55.19</ele>
        <time>2020-07-10T10:27:23Z</time>
      </trkpt>
      <trkpt lat="47.78171" lon="-3.45908">
        <ele>55.06</ele>
        <time>2020-07-10T10:27:24Z</time>
      </trkpt>
      <trkpt lat="47.78175" lon="-3.45906">
        <ele>54.88</ele>
        <time>2020-07-10T10:27:25Z</time>
      </trkpt>
      <trkpt lat="47.78179" lon="-3.45905">
        <ele>54.64</ele>
        <time>2020-07-10T10:27:26Z</time>
      </trkpt>
      <trkpt lat="47.78183" lon="-3.45903">
        <ele>54.4</ele>
        <time>2020-07-10T10:27:27Z</time>
      </trkpt>
      <trkpt lat="47.78187" lon="-3.45901">
        <ele>54.19</ele>
        <time>2020-07-10T10:27:28Z</time>
      </trkpt>
      <trkpt lat="47.7819" lon="-3.459">
        <ele>54.02</ele>
        <time>2020-07-10T10:27:29Z</time>
      </trkpt>
      <trkpt lat="47.78192" lon="-3.45899">
        <ele>53.86</ele>
        <time>2020-07-10T10:27:30Z</time>
      </trkpt>
      <trkpt lat="47.78195" lon="-3.45898">
        <ele>53.71</ele>
        <time>2020-07-10T10:27:31Z</time>
      </trkpt>
      <trkpt lat="47.78201" lon="-3.45897">
        <ele>53.52</ele>
        <time>2020-07-10T10:27:32Z</time>
      </trkpt>
      <trkpt lat="47.78206" lon="-3.45894">
        <ele>53.39</ele>
        <time>2020-07-10T10:27:33Z</time>
      </trkpt>
      <trkpt lat="47.78209" lon="-3.45892">
        <ele>53.34</ele>
        <time>2020-07-10T10:27:34Z</time>
      </trkpt>
      <trkpt lat="47.78213" lon="-3.4589">
        <ele>53.3</ele>
        <time>2020-07-10T10:27:35Z</time>
      </trkpt>
      <trkpt lat="47.78217" lon="-3.45884">
        <ele>53.34</ele>
        <time>2020-07-10T10:27:36Z</time>
      </trkpt>
      <trkpt lat="47.78219" lon="-3.45881">
        <ele>53.38</ele>
        <time>2020-07-10T10:27:37Z</time>
      </trkpt>
      <trkpt lat="47.78222" lon="-3.45878">
        <ele>53.42</ele>
        <time>2020-07-10T10:27:38Z</time>
      </trkpt>
      <trkpt lat="47.78224" lon="-3.45875">
        <ele>53.36</ele>
        <time>2020-07-10T10:27:39Z</time>
      </trkpt>
      <trkpt lat="47.78227" lon="-3.45871">
        <ele>53.25</ele>
        <time>2020-07-10T10:27:40Z</time>
      </trkpt>
      <trkpt lat="47.7823" lon="-3.45869">
        <ele>53.1</ele>
        <time>2020-07-10T10:27:41Z</time>
      </trkpt>
      <trkpt lat="47.78233" lon="-3.45867">
        <ele>52.98</ele>
        <time>2020-07-10T10:27:42Z</time>
      </trkpt>
      <trkpt lat="47.78236" lon="-3.45865">
        <ele>52.87</ele>
        <time>2020-07-10T10:27:43Z</time>
      </trkpt>
      <trkpt lat="47.78238" lon="-3.45862">
        <ele>52.86</ele>
        <time>2020-07-10T10:27:44Z</time>
      </trkpt>
      <trkpt lat="47.78239" lon="-3.45859">
        <ele>52.83</ele>
        <time>2020-07-10T10:27:45Z</time>
      </trkpt>
      <trkpt lat="47.78242" lon="-3.45851">
        <ele>52.64</ele>
        <time>2020-07-10T10:27:46Z</time>
      </trkpt>
      <trkpt lat="47.78243" lon="-3.45847">
        <ele>52.56</ele>
        <time>2020-07-10T10:27:47Z</time>
      </trkpt>
      <trkpt lat="47.78243" lon="-3.45844">
        <ele>52.53</ele>
        <time>2020-07-10T10:27:48Z</time>
      </trkpt>
      <trkpt lat="47.78243" lon="-3.45839">
        <ele>52.52</ele>
        <time>2020-07-10T10:27:49Z</time>
      </trkpt>
      <trkpt lat="47.78244" lon="-3.45835">
        <ele>52.48</ele>
        <time>2020-07-10T10:27:50Z</time>
      </trkpt>
      <trkpt lat="47.78244" lon="-3.45831">
        <ele>52.5</ele>
        <time>2020-07-10T10:27:51Z</time>
      </trkpt>
      <trkpt lat="47.78244" lon="-3.45827">
        <ele>52.58</ele>
        <time>2020-07-10T10:27:52Z</time>
      </trkpt>
      <trkpt lat="47.78245" lon="-3.45821">
        <ele>52.69</ele>
        <time>2020-07-10T10:27:53Z</time>
      </trkpt>
      <trkpt lat="47.78246" lon="-3.45816">
        <ele>52.78</ele>
        <time>2020-07-10T10:27:54Z</time>
      </trkpt>
      <trkpt lat="47.78249" lon="-3.45808">
        <ele>52.9</ele>
        <time>2020-07-10T10:27:55Z</time>
      </trkpt>
      <trkpt lat="47.7825" lon="-3.45803">
        <ele>52.98</ele>
        <time>2020-07-10T10:27:56Z</time>
      </trkpt>
      <trkpt lat="47.78252" lon="-3.45796">
        <ele>52.85</ele>
        <time>2020-07-10T10:27:57Z</time>
      </trkpt>
      <trkpt lat="47.78253" lon="-3.45791">
        <ele>52.73</ele>
        <time>2020-07-10T10:27:58Z</time>
      </trkpt>
      <trkpt lat="47.78254" lon="-3.45787">
        <ele>52.65</ele>
        <time>2020-07-10T10:27:59Z</time>
      </trkpt>
      <trkpt lat="47.78253" lon="-3.45784">
        <ele>52.69</ele>
        <time>2020-07-10T10:28:00Z</time>
      </trkpt>
      <trkpt lat="47.78252" lon="-3.4578">
        <ele>52.78</ele>
        <time>2020-07-10T10:28:01Z</time>
      </trkpt>
      <trkpt lat="47.78251" lon="-3.45774">
        <ele>52.76</ele>
        <time>2020-07-10T10:28:02Z</time>
      </trkpt>
      <trkpt lat="47.78251" lon="-3.45767">
        <ele>52.6</ele>
        <time>2020-07-10T10:28:03Z</time>
      </trkpt>
      <trkpt lat="47.78251" lon="-3.45762">
        <ele>52.43</ele>
        <time>2020-07-10T10:28:04Z</time>
      </trkpt>
      <trkpt lat="47.7825" lon="-3.45758">
        <ele>52.32</ele>
        <time>2020-07-10T10:28:05Z</time>
      </trkpt>
      <trkpt lat="47.78249" lon="-3.45755">
        <ele>52.24</ele>
        <time>2020-07-10T10:28:06Z</time>
      </trkpt>
      <trkpt lat="47.78248" lon="-3.45751">
        <ele>52.16</ele>
        <time>2020-07-10T10:28:07Z</time>
      </trkpt>
      <trkpt lat="47.78246" lon="-3.45749">
        <ele>52.13</ele>
        <time>2020-07-10T10:28:08Z</time>
      </trkpt>
      <trkpt lat="47.78244" lon="-3.45747">
        <ele>52.1</ele>
        <time>2020-07-10T10:28:09Z</time>
      </trkpt>
      <trkpt lat="47.78242" lon="-3.45742">
        <ele>52.03</ele>
        <time>2020-07-10T10:28:10Z</time>
      </trkpt>
      <trkpt lat="47.78241" lon="-3.45738">
        <ele>51.92</ele>
        <time>2020-07-10T10:28:11Z</time>
      </trkpt>
      <trkpt lat="47.7824" lon="-3.45734">
        <ele>51.82</ele>
        <time>2020-07-10T10:28:12Z</time>
      </trkpt>
      <trkpt lat="47.7824" lon="-3.45731">
        <ele>51.72</ele>
        <time>2020-07-10T10:28:13Z</time>
      </trkpt>
      <trkpt lat="47.7824" lon="-3.45726">
        <ele>51.56</ele>
        <time>2020-07-10T10:28:14Z</time>
      </trkpt>
      <trkpt lat="47.78241" lon="-3.45722">
        <ele>51.4</ele>
        <time>2020-07-10T10:28:15Z</time>
      </trkpt>
      <trkpt lat="47.78241" lon="-3.45716">
        <ele>51.24</ele>
        <time>2020-07-10T10:28:16Z</time>
      </trkpt>
      <trkpt lat="47.78241" lon="-3.4571">
        <ele>51.11</ele>
        <time>2020-07-10T10:28:17Z</time>
      </trkpt>
      <trkpt lat="47.7824" lon="-3.45703">
        <ele>50.98</ele>
        <time>2020-07-10T10:28:18Z</time>
      </trkpt>
      <trkpt lat="47.78238" lon="-3.45699">
        <ele>50.94</ele>
        <time>2020-07-10T10:28:19Z</time>
      </trkpt>
      <trkpt lat="47.78236" lon="-3.45695">
        <ele>50.99</ele>
        <time>2020-07-10T10:28:20Z</time>
      </trkpt>
      <trkpt lat="47.78235" lon="-3.45691">
        <ele>51.04</ele>
        <time>2020-07-10T10:28:21Z</time>
      </trkpt>
      <trkpt lat="47.78234" lon="-3.45686">
        <ele>51.04</ele>
        <time>2020-07-10T10:28:22Z</time>
      </trkpt>
      <trkpt lat="47.78232" lon="-3.4568">
        <ele>51.07</ele>
        <time>2020-07-10T10:28:23Z</time>
      </trkpt>
      <trkpt lat="47.78232" lon="-3.45674">
        <ele>51.05</ele>
        <time>2020-07-10T10:28:24Z</time>
      </trkpt>
      <trkpt lat="47.78233" lon="-3.45669">
        <ele>50.95</ele>
        <time>2020-07-10T10:28:25Z</time>
      </trkpt>
      <trkpt lat="47.78233" lon="-3.45664">
        <ele>50.81</ele>
        <time>2020-07-10T10:28:26Z</time>
      </trkpt>
      <trkpt lat="47.78234" lon="-3.4566">
        <ele>50.64</ele>
        <time>2020-07-10T10:28:27Z</time>
      </trkpt>
      <trkpt lat="47.78236" lon="-3.45656">
        <ele>50.43</ele>
        <time>2020-07-10T10:28:28Z</time>
      </trkpt>
      <trkpt lat="47.78238" lon="-3.45651">
        <ele>50.14</ele>
        <time>2020-07-10T10:28:29Z</time>
      </trkpt>
      <trkpt lat="47.78241" lon="-3.45646">
        <ele>49.87</ele>
        <time>2020-07-10T10:28:30Z</time>
      </trkpt>
      <trkpt lat="47.78242" lon="-3.45642">
        <ele>49.7</ele>
        <time>2020-07-10T10:28:31Z</time>
      </trkpt>
      <trkpt lat="47.78241" lon="-3.45637">
        <ele>49.64</ele>
        <time>2020-07-10T10:28:32Z</time>
      </trkpt>
      <trkpt lat="47.78241" lon="-3.4563">
        <ele>49.54</ele>
        <time>2020-07-10T10:28:33Z</time>
      </trkpt>
      <trkpt lat="47.78241" lon="-3.45622">
        <ele>49.47</ele>
        <time>2020-07-10T10:28:34Z</time>
      </trkpt>
      <trkpt lat="47.7824" lon="-3.45616">
        <ele>49.47</ele>
        <time>2020-07-10T10:28:35Z</time>
      </trkpt>
      <trkpt lat="47.78239" lon="-3.45612">
        <ele>49.52</ele>
        <time>2020-07-10T10:28:36Z</time>
      </trkpt>
      <trkpt lat="47.7824" lon="-3.45608">
        <ele>49.46</ele>
        <time>2020-07-10T10:28:37Z</time>
      </trkpt>
      <trkpt lat="47.78241" lon="-3.45603">
        <ele>49.28</ele>
        <time>2020-07-10T10:28:38Z</time>
      </trkpt>
      <trkpt lat="47.78242" lon="-3.45599">
        <ele>49.15</ele>
        <time>2020-07-10T10:28:39Z</time>
      </trkpt>
      <trkpt lat="47.78241" lon="-3.45593">
        <ele>49.12</ele>
        <time>2020-07-10T10:28:40Z</time>
      </trkpt>
      <trkpt lat="47.7824" lon="-3.45588">
        <ele>49.12</ele>
        <time>2020-07-10T10:28:41Z</time>
      </trkpt>
      <trkpt lat="47.78238" lon="-3.45583">
        <ele>49.21</ele>
        <time>2020-07-10T10:28:42Z</time>
      </trkpt>
      <trkpt lat="47.78237" lon="-3.45577">
        <ele>49.34</ele>
        <time>2020-07-10T10:28:43Z</time>
      </trkpt>
      <trkpt lat="47.78235" lon="-3.45571">
        <ele>49.54</ele>
        <time>2020-07-10T10:28:44Z</time>
      </trkpt>
      <trkpt lat="47.78234" lon="-3.45565">
        <ele>49.71</ele>
        <time>2020-07-10T10:28:45Z</time>
      </trkpt>
      <trkpt lat="47.78233" lon="-3.4556">
        <ele>49.82</ele>
        <time>2020-07-10T10:28:46Z</time>
      </trkpt>
      <trkpt lat="47.78232" lon="-3.45555">
        <ele>49.91</ele>
        <time>2020-07-10T10:28:47Z</time>
      </trkpt>
      <trkpt lat="47.78232" lon="-3.45551">
        <ele>49.96</ele>
        <time>2020-07-10T10:28:48Z</time>
      </trkpt>
      <trkpt lat="47.78232" lon="-3.45546">
        <ele>50.09</ele>
        <time>2020-07-10T10:28:49Z</time>
      </trkpt>
      <trkpt lat="47.78232" lon="-3.45541">
        <ele>50.24</ele>
        <time>2020-07-10T10:28:50Z</time>
      </trkpt>
      <trkpt lat="47.78232" lon="-3.45537">
        <ele>50.38</ele>
        <time>2020-07-10T10:28:51Z</time>
      </trkpt>
      <trkpt lat="47.78233" lon="-3.45534">
        <ele>50.36</ele>
        <time>2020-07-10T10:28:52Z</time>
      </trkpt>
      <trkpt lat="47.78235" lon="-3.45531">
        <ele>50.22</ele>
        <time>2020-07-10T10:28:53Z</time>
      </trkpt>
      <trkpt lat="47.78236" lon="-3.45527">
        <ele>50.12</ele>
        <time>2020-07-10T10:28:54Z</time>
      </trkpt>
      <trkpt lat="47.78236" lon="-3.45522">
        <ele>50.08</ele>
        <time>2020-07-10T10:28:55Z</time>
      </trkpt>
      <trkpt lat="47.78237" lon="-3.45516">
        <ele>50.08</ele>
        <time>2020-07-10T10:28:56Z</time>
      </trkpt>
      <trkpt lat="47.78238" lon="-3.45511">
        <ele>50.08</ele>
        <time>2020-07-10T10:28:57Z</time>
      </trkpt>
      <trkpt lat="47.78237" lon="-3.45507">
        <ele>50.19</ele>
        <time>2020-07-10T10:28:58Z</time>
      </trkpt>
      <trkpt lat="47.78238" lon="-3.45503">
        <ele>50.19</ele>
        <time>2020-07-10T10:28:59Z</time>
      </trkpt>
      <trkpt lat="47.7824" lon="-3.45499">
        <ele>50.17</ele>
        <time>2020-07-10T10:29:00Z</time>
      </trkpt>
      <trkpt lat="47.78241" lon="-3.45495">
        <ele>50.22</ele>
        <time>2020-07-10T10:29:01Z</time>
      </trkpt>
      <trkpt lat="47.78242" lon="-3.4549">
        <ele>50.4</ele>
        <time>2020-07-10T10:29:02Z</time>
      </trkpt>
      <trkpt lat="47.78242" lon="-3.45486">
        <ele>50.63</ele>
        <time>2020-07-10T10:29:03Z</time>
      </trkpt>
      <trkpt lat="47.78242" lon="-3.45484">
        <ele>50.79</ele>
        <time>2020-07-10T10:29:04Z</time>
      </trkpt>
      <trkpt lat="47.78242" lon="-3.45481">
        <ele>50.95</ele>
        <time>2020-07-10T10:29:05Z</time>
      </trkpt>
      <trkpt lat="47.78243" lon="-3.45476">
        <ele>51.17</ele>
        <time>2020-07-10T10:29:06Z</time>
      </trkpt>
      <trkpt lat="47.78244" lon="-3.45471">
        <ele>51.41</ele>
        <time>2020-07-10T10:29:07Z</time>
      </trkpt>
      <trkpt lat="47.78245" lon="-3.45466">
        <ele>51.59</ele>
        <time>2020-07-10T10:29:08Z</time>
      </trkpt>
      <trkpt lat="47.78245" lon="-3.45462">
        <ele>51.71</ele>
        <time>2020-07-10T10:29:09Z</time>
      </trkpt>
      <trkpt lat="47.78246" lon="-3.45458">
        <ele>51.81</ele>
        <time>2020-07-10T10:29:10Z</time>
      </trkpt>
      <trkpt lat="47.78248" lon="-3.45454">
        <ele>51.85</ele>
        <time>2020-07-10T10:29:11Z</time>
      </trkpt>
      <trkpt lat="47.78249" lon="-3.4545">
        <ele>51.9</ele>
        <time>2020-07-10T10:29:12Z</time>
      </trkpt>
      <trkpt lat="47.7825" lon="-3.45446">
        <ele>51.93</ele>
        <time>2020-07-10T10:29:13Z</time>
      </trkpt>
      <trkpt lat="47.78251" lon="-3.45442">
        <ele>51.98</ele>
        <time>2020-07-10T10:29:14Z</time>
      </trkpt>
      <trkpt lat="47.78251" lon="-3.45438">
        <ele>51.99</ele>
        <time>2020-07-10T10:29:15Z</time>
      </trkpt>
      <trkpt lat="47.7825" lon="-3.45433">
        <ele>52.01</ele>
        <time>2020-07-10T10:29:16Z</time>
      </trkpt>
      <trkpt lat="47.78249" lon="-3.45428">
        <ele>52.05</ele>
        <time>2020-07-10T10:29:17Z</time>
      </trkpt>
      <trkpt lat="47.78249" lon="-3.45423">
        <ele>52.11</ele>
        <time>2020-07-10T10:29:18Z</time>
      </trkpt>
      <trkpt lat="47.78248" lon="-3.45417">
        <ele>52.2</ele>
        <time>2020-07-10T10:29:19Z</time>
      </trkpt>
      <trkpt lat="47.78248" lon="-3.45411">
        <ele>52.37</ele>
        <time>2020-07-10T10:29:20Z</time>
      </trkpt>
      <trkpt lat="47.78249" lon="-3.45407">
        <ele>52.48</ele>
        <time>2020-07-10T10:29:21Z</time>
      </trkpt>
      <trkpt lat="47.78249" lon="-3.45402">
        <ele>52.55</ele>
        <time>2020-07-10T10:29:22Z</time>
      </trkpt>
      <trkpt lat="47.7825" lon="-3.45398">
        <ele>52.64</ele>
        <time>2020-07-10T10:29:23Z</time>
      </trkpt>
      <trkpt lat="47.7825" lon="-3.45394">
        <ele>52.76</ele>
        <time>2020-07-10T10:29:24Z</time>
      </trkpt>
      <trkpt lat="47.7825" lon="-3.4539">
        <ele>52.9</ele>
        <time>2020-07-10T10:29:25Z</time>
      </trkpt>
      <trkpt lat="47.7825" lon="-3.45386">
        <ele>53</ele>
        <time>2020-07-10T10:29:26Z</time>
      </trkpt>
      <trkpt lat="47.78249" lon="-3.45382">
        <ele>53.07</ele>
        <time>2020-07-10T10:29:27Z</time>
      </trkpt>
      <trkpt lat="47.78249" lon="-3.45379">
        <ele>53.09</ele>
        <time>2020-07-10T10:29:28Z</time>
      </trkpt>
      <trkpt lat="47.78249" lon="-3.45377">
        <ele>53.11</ele>
        <time>2020-07-10T10:29:29Z</time>
      </trkpt>
      <trkpt lat="47.78248" lon="-3.45374">
        <ele>53.15</ele>
        <time>2020-07-10T10:29:30Z</time>
      </trkpt>
      <trkpt lat="47.78247" lon="-3.45372">
        <ele>53.26</ele>
        <time>2020-07-10T10:29:31Z</time>
      </trkpt>
      <trkpt lat="47.78245" lon="-3.45371">
        <ele>53.42</ele>
        <time>2020-07-10T10:29:32Z</time>
      </trkpt>
      <trkpt lat="47.78244" lon="-3.45369">
        <ele>53.59</ele>
        <time>2020-07-10T10:29:33Z</time>
      </trkpt>
      <trkpt lat="47.78241" lon="-3.45367">
        <ele>53.85</ele>
        <time>2020-07-10T10:29:34Z</time>
      </trkpt>
      <trkpt lat="47.78239" lon="-3.45366">
        <ele>54.06</ele>
        <time>2020-07-10T10:29:35Z</time>
      </trkpt>
      <trkpt lat="47.78236" lon="-3.45364">
        <ele>54.34</ele>
        <time>2020-07-10T10:29:36Z</time>
      </trkpt>
      <trkpt lat="47.78234" lon="-3.45362">
        <ele>54.6</ele>
        <time>2020-07-10T10:29:37Z</time>
      </trkpt>
      <trkpt lat="47.78232" lon="-3.45361">
        <ele>54.82</ele>
        <time>2020-07-10T10:29:38Z</time>
      </trkpt>
      <trkpt lat="47.78228" lon="-3.45358">
        <ele>55.16</ele>
        <time>2020-07-10T10:29:39Z</time>
      </trkpt>
      <trkpt lat="47.78224" lon="-3.45355">
        <ele>55.46</ele>
        <time>2020-07-10T10:29:40Z</time>
      </trkpt>
      <trkpt lat="47.78222" lon="-3.45354">
        <ele>55.67</ele>
        <time>2020-07-10T10:29:41Z</time>
      </trkpt>
      <trkpt lat="47.78219" lon="-3.45354">
        <ele>55.81</ele>
        <time>2020-07-10T10:29:42Z</time>
      </trkpt>
      <trkpt lat="47.78216" lon="-3.45352">
        <ele>55.87</ele>
        <time>2020-07-10T10:29:43Z</time>
      </trkpt>
      <trkpt lat="47.78214" lon="-3.45351">
        <ele>55.9</ele>
        <time>2020-07-10T10:29:44Z</time>
      </trkpt>
      <trkpt lat="47.78212" lon="-3.45349">
        <ele>55.91</ele>
        <time>2020-07-10T10:29:45Z</time>
      </trkpt>
      <trkpt lat="47.78212" lon="-3.45347">
        <ele>55.88</ele>
        <time>2020-07-10T10:29:46Z</time>
      </trkpt>
      <trkpt lat="47.78211" lon="-3.45347">
        <ele>55.89</ele>
        <time>2020-07-10T10:29:47Z</time>
      </trkpt>
      <trkpt lat="47.78208" lon="-3.45344">
        <ele>55.89</ele>
        <time>2020-07-10T10:29:48Z</time>
      </trkpt>
      <trkpt lat="47.78206" lon="-3.45341">
        <ele>55.86</ele>
        <time>2020-07-10T10:29:49Z</time>
      </trkpt>
      <trkpt lat="47.78202" lon="-3.4534">
        <ele>55.95</ele>
        <time>2020-07-10T10:29:50Z</time>
      </trkpt>
      <trkpt lat="47.78199" lon="-3.45339">
        <ele>56.03</ele>
        <time>2020-07-10T10:29:51Z</time>
      </trkpt>
      <trkpt lat="47.78195" lon="-3.45339">
        <ele>56.12</ele>
        <time>2020-07-10T10:29:52Z</time>
      </trkpt>
      <trkpt lat="47.78192" lon="-3.45338">
        <ele>56.2</ele>
        <time>2020-07-10T10:29:53Z</time>
      </trkpt>
      <trkpt lat="47.7819" lon="-3.45337">
        <ele>56.25</ele>
        <time>2020-07-10T10:29:54Z</time>
      </trkpt>
      <trkpt lat="47.78187" lon="-3.45336">
        <ele>56.33</ele>
        <time>2020-07-10T10:29:55Z</time>
      </trkpt>
      <trkpt lat="47.78184" lon="-3.45335">
        <ele>56.41</ele>
        <time>2020-07-10T10:29:56Z</time>
      </trkpt>
      <trkpt lat="47.7818" lon="-3.45334">
        <ele>56.5</ele>
        <time>2020-07-10T10:29:57Z</time>
      </trkpt>
      <trkpt lat="47.78177" lon="-3.45334">
        <ele>56.59</ele>
        <time>2020-07-10T10:29:58Z</time>
      </trkpt>
      <trkpt lat="47.78174" lon="-3.45333">
        <ele>56.7</ele>
        <time>2020-07-10T10:29:59Z</time>
      </trkpt>
      <trkpt lat="47.78171" lon="-3.45332">
        <ele>56.8</ele>
        <time>2020-07-10T10:30:00Z</time>
      </trkpt>
      <trkpt lat="47.78168" lon="-3.45331">
        <ele>56.92</ele>
        <time>2020-07-10T10:30:01Z</time>
      </trkpt>
      <trkpt lat="47.78164" lon="-3.45329">
        <ele>57.05</ele>
        <time>2020-07-10T10:30:02Z</time>
      </trkpt>
      <trkpt lat="47.78161" lon="-3.45326">
        <ele>57.16</ele>
        <time>2020-07-10T10:30:03Z</time>
      </trkpt>
      <trkpt lat="47.78158" lon="-3.45323">
        <ele>57.28</ele>
        <time>2020-07-10T10:30:04Z</time>
      </trkpt>
      <trkpt lat="47.78154" lon="-3.4532">
        <ele>57.39</ele>
        <time>2020-07-10T10:30:05Z</time>
      </trkpt>
      <trkpt lat="47.78152" lon="-3.45317">
        <ele>57.5</ele>
        <time>2020-07-10T10:30:06Z</time>
      </trkpt>
      <trkpt lat="47.78149" lon="-3.45316">
        <ele>57.59</ele>
        <time>2020-07-10T10:30:07Z</time>
      </trkpt>
      <trkpt lat="47.78146" lon="-3.45313">
        <ele>57.69</ele>
        <time>2020-07-10T10:30:08Z</time>
      </trkpt>
      <trkpt lat="47.78144" lon="-3.45311">
        <ele>57.77</ele>
        <time>2020-07-10T10:30:09Z</time>
      </trkpt>
      <trkpt lat="47.78142" lon="-3.4531">
        <ele>57.86</ele>
        <time>2020-07-10T10:30:10Z</time>
      </trkpt>
      <trkpt lat="47.78138" lon="-3.45309">
        <ele>57.96</ele>
        <time>2020-07-10T10:30:11Z</time>
      </trkpt>
      <trkpt lat="47.78134" lon="-3.45308">
        <ele>57.99</ele>
        <time>2020-07-10T10:30:12Z</time>
      </trkpt>
      <trkpt lat="47.7813" lon="-3.45306">
        <ele>58</ele>
        <time>2020-07-10T10:30:13Z</time>
      </trkpt>
      <trkpt lat="47.78126" lon="-3.45303">
        <ele>57.97</ele>
        <time>2020-07-10T10:30:14Z</time>
      </trkpt>
      <trkpt lat="47.78123" lon="-3.453">
        <ele>57.93</ele>
        <time>2020-07-10T10:30:15Z</time>
      </trkpt>
      <trkpt lat="47.7812" lon="-3.45299">
        <ele>57.92</ele>
        <time>2020-07-10T10:30:16Z</time>
      </trkpt>
      <trkpt lat="47.78117" lon="-3.45296">
        <ele>57.92</ele>
        <time>2020-07-10T10:30:17Z</time>
      </trkpt>
      <trkpt lat="47.78114" lon="-3.45293">
        <ele>57.94</ele>
        <time>2020-07-10T10:30:18Z</time>
      </trkpt>
      <trkpt lat="47.78111" lon="-3.4529">
        <ele>57.99</ele>
        <time>2020-07-10T10:30:19Z</time>
      </trkpt>
      <trkpt lat="47.78107" lon="-3.45289">
        <ele>58.16</ele>
        <time>2020-07-10T10:30:20Z</time>
      </trkpt>
      <trkpt lat="47.78103" lon="-3.45286">
        <ele>58.38</ele>
        <time>2020-07-10T10:30:21Z</time>
      </trkpt>
      <trkpt lat="47.781" lon="-3.45283">
        <ele>58.63</ele>
        <time>2020-07-10T10:30:22Z</time>
      </trkpt>
      <trkpt lat="47.78096" lon="-3.4528">
        <ele>58.92</ele>
        <time>2020-07-10T10:30:23Z</time>
      </trkpt>
      <trkpt lat="47.78093" lon="-3.45276">
        <ele>59.18</ele>
        <time>2020-07-10T10:30:24Z</time>
      </trkpt>
      <trkpt lat="47.78089" lon="-3.45273">
        <ele>59.37</ele>
        <time>2020-07-10T10:30:25Z</time>
      </trkpt>
      <trkpt lat="47.78085" lon="-3.4527">
        <ele>59.54</ele>
        <time>2020-07-10T10:30:26Z</time>
      </trkpt>
      <trkpt lat="47.78082" lon="-3.45268">
        <ele>59.62</ele>
        <time>2020-07-10T10:30:27Z</time>
      </trkpt>
      <trkpt lat="47.78079" lon="-3.45266">
        <ele>59.63</ele>
        <time>2020-07-10T10:30:28Z</time>
      </trkpt>
      <trkpt lat="47.78075" lon="-3.45261">
        <ele>59.59</ele>
        <time>2020-07-10T10:30:29Z</time>
      </trkpt>
      <trkpt lat="47.78072" lon="-3.45258">
        <ele>59.58</ele>
        <time>2020-07-10T10:30:30Z</time>
      </trkpt>
      <trkpt lat="47.78069" lon="-3.45254">
        <ele>59.58</ele>
        <time>2020-07-10T10:30:31Z</time>
      </trkpt>
      <trkpt lat="47.78065" lon="-3.45249">
        <ele>59.62</ele>
        <time>2020-07-10T10:30:32Z</time>
      </trkpt>
      <trkpt lat="47.78063" lon="-3.45244">
        <ele>59.7</ele>
        <time>2020-07-10T10:30:33Z</time>
      </trkpt>
      <trkpt lat="47.78061" lon="-3.4524">
        <ele>59.78</ele>
        <time>2020-07-10T10:30:34Z</time>
      </trkpt>
      <trkpt lat="47.78058" lon="-3.45236">
        <ele>59.86</ele>
        <time>2020-07-10T10:30:35Z</time>
      </trkpt>
      <trkpt lat="47.78057" lon="-3.45232">
        <ele>59.93</ele>
        <time>2020-07-10T10:30:36Z</time>
      </trkpt>
      <trkpt lat="47.78054" lon="-3.45227">
        <ele>59.98</ele>
        <time>2020-07-10T10:30:37Z</time>
      </trkpt>
      <trkpt lat="47.78052" lon="-3.45223">
        <ele>59.99</ele>
        <time>2020-07-10T10:30:38Z</time>
      </trkpt>
      <trkpt lat="47.78052" lon="-3.45219">
        <ele>60</ele>
        <time>2020-07-10T10:30:39Z</time>
      </trkpt>
      <trkpt lat="47.78052" lon="-3.45215">
        <ele>60</ele>
        <time>2020-07-10T10:30:40Z</time>
      </trkpt>
      <trkpt lat="47.78053" lon="-3.45211">
        <ele>60</ele>
        <time>2020-07-10T10:30:41Z</time>
      </trkpt>
      <trkpt lat="47.78055" lon="-3.45207">
        <ele>60</ele>
        <time>2020-07-10T10:30:42Z</time>
      </trkpt>
      <trkpt lat="47.78058" lon="-3.45204">
        <ele>59.95</ele>
        <time>2020-07-10T10:30:43Z</time>
      </trkpt>
      <trkpt lat="47.7806" lon="-3.452">
        <ele>59.88</ele>
        <time>2020-07-10T10:30:44Z</time>
      </trkpt>
      <trkpt lat="47.78061" lon="-3.45195">
        <ele>59.81</ele>
        <time>2020-07-10T10:30:45Z</time>
      </trkpt>
      <trkpt lat="47.78064" lon="-3.4519">
        <ele>59.69</ele>
        <time>2020-07-10T10:30:46Z</time>
      </trkpt>
      <trkpt lat="47.78067" lon="-3.45185">
        <ele>59.52</ele>
        <time>2020-07-10T10:30:47Z</time>
      </trkpt>
      <trkpt lat="47.78069" lon="-3.45181">
        <ele>59.34</ele>
        <time>2020-07-10T10:30:48Z</time>
      </trkpt>
      <trkpt lat="47.78071" lon="-3.45176">
        <ele>59.15</ele>
        <time>2020-07-10T10:30:49Z</time>
      </trkpt>
      <trkpt lat="47.78072" lon="-3.45171">
        <ele>58.96</ele>
        <time>2020-07-10T10:30:50Z</time>
      </trkpt>
      <trkpt lat="47.78074" lon="-3.45166">
        <ele>58.78</ele>
        <time>2020-07-10T10:30:51Z</time>
      </trkpt>
      <trkpt lat="47.78074" lon="-3.45161">
        <ele>58.7</ele>
        <time>2020-07-10T10:30:52Z</time>
      </trkpt>
      <trkpt lat="47.78075" lon="-3.45156">
        <ele>58.65</ele>
        <time>2020-07-10T10:30:53Z</time>
      </trkpt>
      <trkpt lat="47.78075" lon="-3.45151">
        <ele>58.59</ele>
        <time>2020-07-10T10:30:54Z</time>
      </trkpt>
      <trkpt lat="47.78077" lon="-3.45144">
        <ele>58.5</ele>
        <time>2020-07-10T10:30:55Z</time>
      </trkpt>
      <trkpt lat="47.78078" lon="-3.45138">
        <ele>58.45</ele>
        <time>2020-07-10T10:30:56Z</time>
      </trkpt>
      <trkpt lat="47.78078" lon="-3.45133">
        <ele>58.52</ele>
        <time>2020-07-10T10:30:57Z</time>
      </trkpt>
      <trkpt lat="47.7808" lon="-3.45126">
        <ele>58.6</ele>
        <time>2020-07-10T10:30:58Z</time>
      </trkpt>
      <trkpt lat="47.78081" lon="-3.4512">
        <ele>58.72</ele>
        <time>2020-07-10T10:30:59Z</time>
      </trkpt>
      <trkpt lat="47.78084" lon="-3.45113">
        <ele>58.84</ele>
        <time>2020-07-10T10:31:00Z</time>
      </trkpt>
      <trkpt lat="47.78087" lon="-3.45108">
        <ele>58.86</ele>
        <time>2020-07-10T10:31:01Z</time>
      </trkpt>
      <trkpt lat="47.78092" lon="-3.45104">
        <ele>58.8</ele>
        <time>2020-07-10T10:31:02Z</time>
      </trkpt>
      <trkpt lat="47.78097" lon="-3.45102">
        <ele>58.72</ele>
        <time>2020-07-10T10:31:03Z</time>
      </trkpt>
      <trkpt lat="47.78101" lon="-3.45099">
        <ele>58.67</ele>
        <time>2020-07-10T10:31:04Z</time>
      </trkpt>
      <trkpt lat="47.78106" lon="-3.45096">
        <ele>58.64</ele>
        <time>2020-07-10T10:31:05Z</time>
      </trkpt>
      <trkpt lat="47.78111" lon="-3.45095">
        <ele>58.6</ele>
        <time>2020-07-10T10:31:06Z</time>
      </trkpt>
      <trkpt lat="47.78115" lon="-3.45094">
        <ele>58.61</ele>
        <time>2020-07-10T10:31:07Z</time>
      </trkpt>
      <trkpt lat="47.7812" lon="-3.45093">
        <ele>58.64</ele>
        <time>2020-07-10T10:31:08Z</time>
      </trkpt>
      <trkpt lat="47.78124" lon="-3.45092">
        <ele>58.67</ele>
        <time>2020-07-10T10:31:09Z</time>
      </trkpt>
      <trkpt lat="47.78128" lon="-3.45091">
        <ele>58.71</ele>
        <time>2020-07-10T10:31:10Z</time>
      </trkpt>
      <trkpt lat="47.78133" lon="-3.4509">
        <ele>58.74</ele>
        <time>2020-07-10T10:31:11Z</time>
      </trkpt>
      <trkpt lat="47.78137" lon="-3.45089">
        <ele>58.77</ele>
        <time>2020-07-10T10:31:12Z</time>
      </trkpt>
      <trkpt lat="47.7814" lon="-3.45089">
        <ele>58.76</ele>
        <time>2020-07-10T10:31:13Z</time>
      </trkpt>
      <trkpt lat="47.78145" lon="-3.45087">
        <ele>58.7</ele>
        <time>2020-07-10T10:31:14Z</time>
      </trkpt>
      <trkpt lat="47.78149" lon="-3.45086">
        <ele>58.61</ele>
        <time>2020-07-10T10:31:15Z</time>
      </trkpt>
      <trkpt lat="47.78154" lon="-3.45084">
        <ele>58.5</ele>
        <time>2020-07-10T10:31:16Z</time>
      </trkpt>
      <trkpt lat="47.78158" lon="-3.45083">
        <ele>58.37</ele>
        <time>2020-07-10T10:31:17Z</time>
      </trkpt>
      <trkpt lat="47.78163" lon="-3.45082">
        <ele>58.25</ele>
        <time>2020-07-10T10:31:18Z</time>
      </trkpt>
      <trkpt lat="47.78168" lon="-3.45081">
        <ele>58.16</ele>
        <time>2020-07-10T10:31:19Z</time>
      </trkpt>
      <trkpt lat="47.78172" lon="-3.45079">
        <ele>58.29</ele>
        <time>2020-07-10T10:31:20Z</time>
      </trkpt>
      <trkpt lat="47.78177" lon="-3.45078">
        <ele>58.48</ele>
        <time>2020-07-10T10:31:21Z</time>
      </trkpt>
      <trkpt lat="47.78182" lon="-3.45077">
        <ele>58.69</ele>
        <time>2020-07-10T10:31:22Z</time>
      </trkpt>
      <trkpt lat="47.78186" lon="-3.45076">
        <ele>58.89</ele>
        <time>2020-07-10T10:31:23Z</time>
      </trkpt>
      <trkpt lat="47.78191" lon="-3.45075">
        <ele>59.1</ele>
        <time>2020-07-10T10:31:24Z</time>
      </trkpt>
      <trkpt lat="47.78196" lon="-3.45074">
        <ele>59.27</ele>
        <time>2020-07-10T10:31:25Z</time>
      </trkpt>
      <trkpt lat="47.78201" lon="-3.45072">
        <ele>59.36</ele>
        <time>2020-07-10T10:31:26Z</time>
      </trkpt>
      <trkpt lat="47.78206" lon="-3.4507">
        <ele>59.43</ele>
        <time>2020-07-10T10:31:27Z</time>
      </trkpt>
      <trkpt lat="47.78211" lon="-3.4507">
        <ele>59.45</ele>
        <time>2020-07-10T10:31:28Z</time>
      </trkpt>
      <trkpt lat="47.78216" lon="-3.45071">
        <ele>59.46</ele>
        <time>2020-07-10T10:31:29Z</time>
      </trkpt>
      <trkpt lat="47.78221" lon="-3.4507">
        <ele>59.46</ele>
        <time>2020-07-10T10:31:30Z</time>
      </trkpt>
      <trkpt lat="47.78226" lon="-3.4507">
        <ele>59.46</ele>
        <time>2020-07-10T10:31:31Z</time>
      </trkpt>
      <trkpt lat="47.7823" lon="-3.4507">
        <ele>59.47</ele>
        <time>2020-07-10T10:31:32Z</time>
      </trkpt>
      <trkpt lat="47.78236" lon="-3.4507">
        <ele>59.49</ele>
        <time>2020-07-10T10:31:33Z</time>
      </trkpt>
      <trkpt lat="47.7824" lon="-3.4507">
        <ele>59.49</ele>
        <time>2020-07-10T10:31:34Z</time>
      </trkpt>
      <trkpt lat="47.78245" lon="-3.45069">
        <ele>59.5</ele>
        <time>2020-07-10T10:31:35Z</time>
      </trkpt>
      <trkpt lat="47.78249" lon="-3.45069">
        <ele>59.52</ele>
        <time>2020-07-10T10:31:36Z</time>
      </trkpt>
      <trkpt lat="47.78254" lon="-3.45067">
        <ele>59.56</ele>
        <time>2020-07-10T10:31:37Z</time>
      </trkpt>
      <trkpt lat="47.78259" lon="-3.45067">
        <ele>59.59</ele>
        <time>2020-07-10T10:31:38Z</time>
      </trkpt>
      <trkpt lat="47.78264" lon="-3.45066">
        <ele>59.61</ele>
        <time>2020-07-10T10:31:39Z</time>
      </trkpt>
      <trkpt lat="47.78269" lon="-3.45066">
        <ele>59.62</ele>
        <time>2020-07-10T10:31:40Z</time>
      </trkpt>
      <trkpt lat="47.78274" lon="-3.45066">
        <ele>59.63</ele>
        <time>2020-07-10T10:31:41Z</time>
      </trkpt>
      <trkpt lat="47.78279" lon="-3.45065">
        <ele>59.68</ele>
        <time>2020-07-10T10:31:42Z</time>
      </trkpt>
      <trkpt lat="47.78285" lon="-3.45065">
        <ele>59.84</ele>
        <time>2020-07-10T10:31:43Z</time>
      </trkpt>
      <trkpt lat="47.7829" lon="-3.45064">
        <ele>60.04</ele>
        <time>2020-07-10T10:31:44Z</time>
      </trkpt>
      <trkpt lat="47.78296" lon="-3.45065">
        <ele>60.23</ele>
        <time>2020-07-10T10:31:45Z</time>
      </trkpt>
      <trkpt lat="47.78301" lon="-3.45064">
        <ele>60.43</ele>
        <time>2020-07-10T10:31:46Z</time>
      </trkpt>
      <trkpt lat="47.78306" lon="-3.45063">
        <ele>60.63</ele>
        <time>2020-07-10T10:31:47Z</time>
      </trkpt>
      <trkpt lat="47.78311" lon="-3.45062">
        <ele>60.73</ele>
        <time>2020-07-10T10:31:48Z</time>
      </trkpt>
      <trkpt lat="47.78316" lon="-3.4506">
        <ele>60.8</ele>
        <time>2020-07-10T10:31:49Z</time>
      </trkpt>
      <trkpt lat="47.78321" lon="-3.45059">
        <ele>60.86</ele>
        <time>2020-07-10T10:31:50Z</time>
      </trkpt>
      <trkpt lat="47.78326" lon="-3.45057">
        <ele>60.91</ele>
        <time>2020-07-10T10:31:51Z</time>
      </trkpt>
      <trkpt lat="47.78331" lon="-3.45055">
        <ele>60.97</ele>
        <time>2020-07-10T10:31:52Z</time>
      </trkpt>
      <trkpt lat="47.78336" lon="-3.45051">
        <ele>60.94</ele>
        <time>2020-07-10T10:31:53Z</time>
      </trkpt>
      <trkpt lat="47.78341" lon="-3.45048">
        <ele>60.85</ele>
        <time>2020-07-10T10:31:54Z</time>
      </trkpt>
      <trkpt lat="47.78345" lon="-3.45044">
        <ele>60.78</ele>
        <time>2020-07-10T10:31:55Z</time>
      </trkpt>
      <trkpt lat="47.78349" lon="-3.45041">
        <ele>60.75</ele>
        <time>2020-07-10T10:31:56Z</time>
      </trkpt>
      <trkpt lat="47.78353" lon="-3.45037">
        <ele>60.76</ele>
        <time>2020-07-10T10:31:57Z</time>
      </trkpt>
      <trkpt lat="47.78356" lon="-3.45035">
        <ele>60.78</ele>
        <time>2020-07-10T10:31:58Z</time>
      </trkpt>
      <trkpt lat="47.78361" lon="-3.45032">
        <ele>60.83</ele>
        <time>2020-07-10T10:31:59Z</time>
      </trkpt>
      <trkpt lat="47.78365" lon="-3.45029">
        <ele>60.92</ele>
        <time>2020-07-10T10:32:00Z</time>
      </trkpt>
      <trkpt lat="47.78369" lon="-3.45027">
        <ele>61.01</ele>
        <time>2020-07-10T10:32:01Z</time>
      </trkpt>
      <trkpt lat="47.78373" lon="-3.45022">
        <ele>61.15</ele>
        <time>2020-07-10T10:32:02Z</time>
      </trkpt>
      <trkpt lat="47.78376" lon="-3.45018">
        <ele>61.29</ele>
        <time>2020-07-10T10:32:03Z</time>
      </trkpt>
      <trkpt lat="47.7838" lon="-3.45013">
        <ele>61.46</ele>
        <time>2020-07-10T10:32:04Z</time>
      </trkpt>
      <trkpt lat="47.78384" lon="-3.45009">
        <ele>61.61</ele>
        <time>2020-07-10T10:32:05Z</time>
      </trkpt>
      <trkpt lat="47.78387" lon="-3.45004">
        <ele>61.77</ele>
        <time>2020-07-10T10:32:06Z</time>
      </trkpt>
      <trkpt lat="47.7839" lon="-3.45">
        <ele>61.93</ele>
        <time>2020-07-10T10:32:07Z</time>
      </trkpt>
      <trkpt lat="47.78394" lon="-3.44996">
        <ele>62</ele>
        <time>2020-07-10T10:32:08Z</time>
      </trkpt>
      <trkpt lat="47.78399" lon="-3.44991">
        <ele>62.08</ele>
        <time>2020-07-10T10:32:09Z</time>
      </trkpt>
      <trkpt lat="47.78402" lon="-3.44987">
        <ele>62.18</ele>
        <time>2020-07-10T10:32:10Z</time>
      </trkpt>
      <trkpt lat="47.78406" lon="-3.44983">
        <ele>62.31</ele>
        <time>2020-07-10T10:32:11Z</time>
      </trkpt>
      <trkpt lat="47.78409" lon="-3.4498">
        <ele>62.46</ele>
        <time>2020-07-10T10:32:12Z</time>
      </trkpt>
      <trkpt lat="47.78412" lon="-3.44976">
        <ele>62.65</ele>
        <time>2020-07-10T10:32:13Z</time>
      </trkpt>
      <trkpt lat="47.78416" lon="-3.44973">
        <ele>62.87</ele>
        <time>2020-07-10T10:32:14Z</time>
      </trkpt>
      <trkpt lat="47.7842" lon="-3.4497">
        <ele>62.96</ele>
        <time>2020-07-10T10:32:15Z</time>
      </trkpt>
      <trkpt lat="47.78423" lon="-3.44966">
        <ele>62.99</ele>
        <time>2020-07-10T10:32:16Z</time>
      </trkpt>
      <trkpt lat="47.78427" lon="-3.44962">
        <ele>63</ele>
        <time>2020-07-10T10:32:17Z</time>
      </trkpt>
      <trkpt lat="47.78429" lon="-3.44959">
        <ele>63</ele>
        <time>2020-07-10T10:32:18Z</time>
      </trkpt>
      <trkpt lat="47.78432" lon="-3.44955">
        <ele>63</ele>
        <time>2020-07-10T10:32:19Z</time>
      </trkpt>
      <trkpt lat="47.78435" lon="-3.44951">
        <ele>63</ele>
        <time>2020-07-10T10:32:20Z</time>
      </trkpt>
      <trkpt lat="47.78437" lon="-3.44947">
        <ele>63</ele>
        <time>2020-07-10T10:32:21Z</time>
      </trkpt>
      <trkpt lat="47.78438" lon="-3.44942">
        <ele>62.93</ele>
        <time>2020-07-10T10:32:22Z</time>
      </trkpt>
      <trkpt lat="47.78439" lon="-3.44936">
        <ele>62.77</ele>
        <time>2020-07-10T10:32:23Z</time>
      </trkpt>
      <trkpt lat="47.7844" lon="-3.44931">
        <ele>62.6</ele>
        <time>2020-07-10T10:32:24Z</time>
      </trkpt>
      <trkpt lat="47.78439" lon="-3.44925">
        <ele>62.39</ele>
        <time>2020-07-10T10:32:25Z</time>
      </trkpt>
      <trkpt lat="47.78439" lon="-3.44918">
        <ele>62.15</ele>
        <time>2020-07-10T10:32:26Z</time>
      </trkpt>
      <trkpt lat="47.7844" lon="-3.44911">
        <ele>62.05</ele>
        <time>2020-07-10T10:32:27Z</time>
      </trkpt>
      <trkpt lat="47.78442" lon="-3.44903">
        <ele>62.01</ele>
        <time>2020-07-10T10:32:28Z</time>
      </trkpt>
      <trkpt lat="47.78444" lon="-3.44895">
        <ele>62</ele>
        <time>2020-07-10T10:32:29Z</time>
      </trkpt>
      <trkpt lat="47.78447" lon="-3.44887">
        <ele>61.96</ele>
        <time>2020-07-10T10:32:30Z</time>
      </trkpt>
      <trkpt lat="47.78451" lon="-3.44881">
        <ele>61.78</ele>
        <time>2020-07-10T10:32:31Z</time>
      </trkpt>
      <trkpt lat="47.78454" lon="-3.44875">
        <ele>61.59</ele>
        <time>2020-07-10T10:32:32Z</time>
      </trkpt>
      <trkpt lat="47.78458" lon="-3.44871">
        <ele>61.42</ele>
        <time>2020-07-10T10:32:33Z</time>
      </trkpt>
      <trkpt lat="47.78462" lon="-3.44867">
        <ele>61.27</ele>
        <time>2020-07-10T10:32:34Z</time>
      </trkpt>
      <trkpt lat="47.78465" lon="-3.44863">
        <ele>61.14</ele>
        <time>2020-07-10T10:32:35Z</time>
      </trkpt>
      <trkpt lat="47.78469" lon="-3.44859">
        <ele>61.04</ele>
        <time>2020-07-10T10:32:36Z</time>
      </trkpt>
      <trkpt lat="47.78473" lon="-3.44855">
        <ele>61.03</ele>
        <time>2020-07-10T10:32:37Z</time>
      </trkpt>
      <trkpt lat="47.78477" lon="-3.4485">
        <ele>61.13</ele>
        <time>2020-07-10T10:32:38Z</time>
      </trkpt>
      <trkpt lat="47.78481" lon="-3.44845">
        <ele>61.27</ele>
        <time>2020-07-10T10:32:39Z</time>
      </trkpt>
      <trkpt lat="47.78486" lon="-3.4484">
        <ele>61.43</ele>
        <time>2020-07-10T10:32:40Z</time>
      </trkpt>
      <trkpt lat="47.78491" lon="-3.44835">
        <ele>61.6</ele>
        <time>2020-07-10T10:32:41Z</time>
      </trkpt>
      <trkpt lat="47.78496" lon="-3.4483">
        <ele>61.68</ele>
        <time>2020-07-10T10:32:42Z</time>
      </trkpt>
      <trkpt lat="47.78501" lon="-3.44825">
        <ele>61.72</ele>
        <time>2020-07-10T10:32:43Z</time>
      </trkpt>
      <trkpt lat="47.78506" lon="-3.4482">
        <ele>61.8</ele>
        <time>2020-07-10T10:32:44Z</time>
      </trkpt>
      <trkpt lat="47.78511" lon="-3.44816">
        <ele>61.96</ele>
        <time>2020-07-10T10:32:45Z</time>
      </trkpt>
      <trkpt lat="47.78516" lon="-3.44813">
        <ele>62.18</ele>
        <time>2020-07-10T10:32:46Z</time>
      </trkpt>
      <trkpt lat="47.78522" lon="-3.4481">
        <ele>62.48</ele>
        <time>2020-07-10T10:32:47Z</time>
      </trkpt>
      <trkpt lat="47.78528" lon="-3.44807">
        <ele>62.84</ele>
        <time>2020-07-10T10:32:48Z</time>
      </trkpt>
      <trkpt lat="47.78533" lon="-3.44805">
        <ele>63.09</ele>
        <time>2020-07-10T10:32:49Z</time>
      </trkpt>
      <trkpt lat="47.7854" lon="-3.44804">
        <ele>63.33</ele>
        <time>2020-07-10T10:32:50Z</time>
      </trkpt>
      <trkpt lat="47.78545" lon="-3.44804">
        <ele>63.54</ele>
        <time>2020-07-10T10:32:51Z</time>
      </trkpt>
      <trkpt lat="47.78551" lon="-3.44802">
        <ele>63.75</ele>
        <time>2020-07-10T10:32:52Z</time>
      </trkpt>
      <trkpt lat="47.78557" lon="-3.448">
        <ele>63.93</ele>
        <time>2020-07-10T10:32:53Z</time>
      </trkpt>
      <trkpt lat="47.78562" lon="-3.44798">
        <ele>63.98</ele>
        <time>2020-07-10T10:32:54Z</time>
      </trkpt>
      <trkpt lat="47.78568" lon="-3.44796">
        <ele>63.99</ele>
        <time>2020-07-10T10:32:55Z</time>
      </trkpt>
      <trkpt lat="47.78574" lon="-3.44795">
        <ele>64</ele>
        <time>2020-07-10T10:32:56Z</time>
      </trkpt>
      <trkpt lat="47.7858" lon="-3.44793">
        <ele>64</ele>
        <time>2020-07-10T10:32:57Z</time>
      </trkpt>
      <trkpt lat="47.78586" lon="-3.44791">
        <ele>63.97</ele>
        <time>2020-07-10T10:32:58Z</time>
      </trkpt>
      <trkpt lat="47.78591" lon="-3.4479">
        <ele>63.91</ele>
        <time>2020-07-10T10:32:59Z</time>
      </trkpt>
      <trkpt lat="47.78596" lon="-3.44788">
        <ele>63.86</ele>
        <time>2020-07-10T10:33:00Z</time>
      </trkpt>
      <trkpt lat="47.78601" lon="-3.44784">
        <ele>63.86</ele>
        <time>2020-07-10T10:33:01Z</time>
      </trkpt>
      <trkpt lat="47.78606" lon="-3.4478">
        <ele>63.92</ele>
        <time>2020-07-10T10:33:02Z</time>
      </trkpt>
      <trkpt lat="47.7861" lon="-3.44775">
        <ele>63.9</ele>
        <time>2020-07-10T10:33:03Z</time>
      </trkpt>
      <trkpt lat="47.78615" lon="-3.44769">
        <ele>63.61</ele>
        <time>2020-07-10T10:33:04Z</time>
      </trkpt>
      <trkpt lat="47.7862" lon="-3.44764">
        <ele>63.32</ele>
        <time>2020-07-10T10:33:05Z</time>
      </trkpt>
      <trkpt lat="47.78624" lon="-3.44758">
        <ele>63.11</ele>
        <time>2020-07-10T10:33:06Z</time>
      </trkpt>
      <trkpt lat="47.78629" lon="-3.44752">
        <ele>63.02</ele>
        <time>2020-07-10T10:33:07Z</time>
      </trkpt>
      <trkpt lat="47.78633" lon="-3.44746">
        <ele>63</ele>
        <time>2020-07-10T10:33:08Z</time>
      </trkpt>
      <trkpt lat="47.78638" lon="-3.4474">
        <ele>63</ele>
        <time>2020-07-10T10:33:09Z</time>
      </trkpt>
      <trkpt lat="47.78643" lon="-3.44734">
        <ele>62.86</ele>
        <time>2020-07-10T10:33:10Z</time>
      </trkpt>
      <trkpt lat="47.78648" lon="-3.44728">
        <ele>62.69</ele>
        <time>2020-07-10T10:33:11Z</time>
      </trkpt>
      <trkpt lat="47.78652" lon="-3.44724">
        <ele>62.56</ele>
        <time>2020-07-10T10:33:12Z</time>
      </trkpt>
      <trkpt lat="47.78657" lon="-3.44719">
        <ele>62.41</ele>
        <time>2020-07-10T10:33:13Z</time>
      </trkpt>
      <trkpt lat="47.78664" lon="-3.44716">
        <ele>62.19</ele>
        <time>2020-07-10T10:33:14Z</time>
      </trkpt>
      <trkpt lat="47.78671" lon="-3.44713">
        <ele>61.76</ele>
        <time>2020-07-10T10:33:15Z</time>
      </trkpt>
      <trkpt lat="47.78679" lon="-3.44711">
        <ele>61.1</ele>
        <time>2020-07-10T10:33:16Z</time>
      </trkpt>
      <trkpt lat="47.78688" lon="-3.44711">
        <ele>60.32</ele>
        <time>2020-07-10T10:33:17Z</time>
      </trkpt>
      <trkpt lat="47.78698" lon="-3.44711">
        <ele>59.53</ele>
        <time>2020-07-10T10:33:18Z</time>
      </trkpt>
      <trkpt lat="47.78707" lon="-3.44711">
        <ele>58.82</ele>
        <time>2020-07-10T10:33:19Z</time>
      </trkpt>
      <trkpt lat="47.78715" lon="-3.44711">
        <ele>58.18</ele>
        <time>2020-07-10T10:33:20Z</time>
      </trkpt>
      <trkpt lat="47.78723" lon="-3.44712">
        <ele>57.56</ele>
        <time>2020-07-10T10:33:21Z</time>
      </trkpt>
      <trkpt lat="47.7873" lon="-3.44715">
        <ele>56.92</ele>
        <time>2020-07-10T10:33:22Z</time>
      </trkpt>
      <trkpt lat="47.78736" lon="-3.44716">
        <ele>56.35</ele>
        <time>2020-07-10T10:33:23Z</time>
      </trkpt>
      <trkpt lat="47.78741" lon="-3.44716">
        <ele>55.93</ele>
        <time>2020-07-10T10:33:24Z</time>
      </trkpt>
      <trkpt lat="47.78746" lon="-3.44712">
        <ele>55.55</ele>
        <time>2020-07-10T10:33:25Z</time>
      </trkpt>
      <trkpt lat="47.7875" lon="-3.44706">
        <ele>55.2</ele>
        <time>2020-07-10T10:33:26Z</time>
      </trkpt>
      <trkpt lat="47.78752" lon="-3.44699">
        <ele>54.95</ele>
        <time>2020-07-10T10:33:27Z</time>
      </trkpt>
      <trkpt lat="47.78753" lon="-3.4469">
        <ele>54.73</ele>
        <time>2020-07-10T10:33:28Z</time>
      </trkpt>
      <trkpt lat="47.78752" lon="-3.44682">
        <ele>54.47</ele>
        <time>2020-07-10T10:33:29Z</time>
      </trkpt>
      <trkpt lat="47.78752" lon="-3.44673">
        <ele>54.23</ele>
        <time>2020-07-10T10:33:30Z</time>
      </trkpt>
      <trkpt lat="47.78751" lon="-3.44665">
        <ele>54.03</ele>
        <time>2020-07-10T10:33:31Z</time>
      </trkpt>
      <trkpt lat="47.7875" lon="-3.44657">
        <ele>54.02</ele>
        <time>2020-07-10T10:33:32Z</time>
      </trkpt>
      <trkpt lat="47.7875" lon="-3.44648">
        <ele>54.04</ele>
        <time>2020-07-10T10:33:33Z</time>
      </trkpt>
      <trkpt lat="47.7875" lon="-3.44639">
        <ele>54.02</ele>
        <time>2020-07-10T10:33:34Z</time>
      </trkpt>
      <trkpt lat="47.7875" lon="-3.4463">
        <ele>53.79</ele>
        <time>2020-07-10T10:33:35Z</time>
      </trkpt>
      <trkpt lat="47.7875" lon="-3.4462">
        <ele>53.47</ele>
        <time>2020-07-10T10:33:36Z</time>
      </trkpt>
      <trkpt lat="47.7875" lon="-3.4461">
        <ele>53.09</ele>
        <time>2020-07-10T10:33:37Z</time>
      </trkpt>
      <trkpt lat="47.78751" lon="-3.446">
        <ele>52.72</ele>
        <time>2020-07-10T10:33:38Z</time>
      </trkpt>
      <trkpt lat="47.78751" lon="-3.4459">
        <ele>52.36</ele>
        <time>2020-07-10T10:33:39Z</time>
      </trkpt>
      <trkpt lat="47.7875" lon="-3.44581">
        <ele>52.09</ele>
        <time>2020-07-10T10:33:40Z</time>
      </trkpt>
      <trkpt lat="47.7875" lon="-3.4457">
        <ele>52.03</ele>
        <time>2020-07-10T10:33:41Z</time>
      </trkpt>
      <trkpt lat="47.7875" lon="-3.4456">
        <ele>52</ele>
        <time>2020-07-10T10:33:42Z</time>
      </trkpt>
      <trkpt lat="47.78751" lon="-3.4455">
        <ele>51.83</ele>
        <time>2020-07-10T10:33:43Z</time>
      </trkpt>
      <trkpt lat="47.78753" lon="-3.4454">
        <ele>51.53</ele>
        <time>2020-07-10T10:33:44Z</time>
      </trkpt>
      <trkpt lat="47.78755" lon="-3.44531">
        <ele>51.22</ele>
        <time>2020-07-10T10:33:45Z</time>
      </trkpt>
      <trkpt lat="47.78757" lon="-3.44522">
        <ele>51.07</ele>
        <time>2020-07-10T10:33:46Z</time>
      </trkpt>
      <trkpt lat="47.7876" lon="-3.44513">
        <ele>51.02</ele>
        <time>2020-07-10T10:33:47Z</time>
      </trkpt>
      <trkpt lat="47.78763" lon="-3.44504">
        <ele>51.01</ele>
        <time>2020-07-10T10:33:48Z</time>
      </trkpt>
      <trkpt lat="47.78766" lon="-3.44495">
        <ele>50.95</ele>
        <time>2020-07-10T10:33:49Z</time>
      </trkpt>
      <trkpt lat="47.78769" lon="-3.44486">
        <ele>50.88</ele>
        <time>2020-07-10T10:33:50Z</time>
      </trkpt>
      <trkpt lat="47.78773" lon="-3.44478">
        <ele>50.86</ele>
        <time>2020-07-10T10:33:51Z</time>
      </trkpt>
      <trkpt lat="47.78776" lon="-3.4447">
        <ele>50.85</ele>
        <time>2020-07-10T10:33:52Z</time>
      </trkpt>
      <trkpt lat="47.78779" lon="-3.44462">
        <ele>50.69</ele>
        <time>2020-07-10T10:33:53Z</time>
      </trkpt>
      <trkpt lat="47.78782" lon="-3.44454">
        <ele>50.44</ele>
        <time>2020-07-10T10:33:54Z</time>
      </trkpt>
      <trkpt lat="47.78786" lon="-3.44446">
        <ele>50.17</ele>
        <time>2020-07-10T10:33:55Z</time>
      </trkpt>
      <trkpt lat="47.78789" lon="-3.44439">
        <ele>49.99</ele>
        <time>2020-07-10T10:33:56Z</time>
      </trkpt>
      <trkpt lat="47.78793" lon="-3.44431">
        <ele>49.81</ele>
        <time>2020-07-10T10:33:57Z</time>
      </trkpt>
      <trkpt lat="47.78797" lon="-3.44424">
        <ele>49.58</ele>
        <time>2020-07-10T10:33:58Z</time>
      </trkpt>
      <trkpt lat="47.78802" lon="-3.44416">
        <ele>49.26</ele>
        <time>2020-07-10T10:33:59Z</time>
      </trkpt>
      <trkpt lat="47.78807" lon="-3.44409">
        <ele>49.08</ele>
        <time>2020-07-10T10:34:00Z</time>
      </trkpt>
      <trkpt lat="47.78812" lon="-3.44401">
        <ele>49.02</ele>
        <time>2020-07-10T10:34:01Z</time>
      </trkpt>
      <trkpt lat="47.78816" lon="-3.44394">
        <ele>49.01</ele>
        <time>2020-07-10T10:34:02Z</time>
      </trkpt>
      <trkpt lat="47.78819" lon="-3.44387">
        <ele>49.07</ele>
        <time>2020-07-10T10:34:03Z</time>
      </trkpt>
      <trkpt lat="47.78822" lon="-3.44381">
        <ele>49.39</ele>
        <time>2020-07-10T10:34:04Z</time>
      </trkpt>
      <trkpt lat="47.78824" lon="-3.44376">
        <ele>49.78</ele>
        <time>2020-07-10T10:34:05Z</time>
      </trkpt>
      <trkpt lat="47.78825" lon="-3.44372">
        <ele>50.16</ele>
        <time>2020-07-10T10:34:06Z</time>
      </trkpt>
      <trkpt lat="47.78826" lon="-3.4437">
        <ele>50.44</ele>
        <time>2020-07-10T10:34:07Z</time>
      </trkpt>
      <trkpt lat="47.78827" lon="-3.44369">
        <ele>50.58</ele>
        <time>2020-07-10T10:34:08Z</time>
      </trkpt>
      <trkpt lat="47.78828" lon="-3.44369">
        <ele>50.68</ele>
        <time>2020-07-10T10:34:09Z</time>
      </trkpt>
      <trkpt lat="47.78829" lon="-3.4437">
        <ele>50.75</ele>
        <time>2020-07-10T10:34:10Z</time>
      </trkpt>
      <trkpt lat="47.7883" lon="-3.4437">
        <ele>50.81</ele>
        <time>2020-07-10T10:34:11Z</time>
      </trkpt>
      <trkpt lat="47.78832" lon="-3.4437">
        <ele>50.91</ele>
        <time>2020-07-10T10:34:12Z</time>
      </trkpt>
      <trkpt lat="47.78833" lon="-3.44369">
        <ele>51.07</ele>
        <time>2020-07-10T10:34:13Z</time>
      </trkpt>
      <trkpt lat="47.78835" lon="-3.44368">
        <ele>51.21</ele>
        <time>2020-07-10T10:34:14Z</time>
      </trkpt>
      <trkpt lat="47.78836" lon="-3.44368">
        <ele>51.32</ele>
        <time>2020-07-10T10:34:15Z</time>
      </trkpt>
      <trkpt lat="47.78838" lon="-3.44368">
        <ele>51.37</ele>
        <time>2020-07-10T10:34:16Z</time>
      </trkpt>
      <trkpt lat="47.7884" lon="-3.44368">
        <ele>51.38</ele>
        <time>2020-07-10T10:34:17Z</time>
      </trkpt>
      <trkpt lat="47.78841" lon="-3.4437">
        <ele>51.34</ele>
        <time>2020-07-10T10:34:18Z</time>
      </trkpt>
      <trkpt lat="47.78844" lon="-3.44371">
        <ele>51.32</ele>
        <time>2020-07-10T10:34:19Z</time>
      </trkpt>
      <trkpt lat="47.78848" lon="-3.44372">
        <ele>51.38</ele>
        <time>2020-07-10T10:34:20Z</time>
      </trkpt>
      <trkpt lat="47.78851" lon="-3.44373">
        <ele>51.48</ele>
        <time>2020-07-10T10:34:21Z</time>
      </trkpt>
      <trkpt lat="47.78854" lon="-3.44374">
        <ele>51.6</ele>
        <time>2020-07-10T10:34:22Z</time>
      </trkpt>
      <trkpt lat="47.78858" lon="-3.44374">
        <ele>51.75</ele>
        <time>2020-07-10T10:34:23Z</time>
      </trkpt>
      <trkpt lat="47.78861" lon="-3.44375">
        <ele>51.92</ele>
        <time>2020-07-10T10:34:24Z</time>
      </trkpt>
      <trkpt lat="47.78864" lon="-3.44376">
        <ele>51.98</ele>
        <time>2020-07-10T10:34:25Z</time>
      </trkpt>
      <trkpt lat="47.78868" lon="-3.44376">
        <ele>51.99</ele>
        <time>2020-07-10T10:34:26Z</time>
      </trkpt>
      <trkpt lat="47.78872" lon="-3.44377">
        <ele>52</ele>
        <time>2020-07-10T10:34:27Z</time>
      </trkpt>
      <trkpt lat="47.78876" lon="-3.44377">
        <ele>52</ele>
        <time>2020-07-10T10:34:28Z</time>
      </trkpt>
      <trkpt lat="47.78879" lon="-3.44377">
        <ele>52</ele>
        <time>2020-07-10T10:34:29Z</time>
      </trkpt>
      <trkpt lat="47.78882" lon="-3.44378">
        <ele>52</ele>
        <time>2020-07-10T10:34:30Z</time>
      </trkpt>
      <trkpt lat="47.78885" lon="-3.44378">
        <ele>52</ele>
        <time>2020-07-10T10:34:31Z</time>
      </trkpt>
      <trkpt lat="47.78888" lon="-3.44378">
        <ele>52</ele>
        <time>2020-07-10T10:34:32Z</time>
      </trkpt>
      <trkpt lat="47.78891" lon="-3.44378">
        <ele>52</ele>
        <time>2020-07-10T10:34:33Z</time>
      </trkpt>
      <trkpt lat="47.78894" lon="-3.44379">
        <ele>52</ele>
        <time>2020-07-10T10:34:34Z</time>
      </trkpt>
      <trkpt lat="47.78898" lon="-3.4438">
        <ele>52</ele>
        <time>2020-07-10T10:34:35Z</time>
      </trkpt>
      <trkpt lat="47.78901" lon="-3.44381">
        <ele>52</ele>
        <time>2020-07-10T10:34:36Z</time>
      </trkpt>
      <trkpt lat="47.78905" lon="-3.44382">
        <ele>52</ele>
        <time>2020-07-10T10:34:37Z</time>
      </trkpt>
      <trkpt lat="47.7891" lon="-3.44382">
        <ele>52</ele>
        <time>2020-07-10T10:34:38Z</time>
      </trkpt>
      <trkpt lat="47.78914" lon="-3.44381">
        <ele>52</ele>
        <time>2020-07-10T10:34:39Z</time>
      </trkpt>
      <trkpt lat="47.78918" lon="-3.4438">
        <ele>52</ele>
        <time>2020-07-10T10:34:40Z</time>
      </trkpt>
      <trkpt lat="47.78922" lon="-3.44378">
        <ele>52</ele>
        <time>2020-07-10T10:34:41Z</time>
      </trkpt>
      <trkpt lat="47.78926" lon="-3.44377">
        <ele>52</ele>
        <time>2020-07-10T10:34:42Z</time>
      </trkpt>
      <trkpt lat="47.78929" lon="-3.44373">
        <ele>52</ele>
        <time>2020-07-10T10:34:43Z</time>
      </trkpt>
      <trkpt lat="47.78931" lon="-3.44368">
        <ele>52</ele>
        <time>2020-07-10T10:34:44Z</time>
      </trkpt>
      <trkpt lat="47.78932" lon="-3.44363">
        <ele>52</ele>
        <time>2020-07-10T10:34:45Z</time>
      </trkpt>
      <trkpt lat="47.78934" lon="-3.44359">
        <ele>51.96</ele>
        <time>2020-07-10T10:34:46Z</time>
      </trkpt>
      <trkpt lat="47.78935" lon="-3.44354">
        <ele>51.87</ele>
        <time>2020-07-10T10:34:47Z</time>
      </trkpt>
      <trkpt lat="47.78935" lon="-3.44349">
        <ele>51.76</ele>
        <time>2020-07-10T10:34:48Z</time>
      </trkpt>
      <trkpt lat="47.78935" lon="-3.44345">
        <ele>51.67</ele>
        <time>2020-07-10T10:34:49Z</time>
      </trkpt>
      <trkpt lat="47.78934" lon="-3.44341">
        <ele>51.58</ele>
        <time>2020-07-10T10:34:50Z</time>
      </trkpt>
      <trkpt lat="47.78934" lon="-3.44338">
        <ele>51.51</ele>
        <time>2020-07-10T10:34:51Z</time>
      </trkpt>
      <trkpt lat="47.78935" lon="-3.44336">
        <ele>51.43</ele>
        <time>2020-07-10T10:34:52Z</time>
      </trkpt>
      <trkpt lat="47.78937" lon="-3.44336">
        <ele>51.36</ele>
        <time>2020-07-10T10:34:53Z</time>
      </trkpt>
      <trkpt lat="47.7894" lon="-3.44338">
        <ele>51.31</ele>
        <time>2020-07-10T10:34:54Z</time>
      </trkpt>
      <trkpt lat="47.78943" lon="-3.44339">
        <ele>51.26</ele>
        <time>2020-07-10T10:34:55Z</time>
      </trkpt>
      <trkpt lat="47.78947" lon="-3.4434">
        <ele>51.24</ele>
        <time>2020-07-10T10:34:56Z</time>
      </trkpt>
      <trkpt lat="47.78951" lon="-3.44341">
        <ele>51.26</ele>
        <time>2020-07-10T10:34:57Z</time>
      </trkpt>
      <trkpt lat="47.78955" lon="-3.44341">
        <ele>51.28</ele>
        <time>2020-07-10T10:34:58Z</time>
      </trkpt>
      <trkpt lat="47.78959" lon="-3.44343">
        <ele>51.32</ele>
        <time>2020-07-10T10:34:59Z</time>
      </trkpt>
      <trkpt lat="47.78963" lon="-3.44344">
        <ele>51.38</ele>
        <time>2020-07-10T10:35:00Z</time>
      </trkpt>
      <trkpt lat="47.78966" lon="-3.44347">
        <ele>51.45</ele>
        <time>2020-07-10T10:35:01Z</time>
      </trkpt>
      <trkpt lat="47.7897" lon="-3.44348">
        <ele>51.49</ele>
        <time>2020-07-10T10:35:02Z</time>
      </trkpt>
      <trkpt lat="47.78974" lon="-3.44349">
        <ele>51.53</ele>
        <time>2020-07-10T10:35:03Z</time>
      </trkpt>
      <trkpt lat="47.78977" lon="-3.44349">
        <ele>51.56</ele>
        <time>2020-07-10T10:35:04Z</time>
      </trkpt>
      <trkpt lat="47.78981" lon="-3.4435">
        <ele>51.58</ele>
        <time>2020-07-10T10:35:05Z</time>
      </trkpt>
      <trkpt lat="47.78984" lon="-3.4435">
        <ele>51.6</ele>
        <time>2020-07-10T10:35:06Z</time>
      </trkpt>
      <trkpt lat="47.78988" lon="-3.44351">
        <ele>51.61</ele>
        <time>2020-07-10T10:35:07Z</time>
      </trkpt>
      <trkpt lat="47.78992" lon="-3.44351">
        <ele>51.64</ele>
        <time>2020-07-10T10:35:08Z</time>
      </trkpt>
      <trkpt lat="47.78997" lon="-3.44352">
        <ele>51.67</ele>
        <time>2020-07-10T10:35:09Z</time>
      </trkpt>
      <trkpt lat="47.79002" lon="-3.44352">
        <ele>51.69</ele>
        <time>2020-07-10T10:35:10Z</time>
      </trkpt>
      <trkpt lat="47.79005" lon="-3.44351">
        <ele>51.71</ele>
        <time>2020-07-10T10:35:11Z</time>
      </trkpt>
      <trkpt lat="47.79009" lon="-3.44351">
        <ele>51.74</ele>
        <time>2020-07-10T10:35:12Z</time>
      </trkpt>
      <trkpt lat="47.79013" lon="-3.44351">
        <ele>51.78</ele>
        <time>2020-07-10T10:35:13Z</time>
      </trkpt>
      <trkpt lat="47.79017" lon="-3.44351">
        <ele>51.83</ele>
        <time>2020-07-10T10:35:14Z</time>
      </trkpt>
      <trkpt lat="47.79022" lon="-3.44351">
        <ele>51.89</ele>
        <time>2020-07-10T10:35:15Z</time>
      </trkpt>
      <trkpt lat="47.79025" lon="-3.44351">
        <ele>51.94</ele>
        <time>2020-07-10T10:35:16Z</time>
      </trkpt>
      <trkpt lat="47.79029" lon="-3.44352">
        <ele>52</ele>
        <time>2020-07-10T10:35:17Z</time>
      </trkpt>
      <trkpt lat="47.79032" lon="-3.44352">
        <ele>52.08</ele>
        <time>2020-07-10T10:35:18Z</time>
      </trkpt>
      <trkpt lat="47.79036" lon="-3.44352">
        <ele>52.17</ele>
        <time>2020-07-10T10:35:19Z</time>
      </trkpt>
      <trkpt lat="47.7904" lon="-3.44352">
        <ele>52.27</ele>
        <time>2020-07-10T10:35:20Z</time>
      </trkpt>
      <trkpt lat="47.79045" lon="-3.44352">
        <ele>52.38</ele>
        <time>2020-07-10T10:35:21Z</time>
      </trkpt>
      <trkpt lat="47.79049" lon="-3.44353">
        <ele>52.49</ele>
        <time>2020-07-10T10:35:22Z</time>
      </trkpt>
      <trkpt lat="47.79053" lon="-3.44352">
        <ele>52.58</ele>
        <time>2020-07-10T10:35:23Z</time>
      </trkpt>
      <trkpt lat="47.79057" lon="-3.44352">
        <ele>52.46</ele>
        <time>2020-07-10T10:35:24Z</time>
      </trkpt>
      <trkpt lat="47.79062" lon="-3.44352">
        <ele>51.96</ele>
        <time>2020-07-10T10:35:25Z</time>
      </trkpt>
      <trkpt lat="47.79066" lon="-3.44351">
        <ele>51.32</ele>
        <time>2020-07-10T10:35:26Z</time>
      </trkpt>
      <trkpt lat="47.7907" lon="-3.4435">
        <ele>50.62</ele>
        <time>2020-07-10T10:35:27Z</time>
      </trkpt>
      <trkpt lat="47.79075" lon="-3.44348">
        <ele>49.84</ele>
        <time>2020-07-10T10:35:28Z</time>
      </trkpt>
      <trkpt lat="47.79079" lon="-3.44348">
        <ele>49.06</ele>
        <time>2020-07-10T10:35:29Z</time>
      </trkpt>
      <trkpt lat="47.79083" lon="-3.44347">
        <ele>48.3</ele>
        <time>2020-07-10T10:35:30Z</time>
      </trkpt>
      <trkpt lat="47.79088" lon="-3.44346">
        <ele>48.45</ele>
        <time>2020-07-10T10:35:31Z</time>
      </trkpt>
      <trkpt lat="47.79092" lon="-3.44345">
        <ele>48.89</ele>
        <time>2020-07-10T10:35:32Z</time>
      </trkpt>
      <trkpt lat="47.79097" lon="-3.44344">
        <ele>49.48</ele>
        <time>2020-07-10T10:35:33Z</time>
      </trkpt>
      <trkpt lat="47.79101" lon="-3.44342">
        <ele>50.16</ele>
        <time>2020-07-10T10:35:34Z</time>
      </trkpt>
      <trkpt lat="47.79105" lon="-3.4434">
        <ele>50.95</ele>
        <time>2020-07-10T10:35:35Z</time>
      </trkpt>
      <trkpt lat="47.7911" lon="-3.44339">
        <ele>51.78</ele>
        <time>2020-07-10T10:35:36Z</time>
      </trkpt>
      <trkpt lat="47.79114" lon="-3.44338">
        <ele>52.38</ele>
        <time>2020-07-10T10:35:37Z</time>
      </trkpt>
      <trkpt lat="47.79117" lon="-3.44336">
        <ele>52.76</ele>
        <time>2020-07-10T10:35:38Z</time>
      </trkpt>
      <trkpt lat="47.7912" lon="-3.44335">
        <ele>53.02</ele>
        <time>2020-07-10T10:35:39Z</time>
      </trkpt>
      <trkpt lat="47.79122" lon="-3.44334">
        <ele>53.21</ele>
        <time>2020-07-10T10:35:40Z</time>
      </trkpt>
      <trkpt lat="47.79123" lon="-3.44334">
        <ele>53.32</ele>
        <time>2020-07-10T10:35:41Z</time>
      </trkpt>
      <trkpt lat="47.79123" lon="-3.44334">
        <ele>53.37</ele>
        <time>2020-07-10T10:35:42Z</time>
      </trkpt>
      <trkpt lat="47.79123" lon="-3.44334">
        <ele>53.38</ele>
        <time>2020-07-10T10:35:43Z</time>
      </trkpt>
      <trkpt lat="47.79123" lon="-3.44334">
        <ele>53.4</ele>
        <time>2020-07-10T10:35:44Z</time>
      </trkpt>
      <trkpt lat="47.79123" lon="-3.44334">
        <ele>53.4</ele>
        <time>2020-07-10T10:35:45Z</time>
      </trkpt>
      <trkpt lat="47.79123" lon="-3.44334">
        <ele>53.4</ele>
        <time>2020-07-10T10:35:46Z</time>
      </trkpt>
      <trkpt lat="47.79123" lon="-3.44334">
        <ele>53.4</ele>
        <time>2020-07-10T10:35:47Z</time>
      </trkpt>
      <trkpt lat="47.79123" lon="-3.44334">
        <ele>53.4</ele>
        <time>2020-07-10T10:35:48Z</time>
      </trkpt>
      <trkpt lat="47.79123" lon="-3.44334">
        <ele>53.4</ele>
        <time>2020-07-10T10:35:49Z</time>
      </trkpt>
      <trkpt lat="47.79123" lon="-3.44334">
        <ele>53.4</ele>
        <time>2020-07-10T10:35:50Z</time>
      </trkpt>
      <trkpt lat="47.79123" lon="-3.44334">
        <ele>53.4</ele>
        <time>2020-07-10T10:35:51Z</time>
      </trkpt>
      <trkpt lat="47.79123" lon="-3.44334">
        <ele>53.4</ele>
        <time>2020-07-10T10:35:52Z</time>
      </trkpt>
      <trkpt lat="47.79123" lon="-3.44334">
        <ele>53.4</ele>
        <time>2020-07-10T10:35:53Z</time>
      </trkpt>
      <trkpt lat="47.79123" lon="-3.44334">
        <ele>53.4</ele>
        <time>2020-07-10T10:35:54Z</time>
      </trkpt>
      <trkpt lat="47.79123" lon="-3.44334">
        <ele>53.4</ele>
        <time>2020-07-10T10:35:55Z</time>
      </trkpt>
      <trkpt lat="47.79123" lon="-3.44334">
        <ele>53.4</ele>
        <time>2020-07-10T10:35:56Z</time>
      </trkpt>
      <trkpt lat="47.79123" lon="-3.44334">
        <ele>53.4</ele>
        <time>2020-07-10T10:35:57Z</time>
      </trkpt>
      <trkpt lat="47.79123" lon="-3.44334">
        <ele>53.4</ele>
        <time>2020-07-10T10:35:58Z</time>
      </trkpt>
      <trkpt lat="47.79123" lon="-3.44334">
        <ele>53.4</ele>
        <time>2020-07-10T10:35:59Z</time>
      </trkpt>
      <trkpt lat="47.79123" lon="-3.44334">
        <ele>53.4</ele>
        <time>2020-07-10T10:36:00Z</time>
      </trkpt>
      <trkpt lat="47.79123" lon="-3.44334">
        <ele>53.4</ele>
        <time>2020-07-10T10:36:01Z</time>
      </trkpt>
      <trkpt lat="47.79123" lon="-3.44334">
        <ele>53.4</ele>
        <time>2020-07-10T10:36:02Z</time>
      </trkpt>
      <trkpt lat="47.79123" lon="-3.44334">
        <ele>53.4</ele>
        <time>2020-07-10T10:36:03Z</time>
      </trkpt>
      <trkpt lat="47.79123" lon="-3.44334">
        <ele>53.4</ele>
        <time>2020-07-10T10:36:04Z</time>
      </trkpt>
      <trkpt lat="47.79123" lon="-3.44334">
        <ele>53.4</ele>
        <time>2020-07-10T10:36:05Z</time>
      </trkpt>
      <trkpt lat="47.79123" lon="-3.44334">
        <ele>53.4</ele>
        <time>2020-07-10T10:36:06Z</time>
      </trkpt>
      <trkpt lat="47.79123" lon="-3.44334">
        <ele>53.4</ele>
        <time>2020-07-10T10:36:07Z</time>
      </trkpt>
      <trkpt lat="47.79123" lon="-3.44334">
        <ele>53.4</ele>
        <time>2020-07-10T10:36:08Z</time>
      </trkpt>
      <trkpt lat="47.79123" lon="-3.44334">
        <ele>53.4</ele>
        <time>2020-07-10T10:36:09Z</time>
      </trkpt>
      <trkpt lat="47.79123" lon="-3.44334">
        <ele>53.4</ele>
        <time>2020-07-10T10:36:10Z</time>
      </trkpt>
      <trkpt lat="47.79123" lon="-3.44334">
        <ele>53.4</ele>
        <time>2020-07-10T10:36:11Z</time>
      </trkpt>
      <trkpt lat="47.79123" lon="-3.44334">
        <ele>53.4</ele>
        <time>2020-07-10T10:36:12Z</time>
      </trkpt>
      <trkpt lat="47.79123" lon="-3.44334">
        <ele>53.4</ele>
        <time>2020-07-10T10:36:13Z</time>
      </trkpt>
      <trkpt lat="47.79123" lon="-3.44334">
        <ele>53.4</ele>
        <time>2020-07-10T10:36:14Z</time>
      </trkpt>
      <trkpt lat="47.79123" lon="-3.44334">
        <ele>53.4</ele>
        <time>2020-07-10T10:36:15Z</time>
      </trkpt>
      <trkpt lat="47.79123" lon="-3.44334">
        <ele>53.4</ele>
        <time>2020-07-10T10:36:16Z</time>
      </trkpt>
      <trkpt lat="47.79123" lon="-3.44334">
        <ele>53.4</ele>
        <time>2020-07-10T10:36:17Z</time>
      </trkpt>
      <trkpt lat="47.79123" lon="-3.44334">
        <ele>53.4</ele>
        <time>2020-07-10T10:36:18Z</time>
      </trkpt>
      <trkpt lat="47.79123" lon="-3.44334">
        <ele>53.4</ele>
        <time>2020-07-10T10:36:19Z</time>
      </trkpt>
      <trkpt lat="47.79123" lon="-3.44334">
        <ele>53.4</ele>
        <time>2020-07-10T10:36:20Z</time>
      </trkpt>
      <trkpt lat="47.79123" lon="-3.44334">
        <ele>53.4</ele>
        <time>2020-07-10T10:36:21Z</time>
      </trkpt>
      <trkpt lat="47.7912" lon="-3.44333">
        <ele>53.36</ele>
        <time>2020-07-10T10:36:22Z</time>
      </trkpt>
      <trkpt lat="47.79119" lon="-3.44331">
        <ele>53.36</ele>
        <time>2020-07-10T10:36:23Z</time>
      </trkpt>
      <trkpt lat="47.79119" lon="-3.44328">
        <ele>53.4</ele>
        <time>2020-07-10T10:36:24Z</time>
      </trkpt>
      <trkpt lat="47.79119" lon="-3.44324">
        <ele>53.48</ele>
        <time>2020-07-10T10:36:25Z</time>
      </trkpt>
      <trkpt lat="47.79119" lon="-3.44321">
        <ele>53.58</ele>
        <time>2020-07-10T10:36:26Z</time>
      </trkpt>
      <trkpt lat="47.7912" lon="-3.44317">
        <ele>53.68</ele>
        <time>2020-07-10T10:36:27Z</time>
      </trkpt>
      <trkpt lat="47.79121" lon="-3.44313">
        <ele>53.78</ele>
        <time>2020-07-10T10:36:28Z</time>
      </trkpt>
      <trkpt lat="47.79122" lon="-3.4431">
        <ele>53.87</ele>
        <time>2020-07-10T10:36:29Z</time>
      </trkpt>
      <trkpt lat="47.79124" lon="-3.44306">
        <ele>53.95</ele>
        <time>2020-07-10T10:36:30Z</time>
      </trkpt>
      <trkpt lat="47.79125" lon="-3.44302">
        <ele>53.94</ele>
        <time>2020-07-10T10:36:31Z</time>
      </trkpt>
      <trkpt lat="47.79126" lon="-3.44298">
        <ele>53.88</ele>
        <time>2020-07-10T10:36:32Z</time>
      </trkpt>
      <trkpt lat="47.79126" lon="-3.44293">
        <ele>53.8</ele>
        <time>2020-07-10T10:36:33Z</time>
      </trkpt>
      <trkpt lat="47.79126" lon="-3.44288">
        <ele>53.69</ele>
        <time>2020-07-10T10:36:34Z</time>
      </trkpt>
      <trkpt lat="47.79128" lon="-3.44283">
        <ele>53.57</ele>
        <time>2020-07-10T10:36:35Z</time>
      </trkpt>
      <trkpt lat="47.79128" lon="-3.44277">
        <ele>53.44</ele>
        <time>2020-07-10T10:36:36Z</time>
      </trkpt>
      <trkpt lat="47.79129" lon="-3.44272">
        <ele>53.45</ele>
        <time>2020-07-10T10:36:37Z</time>
      </trkpt>
      <trkpt lat="47.79128" lon="-3.44268">
        <ele>53.51</ele>
        <time>2020-07-10T10:36:38Z</time>
      </trkpt>
      <trkpt lat="47.79127" lon="-3.44264">
        <ele>53.6</ele>
        <time>2020-07-10T10:36:39Z</time>
      </trkpt>
      <trkpt lat="47.79125" lon="-3.44259">
        <ele>53.78</ele>
        <time>2020-07-10T10:36:40Z</time>
      </trkpt>
      <trkpt lat="47.79122" lon="-3.44255">
        <ele>54</ele>
        <time>2020-07-10T10:36:41Z</time>
      </trkpt>
      <trkpt lat="47.7912" lon="-3.44251">
        <ele>54.23</ele>
        <time>2020-07-10T10:36:42Z</time>
      </trkpt>
      <trkpt lat="47.79118" lon="-3.44246">
        <ele>54.43</ele>
        <time>2020-07-10T10:36:43Z</time>
      </trkpt>
      <trkpt lat="47.79117" lon="-3.44241">
        <ele>54.57</ele>
        <time>2020-07-10T10:36:44Z</time>
      </trkpt>
      <trkpt lat="47.79116" lon="-3.44237">
        <ele>54.7</ele>
        <time>2020-07-10T10:36:45Z</time>
      </trkpt>
      <trkpt lat="47.79112" lon="-3.4423">
        <ele>54.87</ele>
        <time>2020-07-10T10:36:46Z</time>
      </trkpt>
      <trkpt lat="47.79108" lon="-3.44222">
        <ele>54.96</ele>
        <time>2020-07-10T10:36:47Z</time>
      </trkpt>
      <trkpt lat="47.79105" lon="-3.44217">
        <ele>55.02</ele>
        <time>2020-07-10T10:36:48Z</time>
      </trkpt>
      <trkpt lat="47.791" lon="-3.44212">
        <ele>55.11</ele>
        <time>2020-07-10T10:36:49Z</time>
      </trkpt>
      <trkpt lat="47.79096" lon="-3.44206">
        <ele>55.26</ele>
        <time>2020-07-10T10:36:50Z</time>
      </trkpt>
      <trkpt lat="47.79093" lon="-3.44199">
        <ele>55.46</ele>
        <time>2020-07-10T10:36:51Z</time>
      </trkpt>
      <trkpt lat="47.79091" lon="-3.44193">
        <ele>55.65</ele>
        <time>2020-07-10T10:36:52Z</time>
      </trkpt>
      <trkpt lat="47.7909" lon="-3.44187">
        <ele>55.73</ele>
        <time>2020-07-10T10:36:53Z</time>
      </trkpt>
      <trkpt lat="47.79089" lon="-3.44181">
        <ele>55.78</ele>
        <time>2020-07-10T10:36:54Z</time>
      </trkpt>
      <trkpt lat="47.79087" lon="-3.44174">
        <ele>55.85</ele>
        <time>2020-07-10T10:36:55Z</time>
      </trkpt>
      <trkpt lat="47.79085" lon="-3.4417">
        <ele>55.91</ele>
        <time>2020-07-10T10:36:56Z</time>
      </trkpt>
      <trkpt lat="47.79083" lon="-3.44165">
        <ele>55.93</ele>
        <time>2020-07-10T10:36:57Z</time>
      </trkpt>
      <trkpt lat="47.79081" lon="-3.4416">
        <ele>55.68</ele>
        <time>2020-07-10T10:36:58Z</time>
      </trkpt>
      <trkpt lat="47.79079" lon="-3.44155">
        <ele>55.41</ele>
        <time>2020-07-10T10:36:59Z</time>
      </trkpt>
      <trkpt lat="47.79076" lon="-3.4415">
        <ele>55.19</ele>
        <time>2020-07-10T10:37:00Z</time>
      </trkpt>
      <trkpt lat="47.79073" lon="-3.44145">
        <ele>55.05</ele>
        <time>2020-07-10T10:37:01Z</time>
      </trkpt>
      <trkpt lat="47.7907" lon="-3.4414">
        <ele>55</ele>
        <time>2020-07-10T10:37:02Z</time>
      </trkpt>
      <trkpt lat="47.79067" lon="-3.44137">
        <ele>54.94</ele>
        <time>2020-07-10T10:37:03Z</time>
      </trkpt>
      <trkpt lat="47.79063" lon="-3.44133">
        <ele>54.84</ele>
        <time>2020-07-10T10:37:04Z</time>
      </trkpt>
      <trkpt lat="47.79059" lon="-3.4413">
        <ele>54.73</ele>
        <time>2020-07-10T10:37:05Z</time>
      </trkpt>
      <trkpt lat="47.79054" lon="-3.44127">
        <ele>54.49</ele>
        <time>2020-07-10T10:37:06Z</time>
      </trkpt>
      <trkpt lat="47.7905" lon="-3.44125">
        <ele>53.95</ele>
        <time>2020-07-10T10:37:07Z</time>
      </trkpt>
      <trkpt lat="47.79046" lon="-3.44118">
        <ele>53.35</ele>
        <time>2020-07-10T10:37:08Z</time>
      </trkpt>
      <trkpt lat="47.79043" lon="-3.44111">
        <ele>52.84</ele>
        <time>2020-07-10T10:37:09Z</time>
      </trkpt>
      <trkpt lat="47.7904" lon="-3.44103">
        <ele>52.37</ele>
        <time>2020-07-10T10:37:10Z</time>
      </trkpt>
      <trkpt lat="47.79036" lon="-3.44095">
        <ele>51.93</ele>
        <time>2020-07-10T10:37:11Z</time>
      </trkpt>
      <trkpt lat="47.79033" lon="-3.44087">
        <ele>51.57</ele>
        <time>2020-07-10T10:37:12Z</time>
      </trkpt>
      <trkpt lat="47.79029" lon="-3.44077">
        <ele>51.4</ele>
        <time>2020-07-10T10:37:13Z</time>
      </trkpt>
      <trkpt lat="47.79027" lon="-3.44069">
        <ele>51.45</ele>
        <time>2020-07-10T10:37:14Z</time>
      </trkpt>
      <trkpt lat="47.79023" lon="-3.44059">
        <ele>51.54</ele>
        <time>2020-07-10T10:37:15Z</time>
      </trkpt>
      <trkpt lat="47.7902" lon="-3.4405">
        <ele>51.35</ele>
        <time>2020-07-10T10:37:16Z</time>
      </trkpt>
      <trkpt lat="47.79016" lon="-3.4404">
        <ele>50.98</ele>
        <time>2020-07-10T10:37:17Z</time>
      </trkpt>
      <trkpt lat="47.79011" lon="-3.44032">
        <ele>50.6</ele>
        <time>2020-07-10T10:37:18Z</time>
      </trkpt>
      <trkpt lat="47.79007" lon="-3.44022">
        <ele>50.16</ele>
        <time>2020-07-10T10:37:19Z</time>
      </trkpt>
      <trkpt lat="47.79004" lon="-3.44014">
        <ele>49.75</ele>
        <time>2020-07-10T10:37:20Z</time>
      </trkpt>
      <trkpt lat="47.79" lon="-3.44006">
        <ele>49.39</ele>
        <time>2020-07-10T10:37:21Z</time>
      </trkpt>
      <trkpt lat="47.78997" lon="-3.43999">
        <ele>49.26</ele>
        <time>2020-07-10T10:37:22Z</time>
      </trkpt>
      <trkpt lat="47.78994" lon="-3.4399">
        <ele>49.38</ele>
        <time>2020-07-10T10:37:23Z</time>
      </trkpt>
      <trkpt lat="47.78991" lon="-3.43982">
        <ele>49.57</ele>
        <time>2020-07-10T10:37:24Z</time>
      </trkpt>
      <trkpt lat="47.78988" lon="-3.43975">
        <ele>49.78</ele>
        <time>2020-07-10T10:37:25Z</time>
      </trkpt>
      <trkpt lat="47.78985" lon="-3.43966">
        <ele>49.76</ele>
        <time>2020-07-10T10:37:26Z</time>
      </trkpt>
      <trkpt lat="47.78983" lon="-3.43958">
        <ele>49.56</ele>
        <time>2020-07-10T10:37:27Z</time>
      </trkpt>
      <trkpt lat="47.78982" lon="-3.43949">
        <ele>49.26</ele>
        <time>2020-07-10T10:37:28Z</time>
      </trkpt>
      <trkpt lat="47.78982" lon="-3.4394">
        <ele>48.83</ele>
        <time>2020-07-10T10:37:29Z</time>
      </trkpt>
      <trkpt lat="47.78981" lon="-3.43932">
        <ele>48.34</ele>
        <time>2020-07-10T10:37:30Z</time>
      </trkpt>
      <trkpt lat="47.78981" lon="-3.43926">
        <ele>47.87</ele>
        <time>2020-07-10T10:37:31Z</time>
      </trkpt>
      <trkpt lat="47.78982" lon="-3.43921">
        <ele>47.48</ele>
        <time>2020-07-10T10:37:32Z</time>
      </trkpt>
      <trkpt lat="47.78983" lon="-3.43918">
        <ele>47.15</ele>
        <time>2020-07-10T10:37:33Z</time>
      </trkpt>
      <trkpt lat="47.78984" lon="-3.43917">
        <ele>46.89</ele>
        <time>2020-07-10T10:37:34Z</time>
      </trkpt>
      <trkpt lat="47.78984" lon="-3.43915">
        <ele>46.74</ele>
        <time>2020-07-10T10:37:35Z</time>
      </trkpt>
      <trkpt lat="47.78984" lon="-3.43913">
        <ele>46.71</ele>
        <time>2020-07-10T10:37:36Z</time>
      </trkpt>
      <trkpt lat="47.78984" lon="-3.43911">
        <ele>46.73</ele>
        <time>2020-07-10T10:37:37Z</time>
      </trkpt>
      <trkpt lat="47.78983" lon="-3.4391">
        <ele>46.78</ele>
        <time>2020-07-10T10:37:38Z</time>
      </trkpt>
      <trkpt lat="47.78983" lon="-3.43908">
        <ele>46.83</ele>
        <time>2020-07-10T10:37:39Z</time>
      </trkpt>
      <trkpt lat="47.78982" lon="-3.43904">
        <ele>46.91</ele>
        <time>2020-07-10T10:37:40Z</time>
      </trkpt>
      <trkpt lat="47.78981" lon="-3.439">
        <ele>47</ele>
        <time>2020-07-10T10:37:41Z</time>
      </trkpt>
      <trkpt lat="47.7898" lon="-3.43895">
        <ele>47.1</ele>
        <time>2020-07-10T10:37:42Z</time>
      </trkpt>
      <trkpt lat="47.78979" lon="-3.43891">
        <ele>47.23</ele>
        <time>2020-07-10T10:37:43Z</time>
      </trkpt>
      <trkpt lat="47.78977" lon="-3.43886">
        <ele>47.37</ele>
        <time>2020-07-10T10:37:44Z</time>
      </trkpt>
      <trkpt lat="47.78976" lon="-3.43882">
        <ele>47.53</ele>
        <time>2020-07-10T10:37:45Z</time>
      </trkpt>
      <trkpt lat="47.78974" lon="-3.43877">
        <ele>47.74</ele>
        <time>2020-07-10T10:37:46Z</time>
      </trkpt>
      <trkpt lat="47.78973" lon="-3.43872">
        <ele>47.9</ele>
        <time>2020-07-10T10:37:47Z</time>
      </trkpt>
      <trkpt lat="47.78971" lon="-3.43867">
        <ele>48.05</ele>
        <time>2020-07-10T10:37:48Z</time>
      </trkpt>
      <trkpt lat="47.7897" lon="-3.43864">
        <ele>48.22</ele>
        <time>2020-07-10T10:37:49Z</time>
      </trkpt>
      <trkpt lat="47.78969" lon="-3.43862">
        <ele>48.28</ele>
        <time>2020-07-10T10:37:50Z</time>
      </trkpt>
      <trkpt lat="47.7897" lon="-3.43861">
        <ele>48.28</ele>
        <time>2020-07-10T10:37:51Z</time>
      </trkpt>
      <trkpt lat="47.78971" lon="-3.4386">
        <ele>48.2</ele>
        <time>2020-07-10T10:37:52Z</time>
      </trkpt>
      <trkpt lat="47.78972" lon="-3.43859">
        <ele>48.08</ele>
        <time>2020-07-10T10:37:53Z</time>
      </trkpt>
      <trkpt lat="47.78974" lon="-3.43855">
        <ele>47.9</ele>
        <time>2020-07-10T10:37:54Z</time>
      </trkpt>
      <trkpt lat="47.78976" lon="-3.43851">
        <ele>47.67</ele>
        <time>2020-07-10T10:37:55Z</time>
      </trkpt>
      <trkpt lat="47.78978" lon="-3.43845">
        <ele>47.48</ele>
        <time>2020-07-10T10:37:56Z</time>
      </trkpt>
      <trkpt lat="47.7898" lon="-3.43838">
        <ele>47.24</ele>
        <time>2020-07-10T10:37:57Z</time>
      </trkpt>
      <trkpt lat="47.78982" lon="-3.4383">
        <ele>47.05</ele>
        <time>2020-07-10T10:37:58Z</time>
      </trkpt>
      <trkpt lat="47.78984" lon="-3.43823">
        <ele>46.82</ele>
        <time>2020-07-10T10:37:59Z</time>
      </trkpt>
      <trkpt lat="47.78986" lon="-3.43816">
        <ele>46.62</ele>
        <time>2020-07-10T10:38:00Z</time>
      </trkpt>
      <trkpt lat="47.78988" lon="-3.4381">
        <ele>46.38</ele>
        <time>2020-07-10T10:38:01Z</time>
      </trkpt>
      <trkpt lat="47.78991" lon="-3.43805">
        <ele>46.14</ele>
        <time>2020-07-10T10:38:02Z</time>
      </trkpt>
      <trkpt lat="47.78993" lon="-3.43799">
        <ele>46.01</ele>
        <time>2020-07-10T10:38:03Z</time>
      </trkpt>
      <trkpt lat="47.78995" lon="-3.43793">
        <ele>45.94</ele>
        <time>2020-07-10T10:38:04Z</time>
      </trkpt>
      <trkpt lat="47.78997" lon="-3.43788">
        <ele>45.9</ele>
        <time>2020-07-10T10:38:05Z</time>
      </trkpt>
      <trkpt lat="47.79" lon="-3.43783">
        <ele>45.83</ele>
        <time>2020-07-10T10:38:06Z</time>
      </trkpt>
      <trkpt lat="47.79004" lon="-3.4378">
        <ele>45.8</ele>
        <time>2020-07-10T10:38:07Z</time>
      </trkpt>
      <trkpt lat="47.79008" lon="-3.43774">
        <ele>45.8</ele>
        <time>2020-07-10T10:38:08Z</time>
      </trkpt>
      <trkpt lat="47.79011" lon="-3.43771">
        <ele>45.76</ele>
        <time>2020-07-10T10:38:09Z</time>
      </trkpt>
      <trkpt lat="47.79014" lon="-3.43768">
        <ele>45.7</ele>
        <time>2020-07-10T10:38:10Z</time>
      </trkpt>
      <trkpt lat="47.79017" lon="-3.43764">
        <ele>45.62</ele>
        <time>2020-07-10T10:38:11Z</time>
      </trkpt>
      <trkpt lat="47.7902" lon="-3.43759">
        <ele>45.53</ele>
        <time>2020-07-10T10:38:12Z</time>
      </trkpt>
      <trkpt lat="47.79022" lon="-3.43753">
        <ele>45.45</ele>
        <time>2020-07-10T10:38:13Z</time>
      </trkpt>
      <trkpt lat="47.79025" lon="-3.43748">
        <ele>45.34</ele>
        <time>2020-07-10T10:38:14Z</time>
      </trkpt>
      <trkpt lat="47.79027" lon="-3.43743">
        <ele>45.3</ele>
        <time>2020-07-10T10:38:15Z</time>
      </trkpt>
      <trkpt lat="47.7903" lon="-3.43738">
        <ele>45.36</ele>
        <time>2020-07-10T10:38:16Z</time>
      </trkpt>
      <trkpt lat="47.79032" lon="-3.43734">
        <ele>45.46</ele>
        <time>2020-07-10T10:38:17Z</time>
      </trkpt>
      <trkpt lat="47.79034" lon="-3.43728">
        <ele>45.55</ele>
        <time>2020-07-10T10:38:18Z</time>
      </trkpt>
      <trkpt lat="47.79037" lon="-3.43723">
        <ele>45.63</ele>
        <time>2020-07-10T10:38:19Z</time>
      </trkpt>
      <trkpt lat="47.79039" lon="-3.43717">
        <ele>45.67</ele>
        <time>2020-07-10T10:38:20Z</time>
      </trkpt>
      <trkpt lat="47.79042" lon="-3.43712">
        <ele>45.68</ele>
        <time>2020-07-10T10:38:21Z</time>
      </trkpt>
      <trkpt lat="47.79044" lon="-3.43707">
        <ele>45.67</ele>
        <time>2020-07-10T10:38:22Z</time>
      </trkpt>
      <trkpt lat="47.79046" lon="-3.43701">
        <ele>45.61</ele>
        <time>2020-07-10T10:38:23Z</time>
      </trkpt>
      <trkpt lat="47.79048" lon="-3.43696">
        <ele>45.54</ele>
        <time>2020-07-10T10:38:24Z</time>
      </trkpt>
      <trkpt lat="47.79051" lon="-3.43691">
        <ele>45.56</ele>
        <time>2020-07-10T10:38:25Z</time>
      </trkpt>
      <trkpt lat="47.79054" lon="-3.43686">
        <ele>45.67</ele>
        <time>2020-07-10T10:38:26Z</time>
      </trkpt>
      <trkpt lat="47.79057" lon="-3.43681">
        <ele>45.85</ele>
        <time>2020-07-10T10:38:27Z</time>
      </trkpt>
      <trkpt lat="47.79059" lon="-3.43677">
        <ele>46.01</ele>
        <time>2020-07-10T10:38:28Z</time>
      </trkpt>
      <trkpt lat="47.79062" lon="-3.43673">
        <ele>46.13</ele>
        <time>2020-07-10T10:38:29Z</time>
      </trkpt>
      <trkpt lat="47.79063" lon="-3.4367">
        <ele>46.22</ele>
        <time>2020-07-10T10:38:30Z</time>
      </trkpt>
      <trkpt lat="47.79065" lon="-3.43667">
        <ele>46.26</ele>
        <time>2020-07-10T10:38:31Z</time>
      </trkpt>
      <trkpt lat="47.79066" lon="-3.43665">
        <ele>46.31</ele>
        <time>2020-07-10T10:38:32Z</time>
      </trkpt>
      <trkpt lat="47.79067" lon="-3.43662">
        <ele>46.4</ele>
        <time>2020-07-10T10:38:33Z</time>
      </trkpt>
      <trkpt lat="47.79067" lon="-3.4366">
        <ele>46.54</ele>
        <time>2020-07-10T10:38:34Z</time>
      </trkpt>
      <trkpt lat="47.79066" lon="-3.43656">
        <ele>46.77</ele>
        <time>2020-07-10T10:38:35Z</time>
      </trkpt>
      <trkpt lat="47.79065" lon="-3.43653">
        <ele>47.02</ele>
        <time>2020-07-10T10:38:36Z</time>
      </trkpt>
      <trkpt lat="47.79063" lon="-3.4365">
        <ele>47.33</ele>
        <time>2020-07-10T10:38:37Z</time>
      </trkpt>
      <trkpt lat="47.79063" lon="-3.43646">
        <ele>47.61</ele>
        <time>2020-07-10T10:38:38Z</time>
      </trkpt>
      <trkpt lat="47.79063" lon="-3.43643">
        <ele>47.84</ele>
        <time>2020-07-10T10:38:39Z</time>
      </trkpt>
      <trkpt lat="47.79063" lon="-3.4364">
        <ele>48.01</ele>
        <time>2020-07-10T10:38:40Z</time>
      </trkpt>
      <trkpt lat="47.79064" lon="-3.43638">
        <ele>48.13</ele>
        <time>2020-07-10T10:38:41Z</time>
      </trkpt>
      <trkpt lat="47.79065" lon="-3.43635">
        <ele>48.26</ele>
        <time>2020-07-10T10:38:42Z</time>
      </trkpt>
      <trkpt lat="47.79065" lon="-3.43632">
        <ele>48.43</ele>
        <time>2020-07-10T10:38:43Z</time>
      </trkpt>
      <trkpt lat="47.79066" lon="-3.43628">
        <ele>48.63</ele>
        <time>2020-07-10T10:38:44Z</time>
      </trkpt>
      <trkpt lat="47.79065" lon="-3.43625">
        <ele>48.85</ele>
        <time>2020-07-10T10:38:45Z</time>
      </trkpt>
      <trkpt lat="47.79065" lon="-3.43623">
        <ele>49.04</ele>
        <time>2020-07-10T10:38:46Z</time>
      </trkpt>
      <trkpt lat="47.79065" lon="-3.43622">
        <ele>49.16</ele>
        <time>2020-07-10T10:38:47Z</time>
      </trkpt>
      <trkpt lat="47.79065" lon="-3.43622">
        <ele>49.25</ele>
        <time>2020-07-10T10:38:48Z</time>
      </trkpt>
      <trkpt lat="47.79065" lon="-3.43622">
        <ele>49.27</ele>
        <time>2020-07-10T10:38:49Z</time>
      </trkpt>
      <trkpt lat="47.79065" lon="-3.43622">
        <ele>49.28</ele>
        <time>2020-07-10T10:38:50Z</time>
      </trkpt>
      <trkpt lat="47.79065" lon="-3.43622">
        <ele>49.28</ele>
        <time>2020-07-10T10:38:51Z</time>
      </trkpt>
      <trkpt lat="47.79065" lon="-3.43622">
        <ele>49.29</ele>
        <time>2020-07-10T10:38:52Z</time>
      </trkpt>
      <trkpt lat="47.79065" lon="-3.43622">
        <ele>49.29</ele>
        <time>2020-07-10T10:38:53Z</time>
      </trkpt>
      <trkpt lat="47.79065" lon="-3.43622">
        <ele>49.29</ele>
        <time>2020-07-10T10:38:54Z</time>
      </trkpt>
      <trkpt lat="47.79065" lon="-3.43622">
        <ele>49.29</ele>
        <time>2020-07-10T10:38:55Z</time>
      </trkpt>
      <trkpt lat="47.79065" lon="-3.43622">
        <ele>49.29</ele>
        <time>2020-07-10T10:38:56Z</time>
      </trkpt>
      <trkpt lat="47.79065" lon="-3.43622">
        <ele>49.29</ele>
        <time>2020-07-10T10:38:57Z</time>
      </trkpt>
      <trkpt lat="47.79065" lon="-3.43622">
        <ele>49.29</ele>
        <time>2020-07-10T10:38:58Z</time>
      </trkpt>
      <trkpt lat="47.79065" lon="-3.43622">
        <ele>49.29</ele>
        <time>2020-07-10T10:38:59Z</time>
      </trkpt>
      <trkpt lat="47.79065" lon="-3.43622">
        <ele>49.29</ele>
        <time>2020-07-10T10:39:00Z</time>
      </trkpt>
      <trkpt lat="47.79065" lon="-3.43622">
        <ele>49.29</ele>
        <time>2020-07-10T10:39:01Z</time>
      </trkpt>
      <trkpt lat="47.79065" lon="-3.43622">
        <ele>49.29</ele>
        <time>2020-07-10T10:39:02Z</time>
      </trkpt>
      <trkpt lat="47.79056" lon="-3.43617">
        <ele>50.15</ele>
        <time>2020-07-10T10:39:03Z</time>
      </trkpt>
      <trkpt lat="47.79053" lon="-3.43615">
        <ele>50.66</ele>
        <time>2020-07-10T10:39:04Z</time>
      </trkpt>
      <trkpt lat="47.79051" lon="-3.43615">
        <ele>50.96</ele>
        <time>2020-07-10T10:39:05Z</time>
      </trkpt>
      <trkpt lat="47.79049" lon="-3.43614">
        <ele>51.16</ele>
        <time>2020-07-10T10:39:06Z</time>
      </trkpt>
      <trkpt lat="47.79047" lon="-3.43614">
        <ele>51.36</ele>
        <time>2020-07-10T10:39:07Z</time>
      </trkpt>
      <trkpt lat="47.79045" lon="-3.43613">
        <ele>51.59</ele>
        <time>2020-07-10T10:39:08Z</time>
      </trkpt>
      <trkpt lat="47.79042" lon="-3.43612">
        <ele>51.81</ele>
        <time>2020-07-10T10:39:09Z</time>
      </trkpt>
      <trkpt lat="47.7904" lon="-3.4361">
        <ele>52.03</ele>
        <time>2020-07-10T10:39:10Z</time>
      </trkpt>
      <trkpt lat="47.79039" lon="-3.43608">
        <ele>52.21</ele>
        <time>2020-07-10T10:39:11Z</time>
      </trkpt>
      <trkpt lat="47.79038" lon="-3.43606">
        <ele>52.38</ele>
        <time>2020-07-10T10:39:12Z</time>
      </trkpt>
      <trkpt lat="47.79037" lon="-3.43604">
        <ele>52.54</ele>
        <time>2020-07-10T10:39:13Z</time>
      </trkpt>
      <trkpt lat="47.79036" lon="-3.43602">
        <ele>52.7</ele>
        <time>2020-07-10T10:39:14Z</time>
      </trkpt>
      <trkpt lat="47.79035" lon="-3.43599">
        <ele>52.83</ele>
        <time>2020-07-10T10:39:15Z</time>
      </trkpt>
      <trkpt lat="47.79035" lon="-3.43597">
        <ele>52.94</ele>
        <time>2020-07-10T10:39:16Z</time>
      </trkpt>
      <trkpt lat="47.79035" lon="-3.43595">
        <ele>53.02</ele>
        <time>2020-07-10T10:39:17Z</time>
      </trkpt>
      <trkpt lat="47.79036" lon="-3.43591">
        <ele>53.11</ele>
        <time>2020-07-10T10:39:18Z</time>
      </trkpt>
      <trkpt lat="47.79036" lon="-3.43587">
        <ele>53.22</ele>
        <time>2020-07-10T10:39:19Z</time>
      </trkpt>
      <trkpt lat="47.79037" lon="-3.43583">
        <ele>53.3</ele>
        <time>2020-07-10T10:39:20Z</time>
      </trkpt>
      <trkpt lat="47.79038" lon="-3.43579">
        <ele>53.41</ele>
        <time>2020-07-10T10:39:21Z</time>
      </trkpt>
      <trkpt lat="47.79038" lon="-3.43574">
        <ele>53.56</ele>
        <time>2020-07-10T10:39:22Z</time>
      </trkpt>
      <trkpt lat="47.79038" lon="-3.43571">
        <ele>53.69</ele>
        <time>2020-07-10T10:39:23Z</time>
      </trkpt>
      <trkpt lat="47.79037" lon="-3.43567">
        <ele>53.83</ele>
        <time>2020-07-10T10:39:24Z</time>
      </trkpt>
      <trkpt lat="47.79037" lon="-3.43563">
        <ele>53.97</ele>
        <time>2020-07-10T10:39:25Z</time>
      </trkpt>
      <trkpt lat="47.79037" lon="-3.43559">
        <ele>54.13</ele>
        <time>2020-07-10T10:39:26Z</time>
      </trkpt>
      <trkpt lat="47.79037" lon="-3.43555">
        <ele>54.3</ele>
        <time>2020-07-10T10:39:27Z</time>
      </trkpt>
      <trkpt lat="47.79037" lon="-3.43551">
        <ele>54.45</ele>
        <time>2020-07-10T10:39:28Z</time>
      </trkpt>
      <trkpt lat="47.79036" lon="-3.43547">
        <ele>54.62</ele>
        <time>2020-07-10T10:39:29Z</time>
      </trkpt>
      <trkpt lat="47.79037" lon="-3.43542">
        <ele>54.77</ele>
        <time>2020-07-10T10:39:30Z</time>
      </trkpt>
      <trkpt lat="47.79037" lon="-3.43537">
        <ele>54.93</ele>
        <time>2020-07-10T10:39:31Z</time>
      </trkpt>
      <trkpt lat="47.79037" lon="-3.43533">
        <ele>55.09</ele>
        <time>2020-07-10T10:39:32Z</time>
      </trkpt>
      <trkpt lat="47.79037" lon="-3.43528">
        <ele>55.25</ele>
        <time>2020-07-10T10:39:33Z</time>
      </trkpt>
      <trkpt lat="47.79037" lon="-3.43524">
        <ele>55.36</ele>
        <time>2020-07-10T10:39:34Z</time>
      </trkpt>
      <trkpt lat="47.79037" lon="-3.43521">
        <ele>55.47</ele>
        <time>2020-07-10T10:39:35Z</time>
      </trkpt>
      <trkpt lat="47.79036" lon="-3.43517">
        <ele>55.6</ele>
        <time>2020-07-10T10:39:36Z</time>
      </trkpt>
      <trkpt lat="47.79036" lon="-3.43513">
        <ele>55.75</ele>
        <time>2020-07-10T10:39:37Z</time>
      </trkpt>
      <trkpt lat="47.79035" lon="-3.43509">
        <ele>55.89</ele>
        <time>2020-07-10T10:39:38Z</time>
      </trkpt>
      <trkpt lat="47.79034" lon="-3.43506">
        <ele>56.06</ele>
        <time>2020-07-10T10:39:39Z</time>
      </trkpt>
      <trkpt lat="47.79034" lon="-3.43502">
        <ele>56.22</ele>
        <time>2020-07-10T10:39:40Z</time>
      </trkpt>
      <trkpt lat="47.79034" lon="-3.43497">
        <ele>56.27</ele>
        <time>2020-07-10T10:39:41Z</time>
      </trkpt>
      <trkpt lat="47.79035" lon="-3.43492">
        <ele>56.25</ele>
        <time>2020-07-10T10:39:42Z</time>
      </trkpt>
      <trkpt lat="47.79036" lon="-3.43488">
        <ele>56.17</ele>
        <time>2020-07-10T10:39:43Z</time>
      </trkpt>
      <trkpt lat="47.79036" lon="-3.43484">
        <ele>56.1</ele>
        <time>2020-07-10T10:39:44Z</time>
      </trkpt>
      <trkpt lat="47.79037" lon="-3.43479">
        <ele>56.05</ele>
        <time>2020-07-10T10:39:45Z</time>
      </trkpt>
      <trkpt lat="47.79037" lon="-3.43474">
        <ele>55.99</ele>
        <time>2020-07-10T10:39:46Z</time>
      </trkpt>
      <trkpt lat="47.79038" lon="-3.43469">
        <ele>56.01</ele>
        <time>2020-07-10T10:39:47Z</time>
      </trkpt>
      <trkpt lat="47.79039" lon="-3.43464">
        <ele>56.09</ele>
        <time>2020-07-10T10:39:48Z</time>
      </trkpt>
      <trkpt lat="47.79039" lon="-3.4346">
        <ele>56.18</ele>
        <time>2020-07-10T10:39:49Z</time>
      </trkpt>
      <trkpt lat="47.79041" lon="-3.43454">
        <ele>56.22</ele>
        <time>2020-07-10T10:39:50Z</time>
      </trkpt>
      <trkpt lat="47.79042" lon="-3.43449">
        <ele>56.29</ele>
        <time>2020-07-10T10:39:51Z</time>
      </trkpt>
      <trkpt lat="47.79042" lon="-3.43445">
        <ele>56.37</ele>
        <time>2020-07-10T10:39:52Z</time>
      </trkpt>
      <trkpt lat="47.79043" lon="-3.4344">
        <ele>56.32</ele>
        <time>2020-07-10T10:39:53Z</time>
      </trkpt>
      <trkpt lat="47.79044" lon="-3.43435">
        <ele>56.24</ele>
        <time>2020-07-10T10:39:54Z</time>
      </trkpt>
      <trkpt lat="47.79045" lon="-3.43431">
        <ele>56.17</ele>
        <time>2020-07-10T10:39:55Z</time>
      </trkpt>
      <trkpt lat="47.79046" lon="-3.43425">
        <ele>56.07</ele>
        <time>2020-07-10T10:39:56Z</time>
      </trkpt>
      <trkpt lat="47.79046" lon="-3.4342">
        <ele>56.03</ele>
        <time>2020-07-10T10:39:57Z</time>
      </trkpt>
      <trkpt lat="47.79047" lon="-3.43416">
        <ele>55.98</ele>
        <time>2020-07-10T10:39:58Z</time>
      </trkpt>
      <trkpt lat="47.79047" lon="-3.43412">
        <ele>55.95</ele>
        <time>2020-07-10T10:39:59Z</time>
      </trkpt>
      <trkpt lat="47.79047" lon="-3.43407">
        <ele>55.92</ele>
        <time>2020-07-10T10:40:00Z</time>
      </trkpt>
      <trkpt lat="47.79048" lon="-3.43403">
        <ele>55.89</ele>
        <time>2020-07-10T10:40:01Z</time>
      </trkpt>
      <trkpt lat="47.79048" lon="-3.43398">
        <ele>55.87</ele>
        <time>2020-07-10T10:40:02Z</time>
      </trkpt>
      <trkpt lat="47.79047" lon="-3.43394">
        <ele>55.88</ele>
        <time>2020-07-10T10:40:03Z</time>
      </trkpt>
      <trkpt lat="47.79047" lon="-3.43388">
        <ele>55.89</ele>
        <time>2020-07-10T10:40:04Z</time>
      </trkpt>
      <trkpt lat="47.79046" lon="-3.4338">
        <ele>55.72</ele>
        <time>2020-07-10T10:40:05Z</time>
      </trkpt>
      <trkpt lat="47.79046" lon="-3.43373">
        <ele>55.58</ele>
        <time>2020-07-10T10:40:06Z</time>
      </trkpt>
      <trkpt lat="47.79046" lon="-3.43369">
        <ele>55.43</ele>
        <time>2020-07-10T10:40:07Z</time>
      </trkpt>
      <trkpt lat="47.79046" lon="-3.43365">
        <ele>55.27</ele>
        <time>2020-07-10T10:40:08Z</time>
      </trkpt>
      <trkpt lat="47.79046" lon="-3.43361">
        <ele>55.11</ele>
        <time>2020-07-10T10:40:09Z</time>
      </trkpt>
      <trkpt lat="47.79046" lon="-3.43356">
        <ele>54.95</ele>
        <time>2020-07-10T10:40:10Z</time>
      </trkpt>
      <trkpt lat="47.79045" lon="-3.43351">
        <ele>54.91</ele>
        <time>2020-07-10T10:40:11Z</time>
      </trkpt>
      <trkpt lat="47.79045" lon="-3.43346">
        <ele>54.87</ele>
        <time>2020-07-10T10:40:12Z</time>
      </trkpt>
      <trkpt lat="47.79043" lon="-3.43342">
        <ele>54.91</ele>
        <time>2020-07-10T10:40:13Z</time>
      </trkpt>
      <trkpt lat="47.79042" lon="-3.43338">
        <ele>55.03</ele>
        <time>2020-07-10T10:40:14Z</time>
      </trkpt>
      <trkpt lat="47.7904" lon="-3.43333">
        <ele>55.16</ele>
        <time>2020-07-10T10:40:15Z</time>
      </trkpt>
      <trkpt lat="47.79038" lon="-3.43327">
        <ele>55.29</ele>
        <time>2020-07-10T10:40:16Z</time>
      </trkpt>
      <trkpt lat="47.79034" lon="-3.4332">
        <ele>55.51</ele>
        <time>2020-07-10T10:40:17Z</time>
      </trkpt>
      <trkpt lat="47.79032" lon="-3.43317">
        <ele>55.69</ele>
        <time>2020-07-10T10:40:18Z</time>
      </trkpt>
      <trkpt lat="47.79029" lon="-3.43311">
        <ele>55.95</ele>
        <time>2020-07-10T10:40:19Z</time>
      </trkpt>
      <trkpt lat="47.79026" lon="-3.43305">
        <ele>56.09</ele>
        <time>2020-07-10T10:40:20Z</time>
      </trkpt>
      <trkpt lat="47.79023" lon="-3.433">
        <ele>56.24</ele>
        <time>2020-07-10T10:40:21Z</time>
      </trkpt>
      <trkpt lat="47.79022" lon="-3.43297">
        <ele>56.35</ele>
        <time>2020-07-10T10:40:22Z</time>
      </trkpt>
      <trkpt lat="47.79022" lon="-3.43292">
        <ele>56.41</ele>
        <time>2020-07-10T10:40:23Z</time>
      </trkpt>
      <trkpt lat="47.7902" lon="-3.43288">
        <ele>56.51</ele>
        <time>2020-07-10T10:40:24Z</time>
      </trkpt>
      <trkpt lat="47.79019" lon="-3.43284">
        <ele>56.62</ele>
        <time>2020-07-10T10:40:25Z</time>
      </trkpt>
      <trkpt lat="47.79016" lon="-3.43279">
        <ele>56.78</ele>
        <time>2020-07-10T10:40:26Z</time>
      </trkpt>
      <trkpt lat="47.79013" lon="-3.43274">
        <ele>56.88</ele>
        <time>2020-07-10T10:40:27Z</time>
      </trkpt>
      <trkpt lat="47.7901" lon="-3.43269">
        <ele>56.91</ele>
        <time>2020-07-10T10:40:28Z</time>
      </trkpt>
      <trkpt lat="47.79008" lon="-3.43264">
        <ele>56.94</ele>
        <time>2020-07-10T10:40:29Z</time>
      </trkpt>
      <trkpt lat="47.79005" lon="-3.43258">
        <ele>56.94</ele>
        <time>2020-07-10T10:40:30Z</time>
      </trkpt>
      <trkpt lat="47.79003" lon="-3.43253">
        <ele>56.93</ele>
        <time>2020-07-10T10:40:31Z</time>
      </trkpt>
      <trkpt lat="47.79" lon="-3.43248">
        <ele>56.98</ele>
        <time>2020-07-10T10:40:32Z</time>
      </trkpt>
      <trkpt lat="47.78997" lon="-3.43242">
        <ele>57.13</ele>
        <time>2020-07-10T10:40:33Z</time>
      </trkpt>
      <trkpt lat="47.78996" lon="-3.43237">
        <ele>57.26</ele>
        <time>2020-07-10T10:40:34Z</time>
      </trkpt>
      <trkpt lat="47.78993" lon="-3.43232">
        <ele>57.4</ele>
        <time>2020-07-10T10:40:35Z</time>
      </trkpt>
      <trkpt lat="47.78991" lon="-3.43226">
        <ele>57.56</ele>
        <time>2020-07-10T10:40:36Z</time>
      </trkpt>
      <trkpt lat="47.78989" lon="-3.4322">
        <ele>57.71</ele>
        <time>2020-07-10T10:40:37Z</time>
      </trkpt>
      <trkpt lat="47.78987" lon="-3.43214">
        <ele>57.89</ele>
        <time>2020-07-10T10:40:38Z</time>
      </trkpt>
      <trkpt lat="47.78983" lon="-3.43208">
        <ele>58.11</ele>
        <time>2020-07-10T10:40:39Z</time>
      </trkpt>
      <trkpt lat="47.78981" lon="-3.43202">
        <ele>58.31</ele>
        <time>2020-07-10T10:40:40Z</time>
      </trkpt>
      <trkpt lat="47.78978" lon="-3.43198">
        <ele>58.51</ele>
        <time>2020-07-10T10:40:41Z</time>
      </trkpt>
      <trkpt lat="47.78974" lon="-3.43194">
        <ele>58.75</ele>
        <time>2020-07-10T10:40:42Z</time>
      </trkpt>
      <trkpt lat="47.78971" lon="-3.43189">
        <ele>58.82</ele>
        <time>2020-07-10T10:40:43Z</time>
      </trkpt>
      <trkpt lat="47.7897" lon="-3.43184">
        <ele>58.75</ele>
        <time>2020-07-10T10:40:44Z</time>
      </trkpt>
      <trkpt lat="47.7897" lon="-3.43178">
        <ele>58.58</ele>
        <time>2020-07-10T10:40:45Z</time>
      </trkpt>
      <trkpt lat="47.7897" lon="-3.43172">
        <ele>58.37</ele>
        <time>2020-07-10T10:40:46Z</time>
      </trkpt>
      <trkpt lat="47.7897" lon="-3.43167">
        <ele>58.18</ele>
        <time>2020-07-10T10:40:47Z</time>
      </trkpt>
      <trkpt lat="47.78971" lon="-3.43163">
        <ele>58</ele>
        <time>2020-07-10T10:40:48Z</time>
      </trkpt>
      <trkpt lat="47.7897" lon="-3.43159">
        <ele>57.87</ele>
        <time>2020-07-10T10:40:49Z</time>
      </trkpt>
      <trkpt lat="47.7897" lon="-3.43156">
        <ele>57.77</ele>
        <time>2020-07-10T10:40:50Z</time>
      </trkpt>
      <trkpt lat="47.78969" lon="-3.43153">
        <ele>57.7</ele>
        <time>2020-07-10T10:40:51Z</time>
      </trkpt>
      <trkpt lat="47.78969" lon="-3.43153">
        <ele>57.69</ele>
        <time>2020-07-10T10:40:52Z</time>
      </trkpt>
      <trkpt lat="47.78969" lon="-3.43153">
        <ele>57.68</ele>
        <time>2020-07-10T10:40:53Z</time>
      </trkpt>
      <trkpt lat="47.78969" lon="-3.43153">
        <ele>57.68</ele>
        <time>2020-07-10T10:40:54Z</time>
      </trkpt>
      <trkpt lat="47.78969" lon="-3.43153">
        <ele>57.68</ele>
        <time>2020-07-10T10:40:55Z</time>
      </trkpt>
      <trkpt lat="47.78969" lon="-3.43153">
        <ele>57.68</ele>
        <time>2020-07-10T10:40:56Z</time>
      </trkpt>
      <trkpt lat="47.78969" lon="-3.43153">
        <ele>57.68</ele>
        <time>2020-07-10T10:40:57Z</time>
      </trkpt>
      <trkpt lat="47.78969" lon="-3.43153">
        <ele>57.68</ele>
        <time>2020-07-10T10:40:58Z</time>
      </trkpt>
      <trkpt lat="47.78969" lon="-3.43153">
        <ele>57.68</ele>
        <time>2020-07-10T10:40:59Z</time>
      </trkpt>
      <trkpt lat="47.78969" lon="-3.43153">
        <ele>57.68</ele>
        <time>2020-07-10T10:41:00Z</time>
      </trkpt>
      <trkpt lat="47.78969" lon="-3.43153">
        <ele>57.68</ele>
        <time>2020-07-10T10:41:01Z</time>
      </trkpt>
      <trkpt lat="47.78969" lon="-3.43153">
        <ele>57.68</ele>
        <time>2020-07-10T10:41:02Z</time>
      </trkpt>
      <trkpt lat="47.78969" lon="-3.43153">
        <ele>57.68</ele>
        <time>2020-07-10T10:41:03Z</time>
      </trkpt>
      <trkpt lat="47.78969" lon="-3.43153">
        <ele>57.68</ele>
        <time>2020-07-10T10:41:04Z</time>
      </trkpt>
      <trkpt lat="47.78969" lon="-3.43153">
        <ele>57.68</ele>
        <time>2020-07-10T10:41:05Z</time>
      </trkpt>
      <trkpt lat="47.78969" lon="-3.43153">
        <ele>57.68</ele>
        <time>2020-07-10T10:41:06Z</time>
      </trkpt>
      <trkpt lat="47.78969" lon="-3.43153">
        <ele>57.68</ele>
        <time>2020-07-10T10:41:07Z</time>
      </trkpt>
      <trkpt lat="47.78969" lon="-3.43153">
        <ele>57.68</ele>
        <time>2020-07-10T10:41:08Z</time>
      </trkpt>
      <trkpt lat="47.78969" lon="-3.43153">
        <ele>57.68</ele>
        <time>2020-07-10T10:41:09Z</time>
      </trkpt>
      <trkpt lat="47.78969" lon="-3.43153">
        <ele>57.68</ele>
        <time>2020-07-10T10:41:10Z</time>
      </trkpt>
      <trkpt lat="47.78969" lon="-3.43153">
        <ele>57.68</ele>
        <time>2020-07-10T10:41:11Z</time>
      </trkpt>
      <trkpt lat="47.78969" lon="-3.43153">
        <ele>57.68</ele>
        <time>2020-07-10T10:41:12Z</time>
      </trkpt>
      <trkpt lat="47.78969" lon="-3.43153">
        <ele>57.68</ele>
        <time>2020-07-10T10:41:13Z</time>
      </trkpt>
      <trkpt lat="47.78969" lon="-3.43153">
        <ele>57.68</ele>
        <time>2020-07-10T10:41:14Z</time>
      </trkpt>
      <trkpt lat="47.78969" lon="-3.43153">
        <ele>57.68</ele>
        <time>2020-07-10T10:41:15Z</time>
      </trkpt>
      <trkpt lat="47.78969" lon="-3.43153">
        <ele>57.68</ele>
        <time>2020-07-10T10:41:16Z</time>
      </trkpt>
      <trkpt lat="47.78969" lon="-3.43153">
        <ele>57.68</ele>
        <time>2020-07-10T10:41:17Z</time>
      </trkpt>
      <trkpt lat="47.78969" lon="-3.43153">
        <ele>57.68</ele>
        <time>2020-07-10T10:41:18Z</time>
      </trkpt>
      <trkpt lat="47.78969" lon="-3.43153">
        <ele>57.68</ele>
        <time>2020-07-10T10:41:19Z</time>
      </trkpt>
      <trkpt lat="47.78969" lon="-3.43153">
        <ele>57.68</ele>
        <time>2020-07-10T10:41:20Z</time>
      </trkpt>
      <trkpt lat="47.78969" lon="-3.43153">
        <ele>57.68</ele>
        <time>2020-07-10T10:41:21Z</time>
      </trkpt>
      <trkpt lat="47.78969" lon="-3.43153">
        <ele>57.68</ele>
        <time>2020-07-10T10:41:22Z</time>
      </trkpt>
      <trkpt lat="47.78969" lon="-3.43153">
        <ele>57.68</ele>
        <time>2020-07-10T10:41:23Z</time>
      </trkpt>
      <trkpt lat="47.78969" lon="-3.43153">
        <ele>57.68</ele>
        <time>2020-07-10T10:41:24Z</time>
      </trkpt>
      <trkpt lat="47.78969" lon="-3.43153">
        <ele>57.68</ele>
        <time>2020-07-10T10:41:25Z</time>
      </trkpt>
      <trkpt lat="47.78969" lon="-3.43153">
        <ele>57.68</ele>
        <time>2020-07-10T10:41:26Z</time>
      </trkpt>
      <trkpt lat="47.78976" lon="-3.43143">
        <ele>57.01</ele>
        <time>2020-07-10T10:41:27Z</time>
      </trkpt>
      <trkpt lat="47.78978" lon="-3.43141">
        <ele>56.61</ele>
        <time>2020-07-10T10:41:28Z</time>
      </trkpt>
      <trkpt lat="47.7898" lon="-3.43137">
        <ele>56.28</ele>
        <time>2020-07-10T10:41:29Z</time>
      </trkpt>
      <trkpt lat="47.78982" lon="-3.43131">
        <ele>55.98</ele>
        <time>2020-07-10T10:41:30Z</time>
      </trkpt>
      <trkpt lat="47.78984" lon="-3.43126">
        <ele>55.68</ele>
        <time>2020-07-10T10:41:31Z</time>
      </trkpt>
      <trkpt lat="47.78986" lon="-3.43121">
        <ele>55.34</ele>
        <time>2020-07-10T10:41:32Z</time>
      </trkpt>
      <trkpt lat="47.78989" lon="-3.43115">
        <ele>54.86</ele>
        <time>2020-07-10T10:41:33Z</time>
      </trkpt>
      <trkpt lat="47.78991" lon="-3.43109">
        <ele>54.37</ele>
        <time>2020-07-10T10:41:34Z</time>
      </trkpt>
      <trkpt lat="47.78994" lon="-3.43104">
        <ele>53.83</ele>
        <time>2020-07-10T10:41:35Z</time>
      </trkpt>
      <trkpt lat="47.78998" lon="-3.43099">
        <ele>53.14</ele>
        <time>2020-07-10T10:41:36Z</time>
      </trkpt>
      <trkpt lat="47.79001" lon="-3.43093">
        <ele>52.54</ele>
        <time>2020-07-10T10:41:37Z</time>
      </trkpt>
      <trkpt lat="47.79004" lon="-3.43088">
        <ele>52.07</ele>
        <time>2020-07-10T10:41:38Z</time>
      </trkpt>
      <trkpt lat="47.79008" lon="-3.43081">
        <ele>51.6</ele>
        <time>2020-07-10T10:41:39Z</time>
      </trkpt>
      <trkpt lat="47.79012" lon="-3.43076">
        <ele>51.28</ele>
        <time>2020-07-10T10:41:40Z</time>
      </trkpt>
      <trkpt lat="47.79016" lon="-3.43071">
        <ele>50.98</ele>
        <time>2020-07-10T10:41:41Z</time>
      </trkpt>
      <trkpt lat="47.7902" lon="-3.43067">
        <ele>50.69</ele>
        <time>2020-07-10T10:41:42Z</time>
      </trkpt>
      <trkpt lat="47.79022" lon="-3.43061">
        <ele>50.52</ele>
        <time>2020-07-10T10:41:43Z</time>
      </trkpt>
      <trkpt lat="47.79022" lon="-3.43054">
        <ele>50.39</ele>
        <time>2020-07-10T10:41:44Z</time>
      </trkpt>
      <trkpt lat="47.79021" lon="-3.43045">
        <ele>50.17</ele>
        <time>2020-07-10T10:41:45Z</time>
      </trkpt>
      <trkpt lat="47.7902" lon="-3.43036">
        <ele>49.95</ele>
        <time>2020-07-10T10:41:46Z</time>
      </trkpt>
      <trkpt lat="47.79018" lon="-3.43029">
        <ele>49.81</ele>
        <time>2020-07-10T10:41:47Z</time>
      </trkpt>
      <trkpt lat="47.79015" lon="-3.43022">
        <ele>49.72</ele>
        <time>2020-07-10T10:41:48Z</time>
      </trkpt>
      <trkpt lat="47.79013" lon="-3.43015">
        <ele>49.63</ele>
        <time>2020-07-10T10:41:49Z</time>
      </trkpt>
      <trkpt lat="47.7901" lon="-3.43007">
        <ele>49.55</ele>
        <time>2020-07-10T10:41:50Z</time>
      </trkpt>
      <trkpt lat="47.79008" lon="-3.43001">
        <ele>49.48</ele>
        <time>2020-07-10T10:41:51Z</time>
      </trkpt>
      <trkpt lat="47.79006" lon="-3.42995">
        <ele>49.42</ele>
        <time>2020-07-10T10:41:52Z</time>
      </trkpt>
      <trkpt lat="47.79004" lon="-3.42988">
        <ele>49.34</ele>
        <time>2020-07-10T10:41:53Z</time>
      </trkpt>
      <trkpt lat="47.79" lon="-3.42981">
        <ele>49.31</ele>
        <time>2020-07-10T10:41:54Z</time>
      </trkpt>
      <trkpt lat="47.78997" lon="-3.42975">
        <ele>49.26</ele>
        <time>2020-07-10T10:41:55Z</time>
      </trkpt>
      <trkpt lat="47.78994" lon="-3.42969">
        <ele>49.15</ele>
        <time>2020-07-10T10:41:56Z</time>
      </trkpt>
      <trkpt lat="47.78991" lon="-3.42964">
        <ele>49</ele>
        <time>2020-07-10T10:41:57Z</time>
      </trkpt>
      <trkpt lat="47.78987" lon="-3.42957">
        <ele>48.77</ele>
        <time>2020-07-10T10:41:58Z</time>
      </trkpt>
      <trkpt lat="47.78984" lon="-3.4295">
        <ele>48.46</ele>
        <time>2020-07-10T10:41:59Z</time>
      </trkpt>
      <trkpt lat="47.7898" lon="-3.42942">
        <ele>48.1</ele>
        <time>2020-07-10T10:42:00Z</time>
      </trkpt>
      <trkpt lat="47.78977" lon="-3.42933">
        <ele>47.93</ele>
        <time>2020-07-10T10:42:01Z</time>
      </trkpt>
      <trkpt lat="47.78973" lon="-3.42924">
        <ele>47.94</ele>
        <time>2020-07-10T10:42:02Z</time>
      </trkpt>
      <trkpt lat="47.7897" lon="-3.42916">
        <ele>48.13</ele>
        <time>2020-07-10T10:42:03Z</time>
      </trkpt>
      <trkpt lat="47.78968" lon="-3.4291">
        <ele>48.14</ele>
        <time>2020-07-10T10:42:04Z</time>
      </trkpt>
      <trkpt lat="47.78967" lon="-3.42904">
        <ele>48.04</ele>
        <time>2020-07-10T10:42:05Z</time>
      </trkpt>
      <trkpt lat="47.78965" lon="-3.42898">
        <ele>47.95</ele>
        <time>2020-07-10T10:42:06Z</time>
      </trkpt>
      <trkpt lat="47.78965" lon="-3.42893">
        <ele>47.8</ele>
        <time>2020-07-10T10:42:07Z</time>
      </trkpt>
      <trkpt lat="47.78966" lon="-3.42885">
        <ele>47.39</ele>
        <time>2020-07-10T10:42:08Z</time>
      </trkpt>
      <trkpt lat="47.78969" lon="-3.42882">
        <ele>46.96</ele>
        <time>2020-07-10T10:42:09Z</time>
      </trkpt>
      <trkpt lat="47.78972" lon="-3.42882">
        <ele>46.66</ele>
        <time>2020-07-10T10:42:10Z</time>
      </trkpt>
      <trkpt lat="47.78977" lon="-3.42887">
        <ele>46.57</ele>
        <time>2020-07-10T10:42:11Z</time>
      </trkpt>
      <trkpt lat="47.78983" lon="-3.42892">
        <ele>46.42</ele>
        <time>2020-07-10T10:42:12Z</time>
      </trkpt>
      <trkpt lat="47.78986" lon="-3.42895">
        <ele>46.27</ele>
        <time>2020-07-10T10:42:13Z</time>
      </trkpt>
      <trkpt lat="47.78991" lon="-3.42899">
        <ele>46.08</ele>
        <time>2020-07-10T10:42:14Z</time>
      </trkpt>
      <trkpt lat="47.78996" lon="-3.42903">
        <ele>45.88</ele>
        <time>2020-07-10T10:42:15Z</time>
      </trkpt>
      <trkpt lat="47.79" lon="-3.42906">
        <ele>45.71</ele>
        <time>2020-07-10T10:42:16Z</time>
      </trkpt>
      <trkpt lat="47.79003" lon="-3.4291">
        <ele>45.7</ele>
        <time>2020-07-10T10:42:17Z</time>
      </trkpt>
      <trkpt lat="47.79004" lon="-3.42914">
        <ele>45.75</ele>
        <time>2020-07-10T10:42:18Z</time>
      </trkpt>
      <trkpt lat="47.79007" lon="-3.42919">
        <ele>45.86</ele>
        <time>2020-07-10T10:42:19Z</time>
      </trkpt>
      <trkpt lat="47.79012" lon="-3.42924">
        <ele>45.97</ele>
        <time>2020-07-10T10:42:20Z</time>
      </trkpt>
      <trkpt lat="47.79016" lon="-3.42929">
        <ele>46.02</ele>
        <time>2020-07-10T10:42:21Z</time>
      </trkpt>
      <trkpt lat="47.7902" lon="-3.42933">
        <ele>46.01</ele>
        <time>2020-07-10T10:42:22Z</time>
      </trkpt>
      <trkpt lat="47.79025" lon="-3.42935">
        <ele>45.9</ele>
        <time>2020-07-10T10:42:23Z</time>
      </trkpt>
      <trkpt lat="47.7903" lon="-3.42936">
        <ele>45.78</ele>
        <time>2020-07-10T10:42:24Z</time>
      </trkpt>
      <trkpt lat="47.79036" lon="-3.42936">
        <ele>45.78</ele>
        <time>2020-07-10T10:42:25Z</time>
      </trkpt>
      <trkpt lat="47.79041" lon="-3.42936">
        <ele>45.82</ele>
        <time>2020-07-10T10:42:26Z</time>
      </trkpt>
      <trkpt lat="47.79047" lon="-3.42935">
        <ele>45.87</ele>
        <time>2020-07-10T10:42:27Z</time>
      </trkpt>
      <trkpt lat="47.79052" lon="-3.42934">
        <ele>45.93</ele>
        <time>2020-07-10T10:42:28Z</time>
      </trkpt>
      <trkpt lat="47.79057" lon="-3.42934">
        <ele>46.01</ele>
        <time>2020-07-10T10:42:29Z</time>
      </trkpt>
      <trkpt lat="47.79061" lon="-3.42934">
        <ele>46.14</ele>
        <time>2020-07-10T10:42:30Z</time>
      </trkpt>
      <trkpt lat="47.79066" lon="-3.42933">
        <ele>46.29</ele>
        <time>2020-07-10T10:42:31Z</time>
      </trkpt>
      <trkpt lat="47.79069" lon="-3.42933">
        <ele>46.44</ele>
        <time>2020-07-10T10:42:32Z</time>
      </trkpt>
      <trkpt lat="47.79073" lon="-3.42932">
        <ele>46.58</ele>
        <time>2020-07-10T10:42:33Z</time>
      </trkpt>
      <trkpt lat="47.79078" lon="-3.42932">
        <ele>46.73</ele>
        <time>2020-07-10T10:42:34Z</time>
      </trkpt>
      <trkpt lat="47.79082" lon="-3.42932">
        <ele>46.87</ele>
        <time>2020-07-10T10:42:35Z</time>
      </trkpt>
      <trkpt lat="47.79086" lon="-3.42932">
        <ele>46.99</ele>
        <time>2020-07-10T10:42:36Z</time>
      </trkpt>
      <trkpt lat="47.7909" lon="-3.42931">
        <ele>47.08</ele>
        <time>2020-07-10T10:42:37Z</time>
      </trkpt>
      <trkpt lat="47.79095" lon="-3.4293">
        <ele>47.16</ele>
        <time>2020-07-10T10:42:38Z</time>
      </trkpt>
      <trkpt lat="47.79099" lon="-3.42929">
        <ele>47.23</ele>
        <time>2020-07-10T10:42:39Z</time>
      </trkpt>
      <trkpt lat="47.79104" lon="-3.42928">
        <ele>47.28</ele>
        <time>2020-07-10T10:42:40Z</time>
      </trkpt>
      <trkpt lat="47.79108" lon="-3.42928">
        <ele>47.33</ele>
        <time>2020-07-10T10:42:41Z</time>
      </trkpt>
      <trkpt lat="47.79113" lon="-3.42927">
        <ele>47.4</ele>
        <time>2020-07-10T10:42:42Z</time>
      </trkpt>
      <trkpt lat="47.79117" lon="-3.42926">
        <ele>47.52</ele>
        <time>2020-07-10T10:42:43Z</time>
      </trkpt>
      <trkpt lat="47.79122" lon="-3.42926">
        <ele>47.68</ele>
        <time>2020-07-10T10:42:44Z</time>
      </trkpt>
      <trkpt lat="47.79127" lon="-3.42926">
        <ele>47.85</ele>
        <time>2020-07-10T10:42:45Z</time>
      </trkpt>
      <trkpt lat="47.79132" lon="-3.42926">
        <ele>48.03</ele>
        <time>2020-07-10T10:42:46Z</time>
      </trkpt>
      <trkpt lat="47.79137" lon="-3.42926">
        <ele>48.21</ele>
        <time>2020-07-10T10:42:47Z</time>
      </trkpt>
      <trkpt lat="47.79142" lon="-3.42926">
        <ele>48.31</ele>
        <time>2020-07-10T10:42:48Z</time>
      </trkpt>
      <trkpt lat="47.79146" lon="-3.42927">
        <ele>48.36</ele>
        <time>2020-07-10T10:42:49Z</time>
      </trkpt>
      <trkpt lat="47.79151" lon="-3.42928">
        <ele>48.4</ele>
        <time>2020-07-10T10:42:50Z</time>
      </trkpt>
      <trkpt lat="47.79156" lon="-3.4293">
        <ele>48.44</ele>
        <time>2020-07-10T10:42:51Z</time>
      </trkpt>
      <trkpt lat="47.7916" lon="-3.4293">
        <ele>48.48</ele>
        <time>2020-07-10T10:42:52Z</time>
      </trkpt>
      <trkpt lat="47.79165" lon="-3.42932">
        <ele>48.53</ele>
        <time>2020-07-10T10:42:53Z</time>
      </trkpt>
      <trkpt lat="47.7917" lon="-3.42934">
        <ele>48.68</ele>
        <time>2020-07-10T10:42:54Z</time>
      </trkpt>
      <trkpt lat="47.79175" lon="-3.42936">
        <ele>48.89</ele>
        <time>2020-07-10T10:42:55Z</time>
      </trkpt>
      <trkpt lat="47.7918" lon="-3.42937">
        <ele>49.11</ele>
        <time>2020-07-10T10:42:56Z</time>
      </trkpt>
      <trkpt lat="47.79185" lon="-3.42939">
        <ele>49.36</ele>
        <time>2020-07-10T10:42:57Z</time>
      </trkpt>
      <trkpt lat="47.7919" lon="-3.42941">
        <ele>49.6</ele>
        <time>2020-07-10T10:42:58Z</time>
      </trkpt>
      <trkpt lat="47.79195" lon="-3.42942">
        <ele>49.84</ele>
        <time>2020-07-10T10:42:59Z</time>
      </trkpt>
      <trkpt lat="47.79199" lon="-3.42946">
        <ele>50.11</ele>
        <time>2020-07-10T10:43:00Z</time>
      </trkpt>
      <trkpt lat="47.79204" lon="-3.42948">
        <ele>50.35</ele>
        <time>2020-07-10T10:43:01Z</time>
      </trkpt>
      <trkpt lat="47.79209" lon="-3.42949">
        <ele>50.59</ele>
        <time>2020-07-10T10:43:02Z</time>
      </trkpt>
      <trkpt lat="47.79214" lon="-3.42951">
        <ele>50.82</ele>
        <time>2020-07-10T10:43:03Z</time>
      </trkpt>
      <trkpt lat="47.79219" lon="-3.42952">
        <ele>51.03</ele>
        <time>2020-07-10T10:43:04Z</time>
      </trkpt>
      <trkpt lat="47.79222" lon="-3.42952">
        <ele>51.2</ele>
        <time>2020-07-10T10:43:05Z</time>
      </trkpt>
      <trkpt lat="47.79227" lon="-3.42952">
        <ele>51.26</ele>
        <time>2020-07-10T10:43:06Z</time>
      </trkpt>
      <trkpt lat="47.79232" lon="-3.42953">
        <ele>51.3</ele>
        <time>2020-07-10T10:43:07Z</time>
      </trkpt>
      <trkpt lat="47.79237" lon="-3.42954">
        <ele>51.32</ele>
        <time>2020-07-10T10:43:08Z</time>
      </trkpt>
      <trkpt lat="47.79242" lon="-3.42954">
        <ele>51.33</ele>
        <time>2020-07-10T10:43:09Z</time>
      </trkpt>
      <trkpt lat="47.79246" lon="-3.42954">
        <ele>51.33</ele>
        <time>2020-07-10T10:43:10Z</time>
      </trkpt>
      <trkpt lat="47.79251" lon="-3.42953">
        <ele>51.3</ele>
        <time>2020-07-10T10:43:11Z</time>
      </trkpt>
      <trkpt lat="47.79256" lon="-3.42952">
        <ele>51.23</ele>
        <time>2020-07-10T10:43:12Z</time>
      </trkpt>
      <trkpt lat="47.79261" lon="-3.4295">
        <ele>51.15</ele>
        <time>2020-07-10T10:43:13Z</time>
      </trkpt>
      <trkpt lat="47.79266" lon="-3.42948">
        <ele>51.08</ele>
        <time>2020-07-10T10:43:14Z</time>
      </trkpt>
      <trkpt lat="47.79271" lon="-3.42945">
        <ele>51.03</ele>
        <time>2020-07-10T10:43:15Z</time>
      </trkpt>
      <trkpt lat="47.79276" lon="-3.42942">
        <ele>50.94</ele>
        <time>2020-07-10T10:43:16Z</time>
      </trkpt>
      <trkpt lat="47.7928" lon="-3.42939">
        <ele>50.79</ele>
        <time>2020-07-10T10:43:17Z</time>
      </trkpt>
      <trkpt lat="47.79284" lon="-3.42934">
        <ele>50.58</ele>
        <time>2020-07-10T10:43:18Z</time>
      </trkpt>
      <trkpt lat="47.79288" lon="-3.42931">
        <ele>50.4</ele>
        <time>2020-07-10T10:43:19Z</time>
      </trkpt>
      <trkpt lat="47.79293" lon="-3.42928">
        <ele>50.25</ele>
        <time>2020-07-10T10:43:20Z</time>
      </trkpt>
      <trkpt lat="47.79298" lon="-3.42926">
        <ele>50.14</ele>
        <time>2020-07-10T10:43:21Z</time>
      </trkpt>
      <trkpt lat="47.79302" lon="-3.42921">
        <ele>50.06</ele>
        <time>2020-07-10T10:43:22Z</time>
      </trkpt>
      <trkpt lat="47.79306" lon="-3.42916">
        <ele>49.99</ele>
        <time>2020-07-10T10:43:23Z</time>
      </trkpt>
      <trkpt lat="47.79311" lon="-3.42912">
        <ele>49.74</ele>
        <time>2020-07-10T10:43:24Z</time>
      </trkpt>
      <trkpt lat="47.79316" lon="-3.42908">
        <ele>49.46</ele>
        <time>2020-07-10T10:43:25Z</time>
      </trkpt>
      <trkpt lat="47.79321" lon="-3.42904">
        <ele>49.15</ele>
        <time>2020-07-10T10:43:26Z</time>
      </trkpt>
      <trkpt lat="47.79325" lon="-3.42901">
        <ele>48.86</ele>
        <time>2020-07-10T10:43:27Z</time>
      </trkpt>
      <trkpt lat="47.7933" lon="-3.42898">
        <ele>48.57</ele>
        <time>2020-07-10T10:43:28Z</time>
      </trkpt>
      <trkpt lat="47.79335" lon="-3.42896">
        <ele>48.31</ele>
        <time>2020-07-10T10:43:29Z</time>
      </trkpt>
      <trkpt lat="47.79339" lon="-3.42893">
        <ele>48.04</ele>
        <time>2020-07-10T10:43:30Z</time>
      </trkpt>
      <trkpt lat="47.79343" lon="-3.42888">
        <ele>47.76</ele>
        <time>2020-07-10T10:43:31Z</time>
      </trkpt>
      <trkpt lat="47.79347" lon="-3.42884">
        <ele>47.47</ele>
        <time>2020-07-10T10:43:32Z</time>
      </trkpt>
      <trkpt lat="47.7935" lon="-3.42878">
        <ele>47.16</ele>
        <time>2020-07-10T10:43:33Z</time>
      </trkpt>
      <trkpt lat="47.79352" lon="-3.42873">
        <ele>46.87</ele>
        <time>2020-07-10T10:43:34Z</time>
      </trkpt>
      <trkpt lat="47.79351" lon="-3.42866">
        <ele>46.64</ele>
        <time>2020-07-10T10:43:35Z</time>
      </trkpt>
      <trkpt lat="47.79349" lon="-3.4286">
        <ele>46.46</ele>
        <time>2020-07-10T10:43:36Z</time>
      </trkpt>
      <trkpt lat="47.79345" lon="-3.42854">
        <ele>46.36</ele>
        <time>2020-07-10T10:43:37Z</time>
      </trkpt>
      <trkpt lat="47.79341" lon="-3.42847">
        <ele>46.27</ele>
        <time>2020-07-10T10:43:38Z</time>
      </trkpt>
      <trkpt lat="47.79337" lon="-3.42841">
        <ele>46.19</ele>
        <time>2020-07-10T10:43:39Z</time>
      </trkpt>
      <trkpt lat="47.79332" lon="-3.42835">
        <ele>46.12</ele>
        <time>2020-07-10T10:43:40Z</time>
      </trkpt>
      <trkpt lat="47.79328" lon="-3.42828">
        <ele>46.02</ele>
        <time>2020-07-10T10:43:41Z</time>
      </trkpt>
      <trkpt lat="47.79324" lon="-3.42821">
        <ele>45.82</ele>
        <time>2020-07-10T10:43:42Z</time>
      </trkpt>
      <trkpt lat="47.79319" lon="-3.42814">
        <ele>45.56</ele>
        <time>2020-07-10T10:43:43Z</time>
      </trkpt>
      <trkpt lat="47.79314" lon="-3.42806">
        <ele>45.2</ele>
        <time>2020-07-10T10:43:44Z</time>
      </trkpt>
      <trkpt lat="47.79309" lon="-3.42799">
        <ele>45.02</ele>
        <time>2020-07-10T10:43:45Z</time>
      </trkpt>
      <trkpt lat="47.79305" lon="-3.42793">
        <ele>45.02</ele>
        <time>2020-07-10T10:43:46Z</time>
      </trkpt>
      <trkpt lat="47.79301" lon="-3.42786">
        <ele>45.15</ele>
        <time>2020-07-10T10:43:47Z</time>
      </trkpt>
      <trkpt lat="47.79297" lon="-3.42779">
        <ele>45.27</ele>
        <time>2020-07-10T10:43:48Z</time>
      </trkpt>
      <trkpt lat="47.79293" lon="-3.42772">
        <ele>45.25</ele>
        <time>2020-07-10T10:43:49Z</time>
      </trkpt>
      <trkpt lat="47.7929" lon="-3.42766">
        <ele>45.18</ele>
        <time>2020-07-10T10:43:50Z</time>
      </trkpt>
      <trkpt lat="47.79286" lon="-3.4276">
        <ele>45.1</ele>
        <time>2020-07-10T10:43:51Z</time>
      </trkpt>
      <trkpt lat="47.79282" lon="-3.42754">
        <ele>45.02</ele>
        <time>2020-07-10T10:43:52Z</time>
      </trkpt>
      <trkpt lat="47.79279" lon="-3.42749">
        <ele>44.95</ele>
        <time>2020-07-10T10:43:53Z</time>
      </trkpt>
      <trkpt lat="47.79275" lon="-3.42743">
        <ele>44.89</ele>
        <time>2020-07-10T10:43:54Z</time>
      </trkpt>
      <trkpt lat="47.7927" lon="-3.42737">
        <ele>44.82</ele>
        <time>2020-07-10T10:43:55Z</time>
      </trkpt>
      <trkpt lat="47.79266" lon="-3.42731">
        <ele>44.76</ele>
        <time>2020-07-10T10:43:56Z</time>
      </trkpt>
      <trkpt lat="47.79262" lon="-3.42725">
        <ele>44.7</ele>
        <time>2020-07-10T10:43:57Z</time>
      </trkpt>
      <trkpt lat="47.79258" lon="-3.42719">
        <ele>44.63</ele>
        <time>2020-07-10T10:43:58Z</time>
      </trkpt>
      <trkpt lat="47.79254" lon="-3.42712">
        <ele>44.54</ele>
        <time>2020-07-10T10:43:59Z</time>
      </trkpt>
      <trkpt lat="47.7925" lon="-3.42706">
        <ele>44.46</ele>
        <time>2020-07-10T10:44:00Z</time>
      </trkpt>
      <trkpt lat="47.79246" lon="-3.427">
        <ele>44.38</ele>
        <time>2020-07-10T10:44:01Z</time>
      </trkpt>
      <trkpt lat="47.79242" lon="-3.42695">
        <ele>44.32</ele>
        <time>2020-07-10T10:44:02Z</time>
      </trkpt>
      <trkpt lat="47.79238" lon="-3.42689">
        <ele>44.34</ele>
        <time>2020-07-10T10:44:03Z</time>
      </trkpt>
      <trkpt lat="47.79234" lon="-3.42683">
        <ele>44.35</ele>
        <time>2020-07-10T10:44:04Z</time>
      </trkpt>
      <trkpt lat="47.79229" lon="-3.42678">
        <ele>44.32</ele>
        <time>2020-07-10T10:44:05Z</time>
      </trkpt>
      <trkpt lat="47.79224" lon="-3.42673">
        <ele>44.25</ele>
        <time>2020-07-10T10:44:06Z</time>
      </trkpt>
      <trkpt lat="47.7922" lon="-3.42668">
        <ele>44.11</ele>
        <time>2020-07-10T10:44:07Z</time>
      </trkpt>
      <trkpt lat="47.79215" lon="-3.42663">
        <ele>43.95</ele>
        <time>2020-07-10T10:44:08Z</time>
      </trkpt>
      <trkpt lat="47.7921" lon="-3.42658">
        <ele>43.78</ele>
        <time>2020-07-10T10:44:09Z</time>
      </trkpt>
      <trkpt lat="47.79204" lon="-3.42654">
        <ele>43.61</ele>
        <time>2020-07-10T10:44:10Z</time>
      </trkpt>
      <trkpt lat="47.79198" lon="-3.42649">
        <ele>43.43</ele>
        <time>2020-07-10T10:44:11Z</time>
      </trkpt>
      <trkpt lat="47.79192" lon="-3.42643">
        <ele>43.24</ele>
        <time>2020-07-10T10:44:12Z</time>
      </trkpt>
      <trkpt lat="47.79186" lon="-3.42638">
        <ele>43.07</ele>
        <time>2020-07-10T10:44:13Z</time>
      </trkpt>
      <trkpt lat="47.7918" lon="-3.42631">
        <ele>43.02</ele>
        <time>2020-07-10T10:44:14Z</time>
      </trkpt>
      <trkpt lat="47.79174" lon="-3.42625">
        <ele>43.01</ele>
        <time>2020-07-10T10:44:15Z</time>
      </trkpt>
      <trkpt lat="47.79169" lon="-3.42619">
        <ele>43</ele>
        <time>2020-07-10T10:44:16Z</time>
      </trkpt>
      <trkpt lat="47.79164" lon="-3.42615">
        <ele>43.07</ele>
        <time>2020-07-10T10:44:17Z</time>
      </trkpt>
      <trkpt lat="47.79158" lon="-3.42612">
        <ele>43.23</ele>
        <time>2020-07-10T10:44:18Z</time>
      </trkpt>
      <trkpt lat="47.79153" lon="-3.42609">
        <ele>43.45</ele>
        <time>2020-07-10T10:44:19Z</time>
      </trkpt>
      <trkpt lat="47.79148" lon="-3.42604">
        <ele>43.67</ele>
        <time>2020-07-10T10:44:20Z</time>
      </trkpt>
      <trkpt lat="47.79145" lon="-3.42598">
        <ele>43.82</ele>
        <time>2020-07-10T10:44:21Z</time>
      </trkpt>
      <trkpt lat="47.79144" lon="-3.42592">
        <ele>43.91</ele>
        <time>2020-07-10T10:44:22Z</time>
      </trkpt>
      <trkpt lat="47.79143" lon="-3.42584">
        <ele>43.97</ele>
        <time>2020-07-10T10:44:23Z</time>
      </trkpt>
      <trkpt lat="47.79143" lon="-3.42576">
        <ele>43.99</ele>
        <time>2020-07-10T10:44:24Z</time>
      </trkpt>
      <trkpt lat="47.79141" lon="-3.42569">
        <ele>44</ele>
        <time>2020-07-10T10:44:25Z</time>
      </trkpt>
      <trkpt lat="47.79138" lon="-3.42562">
        <ele>44.02</ele>
        <time>2020-07-10T10:44:26Z</time>
      </trkpt>
      <trkpt lat="47.79135" lon="-3.42555">
        <ele>44.11</ele>
        <time>2020-07-10T10:44:27Z</time>
      </trkpt>
      <trkpt lat="47.79132" lon="-3.42549">
        <ele>44.51</ele>
        <time>2020-07-10T10:44:28Z</time>
      </trkpt>
      <trkpt lat="47.79129" lon="-3.42542">
        <ele>44.98</ele>
        <time>2020-07-10T10:44:29Z</time>
      </trkpt>
      <trkpt lat="47.79126" lon="-3.42535">
        <ele>45.43</ele>
        <time>2020-07-10T10:44:30Z</time>
      </trkpt>
      <trkpt lat="47.79123" lon="-3.42528">
        <ele>45.82</ele>
        <time>2020-07-10T10:44:31Z</time>
      </trkpt>
      <trkpt lat="47.7912" lon="-3.42522">
        <ele>46</ele>
        <time>2020-07-10T10:44:32Z</time>
      </trkpt>
      <trkpt lat="47.79117" lon="-3.42515">
        <ele>46.06</ele>
        <time>2020-07-10T10:44:33Z</time>
      </trkpt>
      <trkpt lat="47.79113" lon="-3.42509">
        <ele>46.06</ele>
        <time>2020-07-10T10:44:34Z</time>
      </trkpt>
      <trkpt lat="47.7911" lon="-3.42502">
        <ele>46.04</ele>
        <time>2020-07-10T10:44:35Z</time>
      </trkpt>
      <trkpt lat="47.79108" lon="-3.42496">
        <ele>46.2</ele>
        <time>2020-07-10T10:44:36Z</time>
      </trkpt>
      <trkpt lat="47.79105" lon="-3.42489">
        <ele>46.43</ele>
        <time>2020-07-10T10:44:37Z</time>
      </trkpt>
      <trkpt lat="47.79102" lon="-3.42483">
        <ele>46.66</ele>
        <time>2020-07-10T10:44:38Z</time>
      </trkpt>
      <trkpt lat="47.79099" lon="-3.42476">
        <ele>46.84</ele>
        <time>2020-07-10T10:44:39Z</time>
      </trkpt>
      <trkpt lat="47.79096" lon="-3.42469">
        <ele>46.99</ele>
        <time>2020-07-10T10:44:40Z</time>
      </trkpt>
      <trkpt lat="47.79093" lon="-3.42463">
        <ele>47.15</ele>
        <time>2020-07-10T10:44:41Z</time>
      </trkpt>
      <trkpt lat="47.7909" lon="-3.42456">
        <ele>47.36</ele>
        <time>2020-07-10T10:44:42Z</time>
      </trkpt>
      <trkpt lat="47.79087" lon="-3.42449">
        <ele>47.61</ele>
        <time>2020-07-10T10:44:43Z</time>
      </trkpt>
      <trkpt lat="47.79084" lon="-3.42442">
        <ele>47.86</ele>
        <time>2020-07-10T10:44:44Z</time>
      </trkpt>
      <trkpt lat="47.79081" lon="-3.42436">
        <ele>47.97</ele>
        <time>2020-07-10T10:44:45Z</time>
      </trkpt>
      <trkpt lat="47.79078" lon="-3.42429">
        <ele>48.06</ele>
        <time>2020-07-10T10:44:46Z</time>
      </trkpt>
      <trkpt lat="47.79075" lon="-3.42422">
        <ele>48.19</ele>
        <time>2020-07-10T10:44:47Z</time>
      </trkpt>
      <trkpt lat="47.79072" lon="-3.42415">
        <ele>48.35</ele>
        <time>2020-07-10T10:44:48Z</time>
      </trkpt>
      <trkpt lat="47.79069" lon="-3.42408">
        <ele>48.48</ele>
        <time>2020-07-10T10:44:49Z</time>
      </trkpt>
      <trkpt lat="47.79065" lon="-3.42402">
        <ele>48.6</ele>
        <time>2020-07-10T10:44:50Z</time>
      </trkpt>
      <trkpt lat="47.79062" lon="-3.42395">
        <ele>48.71</ele>
        <time>2020-07-10T10:44:51Z</time>
      </trkpt>
      <trkpt lat="47.79059" lon="-3.42388">
        <ele>48.83</ele>
        <time>2020-07-10T10:44:52Z</time>
      </trkpt>
      <trkpt lat="47.79056" lon="-3.42381">
        <ele>48.93</ele>
        <time>2020-07-10T10:44:53Z</time>
      </trkpt>
      <trkpt lat="47.79054" lon="-3.42374">
        <ele>49</ele>
        <time>2020-07-10T10:44:54Z</time>
      </trkpt>
      <trkpt lat="47.7905" lon="-3.42367">
        <ele>49.1</ele>
        <time>2020-07-10T10:44:55Z</time>
      </trkpt>
      <trkpt lat="47.79047" lon="-3.4236">
        <ele>49.24</ele>
        <time>2020-07-10T10:44:56Z</time>
      </trkpt>
      <trkpt lat="47.79045" lon="-3.42353">
        <ele>49.34</ele>
        <time>2020-07-10T10:44:57Z</time>
      </trkpt>
      <trkpt lat="47.79042" lon="-3.42345">
        <ele>49.43</ele>
        <time>2020-07-10T10:44:58Z</time>
      </trkpt>
      <trkpt lat="47.79039" lon="-3.42338">
        <ele>49.53</ele>
        <time>2020-07-10T10:44:59Z</time>
      </trkpt>
      <trkpt lat="47.79037" lon="-3.4233">
        <ele>49.69</ele>
        <time>2020-07-10T10:45:00Z</time>
      </trkpt>
      <trkpt lat="47.79034" lon="-3.42324">
        <ele>49.93</ele>
        <time>2020-07-10T10:45:01Z</time>
      </trkpt>
      <trkpt lat="47.79032" lon="-3.42317">
        <ele>50.25</ele>
        <time>2020-07-10T10:45:02Z</time>
      </trkpt>
      <trkpt lat="47.7903" lon="-3.42309">
        <ele>50.59</ele>
        <time>2020-07-10T10:45:03Z</time>
      </trkpt>
      <trkpt lat="47.79028" lon="-3.42302">
        <ele>50.78</ele>
        <time>2020-07-10T10:45:04Z</time>
      </trkpt>
      <trkpt lat="47.79026" lon="-3.42295">
        <ele>50.67</ele>
        <time>2020-07-10T10:45:05Z</time>
      </trkpt>
      <trkpt lat="47.79024" lon="-3.42288">
        <ele>50.52</ele>
        <time>2020-07-10T10:45:06Z</time>
      </trkpt>
      <trkpt lat="47.79022" lon="-3.42282">
        <ele>50.38</ele>
        <time>2020-07-10T10:45:07Z</time>
      </trkpt>
      <trkpt lat="47.7902" lon="-3.42276">
        <ele>50.24</ele>
        <time>2020-07-10T10:45:08Z</time>
      </trkpt>
      <trkpt lat="47.79018" lon="-3.4227">
        <ele>50.06</ele>
        <time>2020-07-10T10:45:09Z</time>
      </trkpt>
      <trkpt lat="47.79016" lon="-3.42264">
        <ele>49.91</ele>
        <time>2020-07-10T10:45:10Z</time>
      </trkpt>
      <trkpt lat="47.79014" lon="-3.42258">
        <ele>49.79</ele>
        <time>2020-07-10T10:45:11Z</time>
      </trkpt>
      <trkpt lat="47.79013" lon="-3.42252">
        <ele>49.72</ele>
        <time>2020-07-10T10:45:12Z</time>
      </trkpt>
      <trkpt lat="47.79011" lon="-3.42246">
        <ele>49.73</ele>
        <time>2020-07-10T10:45:13Z</time>
      </trkpt>
      <trkpt lat="47.79008" lon="-3.42239">
        <ele>49.82</ele>
        <time>2020-07-10T10:45:14Z</time>
      </trkpt>
      <trkpt lat="47.79005" lon="-3.42232">
        <ele>49.9</ele>
        <time>2020-07-10T10:45:15Z</time>
      </trkpt>
      <trkpt lat="47.79002" lon="-3.42225">
        <ele>49.95</ele>
        <time>2020-07-10T10:45:16Z</time>
      </trkpt>
      <trkpt lat="47.78998" lon="-3.42218">
        <ele>49.83</ele>
        <time>2020-07-10T10:45:17Z</time>
      </trkpt>
      <trkpt lat="47.78995" lon="-3.42211">
        <ele>49.53</ele>
        <time>2020-07-10T10:45:18Z</time>
      </trkpt>
      <trkpt lat="47.78991" lon="-3.42204">
        <ele>49.18</ele>
        <time>2020-07-10T10:45:19Z</time>
      </trkpt>
      <trkpt lat="47.78987" lon="-3.42198">
        <ele>48.84</ele>
        <time>2020-07-10T10:45:20Z</time>
      </trkpt>
      <trkpt lat="47.78984" lon="-3.42191">
        <ele>48.61</ele>
        <time>2020-07-10T10:45:21Z</time>
      </trkpt>
      <trkpt lat="47.7898" lon="-3.42184">
        <ele>48.5</ele>
        <time>2020-07-10T10:45:22Z</time>
      </trkpt>
      <trkpt lat="47.78977" lon="-3.42178">
        <ele>48.38</ele>
        <time>2020-07-10T10:45:23Z</time>
      </trkpt>
      <trkpt lat="47.78973" lon="-3.42171">
        <ele>48.23</ele>
        <time>2020-07-10T10:45:24Z</time>
      </trkpt>
      <trkpt lat="47.78969" lon="-3.42165">
        <ele>48.15</ele>
        <time>2020-07-10T10:45:25Z</time>
      </trkpt>
      <trkpt lat="47.78964" lon="-3.4216">
        <ele>48.19</ele>
        <time>2020-07-10T10:45:26Z</time>
      </trkpt>
      <trkpt lat="47.78961" lon="-3.42154">
        <ele>48.22</ele>
        <time>2020-07-10T10:45:27Z</time>
      </trkpt>
      <trkpt lat="47.78957" lon="-3.42148">
        <ele>48.19</ele>
        <time>2020-07-10T10:45:28Z</time>
      </trkpt>
      <trkpt lat="47.78954" lon="-3.42141">
        <ele>48.09</ele>
        <time>2020-07-10T10:45:29Z</time>
      </trkpt>
      <trkpt lat="47.78951" lon="-3.42133">
        <ele>47.89</ele>
        <time>2020-07-10T10:45:30Z</time>
      </trkpt>
      <trkpt lat="47.78948" lon="-3.42125">
        <ele>47.62</ele>
        <time>2020-07-10T10:45:31Z</time>
      </trkpt>
      <trkpt lat="47.78944" lon="-3.42118">
        <ele>47.35</ele>
        <time>2020-07-10T10:45:32Z</time>
      </trkpt>
      <trkpt lat="47.78941" lon="-3.42109">
        <ele>47.19</ele>
        <time>2020-07-10T10:45:33Z</time>
      </trkpt>
      <trkpt lat="47.78937" lon="-3.42102">
        <ele>47.18</ele>
        <time>2020-07-10T10:45:34Z</time>
      </trkpt>
      <trkpt lat="47.78933" lon="-3.42094">
        <ele>47.16</ele>
        <time>2020-07-10T10:45:35Z</time>
      </trkpt>
      <trkpt lat="47.7893" lon="-3.42087">
        <ele>47.09</ele>
        <time>2020-07-10T10:45:36Z</time>
      </trkpt>
      <trkpt lat="47.78925" lon="-3.42079">
        <ele>46.95</ele>
        <time>2020-07-10T10:45:37Z</time>
      </trkpt>
      <trkpt lat="47.78921" lon="-3.42071">
        <ele>46.72</ele>
        <time>2020-07-10T10:45:38Z</time>
      </trkpt>
      <trkpt lat="47.78917" lon="-3.42064">
        <ele>46.43</ele>
        <time>2020-07-10T10:45:39Z</time>
      </trkpt>
      <trkpt lat="47.78913" lon="-3.42056">
        <ele>46.23</ele>
        <time>2020-07-10T10:45:40Z</time>
      </trkpt>
      <trkpt lat="47.78909" lon="-3.42048">
        <ele>46.41</ele>
        <time>2020-07-10T10:45:41Z</time>
      </trkpt>
      <trkpt lat="47.78905" lon="-3.4204">
        <ele>46.64</ele>
        <time>2020-07-10T10:45:42Z</time>
      </trkpt>
      <trkpt lat="47.78901" lon="-3.42033">
        <ele>46.84</ele>
        <time>2020-07-10T10:45:43Z</time>
      </trkpt>
      <trkpt lat="47.78897" lon="-3.42025">
        <ele>46.95</ele>
        <time>2020-07-10T10:45:44Z</time>
      </trkpt>
      <trkpt lat="47.78893" lon="-3.42018">
        <ele>46.99</ele>
        <time>2020-07-10T10:45:45Z</time>
      </trkpt>
      <trkpt lat="47.78888" lon="-3.42012">
        <ele>47</ele>
        <time>2020-07-10T10:45:46Z</time>
      </trkpt>
      <trkpt lat="47.78884" lon="-3.42006">
        <ele>47</ele>
        <time>2020-07-10T10:45:47Z</time>
      </trkpt>
      <trkpt lat="47.78879" lon="-3.42">
        <ele>47</ele>
        <time>2020-07-10T10:45:48Z</time>
      </trkpt>
      <trkpt lat="47.78874" lon="-3.41994">
        <ele>47</ele>
        <time>2020-07-10T10:45:49Z</time>
      </trkpt>
      <trkpt lat="47.78869" lon="-3.41988">
        <ele>47</ele>
        <time>2020-07-10T10:45:50Z</time>
      </trkpt>
      <trkpt lat="47.78865" lon="-3.41982">
        <ele>47</ele>
        <time>2020-07-10T10:45:51Z</time>
      </trkpt>
      <trkpt lat="47.78861" lon="-3.41975">
        <ele>47</ele>
        <time>2020-07-10T10:45:52Z</time>
      </trkpt>
      <trkpt lat="47.78857" lon="-3.41969">
        <ele>47.19</ele>
        <time>2020-07-10T10:45:53Z</time>
      </trkpt>
      <trkpt lat="47.78852" lon="-3.41962">
        <ele>47.52</ele>
        <time>2020-07-10T10:45:54Z</time>
      </trkpt>
      <trkpt lat="47.78849" lon="-3.41955">
        <ele>47.89</ele>
        <time>2020-07-10T10:45:55Z</time>
      </trkpt>
      <trkpt lat="47.78847" lon="-3.41947">
        <ele>48.25</ele>
        <time>2020-07-10T10:45:56Z</time>
      </trkpt>
      <trkpt lat="47.78846" lon="-3.41939">
        <ele>48.57</ele>
        <time>2020-07-10T10:45:57Z</time>
      </trkpt>
      <trkpt lat="47.78847" lon="-3.41932">
        <ele>48.85</ele>
        <time>2020-07-10T10:45:58Z</time>
      </trkpt>
      <trkpt lat="47.78847" lon="-3.41924">
        <ele>49.13</ele>
        <time>2020-07-10T10:45:59Z</time>
      </trkpt>
      <trkpt lat="47.78849" lon="-3.41916">
        <ele>49.38</ele>
        <time>2020-07-10T10:46:00Z</time>
      </trkpt>
      <trkpt lat="47.78849" lon="-3.41908">
        <ele>49.64</ele>
        <time>2020-07-10T10:46:01Z</time>
      </trkpt>
      <trkpt lat="47.78849" lon="-3.41901">
        <ele>49.9</ele>
        <time>2020-07-10T10:46:02Z</time>
      </trkpt>
      <trkpt lat="47.78849" lon="-3.41893">
        <ele>50.15</ele>
        <time>2020-07-10T10:46:03Z</time>
      </trkpt>
      <trkpt lat="47.7885" lon="-3.41887">
        <ele>50.41</ele>
        <time>2020-07-10T10:46:04Z</time>
      </trkpt>
      <trkpt lat="47.78851" lon="-3.41879">
        <ele>50.77</ele>
        <time>2020-07-10T10:46:05Z</time>
      </trkpt>
      <trkpt lat="47.78851" lon="-3.41872">
        <ele>51.17</ele>
        <time>2020-07-10T10:46:06Z</time>
      </trkpt>
      <trkpt lat="47.78851" lon="-3.41865">
        <ele>51.59</ele>
        <time>2020-07-10T10:46:07Z</time>
      </trkpt>
      <trkpt lat="47.78851" lon="-3.41857">
        <ele>51.97</ele>
        <time>2020-07-10T10:46:08Z</time>
      </trkpt>
      <trkpt lat="47.78851" lon="-3.4185">
        <ele>52.26</ele>
        <time>2020-07-10T10:46:09Z</time>
      </trkpt>
      <trkpt lat="47.78851" lon="-3.41843">
        <ele>52.53</ele>
        <time>2020-07-10T10:46:10Z</time>
      </trkpt>
      <trkpt lat="47.78851" lon="-3.41836">
        <ele>52.78</ele>
        <time>2020-07-10T10:46:11Z</time>
      </trkpt>
      <trkpt lat="47.78851" lon="-3.4183">
        <ele>52.97</ele>
        <time>2020-07-10T10:46:12Z</time>
      </trkpt>
      <trkpt lat="47.78852" lon="-3.41823">
        <ele>53.08</ele>
        <time>2020-07-10T10:46:13Z</time>
      </trkpt>
      <trkpt lat="47.78852" lon="-3.41816">
        <ele>53.17</ele>
        <time>2020-07-10T10:46:14Z</time>
      </trkpt>
      <trkpt lat="47.78852" lon="-3.41809">
        <ele>53.25</ele>
        <time>2020-07-10T10:46:15Z</time>
      </trkpt>
      <trkpt lat="47.78853" lon="-3.41803">
        <ele>53.33</ele>
        <time>2020-07-10T10:46:16Z</time>
      </trkpt>
      <trkpt lat="47.78854" lon="-3.41796">
        <ele>53.46</ele>
        <time>2020-07-10T10:46:17Z</time>
      </trkpt>
      <trkpt lat="47.78855" lon="-3.41789">
        <ele>53.62</ele>
        <time>2020-07-10T10:46:18Z</time>
      </trkpt>
      <trkpt lat="47.78856" lon="-3.41781">
        <ele>53.81</ele>
        <time>2020-07-10T10:46:19Z</time>
      </trkpt>
      <trkpt lat="47.78857" lon="-3.41774">
        <ele>53.94</ele>
        <time>2020-07-10T10:46:20Z</time>
      </trkpt>
      <trkpt lat="47.78858" lon="-3.41767">
        <ele>53.98</ele>
        <time>2020-07-10T10:46:21Z</time>
      </trkpt>
      <trkpt lat="47.78859" lon="-3.4176">
        <ele>53.99</ele>
        <time>2020-07-10T10:46:22Z</time>
      </trkpt>
      <trkpt lat="47.7886" lon="-3.41752">
        <ele>54</ele>
        <time>2020-07-10T10:46:23Z</time>
      </trkpt>
      <trkpt lat="47.78861" lon="-3.41745">
        <ele>53.99</ele>
        <time>2020-07-10T10:46:24Z</time>
      </trkpt>
      <trkpt lat="47.78862" lon="-3.41738">
        <ele>53.97</ele>
        <time>2020-07-10T10:46:25Z</time>
      </trkpt>
      <trkpt lat="47.78863" lon="-3.4173">
        <ele>53.93</ele>
        <time>2020-07-10T10:46:26Z</time>
      </trkpt>
      <trkpt lat="47.78865" lon="-3.41722">
        <ele>53.89</ele>
        <time>2020-07-10T10:46:27Z</time>
      </trkpt>
      <trkpt lat="47.78865" lon="-3.41714">
        <ele>53.68</ele>
        <time>2020-07-10T10:46:28Z</time>
      </trkpt>
      <trkpt lat="47.78867" lon="-3.41705">
        <ele>53.43</ele>
        <time>2020-07-10T10:46:29Z</time>
      </trkpt>
      <trkpt lat="47.78868" lon="-3.41698">
        <ele>53.19</ele>
        <time>2020-07-10T10:46:30Z</time>
      </trkpt>
      <trkpt lat="47.78869" lon="-3.4169">
        <ele>53.06</ele>
        <time>2020-07-10T10:46:31Z</time>
      </trkpt>
      <trkpt lat="47.7887" lon="-3.41682">
        <ele>53.02</ele>
        <time>2020-07-10T10:46:32Z</time>
      </trkpt>
      <trkpt lat="47.78871" lon="-3.41674">
        <ele>53.01</ele>
        <time>2020-07-10T10:46:33Z</time>
      </trkpt>
      <trkpt lat="47.78872" lon="-3.41666">
        <ele>52.98</ele>
        <time>2020-07-10T10:46:34Z</time>
      </trkpt>
      <trkpt lat="47.78873" lon="-3.41658">
        <ele>52.77</ele>
        <time>2020-07-10T10:46:35Z</time>
      </trkpt>
      <trkpt lat="47.78875" lon="-3.4165">
        <ele>52.51</ele>
        <time>2020-07-10T10:46:36Z</time>
      </trkpt>
      <trkpt lat="47.78876" lon="-3.41642">
        <ele>52.24</ele>
        <time>2020-07-10T10:46:37Z</time>
      </trkpt>
      <trkpt lat="47.78876" lon="-3.41634">
        <ele>52.07</ele>
        <time>2020-07-10T10:46:38Z</time>
      </trkpt>
      <trkpt lat="47.78876" lon="-3.41627">
        <ele>52.02</ele>
        <time>2020-07-10T10:46:39Z</time>
      </trkpt>
      <trkpt lat="47.78878" lon="-3.4162">
        <ele>52.01</ele>
        <time>2020-07-10T10:46:40Z</time>
      </trkpt>
      <trkpt lat="47.78877" lon="-3.41613">
        <ele>52</ele>
        <time>2020-07-10T10:46:41Z</time>
      </trkpt>
      <trkpt lat="47.78877" lon="-3.41608">
        <ele>51.93</ele>
        <time>2020-07-10T10:46:42Z</time>
      </trkpt>
      <trkpt lat="47.78877" lon="-3.41603">
        <ele>51.77</ele>
        <time>2020-07-10T10:46:43Z</time>
      </trkpt>
      <trkpt lat="47.78877" lon="-3.41597">
        <ele>51.57</ele>
        <time>2020-07-10T10:46:44Z</time>
      </trkpt>
      <trkpt lat="47.78878" lon="-3.41591">
        <ele>51.36</ele>
        <time>2020-07-10T10:46:45Z</time>
      </trkpt>
      <trkpt lat="47.78879" lon="-3.41584">
        <ele>51.12</ele>
        <time>2020-07-10T10:46:46Z</time>
      </trkpt>
      <trkpt lat="47.7888" lon="-3.41577">
        <ele>50.98</ele>
        <time>2020-07-10T10:46:47Z</time>
      </trkpt>
      <trkpt lat="47.78881" lon="-3.41569">
        <ele>50.89</ele>
        <time>2020-07-10T10:46:48Z</time>
      </trkpt>
      <trkpt lat="47.7888" lon="-3.41561">
        <ele>50.78</ele>
        <time>2020-07-10T10:46:49Z</time>
      </trkpt>
      <trkpt lat="47.78879" lon="-3.41553">
        <ele>50.7</ele>
        <time>2020-07-10T10:46:50Z</time>
      </trkpt>
      <trkpt lat="47.78879" lon="-3.41545">
        <ele>50.67</ele>
        <time>2020-07-10T10:46:51Z</time>
      </trkpt>
      <trkpt lat="47.78881" lon="-3.41538">
        <ele>50.71</ele>
        <time>2020-07-10T10:46:52Z</time>
      </trkpt>
      <trkpt lat="47.78882" lon="-3.41529">
        <ele>50.73</ele>
        <time>2020-07-10T10:46:53Z</time>
      </trkpt>
      <trkpt lat="47.78881" lon="-3.41521">
        <ele>50.72</ele>
        <time>2020-07-10T10:46:54Z</time>
      </trkpt>
      <trkpt lat="47.78881" lon="-3.41514">
        <ele>50.7</ele>
        <time>2020-07-10T10:46:55Z</time>
      </trkpt>
      <trkpt lat="47.78881" lon="-3.41505">
        <ele>50.7</ele>
        <time>2020-07-10T10:46:56Z</time>
      </trkpt>
      <trkpt lat="47.78881" lon="-3.41497">
        <ele>50.62</ele>
        <time>2020-07-10T10:46:57Z</time>
      </trkpt>
      <trkpt lat="47.78881" lon="-3.41488">
        <ele>50.38</ele>
        <time>2020-07-10T10:46:58Z</time>
      </trkpt>
      <trkpt lat="47.78881" lon="-3.4148">
        <ele>50.11</ele>
        <time>2020-07-10T10:46:59Z</time>
      </trkpt>
      <trkpt lat="47.7888" lon="-3.41472">
        <ele>49.81</ele>
        <time>2020-07-10T10:47:00Z</time>
      </trkpt>
      <trkpt lat="47.7888" lon="-3.41463">
        <ele>49.73</ele>
        <time>2020-07-10T10:47:01Z</time>
      </trkpt>
      <trkpt lat="47.78881" lon="-3.41455">
        <ele>49.71</ele>
        <time>2020-07-10T10:47:02Z</time>
      </trkpt>
      <trkpt lat="47.7888" lon="-3.41446">
        <ele>49.69</ele>
        <time>2020-07-10T10:47:03Z</time>
      </trkpt>
      <trkpt lat="47.7888" lon="-3.41438">
        <ele>49.69</ele>
        <time>2020-07-10T10:47:04Z</time>
      </trkpt>
      <trkpt lat="47.7888" lon="-3.41429">
        <ele>49.68</ele>
        <time>2020-07-10T10:47:05Z</time>
      </trkpt>
      <trkpt lat="47.7888" lon="-3.4142">
        <ele>49.68</ele>
        <time>2020-07-10T10:47:06Z</time>
      </trkpt>
      <trkpt lat="47.7888" lon="-3.41411">
        <ele>49.54</ele>
        <time>2020-07-10T10:47:07Z</time>
      </trkpt>
      <trkpt lat="47.7888" lon="-3.41403">
        <ele>49.3</ele>
        <time>2020-07-10T10:47:08Z</time>
      </trkpt>
      <trkpt lat="47.7888" lon="-3.41394">
        <ele>49</ele>
        <time>2020-07-10T10:47:09Z</time>
      </trkpt>
      <trkpt lat="47.7888" lon="-3.41386">
        <ele>48.78</ele>
        <time>2020-07-10T10:47:10Z</time>
      </trkpt>
      <trkpt lat="47.7888" lon="-3.41376">
        <ele>48.7</ele>
        <time>2020-07-10T10:47:11Z</time>
      </trkpt>
      <trkpt lat="47.7888" lon="-3.41367">
        <ele>48.69</ele>
        <time>2020-07-10T10:47:12Z</time>
      </trkpt>
      <trkpt lat="47.7888" lon="-3.41358">
        <ele>48.66</ele>
        <time>2020-07-10T10:47:13Z</time>
      </trkpt>
      <trkpt lat="47.7888" lon="-3.4135">
        <ele>48.58</ele>
        <time>2020-07-10T10:47:14Z</time>
      </trkpt>
      <trkpt lat="47.7888" lon="-3.41342">
        <ele>48.49</ele>
        <time>2020-07-10T10:47:15Z</time>
      </trkpt>
      <trkpt lat="47.78879" lon="-3.41333">
        <ele>48.36</ele>
        <time>2020-07-10T10:47:16Z</time>
      </trkpt>
      <trkpt lat="47.78879" lon="-3.41324">
        <ele>48.16</ele>
        <time>2020-07-10T10:47:17Z</time>
      </trkpt>
      <trkpt lat="47.78879" lon="-3.41316">
        <ele>47.96</ele>
        <time>2020-07-10T10:47:18Z</time>
      </trkpt>
      <trkpt lat="47.78879" lon="-3.41308">
        <ele>47.77</ele>
        <time>2020-07-10T10:47:19Z</time>
      </trkpt>
      <trkpt lat="47.78879" lon="-3.41299">
        <ele>47.51</ele>
        <time>2020-07-10T10:47:20Z</time>
      </trkpt>
      <trkpt lat="47.78879" lon="-3.41291">
        <ele>47.23</ele>
        <time>2020-07-10T10:47:21Z</time>
      </trkpt>
      <trkpt lat="47.7888" lon="-3.41282">
        <ele>46.94</ele>
        <time>2020-07-10T10:47:22Z</time>
      </trkpt>
      <trkpt lat="47.78881" lon="-3.41273">
        <ele>46.67</ele>
        <time>2020-07-10T10:47:23Z</time>
      </trkpt>
      <trkpt lat="47.78882" lon="-3.41265">
        <ele>46.42</ele>
        <time>2020-07-10T10:47:24Z</time>
      </trkpt>
      <trkpt lat="47.78884" lon="-3.41257">
        <ele>46.17</ele>
        <time>2020-07-10T10:47:25Z</time>
      </trkpt>
      <trkpt lat="47.78886" lon="-3.41247">
        <ele>45.83</ele>
        <time>2020-07-10T10:47:26Z</time>
      </trkpt>
      <trkpt lat="47.78889" lon="-3.41238">
        <ele>45.32</ele>
        <time>2020-07-10T10:47:27Z</time>
      </trkpt>
      <trkpt lat="47.78892" lon="-3.41227">
        <ele>44.8</ele>
        <time>2020-07-10T10:47:28Z</time>
      </trkpt>
      <trkpt lat="47.78895" lon="-3.41218">
        <ele>44.49</ele>
        <time>2020-07-10T10:47:29Z</time>
      </trkpt>
      <trkpt lat="47.78898" lon="-3.41208">
        <ele>44.36</ele>
        <time>2020-07-10T10:47:30Z</time>
      </trkpt>
      <trkpt lat="47.78901" lon="-3.41197">
        <ele>44.18</ele>
        <time>2020-07-10T10:47:31Z</time>
      </trkpt>
      <trkpt lat="47.78904" lon="-3.41187">
        <ele>43.9</ele>
        <time>2020-07-10T10:47:32Z</time>
      </trkpt>
      <trkpt lat="47.78908" lon="-3.41178">
        <ele>43.7</ele>
        <time>2020-07-10T10:47:33Z</time>
      </trkpt>
      <trkpt lat="47.7891" lon="-3.41168">
        <ele>43.6</ele>
        <time>2020-07-10T10:47:34Z</time>
      </trkpt>
      <trkpt lat="47.78913" lon="-3.41159">
        <ele>43.71</ele>
        <time>2020-07-10T10:47:35Z</time>
      </trkpt>
      <trkpt lat="47.78916" lon="-3.41149">
        <ele>43.86</ele>
        <time>2020-07-10T10:47:36Z</time>
      </trkpt>
      <trkpt lat="47.78918" lon="-3.4114">
        <ele>43.96</ele>
        <time>2020-07-10T10:47:37Z</time>
      </trkpt>
      <trkpt lat="47.78918" lon="-3.41131">
        <ele>43.99</ele>
        <time>2020-07-10T10:47:38Z</time>
      </trkpt>
      <trkpt lat="47.78919" lon="-3.41122">
        <ele>44</ele>
        <time>2020-07-10T10:47:39Z</time>
      </trkpt>
      <trkpt lat="47.78919" lon="-3.41112">
        <ele>44</ele>
        <time>2020-07-10T10:47:40Z</time>
      </trkpt>
      <trkpt lat="47.78919" lon="-3.41103">
        <ele>43.8</ele>
        <time>2020-07-10T10:47:41Z</time>
      </trkpt>
      <trkpt lat="47.7892" lon="-3.41094">
        <ele>43.5</ele>
        <time>2020-07-10T10:47:42Z</time>
      </trkpt>
      <trkpt lat="47.7892" lon="-3.41084">
        <ele>43.17</ele>
        <time>2020-07-10T10:47:43Z</time>
      </trkpt>
      <trkpt lat="47.7892" lon="-3.41075">
        <ele>43.05</ele>
        <time>2020-07-10T10:47:44Z</time>
      </trkpt>
      <trkpt lat="47.78921" lon="-3.41066">
        <ele>43.02</ele>
        <time>2020-07-10T10:47:45Z</time>
      </trkpt>
      <trkpt lat="47.78921" lon="-3.41058">
        <ele>43</ele>
        <time>2020-07-10T10:47:46Z</time>
      </trkpt>
      <trkpt lat="47.78921" lon="-3.41049">
        <ele>42.84</ele>
        <time>2020-07-10T10:47:47Z</time>
      </trkpt>
      <trkpt lat="47.78921" lon="-3.41041">
        <ele>42.58</ele>
        <time>2020-07-10T10:47:48Z</time>
      </trkpt>
      <trkpt lat="47.78921" lon="-3.41032">
        <ele>42.28</ele>
        <time>2020-07-10T10:47:49Z</time>
      </trkpt>
      <trkpt lat="47.78921" lon="-3.41023">
        <ele>41.94</ele>
        <time>2020-07-10T10:47:50Z</time>
      </trkpt>
      <trkpt lat="47.78921" lon="-3.41014">
        <ele>41.57</ele>
        <time>2020-07-10T10:47:51Z</time>
      </trkpt>
      <trkpt lat="47.78923" lon="-3.41005">
        <ele>41.17</ele>
        <time>2020-07-10T10:47:52Z</time>
      </trkpt>
      <trkpt lat="47.78924" lon="-3.40996">
        <ele>40.76</ele>
        <time>2020-07-10T10:47:53Z</time>
      </trkpt>
      <trkpt lat="47.78927" lon="-3.40986">
        <ele>40.33</ele>
        <time>2020-07-10T10:47:54Z</time>
      </trkpt>
      <trkpt lat="47.78929" lon="-3.40976">
        <ele>39.89</ele>
        <time>2020-07-10T10:47:55Z</time>
      </trkpt>
      <trkpt lat="47.78932" lon="-3.40967">
        <ele>39.46</ele>
        <time>2020-07-10T10:47:56Z</time>
      </trkpt>
      <trkpt lat="47.78935" lon="-3.40958">
        <ele>39.13</ele>
        <time>2020-07-10T10:47:57Z</time>
      </trkpt>
      <trkpt lat="47.78939" lon="-3.40948">
        <ele>38.93</ele>
        <time>2020-07-10T10:47:58Z</time>
      </trkpt>
      <trkpt lat="47.78941" lon="-3.40938">
        <ele>38.74</ele>
        <time>2020-07-10T10:47:59Z</time>
      </trkpt>
      <trkpt lat="47.78944" lon="-3.40928">
        <ele>38.5</ele>
        <time>2020-07-10T10:48:00Z</time>
      </trkpt>
      <trkpt lat="47.78945" lon="-3.40919">
        <ele>38.25</ele>
        <time>2020-07-10T10:48:01Z</time>
      </trkpt>
      <trkpt lat="47.78947" lon="-3.4091">
        <ele>38.17</ele>
        <time>2020-07-10T10:48:02Z</time>
      </trkpt>
      <trkpt lat="47.78947" lon="-3.40904">
        <ele>38.14</ele>
        <time>2020-07-10T10:48:03Z</time>
      </trkpt>
      <trkpt lat="47.78947" lon="-3.40899">
        <ele>38.12</ele>
        <time>2020-07-10T10:48:04Z</time>
      </trkpt>
      <trkpt lat="47.78945" lon="-3.40896">
        <ele>38.07</ele>
        <time>2020-07-10T10:48:05Z</time>
      </trkpt>
      <trkpt lat="47.78944" lon="-3.40893">
        <ele>37.99</ele>
        <time>2020-07-10T10:48:06Z</time>
      </trkpt>
      <trkpt lat="47.78942" lon="-3.4089">
        <ele>37.89</ele>
        <time>2020-07-10T10:48:07Z</time>
      </trkpt>
      <trkpt lat="47.7894" lon="-3.40887">
        <ele>37.69</ele>
        <time>2020-07-10T10:48:08Z</time>
      </trkpt>
      <trkpt lat="47.78938" lon="-3.40884">
        <ele>37.46</ele>
        <time>2020-07-10T10:48:09Z</time>
      </trkpt>
      <trkpt lat="47.78937" lon="-3.40881">
        <ele>37.27</ele>
        <time>2020-07-10T10:48:10Z</time>
      </trkpt>
      <trkpt lat="47.78936" lon="-3.40881">
        <ele>37.15</ele>
        <time>2020-07-10T10:48:11Z</time>
      </trkpt>
      <trkpt lat="47.78935" lon="-3.4088">
        <ele>37.02</ele>
        <time>2020-07-10T10:48:12Z</time>
      </trkpt>
      <trkpt lat="47.78934" lon="-3.40877">
        <ele>36.91</ele>
        <time>2020-07-10T10:48:13Z</time>
      </trkpt>
      <trkpt lat="47.78934" lon="-3.40873">
        <ele>36.73</ele>
        <time>2020-07-10T10:48:14Z</time>
      </trkpt>
      <trkpt lat="47.78932" lon="-3.40869">
        <ele>36.5</ele>
        <time>2020-07-10T10:48:15Z</time>
      </trkpt>
      <trkpt lat="47.78929" lon="-3.40866">
        <ele>36.2</ele>
        <time>2020-07-10T10:48:16Z</time>
      </trkpt>
      <trkpt lat="47.78926" lon="-3.40861">
        <ele>35.82</ele>
        <time>2020-07-10T10:48:17Z</time>
      </trkpt>
      <trkpt lat="47.78921" lon="-3.40858">
        <ele>35.41</ele>
        <time>2020-07-10T10:48:18Z</time>
      </trkpt>
      <trkpt lat="47.78917" lon="-3.40855">
        <ele>34.98</ele>
        <time>2020-07-10T10:48:19Z</time>
      </trkpt>
      <trkpt lat="47.78911" lon="-3.40852">
        <ele>34.63</ele>
        <time>2020-07-10T10:48:20Z</time>
      </trkpt>
      <trkpt lat="47.78906" lon="-3.4085">
        <ele>34.33</ele>
        <time>2020-07-10T10:48:21Z</time>
      </trkpt>
      <trkpt lat="47.789" lon="-3.40849">
        <ele>34.06</ele>
        <time>2020-07-10T10:48:22Z</time>
      </trkpt>
      <trkpt lat="47.78894" lon="-3.40847">
        <ele>33.78</ele>
        <time>2020-07-10T10:48:23Z</time>
      </trkpt>
      <trkpt lat="47.78888" lon="-3.40845">
        <ele>33.53</ele>
        <time>2020-07-10T10:48:24Z</time>
      </trkpt>
      <trkpt lat="47.78881" lon="-3.40844">
        <ele>33.36</ele>
        <time>2020-07-10T10:48:25Z</time>
      </trkpt>
      <trkpt lat="47.78874" lon="-3.40843">
        <ele>33.22</ele>
        <time>2020-07-10T10:48:26Z</time>
      </trkpt>
      <trkpt lat="47.78867" lon="-3.40843">
        <ele>33.12</ele>
        <time>2020-07-10T10:48:27Z</time>
      </trkpt>
      <trkpt lat="47.78859" lon="-3.40842">
        <ele>33.04</ele>
        <time>2020-07-10T10:48:28Z</time>
      </trkpt>
      <trkpt lat="47.78851" lon="-3.4084">
        <ele>33.01</ele>
        <time>2020-07-10T10:48:29Z</time>
      </trkpt>
      <trkpt lat="47.78843" lon="-3.40838">
        <ele>33</ele>
        <time>2020-07-10T10:48:30Z</time>
      </trkpt>
      <trkpt lat="47.78836" lon="-3.40837">
        <ele>33</ele>
        <time>2020-07-10T10:48:31Z</time>
      </trkpt>
      <trkpt lat="47.78829" lon="-3.40834">
        <ele>33.23</ele>
        <time>2020-07-10T10:48:32Z</time>
      </trkpt>
      <trkpt lat="47.78824" lon="-3.40831">
        <ele>33.56</ele>
        <time>2020-07-10T10:48:33Z</time>
      </trkpt>
      <trkpt lat="47.78819" lon="-3.40826">
        <ele>33.91</ele>
        <time>2020-07-10T10:48:34Z</time>
      </trkpt>
      <trkpt lat="47.78814" lon="-3.40822">
        <ele>34.25</ele>
        <time>2020-07-10T10:48:35Z</time>
      </trkpt>
      <trkpt lat="47.7881" lon="-3.40817">
        <ele>34.57</ele>
        <time>2020-07-10T10:48:36Z</time>
      </trkpt>
      <trkpt lat="47.78805" lon="-3.40815">
        <ele>34.89</ele>
        <time>2020-07-10T10:48:37Z</time>
      </trkpt>
      <trkpt lat="47.788" lon="-3.40813">
        <ele>35.13</ele>
        <time>2020-07-10T10:48:38Z</time>
      </trkpt>
      <trkpt lat="47.78796" lon="-3.40811">
        <ele>35.32</ele>
        <time>2020-07-10T10:48:39Z</time>
      </trkpt>
      <trkpt lat="47.78792" lon="-3.40809">
        <ele>35.48</ele>
        <time>2020-07-10T10:48:40Z</time>
      </trkpt>
      <trkpt lat="47.78788" lon="-3.40807">
        <ele>35.61</ele>
        <time>2020-07-10T10:48:41Z</time>
      </trkpt>
      <trkpt lat="47.78784" lon="-3.40805">
        <ele>35.72</ele>
        <time>2020-07-10T10:48:42Z</time>
      </trkpt>
      <trkpt lat="47.7878" lon="-3.40803">
        <ele>35.79</ele>
        <time>2020-07-10T10:48:43Z</time>
      </trkpt>
      <trkpt lat="47.78776" lon="-3.40801">
        <ele>35.9</ele>
        <time>2020-07-10T10:48:44Z</time>
      </trkpt>
      <trkpt lat="47.78773" lon="-3.40799">
        <ele>36.03</ele>
        <time>2020-07-10T10:48:45Z</time>
      </trkpt>
      <trkpt lat="47.78769" lon="-3.40798">
        <ele>36.2</ele>
        <time>2020-07-10T10:48:46Z</time>
      </trkpt>
      <trkpt lat="47.78765" lon="-3.40797">
        <ele>36.4</ele>
        <time>2020-07-10T10:48:47Z</time>
      </trkpt>
      <trkpt lat="47.78761" lon="-3.40797">
        <ele>36.63</ele>
        <time>2020-07-10T10:48:48Z</time>
      </trkpt>
      <trkpt lat="47.78757" lon="-3.40796">
        <ele>36.82</ele>
        <time>2020-07-10T10:48:49Z</time>
      </trkpt>
      <trkpt lat="47.78754" lon="-3.40796">
        <ele>36.98</ele>
        <time>2020-07-10T10:48:50Z</time>
      </trkpt>
      <trkpt lat="47.7875" lon="-3.40795">
        <ele>37.12</ele>
        <time>2020-07-10T10:48:51Z</time>
      </trkpt>
      <trkpt lat="47.78747" lon="-3.40793">
        <ele>37.27</ele>
        <time>2020-07-10T10:48:52Z</time>
      </trkpt>
      <trkpt lat="47.78742" lon="-3.40792">
        <ele>37.4</ele>
        <time>2020-07-10T10:48:53Z</time>
      </trkpt>
      <trkpt lat="47.78738" lon="-3.4079">
        <ele>37.47</ele>
        <time>2020-07-10T10:48:54Z</time>
      </trkpt>
      <trkpt lat="47.78734" lon="-3.40788">
        <ele>37.51</ele>
        <time>2020-07-10T10:48:55Z</time>
      </trkpt>
      <trkpt lat="47.78729" lon="-3.40786">
        <ele>37.52</ele>
        <time>2020-07-10T10:48:56Z</time>
      </trkpt>
      <trkpt lat="47.78725" lon="-3.40783">
        <ele>37.47</ele>
        <time>2020-07-10T10:48:57Z</time>
      </trkpt>
      <trkpt lat="47.7872" lon="-3.40781">
        <ele>37.46</ele>
        <time>2020-07-10T10:48:58Z</time>
      </trkpt>
      <trkpt lat="47.78715" lon="-3.40779">
        <ele>37.54</ele>
        <time>2020-07-10T10:48:59Z</time>
      </trkpt>
      <trkpt lat="47.78711" lon="-3.40777">
        <ele>37.69</ele>
        <time>2020-07-10T10:49:00Z</time>
      </trkpt>
      <trkpt lat="47.78706" lon="-3.40774">
        <ele>37.77</ele>
        <time>2020-07-10T10:49:01Z</time>
      </trkpt>
      <trkpt lat="47.78702" lon="-3.40771">
        <ele>37.82</ele>
        <time>2020-07-10T10:49:02Z</time>
      </trkpt>
      <trkpt lat="47.78698" lon="-3.40769">
        <ele>37.82</ele>
        <time>2020-07-10T10:49:03Z</time>
      </trkpt>
      <trkpt lat="47.78693" lon="-3.40766">
        <ele>37.83</ele>
        <time>2020-07-10T10:49:04Z</time>
      </trkpt>
      <trkpt lat="47.78688" lon="-3.40762">
        <ele>37.94</ele>
        <time>2020-07-10T10:49:05Z</time>
      </trkpt>
      <trkpt lat="47.78684" lon="-3.4076">
        <ele>38.13</ele>
        <time>2020-07-10T10:49:06Z</time>
      </trkpt>
      <trkpt lat="47.78679" lon="-3.40757">
        <ele>38.31</ele>
        <time>2020-07-10T10:49:07Z</time>
      </trkpt>
      <trkpt lat="47.78675" lon="-3.40754">
        <ele>38.52</ele>
        <time>2020-07-10T10:49:08Z</time>
      </trkpt>
      <trkpt lat="47.7867" lon="-3.40752">
        <ele>38.74</ele>
        <time>2020-07-10T10:49:09Z</time>
      </trkpt>
      <trkpt lat="47.78665" lon="-3.40748">
        <ele>38.9</ele>
        <time>2020-07-10T10:49:10Z</time>
      </trkpt>
      <trkpt lat="47.78661" lon="-3.40744">
        <ele>39.01</ele>
        <time>2020-07-10T10:49:11Z</time>
      </trkpt>
      <trkpt lat="47.78656" lon="-3.4074">
        <ele>39.05</ele>
        <time>2020-07-10T10:49:12Z</time>
      </trkpt>
      <trkpt lat="47.78652" lon="-3.40736">
        <ele>39.04</ele>
        <time>2020-07-10T10:49:13Z</time>
      </trkpt>
      <trkpt lat="47.78648" lon="-3.40732">
        <ele>39.01</ele>
        <time>2020-07-10T10:49:14Z</time>
      </trkpt>
      <trkpt lat="47.78645" lon="-3.40728">
        <ele>38.98</ele>
        <time>2020-07-10T10:49:15Z</time>
      </trkpt>
      <trkpt lat="47.78641" lon="-3.40723">
        <ele>38.92</ele>
        <time>2020-07-10T10:49:16Z</time>
      </trkpt>
      <trkpt lat="47.78637" lon="-3.40718">
        <ele>38.72</ele>
        <time>2020-07-10T10:49:17Z</time>
      </trkpt>
      <trkpt lat="47.78633" lon="-3.40713">
        <ele>38.36</ele>
        <time>2020-07-10T10:49:18Z</time>
      </trkpt>
      <trkpt lat="47.78629" lon="-3.40707">
        <ele>37.94</ele>
        <time>2020-07-10T10:49:19Z</time>
      </trkpt>
      <trkpt lat="47.78625" lon="-3.40701">
        <ele>37.44</ele>
        <time>2020-07-10T10:49:20Z</time>
      </trkpt>
      <trkpt lat="47.7862" lon="-3.40694">
        <ele>36.9</ele>
        <time>2020-07-10T10:49:21Z</time>
      </trkpt>
      <trkpt lat="47.78616" lon="-3.40688">
        <ele>36.53</ele>
        <time>2020-07-10T10:49:22Z</time>
      </trkpt>
      <trkpt lat="47.7861" lon="-3.40683">
        <ele>36.27</ele>
        <time>2020-07-10T10:49:23Z</time>
      </trkpt>
      <trkpt lat="47.78605" lon="-3.40679">
        <ele>36</ele>
        <time>2020-07-10T10:49:24Z</time>
      </trkpt>
      <trkpt lat="47.786" lon="-3.40675">
        <ele>35.73</ele>
        <time>2020-07-10T10:49:25Z</time>
      </trkpt>
      <trkpt lat="47.78596" lon="-3.40671">
        <ele>35.43</ele>
        <time>2020-07-10T10:49:26Z</time>
      </trkpt>
      <trkpt lat="47.78593" lon="-3.40666">
        <ele>35.1</ele>
        <time>2020-07-10T10:49:27Z</time>
      </trkpt>
      <trkpt lat="47.78591" lon="-3.40661">
        <ele>34.86</ele>
        <time>2020-07-10T10:49:28Z</time>
      </trkpt>
      <trkpt lat="47.78592" lon="-3.40657">
        <ele>34.65</ele>
        <time>2020-07-10T10:49:29Z</time>
      </trkpt>
      <trkpt lat="47.78594" lon="-3.40655">
        <ele>34.47</ele>
        <time>2020-07-10T10:49:30Z</time>
      </trkpt>
      <trkpt lat="47.78596" lon="-3.4065">
        <ele>34.23</ele>
        <time>2020-07-10T10:49:31Z</time>
      </trkpt>
      <trkpt lat="47.78598" lon="-3.40645">
        <ele>33.94</ele>
        <time>2020-07-10T10:49:32Z</time>
      </trkpt>
      <trkpt lat="47.78599" lon="-3.40639">
        <ele>33.58</ele>
        <time>2020-07-10T10:49:33Z</time>
      </trkpt>
      <trkpt lat="47.786" lon="-3.40631">
        <ele>33.26</ele>
        <time>2020-07-10T10:49:34Z</time>
      </trkpt>
      <trkpt lat="47.786" lon="-3.40622">
        <ele>32.93</ele>
        <time>2020-07-10T10:49:35Z</time>
      </trkpt>
      <trkpt lat="47.786" lon="-3.40613">
        <ele>32.6</ele>
        <time>2020-07-10T10:49:36Z</time>
      </trkpt>
      <trkpt lat="47.78602" lon="-3.40604">
        <ele>32.41</ele>
        <time>2020-07-10T10:49:37Z</time>
      </trkpt>
      <trkpt lat="47.78606" lon="-3.40596">
        <ele>32.26</ele>
        <time>2020-07-10T10:49:38Z</time>
      </trkpt>
      <trkpt lat="47.7861" lon="-3.4059">
        <ele>32.09</ele>
        <time>2020-07-10T10:49:39Z</time>
      </trkpt>
      <trkpt lat="47.78616" lon="-3.40583">
        <ele>31.91</ele>
        <time>2020-07-10T10:49:40Z</time>
      </trkpt>
      <trkpt lat="47.78619" lon="-3.40577">
        <ele>31.78</ele>
        <time>2020-07-10T10:49:41Z</time>
      </trkpt>
      <trkpt lat="47.78621" lon="-3.40572">
        <ele>31.67</ele>
        <time>2020-07-10T10:49:42Z</time>
      </trkpt>
      <trkpt lat="47.78623" lon="-3.40567">
        <ele>31.59</ele>
        <time>2020-07-10T10:49:43Z</time>
      </trkpt>
      <trkpt lat="47.78626" lon="-3.40565">
        <ele>31.5</ele>
        <time>2020-07-10T10:49:44Z</time>
      </trkpt>
      <trkpt lat="47.78628" lon="-3.40563">
        <ele>31.42</ele>
        <time>2020-07-10T10:49:45Z</time>
      </trkpt>
      <trkpt lat="47.7863" lon="-3.40561">
        <ele>31.35</ele>
        <time>2020-07-10T10:49:46Z</time>
      </trkpt>
      <trkpt lat="47.78632" lon="-3.40558">
        <ele>31.27</ele>
        <time>2020-07-10T10:49:47Z</time>
      </trkpt>
      <trkpt lat="47.78634" lon="-3.40555">
        <ele>31.22</ele>
        <time>2020-07-10T10:49:48Z</time>
      </trkpt>
      <trkpt lat="47.78637" lon="-3.40554">
        <ele>31.16</ele>
        <time>2020-07-10T10:49:49Z</time>
      </trkpt>
      <trkpt lat="47.78639" lon="-3.40555">
        <ele>31.07</ele>
        <time>2020-07-10T10:49:50Z</time>
      </trkpt>
      <trkpt lat="47.78641" lon="-3.40556">
        <ele>31.02</ele>
        <time>2020-07-10T10:49:51Z</time>
      </trkpt>
      <trkpt lat="47.78643" lon="-3.40558">
        <ele>31.01</ele>
        <time>2020-07-10T10:49:52Z</time>
      </trkpt>
      <trkpt lat="47.78645" lon="-3.40559">
        <ele>31</ele>
        <time>2020-07-10T10:49:53Z</time>
      </trkpt>
      <trkpt lat="47.78646" lon="-3.40559">
        <ele>31</ele>
        <time>2020-07-10T10:49:54Z</time>
      </trkpt>
      <trkpt lat="47.78648" lon="-3.40557">
        <ele>31</ele>
        <time>2020-07-10T10:49:55Z</time>
      </trkpt>
      <trkpt lat="47.7865" lon="-3.40556">
        <ele>31</ele>
        <time>2020-07-10T10:49:56Z</time>
      </trkpt>
      <trkpt lat="47.78652" lon="-3.40556">
        <ele>31</ele>
        <time>2020-07-10T10:49:57Z</time>
      </trkpt>
      <trkpt lat="47.78655" lon="-3.40554">
        <ele>31.01</ele>
        <time>2020-07-10T10:49:58Z</time>
      </trkpt>
      <trkpt lat="47.78656" lon="-3.40553">
        <ele>31.03</ele>
        <time>2020-07-10T10:49:59Z</time>
      </trkpt>
      <trkpt lat="47.78659" lon="-3.4055">
        <ele>31.05</ele>
        <time>2020-07-10T10:50:00Z</time>
      </trkpt>
      <trkpt lat="47.78662" lon="-3.40548">
        <ele>31.05</ele>
        <time>2020-07-10T10:50:01Z</time>
      </trkpt>
      <trkpt lat="47.78665" lon="-3.40546">
        <ele>31.03</ele>
        <time>2020-07-10T10:50:02Z</time>
      </trkpt>
      <trkpt lat="47.78668" lon="-3.40544">
        <ele>30.96</ele>
        <time>2020-07-10T10:50:03Z</time>
      </trkpt>
      <trkpt lat="47.78671" lon="-3.40543">
        <ele>30.87</ele>
        <time>2020-07-10T10:50:04Z</time>
      </trkpt>
      <trkpt lat="47.78674" lon="-3.4054">
        <ele>30.78</ele>
        <time>2020-07-10T10:50:05Z</time>
      </trkpt>
      <trkpt lat="47.78676" lon="-3.40536">
        <ele>30.7</ele>
        <time>2020-07-10T10:50:06Z</time>
      </trkpt>
      <trkpt lat="47.78678" lon="-3.40531">
        <ele>30.63</ele>
        <time>2020-07-10T10:50:07Z</time>
      </trkpt>
      <trkpt lat="47.78681" lon="-3.40526">
        <ele>30.53</ele>
        <time>2020-07-10T10:50:08Z</time>
      </trkpt>
      <trkpt lat="47.78683" lon="-3.4052">
        <ele>30.44</ele>
        <time>2020-07-10T10:50:09Z</time>
      </trkpt>
      <trkpt lat="47.78685" lon="-3.40515">
        <ele>30.36</ele>
        <time>2020-07-10T10:50:10Z</time>
      </trkpt>
      <trkpt lat="47.78688" lon="-3.4051">
        <ele>30.27</ele>
        <time>2020-07-10T10:50:11Z</time>
      </trkpt>
      <trkpt lat="47.7869" lon="-3.40504">
        <ele>30.19</ele>
        <time>2020-07-10T10:50:12Z</time>
      </trkpt>
      <trkpt lat="47.78692" lon="-3.40499">
        <ele>30.12</ele>
        <time>2020-07-10T10:50:13Z</time>
      </trkpt>
      <trkpt lat="47.78694" lon="-3.40493">
        <ele>30.06</ele>
        <time>2020-07-10T10:50:14Z</time>
      </trkpt>
      <trkpt lat="47.78695" lon="-3.40488">
        <ele>30.03</ele>
        <time>2020-07-10T10:50:15Z</time>
      </trkpt>
      <trkpt lat="47.78695" lon="-3.40483">
        <ele>30.08</ele>
        <time>2020-07-10T10:50:16Z</time>
      </trkpt>
      <trkpt lat="47.78696" lon="-3.4048">
        <ele>30.11</ele>
        <time>2020-07-10T10:50:17Z</time>
      </trkpt>
      <trkpt lat="47.78696" lon="-3.40477">
        <ele>30.12</ele>
        <time>2020-07-10T10:50:18Z</time>
      </trkpt>
      <trkpt lat="47.78696" lon="-3.40476">
        <ele>30.12</ele>
        <time>2020-07-10T10:50:19Z</time>
      </trkpt>
      <trkpt lat="47.78695" lon="-3.40476">
        <ele>30.1</ele>
        <time>2020-07-10T10:50:20Z</time>
      </trkpt>
      <trkpt lat="47.78695" lon="-3.40475">
        <ele>30.11</ele>
        <time>2020-07-10T10:50:21Z</time>
      </trkpt>
      <trkpt lat="47.78695" lon="-3.40475">
        <ele>30.11</ele>
        <time>2020-07-10T10:50:22Z</time>
      </trkpt>
      <trkpt lat="47.78695" lon="-3.40475">
        <ele>30.11</ele>
        <time>2020-07-10T10:50:23Z</time>
      </trkpt>
      <trkpt lat="47.78695" lon="-3.40475">
        <ele>30.11</ele>
        <time>2020-07-10T10:50:24Z</time>
      </trkpt>
      <trkpt lat="47.78695" lon="-3.40475">
        <ele>30.11</ele>
        <time>2020-07-10T10:50:25Z</time>
      </trkpt>
      <trkpt lat="47.78695" lon="-3.40475">
        <ele>30.11</ele>
        <time>2020-07-10T10:50:26Z</time>
      </trkpt>
      <trkpt lat="47.78695" lon="-3.40475">
        <ele>30.11</ele>
        <time>2020-07-10T10:50:27Z</time>
      </trkpt>
      <trkpt lat="47.78695" lon="-3.40475">
        <ele>30.11</ele>
        <time>2020-07-10T10:50:28Z</time>
      </trkpt>
      <trkpt lat="47.78695" lon="-3.40475">
        <ele>30.11</ele>
        <time>2020-07-10T10:50:29Z</time>
      </trkpt>
      <trkpt lat="47.78695" lon="-3.40475">
        <ele>30.11</ele>
        <time>2020-07-10T10:50:30Z</time>
      </trkpt>
      <trkpt lat="47.78695" lon="-3.40475">
        <ele>30.11</ele>
        <time>2020-07-10T10:50:31Z</time>
      </trkpt>
      <trkpt lat="47.78695" lon="-3.40475">
        <ele>30.11</ele>
        <time>2020-07-10T10:50:32Z</time>
      </trkpt>
      <trkpt lat="47.78695" lon="-3.40475">
        <ele>30.11</ele>
        <time>2020-07-10T10:50:33Z</time>
      </trkpt>
      <trkpt lat="47.78695" lon="-3.40475">
        <ele>30.11</ele>
        <time>2020-07-10T10:50:34Z</time>
      </trkpt>
      <trkpt lat="47.78695" lon="-3.40475">
        <ele>30.11</ele>
        <time>2020-07-10T10:50:35Z</time>
      </trkpt>
      <trkpt lat="47.78695" lon="-3.40475">
        <ele>30.11</ele>
        <time>2020-07-10T10:50:36Z</time>
      </trkpt>
      <trkpt lat="47.78695" lon="-3.40475">
        <ele>30.11</ele>
        <time>2020-07-10T10:50:37Z</time>
      </trkpt>
      <trkpt lat="47.78695" lon="-3.40475">
        <ele>30.11</ele>
        <time>2020-07-10T10:50:38Z</time>
      </trkpt>
      <trkpt lat="47.78695" lon="-3.40475">
        <ele>30.11</ele>
        <time>2020-07-10T10:50:39Z</time>
      </trkpt>
      <trkpt lat="47.78695" lon="-3.40475">
        <ele>30.11</ele>
        <time>2020-07-10T10:50:40Z</time>
      </trkpt>
      <trkpt lat="47.78695" lon="-3.40475">
        <ele>30.11</ele>
        <time>2020-07-10T10:50:41Z</time>
      </trkpt>
      <trkpt lat="47.78695" lon="-3.40475">
        <ele>30.11</ele>
        <time>2020-07-10T10:50:42Z</time>
      </trkpt>
      <trkpt lat="47.78695" lon="-3.40475">
        <ele>30.11</ele>
        <time>2020-07-10T10:50:43Z</time>
      </trkpt>
      <trkpt lat="47.78695" lon="-3.40475">
        <ele>30.11</ele>
        <time>2020-07-10T10:50:44Z</time>
      </trkpt>
      <trkpt lat="47.78695" lon="-3.40475">
        <ele>30.11</ele>
        <time>2020-07-10T10:50:45Z</time>
      </trkpt>
      <trkpt lat="47.78695" lon="-3.40475">
        <ele>30.11</ele>
        <time>2020-07-10T10:50:46Z</time>
      </trkpt>
      <trkpt lat="47.78695" lon="-3.40475">
        <ele>30.11</ele>
        <time>2020-07-10T10:50:47Z</time>
      </trkpt>
      <trkpt lat="47.78695" lon="-3.40475">
        <ele>30.11</ele>
        <time>2020-07-10T10:50:48Z</time>
      </trkpt>
      <trkpt lat="47.78695" lon="-3.40475">
        <ele>30.11</ele>
        <time>2020-07-10T10:50:49Z</time>
      </trkpt>
      <trkpt lat="47.78695" lon="-3.40475">
        <ele>30.11</ele>
        <time>2020-07-10T10:50:50Z</time>
      </trkpt>
      <trkpt lat="47.78695" lon="-3.40475">
        <ele>30.11</ele>
        <time>2020-07-10T10:50:51Z</time>
      </trkpt>
      <trkpt lat="47.78695" lon="-3.40475">
        <ele>30.11</ele>
        <time>2020-07-10T10:50:52Z</time>
      </trkpt>
      <trkpt lat="47.78695" lon="-3.40475">
        <ele>30.11</ele>
        <time>2020-07-10T10:50:53Z</time>
      </trkpt>
      <trkpt lat="47.78695" lon="-3.40475">
        <ele>30.11</ele>
        <time>2020-07-10T10:50:54Z</time>
      </trkpt>
      <trkpt lat="47.78695" lon="-3.40475">
        <ele>30.11</ele>
        <time>2020-07-10T10:50:55Z</time>
      </trkpt>
      <trkpt lat="47.78695" lon="-3.40475">
        <ele>30.11</ele>
        <time>2020-07-10T10:50:56Z</time>
      </trkpt>
      <trkpt lat="47.78695" lon="-3.40475">
        <ele>30.11</ele>
        <time>2020-07-10T10:50:57Z</time>
      </trkpt>
      <trkpt lat="47.78695" lon="-3.40475">
        <ele>30.11</ele>
        <time>2020-07-10T10:50:58Z</time>
      </trkpt>
      <trkpt lat="47.78695" lon="-3.40475">
        <ele>30.11</ele>
        <time>2020-07-10T10:50:59Z</time>
      </trkpt>
      <trkpt lat="47.78695" lon="-3.40475">
        <ele>30.11</ele>
        <time>2020-07-10T10:51:00Z</time>
      </trkpt>
      <trkpt lat="47.78695" lon="-3.40475">
        <ele>30.11</ele>
        <time>2020-07-10T10:51:01Z</time>
      </trkpt>
      <trkpt lat="47.78695" lon="-3.40475">
        <ele>30.11</ele>
        <time>2020-07-10T10:51:02Z</time>
      </trkpt>
      <trkpt lat="47.78695" lon="-3.40475">
        <ele>30.11</ele>
        <time>2020-07-10T10:51:03Z</time>
      </trkpt>
      <trkpt lat="47.78695" lon="-3.40475">
        <ele>30.11</ele>
        <time>2020-07-10T10:51:04Z</time>
      </trkpt>
      <trkpt lat="47.78695" lon="-3.40475">
        <ele>30.11</ele>
        <time>2020-07-10T10:51:05Z</time>
      </trkpt>
      <trkpt lat="47.78695" lon="-3.40475">
        <ele>30.11</ele>
        <time>2020-07-10T10:51:06Z</time>
      </trkpt>
      <trkpt lat="47.78695" lon="-3.40475">
        <ele>30.11</ele>
        <time>2020-07-10T10:51:07Z</time>
      </trkpt>
      <trkpt lat="47.78695" lon="-3.40475">
        <ele>30.11</ele>
        <time>2020-07-10T10:51:08Z</time>
      </trkpt>
      <trkpt lat="47.78695" lon="-3.40475">
        <ele>30.11</ele>
        <time>2020-07-10T10:51:09Z</time>
      </trkpt>
      <trkpt lat="47.78695" lon="-3.40475">
        <ele>30.11</ele>
        <time>2020-07-10T10:51:10Z</time>
      </trkpt>
      <trkpt lat="47.78695" lon="-3.40475">
        <ele>30.11</ele>
        <time>2020-07-10T10:51:11Z</time>
      </trkpt>
      <trkpt lat="47.78695" lon="-3.40475">
        <ele>30.11</ele>
        <time>2020-07-10T10:51:12Z</time>
      </trkpt>
      <trkpt lat="47.78695" lon="-3.40475">
        <ele>30.11</ele>
        <time>2020-07-10T10:51:13Z</time>
      </trkpt>
      <trkpt lat="47.78695" lon="-3.40475">
        <ele>30.11</ele>
        <time>2020-07-10T10:51:14Z</time>
      </trkpt>
      <trkpt lat="47.78695" lon="-3.40475">
        <ele>30.11</ele>
        <time>2020-07-10T10:51:15Z</time>
      </trkpt>
      <trkpt lat="47.78695" lon="-3.40475">
        <ele>30.11</ele>
        <time>2020-07-10T10:51:16Z</time>
      </trkpt>
      <trkpt lat="47.78695" lon="-3.40475">
        <ele>30.11</ele>
        <time>2020-07-10T10:51:17Z</time>
      </trkpt>
      <trkpt lat="47.78695" lon="-3.40475">
        <ele>30.11</ele>
        <time>2020-07-10T10:51:18Z</time>
      </trkpt>
      <trkpt lat="47.78695" lon="-3.40475">
        <ele>30.11</ele>
        <time>2020-07-10T10:51:19Z</time>
      </trkpt>
      <trkpt lat="47.78695" lon="-3.40475">
        <ele>30.11</ele>
        <time>2020-07-10T10:51:20Z</time>
      </trkpt>
      <trkpt lat="47.78695" lon="-3.40475">
        <ele>30.11</ele>
        <time>2020-07-10T10:51:21Z</time>
      </trkpt>
      <trkpt lat="47.78695" lon="-3.40475">
        <ele>30.11</ele>
        <time>2020-07-10T10:51:22Z</time>
      </trkpt>
      <trkpt lat="47.78695" lon="-3.40475">
        <ele>30.11</ele>
        <time>2020-07-10T10:51:23Z</time>
      </trkpt>
      <trkpt lat="47.78695" lon="-3.40475">
        <ele>30.11</ele>
        <time>2020-07-10T10:51:24Z</time>
      </trkpt>
      <trkpt lat="47.78695" lon="-3.40475">
        <ele>30.11</ele>
        <time>2020-07-10T10:51:25Z</time>
      </trkpt>
      <trkpt lat="47.78695" lon="-3.40475">
        <ele>30.11</ele>
        <time>2020-07-10T10:51:26Z</time>
      </trkpt>
      <trkpt lat="47.78695" lon="-3.40475">
        <ele>30.11</ele>
        <time>2020-07-10T10:51:27Z</time>
      </trkpt>
      <trkpt lat="47.78695" lon="-3.40475">
        <ele>30.11</ele>
        <time>2020-07-10T10:51:28Z</time>
      </trkpt>
      <trkpt lat="47.78695" lon="-3.40475">
        <ele>30.11</ele>
        <time>2020-07-10T10:51:29Z</time>
      </trkpt>
      <trkpt lat="47.78695" lon="-3.40475">
        <ele>30.11</ele>
        <time>2020-07-10T10:51:30Z</time>
      </trkpt>
      <trkpt lat="47.78695" lon="-3.40475">
        <ele>30.11</ele>
        <time>2020-07-10T10:51:31Z</time>
      </trkpt>
      <trkpt lat="47.78695" lon="-3.40475">
        <ele>30.11</ele>
        <time>2020-07-10T10:51:32Z</time>
      </trkpt>
      <trkpt lat="47.78695" lon="-3.40475">
        <ele>30.11</ele>
        <time>2020-07-10T10:51:33Z</time>
      </trkpt>
      <trkpt lat="47.78695" lon="-3.40475">
        <ele>30.11</ele>
        <time>2020-07-10T10:51:34Z</time>
      </trkpt>
      <trkpt lat="47.78695" lon="-3.40475">
        <ele>30.11</ele>
        <time>2020-07-10T10:51:35Z</time>
      </trkpt>
      <trkpt lat="47.78695" lon="-3.40475">
        <ele>30.11</ele>
        <time>2020-07-10T10:51:36Z</time>
      </trkpt>
      <trkpt lat="47.78695" lon="-3.40475">
        <ele>30.11</ele>
        <time>2020-07-10T10:51:37Z</time>
      </trkpt>
      <trkpt lat="47.78695" lon="-3.40475">
        <ele>30.11</ele>
        <time>2020-07-10T10:51:38Z</time>
      </trkpt>
      <trkpt lat="47.78695" lon="-3.40475">
        <ele>30.11</ele>
        <time>2020-07-10T10:51:39Z</time>
      </trkpt>
      <trkpt lat="47.78695" lon="-3.40475">
        <ele>30.11</ele>
        <time>2020-07-10T10:51:40Z</time>
      </trkpt>
      <trkpt lat="47.78695" lon="-3.40475">
        <ele>30.11</ele>
        <time>2020-07-10T10:51:41Z</time>
      </trkpt>
      <trkpt lat="47.78695" lon="-3.40475">
        <ele>30.11</ele>
        <time>2020-07-10T10:51:42Z</time>
      </trkpt>
      <trkpt lat="47.78695" lon="-3.40475">
        <ele>30.11</ele>
        <time>2020-07-10T10:51:43Z</time>
      </trkpt>
      <trkpt lat="47.78695" lon="-3.40475">
        <ele>30.11</ele>
        <time>2020-07-10T10:51:44Z</time>
      </trkpt>
      <trkpt lat="47.78695" lon="-3.40475">
        <ele>30.11</ele>
        <time>2020-07-10T10:51:45Z</time>
      </trkpt>
      <trkpt lat="47.78695" lon="-3.40475">
        <ele>30.11</ele>
        <time>2020-07-10T10:51:46Z</time>
      </trkpt>
      <trkpt lat="47.78695" lon="-3.40475">
        <ele>30.11</ele>
        <time>2020-07-10T10:51:47Z</time>
      </trkpt>
      <trkpt lat="47.78695" lon="-3.40475">
        <ele>30.11</ele>
        <time>2020-07-10T10:51:48Z</time>
      </trkpt>
      <trkpt lat="47.78695" lon="-3.40475">
        <ele>30.11</ele>
        <time>2020-07-10T10:51:49Z</time>
      </trkpt>
      <trkpt lat="47.78695" lon="-3.40475">
        <ele>30.11</ele>
        <time>2020-07-10T10:51:50Z</time>
      </trkpt>
      <trkpt lat="47.78695" lon="-3.40475">
        <ele>30.11</ele>
        <time>2020-07-10T10:51:51Z</time>
      </trkpt>
      <trkpt lat="47.78695" lon="-3.40475">
        <ele>30.11</ele>
        <time>2020-07-10T10:51:52Z</time>
      </trkpt>
      <trkpt lat="47.78695" lon="-3.40475">
        <ele>30.11</ele>
        <time>2020-07-10T10:51:53Z</time>
      </trkpt>
      <trkpt lat="47.78695" lon="-3.40475">
        <ele>30.11</ele>
        <time>2020-07-10T10:51:54Z</time>
      </trkpt>
      <trkpt lat="47.78695" lon="-3.40475">
        <ele>30.11</ele>
        <time>2020-07-10T10:51:55Z</time>
      </trkpt>
      <trkpt lat="47.78695" lon="-3.40475">
        <ele>30.11</ele>
        <time>2020-07-10T10:51:56Z</time>
      </trkpt>
      <trkpt lat="47.78695" lon="-3.40475">
        <ele>30.11</ele>
        <time>2020-07-10T10:51:57Z</time>
      </trkpt>
      <trkpt lat="47.78695" lon="-3.40475">
        <ele>30.11</ele>
        <time>2020-07-10T10:51:58Z</time>
      </trkpt>
      <trkpt lat="47.78695" lon="-3.40475">
        <ele>30.11</ele>
        <time>2020-07-10T10:51:59Z</time>
      </trkpt>
      <trkpt lat="47.78695" lon="-3.40475">
        <ele>30.11</ele>
        <time>2020-07-10T10:52:00Z</time>
      </trkpt>
      <trkpt lat="47.78695" lon="-3.40475">
        <ele>30.11</ele>
        <time>2020-07-10T10:52:01Z</time>
      </trkpt>
      <trkpt lat="47.78695" lon="-3.40475">
        <ele>30.11</ele>
        <time>2020-07-10T10:52:02Z</time>
      </trkpt>
      <trkpt lat="47.78695" lon="-3.40475">
        <ele>30.11</ele>
        <time>2020-07-10T10:52:03Z</time>
      </trkpt>
      <trkpt lat="47.78695" lon="-3.40475">
        <ele>30.11</ele>
        <time>2020-07-10T10:52:04Z</time>
      </trkpt>
      <trkpt lat="47.78695" lon="-3.40475">
        <ele>30.11</ele>
        <time>2020-07-10T10:52:05Z</time>
      </trkpt>
      <trkpt lat="47.78695" lon="-3.40475">
        <ele>30.11</ele>
        <time>2020-07-10T10:52:06Z</time>
      </trkpt>
      <trkpt lat="47.78695" lon="-3.40475">
        <ele>30.11</ele>
        <time>2020-07-10T10:52:07Z</time>
      </trkpt>
      <trkpt lat="47.78695" lon="-3.40475">
        <ele>30.11</ele>
        <time>2020-07-10T10:52:08Z</time>
      </trkpt>
      <trkpt lat="47.78695" lon="-3.40475">
        <ele>30.11</ele>
        <time>2020-07-10T10:52:09Z</time>
      </trkpt>
      <trkpt lat="47.78695" lon="-3.40475">
        <ele>30.11</ele>
        <time>2020-07-10T10:52:10Z</time>
      </trkpt>
      <trkpt lat="47.78695" lon="-3.40475">
        <ele>30.11</ele>
        <time>2020-07-10T10:52:11Z</time>
      </trkpt>
      <trkpt lat="47.78695" lon="-3.40475">
        <ele>30.11</ele>
        <time>2020-07-10T10:52:12Z</time>
      </trkpt>
      <trkpt lat="47.78695" lon="-3.40475">
        <ele>30.11</ele>
        <time>2020-07-10T10:52:13Z</time>
      </trkpt>
      <trkpt lat="47.78695" lon="-3.40475">
        <ele>30.11</ele>
        <time>2020-07-10T10:52:14Z</time>
      </trkpt>
      <trkpt lat="47.78695" lon="-3.40475">
        <ele>30.11</ele>
        <time>2020-07-10T10:52:15Z</time>
      </trkpt>
      <trkpt lat="47.78695" lon="-3.40475">
        <ele>30.11</ele>
        <time>2020-07-10T10:52:16Z</time>
      </trkpt>
      <trkpt lat="47.78695" lon="-3.40475">
        <ele>30.11</ele>
        <time>2020-07-10T10:52:17Z</time>
      </trkpt>
      <trkpt lat="47.78695" lon="-3.40475">
        <ele>30.11</ele>
        <time>2020-07-10T10:52:18Z</time>
      </trkpt>
      <trkpt lat="47.78695" lon="-3.40475">
        <ele>30.11</ele>
        <time>2020-07-10T10:52:19Z</time>
      </trkpt>
      <trkpt lat="47.78695" lon="-3.40475">
        <ele>30.11</ele>
        <time>2020-07-10T10:52:20Z</time>
      </trkpt>
      <trkpt lat="47.78695" lon="-3.40475">
        <ele>30.11</ele>
        <time>2020-07-10T10:52:21Z</time>
      </trkpt>
      <trkpt lat="47.78695" lon="-3.40475">
        <ele>30.11</ele>
        <time>2020-07-10T10:52:22Z</time>
      </trkpt>
      <trkpt lat="47.78695" lon="-3.40475">
        <ele>30.11</ele>
        <time>2020-07-10T10:52:23Z</time>
      </trkpt>
      <trkpt lat="47.78695" lon="-3.40475">
        <ele>30.11</ele>
        <time>2020-07-10T10:52:24Z</time>
      </trkpt>
      <trkpt lat="47.78695" lon="-3.40475">
        <ele>30.11</ele>
        <time>2020-07-10T10:52:25Z</time>
      </trkpt>
      <trkpt lat="47.78695" lon="-3.40475">
        <ele>30.11</ele>
        <time>2020-07-10T10:52:26Z</time>
      </trkpt>
      <trkpt lat="47.78695" lon="-3.40475">
        <ele>30.11</ele>
        <time>2020-07-10T10:52:27Z</time>
      </trkpt>
      <trkpt lat="47.78695" lon="-3.40475">
        <ele>30.11</ele>
        <time>2020-07-10T10:52:28Z</time>
      </trkpt>
      <trkpt lat="47.78695" lon="-3.40475">
        <ele>30.11</ele>
        <time>2020-07-10T10:52:29Z</time>
      </trkpt>
      <trkpt lat="47.78695" lon="-3.40475">
        <ele>30.11</ele>
        <time>2020-07-10T10:52:30Z</time>
      </trkpt>
      <trkpt lat="47.78695" lon="-3.40475">
        <ele>30.11</ele>
        <time>2020-07-10T10:52:31Z</time>
      </trkpt>
      <trkpt lat="47.78695" lon="-3.40475">
        <ele>30.11</ele>
        <time>2020-07-10T10:52:32Z</time>
      </trkpt>
      <trkpt lat="47.78695" lon="-3.40475">
        <ele>30.11</ele>
        <time>2020-07-10T10:52:33Z</time>
      </trkpt>
      <trkpt lat="47.78695" lon="-3.40475">
        <ele>30.11</ele>
        <time>2020-07-10T10:52:34Z</time>
      </trkpt>
      <trkpt lat="47.78695" lon="-3.40475">
        <ele>30.11</ele>
        <time>2020-07-10T10:52:35Z</time>
      </trkpt>
      <trkpt lat="47.78695" lon="-3.40475">
        <ele>30.11</ele>
        <time>2020-07-10T10:52:36Z</time>
      </trkpt>
      <trkpt lat="47.78695" lon="-3.40475">
        <ele>30.11</ele>
        <time>2020-07-10T10:52:37Z</time>
      </trkpt>
      <trkpt lat="47.78695" lon="-3.40475">
        <ele>30.11</ele>
        <time>2020-07-10T10:52:38Z</time>
      </trkpt>
      <trkpt lat="47.78695" lon="-3.40475">
        <ele>30.11</ele>
        <time>2020-07-10T10:52:39Z</time>
      </trkpt>
      <trkpt lat="47.78695" lon="-3.40475">
        <ele>30.11</ele>
        <time>2020-07-10T10:52:40Z</time>
      </trkpt>
      <trkpt lat="47.78695" lon="-3.40475">
        <ele>30.11</ele>
        <time>2020-07-10T10:52:41Z</time>
      </trkpt>
      <trkpt lat="47.78695" lon="-3.40475">
        <ele>30.11</ele>
        <time>2020-07-10T10:52:42Z</time>
      </trkpt>
      <trkpt lat="47.78695" lon="-3.40475">
        <ele>30.11</ele>
        <time>2020-07-10T10:52:43Z</time>
      </trkpt>
      <trkpt lat="47.78695" lon="-3.40475">
        <ele>30.11</ele>
        <time>2020-07-10T10:52:44Z</time>
      </trkpt>
      <trkpt lat="47.78695" lon="-3.40475">
        <ele>30.11</ele>
        <time>2020-07-10T10:52:45Z</time>
      </trkpt>
      <trkpt lat="47.78695" lon="-3.40475">
        <ele>30.11</ele>
        <time>2020-07-10T10:52:46Z</time>
      </trkpt>
      <trkpt lat="47.78695" lon="-3.40475">
        <ele>30.11</ele>
        <time>2020-07-10T10:52:47Z</time>
      </trkpt>
      <trkpt lat="47.78695" lon="-3.40475">
        <ele>30.11</ele>
        <time>2020-07-10T10:52:48Z</time>
      </trkpt>
      <trkpt lat="47.78695" lon="-3.40475">
        <ele>30.11</ele>
        <time>2020-07-10T10:52:49Z</time>
      </trkpt>
      <trkpt lat="47.78695" lon="-3.40475">
        <ele>30.11</ele>
        <time>2020-07-10T10:52:50Z</time>
      </trkpt>
      <trkpt lat="47.78695" lon="-3.40475">
        <ele>30.11</ele>
        <time>2020-07-10T10:52:51Z</time>
      </trkpt>
      <trkpt lat="47.78695" lon="-3.40475">
        <ele>30.11</ele>
        <time>2020-07-10T10:52:52Z</time>
      </trkpt>
      <trkpt lat="47.78695" lon="-3.40475">
        <ele>30.11</ele>
        <time>2020-07-10T10:52:53Z</time>
      </trkpt>
      <trkpt lat="47.78695" lon="-3.40475">
        <ele>30.11</ele>
        <time>2020-07-10T10:52:54Z</time>
      </trkpt>
      <trkpt lat="47.78695" lon="-3.40475">
        <ele>30.11</ele>
        <time>2020-07-10T10:52:55Z</time>
      </trkpt>
      <trkpt lat="47.78695" lon="-3.40475">
        <ele>30.11</ele>
        <time>2020-07-10T10:52:56Z</time>
      </trkpt>
      <trkpt lat="47.78695" lon="-3.40475">
        <ele>30.11</ele>
        <time>2020-07-10T10:52:57Z</time>
      </trkpt>
      <trkpt lat="47.78695" lon="-3.40475">
        <ele>30.11</ele>
        <time>2020-07-10T10:52:58Z</time>
      </trkpt>
      <trkpt lat="47.78695" lon="-3.40475">
        <ele>30.11</ele>
        <time>2020-07-10T10:52:59Z</time>
      </trkpt>
      <trkpt lat="47.78695" lon="-3.40475">
        <ele>30.11</ele>
        <time>2020-07-10T10:53:00Z</time>
      </trkpt>
      <trkpt lat="47.78695" lon="-3.40475">
        <ele>30.11</ele>
        <time>2020-07-10T10:53:01Z</time>
      </trkpt>
      <trkpt lat="47.78695" lon="-3.40475">
        <ele>30.11</ele>
        <time>2020-07-10T10:53:02Z</time>
      </trkpt>
      <trkpt lat="47.78695" lon="-3.40475">
        <ele>30.11</ele>
        <time>2020-07-10T10:53:03Z</time>
      </trkpt>
      <trkpt lat="47.78695" lon="-3.40475">
        <ele>30.11</ele>
        <time>2020-07-10T10:53:04Z</time>
      </trkpt>
      <trkpt lat="47.78695" lon="-3.40475">
        <ele>30.11</ele>
        <time>2020-07-10T10:53:05Z</time>
      </trkpt>
      <trkpt lat="47.78695" lon="-3.40475">
        <ele>30.11</ele>
        <time>2020-07-10T10:53:06Z</time>
      </trkpt>
      <trkpt lat="47.78695" lon="-3.40475">
        <ele>30.11</ele>
        <time>2020-07-10T10:53:07Z</time>
      </trkpt>
      <trkpt lat="47.78695" lon="-3.40475">
        <ele>30.11</ele>
        <time>2020-07-10T10:53:08Z</time>
      </trkpt>
      <trkpt lat="47.78695" lon="-3.40475">
        <ele>30.11</ele>
        <time>2020-07-10T10:53:09Z</time>
      </trkpt>
      <trkpt lat="47.78695" lon="-3.40475">
        <ele>30.11</ele>
        <time>2020-07-10T10:53:10Z</time>
      </trkpt>
      <trkpt lat="47.78695" lon="-3.40475">
        <ele>30.11</ele>
        <time>2020-07-10T10:53:11Z</time>
      </trkpt>
      <trkpt lat="47.78695" lon="-3.40475">
        <ele>30.11</ele>
        <time>2020-07-10T10:53:12Z</time>
      </trkpt>
      <trkpt lat="47.78695" lon="-3.40475">
        <ele>30.11</ele>
        <time>2020-07-10T10:53:13Z</time>
      </trkpt>
      <trkpt lat="47.78695" lon="-3.40475">
        <ele>30.11</ele>
        <time>2020-07-10T10:53:14Z</time>
      </trkpt>
      <trkpt lat="47.78695" lon="-3.40475">
        <ele>30.11</ele>
        <time>2020-07-10T10:53:15Z</time>
      </trkpt>
      <trkpt lat="47.78695" lon="-3.40475">
        <ele>30.11</ele>
        <time>2020-07-10T10:53:16Z</time>
      </trkpt>
      <trkpt lat="47.78695" lon="-3.40475">
        <ele>30.11</ele>
        <time>2020-07-10T10:53:17Z</time>
      </trkpt>
      <trkpt lat="47.78695" lon="-3.40475">
        <ele>30.11</ele>
        <time>2020-07-10T10:53:18Z</time>
      </trkpt>
      <trkpt lat="47.78695" lon="-3.40475">
        <ele>30.11</ele>
        <time>2020-07-10T10:53:19Z</time>
      </trkpt>
      <trkpt lat="47.78695" lon="-3.40475">
        <ele>30.11</ele>
        <time>2020-07-10T10:53:20Z</time>
      </trkpt>
      <trkpt lat="47.78695" lon="-3.40475">
        <ele>30.11</ele>
        <time>2020-07-10T10:53:21Z</time>
      </trkpt>
      <trkpt lat="47.78695" lon="-3.40475">
        <ele>30.11</ele>
        <time>2020-07-10T10:53:22Z</time>
      </trkpt>
      <trkpt lat="47.78695" lon="-3.40475">
        <ele>30.11</ele>
        <time>2020-07-10T10:53:23Z</time>
      </trkpt>
      <trkpt lat="47.78695" lon="-3.40475">
        <ele>30.11</ele>
        <time>2020-07-10T10:53:24Z</time>
      </trkpt>
      <trkpt lat="47.78695" lon="-3.40475">
        <ele>30.11</ele>
        <time>2020-07-10T10:53:25Z</time>
      </trkpt>
      <trkpt lat="47.78695" lon="-3.40475">
        <ele>30.11</ele>
        <time>2020-07-10T10:53:26Z</time>
      </trkpt>
      <trkpt lat="47.78695" lon="-3.40475">
        <ele>30.11</ele>
        <time>2020-07-10T10:53:27Z</time>
      </trkpt>
      <trkpt lat="47.78695" lon="-3.40475">
        <ele>30.11</ele>
        <time>2020-07-10T10:53:28Z</time>
      </trkpt>
      <trkpt lat="47.78695" lon="-3.40475">
        <ele>30.11</ele>
        <time>2020-07-10T10:53:29Z</time>
      </trkpt>
      <trkpt lat="47.78695" lon="-3.40475">
        <ele>30.11</ele>
        <time>2020-07-10T10:53:30Z</time>
      </trkpt>
      <trkpt lat="47.78695" lon="-3.40475">
        <ele>30.11</ele>
        <time>2020-07-10T10:53:31Z</time>
      </trkpt>
      <trkpt lat="47.78695" lon="-3.40475">
        <ele>30.11</ele>
        <time>2020-07-10T10:53:32Z</time>
      </trkpt>
      <trkpt lat="47.78695" lon="-3.40475">
        <ele>30.11</ele>
        <time>2020-07-10T10:53:33Z</time>
      </trkpt>
      <trkpt lat="47.78695" lon="-3.40475">
        <ele>30.11</ele>
        <time>2020-07-10T10:53:34Z</time>
      </trkpt>
      <trkpt lat="47.78695" lon="-3.40475">
        <ele>30.11</ele>
        <time>2020-07-10T10:53:35Z</time>
      </trkpt>
      <trkpt lat="47.78695" lon="-3.40475">
        <ele>30.11</ele>
        <time>2020-07-10T10:53:36Z</time>
      </trkpt>
      <trkpt lat="47.78695" lon="-3.40475">
        <ele>30.11</ele>
        <time>2020-07-10T10:53:37Z</time>
      </trkpt>
      <trkpt lat="47.78695" lon="-3.40475">
        <ele>30.11</ele>
        <time>2020-07-10T10:53:38Z</time>
      </trkpt>
      <trkpt lat="47.78695" lon="-3.40475">
        <ele>30.11</ele>
        <time>2020-07-10T10:53:39Z</time>
      </trkpt>
      <trkpt lat="47.78695" lon="-3.40475">
        <ele>30.11</ele>
        <time>2020-07-10T10:53:40Z</time>
      </trkpt>
      <trkpt lat="47.78695" lon="-3.40475">
        <ele>30.11</ele>
        <time>2020-07-10T10:53:41Z</time>
      </trkpt>
      <trkpt lat="47.78695" lon="-3.40475">
        <ele>30.11</ele>
        <time>2020-07-10T10:53:42Z</time>
      </trkpt>
      <trkpt lat="47.78695" lon="-3.40475">
        <ele>30.11</ele>
        <time>2020-07-10T10:53:43Z</time>
      </trkpt>
      <trkpt lat="47.78695" lon="-3.40475">
        <ele>30.11</ele>
        <time>2020-07-10T10:53:45Z</time>
      </trkpt>
      <trkpt lat="47.78695" lon="-3.40475">
        <ele>30.11</ele>
        <time>2020-07-10T10:53:46Z</time>
      </trkpt>
      <trkpt lat="47.78695" lon="-3.40475">
        <ele>30.11</ele>
        <time>2020-07-10T10:53:47Z</time>
      </trkpt>
      <trkpt lat="47.78695" lon="-3.40475">
        <ele>30.11</ele>
        <time>2020-07-10T10:53:48Z</time>
      </trkpt>
      <trkpt lat="47.78695" lon="-3.40475">
        <ele>30.11</ele>
        <time>2020-07-10T10:53:49Z</time>
      </trkpt>
      <trkpt lat="47.78695" lon="-3.40475">
        <ele>30.11</ele>
        <time>2020-07-10T10:53:50Z</time>
      </trkpt>
      <trkpt lat="47.78695" lon="-3.40475">
        <ele>30.11</ele>
        <time>2020-07-10T10:53:51Z</time>
      </trkpt>
      <trkpt lat="47.78695" lon="-3.40475">
        <ele>30.11</ele>
        <time>2020-07-10T10:53:52Z</time>
      </trkpt>
      <trkpt lat="47.78695" lon="-3.40475">
        <ele>30.11</ele>
        <time>2020-07-10T10:53:53Z</time>
      </trkpt>
      <trkpt lat="47.78695" lon="-3.40475">
        <ele>30.11</ele>
        <time>2020-07-10T10:53:54Z</time>
      </trkpt>
      <trkpt lat="47.78695" lon="-3.40475">
        <ele>30.11</ele>
        <time>2020-07-10T10:53:55Z</time>
      </trkpt>
      <trkpt lat="47.78695" lon="-3.40475">
        <ele>30.11</ele>
        <time>2020-07-10T10:53:56Z</time>
      </trkpt>
      <trkpt lat="47.78695" lon="-3.40475">
        <ele>30.11</ele>
        <time>2020-07-10T10:53:57Z</time>
      </trkpt>
      <trkpt lat="47.78695" lon="-3.40475">
        <ele>30.11</ele>
        <time>2020-07-10T10:53:58Z</time>
      </trkpt>
      <trkpt lat="47.78695" lon="-3.40475">
        <ele>30.11</ele>
        <time>2020-07-10T10:53:59Z</time>
      </trkpt>
      <trkpt lat="47.78695" lon="-3.40475">
        <ele>30.11</ele>
        <time>2020-07-10T10:54:00Z</time>
      </trkpt>
      <trkpt lat="47.78695" lon="-3.40475">
        <ele>30.11</ele>
        <time>2020-07-10T10:54:01Z</time>
      </trkpt>
      <trkpt lat="47.78695" lon="-3.40475">
        <ele>30.11</ele>
        <time>2020-07-10T10:54:02Z</time>
      </trkpt>
      <trkpt lat="47.78695" lon="-3.40475">
        <ele>30.11</ele>
        <time>2020-07-10T10:54:03Z</time>
      </trkpt>
      <trkpt lat="47.78695" lon="-3.40475">
        <ele>30.11</ele>
        <time>2020-07-10T10:54:04Z</time>
      </trkpt>
      <trkpt lat="47.78695" lon="-3.40475">
        <ele>30.11</ele>
        <time>2020-07-10T10:54:05Z</time>
      </trkpt>
      <trkpt lat="47.78695" lon="-3.40475">
        <ele>30.11</ele>
        <time>2020-07-10T10:54:06Z</time>
      </trkpt>
      <trkpt lat="47.78695" lon="-3.40475">
        <ele>30.11</ele>
        <time>2020-07-10T10:54:07Z</time>
      </trkpt>
      <trkpt lat="47.78695" lon="-3.40475">
        <ele>30.11</ele>
        <time>2020-07-10T10:54:08Z</time>
      </trkpt>
      <trkpt lat="47.78695" lon="-3.40475">
        <ele>30.11</ele>
        <time>2020-07-10T10:54:09Z</time>
      </trkpt>
      <trkpt lat="47.78695" lon="-3.40475">
        <ele>30.11</ele>
        <time>2020-07-10T10:54:10Z</time>
      </trkpt>
      <trkpt lat="47.78695" lon="-3.40475">
        <ele>30.11</ele>
        <time>2020-07-10T10:54:11Z</time>
      </trkpt>
      <trkpt lat="47.78695" lon="-3.40475">
        <ele>30.11</ele>
        <time>2020-07-10T10:54:12Z</time>
      </trkpt>
      <trkpt lat="47.78695" lon="-3.40475">
        <ele>30.11</ele>
        <time>2020-07-10T10:54:13Z</time>
      </trkpt>
      <trkpt lat="47.78695" lon="-3.40475">
        <ele>30.11</ele>
        <time>2020-07-10T10:54:14Z</time>
      </trkpt>
      <trkpt lat="47.78695" lon="-3.40475">
        <ele>30.11</ele>
        <time>2020-07-10T10:54:15Z</time>
      </trkpt>
      <trkpt lat="47.78695" lon="-3.40475">
        <ele>30.11</ele>
        <time>2020-07-10T10:54:16Z</time>
      </trkpt>
      <trkpt lat="47.78695" lon="-3.40475">
        <ele>30.11</ele>
        <time>2020-07-10T10:54:17Z</time>
      </trkpt>
      <trkpt lat="47.78695" lon="-3.40475">
        <ele>30.11</ele>
        <time>2020-07-10T10:54:18Z</time>
      </trkpt>
      <trkpt lat="47.78695" lon="-3.40475">
        <ele>30.11</ele>
        <time>2020-07-10T10:54:19Z</time>
      </trkpt>
      <trkpt lat="47.78695" lon="-3.40475">
        <ele>30.11</ele>
        <time>2020-07-10T10:54:20Z</time>
      </trkpt>
      <trkpt lat="47.78695" lon="-3.40475">
        <ele>30.11</ele>
        <time>2020-07-10T10:54:21Z</time>
      </trkpt>
      <trkpt lat="47.78695" lon="-3.40475">
        <ele>30.11</ele>
        <time>2020-07-10T10:54:22Z</time>
      </trkpt>
      <trkpt lat="47.78695" lon="-3.40475">
        <ele>30.11</ele>
        <time>2020-07-10T10:54:23Z</time>
      </trkpt>
      <trkpt lat="47.78695" lon="-3.40475">
        <ele>30.11</ele>
        <time>2020-07-10T10:54:24Z</time>
      </trkpt>
      <trkpt lat="47.78695" lon="-3.40475">
        <ele>30.11</ele>
        <time>2020-07-10T10:54:25Z</time>
      </trkpt>
      <trkpt lat="47.78695" lon="-3.40475">
        <ele>30.11</ele>
        <time>2020-07-10T10:54:26Z</time>
      </trkpt>
      <trkpt lat="47.78695" lon="-3.40475">
        <ele>30.11</ele>
        <time>2020-07-10T10:54:27Z</time>
      </trkpt>
      <trkpt lat="47.78695" lon="-3.40475">
        <ele>30.11</ele>
        <time>2020-07-10T10:54:28Z</time>
      </trkpt>
      <trkpt lat="47.78695" lon="-3.40475">
        <ele>30.11</ele>
        <time>2020-07-10T10:54:29Z</time>
      </trkpt>
      <trkpt lat="47.78695" lon="-3.40475">
        <ele>30.11</ele>
        <time>2020-07-10T10:54:30Z</time>
      </trkpt>
      <trkpt lat="47.78695" lon="-3.40475">
        <ele>30.11</ele>
        <time>2020-07-10T10:54:31Z</time>
      </trkpt>
      <trkpt lat="47.78695" lon="-3.40475">
        <ele>30.11</ele>
        <time>2020-07-10T10:54:32Z</time>
      </trkpt>
      <trkpt lat="47.78695" lon="-3.40475">
        <ele>30.11</ele>
        <time>2020-07-10T10:54:33Z</time>
      </trkpt>
      <trkpt lat="47.78695" lon="-3.40475">
        <ele>30.11</ele>
        <time>2020-07-10T10:54:34Z</time>
      </trkpt>
      <trkpt lat="47.78695" lon="-3.40475">
        <ele>30.11</ele>
        <time>2020-07-10T10:54:35Z</time>
      </trkpt>
      <trkpt lat="47.78695" lon="-3.40475">
        <ele>30.11</ele>
        <time>2020-07-10T10:54:36Z</time>
      </trkpt>
      <trkpt lat="47.78695" lon="-3.40475">
        <ele>30.11</ele>
        <time>2020-07-10T10:54:37Z</time>
      </trkpt>
      <trkpt lat="47.78695" lon="-3.40475">
        <ele>30.11</ele>
        <time>2020-07-10T10:54:38Z</time>
      </trkpt>
      <trkpt lat="47.78695" lon="-3.40475">
        <ele>30.11</ele>
        <time>2020-07-10T10:54:39Z</time>
      </trkpt>
      <trkpt lat="47.78695" lon="-3.40475">
        <ele>30.11</ele>
        <time>2020-07-10T10:54:40Z</time>
      </trkpt>
      <trkpt lat="47.78695" lon="-3.40475">
        <ele>30.11</ele>
        <time>2020-07-10T10:54:41Z</time>
      </trkpt>
      <trkpt lat="47.78695" lon="-3.40475">
        <ele>30.11</ele>
        <time>2020-07-10T10:54:42Z</time>
      </trkpt>
      <trkpt lat="47.78695" lon="-3.40475">
        <ele>30.11</ele>
        <time>2020-07-10T10:54:43Z</time>
      </trkpt>
      <trkpt lat="47.78695" lon="-3.40475">
        <ele>30.11</ele>
        <time>2020-07-10T10:54:44Z</time>
      </trkpt>
      <trkpt lat="47.78689" lon="-3.40465">
        <ele>30.29</ele>
        <time>2020-07-10T10:54:45Z</time>
      </trkpt>
      <trkpt lat="47.78689" lon="-3.40462">
        <ele>30.38</ele>
        <time>2020-07-10T10:54:46Z</time>
      </trkpt>
      <trkpt lat="47.78689" lon="-3.40459">
        <ele>30.46</ele>
        <time>2020-07-10T10:54:47Z</time>
      </trkpt>
      <trkpt lat="47.78688" lon="-3.40455">
        <ele>30.53</ele>
        <time>2020-07-10T10:54:48Z</time>
      </trkpt>
      <trkpt lat="47.78688" lon="-3.40452">
        <ele>30.59</ele>
        <time>2020-07-10T10:54:49Z</time>
      </trkpt>
      <trkpt lat="47.78687" lon="-3.40448">
        <ele>30.66</ele>
        <time>2020-07-10T10:54:50Z</time>
      </trkpt>
      <trkpt lat="47.78686" lon="-3.40442">
        <ele>30.72</ele>
        <time>2020-07-10T10:54:51Z</time>
      </trkpt>
      <trkpt lat="47.78685" lon="-3.40436">
        <ele>30.8</ele>
        <time>2020-07-10T10:54:52Z</time>
      </trkpt>
      <trkpt lat="47.78684" lon="-3.40431">
        <ele>30.88</ele>
        <time>2020-07-10T10:54:53Z</time>
      </trkpt>
      <trkpt lat="47.78682" lon="-3.40425">
        <ele>30.93</ele>
        <time>2020-07-10T10:54:54Z</time>
      </trkpt>
      <trkpt lat="47.78681" lon="-3.40419">
        <ele>30.99</ele>
        <time>2020-07-10T10:54:55Z</time>
      </trkpt>
      <trkpt lat="47.7868" lon="-3.40413">
        <ele>30.96</ele>
        <time>2020-07-10T10:54:56Z</time>
      </trkpt>
      <trkpt lat="47.78679" lon="-3.40406">
        <ele>30.88</ele>
        <time>2020-07-10T10:54:57Z</time>
      </trkpt>
      <trkpt lat="47.78678" lon="-3.40399">
        <ele>30.75</ele>
        <time>2020-07-10T10:54:58Z</time>
      </trkpt>
      <trkpt lat="47.78677" lon="-3.40393">
        <ele>30.56</ele>
        <time>2020-07-10T10:54:59Z</time>
      </trkpt>
      <trkpt lat="47.78676" lon="-3.40386">
        <ele>30.43</ele>
        <time>2020-07-10T10:55:00Z</time>
      </trkpt>
      <trkpt lat="47.78676" lon="-3.4038">
        <ele>30.33</ele>
        <time>2020-07-10T10:55:01Z</time>
      </trkpt>
      <trkpt lat="47.78676" lon="-3.40373">
        <ele>30.31</ele>
        <time>2020-07-10T10:55:02Z</time>
      </trkpt>
      <trkpt lat="47.78676" lon="-3.40367">
        <ele>30.33</ele>
        <time>2020-07-10T10:55:03Z</time>
      </trkpt>
      <trkpt lat="47.78676" lon="-3.40361">
        <ele>30.36</ele>
        <time>2020-07-10T10:55:04Z</time>
      </trkpt>
      <trkpt lat="47.78676" lon="-3.40356">
        <ele>30.37</ele>
        <time>2020-07-10T10:55:05Z</time>
      </trkpt>
      <trkpt lat="47.78676" lon="-3.40349">
        <ele>30.49</ele>
        <time>2020-07-10T10:55:06Z</time>
      </trkpt>
      <trkpt lat="47.78676" lon="-3.40342">
        <ele>30.51</ele>
        <time>2020-07-10T10:55:07Z</time>
      </trkpt>
      <trkpt lat="47.78675" lon="-3.40334">
        <ele>30.5</ele>
        <time>2020-07-10T10:55:08Z</time>
      </trkpt>
      <trkpt lat="47.78674" lon="-3.40327">
        <ele>30.35</ele>
        <time>2020-07-10T10:55:09Z</time>
      </trkpt>
      <trkpt lat="47.78673" lon="-3.4032">
        <ele>30.16</ele>
        <time>2020-07-10T10:55:10Z</time>
      </trkpt>
      <trkpt lat="47.78672" lon="-3.40313">
        <ele>29.96</ele>
        <time>2020-07-10T10:55:11Z</time>
      </trkpt>
      <trkpt lat="47.7867" lon="-3.40306">
        <ele>29.71</ele>
        <time>2020-07-10T10:55:12Z</time>
      </trkpt>
      <trkpt lat="47.78669" lon="-3.40298">
        <ele>29.7</ele>
        <time>2020-07-10T10:55:13Z</time>
      </trkpt>
      <trkpt lat="47.78668" lon="-3.4029">
        <ele>29.77</ele>
        <time>2020-07-10T10:55:14Z</time>
      </trkpt>
      <trkpt lat="47.78667" lon="-3.40282">
        <ele>29.91</ele>
        <time>2020-07-10T10:55:15Z</time>
      </trkpt>
      <trkpt lat="47.78665" lon="-3.40272">
        <ele>30.05</ele>
        <time>2020-07-10T10:55:16Z</time>
      </trkpt>
      <trkpt lat="47.78663" lon="-3.40263">
        <ele>30.21</ele>
        <time>2020-07-10T10:55:17Z</time>
      </trkpt>
      <trkpt lat="47.78662" lon="-3.40255">
        <ele>30.31</ele>
        <time>2020-07-10T10:55:18Z</time>
      </trkpt>
      <trkpt lat="47.7866" lon="-3.40246">
        <ele>30.37</ele>
        <time>2020-07-10T10:55:19Z</time>
      </trkpt>
      <trkpt lat="47.78658" lon="-3.40238">
        <ele>30.4</ele>
        <time>2020-07-10T10:55:20Z</time>
      </trkpt>
      <trkpt lat="47.78657" lon="-3.40231">
        <ele>30.4</ele>
        <time>2020-07-10T10:55:21Z</time>
      </trkpt>
      <trkpt lat="47.78655" lon="-3.40224">
        <ele>30.35</ele>
        <time>2020-07-10T10:55:22Z</time>
      </trkpt>
      <trkpt lat="47.78655" lon="-3.40217">
        <ele>30.37</ele>
        <time>2020-07-10T10:55:23Z</time>
      </trkpt>
      <trkpt lat="47.78654" lon="-3.4021">
        <ele>30.34</ele>
        <time>2020-07-10T10:55:24Z</time>
      </trkpt>
      <trkpt lat="47.78653" lon="-3.40203">
        <ele>30.39</ele>
        <time>2020-07-10T10:55:25Z</time>
      </trkpt>
      <trkpt lat="47.78652" lon="-3.40197">
        <ele>30.42</ele>
        <time>2020-07-10T10:55:26Z</time>
      </trkpt>
      <trkpt lat="47.78652" lon="-3.40189">
        <ele>30.51</ele>
        <time>2020-07-10T10:55:27Z</time>
      </trkpt>
      <trkpt lat="47.7865" lon="-3.40181">
        <ele>30.65</ele>
        <time>2020-07-10T10:55:28Z</time>
      </trkpt>
      <trkpt lat="47.78649" lon="-3.40174">
        <ele>30.79</ele>
        <time>2020-07-10T10:55:29Z</time>
      </trkpt>
      <trkpt lat="47.78648" lon="-3.40167">
        <ele>30.9</ele>
        <time>2020-07-10T10:55:30Z</time>
      </trkpt>
      <trkpt lat="47.78646" lon="-3.4016">
        <ele>30.95</ele>
        <time>2020-07-10T10:55:31Z</time>
      </trkpt>
      <trkpt lat="47.78643" lon="-3.40153">
        <ele>30.95</ele>
        <time>2020-07-10T10:55:32Z</time>
      </trkpt>
      <trkpt lat="47.78641" lon="-3.40147">
        <ele>30.94</ele>
        <time>2020-07-10T10:55:33Z</time>
      </trkpt>
      <trkpt lat="47.78638" lon="-3.4014">
        <ele>30.92</ele>
        <time>2020-07-10T10:55:34Z</time>
      </trkpt>
      <trkpt lat="47.78635" lon="-3.40133">
        <ele>30.8</ele>
        <time>2020-07-10T10:55:35Z</time>
      </trkpt>
      <trkpt lat="47.78632" lon="-3.40127">
        <ele>30.61</ele>
        <time>2020-07-10T10:55:36Z</time>
      </trkpt>
      <trkpt lat="47.78629" lon="-3.40121">
        <ele>30.4</ele>
        <time>2020-07-10T10:55:37Z</time>
      </trkpt>
      <trkpt lat="47.78627" lon="-3.40114">
        <ele>30.21</ele>
        <time>2020-07-10T10:55:38Z</time>
      </trkpt>
      <trkpt lat="47.78625" lon="-3.40107">
        <ele>30.14</ele>
        <time>2020-07-10T10:55:39Z</time>
      </trkpt>
      <trkpt lat="47.78624" lon="-3.401">
        <ele>30.11</ele>
        <time>2020-07-10T10:55:40Z</time>
      </trkpt>
      <trkpt lat="47.78623" lon="-3.40094">
        <ele>30.1</ele>
        <time>2020-07-10T10:55:41Z</time>
      </trkpt>
      <trkpt lat="47.78621" lon="-3.40087">
        <ele>30.03</ele>
        <time>2020-07-10T10:55:42Z</time>
      </trkpt>
      <trkpt lat="47.78619" lon="-3.40081">
        <ele>29.96</ele>
        <time>2020-07-10T10:55:43Z</time>
      </trkpt>
      <trkpt lat="47.78618" lon="-3.40075">
        <ele>29.96</ele>
        <time>2020-07-10T10:55:44Z</time>
      </trkpt>
      <trkpt lat="47.78617" lon="-3.40068">
        <ele>29.96</ele>
        <time>2020-07-10T10:55:45Z</time>
      </trkpt>
      <trkpt lat="47.78618" lon="-3.40063">
        <ele>30.13</ele>
        <time>2020-07-10T10:55:46Z</time>
      </trkpt>
      <trkpt lat="47.78614" lon="-3.40057">
        <ele>29.79</ele>
        <time>2020-07-10T10:55:47Z</time>
      </trkpt>
      <trkpt lat="47.78613" lon="-3.40054">
        <ele>29.47</ele>
        <time>2020-07-10T10:55:48Z</time>
      </trkpt>
      <trkpt lat="47.78609" lon="-3.4005">
        <ele>29.08</ele>
        <time>2020-07-10T10:55:49Z</time>
      </trkpt>
      <trkpt lat="47.78606" lon="-3.40049">
        <ele>28.91</ele>
        <time>2020-07-10T10:55:50Z</time>
      </trkpt>
      <trkpt lat="47.78604" lon="-3.4005">
        <ele>28.79</ele>
        <time>2020-07-10T10:55:51Z</time>
      </trkpt>
      <trkpt lat="47.78601" lon="-3.40051">
        <ele>28.68</ele>
        <time>2020-07-10T10:55:52Z</time>
      </trkpt>
      <trkpt lat="47.78598" lon="-3.40052">
        <ele>28.57</ele>
        <time>2020-07-10T10:55:53Z</time>
      </trkpt>
      <trkpt lat="47.78595" lon="-3.40053">
        <ele>28.46</ele>
        <time>2020-07-10T10:55:54Z</time>
      </trkpt>
      <trkpt lat="47.78592" lon="-3.40053">
        <ele>28.35</ele>
        <time>2020-07-10T10:55:55Z</time>
      </trkpt>
      <trkpt lat="47.7859" lon="-3.40053">
        <ele>28.27</ele>
        <time>2020-07-10T10:55:56Z</time>
      </trkpt>
      <trkpt lat="47.78588" lon="-3.40051">
        <ele>28.2</ele>
        <time>2020-07-10T10:55:57Z</time>
      </trkpt>
      <trkpt lat="47.78587" lon="-3.40047">
        <ele>28.16</ele>
        <time>2020-07-10T10:55:58Z</time>
      </trkpt>
      <trkpt lat="47.78587" lon="-3.40043">
        <ele>28.14</ele>
        <time>2020-07-10T10:55:59Z</time>
      </trkpt>
      <trkpt lat="47.78586" lon="-3.40039">
        <ele>28.1</ele>
        <time>2020-07-10T10:56:00Z</time>
      </trkpt>
      <trkpt lat="47.78584" lon="-3.40035">
        <ele>28.06</ele>
        <time>2020-07-10T10:56:01Z</time>
      </trkpt>
      <trkpt lat="47.78584" lon="-3.40031">
        <ele>28.03</ele>
        <time>2020-07-10T10:56:02Z</time>
      </trkpt>
      <trkpt lat="47.78584" lon="-3.40027">
        <ele>28</ele>
        <time>2020-07-10T10:56:03Z</time>
      </trkpt>
      <trkpt lat="47.78583" lon="-3.40024">
        <ele>27.91</ele>
        <time>2020-07-10T10:56:04Z</time>
      </trkpt>
      <trkpt lat="47.78583" lon="-3.40022">
        <ele>27.86</ele>
        <time>2020-07-10T10:56:05Z</time>
      </trkpt>
      <trkpt lat="47.78583" lon="-3.40018">
        <ele>27.76</ele>
        <time>2020-07-10T10:56:06Z</time>
      </trkpt>
      <trkpt lat="47.78582" lon="-3.40014">
        <ele>27.69</ele>
        <time>2020-07-10T10:56:07Z</time>
      </trkpt>
      <trkpt lat="47.78581" lon="-3.40011">
        <ele>27.67</ele>
        <time>2020-07-10T10:56:08Z</time>
      </trkpt>
      <trkpt lat="47.78579" lon="-3.40007">
        <ele>27.8</ele>
        <time>2020-07-10T10:56:09Z</time>
      </trkpt>
      <trkpt lat="47.78577" lon="-3.40004">
        <ele>27.86</ele>
        <time>2020-07-10T10:56:10Z</time>
      </trkpt>
      <trkpt lat="47.78576" lon="-3.40001">
        <ele>27.87</ele>
        <time>2020-07-10T10:56:11Z</time>
      </trkpt>
      <trkpt lat="47.78574" lon="-3.39996">
        <ele>27.9</ele>
        <time>2020-07-10T10:56:12Z</time>
      </trkpt>
      <trkpt lat="47.78574" lon="-3.39992">
        <ele>27.84</ele>
        <time>2020-07-10T10:56:13Z</time>
      </trkpt>
      <trkpt lat="47.78576" lon="-3.39985">
        <ele>27.61</ele>
        <time>2020-07-10T10:56:14Z</time>
      </trkpt>
      <trkpt lat="47.78575" lon="-3.39979">
        <ele>27.49</ele>
        <time>2020-07-10T10:56:15Z</time>
      </trkpt>
      <trkpt lat="47.78575" lon="-3.39972">
        <ele>27.36</ele>
        <time>2020-07-10T10:56:16Z</time>
      </trkpt>
      <trkpt lat="47.78574" lon="-3.39965">
        <ele>27.35</ele>
        <time>2020-07-10T10:56:17Z</time>
      </trkpt>
      <trkpt lat="47.78573" lon="-3.39959">
        <ele>27.36</ele>
        <time>2020-07-10T10:56:18Z</time>
      </trkpt>
      <trkpt lat="47.78573" lon="-3.39954">
        <ele>27.38</ele>
        <time>2020-07-10T10:56:19Z</time>
      </trkpt>
      <trkpt lat="47.78569" lon="-3.39946">
        <ele>27.48</ele>
        <time>2020-07-10T10:56:20Z</time>
      </trkpt>
      <trkpt lat="47.78565" lon="-3.39938">
        <ele>27.5</ele>
        <time>2020-07-10T10:56:21Z</time>
      </trkpt>
      <trkpt lat="47.78563" lon="-3.39929">
        <ele>27.38</ele>
        <time>2020-07-10T10:56:22Z</time>
      </trkpt>
      <trkpt lat="47.78561" lon="-3.39921">
        <ele>27.2</ele>
        <time>2020-07-10T10:56:23Z</time>
      </trkpt>
      <trkpt lat="47.7856" lon="-3.39913">
        <ele>27.06</ele>
        <time>2020-07-10T10:56:24Z</time>
      </trkpt>
      <trkpt lat="47.7856" lon="-3.39905">
        <ele>27.02</ele>
        <time>2020-07-10T10:56:25Z</time>
      </trkpt>
      <trkpt lat="47.78561" lon="-3.39897">
        <ele>27.01</ele>
        <time>2020-07-10T10:56:26Z</time>
      </trkpt>
      <trkpt lat="47.78561" lon="-3.39889">
        <ele>27</ele>
        <time>2020-07-10T10:56:27Z</time>
      </trkpt>
      <trkpt lat="47.78562" lon="-3.39881">
        <ele>27.15</ele>
        <time>2020-07-10T10:56:28Z</time>
      </trkpt>
      <trkpt lat="47.78563" lon="-3.39874">
        <ele>27.31</ele>
        <time>2020-07-10T10:56:29Z</time>
      </trkpt>
      <trkpt lat="47.78566" lon="-3.39867">
        <ele>27.43</ele>
        <time>2020-07-10T10:56:30Z</time>
      </trkpt>
      <trkpt lat="47.78568" lon="-3.3986">
        <ele>27.55</ele>
        <time>2020-07-10T10:56:31Z</time>
      </trkpt>
      <trkpt lat="47.78569" lon="-3.39854">
        <ele>27.8</ele>
        <time>2020-07-10T10:56:32Z</time>
      </trkpt>
      <trkpt lat="47.7857" lon="-3.39847">
        <ele>28.08</ele>
        <time>2020-07-10T10:56:33Z</time>
      </trkpt>
      <trkpt lat="47.78571" lon="-3.39841">
        <ele>28.38</ele>
        <time>2020-07-10T10:56:34Z</time>
      </trkpt>
      <trkpt lat="47.78571" lon="-3.39837">
        <ele>28.62</ele>
        <time>2020-07-10T10:56:35Z</time>
      </trkpt>
      <trkpt lat="47.78571" lon="-3.39834">
        <ele>28.77</ele>
        <time>2020-07-10T10:56:36Z</time>
      </trkpt>
      <trkpt lat="47.78571" lon="-3.39834">
        <ele>28.84</ele>
        <time>2020-07-10T10:56:37Z</time>
      </trkpt>
      <trkpt lat="47.78571" lon="-3.39833">
        <ele>28.88</ele>
        <time>2020-07-10T10:56:38Z</time>
      </trkpt>
      <trkpt lat="47.78571" lon="-3.39833">
        <ele>28.87</ele>
        <time>2020-07-10T10:56:39Z</time>
      </trkpt>
      <trkpt lat="47.78571" lon="-3.39833">
        <ele>28.87</ele>
        <time>2020-07-10T10:56:40Z</time>
      </trkpt>
      <trkpt lat="47.78571" lon="-3.39833">
        <ele>28.86</ele>
        <time>2020-07-10T10:56:41Z</time>
      </trkpt>
      <trkpt lat="47.78571" lon="-3.39833">
        <ele>28.86</ele>
        <time>2020-07-10T10:56:42Z</time>
      </trkpt>
      <trkpt lat="47.78571" lon="-3.39833">
        <ele>28.86</ele>
        <time>2020-07-10T10:56:43Z</time>
      </trkpt>
      <trkpt lat="47.78571" lon="-3.39833">
        <ele>28.86</ele>
        <time>2020-07-10T10:56:44Z</time>
      </trkpt>
      <trkpt lat="47.78571" lon="-3.39833">
        <ele>28.86</ele>
        <time>2020-07-10T10:56:45Z</time>
      </trkpt>
      <trkpt lat="47.78571" lon="-3.39833">
        <ele>28.86</ele>
        <time>2020-07-10T10:56:46Z</time>
      </trkpt>
      <trkpt lat="47.78571" lon="-3.39833">
        <ele>28.86</ele>
        <time>2020-07-10T10:56:47Z</time>
      </trkpt>
      <trkpt lat="47.78574" lon="-3.39825">
        <ele>28.85</ele>
        <time>2020-07-10T10:56:48Z</time>
      </trkpt>
      <trkpt lat="47.78576" lon="-3.39822">
        <ele>28.8</ele>
        <time>2020-07-10T10:56:49Z</time>
      </trkpt>
      <trkpt lat="47.78577" lon="-3.39815">
        <ele>28.76</ele>
        <time>2020-07-10T10:56:50Z</time>
      </trkpt>
      <trkpt lat="47.78578" lon="-3.3981">
        <ele>28.73</ele>
        <time>2020-07-10T10:56:51Z</time>
      </trkpt>
      <trkpt lat="47.78579" lon="-3.39805">
        <ele>28.7</ele>
        <time>2020-07-10T10:56:52Z</time>
      </trkpt>
      <trkpt lat="47.78579" lon="-3.39801">
        <ele>28.78</ele>
        <time>2020-07-10T10:56:53Z</time>
      </trkpt>
      <trkpt lat="47.7858" lon="-3.39797">
        <ele>28.76</ele>
        <time>2020-07-10T10:56:54Z</time>
      </trkpt>
      <trkpt lat="47.78581" lon="-3.39793">
        <ele>28.76</ele>
        <time>2020-07-10T10:56:55Z</time>
      </trkpt>
      <trkpt lat="47.78582" lon="-3.39788">
        <ele>28.83</ele>
        <time>2020-07-10T10:56:56Z</time>
      </trkpt>
      <trkpt lat="47.78583" lon="-3.39784">
        <ele>28.8</ele>
        <time>2020-07-10T10:56:57Z</time>
      </trkpt>
      <trkpt lat="47.78584" lon="-3.3978">
        <ele>28.83</ele>
        <time>2020-07-10T10:56:58Z</time>
      </trkpt>
      <trkpt lat="47.78585" lon="-3.39776">
        <ele>28.8</ele>
        <time>2020-07-10T10:56:59Z</time>
      </trkpt>
      <trkpt lat="47.78585" lon="-3.39771">
        <ele>28.68</ele>
        <time>2020-07-10T10:57:00Z</time>
      </trkpt>
      <trkpt lat="47.78584" lon="-3.39765">
        <ele>28.56</ele>
        <time>2020-07-10T10:57:01Z</time>
      </trkpt>
      <trkpt lat="47.78583" lon="-3.39759">
        <ele>28.4</ele>
        <time>2020-07-10T10:57:02Z</time>
      </trkpt>
      <trkpt lat="47.78583" lon="-3.39752">
        <ele>28.25</ele>
        <time>2020-07-10T10:57:03Z</time>
      </trkpt>
      <trkpt lat="47.78582" lon="-3.39746">
        <ele>28.15</ele>
        <time>2020-07-10T10:57:04Z</time>
      </trkpt>
      <trkpt lat="47.7858" lon="-3.39739">
        <ele>28.1</ele>
        <time>2020-07-10T10:57:05Z</time>
      </trkpt>
      <trkpt lat="47.78578" lon="-3.39734">
        <ele>28.14</ele>
        <time>2020-07-10T10:57:06Z</time>
      </trkpt>
      <trkpt lat="47.78577" lon="-3.3973">
        <ele>28.17</ele>
        <time>2020-07-10T10:57:07Z</time>
      </trkpt>
      <trkpt lat="47.78576" lon="-3.39727">
        <ele>28.15</ele>
        <time>2020-07-10T10:57:08Z</time>
      </trkpt>
      <trkpt lat="47.78576" lon="-3.39723">
        <ele>28.11</ele>
        <time>2020-07-10T10:57:09Z</time>
      </trkpt>
      <trkpt lat="47.78575" lon="-3.39718">
        <ele>28.04</ele>
        <time>2020-07-10T10:57:10Z</time>
      </trkpt>
      <trkpt lat="47.78573" lon="-3.39711">
        <ele>27.94</ele>
        <time>2020-07-10T10:57:11Z</time>
      </trkpt>
      <trkpt lat="47.78572" lon="-3.39708">
        <ele>27.88</ele>
        <time>2020-07-10T10:57:12Z</time>
      </trkpt>
      <trkpt lat="47.78571" lon="-3.39704">
        <ele>27.86</ele>
        <time>2020-07-10T10:57:13Z</time>
      </trkpt>
      <trkpt lat="47.7857" lon="-3.39702">
        <ele>27.87</ele>
        <time>2020-07-10T10:57:14Z</time>
      </trkpt>
      <trkpt lat="47.78566" lon="-3.39696">
        <ele>27.94</ele>
        <time>2020-07-10T10:57:15Z</time>
      </trkpt>
      <trkpt lat="47.78564" lon="-3.39692">
        <ele>28.05</ele>
        <time>2020-07-10T10:57:16Z</time>
      </trkpt>
      <trkpt lat="47.78561" lon="-3.39687">
        <ele>28.16</ele>
        <time>2020-07-10T10:57:17Z</time>
      </trkpt>
      <trkpt lat="47.78559" lon="-3.39682">
        <ele>28.26</ele>
        <time>2020-07-10T10:57:18Z</time>
      </trkpt>
      <trkpt lat="47.78555" lon="-3.39676">
        <ele>28.35</ele>
        <time>2020-07-10T10:57:19Z</time>
      </trkpt>
      <trkpt lat="47.78553" lon="-3.39672">
        <ele>28.68</ele>
        <time>2020-07-10T10:57:20Z</time>
      </trkpt>
      <trkpt lat="47.7855" lon="-3.39666">
        <ele>29.06</ele>
        <time>2020-07-10T10:57:21Z</time>
      </trkpt>
      <trkpt lat="47.78547" lon="-3.3966">
        <ele>29.48</ele>
        <time>2020-07-10T10:57:22Z</time>
      </trkpt>
      <trkpt lat="47.78547" lon="-3.39653">
        <ele>29.66</ele>
        <time>2020-07-10T10:57:23Z</time>
      </trkpt>
      <trkpt lat="47.78546" lon="-3.39647">
        <ele>29.8</ele>
        <time>2020-07-10T10:57:24Z</time>
      </trkpt>
      <trkpt lat="47.78544" lon="-3.39641">
        <ele>30.04</ele>
        <time>2020-07-10T10:57:25Z</time>
      </trkpt>
      <trkpt lat="47.78543" lon="-3.39635">
        <ele>30.06</ele>
        <time>2020-07-10T10:57:26Z</time>
      </trkpt>
      <trkpt lat="47.78544" lon="-3.39628">
        <ele>29.85</ele>
        <time>2020-07-10T10:57:27Z</time>
      </trkpt>
      <trkpt lat="47.78543" lon="-3.39621">
        <ele>29.68</ele>
        <time>2020-07-10T10:57:28Z</time>
      </trkpt>
      <trkpt lat="47.78543" lon="-3.39612">
        <ele>29.46</ele>
        <time>2020-07-10T10:57:29Z</time>
      </trkpt>
      <trkpt lat="47.78542" lon="-3.39604">
        <ele>29.04</ele>
        <time>2020-07-10T10:57:30Z</time>
      </trkpt>
      <trkpt lat="47.78541" lon="-3.39595">
        <ele>28.61</ele>
        <time>2020-07-10T10:57:31Z</time>
      </trkpt>
      <trkpt lat="47.7854" lon="-3.39587">
        <ele>28.2</ele>
        <time>2020-07-10T10:57:32Z</time>
      </trkpt>
      <trkpt lat="47.78538" lon="-3.39581">
        <ele>27.81</ele>
        <time>2020-07-10T10:57:33Z</time>
      </trkpt>
      <trkpt lat="47.78537" lon="-3.39574">
        <ele>27.28</ele>
        <time>2020-07-10T10:57:34Z</time>
      </trkpt>
      <trkpt lat="47.78536" lon="-3.39568">
        <ele>26.7</ele>
        <time>2020-07-10T10:57:35Z</time>
      </trkpt>
      <trkpt lat="47.78534" lon="-3.39563">
        <ele>26.12</ele>
        <time>2020-07-10T10:57:36Z</time>
      </trkpt>
      <trkpt lat="47.78533" lon="-3.39558">
        <ele>25.59</ele>
        <time>2020-07-10T10:57:37Z</time>
      </trkpt>
      <trkpt lat="47.78532" lon="-3.39553">
        <ele>25.08</ele>
        <time>2020-07-10T10:57:38Z</time>
      </trkpt>
      <trkpt lat="47.78532" lon="-3.39549">
        <ele>24.74</ele>
        <time>2020-07-10T10:57:39Z</time>
      </trkpt>
      <trkpt lat="47.78533" lon="-3.39545">
        <ele>24.51</ele>
        <time>2020-07-10T10:57:40Z</time>
      </trkpt>
      <trkpt lat="47.78536" lon="-3.39541">
        <ele>24.34</ele>
        <time>2020-07-10T10:57:41Z</time>
      </trkpt>
      <trkpt lat="47.78538" lon="-3.39538">
        <ele>24.23</ele>
        <time>2020-07-10T10:57:42Z</time>
      </trkpt>
      <trkpt lat="47.78539" lon="-3.39536">
        <ele>24.18</ele>
        <time>2020-07-10T10:57:43Z</time>
      </trkpt>
      <trkpt lat="47.7854" lon="-3.39535">
        <ele>24.18</ele>
        <time>2020-07-10T10:57:44Z</time>
      </trkpt>
      <trkpt lat="47.78542" lon="-3.39534">
        <ele>24.24</ele>
        <time>2020-07-10T10:57:45Z</time>
      </trkpt>
      <trkpt lat="47.78544" lon="-3.39532">
        <ele>24.27</ele>
        <time>2020-07-10T10:57:46Z</time>
      </trkpt>
      <trkpt lat="47.78546" lon="-3.39532">
        <ele>24.35</ele>
        <time>2020-07-10T10:57:47Z</time>
      </trkpt>
      <trkpt lat="47.78547" lon="-3.39531">
        <ele>24.44</ele>
        <time>2020-07-10T10:57:48Z</time>
      </trkpt>
      <trkpt lat="47.78549" lon="-3.3953">
        <ele>24.54</ele>
        <time>2020-07-10T10:57:49Z</time>
      </trkpt>
      <trkpt lat="47.7855" lon="-3.39528">
        <ele>24.59</ele>
        <time>2020-07-10T10:57:50Z</time>
      </trkpt>
      <trkpt lat="47.7855" lon="-3.39525">
        <ele>24.72</ele>
        <time>2020-07-10T10:57:51Z</time>
      </trkpt>
      <trkpt lat="47.7855" lon="-3.39521">
        <ele>24.84</ele>
        <time>2020-07-10T10:57:52Z</time>
      </trkpt>
      <trkpt lat="47.78547" lon="-3.39517">
        <ele>24.84</ele>
        <time>2020-07-10T10:57:53Z</time>
      </trkpt>
      <trkpt lat="47.78545" lon="-3.39512">
        <ele>24.77</ele>
        <time>2020-07-10T10:57:54Z</time>
      </trkpt>
      <trkpt lat="47.78541" lon="-3.39506">
        <ele>24.46</ele>
        <time>2020-07-10T10:57:55Z</time>
      </trkpt>
      <trkpt lat="47.78538" lon="-3.39501">
        <ele>24.02</ele>
        <time>2020-07-10T10:57:56Z</time>
      </trkpt>
      <trkpt lat="47.78535" lon="-3.39492">
        <ele>23.63</ele>
        <time>2020-07-10T10:57:57Z</time>
      </trkpt>
      <trkpt lat="47.78531" lon="-3.39486">
        <ele>23.1</ele>
        <time>2020-07-10T10:57:58Z</time>
      </trkpt>
      <trkpt lat="47.78528" lon="-3.39481">
        <ele>22.4</ele>
        <time>2020-07-10T10:57:59Z</time>
      </trkpt>
      <trkpt lat="47.78524" lon="-3.39476">
        <ele>22.12</ele>
        <time>2020-07-10T10:58:00Z</time>
      </trkpt>
      <trkpt lat="47.7852" lon="-3.39471">
        <ele>22.09</ele>
        <time>2020-07-10T10:58:01Z</time>
      </trkpt>
      <trkpt lat="47.78517" lon="-3.39465">
        <ele>22.26</ele>
        <time>2020-07-10T10:58:02Z</time>
      </trkpt>
      <trkpt lat="47.78514" lon="-3.39458">
        <ele>22.43</ele>
        <time>2020-07-10T10:58:03Z</time>
      </trkpt>
      <trkpt lat="47.78511" lon="-3.39452">
        <ele>22.51</ele>
        <time>2020-07-10T10:58:04Z</time>
      </trkpt>
      <trkpt lat="47.78507" lon="-3.39446">
        <ele>22.52</ele>
        <time>2020-07-10T10:58:05Z</time>
      </trkpt>
      <trkpt lat="47.78504" lon="-3.39439">
        <ele>22.56</ele>
        <time>2020-07-10T10:58:06Z</time>
      </trkpt>
      <trkpt lat="47.785" lon="-3.39432">
        <ele>22.48</ele>
        <time>2020-07-10T10:58:07Z</time>
      </trkpt>
      <trkpt lat="47.78497" lon="-3.39425">
        <ele>22.68</ele>
        <time>2020-07-10T10:58:08Z</time>
      </trkpt>
      <trkpt lat="47.78493" lon="-3.39419">
        <ele>22.87</ele>
        <time>2020-07-10T10:58:09Z</time>
      </trkpt>
      <trkpt lat="47.7849" lon="-3.39413">
        <ele>23.01</ele>
        <time>2020-07-10T10:58:10Z</time>
      </trkpt>
      <trkpt lat="47.78487" lon="-3.39406">
        <ele>23.04</ele>
        <time>2020-07-10T10:58:11Z</time>
      </trkpt>
      <trkpt lat="47.78483" lon="-3.394">
        <ele>22.84</ele>
        <time>2020-07-10T10:58:12Z</time>
      </trkpt>
      <trkpt lat="47.78479" lon="-3.39394">
        <ele>22.39</ele>
        <time>2020-07-10T10:58:13Z</time>
      </trkpt>
      <trkpt lat="47.78476" lon="-3.39387">
        <ele>21.86</ele>
        <time>2020-07-10T10:58:14Z</time>
      </trkpt>
      <trkpt lat="47.78473" lon="-3.39379">
        <ele>21.41</ele>
        <time>2020-07-10T10:58:15Z</time>
      </trkpt>
      <trkpt lat="47.78472" lon="-3.3937">
        <ele>21.14</ele>
        <time>2020-07-10T10:58:16Z</time>
      </trkpt>
      <trkpt lat="47.78471" lon="-3.39362">
        <ele>21.18</ele>
        <time>2020-07-10T10:58:17Z</time>
      </trkpt>
      <trkpt lat="47.78469" lon="-3.39355">
        <ele>21.21</ele>
        <time>2020-07-10T10:58:18Z</time>
      </trkpt>
      <trkpt lat="47.78468" lon="-3.39348">
        <ele>21.18</ele>
        <time>2020-07-10T10:58:19Z</time>
      </trkpt>
      <trkpt lat="47.78466" lon="-3.3934">
        <ele>21.04</ele>
        <time>2020-07-10T10:58:20Z</time>
      </trkpt>
      <trkpt lat="47.78463" lon="-3.39332">
        <ele>20.83</ele>
        <time>2020-07-10T10:58:21Z</time>
      </trkpt>
      <trkpt lat="47.78461" lon="-3.39324">
        <ele>20.88</ele>
        <time>2020-07-10T10:58:22Z</time>
      </trkpt>
      <trkpt lat="47.78459" lon="-3.39316">
        <ele>20.87</ele>
        <time>2020-07-10T10:58:23Z</time>
      </trkpt>
      <trkpt lat="47.78457" lon="-3.39308">
        <ele>20.69</ele>
        <time>2020-07-10T10:58:24Z</time>
      </trkpt>
      <trkpt lat="47.78454" lon="-3.39301">
        <ele>20.69</ele>
        <time>2020-07-10T10:58:25Z</time>
      </trkpt>
      <trkpt lat="47.78452" lon="-3.39294">
        <ele>20.9</ele>
        <time>2020-07-10T10:58:26Z</time>
      </trkpt>
      <trkpt lat="47.78448" lon="-3.39288">
        <ele>20.8</ele>
        <time>2020-07-10T10:58:27Z</time>
      </trkpt>
      <trkpt lat="47.78444" lon="-3.39284">
        <ele>20.41</ele>
        <time>2020-07-10T10:58:28Z</time>
      </trkpt>
      <trkpt lat="47.78439" lon="-3.39279">
        <ele>20.16</ele>
        <time>2020-07-10T10:58:29Z</time>
      </trkpt>
      <trkpt lat="47.78434" lon="-3.39275">
        <ele>20.14</ele>
        <time>2020-07-10T10:58:30Z</time>
      </trkpt>
      <trkpt lat="47.78431" lon="-3.39271">
        <ele>20.39</ele>
        <time>2020-07-10T10:58:31Z</time>
      </trkpt>
      <trkpt lat="47.78426" lon="-3.39267">
        <ele>20.45</ele>
        <time>2020-07-10T10:58:32Z</time>
      </trkpt>
      <trkpt lat="47.78423" lon="-3.39262">
        <ele>20.87</ele>
        <time>2020-07-10T10:58:33Z</time>
      </trkpt>
      <trkpt lat="47.78418" lon="-3.39256">
        <ele>21.06</ele>
        <time>2020-07-10T10:58:34Z</time>
      </trkpt>
      <trkpt lat="47.78413" lon="-3.39251">
        <ele>21.07</ele>
        <time>2020-07-10T10:58:35Z</time>
      </trkpt>
      <trkpt lat="47.78408" lon="-3.39247">
        <ele>20.87</ele>
        <time>2020-07-10T10:58:36Z</time>
      </trkpt>
      <trkpt lat="47.78403" lon="-3.39241">
        <ele>20.42</ele>
        <time>2020-07-10T10:58:37Z</time>
      </trkpt>
      <trkpt lat="47.78399" lon="-3.39236">
        <ele>19.77</ele>
        <time>2020-07-10T10:58:38Z</time>
      </trkpt>
      <trkpt lat="47.78395" lon="-3.39231">
        <ele>18.96</ele>
        <time>2020-07-10T10:58:39Z</time>
      </trkpt>
      <trkpt lat="47.78389" lon="-3.39221">
        <ele>17.69</ele>
        <time>2020-07-10T10:58:40Z</time>
      </trkpt>
      <trkpt lat="47.78385" lon="-3.39214">
        <ele>17.77</ele>
        <time>2020-07-10T10:58:41Z</time>
      </trkpt>
      <trkpt lat="47.78383" lon="-3.39206">
        <ele>18.07</ele>
        <time>2020-07-10T10:58:42Z</time>
      </trkpt>
      <trkpt lat="47.7838" lon="-3.39198">
        <ele>18.22</ele>
        <time>2020-07-10T10:58:43Z</time>
      </trkpt>
      <trkpt lat="47.78377" lon="-3.3919">
        <ele>18.27</ele>
        <time>2020-07-10T10:58:44Z</time>
      </trkpt>
      <trkpt lat="47.78375" lon="-3.39182">
        <ele>18.24</ele>
        <time>2020-07-10T10:58:45Z</time>
      </trkpt>
      <trkpt lat="47.78373" lon="-3.39173">
        <ele>18.05</ele>
        <time>2020-07-10T10:58:46Z</time>
      </trkpt>
      <trkpt lat="47.7837" lon="-3.39165">
        <ele>17.58</ele>
        <time>2020-07-10T10:58:47Z</time>
      </trkpt>
      <trkpt lat="47.78368" lon="-3.39156">
        <ele>17.12</ele>
        <time>2020-07-10T10:58:48Z</time>
      </trkpt>
      <trkpt lat="47.78366" lon="-3.39147">
        <ele>16.59</ele>
        <time>2020-07-10T10:58:49Z</time>
      </trkpt>
      <trkpt lat="47.78363" lon="-3.39139">
        <ele>15.86</ele>
        <time>2020-07-10T10:58:50Z</time>
      </trkpt>
      <trkpt lat="47.7836" lon="-3.39131">
        <ele>15.23</ele>
        <time>2020-07-10T10:58:51Z</time>
      </trkpt>
      <trkpt lat="47.78357" lon="-3.39124">
        <ele>14.93</ele>
        <time>2020-07-10T10:58:52Z</time>
      </trkpt>
      <trkpt lat="47.78355" lon="-3.39116">
        <ele>14.72</ele>
        <time>2020-07-10T10:58:53Z</time>
      </trkpt>
      <trkpt lat="47.78353" lon="-3.39109">
        <ele>14.51</ele>
        <time>2020-07-10T10:58:54Z</time>
      </trkpt>
      <trkpt lat="47.7835" lon="-3.39102">
        <ele>14.34</ele>
        <time>2020-07-10T10:58:55Z</time>
      </trkpt>
      <trkpt lat="47.78348" lon="-3.39095">
        <ele>14.15</ele>
        <time>2020-07-10T10:58:56Z</time>
      </trkpt>
      <trkpt lat="47.78346" lon="-3.39088">
        <ele>13.92</ele>
        <time>2020-07-10T10:58:57Z</time>
      </trkpt>
      <trkpt lat="47.78344" lon="-3.3908">
        <ele>13.7</ele>
        <time>2020-07-10T10:58:58Z</time>
      </trkpt>
      <trkpt lat="47.7834" lon="-3.39071">
        <ele>13.28</ele>
        <time>2020-07-10T10:58:59Z</time>
      </trkpt>
      <trkpt lat="47.78338" lon="-3.39064">
        <ele>12.9</ele>
        <time>2020-07-10T10:59:00Z</time>
      </trkpt>
      <trkpt lat="47.78336" lon="-3.39057">
        <ele>12.54</ele>
        <time>2020-07-10T10:59:01Z</time>
      </trkpt>
      <trkpt lat="47.78334" lon="-3.39051">
        <ele>12.41</ele>
        <time>2020-07-10T10:59:02Z</time>
      </trkpt>
      <trkpt lat="47.78332" lon="-3.39046">
        <ele>12.6</ele>
        <time>2020-07-10T10:59:03Z</time>
      </trkpt>
      <trkpt lat="47.78331" lon="-3.3904">
        <ele>12.94</ele>
        <time>2020-07-10T10:59:04Z</time>
      </trkpt>
      <trkpt lat="47.78332" lon="-3.39033">
        <ele>13.4</ele>
        <time>2020-07-10T10:59:05Z</time>
      </trkpt>
      <trkpt lat="47.78331" lon="-3.39028">
        <ele>13.81</ele>
        <time>2020-07-10T10:59:06Z</time>
      </trkpt>
      <trkpt lat="47.78331" lon="-3.39023">
        <ele>14.4</ele>
        <time>2020-07-10T10:59:07Z</time>
      </trkpt>
      <trkpt lat="47.78331" lon="-3.39019">
        <ele>15.04</ele>
        <time>2020-07-10T10:59:08Z</time>
      </trkpt>
      <trkpt lat="47.78332" lon="-3.39015">
        <ele>15.6</ele>
        <time>2020-07-10T10:59:09Z</time>
      </trkpt>
      <trkpt lat="47.78332" lon="-3.39013">
        <ele>15.95</ele>
        <time>2020-07-10T10:59:10Z</time>
      </trkpt>
      <trkpt lat="47.78331" lon="-3.39013">
        <ele>16.13</ele>
        <time>2020-07-10T10:59:11Z</time>
      </trkpt>
      <trkpt lat="47.78333" lon="-3.39011">
        <ele>16.31</ele>
        <time>2020-07-10T10:59:12Z</time>
      </trkpt>
      <trkpt lat="47.78334" lon="-3.39009">
        <ele>16.59</ele>
        <time>2020-07-10T10:59:13Z</time>
      </trkpt>
      <trkpt lat="47.78335" lon="-3.39006">
        <ele>17.04</ele>
        <time>2020-07-10T10:59:14Z</time>
      </trkpt>
      <trkpt lat="47.78336" lon="-3.39003">
        <ele>17.51</ele>
        <time>2020-07-10T10:59:15Z</time>
      </trkpt>
      <trkpt lat="47.7834" lon="-3.38997">
        <ele>18.19</ele>
        <time>2020-07-10T10:59:16Z</time>
      </trkpt>
      <trkpt lat="47.7834" lon="-3.38993">
        <ele>18.72</ele>
        <time>2020-07-10T10:59:17Z</time>
      </trkpt>
      <trkpt lat="47.78342" lon="-3.38989">
        <ele>19.18</ele>
        <time>2020-07-10T10:59:18Z</time>
      </trkpt>
      <trkpt lat="47.78343" lon="-3.38986">
        <ele>19.55</ele>
        <time>2020-07-10T10:59:19Z</time>
      </trkpt>
      <trkpt lat="47.78345" lon="-3.38981">
        <ele>19.96</ele>
        <time>2020-07-10T10:59:20Z</time>
      </trkpt>
      <trkpt lat="47.78347" lon="-3.38979">
        <ele>20.24</ele>
        <time>2020-07-10T10:59:21Z</time>
      </trkpt>
      <trkpt lat="47.78349" lon="-3.38977">
        <ele>20.49</ele>
        <time>2020-07-10T10:59:22Z</time>
      </trkpt>
      <trkpt lat="47.7835" lon="-3.38974">
        <ele>20.73</ele>
        <time>2020-07-10T10:59:23Z</time>
      </trkpt>
      <trkpt lat="47.78352" lon="-3.38972">
        <ele>20.91</ele>
        <time>2020-07-10T10:59:24Z</time>
      </trkpt>
      <trkpt lat="47.78354" lon="-3.3897">
        <ele>21.08</ele>
        <time>2020-07-10T10:59:25Z</time>
      </trkpt>
      <trkpt lat="47.78356" lon="-3.38968">
        <ele>21.24</ele>
        <time>2020-07-10T10:59:26Z</time>
      </trkpt>
      <trkpt lat="47.78358" lon="-3.38966">
        <ele>21.39</ele>
        <time>2020-07-10T10:59:27Z</time>
      </trkpt>
      <trkpt lat="47.7836" lon="-3.38964">
        <ele>21.54</ele>
        <time>2020-07-10T10:59:28Z</time>
      </trkpt>
      <trkpt lat="47.78362" lon="-3.38962">
        <ele>21.73</ele>
        <time>2020-07-10T10:59:29Z</time>
      </trkpt>
      <trkpt lat="47.78364" lon="-3.3896">
        <ele>22.08</ele>
        <time>2020-07-10T10:59:30Z</time>
      </trkpt>
      <trkpt lat="47.78367" lon="-3.38958">
        <ele>22.44</ele>
        <time>2020-07-10T10:59:31Z</time>
      </trkpt>
      <trkpt lat="47.78369" lon="-3.38957">
        <ele>22.76</ele>
        <time>2020-07-10T10:59:32Z</time>
      </trkpt>
      <trkpt lat="47.7837" lon="-3.38955">
        <ele>23.02</ele>
        <time>2020-07-10T10:59:33Z</time>
      </trkpt>
      <trkpt lat="47.78372" lon="-3.38954">
        <ele>23.3</ele>
        <time>2020-07-10T10:59:34Z</time>
      </trkpt>
      <trkpt lat="47.78374" lon="-3.38953">
        <ele>23.55</ele>
        <time>2020-07-10T10:59:35Z</time>
      </trkpt>
      <trkpt lat="47.78377" lon="-3.38952">
        <ele>23.78</ele>
        <time>2020-07-10T10:59:36Z</time>
      </trkpt>
      <trkpt lat="47.78379" lon="-3.38953">
        <ele>23.96</ele>
        <time>2020-07-10T10:59:37Z</time>
      </trkpt>
      <trkpt lat="47.78382" lon="-3.38954">
        <ele>24.21</ele>
        <time>2020-07-10T10:59:38Z</time>
      </trkpt>
      <trkpt lat="47.78384" lon="-3.38954">
        <ele>24.41</ele>
        <time>2020-07-10T10:59:39Z</time>
      </trkpt>
      <trkpt lat="47.78386" lon="-3.38955">
        <ele>24.62</ele>
        <time>2020-07-10T10:59:40Z</time>
      </trkpt>
      <trkpt lat="47.78389" lon="-3.38956">
        <ele>24.91</ele>
        <time>2020-07-10T10:59:41Z</time>
      </trkpt>
      <trkpt lat="47.78393" lon="-3.38957">
        <ele>25.3</ele>
        <time>2020-07-10T10:59:42Z</time>
      </trkpt>
      <trkpt lat="47.78396" lon="-3.38958">
        <ele>25.64</ele>
        <time>2020-07-10T10:59:43Z</time>
      </trkpt>
      <trkpt lat="47.78399" lon="-3.38958">
        <ele>25.94</ele>
        <time>2020-07-10T10:59:44Z</time>
      </trkpt>
      <trkpt lat="47.78401" lon="-3.38958">
        <ele>26.19</ele>
        <time>2020-07-10T10:59:45Z</time>
      </trkpt>
      <trkpt lat="47.78403" lon="-3.38957">
        <ele>26.44</ele>
        <time>2020-07-10T10:59:46Z</time>
      </trkpt>
      <trkpt lat="47.78406" lon="-3.38957">
        <ele>26.75</ele>
        <time>2020-07-10T10:59:47Z</time>
      </trkpt>
      <trkpt lat="47.78409" lon="-3.38956">
        <ele>27.03</ele>
        <time>2020-07-10T10:59:48Z</time>
      </trkpt>
      <trkpt lat="47.78411" lon="-3.38957">
        <ele>27.31</ele>
        <time>2020-07-10T10:59:49Z</time>
      </trkpt>
      <trkpt lat="47.78413" lon="-3.38957">
        <ele>27.55</ele>
        <time>2020-07-10T10:59:50Z</time>
      </trkpt>
      <trkpt lat="47.78416" lon="-3.38957">
        <ele>27.82</ele>
        <time>2020-07-10T10:59:51Z</time>
      </trkpt>
      <trkpt lat="47.7842" lon="-3.38954">
        <ele>28.1</ele>
        <time>2020-07-10T10:59:52Z</time>
      </trkpt>
      <trkpt lat="47.78421" lon="-3.38953">
        <ele>28.27</ele>
        <time>2020-07-10T10:59:53Z</time>
      </trkpt>
      <trkpt lat="47.78423" lon="-3.38949">
        <ele>28.42</ele>
        <time>2020-07-10T10:59:54Z</time>
      </trkpt>
      <trkpt lat="47.78424" lon="-3.38946">
        <ele>28.49</ele>
        <time>2020-07-10T10:59:55Z</time>
      </trkpt>
      <trkpt lat="47.78425" lon="-3.38943">
        <ele>28.59</ele>
        <time>2020-07-10T10:59:56Z</time>
      </trkpt>
      <trkpt lat="47.78425" lon="-3.38939">
        <ele>28.62</ele>
        <time>2020-07-10T10:59:57Z</time>
      </trkpt>
      <trkpt lat="47.78425" lon="-3.38937">
        <ele>28.62</ele>
        <time>2020-07-10T10:59:58Z</time>
      </trkpt>
      <trkpt lat="47.78425" lon="-3.38935">
        <ele>28.62</ele>
        <time>2020-07-10T10:59:59Z</time>
      </trkpt>
      <trkpt lat="47.78426" lon="-3.38933">
        <ele>28.65</ele>
        <time>2020-07-10T11:00:00Z</time>
      </trkpt>
      <trkpt lat="47.78426" lon="-3.38932">
        <ele>28.68</ele>
        <time>2020-07-10T11:00:01Z</time>
      </trkpt>
      <trkpt lat="47.78426" lon="-3.38931">
        <ele>28.7</ele>
        <time>2020-07-10T11:00:02Z</time>
      </trkpt>
      <trkpt lat="47.78426" lon="-3.38928">
        <ele>28.7</ele>
        <time>2020-07-10T11:00:03Z</time>
      </trkpt>
      <trkpt lat="47.78426" lon="-3.38925">
        <ele>28.7</ele>
        <time>2020-07-10T11:00:04Z</time>
      </trkpt>
      <trkpt lat="47.78426" lon="-3.38922">
        <ele>28.69</ele>
        <time>2020-07-10T11:00:05Z</time>
      </trkpt>
      <trkpt lat="47.78425" lon="-3.38919">
        <ele>28.65</ele>
        <time>2020-07-10T11:00:06Z</time>
      </trkpt>
      <trkpt lat="47.78425" lon="-3.38915">
        <ele>28.63</ele>
        <time>2020-07-10T11:00:07Z</time>
      </trkpt>
      <trkpt lat="47.78425" lon="-3.38912">
        <ele>28.64</ele>
        <time>2020-07-10T11:00:08Z</time>
      </trkpt>
      <trkpt lat="47.78425" lon="-3.3891">
        <ele>28.68</ele>
        <time>2020-07-10T11:00:09Z</time>
      </trkpt>
      <trkpt lat="47.78425" lon="-3.38906">
        <ele>28.67</ele>
        <time>2020-07-10T11:00:10Z</time>
      </trkpt>
      <trkpt lat="47.78424" lon="-3.38903">
        <ele>28.67</ele>
        <time>2020-07-10T11:00:11Z</time>
      </trkpt>
      <trkpt lat="47.78425" lon="-3.389">
        <ele>28.78</ele>
        <time>2020-07-10T11:00:12Z</time>
      </trkpt>
      <trkpt lat="47.78426" lon="-3.38897">
        <ele>28.84</ele>
        <time>2020-07-10T11:00:13Z</time>
      </trkpt>
      <trkpt lat="47.78428" lon="-3.38892">
        <ele>29.05</ele>
        <time>2020-07-10T11:00:14Z</time>
      </trkpt>
      <trkpt lat="47.78427" lon="-3.38887">
        <ele>29.15</ele>
        <time>2020-07-10T11:00:15Z</time>
      </trkpt>
      <trkpt lat="47.78428" lon="-3.38881">
        <ele>29.32</ele>
        <time>2020-07-10T11:00:16Z</time>
      </trkpt>
      <trkpt lat="47.78428" lon="-3.38876">
        <ele>29.45</ele>
        <time>2020-07-10T11:00:17Z</time>
      </trkpt>
      <trkpt lat="47.78427" lon="-3.38873">
        <ele>29.47</ele>
        <time>2020-07-10T11:00:18Z</time>
      </trkpt>
      <trkpt lat="47.78427" lon="-3.38868">
        <ele>29.54</ele>
        <time>2020-07-10T11:00:19Z</time>
      </trkpt>
      <trkpt lat="47.78426" lon="-3.38862">
        <ele>29.62</ele>
        <time>2020-07-10T11:00:20Z</time>
      </trkpt>
      <trkpt lat="47.78426" lon="-3.38857">
        <ele>29.74</ele>
        <time>2020-07-10T11:00:21Z</time>
      </trkpt>
      <trkpt lat="47.78426" lon="-3.38851">
        <ele>29.85</ele>
        <time>2020-07-10T11:00:22Z</time>
      </trkpt>
      <trkpt lat="47.78425" lon="-3.38845">
        <ele>29.98</ele>
        <time>2020-07-10T11:00:23Z</time>
      </trkpt>
      <trkpt lat="47.78425" lon="-3.38841">
        <ele>30.07</ele>
        <time>2020-07-10T11:00:24Z</time>
      </trkpt>
      <trkpt lat="47.78425" lon="-3.38835">
        <ele>30.2</ele>
        <time>2020-07-10T11:00:25Z</time>
      </trkpt>
      <trkpt lat="47.78425" lon="-3.3883">
        <ele>30.26</ele>
        <time>2020-07-10T11:00:26Z</time>
      </trkpt>
      <trkpt lat="47.78423" lon="-3.38826">
        <ele>30.24</ele>
        <time>2020-07-10T11:00:27Z</time>
      </trkpt>
      <trkpt lat="47.78422" lon="-3.3882">
        <ele>30.21</ele>
        <time>2020-07-10T11:00:28Z</time>
      </trkpt>
      <trkpt lat="47.78421" lon="-3.38815">
        <ele>30.16</ele>
        <time>2020-07-10T11:00:29Z</time>
      </trkpt>
      <trkpt lat="47.78419" lon="-3.3881">
        <ele>30.11</ele>
        <time>2020-07-10T11:00:30Z</time>
      </trkpt>
      <trkpt lat="47.78418" lon="-3.38805">
        <ele>30.07</ele>
        <time>2020-07-10T11:00:31Z</time>
      </trkpt>
      <trkpt lat="47.78417" lon="-3.38798">
        <ele>30.03</ele>
        <time>2020-07-10T11:00:32Z</time>
      </trkpt>
      <trkpt lat="47.78418" lon="-3.38792">
        <ele>30.02</ele>
        <time>2020-07-10T11:00:33Z</time>
      </trkpt>
      <trkpt lat="47.78418" lon="-3.38787">
        <ele>30.02</ele>
        <time>2020-07-10T11:00:34Z</time>
      </trkpt>
      <trkpt lat="47.78418" lon="-3.38782">
        <ele>30.01</ele>
        <time>2020-07-10T11:00:35Z</time>
      </trkpt>
      <trkpt lat="47.78418" lon="-3.38777">
        <ele>29.97</ele>
        <time>2020-07-10T11:00:36Z</time>
      </trkpt>
      <trkpt lat="47.78419" lon="-3.38772">
        <ele>29.84</ele>
        <time>2020-07-10T11:00:37Z</time>
      </trkpt>
      <trkpt lat="47.78419" lon="-3.38767">
        <ele>29.68</ele>
        <time>2020-07-10T11:00:38Z</time>
      </trkpt>
      <trkpt lat="47.78418" lon="-3.38761">
        <ele>29.47</ele>
        <time>2020-07-10T11:00:39Z</time>
      </trkpt>
      <trkpt lat="47.78418" lon="-3.38754">
        <ele>29.23</ele>
        <time>2020-07-10T11:00:40Z</time>
      </trkpt>
      <trkpt lat="47.78417" lon="-3.38748">
        <ele>28.96</ele>
        <time>2020-07-10T11:00:41Z</time>
      </trkpt>
      <trkpt lat="47.78416" lon="-3.38741">
        <ele>28.52</ele>
        <time>2020-07-10T11:00:42Z</time>
      </trkpt>
      <trkpt lat="47.78416" lon="-3.38734">
        <ele>28</ele>
        <time>2020-07-10T11:00:43Z</time>
      </trkpt>
      <trkpt lat="47.78416" lon="-3.38724">
        <ele>27.39</ele>
        <time>2020-07-10T11:00:44Z</time>
      </trkpt>
      <trkpt lat="47.78416" lon="-3.38715">
        <ele>26.69</ele>
        <time>2020-07-10T11:00:45Z</time>
      </trkpt>
      <trkpt lat="47.78415" lon="-3.38704">
        <ele>25.88</ele>
        <time>2020-07-10T11:00:46Z</time>
      </trkpt>
      <trkpt lat="47.78415" lon="-3.38695">
        <ele>25.13</ele>
        <time>2020-07-10T11:00:47Z</time>
      </trkpt>
      <trkpt lat="47.78413" lon="-3.38686">
        <ele>23.93</ele>
        <time>2020-07-10T11:00:48Z</time>
      </trkpt>
      <trkpt lat="47.78414" lon="-3.38677">
        <ele>22.66</ele>
        <time>2020-07-10T11:00:49Z</time>
      </trkpt>
      <trkpt lat="47.78414" lon="-3.38671">
        <ele>21.69</ele>
        <time>2020-07-10T11:00:50Z</time>
      </trkpt>
      <trkpt lat="47.78415" lon="-3.38665">
        <ele>20.89</ele>
        <time>2020-07-10T11:00:51Z</time>
      </trkpt>
      <trkpt lat="47.78417" lon="-3.38663">
        <ele>20.52</ele>
        <time>2020-07-10T11:00:52Z</time>
      </trkpt>
      <trkpt lat="47.7842" lon="-3.38662">
        <ele>20.5</ele>
        <time>2020-07-10T11:00:53Z</time>
      </trkpt>
      <trkpt lat="47.78424" lon="-3.38663">
        <ele>20.83</ele>
        <time>2020-07-10T11:00:54Z</time>
      </trkpt>
      <trkpt lat="47.78428" lon="-3.38663">
        <ele>21.07</ele>
        <time>2020-07-10T11:00:55Z</time>
      </trkpt>
      <trkpt lat="47.78431" lon="-3.38663">
        <ele>21.4</ele>
        <time>2020-07-10T11:00:56Z</time>
      </trkpt>
      <trkpt lat="47.78435" lon="-3.38663">
        <ele>21.73</ele>
        <time>2020-07-10T11:00:57Z</time>
      </trkpt>
      <trkpt lat="47.78438" lon="-3.38664">
        <ele>22.02</ele>
        <time>2020-07-10T11:00:58Z</time>
      </trkpt>
      <trkpt lat="47.7844" lon="-3.38665">
        <ele>22.31</ele>
        <time>2020-07-10T11:00:59Z</time>
      </trkpt>
      <trkpt lat="47.78444" lon="-3.38664">
        <ele>22.55</ele>
        <time>2020-07-10T11:01:00Z</time>
      </trkpt>
      <trkpt lat="47.78448" lon="-3.38664">
        <ele>22.83</ele>
        <time>2020-07-10T11:01:01Z</time>
      </trkpt>
      <trkpt lat="47.78452" lon="-3.38662">
        <ele>22.99</ele>
        <time>2020-07-10T11:01:02Z</time>
      </trkpt>
      <trkpt lat="47.78455" lon="-3.3866">
        <ele>23.04</ele>
        <time>2020-07-10T11:01:03Z</time>
      </trkpt>
      <trkpt lat="47.78459" lon="-3.38655">
        <ele>22.88</ele>
        <time>2020-07-10T11:01:04Z</time>
      </trkpt>
      <trkpt lat="47.78463" lon="-3.38651">
        <ele>22.69</ele>
        <time>2020-07-10T11:01:05Z</time>
      </trkpt>
      <trkpt lat="47.78466" lon="-3.38647">
        <ele>22.53</ele>
        <time>2020-07-10T11:01:06Z</time>
      </trkpt>
      <trkpt lat="47.78469" lon="-3.38645">
        <ele>22.42</ele>
        <time>2020-07-10T11:01:07Z</time>
      </trkpt>
      <trkpt lat="47.78473" lon="-3.38642">
        <ele>22.36</ele>
        <time>2020-07-10T11:01:08Z</time>
      </trkpt>
      <trkpt lat="47.78477" lon="-3.38641">
        <ele>22.39</ele>
        <time>2020-07-10T11:01:09Z</time>
      </trkpt>
      <trkpt lat="47.78481" lon="-3.38642">
        <ele>22.53</ele>
        <time>2020-07-10T11:01:10Z</time>
      </trkpt>
      <trkpt lat="47.78484" lon="-3.38643">
        <ele>22.76</ele>
        <time>2020-07-10T11:01:11Z</time>
      </trkpt>
      <trkpt lat="47.78487" lon="-3.38645">
        <ele>23.01</ele>
        <time>2020-07-10T11:01:12Z</time>
      </trkpt>
      <trkpt lat="47.78489" lon="-3.38646">
        <ele>23.28</ele>
        <time>2020-07-10T11:01:13Z</time>
      </trkpt>
      <trkpt lat="47.78492" lon="-3.38648">
        <ele>23.57</ele>
        <time>2020-07-10T11:01:14Z</time>
      </trkpt>
      <trkpt lat="47.78494" lon="-3.38649">
        <ele>23.8</ele>
        <time>2020-07-10T11:01:15Z</time>
      </trkpt>
      <trkpt lat="47.78498" lon="-3.38649">
        <ele>23.98</ele>
        <time>2020-07-10T11:01:16Z</time>
      </trkpt>
      <trkpt lat="47.78501" lon="-3.3865">
        <ele>24.18</ele>
        <time>2020-07-10T11:01:17Z</time>
      </trkpt>
      <trkpt lat="47.78504" lon="-3.38652">
        <ele>24.39</ele>
        <time>2020-07-10T11:01:18Z</time>
      </trkpt>
      <trkpt lat="47.78506" lon="-3.38653">
        <ele>24.59</ele>
        <time>2020-07-10T11:01:19Z</time>
      </trkpt>
      <trkpt lat="47.78509" lon="-3.38655">
        <ele>24.83</ele>
        <time>2020-07-10T11:01:20Z</time>
      </trkpt>
      <trkpt lat="47.78512" lon="-3.38657">
        <ele>25.1</ele>
        <time>2020-07-10T11:01:21Z</time>
      </trkpt>
      <trkpt lat="47.78515" lon="-3.38659">
        <ele>25.38</ele>
        <time>2020-07-10T11:01:22Z</time>
      </trkpt>
      <trkpt lat="47.78518" lon="-3.38661">
        <ele>25.76</ele>
        <time>2020-07-10T11:01:23Z</time>
      </trkpt>
      <trkpt lat="47.78521" lon="-3.38664">
        <ele>26.24</ele>
        <time>2020-07-10T11:01:24Z</time>
      </trkpt>
      <trkpt lat="47.78524" lon="-3.38667">
        <ele>26.69</ele>
        <time>2020-07-10T11:01:25Z</time>
      </trkpt>
      <trkpt lat="47.78527" lon="-3.38669">
        <ele>27.02</ele>
        <time>2020-07-10T11:01:26Z</time>
      </trkpt>
      <trkpt lat="47.7853" lon="-3.38672">
        <ele>27.25</ele>
        <time>2020-07-10T11:01:27Z</time>
      </trkpt>
      <trkpt lat="47.78531" lon="-3.38675">
        <ele>27.42</ele>
        <time>2020-07-10T11:01:28Z</time>
      </trkpt>
      <trkpt lat="47.78533" lon="-3.38677">
        <ele>27.56</ele>
        <time>2020-07-10T11:01:29Z</time>
      </trkpt>
      <trkpt lat="47.78536" lon="-3.3868">
        <ele>27.74</ele>
        <time>2020-07-10T11:01:30Z</time>
      </trkpt>
      <trkpt lat="47.78538" lon="-3.38682">
        <ele>27.91</ele>
        <time>2020-07-10T11:01:31Z</time>
      </trkpt>
      <trkpt lat="47.7854" lon="-3.38685">
        <ele>28.08</ele>
        <time>2020-07-10T11:01:32Z</time>
      </trkpt>
      <trkpt lat="47.78543" lon="-3.38686">
        <ele>28.22</ele>
        <time>2020-07-10T11:01:33Z</time>
      </trkpt>
      <trkpt lat="47.78544" lon="-3.38689">
        <ele>28.43</ele>
        <time>2020-07-10T11:01:34Z</time>
      </trkpt>
      <trkpt lat="47.78547" lon="-3.38692">
        <ele>28.63</ele>
        <time>2020-07-10T11:01:35Z</time>
      </trkpt>
      <trkpt lat="47.7855" lon="-3.38693">
        <ele>28.81</ele>
        <time>2020-07-10T11:01:36Z</time>
      </trkpt>
      <trkpt lat="47.78552" lon="-3.38696">
        <ele>29.05</ele>
        <time>2020-07-10T11:01:37Z</time>
      </trkpt>
      <trkpt lat="47.78556" lon="-3.38701">
        <ele>29.33</ele>
        <time>2020-07-10T11:01:38Z</time>
      </trkpt>
      <trkpt lat="47.78558" lon="-3.38704">
        <ele>29.59</ele>
        <time>2020-07-10T11:01:39Z</time>
      </trkpt>
      <trkpt lat="47.78562" lon="-3.38707">
        <ele>29.83</ele>
        <time>2020-07-10T11:01:40Z</time>
      </trkpt>
      <trkpt lat="47.78566" lon="-3.3871">
        <ele>30.05</ele>
        <time>2020-07-10T11:01:41Z</time>
      </trkpt>
      <trkpt lat="47.78569" lon="-3.38712">
        <ele>30.22</ele>
        <time>2020-07-10T11:01:42Z</time>
      </trkpt>
      <trkpt lat="47.78571" lon="-3.38715">
        <ele>30.43</ele>
        <time>2020-07-10T11:01:43Z</time>
      </trkpt>
      <trkpt lat="47.78574" lon="-3.38718">
        <ele>30.63</ele>
        <time>2020-07-10T11:01:44Z</time>
      </trkpt>
      <trkpt lat="47.78577" lon="-3.38722">
        <ele>30.88</ele>
        <time>2020-07-10T11:01:45Z</time>
      </trkpt>
      <trkpt lat="47.7858" lon="-3.38725">
        <ele>31.1</ele>
        <time>2020-07-10T11:01:46Z</time>
      </trkpt>
      <trkpt lat="47.78584" lon="-3.38728">
        <ele>31.3</ele>
        <time>2020-07-10T11:01:47Z</time>
      </trkpt>
      <trkpt lat="47.78588" lon="-3.3873">
        <ele>31.35</ele>
        <time>2020-07-10T11:01:48Z</time>
      </trkpt>
      <trkpt lat="47.78591" lon="-3.38733">
        <ele>31.36</ele>
        <time>2020-07-10T11:01:49Z</time>
      </trkpt>
      <trkpt lat="47.78596" lon="-3.38735">
        <ele>31.31</ele>
        <time>2020-07-10T11:01:50Z</time>
      </trkpt>
      <trkpt lat="47.786" lon="-3.38738">
        <ele>31.23</ele>
        <time>2020-07-10T11:01:51Z</time>
      </trkpt>
      <trkpt lat="47.78603" lon="-3.3874">
        <ele>31.18</ele>
        <time>2020-07-10T11:01:52Z</time>
      </trkpt>
      <trkpt lat="47.78606" lon="-3.38743">
        <ele>31.12</ele>
        <time>2020-07-10T11:01:53Z</time>
      </trkpt>
      <trkpt lat="47.78608" lon="-3.38746">
        <ele>31.08</ele>
        <time>2020-07-10T11:01:54Z</time>
      </trkpt>
      <trkpt lat="47.7861" lon="-3.38748">
        <ele>31.04</ele>
        <time>2020-07-10T11:01:55Z</time>
      </trkpt>
      <trkpt lat="47.78612" lon="-3.38751">
        <ele>31.01</ele>
        <time>2020-07-10T11:01:56Z</time>
      </trkpt>
      <trkpt lat="47.78615" lon="-3.38753">
        <ele>31.05</ele>
        <time>2020-07-10T11:01:57Z</time>
      </trkpt>
      <trkpt lat="47.7862" lon="-3.38754">
        <ele>31.01</ele>
        <time>2020-07-10T11:01:58Z</time>
      </trkpt>
      <trkpt lat="47.78624" lon="-3.38756">
        <ele>30.99</ele>
        <time>2020-07-10T11:01:59Z</time>
      </trkpt>
      <trkpt lat="47.78628" lon="-3.38758">
        <ele>30.96</ele>
        <time>2020-07-10T11:02:00Z</time>
      </trkpt>
      <trkpt lat="47.78632" lon="-3.3876">
        <ele>30.95</ele>
        <time>2020-07-10T11:02:01Z</time>
      </trkpt>
      <trkpt lat="47.78636" lon="-3.38763">
        <ele>30.97</ele>
        <time>2020-07-10T11:02:02Z</time>
      </trkpt>
      <trkpt lat="47.78641" lon="-3.38765">
        <ele>30.99</ele>
        <time>2020-07-10T11:02:03Z</time>
      </trkpt>
      <trkpt lat="47.78645" lon="-3.38767">
        <ele>31</ele>
        <time>2020-07-10T11:02:04Z</time>
      </trkpt>
      <trkpt lat="47.78649" lon="-3.3877">
        <ele>31.02</ele>
        <time>2020-07-10T11:02:05Z</time>
      </trkpt>
      <trkpt lat="47.78653" lon="-3.38772">
        <ele>31.06</ele>
        <time>2020-07-10T11:02:06Z</time>
      </trkpt>
      <trkpt lat="47.78657" lon="-3.38774">
        <ele>31.06</ele>
        <time>2020-07-10T11:02:07Z</time>
      </trkpt>
      <trkpt lat="47.78664" lon="-3.38778">
        <ele>31.1</ele>
        <time>2020-07-10T11:02:08Z</time>
      </trkpt>
      <trkpt lat="47.78669" lon="-3.38781">
        <ele>31.03</ele>
        <time>2020-07-10T11:02:09Z</time>
      </trkpt>
      <trkpt lat="47.78672" lon="-3.3878">
        <ele>30.87</ele>
        <time>2020-07-10T11:02:10Z</time>
      </trkpt>
      <trkpt lat="47.78674" lon="-3.3878">
        <ele>30.7</ele>
        <time>2020-07-10T11:02:11Z</time>
      </trkpt>
      <trkpt lat="47.78678" lon="-3.38779">
        <ele>30.36</ele>
        <time>2020-07-10T11:02:12Z</time>
      </trkpt>
      <trkpt lat="47.78681" lon="-3.38778">
        <ele>30.11</ele>
        <time>2020-07-10T11:02:13Z</time>
      </trkpt>
      <trkpt lat="47.78684" lon="-3.38778">
        <ele>29.9</ele>
        <time>2020-07-10T11:02:14Z</time>
      </trkpt>
      <trkpt lat="47.78687" lon="-3.38777">
        <ele>29.66</ele>
        <time>2020-07-10T11:02:15Z</time>
      </trkpt>
      <trkpt lat="47.78689" lon="-3.38775">
        <ele>29.31</ele>
        <time>2020-07-10T11:02:16Z</time>
      </trkpt>
      <trkpt lat="47.78691" lon="-3.3877">
        <ele>28.83</ele>
        <time>2020-07-10T11:02:17Z</time>
      </trkpt>
      <trkpt lat="47.78693" lon="-3.38762">
        <ele>28.24</ele>
        <time>2020-07-10T11:02:18Z</time>
      </trkpt>
      <trkpt lat="47.78694" lon="-3.38753">
        <ele>27.55</ele>
        <time>2020-07-10T11:02:19Z</time>
      </trkpt>
      <trkpt lat="47.78695" lon="-3.38743">
        <ele>26.62</ele>
        <time>2020-07-10T11:02:20Z</time>
      </trkpt>
      <trkpt lat="47.78698" lon="-3.38731">
        <ele>25.41</ele>
        <time>2020-07-10T11:02:21Z</time>
      </trkpt>
      <trkpt lat="47.787" lon="-3.38719">
        <ele>24.23</ele>
        <time>2020-07-10T11:02:22Z</time>
      </trkpt>
      <trkpt lat="47.78702" lon="-3.38708">
        <ele>23.09</ele>
        <time>2020-07-10T11:02:23Z</time>
      </trkpt>
      <trkpt lat="47.78703" lon="-3.38696">
        <ele>21.98</ele>
        <time>2020-07-10T11:02:24Z</time>
      </trkpt>
      <trkpt lat="47.78704" lon="-3.38686">
        <ele>20.91</ele>
        <time>2020-07-10T11:02:25Z</time>
      </trkpt>
      <trkpt lat="47.78706" lon="-3.38676">
        <ele>19.88</ele>
        <time>2020-07-10T11:02:26Z</time>
      </trkpt>
      <trkpt lat="47.78708" lon="-3.38668">
        <ele>19.04</ele>
        <time>2020-07-10T11:02:27Z</time>
      </trkpt>
      <trkpt lat="47.7871" lon="-3.38662">
        <ele>18.43</ele>
        <time>2020-07-10T11:02:28Z</time>
      </trkpt>
      <trkpt lat="47.78712" lon="-3.38656">
        <ele>17.96</ele>
        <time>2020-07-10T11:02:29Z</time>
      </trkpt>
      <trkpt lat="47.78713" lon="-3.3865">
        <ele>17.47</ele>
        <time>2020-07-10T11:02:30Z</time>
      </trkpt>
      <trkpt lat="47.78713" lon="-3.38643">
        <ele>16.92</ele>
        <time>2020-07-10T11:02:31Z</time>
      </trkpt>
      <trkpt lat="47.78712" lon="-3.38636">
        <ele>16.36</ele>
        <time>2020-07-10T11:02:32Z</time>
      </trkpt>
      <trkpt lat="47.78711" lon="-3.38629">
        <ele>15.99</ele>
        <time>2020-07-10T11:02:33Z</time>
      </trkpt>
      <trkpt lat="47.78711" lon="-3.38621">
        <ele>15.68</ele>
        <time>2020-07-10T11:02:34Z</time>
      </trkpt>
      <trkpt lat="47.78711" lon="-3.38614">
        <ele>15.43</ele>
        <time>2020-07-10T11:02:35Z</time>
      </trkpt>
      <trkpt lat="47.78711" lon="-3.38607">
        <ele>15.19</ele>
        <time>2020-07-10T11:02:36Z</time>
      </trkpt>
      <trkpt lat="47.78711" lon="-3.386">
        <ele>15</ele>
        <time>2020-07-10T11:02:37Z</time>
      </trkpt>
      <trkpt lat="47.7871" lon="-3.38591">
        <ele>14.79</ele>
        <time>2020-07-10T11:02:38Z</time>
      </trkpt>
      <trkpt lat="47.78708" lon="-3.38582">
        <ele>14.55</ele>
        <time>2020-07-10T11:02:39Z</time>
      </trkpt>
      <trkpt lat="47.78707" lon="-3.38571">
        <ele>14.2</ele>
        <time>2020-07-10T11:02:40Z</time>
      </trkpt>
      <trkpt lat="47.78705" lon="-3.38561">
        <ele>13.89</ele>
        <time>2020-07-10T11:02:41Z</time>
      </trkpt>
      <trkpt lat="47.78704" lon="-3.38549">
        <ele>13.56</ele>
        <time>2020-07-10T11:02:42Z</time>
      </trkpt>
      <trkpt lat="47.78703" lon="-3.38538">
        <ele>13.21</ele>
        <time>2020-07-10T11:02:43Z</time>
      </trkpt>
      <trkpt lat="47.78701" lon="-3.38527">
        <ele>12.84</ele>
        <time>2020-07-10T11:02:44Z</time>
      </trkpt>
      <trkpt lat="47.78701" lon="-3.38515">
        <ele>12.41</ele>
        <time>2020-07-10T11:02:45Z</time>
      </trkpt>
      <trkpt lat="47.78701" lon="-3.38505">
        <ele>11.96</ele>
        <time>2020-07-10T11:02:46Z</time>
      </trkpt>
      <trkpt lat="47.787" lon="-3.38494">
        <ele>11.38</ele>
        <time>2020-07-10T11:02:47Z</time>
      </trkpt>
      <trkpt lat="47.787" lon="-3.38483">
        <ele>10.69</ele>
        <time>2020-07-10T11:02:48Z</time>
      </trkpt>
      <trkpt lat="47.78699" lon="-3.38473">
        <ele>10.01</ele>
        <time>2020-07-10T11:02:49Z</time>
      </trkpt>
      <trkpt lat="47.78699" lon="-3.38463">
        <ele>9.45</ele>
        <time>2020-07-10T11:02:50Z</time>
      </trkpt>
      <trkpt lat="47.78699" lon="-3.38452">
        <ele>8.9</ele>
        <time>2020-07-10T11:02:51Z</time>
      </trkpt>
      <trkpt lat="47.78699" lon="-3.38442">
        <ele>8.32</ele>
        <time>2020-07-10T11:02:52Z</time>
      </trkpt>
      <trkpt lat="47.78698" lon="-3.38433">
        <ele>7.57</ele>
        <time>2020-07-10T11:02:53Z</time>
      </trkpt>
      <trkpt lat="47.78698" lon="-3.38426">
        <ele>6.94</ele>
        <time>2020-07-10T11:02:54Z</time>
      </trkpt>
      <trkpt lat="47.78697" lon="-3.38422">
        <ele>6.46</ele>
        <time>2020-07-10T11:02:55Z</time>
      </trkpt>
      <trkpt lat="47.78696" lon="-3.38419">
        <ele>6.19</ele>
        <time>2020-07-10T11:02:56Z</time>
      </trkpt>
      <trkpt lat="47.78696" lon="-3.38416">
        <ele>5.93</ele>
        <time>2020-07-10T11:02:57Z</time>
      </trkpt>
      <trkpt lat="47.78695" lon="-3.38413">
        <ele>5.62</ele>
        <time>2020-07-10T11:02:58Z</time>
      </trkpt>
      <trkpt lat="47.78694" lon="-3.38409">
        <ele>5.27</ele>
        <time>2020-07-10T11:02:59Z</time>
      </trkpt>
      <trkpt lat="47.78691" lon="-3.38405">
        <ele>4.95</ele>
        <time>2020-07-10T11:03:00Z</time>
      </trkpt>
      <trkpt lat="47.78687" lon="-3.38401">
        <ele>4.62</ele>
        <time>2020-07-10T11:03:01Z</time>
      </trkpt>
      <trkpt lat="47.78684" lon="-3.38399">
        <ele>4.41</ele>
        <time>2020-07-10T11:03:02Z</time>
      </trkpt>
      <trkpt lat="47.78681" lon="-3.38395">
        <ele>4.15</ele>
        <time>2020-07-10T11:03:03Z</time>
      </trkpt>
      <trkpt lat="47.7868" lon="-3.38391">
        <ele>3.82</ele>
        <time>2020-07-10T11:03:04Z</time>
      </trkpt>
      <trkpt lat="47.78681" lon="-3.38387">
        <ele>3.49</ele>
        <time>2020-07-10T11:03:05Z</time>
      </trkpt>
      <trkpt lat="47.78684" lon="-3.38385">
        <ele>3.23</ele>
        <time>2020-07-10T11:03:06Z</time>
      </trkpt>
      <trkpt lat="47.78686" lon="-3.38384">
        <ele>3.07</ele>
        <time>2020-07-10T11:03:07Z</time>
      </trkpt>
      <trkpt lat="47.7869" lon="-3.38384">
        <ele>2.97</ele>
        <time>2020-07-10T11:03:08Z</time>
      </trkpt>
      <trkpt lat="47.78694" lon="-3.38386">
        <ele>2.93</ele>
        <time>2020-07-10T11:03:09Z</time>
      </trkpt>
      <trkpt lat="47.78697" lon="-3.38388">
        <ele>2.97</ele>
        <time>2020-07-10T11:03:10Z</time>
      </trkpt>
      <trkpt lat="47.78699" lon="-3.38389">
        <ele>3.01</ele>
        <time>2020-07-10T11:03:11Z</time>
      </trkpt>
      <trkpt lat="47.78702" lon="-3.3839">
        <ele>3.09</ele>
        <time>2020-07-10T11:03:12Z</time>
      </trkpt>
      <trkpt lat="47.78704" lon="-3.38392">
        <ele>3.2</ele>
        <time>2020-07-10T11:03:13Z</time>
      </trkpt>
      <trkpt lat="47.78706" lon="-3.38394">
        <ele>3.29</ele>
        <time>2020-07-10T11:03:14Z</time>
      </trkpt>
      <trkpt lat="47.78708" lon="-3.38396">
        <ele>3.35</ele>
        <time>2020-07-10T11:03:15Z</time>
      </trkpt>
      <trkpt lat="47.78709" lon="-3.38396">
        <ele>3.37</ele>
        <time>2020-07-10T11:03:16Z</time>
      </trkpt>
      <trkpt lat="47.78709" lon="-3.38396">
        <ele>3.35</ele>
        <time>2020-07-10T11:03:17Z</time>
      </trkpt>
      <trkpt lat="47.78708" lon="-3.38396">
        <ele>3.36</ele>
        <time>2020-07-10T11:03:18Z</time>
      </trkpt>
      <trkpt lat="47.78708" lon="-3.38396">
        <ele>3.36</ele>
        <time>2020-07-10T11:03:19Z</time>
      </trkpt>
      <trkpt lat="47.78708" lon="-3.38396">
        <ele>3.36</ele>
        <time>2020-07-10T11:03:20Z</time>
      </trkpt>
      <trkpt lat="47.78708" lon="-3.38396">
        <ele>3.36</ele>
        <time>2020-07-10T11:03:21Z</time>
      </trkpt>
      <trkpt lat="47.78708" lon="-3.38396">
        <ele>3.36</ele>
        <time>2020-07-10T11:03:22Z</time>
      </trkpt>
      <trkpt lat="47.78708" lon="-3.38396">
        <ele>3.36</ele>
        <time>2020-07-10T11:03:23Z</time>
      </trkpt>
      <trkpt lat="47.78708" lon="-3.38396">
        <ele>3.36</ele>
        <time>2020-07-10T11:03:24Z</time>
      </trkpt>
      <trkpt lat="47.78708" lon="-3.38396">
        <ele>3.36</ele>
        <time>2020-07-10T11:03:25Z</time>
      </trkpt>
      <trkpt lat="47.78708" lon="-3.38396">
        <ele>3.36</ele>
        <time>2020-07-10T11:03:26Z</time>
      </trkpt>
      <trkpt lat="47.78708" lon="-3.38396">
        <ele>3.36</ele>
        <time>2020-07-10T11:03:27Z</time>
      </trkpt>
      <trkpt lat="47.78708" lon="-3.38396">
        <ele>3.36</ele>
        <time>2020-07-10T11:03:28Z</time>
      </trkpt>
      <trkpt lat="47.78708" lon="-3.38396">
        <ele>3.36</ele>
        <time>2020-07-10T11:03:29Z</time>
      </trkpt>
      <trkpt lat="47.78708" lon="-3.38396">
        <ele>3.36</ele>
        <time>2020-07-10T11:03:30Z</time>
      </trkpt>
      <trkpt lat="47.78708" lon="-3.38396">
        <ele>3.36</ele>
        <time>2020-07-10T11:03:31Z</time>
      </trkpt>
      <trkpt lat="47.78708" lon="-3.38396">
        <ele>3.36</ele>
        <time>2020-07-10T11:03:32Z</time>
      </trkpt>
      <trkpt lat="47.78708" lon="-3.38396">
        <ele>3.36</ele>
        <time>2020-07-10T11:03:33Z</time>
      </trkpt>
      <trkpt lat="47.78708" lon="-3.38396">
        <ele>3.36</ele>
        <time>2020-07-10T11:03:34Z</time>
      </trkpt>
      <trkpt lat="47.78718" lon="-3.38398">
        <ele>3.22</ele>
        <time>2020-07-10T11:03:35Z</time>
      </trkpt>
      <trkpt lat="47.7872" lon="-3.38397">
        <ele>3.11</ele>
        <time>2020-07-10T11:03:36Z</time>
      </trkpt>
      <trkpt lat="47.78722" lon="-3.38399">
        <ele>3.04</ele>
        <time>2020-07-10T11:03:37Z</time>
      </trkpt>
      <trkpt lat="47.78724" lon="-3.38402">
        <ele>3.01</ele>
        <time>2020-07-10T11:03:38Z</time>
      </trkpt>
      <trkpt lat="47.78726" lon="-3.38404">
        <ele>3</ele>
        <time>2020-07-10T11:03:39Z</time>
      </trkpt>
      <trkpt lat="47.78727" lon="-3.38407">
        <ele>3</ele>
        <time>2020-07-10T11:03:40Z</time>
      </trkpt>
      <trkpt lat="47.78728" lon="-3.3841">
        <ele>3</ele>
        <time>2020-07-10T11:03:41Z</time>
      </trkpt>
      <trkpt lat="47.78728" lon="-3.38413">
        <ele>3</ele>
        <time>2020-07-10T11:03:42Z</time>
      </trkpt>
      <trkpt lat="47.78728" lon="-3.38416">
        <ele>3</ele>
        <time>2020-07-10T11:03:43Z</time>
      </trkpt>
      <trkpt lat="47.78728" lon="-3.38419">
        <ele>3.09</ele>
        <time>2020-07-10T11:03:44Z</time>
      </trkpt>
      <trkpt lat="47.78727" lon="-3.38422">
        <ele>3.25</ele>
        <time>2020-07-10T11:03:45Z</time>
      </trkpt>
      <trkpt lat="47.78726" lon="-3.38424">
        <ele>3.4</ele>
        <time>2020-07-10T11:03:46Z</time>
      </trkpt>
      <trkpt lat="47.78726" lon="-3.38428">
        <ele>3.6</ele>
        <time>2020-07-10T11:03:47Z</time>
      </trkpt>
      <trkpt lat="47.78725" lon="-3.3843">
        <ele>3.8</ele>
        <time>2020-07-10T11:03:48Z</time>
      </trkpt>
      <trkpt lat="47.78725" lon="-3.38433">
        <ele>3.99</ele>
        <time>2020-07-10T11:03:49Z</time>
      </trkpt>
      <trkpt lat="47.78724" lon="-3.38435">
        <ele>4.17</ele>
        <time>2020-07-10T11:03:50Z</time>
      </trkpt>
      <trkpt lat="47.78724" lon="-3.38438">
        <ele>4.34</ele>
        <time>2020-07-10T11:03:51Z</time>
      </trkpt>
      <trkpt lat="47.78724" lon="-3.38441">
        <ele>4.55</ele>
        <time>2020-07-10T11:03:52Z</time>
      </trkpt>
      <trkpt lat="47.78724" lon="-3.38444">
        <ele>4.75</ele>
        <time>2020-07-10T11:03:53Z</time>
      </trkpt>
      <trkpt lat="47.78725" lon="-3.38447">
        <ele>4.95</ele>
        <time>2020-07-10T11:03:54Z</time>
      </trkpt>
      <trkpt lat="47.78725" lon="-3.38448">
        <ele>5.05</ele>
        <time>2020-07-10T11:03:55Z</time>
      </trkpt>
      <trkpt lat="47.78726" lon="-3.38448">
        <ele>5.08</ele>
        <time>2020-07-10T11:03:56Z</time>
      </trkpt>
      <trkpt lat="47.78727" lon="-3.38449">
        <ele>5.12</ele>
        <time>2020-07-10T11:03:57Z</time>
      </trkpt>
      <trkpt lat="47.7873" lon="-3.38453">
        <ele>5.24</ele>
        <time>2020-07-10T11:03:58Z</time>
      </trkpt>
      <trkpt lat="47.78733" lon="-3.38457">
        <ele>5.35</ele>
        <time>2020-07-10T11:03:59Z</time>
      </trkpt>
      <trkpt lat="47.78736" lon="-3.3846">
        <ele>5.41</ele>
        <time>2020-07-10T11:04:00Z</time>
      </trkpt>
      <trkpt lat="47.78737" lon="-3.38462">
        <ele>5.41</ele>
        <time>2020-07-10T11:04:01Z</time>
      </trkpt>
      <trkpt lat="47.78739" lon="-3.38463">
        <ele>5.36</ele>
        <time>2020-07-10T11:04:02Z</time>
      </trkpt>
      <trkpt lat="47.78742" lon="-3.38464">
        <ele>5.26</ele>
        <time>2020-07-10T11:04:03Z</time>
      </trkpt>
      <trkpt lat="47.78743" lon="-3.38466">
        <ele>5.26</ele>
        <time>2020-07-10T11:04:04Z</time>
      </trkpt>
      <trkpt lat="47.78745" lon="-3.38466">
        <ele>5.12</ele>
        <time>2020-07-10T11:04:05Z</time>
      </trkpt>
      <trkpt lat="47.78747" lon="-3.38463">
        <ele>4.8</ele>
        <time>2020-07-10T11:04:06Z</time>
      </trkpt>
      <trkpt lat="47.78749" lon="-3.38462">
        <ele>4.48</ele>
        <time>2020-07-10T11:04:07Z</time>
      </trkpt>
      <trkpt lat="47.7875" lon="-3.3846">
        <ele>4.26</ele>
        <time>2020-07-10T11:04:08Z</time>
      </trkpt>
      <trkpt lat="47.78752" lon="-3.38459">
        <ele>4.3</ele>
        <time>2020-07-10T11:04:09Z</time>
      </trkpt>
      <trkpt lat="47.78754" lon="-3.38457">
        <ele>4.44</ele>
        <time>2020-07-10T11:04:10Z</time>
      </trkpt>
      <trkpt lat="47.78755" lon="-3.38457">
        <ele>4.62</ele>
        <time>2020-07-10T11:04:11Z</time>
      </trkpt>
      <trkpt lat="47.78756" lon="-3.38458">
        <ele>4.75</ele>
        <time>2020-07-10T11:04:12Z</time>
      </trkpt>
      <trkpt lat="47.78757" lon="-3.38459">
        <ele>4.94</ele>
        <time>2020-07-10T11:04:13Z</time>
      </trkpt>
      <trkpt lat="47.78758" lon="-3.38459">
        <ele>5.16</ele>
        <time>2020-07-10T11:04:14Z</time>
      </trkpt>
      <trkpt lat="47.7876" lon="-3.3846">
        <ele>5.45</ele>
        <time>2020-07-10T11:04:15Z</time>
      </trkpt>
      <trkpt lat="47.78761" lon="-3.38461">
        <ele>5.65</ele>
        <time>2020-07-10T11:04:16Z</time>
      </trkpt>
      <trkpt lat="47.78763" lon="-3.38461">
        <ele>5.86</ele>
        <time>2020-07-10T11:04:17Z</time>
      </trkpt>
      <trkpt lat="47.78764" lon="-3.38462">
        <ele>6.02</ele>
        <time>2020-07-10T11:04:18Z</time>
      </trkpt>
      <trkpt lat="47.78765" lon="-3.38462">
        <ele>6.18</ele>
        <time>2020-07-10T11:04:19Z</time>
      </trkpt>
      <trkpt lat="47.78766" lon="-3.38463">
        <ele>6.34</ele>
        <time>2020-07-10T11:04:20Z</time>
      </trkpt>
      <trkpt lat="47.78768" lon="-3.38462">
        <ele>6.56</ele>
        <time>2020-07-10T11:04:21Z</time>
      </trkpt>
      <trkpt lat="47.78769" lon="-3.38462">
        <ele>6.72</ele>
        <time>2020-07-10T11:04:22Z</time>
      </trkpt>
      <trkpt lat="47.7877" lon="-3.38462">
        <ele>6.85</ele>
        <time>2020-07-10T11:04:23Z</time>
      </trkpt>
      <trkpt lat="47.78771" lon="-3.38462">
        <ele>6.98</ele>
        <time>2020-07-10T11:04:24Z</time>
      </trkpt>
      <trkpt lat="47.78772" lon="-3.3846">
        <ele>7.15</ele>
        <time>2020-07-10T11:04:25Z</time>
      </trkpt>
      <trkpt lat="47.78774" lon="-3.3846">
        <ele>7.34</ele>
        <time>2020-07-10T11:04:26Z</time>
      </trkpt>
      <trkpt lat="47.78775" lon="-3.38459">
        <ele>7.56</ele>
        <time>2020-07-10T11:04:27Z</time>
      </trkpt>
      <trkpt lat="47.78777" lon="-3.3846">
        <ele>7.76</ele>
        <time>2020-07-10T11:04:28Z</time>
      </trkpt>
      <trkpt lat="47.78779" lon="-3.38461">
        <ele>8.13</ele>
        <time>2020-07-10T11:04:29Z</time>
      </trkpt>
      <trkpt lat="47.78782" lon="-3.38459">
        <ele>8.6</ele>
        <time>2020-07-10T11:04:30Z</time>
      </trkpt>
      <trkpt lat="47.78784" lon="-3.38458">
        <ele>8.96</ele>
        <time>2020-07-10T11:04:31Z</time>
      </trkpt>
      <trkpt lat="47.78787" lon="-3.38457">
        <ele>9.47</ele>
        <time>2020-07-10T11:04:32Z</time>
      </trkpt>
      <trkpt lat="47.78789" lon="-3.38454">
        <ele>9.75</ele>
        <time>2020-07-10T11:04:33Z</time>
      </trkpt>
      <trkpt lat="47.78792" lon="-3.3845">
        <ele>10.06</ele>
        <time>2020-07-10T11:04:34Z</time>
      </trkpt>
      <trkpt lat="47.78794" lon="-3.38448">
        <ele>10.39</ele>
        <time>2020-07-10T11:04:35Z</time>
      </trkpt>
      <trkpt lat="47.78796" lon="-3.38445">
        <ele>10.62</ele>
        <time>2020-07-10T11:04:36Z</time>
      </trkpt>
      <trkpt lat="47.78798" lon="-3.38442">
        <ele>10.75</ele>
        <time>2020-07-10T11:04:37Z</time>
      </trkpt>
      <trkpt lat="47.78799" lon="-3.3844">
        <ele>10.87</ele>
        <time>2020-07-10T11:04:38Z</time>
      </trkpt>
      <trkpt lat="47.788" lon="-3.38439">
        <ele>10.98</ele>
        <time>2020-07-10T11:04:39Z</time>
      </trkpt>
      <trkpt lat="47.788" lon="-3.38438">
        <ele>11.03</ele>
        <time>2020-07-10T11:04:40Z</time>
      </trkpt>
      <trkpt lat="47.788" lon="-3.38438">
        <ele>11.03</ele>
        <time>2020-07-10T11:04:41Z</time>
      </trkpt>
      <trkpt lat="47.788" lon="-3.38438">
        <ele>11.04</ele>
        <time>2020-07-10T11:04:42Z</time>
      </trkpt>
      <trkpt lat="47.788" lon="-3.38438">
        <ele>11.04</ele>
        <time>2020-07-10T11:04:43Z</time>
      </trkpt>
      <trkpt lat="47.788" lon="-3.38438">
        <ele>11.04</ele>
        <time>2020-07-10T11:04:44Z</time>
      </trkpt>
      <trkpt lat="47.788" lon="-3.38438">
        <ele>11.04</ele>
        <time>2020-07-10T11:04:45Z</time>
      </trkpt>
      <trkpt lat="47.788" lon="-3.38438">
        <ele>11.04</ele>
        <time>2020-07-10T11:04:46Z</time>
      </trkpt>
      <trkpt lat="47.78799" lon="-3.38429">
        <ele>10.73</ele>
        <time>2020-07-10T11:04:47Z</time>
      </trkpt>
      <trkpt lat="47.78799" lon="-3.38424">
        <ele>10.55</ele>
        <time>2020-07-10T11:04:48Z</time>
      </trkpt>
      <trkpt lat="47.78801" lon="-3.38416">
        <ele>10.53</ele>
        <time>2020-07-10T11:04:49Z</time>
      </trkpt>
      <trkpt lat="47.78803" lon="-3.3841">
        <ele>10.69</ele>
        <time>2020-07-10T11:04:50Z</time>
      </trkpt>
      <trkpt lat="47.78805" lon="-3.38405">
        <ele>10.87</ele>
        <time>2020-07-10T11:04:51Z</time>
      </trkpt>
      <trkpt lat="47.78807" lon="-3.38401">
        <ele>11.07</ele>
        <time>2020-07-10T11:04:52Z</time>
      </trkpt>
      <trkpt lat="47.78808" lon="-3.38397">
        <ele>11.25</ele>
        <time>2020-07-10T11:04:53Z</time>
      </trkpt>
      <trkpt lat="47.7881" lon="-3.38394">
        <ele>11.44</ele>
        <time>2020-07-10T11:04:54Z</time>
      </trkpt>
      <trkpt lat="47.78812" lon="-3.38391">
        <ele>11.63</ele>
        <time>2020-07-10T11:04:55Z</time>
      </trkpt>
      <trkpt lat="47.78814" lon="-3.38388">
        <ele>11.82</ele>
        <time>2020-07-10T11:04:56Z</time>
      </trkpt>
      <trkpt lat="47.78816" lon="-3.38386">
        <ele>12.03</ele>
        <time>2020-07-10T11:04:57Z</time>
      </trkpt>
      <trkpt lat="47.78818" lon="-3.38383">
        <ele>12.24</ele>
        <time>2020-07-10T11:04:58Z</time>
      </trkpt>
      <trkpt lat="47.78819" lon="-3.3838">
        <ele>12.43</ele>
        <time>2020-07-10T11:04:59Z</time>
      </trkpt>
      <trkpt lat="47.78821" lon="-3.38377">
        <ele>12.62</ele>
        <time>2020-07-10T11:05:00Z</time>
      </trkpt>
      <trkpt lat="47.78824" lon="-3.38372">
        <ele>12.87</ele>
        <time>2020-07-10T11:05:01Z</time>
      </trkpt>
      <trkpt lat="47.78826" lon="-3.38368">
        <ele>13.14</ele>
        <time>2020-07-10T11:05:02Z</time>
      </trkpt>
      <trkpt lat="47.78829" lon="-3.38365">
        <ele>13.4</ele>
        <time>2020-07-10T11:05:03Z</time>
      </trkpt>
      <trkpt lat="47.78831" lon="-3.38361">
        <ele>13.63</ele>
        <time>2020-07-10T11:05:04Z</time>
      </trkpt>
      <trkpt lat="47.78832" lon="-3.38357">
        <ele>13.73</ele>
        <time>2020-07-10T11:05:05Z</time>
      </trkpt>
      <trkpt lat="47.78834" lon="-3.38354">
        <ele>13.81</ele>
        <time>2020-07-10T11:05:06Z</time>
      </trkpt>
      <trkpt lat="47.78836" lon="-3.3835">
        <ele>13.87</ele>
        <time>2020-07-10T11:05:07Z</time>
      </trkpt>
      <trkpt lat="47.78838" lon="-3.38347">
        <ele>13.93</ele>
        <time>2020-07-10T11:05:08Z</time>
      </trkpt>
      <trkpt lat="47.78838" lon="-3.38345">
        <ele>13.93</ele>
        <time>2020-07-10T11:05:09Z</time>
      </trkpt>
      <trkpt lat="47.78839" lon="-3.38341">
        <ele>13.87</ele>
        <time>2020-07-10T11:05:10Z</time>
      </trkpt>
      <trkpt lat="47.78839" lon="-3.38337">
        <ele>13.75</ele>
        <time>2020-07-10T11:05:11Z</time>
      </trkpt>
      <trkpt lat="47.78839" lon="-3.38333">
        <ele>13.67</ele>
        <time>2020-07-10T11:05:12Z</time>
      </trkpt>
      <trkpt lat="47.78841" lon="-3.3833">
        <ele>13.73</ele>
        <time>2020-07-10T11:05:13Z</time>
      </trkpt>
      <trkpt lat="47.78843" lon="-3.38329">
        <ele>13.9</ele>
        <time>2020-07-10T11:05:14Z</time>
      </trkpt>
      <trkpt lat="47.78845" lon="-3.3833">
        <ele>14.1</ele>
        <time>2020-07-10T11:05:15Z</time>
      </trkpt>
      <trkpt lat="47.78847" lon="-3.38331">
        <ele>14.34</ele>
        <time>2020-07-10T11:05:16Z</time>
      </trkpt>
      <trkpt lat="47.78849" lon="-3.38333">
        <ele>14.58</ele>
        <time>2020-07-10T11:05:17Z</time>
      </trkpt>
      <trkpt lat="47.78851" lon="-3.38335">
        <ele>14.87</ele>
        <time>2020-07-10T11:05:18Z</time>
      </trkpt>
      <trkpt lat="47.78853" lon="-3.38336">
        <ele>15.16</ele>
        <time>2020-07-10T11:05:19Z</time>
      </trkpt>
      <trkpt lat="47.78855" lon="-3.38338">
        <ele>15.41</ele>
        <time>2020-07-10T11:05:20Z</time>
      </trkpt>
      <trkpt lat="47.78856" lon="-3.38341">
        <ele>15.66</ele>
        <time>2020-07-10T11:05:21Z</time>
      </trkpt>
      <trkpt lat="47.78858" lon="-3.38343">
        <ele>15.93</ele>
        <time>2020-07-10T11:05:22Z</time>
      </trkpt>
      <trkpt lat="47.7886" lon="-3.38345">
        <ele>16.2</ele>
        <time>2020-07-10T11:05:23Z</time>
      </trkpt>
      <trkpt lat="47.78862" lon="-3.38346">
        <ele>16.43</ele>
        <time>2020-07-10T11:05:24Z</time>
      </trkpt>
      <trkpt lat="47.78864" lon="-3.38348">
        <ele>16.63</ele>
        <time>2020-07-10T11:05:25Z</time>
      </trkpt>
      <trkpt lat="47.78865" lon="-3.3835">
        <ele>16.81</ele>
        <time>2020-07-10T11:05:26Z</time>
      </trkpt>
      <trkpt lat="47.78866" lon="-3.38352">
        <ele>16.99</ele>
        <time>2020-07-10T11:05:27Z</time>
      </trkpt>
      <trkpt lat="47.78869" lon="-3.38354">
        <ele>17.19</ele>
        <time>2020-07-10T11:05:28Z</time>
      </trkpt>
      <trkpt lat="47.78871" lon="-3.38356">
        <ele>17.44</ele>
        <time>2020-07-10T11:05:29Z</time>
      </trkpt>
      <trkpt lat="47.78875" lon="-3.38359">
        <ele>17.75</ele>
        <time>2020-07-10T11:05:30Z</time>
      </trkpt>
      <trkpt lat="47.78877" lon="-3.3836">
        <ele>17.99</ele>
        <time>2020-07-10T11:05:31Z</time>
      </trkpt>
      <trkpt lat="47.78879" lon="-3.38363">
        <ele>18.23</ele>
        <time>2020-07-10T11:05:32Z</time>
      </trkpt>
      <trkpt lat="47.78881" lon="-3.38365">
        <ele>18.47</ele>
        <time>2020-07-10T11:05:33Z</time>
      </trkpt>
      <trkpt lat="47.78883" lon="-3.38367">
        <ele>18.71</ele>
        <time>2020-07-10T11:05:34Z</time>
      </trkpt>
      <trkpt lat="47.78885" lon="-3.38369">
        <ele>18.94</ele>
        <time>2020-07-10T11:05:35Z</time>
      </trkpt>
      <trkpt lat="47.78887" lon="-3.38371">
        <ele>19.16</ele>
        <time>2020-07-10T11:05:36Z</time>
      </trkpt>
      <trkpt lat="47.7889" lon="-3.38373">
        <ele>19.41</ele>
        <time>2020-07-10T11:05:37Z</time>
      </trkpt>
      <trkpt lat="47.78892" lon="-3.38375">
        <ele>19.74</ele>
        <time>2020-07-10T11:05:38Z</time>
      </trkpt>
      <trkpt lat="47.78895" lon="-3.38375">
        <ele>20.07</ele>
        <time>2020-07-10T11:05:39Z</time>
      </trkpt>
      <trkpt lat="47.78897" lon="-3.38373">
        <ele>20.33</ele>
        <time>2020-07-10T11:05:40Z</time>
      </trkpt>
      <trkpt lat="47.78898" lon="-3.38371">
        <ele>20.51</ele>
        <time>2020-07-10T11:05:41Z</time>
      </trkpt>
      <trkpt lat="47.789" lon="-3.38367">
        <ele>20.64</ele>
        <time>2020-07-10T11:05:42Z</time>
      </trkpt>
      <trkpt lat="47.78901" lon="-3.38363">
        <ele>20.75</ele>
        <time>2020-07-10T11:05:43Z</time>
      </trkpt>
      <trkpt lat="47.78902" lon="-3.38359">
        <ele>20.79</ele>
        <time>2020-07-10T11:05:44Z</time>
      </trkpt>
      <trkpt lat="47.78903" lon="-3.38356">
        <ele>20.79</ele>
        <time>2020-07-10T11:05:45Z</time>
      </trkpt>
      <trkpt lat="47.78903" lon="-3.38353">
        <ele>20.75</ele>
        <time>2020-07-10T11:05:46Z</time>
      </trkpt>
      <trkpt lat="47.78903" lon="-3.38354">
        <ele>20.79</ele>
        <time>2020-07-10T11:05:47Z</time>
      </trkpt>
      <trkpt lat="47.78903" lon="-3.38356">
        <ele>20.81</ele>
        <time>2020-07-10T11:05:48Z</time>
      </trkpt>
      <trkpt lat="47.78902" lon="-3.38359">
        <ele>20.79</ele>
        <time>2020-07-10T11:05:49Z</time>
      </trkpt>
      <trkpt lat="47.78901" lon="-3.38363">
        <ele>20.79</ele>
        <time>2020-07-10T11:05:50Z</time>
      </trkpt>
      <trkpt lat="47.78901" lon="-3.38368">
        <ele>20.86</ele>
        <time>2020-07-10T11:05:51Z</time>
      </trkpt>
      <trkpt lat="47.78901" lon="-3.38373">
        <ele>20.97</ele>
        <time>2020-07-10T11:05:52Z</time>
      </trkpt>
      <trkpt lat="47.78901" lon="-3.38378">
        <ele>21.07</ele>
        <time>2020-07-10T11:05:53Z</time>
      </trkpt>
      <trkpt lat="47.78901" lon="-3.38383">
        <ele>21.18</ele>
        <time>2020-07-10T11:05:54Z</time>
      </trkpt>
      <trkpt lat="47.78902" lon="-3.38388">
        <ele>21.37</ele>
        <time>2020-07-10T11:05:55Z</time>
      </trkpt>
      <trkpt lat="47.78904" lon="-3.38393">
        <ele>21.58</ele>
        <time>2020-07-10T11:05:56Z</time>
      </trkpt>
      <trkpt lat="47.78906" lon="-3.38397">
        <ele>21.77</ele>
        <time>2020-07-10T11:05:57Z</time>
      </trkpt>
      <trkpt lat="47.78908" lon="-3.384">
        <ele>22.01</ele>
        <time>2020-07-10T11:05:58Z</time>
      </trkpt>
      <trkpt lat="47.78912" lon="-3.38403">
        <ele>22.33</ele>
        <time>2020-07-10T11:05:59Z</time>
      </trkpt>
      <trkpt lat="47.78915" lon="-3.38406">
        <ele>22.66</ele>
        <time>2020-07-10T11:06:00Z</time>
      </trkpt>
      <trkpt lat="47.78917" lon="-3.38408">
        <ele>22.93</ele>
        <time>2020-07-10T11:06:01Z</time>
      </trkpt>
      <trkpt lat="47.7892" lon="-3.38411">
        <ele>23.15</ele>
        <time>2020-07-10T11:06:02Z</time>
      </trkpt>
      <trkpt lat="47.78923" lon="-3.38413">
        <ele>23.36</ele>
        <time>2020-07-10T11:06:03Z</time>
      </trkpt>
      <trkpt lat="47.78925" lon="-3.38416">
        <ele>23.53</ele>
        <time>2020-07-10T11:06:04Z</time>
      </trkpt>
      <trkpt lat="47.78928" lon="-3.38418">
        <ele>23.74</ele>
        <time>2020-07-10T11:06:05Z</time>
      </trkpt>
      <trkpt lat="47.78931" lon="-3.3842">
        <ele>23.97</ele>
        <time>2020-07-10T11:06:06Z</time>
      </trkpt>
      <trkpt lat="47.78933" lon="-3.38423">
        <ele>24.21</ele>
        <time>2020-07-10T11:06:07Z</time>
      </trkpt>
      <trkpt lat="47.78936" lon="-3.38425">
        <ele>24.48</ele>
        <time>2020-07-10T11:06:08Z</time>
      </trkpt>
      <trkpt lat="47.78939" lon="-3.38427">
        <ele>24.77</ele>
        <time>2020-07-10T11:06:09Z</time>
      </trkpt>
      <trkpt lat="47.78942" lon="-3.38429">
        <ele>25.07</ele>
        <time>2020-07-10T11:06:10Z</time>
      </trkpt>
      <trkpt lat="47.78945" lon="-3.38432">
        <ele>25.42</ele>
        <time>2020-07-10T11:06:11Z</time>
      </trkpt>
      <trkpt lat="47.78947" lon="-3.38434">
        <ele>25.82</ele>
        <time>2020-07-10T11:06:12Z</time>
      </trkpt>
      <trkpt lat="47.7895" lon="-3.38436">
        <ele>26.2</ele>
        <time>2020-07-10T11:06:13Z</time>
      </trkpt>
      <trkpt lat="47.78953" lon="-3.38438">
        <ele>26.59</ele>
        <time>2020-07-10T11:06:14Z</time>
      </trkpt>
      <trkpt lat="47.78956" lon="-3.38439">
        <ele>26.97</ele>
        <time>2020-07-10T11:06:15Z</time>
      </trkpt>
      <trkpt lat="47.78959" lon="-3.38441">
        <ele>27.34</ele>
        <time>2020-07-10T11:06:16Z</time>
      </trkpt>
      <trkpt lat="47.78962" lon="-3.38443">
        <ele>27.7</ele>
        <time>2020-07-10T11:06:17Z</time>
      </trkpt>
      <trkpt lat="47.78965" lon="-3.38445">
        <ele>28.04</ele>
        <time>2020-07-10T11:06:18Z</time>
      </trkpt>
      <trkpt lat="47.78968" lon="-3.38447">
        <ele>28.38</ele>
        <time>2020-07-10T11:06:19Z</time>
      </trkpt>
      <trkpt lat="47.78971" lon="-3.3845">
        <ele>28.71</ele>
        <time>2020-07-10T11:06:20Z</time>
      </trkpt>
      <trkpt lat="47.78974" lon="-3.38452">
        <ele>29.05</ele>
        <time>2020-07-10T11:06:21Z</time>
      </trkpt>
      <trkpt lat="47.78977" lon="-3.38455">
        <ele>29.39</ele>
        <time>2020-07-10T11:06:22Z</time>
      </trkpt>
      <trkpt lat="47.7898" lon="-3.38457">
        <ele>29.72</ele>
        <time>2020-07-10T11:06:23Z</time>
      </trkpt>
      <trkpt lat="47.78983" lon="-3.3846">
        <ele>30.06</ele>
        <time>2020-07-10T11:06:24Z</time>
      </trkpt>
      <trkpt lat="47.78986" lon="-3.38462">
        <ele>30.38</ele>
        <time>2020-07-10T11:06:25Z</time>
      </trkpt>
      <trkpt lat="47.7899" lon="-3.38463">
        <ele>30.73</ele>
        <time>2020-07-10T11:06:26Z</time>
      </trkpt>
      <trkpt lat="47.78993" lon="-3.38465">
        <ele>31.09</ele>
        <time>2020-07-10T11:06:27Z</time>
      </trkpt>
      <trkpt lat="47.78996" lon="-3.38468">
        <ele>31.4</ele>
        <time>2020-07-10T11:06:28Z</time>
      </trkpt>
      <trkpt lat="47.78999" lon="-3.38469">
        <ele>31.71</ele>
        <time>2020-07-10T11:06:29Z</time>
      </trkpt>
      <trkpt lat="47.79002" lon="-3.3847">
        <ele>31.95</ele>
        <time>2020-07-10T11:06:30Z</time>
      </trkpt>
      <trkpt lat="47.79005" lon="-3.3847">
        <ele>32.11</ele>
        <time>2020-07-10T11:06:31Z</time>
      </trkpt>
      <trkpt lat="47.79008" lon="-3.38469">
        <ele>32.26</ele>
        <time>2020-07-10T11:06:32Z</time>
      </trkpt>
      <trkpt lat="47.79011" lon="-3.38467">
        <ele>32.4</ele>
        <time>2020-07-10T11:06:33Z</time>
      </trkpt>
      <trkpt lat="47.79014" lon="-3.38465">
        <ele>32.55</ele>
        <time>2020-07-10T11:06:34Z</time>
      </trkpt>
      <trkpt lat="47.79016" lon="-3.38463">
        <ele>32.72</ele>
        <time>2020-07-10T11:06:35Z</time>
      </trkpt>
      <trkpt lat="47.79019" lon="-3.38461">
        <ele>32.9</ele>
        <time>2020-07-10T11:06:36Z</time>
      </trkpt>
      <trkpt lat="47.79022" lon="-3.38459">
        <ele>33.1</ele>
        <time>2020-07-10T11:06:37Z</time>
      </trkpt>
      <trkpt lat="47.79025" lon="-3.38458">
        <ele>33.3</ele>
        <time>2020-07-10T11:06:38Z</time>
      </trkpt>
      <trkpt lat="47.79029" lon="-3.38456">
        <ele>33.53</ele>
        <time>2020-07-10T11:06:39Z</time>
      </trkpt>
      <trkpt lat="47.79032" lon="-3.38455">
        <ele>33.77</ele>
        <time>2020-07-10T11:06:40Z</time>
      </trkpt>
      <trkpt lat="47.79035" lon="-3.38453">
        <ele>34.03</ele>
        <time>2020-07-10T11:06:41Z</time>
      </trkpt>
      <trkpt lat="47.79039" lon="-3.38452">
        <ele>34.29</ele>
        <time>2020-07-10T11:06:42Z</time>
      </trkpt>
      <trkpt lat="47.79042" lon="-3.38451">
        <ele>34.53</ele>
        <time>2020-07-10T11:06:43Z</time>
      </trkpt>
      <trkpt lat="47.79045" lon="-3.38451">
        <ele>34.75</ele>
        <time>2020-07-10T11:06:44Z</time>
      </trkpt>
      <trkpt lat="47.79048" lon="-3.38451">
        <ele>34.95</ele>
        <time>2020-07-10T11:06:45Z</time>
      </trkpt>
      <trkpt lat="47.79051" lon="-3.38452">
        <ele>35.11</ele>
        <time>2020-07-10T11:06:46Z</time>
      </trkpt>
      <trkpt lat="47.79054" lon="-3.38454">
        <ele>35.22</ele>
        <time>2020-07-10T11:06:47Z</time>
      </trkpt>
      <trkpt lat="47.79057" lon="-3.38455">
        <ele>35.32</ele>
        <time>2020-07-10T11:06:48Z</time>
      </trkpt>
      <trkpt lat="47.7906" lon="-3.38456">
        <ele>35.45</ele>
        <time>2020-07-10T11:06:49Z</time>
      </trkpt>
      <trkpt lat="47.79063" lon="-3.38457">
        <ele>35.6</ele>
        <time>2020-07-10T11:06:50Z</time>
      </trkpt>
      <trkpt lat="47.79066" lon="-3.38457">
        <ele>35.77</ele>
        <time>2020-07-10T11:06:51Z</time>
      </trkpt>
      <trkpt lat="47.79069" lon="-3.38458">
        <ele>35.96</ele>
        <time>2020-07-10T11:06:52Z</time>
      </trkpt>
      <trkpt lat="47.79073" lon="-3.38458">
        <ele>36.17</ele>
        <time>2020-07-10T11:06:53Z</time>
      </trkpt>
      <trkpt lat="47.79076" lon="-3.38459">
        <ele>36.37</ele>
        <time>2020-07-10T11:06:54Z</time>
      </trkpt>
      <trkpt lat="47.7908" lon="-3.3846">
        <ele>36.56</ele>
        <time>2020-07-10T11:06:55Z</time>
      </trkpt>
      <trkpt lat="47.79083" lon="-3.38461">
        <ele>36.77</ele>
        <time>2020-07-10T11:06:56Z</time>
      </trkpt>
      <trkpt lat="47.79087" lon="-3.38461">
        <ele>36.95</ele>
        <time>2020-07-10T11:06:57Z</time>
      </trkpt>
      <trkpt lat="47.79091" lon="-3.38462">
        <ele>37.13</ele>
        <time>2020-07-10T11:06:58Z</time>
      </trkpt>
      <trkpt lat="47.79095" lon="-3.38462">
        <ele>37.32</ele>
        <time>2020-07-10T11:06:59Z</time>
      </trkpt>
      <trkpt lat="47.79098" lon="-3.38463">
        <ele>37.49</ele>
        <time>2020-07-10T11:07:00Z</time>
      </trkpt>
      <trkpt lat="47.79102" lon="-3.38463">
        <ele>37.69</ele>
        <time>2020-07-10T11:07:01Z</time>
      </trkpt>
      <trkpt lat="47.79105" lon="-3.38463">
        <ele>37.87</ele>
        <time>2020-07-10T11:07:02Z</time>
      </trkpt>
      <trkpt lat="47.79108" lon="-3.38464">
        <ele>38.04</ele>
        <time>2020-07-10T11:07:03Z</time>
      </trkpt>
      <trkpt lat="47.79112" lon="-3.38464">
        <ele>38.22</ele>
        <time>2020-07-10T11:07:04Z</time>
      </trkpt>
      <trkpt lat="47.79115" lon="-3.38463">
        <ele>38.28</ele>
        <time>2020-07-10T11:07:05Z</time>
      </trkpt>
      <trkpt lat="47.79119" lon="-3.38462">
        <ele>38.33</ele>
        <time>2020-07-10T11:07:06Z</time>
      </trkpt>
      <trkpt lat="47.79124" lon="-3.38461">
        <ele>38.37</ele>
        <time>2020-07-10T11:07:07Z</time>
      </trkpt>
      <trkpt lat="47.79128" lon="-3.38461">
        <ele>38.41</ele>
        <time>2020-07-10T11:07:08Z</time>
      </trkpt>
      <trkpt lat="47.79132" lon="-3.3846">
        <ele>38.43</ele>
        <time>2020-07-10T11:07:09Z</time>
      </trkpt>
      <trkpt lat="47.79137" lon="-3.38459">
        <ele>38.47</ele>
        <time>2020-07-10T11:07:10Z</time>
      </trkpt>
      <trkpt lat="47.79141" lon="-3.38457">
        <ele>38.48</ele>
        <time>2020-07-10T11:07:11Z</time>
      </trkpt>
      <trkpt lat="47.79145" lon="-3.38456">
        <ele>38.4</ele>
        <time>2020-07-10T11:07:12Z</time>
      </trkpt>
      <trkpt lat="47.79149" lon="-3.38455">
        <ele>38.3</ele>
        <time>2020-07-10T11:07:13Z</time>
      </trkpt>
      <trkpt lat="47.79154" lon="-3.38455">
        <ele>38.15</ele>
        <time>2020-07-10T11:07:14Z</time>
      </trkpt>
      <trkpt lat="47.79158" lon="-3.38455">
        <ele>38.01</ele>
        <time>2020-07-10T11:07:15Z</time>
      </trkpt>
      <trkpt lat="47.79162" lon="-3.38455">
        <ele>37.87</ele>
        <time>2020-07-10T11:07:16Z</time>
      </trkpt>
      <trkpt lat="47.79166" lon="-3.38454">
        <ele>37.73</ele>
        <time>2020-07-10T11:07:17Z</time>
      </trkpt>
      <trkpt lat="47.79171" lon="-3.38454">
        <ele>37.54</ele>
        <time>2020-07-10T11:07:18Z</time>
      </trkpt>
      <trkpt lat="47.79175" lon="-3.38454">
        <ele>37.35</ele>
        <time>2020-07-10T11:07:19Z</time>
      </trkpt>
      <trkpt lat="47.7918" lon="-3.38453">
        <ele>37.14</ele>
        <time>2020-07-10T11:07:20Z</time>
      </trkpt>
      <trkpt lat="47.79186" lon="-3.38453">
        <ele>36.91</ele>
        <time>2020-07-10T11:07:21Z</time>
      </trkpt>
      <trkpt lat="47.79191" lon="-3.38452">
        <ele>36.68</ele>
        <time>2020-07-10T11:07:22Z</time>
      </trkpt>
      <trkpt lat="47.79197" lon="-3.38451">
        <ele>36.35</ele>
        <time>2020-07-10T11:07:23Z</time>
      </trkpt>
      <trkpt lat="47.79203" lon="-3.3845">
        <ele>35.9</ele>
        <time>2020-07-10T11:07:24Z</time>
      </trkpt>
      <trkpt lat="47.79207" lon="-3.38449">
        <ele>35.5</ele>
        <time>2020-07-10T11:07:25Z</time>
      </trkpt>
      <trkpt lat="47.7921" lon="-3.38448">
        <ele>35.26</ele>
        <time>2020-07-10T11:07:26Z</time>
      </trkpt>
      <trkpt lat="47.79211" lon="-3.38446">
        <ele>35.13</ele>
        <time>2020-07-10T11:07:27Z</time>
      </trkpt>
      <trkpt lat="47.79212" lon="-3.38445">
        <ele>35.08</ele>
        <time>2020-07-10T11:07:28Z</time>
      </trkpt>
      <trkpt lat="47.79212" lon="-3.38444">
        <ele>35.08</ele>
        <time>2020-07-10T11:07:29Z</time>
      </trkpt>
      <trkpt lat="47.79212" lon="-3.38444">
        <ele>35.1</ele>
        <time>2020-07-10T11:07:30Z</time>
      </trkpt>
      <trkpt lat="47.79212" lon="-3.38444">
        <ele>35.1</ele>
        <time>2020-07-10T11:07:31Z</time>
      </trkpt>
      <trkpt lat="47.79212" lon="-3.38444">
        <ele>35.1</ele>
        <time>2020-07-10T11:07:32Z</time>
      </trkpt>
      <trkpt lat="47.79212" lon="-3.38444">
        <ele>35.1</ele>
        <time>2020-07-10T11:07:33Z</time>
      </trkpt>
      <trkpt lat="47.79212" lon="-3.38444">
        <ele>35.1</ele>
        <time>2020-07-10T11:07:34Z</time>
      </trkpt>
      <trkpt lat="47.79212" lon="-3.38444">
        <ele>35.1</ele>
        <time>2020-07-10T11:07:35Z</time>
      </trkpt>
      <trkpt lat="47.79212" lon="-3.38444">
        <ele>35.1</ele>
        <time>2020-07-10T11:07:36Z</time>
      </trkpt>
      <trkpt lat="47.79212" lon="-3.38444">
        <ele>35.1</ele>
        <time>2020-07-10T11:07:37Z</time>
      </trkpt>
      <trkpt lat="47.79216" lon="-3.38445">
        <ele>34.8</ele>
        <time>2020-07-10T11:07:38Z</time>
      </trkpt>
      <trkpt lat="47.79218" lon="-3.38445">
        <ele>34.55</ele>
        <time>2020-07-10T11:07:39Z</time>
      </trkpt>
      <trkpt lat="47.79221" lon="-3.38445">
        <ele>34.25</ele>
        <time>2020-07-10T11:07:40Z</time>
      </trkpt>
      <trkpt lat="47.79224" lon="-3.38445">
        <ele>33.89</ele>
        <time>2020-07-10T11:07:41Z</time>
      </trkpt>
      <trkpt lat="47.79228" lon="-3.38446">
        <ele>33.48</ele>
        <time>2020-07-10T11:07:42Z</time>
      </trkpt>
      <trkpt lat="47.79232" lon="-3.38446">
        <ele>33.05</ele>
        <time>2020-07-10T11:07:43Z</time>
      </trkpt>
      <trkpt lat="47.79236" lon="-3.38446">
        <ele>32.65</ele>
        <time>2020-07-10T11:07:44Z</time>
      </trkpt>
      <trkpt lat="47.7924" lon="-3.38447">
        <ele>32.23</ele>
        <time>2020-07-10T11:07:45Z</time>
      </trkpt>
      <trkpt lat="47.79243" lon="-3.38447">
        <ele>31.83</ele>
        <time>2020-07-10T11:07:46Z</time>
      </trkpt>
      <trkpt lat="47.79247" lon="-3.38448">
        <ele>31.43</ele>
        <time>2020-07-10T11:07:47Z</time>
      </trkpt>
      <trkpt lat="47.79252" lon="-3.38448">
        <ele>31.1</ele>
        <time>2020-07-10T11:07:48Z</time>
      </trkpt>
      <trkpt lat="47.79256" lon="-3.38448">
        <ele>30.91</ele>
        <time>2020-07-10T11:07:49Z</time>
      </trkpt>
      <trkpt lat="47.79259" lon="-3.3845">
        <ele>30.78</ele>
        <time>2020-07-10T11:07:50Z</time>
      </trkpt>
      <trkpt lat="47.79263" lon="-3.38451">
        <ele>30.69</ele>
        <time>2020-07-10T11:07:51Z</time>
      </trkpt>
      <trkpt lat="47.79266" lon="-3.38452">
        <ele>30.61</ele>
        <time>2020-07-10T11:07:52Z</time>
      </trkpt>
      <trkpt lat="47.7927" lon="-3.38453">
        <ele>30.52</ele>
        <time>2020-07-10T11:07:53Z</time>
      </trkpt>
      <trkpt lat="47.79275" lon="-3.38453">
        <ele>30.43</ele>
        <time>2020-07-10T11:07:54Z</time>
      </trkpt>
      <trkpt lat="47.79279" lon="-3.38453">
        <ele>30.35</ele>
        <time>2020-07-10T11:07:55Z</time>
      </trkpt>
      <trkpt lat="47.79283" lon="-3.38454">
        <ele>30.35</ele>
        <time>2020-07-10T11:07:56Z</time>
      </trkpt>
      <trkpt lat="47.79287" lon="-3.38455">
        <ele>30.37</ele>
        <time>2020-07-10T11:07:57Z</time>
      </trkpt>
      <trkpt lat="47.79291" lon="-3.38456">
        <ele>30.4</ele>
        <time>2020-07-10T11:07:58Z</time>
      </trkpt>
      <trkpt lat="47.79295" lon="-3.38457">
        <ele>30.43</ele>
        <time>2020-07-10T11:07:59Z</time>
      </trkpt>
      <trkpt lat="47.79299" lon="-3.38458">
        <ele>30.46</ele>
        <time>2020-07-10T11:08:00Z</time>
      </trkpt>
      <trkpt lat="47.79302" lon="-3.38458">
        <ele>30.49</ele>
        <time>2020-07-10T11:08:01Z</time>
      </trkpt>
      <trkpt lat="47.79306" lon="-3.38459">
        <ele>30.52</ele>
        <time>2020-07-10T11:08:02Z</time>
      </trkpt>
      <trkpt lat="47.79309" lon="-3.3846">
        <ele>30.64</ele>
        <time>2020-07-10T11:08:03Z</time>
      </trkpt>
      <trkpt lat="47.79313" lon="-3.3846">
        <ele>30.78</ele>
        <time>2020-07-10T11:08:04Z</time>
      </trkpt>
      <trkpt lat="47.79317" lon="-3.3846">
        <ele>30.92</ele>
        <time>2020-07-10T11:08:05Z</time>
      </trkpt>
      <trkpt lat="47.79321" lon="-3.38459">
        <ele>31.04</ele>
        <time>2020-07-10T11:08:06Z</time>
      </trkpt>
      <trkpt lat="47.79324" lon="-3.38458">
        <ele>31.11</ele>
        <time>2020-07-10T11:08:07Z</time>
      </trkpt>
      <trkpt lat="47.79328" lon="-3.38456">
        <ele>31.2</ele>
        <time>2020-07-10T11:08:08Z</time>
      </trkpt>
      <trkpt lat="47.79332" lon="-3.38457">
        <ele>31.34</ele>
        <time>2020-07-10T11:08:09Z</time>
      </trkpt>
      <trkpt lat="47.79336" lon="-3.38457">
        <ele>31.41</ele>
        <time>2020-07-10T11:08:10Z</time>
      </trkpt>
      <trkpt lat="47.7934" lon="-3.38457">
        <ele>31.43</ele>
        <time>2020-07-10T11:08:11Z</time>
      </trkpt>
      <trkpt lat="47.79344" lon="-3.38458">
        <ele>31.46</ele>
        <time>2020-07-10T11:08:12Z</time>
      </trkpt>
      <trkpt lat="47.79349" lon="-3.38457">
        <ele>31.45</ele>
        <time>2020-07-10T11:08:13Z</time>
      </trkpt>
      <trkpt lat="47.79353" lon="-3.38456">
        <ele>31.43</ele>
        <time>2020-07-10T11:08:14Z</time>
      </trkpt>
      <trkpt lat="47.79358" lon="-3.38455">
        <ele>31.4</ele>
        <time>2020-07-10T11:08:15Z</time>
      </trkpt>
      <trkpt lat="47.79362" lon="-3.38455">
        <ele>31.34</ele>
        <time>2020-07-10T11:08:16Z</time>
      </trkpt>
      <trkpt lat="47.79366" lon="-3.38453">
        <ele>31.11</ele>
        <time>2020-07-10T11:08:17Z</time>
      </trkpt>
      <trkpt lat="47.7937" lon="-3.38452">
        <ele>30.83</ele>
        <time>2020-07-10T11:08:18Z</time>
      </trkpt>
      <trkpt lat="47.79374" lon="-3.38451">
        <ele>30.53</ele>
        <time>2020-07-10T11:08:19Z</time>
      </trkpt>
      <trkpt lat="47.79377" lon="-3.38451">
        <ele>30.29</ele>
        <time>2020-07-10T11:08:20Z</time>
      </trkpt>
      <trkpt lat="47.7938" lon="-3.3845">
        <ele>30.08</ele>
        <time>2020-07-10T11:08:21Z</time>
      </trkpt>
      <trkpt lat="47.79383" lon="-3.3845">
        <ele>29.91</ele>
        <time>2020-07-10T11:08:22Z</time>
      </trkpt>
      <trkpt lat="47.79385" lon="-3.38453">
        <ele>29.85</ele>
        <time>2020-07-10T11:08:23Z</time>
      </trkpt>
      <trkpt lat="47.79387" lon="-3.38456">
        <ele>29.94</ele>
        <time>2020-07-10T11:08:24Z</time>
      </trkpt>
      <trkpt lat="47.79389" lon="-3.38461">
        <ele>30.09</ele>
        <time>2020-07-10T11:08:25Z</time>
      </trkpt>
      <trkpt lat="47.79392" lon="-3.38466">
        <ele>30.22</ele>
        <time>2020-07-10T11:08:26Z</time>
      </trkpt>
      <trkpt lat="47.79394" lon="-3.3847">
        <ele>30.37</ele>
        <time>2020-07-10T11:08:27Z</time>
      </trkpt>
      <trkpt lat="47.79396" lon="-3.38472">
        <ele>30.47</ele>
        <time>2020-07-10T11:08:28Z</time>
      </trkpt>
      <trkpt lat="47.79399" lon="-3.38475">
        <ele>30.43</ele>
        <time>2020-07-10T11:08:29Z</time>
      </trkpt>
      <trkpt lat="47.794" lon="-3.38474">
        <ele>30.36</ele>
        <time>2020-07-10T11:08:30Z</time>
      </trkpt>
      <trkpt lat="47.794" lon="-3.38474">
        <ele>30.33</ele>
        <time>2020-07-10T11:08:31Z</time>
      </trkpt>
      <trkpt lat="47.794" lon="-3.38474">
        <ele>30.32</ele>
        <time>2020-07-10T11:08:32Z</time>
      </trkpt>
      <trkpt lat="47.794" lon="-3.38474">
        <ele>30.31</ele>
        <time>2020-07-10T11:08:33Z</time>
      </trkpt>
      <trkpt lat="47.794" lon="-3.38474">
        <ele>30.31</ele>
        <time>2020-07-10T11:08:34Z</time>
      </trkpt>
      <trkpt lat="47.794" lon="-3.38474">
        <ele>30.31</ele>
        <time>2020-07-10T11:08:35Z</time>
      </trkpt>
      <trkpt lat="47.794" lon="-3.38474">
        <ele>30.31</ele>
        <time>2020-07-10T11:08:36Z</time>
      </trkpt>
      <trkpt lat="47.794" lon="-3.38474">
        <ele>30.31</ele>
        <time>2020-07-10T11:08:37Z</time>
      </trkpt>
      <trkpt lat="47.794" lon="-3.38474">
        <ele>30.31</ele>
        <time>2020-07-10T11:08:38Z</time>
      </trkpt>
      <trkpt lat="47.79401" lon="-3.38479">
        <ele>30.42</ele>
        <time>2020-07-10T11:08:39Z</time>
      </trkpt>
      <trkpt lat="47.79403" lon="-3.38481">
        <ele>30.47</ele>
        <time>2020-07-10T11:08:40Z</time>
      </trkpt>
      <trkpt lat="47.79404" lon="-3.38484">
        <ele>30.53</ele>
        <time>2020-07-10T11:08:41Z</time>
      </trkpt>
      <trkpt lat="47.79406" lon="-3.38489">
        <ele>30.69</ele>
        <time>2020-07-10T11:08:42Z</time>
      </trkpt>
      <trkpt lat="47.79408" lon="-3.38495">
        <ele>30.91</ele>
        <time>2020-07-10T11:08:43Z</time>
      </trkpt>
      <trkpt lat="47.79409" lon="-3.385">
        <ele>31.16</ele>
        <time>2020-07-10T11:08:44Z</time>
      </trkpt>
      <trkpt lat="47.7941" lon="-3.38505">
        <ele>31.35</ele>
        <time>2020-07-10T11:08:45Z</time>
      </trkpt>
      <trkpt lat="47.79411" lon="-3.3851">
        <ele>31.48</ele>
        <time>2020-07-10T11:08:46Z</time>
      </trkpt>
      <trkpt lat="47.79413" lon="-3.38514">
        <ele>31.58</ele>
        <time>2020-07-10T11:08:47Z</time>
      </trkpt>
      <trkpt lat="47.79414" lon="-3.38518">
        <ele>31.69</ele>
        <time>2020-07-10T11:08:48Z</time>
      </trkpt>
      <trkpt lat="47.79416" lon="-3.38522">
        <ele>31.78</ele>
        <time>2020-07-10T11:08:49Z</time>
      </trkpt>
      <trkpt lat="47.79417" lon="-3.38525">
        <ele>31.87</ele>
        <time>2020-07-10T11:08:50Z</time>
      </trkpt>
      <trkpt lat="47.79419" lon="-3.3853">
        <ele>32.05</ele>
        <time>2020-07-10T11:08:51Z</time>
      </trkpt>
      <trkpt lat="47.79421" lon="-3.38534">
        <ele>32.33</ele>
        <time>2020-07-10T11:08:52Z</time>
      </trkpt>
      <trkpt lat="47.79422" lon="-3.38537">
        <ele>32.61</ele>
        <time>2020-07-10T11:08:53Z</time>
      </trkpt>
      <trkpt lat="47.79423" lon="-3.3854">
        <ele>32.86</ele>
        <time>2020-07-10T11:08:54Z</time>
      </trkpt>
      <trkpt lat="47.79425" lon="-3.38543">
        <ele>33.12</ele>
        <time>2020-07-10T11:08:55Z</time>
      </trkpt>
      <trkpt lat="47.79427" lon="-3.38546">
        <ele>33.4</ele>
        <time>2020-07-10T11:08:56Z</time>
      </trkpt>
      <trkpt lat="47.79427" lon="-3.38549">
        <ele>33.68</ele>
        <time>2020-07-10T11:08:57Z</time>
      </trkpt>
      <trkpt lat="47.79428" lon="-3.38552">
        <ele>33.97</ele>
        <time>2020-07-10T11:08:58Z</time>
      </trkpt>
      <trkpt lat="47.7943" lon="-3.38554">
        <ele>34.23</ele>
        <time>2020-07-10T11:08:59Z</time>
      </trkpt>
      <trkpt lat="47.79431" lon="-3.38557">
        <ele>34.47</ele>
        <time>2020-07-10T11:09:00Z</time>
      </trkpt>
      <trkpt lat="47.79431" lon="-3.38557">
        <ele>34.59</ele>
        <time>2020-07-10T11:09:01Z</time>
      </trkpt>
      <trkpt lat="47.79432" lon="-3.38558">
        <ele>34.63</ele>
        <time>2020-07-10T11:09:02Z</time>
      </trkpt>
      <trkpt lat="47.79431" lon="-3.38558">
        <ele>34.64</ele>
        <time>2020-07-10T11:09:03Z</time>
      </trkpt>
      <trkpt lat="47.79431" lon="-3.38558">
        <ele>34.65</ele>
        <time>2020-07-10T11:09:04Z</time>
      </trkpt>
      <trkpt lat="47.79431" lon="-3.38558">
        <ele>34.65</ele>
        <time>2020-07-10T11:09:05Z</time>
      </trkpt>
      <trkpt lat="47.79431" lon="-3.38558">
        <ele>34.65</ele>
        <time>2020-07-10T11:09:06Z</time>
      </trkpt>
      <trkpt lat="47.79431" lon="-3.38558">
        <ele>34.65</ele>
        <time>2020-07-10T11:09:07Z</time>
      </trkpt>
      <trkpt lat="47.79428" lon="-3.38551">
        <ele>34.19</ele>
        <time>2020-07-10T11:09:08Z</time>
      </trkpt>
      <trkpt lat="47.79426" lon="-3.38546">
        <ele>33.75</ele>
        <time>2020-07-10T11:09:09Z</time>
      </trkpt>
      <trkpt lat="47.79425" lon="-3.38542">
        <ele>33.35</ele>
        <time>2020-07-10T11:09:10Z</time>
      </trkpt>
      <trkpt lat="47.79423" lon="-3.38538">
        <ele>32.95</ele>
        <time>2020-07-10T11:09:11Z</time>
      </trkpt>
      <trkpt lat="47.7942" lon="-3.38531">
        <ele>32.48</ele>
        <time>2020-07-10T11:09:12Z</time>
      </trkpt>
      <trkpt lat="47.79417" lon="-3.38525">
        <ele>32.07</ele>
        <time>2020-07-10T11:09:13Z</time>
      </trkpt>
      <trkpt lat="47.79414" lon="-3.38518">
        <ele>31.82</ele>
        <time>2020-07-10T11:09:14Z</time>
      </trkpt>
      <trkpt lat="47.79411" lon="-3.3851">
        <ele>31.62</ele>
        <time>2020-07-10T11:09:15Z</time>
      </trkpt>
      <trkpt lat="47.79409" lon="-3.38502">
        <ele>31.43</ele>
        <time>2020-07-10T11:09:16Z</time>
      </trkpt>
      <trkpt lat="47.79407" lon="-3.38495">
        <ele>31.17</ele>
        <time>2020-07-10T11:09:17Z</time>
      </trkpt>
      <trkpt lat="47.79405" lon="-3.38489">
        <ele>30.91</ele>
        <time>2020-07-10T11:09:18Z</time>
      </trkpt>
      <trkpt lat="47.79405" lon="-3.38484">
        <ele>30.63</ele>
        <time>2020-07-10T11:09:19Z</time>
      </trkpt>
      <trkpt lat="47.79406" lon="-3.38479">
        <ele>30.32</ele>
        <time>2020-07-10T11:09:20Z</time>
      </trkpt>
      <trkpt lat="47.79408" lon="-3.38475">
        <ele>29.96</ele>
        <time>2020-07-10T11:09:21Z</time>
      </trkpt>
      <trkpt lat="47.79411" lon="-3.38472">
        <ele>29.54</ele>
        <time>2020-07-10T11:09:22Z</time>
      </trkpt>
      <trkpt lat="47.79414" lon="-3.38469">
        <ele>28.95</ele>
        <time>2020-07-10T11:09:23Z</time>
      </trkpt>
      <trkpt lat="47.79418" lon="-3.38466">
        <ele>28.23</ele>
        <time>2020-07-10T11:09:24Z</time>
      </trkpt>
      <trkpt lat="47.79421" lon="-3.38465">
        <ele>27.3</ele>
        <time>2020-07-10T11:09:25Z</time>
      </trkpt>
      <trkpt lat="47.79425" lon="-3.38462">
        <ele>26.25</ele>
        <time>2020-07-10T11:09:26Z</time>
      </trkpt>
      <trkpt lat="47.79428" lon="-3.3846">
        <ele>25.08</ele>
        <time>2020-07-10T11:09:27Z</time>
      </trkpt>
      <trkpt lat="47.79432" lon="-3.38458">
        <ele>23.77</ele>
        <time>2020-07-10T11:09:28Z</time>
      </trkpt>
      <trkpt lat="47.79436" lon="-3.38456">
        <ele>22.4</ele>
        <time>2020-07-10T11:09:29Z</time>
      </trkpt>
      <trkpt lat="47.79441" lon="-3.38455">
        <ele>21.05</ele>
        <time>2020-07-10T11:09:30Z</time>
      </trkpt>
      <trkpt lat="47.79446" lon="-3.38454">
        <ele>19.49</ele>
        <time>2020-07-10T11:09:31Z</time>
      </trkpt>
      <trkpt lat="47.79452" lon="-3.38455">
        <ele>17.5</ele>
        <time>2020-07-10T11:09:32Z</time>
      </trkpt>
      <trkpt lat="47.79458" lon="-3.38458">
        <ele>15.69</ele>
        <time>2020-07-10T11:09:33Z</time>
      </trkpt>
      <trkpt lat="47.79464" lon="-3.38461">
        <ele>13.76</ele>
        <time>2020-07-10T11:09:34Z</time>
      </trkpt>
      <trkpt lat="47.7947" lon="-3.38464">
        <ele>12.04</ele>
        <time>2020-07-10T11:09:35Z</time>
      </trkpt>
      <trkpt lat="47.79475" lon="-3.38468">
        <ele>10.72</ele>
        <time>2020-07-10T11:09:36Z</time>
      </trkpt>
      <trkpt lat="47.7948" lon="-3.38471">
        <ele>9.74</ele>
        <time>2020-07-10T11:09:37Z</time>
      </trkpt>
      <trkpt lat="47.79484" lon="-3.38475">
        <ele>8.96</ele>
        <time>2020-07-10T11:09:38Z</time>
      </trkpt>
      <trkpt lat="47.79488" lon="-3.38479">
        <ele>8.18</ele>
        <time>2020-07-10T11:09:39Z</time>
      </trkpt>
      <trkpt lat="47.79492" lon="-3.38484">
        <ele>7.44</ele>
        <time>2020-07-10T11:09:40Z</time>
      </trkpt>
      <trkpt lat="47.79496" lon="-3.38489">
        <ele>6.63</ele>
        <time>2020-07-10T11:09:41Z</time>
      </trkpt>
      <trkpt lat="47.79499" lon="-3.38493">
        <ele>5.84</ele>
        <time>2020-07-10T11:09:42Z</time>
      </trkpt>
      <trkpt lat="47.79503" lon="-3.38497">
        <ele>5.49</ele>
        <time>2020-07-10T11:09:43Z</time>
      </trkpt>
      <trkpt lat="47.79507" lon="-3.38502">
        <ele>5.5</ele>
        <time>2020-07-10T11:09:44Z</time>
      </trkpt>
      <trkpt lat="47.7951" lon="-3.38507">
        <ele>5.92</ele>
        <time>2020-07-10T11:09:45Z</time>
      </trkpt>
      <trkpt lat="47.79513" lon="-3.38511">
        <ele>6.44</ele>
        <time>2020-07-10T11:09:46Z</time>
      </trkpt>
      <trkpt lat="47.79516" lon="-3.38516">
        <ele>6.87</ele>
        <time>2020-07-10T11:09:47Z</time>
      </trkpt>
      <trkpt lat="47.79519" lon="-3.3852">
        <ele>7.01</ele>
        <time>2020-07-10T11:09:48Z</time>
      </trkpt>
      <trkpt lat="47.79522" lon="-3.38522">
        <ele>6.77</ele>
        <time>2020-07-10T11:09:49Z</time>
      </trkpt>
      <trkpt lat="47.79526" lon="-3.38526">
        <ele>6.4</ele>
        <time>2020-07-10T11:09:50Z</time>
      </trkpt>
      <trkpt lat="47.79529" lon="-3.3853">
        <ele>6.54</ele>
        <time>2020-07-10T11:09:51Z</time>
      </trkpt>
      <trkpt lat="47.79533" lon="-3.38534">
        <ele>7.09</ele>
        <time>2020-07-10T11:09:52Z</time>
      </trkpt>
      <trkpt lat="47.79537" lon="-3.38538">
        <ele>7.7</ele>
        <time>2020-07-10T11:09:53Z</time>
      </trkpt>
      <trkpt lat="47.79541" lon="-3.38544">
        <ele>8.21</ele>
        <time>2020-07-10T11:09:54Z</time>
      </trkpt>
      <trkpt lat="47.79544" lon="-3.38549">
        <ele>8.48</ele>
        <time>2020-07-10T11:09:55Z</time>
      </trkpt>
      <trkpt lat="47.79547" lon="-3.38554">
        <ele>8.57</ele>
        <time>2020-07-10T11:09:56Z</time>
      </trkpt>
      <trkpt lat="47.79551" lon="-3.38559">
        <ele>8.72</ele>
        <time>2020-07-10T11:09:57Z</time>
      </trkpt>
      <trkpt lat="47.79554" lon="-3.38564">
        <ele>8.93</ele>
        <time>2020-07-10T11:09:58Z</time>
      </trkpt>
      <trkpt lat="47.79556" lon="-3.38569">
        <ele>9.41</ele>
        <time>2020-07-10T11:09:59Z</time>
      </trkpt>
      <trkpt lat="47.79561" lon="-3.38574">
        <ele>9.67</ele>
        <time>2020-07-10T11:10:00Z</time>
      </trkpt>
      <trkpt lat="47.79563" lon="-3.38579">
        <ele>10.05</ele>
        <time>2020-07-10T11:10:01Z</time>
      </trkpt>
      <trkpt lat="47.79566" lon="-3.38584">
        <ele>10.44</ele>
        <time>2020-07-10T11:10:02Z</time>
      </trkpt>
      <trkpt lat="47.79568" lon="-3.38589">
        <ele>11.23</ele>
        <time>2020-07-10T11:10:03Z</time>
      </trkpt>
      <trkpt lat="47.7957" lon="-3.38595">
        <ele>12</ele>
        <time>2020-07-10T11:10:04Z</time>
      </trkpt>
      <trkpt lat="47.79571" lon="-3.38601">
        <ele>13.29</ele>
        <time>2020-07-10T11:10:05Z</time>
      </trkpt>
      <trkpt lat="47.79573" lon="-3.38608">
        <ele>14.53</ele>
        <time>2020-07-10T11:10:06Z</time>
      </trkpt>
      <trkpt lat="47.79574" lon="-3.38615">
        <ele>15.21</ele>
        <time>2020-07-10T11:10:07Z</time>
      </trkpt>
      <trkpt lat="47.79577" lon="-3.38622">
        <ele>15.4</ele>
        <time>2020-07-10T11:10:08Z</time>
      </trkpt>
      <trkpt lat="47.79579" lon="-3.38628">
        <ele>15.21</ele>
        <time>2020-07-10T11:10:09Z</time>
      </trkpt>
      <trkpt lat="47.79583" lon="-3.38635">
        <ele>14.67</ele>
        <time>2020-07-10T11:10:10Z</time>
      </trkpt>
      <trkpt lat="47.79586" lon="-3.3864">
        <ele>14.22</ele>
        <time>2020-07-10T11:10:11Z</time>
      </trkpt>
      <trkpt lat="47.7959" lon="-3.38645">
        <ele>13.28</ele>
        <time>2020-07-10T11:10:12Z</time>
      </trkpt>
      <trkpt lat="47.79595" lon="-3.3865">
        <ele>12.04</ele>
        <time>2020-07-10T11:10:13Z</time>
      </trkpt>
      <trkpt lat="47.796" lon="-3.38654">
        <ele>10.73</ele>
        <time>2020-07-10T11:10:14Z</time>
      </trkpt>
      <trkpt lat="47.79604" lon="-3.38659">
        <ele>9.46</ele>
        <time>2020-07-10T11:10:15Z</time>
      </trkpt>
      <trkpt lat="47.79608" lon="-3.38664">
        <ele>8.26</ele>
        <time>2020-07-10T11:10:16Z</time>
      </trkpt>
      <trkpt lat="47.79613" lon="-3.3867">
        <ele>7.93</ele>
        <time>2020-07-10T11:10:17Z</time>
      </trkpt>
      <trkpt lat="47.79616" lon="-3.38676">
        <ele>8.52</ele>
        <time>2020-07-10T11:10:18Z</time>
      </trkpt>
      <trkpt lat="47.79617" lon="-3.38682">
        <ele>9.53</ele>
        <time>2020-07-10T11:10:19Z</time>
      </trkpt>
      <trkpt lat="47.79618" lon="-3.38687">
        <ele>10.88</ele>
        <time>2020-07-10T11:10:20Z</time>
      </trkpt>
      <trkpt lat="47.7962" lon="-3.38693">
        <ele>12.38</ele>
        <time>2020-07-10T11:10:21Z</time>
      </trkpt>
      <trkpt lat="47.79619" lon="-3.387">
        <ele>14.9</ele>
        <time>2020-07-10T11:10:22Z</time>
      </trkpt>
      <trkpt lat="47.79621" lon="-3.38705">
        <ele>16.86</ele>
        <time>2020-07-10T11:10:23Z</time>
      </trkpt>
      <trkpt lat="47.79624" lon="-3.38712">
        <ele>18.55</ele>
        <time>2020-07-10T11:10:24Z</time>
      </trkpt>
      <trkpt lat="47.79627" lon="-3.38718">
        <ele>20.27</ele>
        <time>2020-07-10T11:10:25Z</time>
      </trkpt>
      <trkpt lat="47.79629" lon="-3.38727">
        <ele>21.97</ele>
        <time>2020-07-10T11:10:26Z</time>
      </trkpt>
      <trkpt lat="47.7963" lon="-3.38734">
        <ele>23.08</ele>
        <time>2020-07-10T11:10:27Z</time>
      </trkpt>
      <trkpt lat="47.79632" lon="-3.38741">
        <ele>24.06</ele>
        <time>2020-07-10T11:10:28Z</time>
      </trkpt>
      <trkpt lat="47.79634" lon="-3.38748">
        <ele>25.04</ele>
        <time>2020-07-10T11:10:29Z</time>
      </trkpt>
      <trkpt lat="47.79635" lon="-3.38755">
        <ele>25.95</ele>
        <time>2020-07-10T11:10:30Z</time>
      </trkpt>
      <trkpt lat="47.79637" lon="-3.3876">
        <ele>26.53</ele>
        <time>2020-07-10T11:10:31Z</time>
      </trkpt>
      <trkpt lat="47.79639" lon="-3.38765">
        <ele>27</ele>
        <time>2020-07-10T11:10:32Z</time>
      </trkpt>
      <trkpt lat="47.79642" lon="-3.3877">
        <ele>26.5</ele>
        <time>2020-07-10T11:10:33Z</time>
      </trkpt>
      <trkpt lat="47.79644" lon="-3.38775">
        <ele>26.02</ele>
        <time>2020-07-10T11:10:34Z</time>
      </trkpt>
      <trkpt lat="47.79647" lon="-3.38779">
        <ele>25.38</ele>
        <time>2020-07-10T11:10:35Z</time>
      </trkpt>
      <trkpt lat="47.79649" lon="-3.38784">
        <ele>25.02</ele>
        <time>2020-07-10T11:10:36Z</time>
      </trkpt>
      <trkpt lat="47.79652" lon="-3.38789">
        <ele>24.69</ele>
        <time>2020-07-10T11:10:37Z</time>
      </trkpt>
      <trkpt lat="47.79655" lon="-3.38794">
        <ele>24.52</ele>
        <time>2020-07-10T11:10:38Z</time>
      </trkpt>
      <trkpt lat="47.79658" lon="-3.38799">
        <ele>24.59</ele>
        <time>2020-07-10T11:10:39Z</time>
      </trkpt>
      <trkpt lat="47.79662" lon="-3.38805">
        <ele>24.89</ele>
        <time>2020-07-10T11:10:40Z</time>
      </trkpt>
      <trkpt lat="47.79666" lon="-3.38811">
        <ele>25.31</ele>
        <time>2020-07-10T11:10:41Z</time>
      </trkpt>
      <trkpt lat="47.79668" lon="-3.38817">
        <ele>25.75</ele>
        <time>2020-07-10T11:10:42Z</time>
      </trkpt>
      <trkpt lat="47.79671" lon="-3.38822">
        <ele>26.02</ele>
        <time>2020-07-10T11:10:43Z</time>
      </trkpt>
      <trkpt lat="47.79673" lon="-3.38828">
        <ele>26.41</ele>
        <time>2020-07-10T11:10:44Z</time>
      </trkpt>
      <trkpt lat="47.79675" lon="-3.38834">
        <ele>27</ele>
        <time>2020-07-10T11:10:45Z</time>
      </trkpt>
      <trkpt lat="47.79678" lon="-3.38841">
        <ele>26.94</ele>
        <time>2020-07-10T11:10:46Z</time>
      </trkpt>
      <trkpt lat="47.79681" lon="-3.38847">
        <ele>26.84</ele>
        <time>2020-07-10T11:10:47Z</time>
      </trkpt>
      <trkpt lat="47.79684" lon="-3.38852">
        <ele>26.68</ele>
        <time>2020-07-10T11:10:48Z</time>
      </trkpt>
      <trkpt lat="47.79687" lon="-3.38856">
        <ele>26.64</ele>
        <time>2020-07-10T11:10:49Z</time>
      </trkpt>
      <trkpt lat="47.79689" lon="-3.38861">
        <ele>26.87</ele>
        <time>2020-07-10T11:10:50Z</time>
      </trkpt>
      <trkpt lat="47.79692" lon="-3.38866">
        <ele>26.9</ele>
        <time>2020-07-10T11:10:51Z</time>
      </trkpt>
      <trkpt lat="47.79696" lon="-3.38869">
        <ele>26.36</ele>
        <time>2020-07-10T11:10:52Z</time>
      </trkpt>
      <trkpt lat="47.79702" lon="-3.38874">
        <ele>24.44</ele>
        <time>2020-07-10T11:10:53Z</time>
      </trkpt>
      <trkpt lat="47.79708" lon="-3.38879">
        <ele>22.34</ele>
        <time>2020-07-10T11:10:54Z</time>
      </trkpt>
      <trkpt lat="47.79713" lon="-3.38882">
        <ele>20.78</ele>
        <time>2020-07-10T11:10:55Z</time>
      </trkpt>
      <trkpt lat="47.79718" lon="-3.38886">
        <ele>19.45</ele>
        <time>2020-07-10T11:10:56Z</time>
      </trkpt>
      <trkpt lat="47.79723" lon="-3.3889">
        <ele>18.24</ele>
        <time>2020-07-10T11:10:57Z</time>
      </trkpt>
      <trkpt lat="47.79729" lon="-3.38894">
        <ele>17.02</ele>
        <time>2020-07-10T11:10:58Z</time>
      </trkpt>
      <trkpt lat="47.79733" lon="-3.38898">
        <ele>15.86</ele>
        <time>2020-07-10T11:10:59Z</time>
      </trkpt>
      <trkpt lat="47.79738" lon="-3.38901">
        <ele>14.77</ele>
        <time>2020-07-10T11:11:00Z</time>
      </trkpt>
      <trkpt lat="47.79742" lon="-3.38905">
        <ele>13.91</ele>
        <time>2020-07-10T11:11:01Z</time>
      </trkpt>
      <trkpt lat="47.79745" lon="-3.38909">
        <ele>13.44</ele>
        <time>2020-07-10T11:11:02Z</time>
      </trkpt>
      <trkpt lat="47.79748" lon="-3.38913">
        <ele>13.41</ele>
        <time>2020-07-10T11:11:03Z</time>
      </trkpt>
      <trkpt lat="47.79751" lon="-3.38917">
        <ele>13.65</ele>
        <time>2020-07-10T11:11:04Z</time>
      </trkpt>
      <trkpt lat="47.79754" lon="-3.38921">
        <ele>13.85</ele>
        <time>2020-07-10T11:11:05Z</time>
      </trkpt>
      <trkpt lat="47.79759" lon="-3.38926">
        <ele>14.12</ele>
        <time>2020-07-10T11:11:06Z</time>
      </trkpt>
      <trkpt lat="47.79764" lon="-3.38931">
        <ele>14.31</ele>
        <time>2020-07-10T11:11:07Z</time>
      </trkpt>
      <trkpt lat="47.79769" lon="-3.38935">
        <ele>14.17</ele>
        <time>2020-07-10T11:11:08Z</time>
      </trkpt>
      <trkpt lat="47.79774" lon="-3.38937">
        <ele>13.76</ele>
        <time>2020-07-10T11:11:09Z</time>
      </trkpt>
      <trkpt lat="47.7978" lon="-3.38939">
        <ele>13.24</ele>
        <time>2020-07-10T11:11:10Z</time>
      </trkpt>
      <trkpt lat="47.79785" lon="-3.38942">
        <ele>12.75</ele>
        <time>2020-07-10T11:11:11Z</time>
      </trkpt>
      <trkpt lat="47.7979" lon="-3.38945">
        <ele>12.61</ele>
        <time>2020-07-10T11:11:12Z</time>
      </trkpt>
      <trkpt lat="47.79795" lon="-3.38948">
        <ele>12.45</ele>
        <time>2020-07-10T11:11:13Z</time>
      </trkpt>
      <trkpt lat="47.798" lon="-3.38951">
        <ele>12.57</ele>
        <time>2020-07-10T11:11:14Z</time>
      </trkpt>
      <trkpt lat="47.79805" lon="-3.38955">
        <ele>12.78</ele>
        <time>2020-07-10T11:11:15Z</time>
      </trkpt>
      <trkpt lat="47.79811" lon="-3.38958">
        <ele>12.82</ele>
        <time>2020-07-10T11:11:16Z</time>
      </trkpt>
      <trkpt lat="47.79816" lon="-3.38961">
        <ele>12.79</ele>
        <time>2020-07-10T11:11:17Z</time>
      </trkpt>
      <trkpt lat="47.79821" lon="-3.38963">
        <ele>12.66</ele>
        <time>2020-07-10T11:11:18Z</time>
      </trkpt>
      <trkpt lat="47.79826" lon="-3.38966">
        <ele>12.51</ele>
        <time>2020-07-10T11:11:19Z</time>
      </trkpt>
      <trkpt lat="47.79832" lon="-3.38968">
        <ele>12.25</ele>
        <time>2020-07-10T11:11:20Z</time>
      </trkpt>
      <trkpt lat="47.79837" lon="-3.38971">
        <ele>11.85</ele>
        <time>2020-07-10T11:11:21Z</time>
      </trkpt>
      <trkpt lat="47.79841" lon="-3.38973">
        <ele>11.49</ele>
        <time>2020-07-10T11:11:22Z</time>
      </trkpt>
      <trkpt lat="47.79846" lon="-3.38975">
        <ele>11.1</ele>
        <time>2020-07-10T11:11:23Z</time>
      </trkpt>
      <trkpt lat="47.79851" lon="-3.38981">
        <ele>11.32</ele>
        <time>2020-07-10T11:11:24Z</time>
      </trkpt>
      <trkpt lat="47.79856" lon="-3.38984">
        <ele>11.2</ele>
        <time>2020-07-10T11:11:25Z</time>
      </trkpt>
      <trkpt lat="47.7986" lon="-3.38986">
        <ele>10.87</ele>
        <time>2020-07-10T11:11:26Z</time>
      </trkpt>
      <trkpt lat="47.79865" lon="-3.38988">
        <ele>10.48</ele>
        <time>2020-07-10T11:11:27Z</time>
      </trkpt>
      <trkpt lat="47.79869" lon="-3.38991">
        <ele>10.4</ele>
        <time>2020-07-10T11:11:28Z</time>
      </trkpt>
      <trkpt lat="47.79873" lon="-3.38994">
        <ele>10.13</ele>
        <time>2020-07-10T11:11:29Z</time>
      </trkpt>
      <trkpt lat="47.79878" lon="-3.38997">
        <ele>9.76</ele>
        <time>2020-07-10T11:11:30Z</time>
      </trkpt>
      <trkpt lat="47.79882" lon="-3.39001">
        <ele>9.32</ele>
        <time>2020-07-10T11:11:31Z</time>
      </trkpt>
      <trkpt lat="47.79886" lon="-3.39004">
        <ele>9.12</ele>
        <time>2020-07-10T11:11:32Z</time>
      </trkpt>
      <trkpt lat="47.7989" lon="-3.39009">
        <ele>9.32</ele>
        <time>2020-07-10T11:11:33Z</time>
      </trkpt>
      <trkpt lat="47.79894" lon="-3.39013">
        <ele>9.94</ele>
        <time>2020-07-10T11:11:34Z</time>
      </trkpt>
      <trkpt lat="47.79897" lon="-3.39017">
        <ele>10.64</ele>
        <time>2020-07-10T11:11:35Z</time>
      </trkpt>
      <trkpt lat="47.799" lon="-3.39021">
        <ele>11.38</ele>
        <time>2020-07-10T11:11:36Z</time>
      </trkpt>
      <trkpt lat="47.79903" lon="-3.39025">
        <ele>12.03</ele>
        <time>2020-07-10T11:11:37Z</time>
      </trkpt>
      <trkpt lat="47.79905" lon="-3.39028">
        <ele>12.47</ele>
        <time>2020-07-10T11:11:38Z</time>
      </trkpt>
      <trkpt lat="47.79908" lon="-3.3903">
        <ele>12.52</ele>
        <time>2020-07-10T11:11:39Z</time>
      </trkpt>
      <trkpt lat="47.7991" lon="-3.39029">
        <ele>12.29</ele>
        <time>2020-07-10T11:11:40Z</time>
      </trkpt>
      <trkpt lat="47.79912" lon="-3.39029">
        <ele>11.96</ele>
        <time>2020-07-10T11:11:41Z</time>
      </trkpt>
      <trkpt lat="47.79914" lon="-3.39025">
        <ele>11.26</ele>
        <time>2020-07-10T11:11:42Z</time>
      </trkpt>
      <trkpt lat="47.79915" lon="-3.39023">
        <ele>10.53</ele>
        <time>2020-07-10T11:11:43Z</time>
      </trkpt>
      <trkpt lat="47.79919" lon="-3.3902">
        <ele>9.87</ele>
        <time>2020-07-10T11:11:44Z</time>
      </trkpt>
      <trkpt lat="47.79921" lon="-3.39017">
        <ele>9.34</ele>
        <time>2020-07-10T11:11:45Z</time>
      </trkpt>
      <trkpt lat="47.79923" lon="-3.39014">
        <ele>8.81</ele>
        <time>2020-07-10T11:11:46Z</time>
      </trkpt>
      <trkpt lat="47.79926" lon="-3.3901">
        <ele>8.35</ele>
        <time>2020-07-10T11:11:47Z</time>
      </trkpt>
      <trkpt lat="47.79929" lon="-3.39008">
        <ele>8.06</ele>
        <time>2020-07-10T11:11:48Z</time>
      </trkpt>
      <trkpt lat="47.79933" lon="-3.39006">
        <ele>7.92</ele>
        <time>2020-07-10T11:11:49Z</time>
      </trkpt>
      <trkpt lat="47.79939" lon="-3.39005">
        <ele>8.03</ele>
        <time>2020-07-10T11:11:50Z</time>
      </trkpt>
      <trkpt lat="47.79945" lon="-3.39005">
        <ele>8.3</ele>
        <time>2020-07-10T11:11:51Z</time>
      </trkpt>
      <trkpt lat="47.79951" lon="-3.39004">
        <ele>8.9</ele>
        <time>2020-07-10T11:11:52Z</time>
      </trkpt>
      <trkpt lat="47.79956" lon="-3.39003">
        <ele>9.5</ele>
        <time>2020-07-10T11:11:53Z</time>
      </trkpt>
      <trkpt lat="47.79961" lon="-3.39001">
        <ele>10.12</ele>
        <time>2020-07-10T11:11:54Z</time>
      </trkpt>
      <trkpt lat="47.79965" lon="-3.38997">
        <ele>10.5</ele>
        <time>2020-07-10T11:11:55Z</time>
      </trkpt>
      <trkpt lat="47.79969" lon="-3.38994">
        <ele>10.78</ele>
        <time>2020-07-10T11:11:56Z</time>
      </trkpt>
      <trkpt lat="47.79972" lon="-3.38991">
        <ele>10.97</ele>
        <time>2020-07-10T11:11:57Z</time>
      </trkpt>
      <trkpt lat="47.79975" lon="-3.38988">
        <ele>10.9</ele>
        <time>2020-07-10T11:11:58Z</time>
      </trkpt>
      <trkpt lat="47.79978" lon="-3.38987">
        <ele>10.79</ele>
        <time>2020-07-10T11:11:59Z</time>
      </trkpt>
      <trkpt lat="47.79979" lon="-3.38985">
        <ele>10.71</ele>
        <time>2020-07-10T11:12:00Z</time>
      </trkpt>
      <trkpt lat="47.79979" lon="-3.38985">
        <ele>10.68</ele>
        <time>2020-07-10T11:12:01Z</time>
      </trkpt>
      <trkpt lat="47.7998" lon="-3.38985">
        <ele>10.65</ele>
        <time>2020-07-10T11:12:02Z</time>
      </trkpt>
      <trkpt lat="47.7998" lon="-3.38985">
        <ele>10.64</ele>
        <time>2020-07-10T11:12:03Z</time>
      </trkpt>
      <trkpt lat="47.7998" lon="-3.38985">
        <ele>10.64</ele>
        <time>2020-07-10T11:12:04Z</time>
      </trkpt>
      <trkpt lat="47.79985" lon="-3.38978">
        <ele>10.25</ele>
        <time>2020-07-10T11:12:05Z</time>
      </trkpt>
      <trkpt lat="47.79987" lon="-3.38976">
        <ele>10</ele>
        <time>2020-07-10T11:12:06Z</time>
      </trkpt>
      <trkpt lat="47.79989" lon="-3.38973">
        <ele>9.78</ele>
        <time>2020-07-10T11:12:07Z</time>
      </trkpt>
      <trkpt lat="47.79991" lon="-3.38971">
        <ele>9.63</ele>
        <time>2020-07-10T11:12:08Z</time>
      </trkpt>
      <trkpt lat="47.79994" lon="-3.3897">
        <ele>9.43</ele>
        <time>2020-07-10T11:12:09Z</time>
      </trkpt>
      <trkpt lat="47.79996" lon="-3.38969">
        <ele>9.28</ele>
        <time>2020-07-10T11:12:10Z</time>
      </trkpt>
      <trkpt lat="47.79998" lon="-3.38968">
        <ele>9.19</ele>
        <time>2020-07-10T11:12:11Z</time>
      </trkpt>
      <trkpt lat="47.8" lon="-3.38966">
        <ele>9.01</ele>
        <time>2020-07-10T11:12:12Z</time>
      </trkpt>
      <trkpt lat="47.80002" lon="-3.38965">
        <ele>8.61</ele>
        <time>2020-07-10T11:12:13Z</time>
      </trkpt>
      <trkpt lat="47.80005" lon="-3.38963">
        <ele>8.08</ele>
        <time>2020-07-10T11:12:14Z</time>
      </trkpt>
      <trkpt lat="47.80008" lon="-3.38961">
        <ele>7.38</ele>
        <time>2020-07-10T11:12:15Z</time>
      </trkpt>
      <trkpt lat="47.80012" lon="-3.38958">
        <ele>6.67</ele>
        <time>2020-07-10T11:12:16Z</time>
      </trkpt>
      <trkpt lat="47.80015" lon="-3.38953">
        <ele>5.84</ele>
        <time>2020-07-10T11:12:17Z</time>
      </trkpt>
      <trkpt lat="47.80018" lon="-3.38949">
        <ele>5.13</ele>
        <time>2020-07-10T11:12:18Z</time>
      </trkpt>
      <trkpt lat="47.80021" lon="-3.38946">
        <ele>4.62</ele>
        <time>2020-07-10T11:12:19Z</time>
      </trkpt>
      <trkpt lat="47.80025" lon="-3.38943">
        <ele>4.21</ele>
        <time>2020-07-10T11:12:20Z</time>
      </trkpt>
      <trkpt lat="47.80029" lon="-3.38939">
        <ele>3.94</ele>
        <time>2020-07-10T11:12:21Z</time>
      </trkpt>
      <trkpt lat="47.80033" lon="-3.38938">
        <ele>3.81</ele>
        <time>2020-07-10T11:12:22Z</time>
      </trkpt>
      <trkpt lat="47.80038" lon="-3.38938">
        <ele>3.79</ele>
        <time>2020-07-10T11:12:23Z</time>
      </trkpt>
      <trkpt lat="47.80043" lon="-3.38941">
        <ele>3.86</ele>
        <time>2020-07-10T11:12:24Z</time>
      </trkpt>
      <trkpt lat="47.80046" lon="-3.38947">
        <ele>4.04</ele>
        <time>2020-07-10T11:12:25Z</time>
      </trkpt>
      <trkpt lat="47.80048" lon="-3.38953">
        <ele>4.3</ele>
        <time>2020-07-10T11:12:26Z</time>
      </trkpt>
      <trkpt lat="47.8005" lon="-3.3896">
        <ele>4.55</ele>
        <time>2020-07-10T11:12:27Z</time>
      </trkpt>
      <trkpt lat="47.80053" lon="-3.38965">
        <ele>4.74</ele>
        <time>2020-07-10T11:12:28Z</time>
      </trkpt>
      <trkpt lat="47.80057" lon="-3.38969">
        <ele>4.83</ele>
        <time>2020-07-10T11:12:29Z</time>
      </trkpt>
      <trkpt lat="47.80061" lon="-3.38971">
        <ele>4.93</ele>
        <time>2020-07-10T11:12:30Z</time>
      </trkpt>
      <trkpt lat="47.80065" lon="-3.38974">
        <ele>5.04</ele>
        <time>2020-07-10T11:12:31Z</time>
      </trkpt>
      <trkpt lat="47.80068" lon="-3.38977">
        <ele>5.13</ele>
        <time>2020-07-10T11:12:32Z</time>
      </trkpt>
      <trkpt lat="47.80071" lon="-3.38978">
        <ele>5.2</ele>
        <time>2020-07-10T11:12:33Z</time>
      </trkpt>
      <trkpt lat="47.80075" lon="-3.38978">
        <ele>5.22</ele>
        <time>2020-07-10T11:12:34Z</time>
      </trkpt>
      <trkpt lat="47.80079" lon="-3.38978">
        <ele>5.2</ele>
        <time>2020-07-10T11:12:35Z</time>
      </trkpt>
      <trkpt lat="47.80083" lon="-3.38976">
        <ele>5.16</ele>
        <time>2020-07-10T11:12:36Z</time>
      </trkpt>
      <trkpt lat="47.80087" lon="-3.38975">
        <ele>5.11</ele>
        <time>2020-07-10T11:12:37Z</time>
      </trkpt>
      <trkpt lat="47.80092" lon="-3.38973">
        <ele>5.06</ele>
        <time>2020-07-10T11:12:38Z</time>
      </trkpt>
      <trkpt lat="47.80096" lon="-3.38971">
        <ele>4.99</ele>
        <time>2020-07-10T11:12:39Z</time>
      </trkpt>
      <trkpt lat="47.80099" lon="-3.3897">
        <ele>4.94</ele>
        <time>2020-07-10T11:12:40Z</time>
      </trkpt>
      <trkpt lat="47.80103" lon="-3.38968">
        <ele>4.88</ele>
        <time>2020-07-10T11:12:41Z</time>
      </trkpt>
      <trkpt lat="47.80107" lon="-3.38966">
        <ele>4.8</ele>
        <time>2020-07-10T11:12:42Z</time>
      </trkpt>
      <trkpt lat="47.80111" lon="-3.38964">
        <ele>4.73</ele>
        <time>2020-07-10T11:12:43Z</time>
      </trkpt>
      <trkpt lat="47.80114" lon="-3.38962">
        <ele>4.79</ele>
        <time>2020-07-10T11:12:44Z</time>
      </trkpt>
      <trkpt lat="47.80118" lon="-3.3896">
        <ele>4.9</ele>
        <time>2020-07-10T11:12:45Z</time>
      </trkpt>
      <trkpt lat="47.80121" lon="-3.38958">
        <ele>5.01</ele>
        <time>2020-07-10T11:12:46Z</time>
      </trkpt>
      <trkpt lat="47.80125" lon="-3.38957">
        <ele>5.12</ele>
        <time>2020-07-10T11:12:47Z</time>
      </trkpt>
      <trkpt lat="47.80129" lon="-3.38955">
        <ele>5.23</ele>
        <time>2020-07-10T11:12:48Z</time>
      </trkpt>
      <trkpt lat="47.80133" lon="-3.38954">
        <ele>5.33</ele>
        <time>2020-07-10T11:12:49Z</time>
      </trkpt>
      <trkpt lat="47.80136" lon="-3.38952">
        <ele>5.4</ele>
        <time>2020-07-10T11:12:50Z</time>
      </trkpt>
      <trkpt lat="47.80138" lon="-3.38951">
        <ele>5.42</ele>
        <time>2020-07-10T11:12:51Z</time>
      </trkpt>
      <trkpt lat="47.80141" lon="-3.38949">
        <ele>5.43</ele>
        <time>2020-07-10T11:12:52Z</time>
      </trkpt>
      <trkpt lat="47.80144" lon="-3.38948">
        <ele>5.42</ele>
        <time>2020-07-10T11:12:53Z</time>
      </trkpt>
      <trkpt lat="47.80147" lon="-3.38945">
        <ele>5.38</ele>
        <time>2020-07-10T11:12:54Z</time>
      </trkpt>
      <trkpt lat="47.8015" lon="-3.38942">
        <ele>5.32</ele>
        <time>2020-07-10T11:12:55Z</time>
      </trkpt>
      <trkpt lat="47.80153" lon="-3.38938">
        <ele>5.19</ele>
        <time>2020-07-10T11:12:56Z</time>
      </trkpt>
      <trkpt lat="47.80155" lon="-3.38932">
        <ele>4.97</ele>
        <time>2020-07-10T11:12:57Z</time>
      </trkpt>
      <trkpt lat="47.80158" lon="-3.38925">
        <ele>4.67</ele>
        <time>2020-07-10T11:12:58Z</time>
      </trkpt>
      <trkpt lat="47.80162" lon="-3.38919">
        <ele>4.32</ele>
        <time>2020-07-10T11:12:59Z</time>
      </trkpt>
      <trkpt lat="47.80165" lon="-3.38913">
        <ele>4</ele>
        <time>2020-07-10T11:13:00Z</time>
      </trkpt>
      <trkpt lat="47.80169" lon="-3.38906">
        <ele>3.82</ele>
        <time>2020-07-10T11:13:01Z</time>
      </trkpt>
      <trkpt lat="47.80173" lon="-3.389">
        <ele>3.77</ele>
        <time>2020-07-10T11:13:02Z</time>
      </trkpt>
      <trkpt lat="47.80176" lon="-3.38893">
        <ele>3.8</ele>
        <time>2020-07-10T11:13:03Z</time>
      </trkpt>
      <trkpt lat="47.8018" lon="-3.38888">
        <ele>3.91</ele>
        <time>2020-07-10T11:13:04Z</time>
      </trkpt>
      <trkpt lat="47.80183" lon="-3.38883">
        <ele>4.11</ele>
        <time>2020-07-10T11:13:05Z</time>
      </trkpt>
      <trkpt lat="47.80186" lon="-3.3888">
        <ele>4.3</ele>
        <time>2020-07-10T11:13:06Z</time>
      </trkpt>
      <trkpt lat="47.80188" lon="-3.38877">
        <ele>4.45</ele>
        <time>2020-07-10T11:13:07Z</time>
      </trkpt>
      <trkpt lat="47.80189" lon="-3.38876">
        <ele>4.54</ele>
        <time>2020-07-10T11:13:08Z</time>
      </trkpt>
      <trkpt lat="47.80189" lon="-3.38876">
        <ele>4.59</ele>
        <time>2020-07-10T11:13:09Z</time>
      </trkpt>
      <trkpt lat="47.80189" lon="-3.38876">
        <ele>4.61</ele>
        <time>2020-07-10T11:13:10Z</time>
      </trkpt>
      <trkpt lat="47.80189" lon="-3.38876">
        <ele>4.61</ele>
        <time>2020-07-10T11:13:11Z</time>
      </trkpt>
      <trkpt lat="47.80189" lon="-3.38876">
        <ele>4.61</ele>
        <time>2020-07-10T11:13:12Z</time>
      </trkpt>
      <trkpt lat="47.80189" lon="-3.38876">
        <ele>4.61</ele>
        <time>2020-07-10T11:13:13Z</time>
      </trkpt>
      <trkpt lat="47.80189" lon="-3.38876">
        <ele>4.61</ele>
        <time>2020-07-10T11:13:14Z</time>
      </trkpt>
      <trkpt lat="47.80189" lon="-3.38876">
        <ele>4.61</ele>
        <time>2020-07-10T11:13:15Z</time>
      </trkpt>
      <trkpt lat="47.80189" lon="-3.38876">
        <ele>4.61</ele>
        <time>2020-07-10T11:13:16Z</time>
      </trkpt>
      <trkpt lat="47.80189" lon="-3.38876">
        <ele>4.61</ele>
        <time>2020-07-10T11:13:17Z</time>
      </trkpt>
      <trkpt lat="47.80189" lon="-3.38876">
        <ele>4.61</ele>
        <time>2020-07-10T11:13:18Z</time>
      </trkpt>
      <trkpt lat="47.80189" lon="-3.38876">
        <ele>4.61</ele>
        <time>2020-07-10T11:13:19Z</time>
      </trkpt>
      <trkpt lat="47.80189" lon="-3.38876">
        <ele>4.61</ele>
        <time>2020-07-10T11:13:20Z</time>
      </trkpt>
      <trkpt lat="47.80189" lon="-3.38876">
        <ele>4.61</ele>
        <time>2020-07-10T11:13:21Z</time>
      </trkpt>
      <trkpt lat="47.80189" lon="-3.38876">
        <ele>4.61</ele>
        <time>2020-07-10T11:13:22Z</time>
      </trkpt>
      <trkpt lat="47.80189" lon="-3.38876">
        <ele>4.61</ele>
        <time>2020-07-10T11:13:23Z</time>
      </trkpt>
      <trkpt lat="47.80189" lon="-3.38876">
        <ele>4.61</ele>
        <time>2020-07-10T11:13:24Z</time>
      </trkpt>
      <trkpt lat="47.80199" lon="-3.38878">
        <ele>5.37</ele>
        <time>2020-07-10T11:13:25Z</time>
      </trkpt>
      <trkpt lat="47.802" lon="-3.38878">
        <ele>5.76</ele>
        <time>2020-07-10T11:13:26Z</time>
      </trkpt>
      <trkpt lat="47.802" lon="-3.38879">
        <ele>5.89</ele>
        <time>2020-07-10T11:13:27Z</time>
      </trkpt>
      <trkpt lat="47.802" lon="-3.38878">
        <ele>5.93</ele>
        <time>2020-07-10T11:13:28Z</time>
      </trkpt>
      <trkpt lat="47.802" lon="-3.38878">
        <ele>5.94</ele>
        <time>2020-07-10T11:13:29Z</time>
      </trkpt>
      <trkpt lat="47.802" lon="-3.38878">
        <ele>5.95</ele>
        <time>2020-07-10T11:13:30Z</time>
      </trkpt>
      <trkpt lat="47.802" lon="-3.38878">
        <ele>5.95</ele>
        <time>2020-07-10T11:13:31Z</time>
      </trkpt>
      <trkpt lat="47.802" lon="-3.38878">
        <ele>5.95</ele>
        <time>2020-07-10T11:13:32Z</time>
      </trkpt>
      <trkpt lat="47.802" lon="-3.38878">
        <ele>5.95</ele>
        <time>2020-07-10T11:13:33Z</time>
      </trkpt>
      <trkpt lat="47.802" lon="-3.38878">
        <ele>5.95</ele>
        <time>2020-07-10T11:13:34Z</time>
      </trkpt>
      <trkpt lat="47.802" lon="-3.38878">
        <ele>5.95</ele>
        <time>2020-07-10T11:13:35Z</time>
      </trkpt>
      <trkpt lat="47.802" lon="-3.38878">
        <ele>5.95</ele>
        <time>2020-07-10T11:13:36Z</time>
      </trkpt>
      <trkpt lat="47.802" lon="-3.38878">
        <ele>5.95</ele>
        <time>2020-07-10T11:13:37Z</time>
      </trkpt>
      <trkpt lat="47.802" lon="-3.38878">
        <ele>5.95</ele>
        <time>2020-07-10T11:13:38Z</time>
      </trkpt>
      <trkpt lat="47.802" lon="-3.38878">
        <ele>5.95</ele>
        <time>2020-07-10T11:13:39Z</time>
      </trkpt>
      <trkpt lat="47.8021" lon="-3.38874">
        <ele>7.02</ele>
        <time>2020-07-10T11:13:40Z</time>
      </trkpt>
      <trkpt lat="47.80212" lon="-3.38873">
        <ele>7.53</ele>
        <time>2020-07-10T11:13:41Z</time>
      </trkpt>
      <trkpt lat="47.80213" lon="-3.38872">
        <ele>7.86</ele>
        <time>2020-07-10T11:13:42Z</time>
      </trkpt>
      <trkpt lat="47.80215" lon="-3.38872">
        <ele>8.1</ele>
        <time>2020-07-10T11:13:43Z</time>
      </trkpt>
      <trkpt lat="47.80216" lon="-3.38873">
        <ele>8.38</ele>
        <time>2020-07-10T11:13:44Z</time>
      </trkpt>
      <trkpt lat="47.80218" lon="-3.38875">
        <ele>8.7</ele>
        <time>2020-07-10T11:13:45Z</time>
      </trkpt>
      <trkpt lat="47.8022" lon="-3.38876">
        <ele>8.98</ele>
        <time>2020-07-10T11:13:46Z</time>
      </trkpt>
      <trkpt lat="47.80221" lon="-3.38878">
        <ele>9.28</ele>
        <time>2020-07-10T11:13:47Z</time>
      </trkpt>
      <trkpt lat="47.80222" lon="-3.38879">
        <ele>9.58</ele>
        <time>2020-07-10T11:13:48Z</time>
      </trkpt>
      <trkpt lat="47.80223" lon="-3.38881">
        <ele>9.8</ele>
        <time>2020-07-10T11:13:49Z</time>
      </trkpt>
      <trkpt lat="47.80225" lon="-3.38883">
        <ele>10.06</ele>
        <time>2020-07-10T11:13:50Z</time>
      </trkpt>
      <trkpt lat="47.80226" lon="-3.38884">
        <ele>10.37</ele>
        <time>2020-07-10T11:13:51Z</time>
      </trkpt>
      <trkpt lat="47.80228" lon="-3.38886">
        <ele>10.68</ele>
        <time>2020-07-10T11:13:52Z</time>
      </trkpt>
      <trkpt lat="47.80229" lon="-3.38888">
        <ele>11</ele>
        <time>2020-07-10T11:13:53Z</time>
      </trkpt>
      <trkpt lat="47.8023" lon="-3.38891">
        <ele>11.3</ele>
        <time>2020-07-10T11:13:54Z</time>
      </trkpt>
      <trkpt lat="47.80231" lon="-3.38893">
        <ele>11.6</ele>
        <time>2020-07-10T11:13:55Z</time>
      </trkpt>
      <trkpt lat="47.80232" lon="-3.38895">
        <ele>11.88</ele>
        <time>2020-07-10T11:13:56Z</time>
      </trkpt>
      <trkpt lat="47.80233" lon="-3.38897">
        <ele>12.13</ele>
        <time>2020-07-10T11:13:57Z</time>
      </trkpt>
      <trkpt lat="47.80234" lon="-3.38899">
        <ele>12.37</ele>
        <time>2020-07-10T11:13:58Z</time>
      </trkpt>
      <trkpt lat="47.80234" lon="-3.38902">
        <ele>12.55</ele>
        <time>2020-07-10T11:13:59Z</time>
      </trkpt>
      <trkpt lat="47.80234" lon="-3.38905">
        <ele>12.72</ele>
        <time>2020-07-10T11:14:00Z</time>
      </trkpt>
      <trkpt lat="47.80235" lon="-3.38908">
        <ele>12.91</ele>
        <time>2020-07-10T11:14:01Z</time>
      </trkpt>
      <trkpt lat="47.80235" lon="-3.3891">
        <ele>13.09</ele>
        <time>2020-07-10T11:14:02Z</time>
      </trkpt>
      <trkpt lat="47.80236" lon="-3.38913">
        <ele>13.29</ele>
        <time>2020-07-10T11:14:03Z</time>
      </trkpt>
      <trkpt lat="47.80237" lon="-3.38917">
        <ele>13.59</ele>
        <time>2020-07-10T11:14:04Z</time>
      </trkpt>
      <trkpt lat="47.80238" lon="-3.3892">
        <ele>13.81</ele>
        <time>2020-07-10T11:14:05Z</time>
      </trkpt>
      <trkpt lat="47.8024" lon="-3.38922">
        <ele>14.04</ele>
        <time>2020-07-10T11:14:06Z</time>
      </trkpt>
      <trkpt lat="47.80241" lon="-3.38925">
        <ele>14.3</ele>
        <time>2020-07-10T11:14:07Z</time>
      </trkpt>
      <trkpt lat="47.80243" lon="-3.38928">
        <ele>14.57</ele>
        <time>2020-07-10T11:14:08Z</time>
      </trkpt>
      <trkpt lat="47.80244" lon="-3.38932">
        <ele>14.77</ele>
        <time>2020-07-10T11:14:09Z</time>
      </trkpt>
      <trkpt lat="47.80245" lon="-3.38935">
        <ele>14.98</ele>
        <time>2020-07-10T11:14:10Z</time>
      </trkpt>
      <trkpt lat="47.80246" lon="-3.38938">
        <ele>15.19</ele>
        <time>2020-07-10T11:14:11Z</time>
      </trkpt>
      <trkpt lat="47.80247" lon="-3.38941">
        <ele>15.4</ele>
        <time>2020-07-10T11:14:12Z</time>
      </trkpt>
      <trkpt lat="47.80249" lon="-3.38944">
        <ele>15.69</ele>
        <time>2020-07-10T11:14:13Z</time>
      </trkpt>
      <trkpt lat="47.80251" lon="-3.38947">
        <ele>15.96</ele>
        <time>2020-07-10T11:14:14Z</time>
      </trkpt>
      <trkpt lat="47.80254" lon="-3.38949">
        <ele>16.21</ele>
        <time>2020-07-10T11:14:15Z</time>
      </trkpt>
      <trkpt lat="47.80256" lon="-3.38952">
        <ele>16.43</ele>
        <time>2020-07-10T11:14:16Z</time>
      </trkpt>
      <trkpt lat="47.80258" lon="-3.38954">
        <ele>16.62</ele>
        <time>2020-07-10T11:14:17Z</time>
      </trkpt>
      <trkpt lat="47.80259" lon="-3.38956">
        <ele>16.73</ele>
        <time>2020-07-10T11:14:18Z</time>
      </trkpt>
      <trkpt lat="47.8026" lon="-3.38958">
        <ele>16.85</ele>
        <time>2020-07-10T11:14:19Z</time>
      </trkpt>
      <trkpt lat="47.80261" lon="-3.3896">
        <ele>17.02</ele>
        <time>2020-07-10T11:14:20Z</time>
      </trkpt>
      <trkpt lat="47.80263" lon="-3.38962">
        <ele>17.24</ele>
        <time>2020-07-10T11:14:21Z</time>
      </trkpt>
      <trkpt lat="47.80265" lon="-3.38964">
        <ele>17.55</ele>
        <time>2020-07-10T11:14:22Z</time>
      </trkpt>
      <trkpt lat="47.80266" lon="-3.38966">
        <ele>17.8</ele>
        <time>2020-07-10T11:14:23Z</time>
      </trkpt>
      <trkpt lat="47.80268" lon="-3.38968">
        <ele>18.1</ele>
        <time>2020-07-10T11:14:24Z</time>
      </trkpt>
      <trkpt lat="47.8027" lon="-3.38969">
        <ele>18.37</ele>
        <time>2020-07-10T11:14:25Z</time>
      </trkpt>
      <trkpt lat="47.80272" lon="-3.3897">
        <ele>18.73</ele>
        <time>2020-07-10T11:14:26Z</time>
      </trkpt>
      <trkpt lat="47.80274" lon="-3.38971">
        <ele>19.17</ele>
        <time>2020-07-10T11:14:27Z</time>
      </trkpt>
      <trkpt lat="47.80277" lon="-3.38972">
        <ele>19.64</ele>
        <time>2020-07-10T11:14:28Z</time>
      </trkpt>
      <trkpt lat="47.8028" lon="-3.38972">
        <ele>19.97</ele>
        <time>2020-07-10T11:14:29Z</time>
      </trkpt>
      <trkpt lat="47.80281" lon="-3.38973">
        <ele>20.17</ele>
        <time>2020-07-10T11:14:30Z</time>
      </trkpt>
      <trkpt lat="47.80284" lon="-3.38974">
        <ele>20.35</ele>
        <time>2020-07-10T11:14:31Z</time>
      </trkpt>
      <trkpt lat="47.80287" lon="-3.38974">
        <ele>20.53</ele>
        <time>2020-07-10T11:14:32Z</time>
      </trkpt>
      <trkpt lat="47.80289" lon="-3.38975">
        <ele>20.7</ele>
        <time>2020-07-10T11:14:33Z</time>
      </trkpt>
      <trkpt lat="47.80292" lon="-3.38976">
        <ele>20.91</ele>
        <time>2020-07-10T11:14:34Z</time>
      </trkpt>
      <trkpt lat="47.80294" lon="-3.38976">
        <ele>21.09</ele>
        <time>2020-07-10T11:14:35Z</time>
      </trkpt>
      <trkpt lat="47.80295" lon="-3.38977">
        <ele>21.23</ele>
        <time>2020-07-10T11:14:36Z</time>
      </trkpt>
      <trkpt lat="47.80297" lon="-3.38977">
        <ele>21.39</ele>
        <time>2020-07-10T11:14:37Z</time>
      </trkpt>
      <trkpt lat="47.803" lon="-3.38977">
        <ele>21.61</ele>
        <time>2020-07-10T11:14:38Z</time>
      </trkpt>
      <trkpt lat="47.80302" lon="-3.38979">
        <ele>21.8</ele>
        <time>2020-07-10T11:14:39Z</time>
      </trkpt>
      <trkpt lat="47.80305" lon="-3.38981">
        <ele>22.09</ele>
        <time>2020-07-10T11:14:40Z</time>
      </trkpt>
      <trkpt lat="47.80307" lon="-3.38983">
        <ele>22.27</ele>
        <time>2020-07-10T11:14:41Z</time>
      </trkpt>
      <trkpt lat="47.8031" lon="-3.38985">
        <ele>22.34</ele>
        <time>2020-07-10T11:14:42Z</time>
      </trkpt>
      <trkpt lat="47.80312" lon="-3.38988">
        <ele>22.42</ele>
        <time>2020-07-10T11:14:43Z</time>
      </trkpt>
      <trkpt lat="47.80314" lon="-3.3899">
        <ele>22.51</ele>
        <time>2020-07-10T11:14:44Z</time>
      </trkpt>
      <trkpt lat="47.80315" lon="-3.38994">
        <ele>22.65</ele>
        <time>2020-07-10T11:14:45Z</time>
      </trkpt>
      <trkpt lat="47.80316" lon="-3.38997">
        <ele>22.78</ele>
        <time>2020-07-10T11:14:46Z</time>
      </trkpt>
      <trkpt lat="47.80316" lon="-3.39">
        <ele>22.94</ele>
        <time>2020-07-10T11:14:47Z</time>
      </trkpt>
      <trkpt lat="47.80316" lon="-3.39004">
        <ele>22.98</ele>
        <time>2020-07-10T11:14:48Z</time>
      </trkpt>
      <trkpt lat="47.80317" lon="-3.39009">
        <ele>22.99</ele>
        <time>2020-07-10T11:14:49Z</time>
      </trkpt>
      <trkpt lat="47.80317" lon="-3.39013">
        <ele>23</ele>
        <time>2020-07-10T11:14:50Z</time>
      </trkpt>
      <trkpt lat="47.80318" lon="-3.39017">
        <ele>23</ele>
        <time>2020-07-10T11:14:51Z</time>
      </trkpt>
      <trkpt lat="47.80318" lon="-3.39021">
        <ele>23</ele>
        <time>2020-07-10T11:14:52Z</time>
      </trkpt>
      <trkpt lat="47.80319" lon="-3.39026">
        <ele>23</ele>
        <time>2020-07-10T11:14:53Z</time>
      </trkpt>
      <trkpt lat="47.8032" lon="-3.39031">
        <ele>22.91</ele>
        <time>2020-07-10T11:14:54Z</time>
      </trkpt>
      <trkpt lat="47.80321" lon="-3.39037">
        <ele>22.75</ele>
        <time>2020-07-10T11:14:55Z</time>
      </trkpt>
      <trkpt lat="47.80323" lon="-3.39042">
        <ele>22.57</ele>
        <time>2020-07-10T11:14:56Z</time>
      </trkpt>
      <trkpt lat="47.80326" lon="-3.39047">
        <ele>22.4</ele>
        <time>2020-07-10T11:14:57Z</time>
      </trkpt>
      <trkpt lat="47.8033" lon="-3.39051">
        <ele>22.24</ele>
        <time>2020-07-10T11:14:58Z</time>
      </trkpt>
      <trkpt lat="47.80333" lon="-3.39054">
        <ele>22.11</ele>
        <time>2020-07-10T11:14:59Z</time>
      </trkpt>
      <trkpt lat="47.80336" lon="-3.39056">
        <ele>21.63</ele>
        <time>2020-07-10T11:15:00Z</time>
      </trkpt>
      <trkpt lat="47.80339" lon="-3.39059">
        <ele>20.97</ele>
        <time>2020-07-10T11:15:01Z</time>
      </trkpt>
      <trkpt lat="47.80342" lon="-3.39062">
        <ele>20.26</ele>
        <time>2020-07-10T11:15:02Z</time>
      </trkpt>
      <trkpt lat="47.80345" lon="-3.39065">
        <ele>19.51</ele>
        <time>2020-07-10T11:15:03Z</time>
      </trkpt>
      <trkpt lat="47.80348" lon="-3.39068">
        <ele>18.72</ele>
        <time>2020-07-10T11:15:04Z</time>
      </trkpt>
      <trkpt lat="47.80349" lon="-3.39072">
        <ele>18.15</ele>
        <time>2020-07-10T11:15:05Z</time>
      </trkpt>
      <trkpt lat="47.80351" lon="-3.39076">
        <ele>17.68</ele>
        <time>2020-07-10T11:15:06Z</time>
      </trkpt>
      <trkpt lat="47.80352" lon="-3.3908">
        <ele>17.22</ele>
        <time>2020-07-10T11:15:07Z</time>
      </trkpt>
      <trkpt lat="47.80354" lon="-3.39084">
        <ele>16.79</ele>
        <time>2020-07-10T11:15:08Z</time>
      </trkpt>
      <trkpt lat="47.80355" lon="-3.39089">
        <ele>16.54</ele>
        <time>2020-07-10T11:15:09Z</time>
      </trkpt>
      <trkpt lat="47.80355" lon="-3.39095">
        <ele>16.36</ele>
        <time>2020-07-10T11:15:10Z</time>
      </trkpt>
      <trkpt lat="47.80355" lon="-3.391">
        <ele>16.28</ele>
        <time>2020-07-10T11:15:11Z</time>
      </trkpt>
      <trkpt lat="47.80356" lon="-3.39105">
        <ele>16.21</ele>
        <time>2020-07-10T11:15:12Z</time>
      </trkpt>
      <trkpt lat="47.80356" lon="-3.3911">
        <ele>16.19</ele>
        <time>2020-07-10T11:15:13Z</time>
      </trkpt>
      <trkpt lat="47.80356" lon="-3.39114">
        <ele>16.23</ele>
        <time>2020-07-10T11:15:14Z</time>
      </trkpt>
      <trkpt lat="47.80355" lon="-3.39117">
        <ele>16.41</ele>
        <time>2020-07-10T11:15:15Z</time>
      </trkpt>
      <trkpt lat="47.80356" lon="-3.39123">
        <ele>16.51</ele>
        <time>2020-07-10T11:15:16Z</time>
      </trkpt>
      <trkpt lat="47.80357" lon="-3.39127">
        <ele>16.39</ele>
        <time>2020-07-10T11:15:17Z</time>
      </trkpt>
      <trkpt lat="47.80359" lon="-3.39129">
        <ele>16.21</ele>
        <time>2020-07-10T11:15:18Z</time>
      </trkpt>
      <trkpt lat="47.80359" lon="-3.39133">
        <ele>16.23</ele>
        <time>2020-07-10T11:15:19Z</time>
      </trkpt>
      <trkpt lat="47.80358" lon="-3.39136">
        <ele>16.39</ele>
        <time>2020-07-10T11:15:20Z</time>
      </trkpt>
      <trkpt lat="47.80358" lon="-3.39141">
        <ele>16.57</ele>
        <time>2020-07-10T11:15:21Z</time>
      </trkpt>
      <trkpt lat="47.80357" lon="-3.39145">
        <ele>16.71</ele>
        <time>2020-07-10T11:15:22Z</time>
      </trkpt>
      <trkpt lat="47.80356" lon="-3.39149">
        <ele>16.9</ele>
        <time>2020-07-10T11:15:23Z</time>
      </trkpt>
      <trkpt lat="47.80355" lon="-3.39152">
        <ele>17.1</ele>
        <time>2020-07-10T11:15:24Z</time>
      </trkpt>
      <trkpt lat="47.80353" lon="-3.39156">
        <ele>17.39</ele>
        <time>2020-07-10T11:15:25Z</time>
      </trkpt>
      <trkpt lat="47.80351" lon="-3.3916">
        <ele>17.67</ele>
        <time>2020-07-10T11:15:26Z</time>
      </trkpt>
      <trkpt lat="47.8035" lon="-3.39166">
        <ele>17.86</ele>
        <time>2020-07-10T11:15:27Z</time>
      </trkpt>
      <trkpt lat="47.8035" lon="-3.39172">
        <ele>17.92</ele>
        <time>2020-07-10T11:15:28Z</time>
      </trkpt>
      <trkpt lat="47.80349" lon="-3.39177">
        <ele>18.01</ele>
        <time>2020-07-10T11:15:29Z</time>
      </trkpt>
      <trkpt lat="47.80348" lon="-3.39181">
        <ele>18.11</ele>
        <time>2020-07-10T11:15:30Z</time>
      </trkpt>
      <trkpt lat="47.80346" lon="-3.39184">
        <ele>18.39</ele>
        <time>2020-07-10T11:15:31Z</time>
      </trkpt>
      <trkpt lat="47.80343" lon="-3.39187">
        <ele>18.87</ele>
        <time>2020-07-10T11:15:32Z</time>
      </trkpt>
      <trkpt lat="47.8034" lon="-3.3919">
        <ele>19.38</ele>
        <time>2020-07-10T11:15:33Z</time>
      </trkpt>
      <trkpt lat="47.80338" lon="-3.39194">
        <ele>19.76</ele>
        <time>2020-07-10T11:15:34Z</time>
      </trkpt>
      <trkpt lat="47.80338" lon="-3.39198">
        <ele>19.88</ele>
        <time>2020-07-10T11:15:35Z</time>
      </trkpt>
      <trkpt lat="47.80338" lon="-3.39202">
        <ele>19.76</ele>
        <time>2020-07-10T11:15:36Z</time>
      </trkpt>
      <trkpt lat="47.80337" lon="-3.39206">
        <ele>19.67</ele>
        <time>2020-07-10T11:15:37Z</time>
      </trkpt>
      <trkpt lat="47.80336" lon="-3.3921">
        <ele>19.78</ele>
        <time>2020-07-10T11:15:38Z</time>
      </trkpt>
      <trkpt lat="47.80334" lon="-3.39214">
        <ele>20.01</ele>
        <time>2020-07-10T11:15:39Z</time>
      </trkpt>
      <trkpt lat="47.80332" lon="-3.3922">
        <ele>20.02</ele>
        <time>2020-07-10T11:15:40Z</time>
      </trkpt>
      <trkpt lat="47.8033" lon="-3.39225">
        <ele>19.8</ele>
        <time>2020-07-10T11:15:41Z</time>
      </trkpt>
      <trkpt lat="47.80328" lon="-3.39229">
        <ele>19.56</ele>
        <time>2020-07-10T11:15:42Z</time>
      </trkpt>
      <trkpt lat="47.80325" lon="-3.39232">
        <ele>19.36</ele>
        <time>2020-07-10T11:15:43Z</time>
      </trkpt>
      <trkpt lat="47.80322" lon="-3.3924">
        <ele>19.16</ele>
        <time>2020-07-10T11:15:44Z</time>
      </trkpt>
      <trkpt lat="47.80321" lon="-3.39245">
        <ele>19.06</ele>
        <time>2020-07-10T11:15:45Z</time>
      </trkpt>
      <trkpt lat="47.8032" lon="-3.3925">
        <ele>19.02</ele>
        <time>2020-07-10T11:15:46Z</time>
      </trkpt>
      <trkpt lat="47.8032" lon="-3.39255">
        <ele>19</ele>
        <time>2020-07-10T11:15:47Z</time>
      </trkpt>
      <trkpt lat="47.8032" lon="-3.3926">
        <ele>19</ele>
        <time>2020-07-10T11:15:48Z</time>
      </trkpt>
      <trkpt lat="47.80319" lon="-3.39265">
        <ele>19</ele>
        <time>2020-07-10T11:15:49Z</time>
      </trkpt>
      <trkpt lat="47.8032" lon="-3.39269">
        <ele>18.98</ele>
        <time>2020-07-10T11:15:50Z</time>
      </trkpt>
      <trkpt lat="47.8032" lon="-3.39274">
        <ele>18.98</ele>
        <time>2020-07-10T11:15:51Z</time>
      </trkpt>
      <trkpt lat="47.8032" lon="-3.39277">
        <ele>18.98</ele>
        <time>2020-07-10T11:15:52Z</time>
      </trkpt>
      <trkpt lat="47.8032" lon="-3.39281">
        <ele>19.08</ele>
        <time>2020-07-10T11:15:53Z</time>
      </trkpt>
      <trkpt lat="47.80322" lon="-3.39285">
        <ele>19.17</ele>
        <time>2020-07-10T11:15:54Z</time>
      </trkpt>
      <trkpt lat="47.80324" lon="-3.39287">
        <ele>19.2</ele>
        <time>2020-07-10T11:15:55Z</time>
      </trkpt>
      <trkpt lat="47.80327" lon="-3.39289">
        <ele>19.17</ele>
        <time>2020-07-10T11:15:56Z</time>
      </trkpt>
      <trkpt lat="47.8033" lon="-3.39291">
        <ele>19.15</ele>
        <time>2020-07-10T11:15:57Z</time>
      </trkpt>
      <trkpt lat="47.80333" lon="-3.39293">
        <ele>19.13</ele>
        <time>2020-07-10T11:15:58Z</time>
      </trkpt>
      <trkpt lat="47.80336" lon="-3.39295">
        <ele>18.67</ele>
        <time>2020-07-10T11:15:59Z</time>
      </trkpt>
      <trkpt lat="47.80339" lon="-3.39297">
        <ele>18.01</ele>
        <time>2020-07-10T11:16:00Z</time>
      </trkpt>
      <trkpt lat="47.80342" lon="-3.39299">
        <ele>17.35</ele>
        <time>2020-07-10T11:16:01Z</time>
      </trkpt>
      <trkpt lat="47.80344" lon="-3.393">
        <ele>16.74</ele>
        <time>2020-07-10T11:16:02Z</time>
      </trkpt>
      <trkpt lat="47.80346" lon="-3.39303">
        <ele>16.34</ele>
        <time>2020-07-10T11:16:03Z</time>
      </trkpt>
      <trkpt lat="47.80348" lon="-3.39306">
        <ele>15.97</ele>
        <time>2020-07-10T11:16:04Z</time>
      </trkpt>
      <trkpt lat="47.8035" lon="-3.3931">
        <ele>15.84</ele>
        <time>2020-07-10T11:16:05Z</time>
      </trkpt>
      <trkpt lat="47.80352" lon="-3.39313">
        <ele>15.69</ele>
        <time>2020-07-10T11:16:06Z</time>
      </trkpt>
      <trkpt lat="47.80356" lon="-3.39317">
        <ele>15.33</ele>
        <time>2020-07-10T11:16:07Z</time>
      </trkpt>
      <trkpt lat="47.80358" lon="-3.39321">
        <ele>15.19</ele>
        <time>2020-07-10T11:16:08Z</time>
      </trkpt>
      <trkpt lat="47.8036" lon="-3.39324">
        <ele>15.02</ele>
        <time>2020-07-10T11:16:09Z</time>
      </trkpt>
      <trkpt lat="47.80363" lon="-3.39327">
        <ele>14.64</ele>
        <time>2020-07-10T11:16:10Z</time>
      </trkpt>
      <trkpt lat="47.80367" lon="-3.39331">
        <ele>13.73</ele>
        <time>2020-07-10T11:16:11Z</time>
      </trkpt>
      <trkpt lat="47.8037" lon="-3.39333">
        <ele>12.92</ele>
        <time>2020-07-10T11:16:12Z</time>
      </trkpt>
      <trkpt lat="47.80373" lon="-3.39337">
        <ele>12.25</ele>
        <time>2020-07-10T11:16:13Z</time>
      </trkpt>
      <trkpt lat="47.80376" lon="-3.39341">
        <ele>11.81</ele>
        <time>2020-07-10T11:16:14Z</time>
      </trkpt>
      <trkpt lat="47.80379" lon="-3.39345">
        <ele>11.62</ele>
        <time>2020-07-10T11:16:15Z</time>
      </trkpt>
      <trkpt lat="47.80382" lon="-3.39349">
        <ele>11.59</ele>
        <time>2020-07-10T11:16:16Z</time>
      </trkpt>
      <trkpt lat="47.80385" lon="-3.39354">
        <ele>11.7</ele>
        <time>2020-07-10T11:16:17Z</time>
      </trkpt>
      <trkpt lat="47.80388" lon="-3.39358">
        <ele>11.7</ele>
        <time>2020-07-10T11:16:18Z</time>
      </trkpt>
      <trkpt lat="47.80393" lon="-3.39363">
        <ele>11.23</ele>
        <time>2020-07-10T11:16:19Z</time>
      </trkpt>
      <trkpt lat="47.80397" lon="-3.39368">
        <ele>10.77</ele>
        <time>2020-07-10T11:16:20Z</time>
      </trkpt>
      <trkpt lat="47.80401" lon="-3.39371">
        <ele>10.23</ele>
        <time>2020-07-10T11:16:21Z</time>
      </trkpt>
      <trkpt lat="47.80405" lon="-3.39375">
        <ele>9.73</ele>
        <time>2020-07-10T11:16:22Z</time>
      </trkpt>
      <trkpt lat="47.80409" lon="-3.39377">
        <ele>9.2</ele>
        <time>2020-07-10T11:16:23Z</time>
      </trkpt>
      <trkpt lat="47.80411" lon="-3.3938">
        <ele>8.83</ele>
        <time>2020-07-10T11:16:24Z</time>
      </trkpt>
      <trkpt lat="47.80413" lon="-3.39383">
        <ele>8.76</ele>
        <time>2020-07-10T11:16:25Z</time>
      </trkpt>
      <trkpt lat="47.80415" lon="-3.39386">
        <ele>8.7</ele>
        <time>2020-07-10T11:16:26Z</time>
      </trkpt>
      <trkpt lat="47.80417" lon="-3.39388">
        <ele>8.74</ele>
        <time>2020-07-10T11:16:27Z</time>
      </trkpt>
      <trkpt lat="47.8042" lon="-3.39391">
        <ele>9.06</ele>
        <time>2020-07-10T11:16:28Z</time>
      </trkpt>
      <trkpt lat="47.80423" lon="-3.39394">
        <ele>9.25</ele>
        <time>2020-07-10T11:16:29Z</time>
      </trkpt>
      <trkpt lat="47.80426" lon="-3.39396">
        <ele>9.48</ele>
        <time>2020-07-10T11:16:30Z</time>
      </trkpt>
      <trkpt lat="47.80429" lon="-3.39399">
        <ele>9.6</ele>
        <time>2020-07-10T11:16:31Z</time>
      </trkpt>
      <trkpt lat="47.80432" lon="-3.39401">
        <ele>9.6</ele>
        <time>2020-07-10T11:16:32Z</time>
      </trkpt>
      <trkpt lat="47.80438" lon="-3.39404">
        <ele>9.52</ele>
        <time>2020-07-10T11:16:33Z</time>
      </trkpt>
      <trkpt lat="47.80441" lon="-3.39407">
        <ele>9.68</ele>
        <time>2020-07-10T11:16:34Z</time>
      </trkpt>
      <trkpt lat="47.80446" lon="-3.3941">
        <ele>9.91</ele>
        <time>2020-07-10T11:16:35Z</time>
      </trkpt>
      <trkpt lat="47.80449" lon="-3.39413">
        <ele>10.21</ele>
        <time>2020-07-10T11:16:36Z</time>
      </trkpt>
      <trkpt lat="47.80453" lon="-3.39416">
        <ele>10.45</ele>
        <time>2020-07-10T11:16:37Z</time>
      </trkpt>
      <trkpt lat="47.80457" lon="-3.39418">
        <ele>10.68</ele>
        <time>2020-07-10T11:16:38Z</time>
      </trkpt>
      <trkpt lat="47.8046" lon="-3.39421">
        <ele>11.11</ele>
        <time>2020-07-10T11:16:39Z</time>
      </trkpt>
      <trkpt lat="47.80462" lon="-3.39424">
        <ele>11.74</ele>
        <time>2020-07-10T11:16:40Z</time>
      </trkpt>
      <trkpt lat="47.80464" lon="-3.39427">
        <ele>12.49</ele>
        <time>2020-07-10T11:16:41Z</time>
      </trkpt>
      <trkpt lat="47.80467" lon="-3.3943">
        <ele>13.03</ele>
        <time>2020-07-10T11:16:42Z</time>
      </trkpt>
      <trkpt lat="47.8047" lon="-3.39433">
        <ele>13.47</ele>
        <time>2020-07-10T11:16:43Z</time>
      </trkpt>
      <trkpt lat="47.80472" lon="-3.39435">
        <ele>13.9</ele>
        <time>2020-07-10T11:16:44Z</time>
      </trkpt>
      <trkpt lat="47.80474" lon="-3.39437">
        <ele>13.98</ele>
        <time>2020-07-10T11:16:45Z</time>
      </trkpt>
      <trkpt lat="47.80478" lon="-3.39438">
        <ele>13.67</ele>
        <time>2020-07-10T11:16:46Z</time>
      </trkpt>
      <trkpt lat="47.80483" lon="-3.3944">
        <ele>13.02</ele>
        <time>2020-07-10T11:16:47Z</time>
      </trkpt>
      <trkpt lat="47.80488" lon="-3.39442">
        <ele>12.14</ele>
        <time>2020-07-10T11:16:48Z</time>
      </trkpt>
      <trkpt lat="47.80493" lon="-3.39445">
        <ele>11.26</ele>
        <time>2020-07-10T11:16:49Z</time>
      </trkpt>
      <trkpt lat="47.80497" lon="-3.39447">
        <ele>10.4</ele>
        <time>2020-07-10T11:16:50Z</time>
      </trkpt>
      <trkpt lat="47.80501" lon="-3.39449">
        <ele>9.51</ele>
        <time>2020-07-10T11:16:51Z</time>
      </trkpt>
      <trkpt lat="47.80506" lon="-3.39449">
        <ele>8.74</ele>
        <time>2020-07-10T11:16:52Z</time>
      </trkpt>
      <trkpt lat="47.80511" lon="-3.39449">
        <ele>7.98</ele>
        <time>2020-07-10T11:16:53Z</time>
      </trkpt>
      <trkpt lat="47.80514" lon="-3.39449">
        <ele>7.31</ele>
        <time>2020-07-10T11:16:54Z</time>
      </trkpt>
      <trkpt lat="47.80517" lon="-3.39448">
        <ele>6.71</ele>
        <time>2020-07-10T11:16:55Z</time>
      </trkpt>
      <trkpt lat="47.8052" lon="-3.39448">
        <ele>6.15</ele>
        <time>2020-07-10T11:16:56Z</time>
      </trkpt>
      <trkpt lat="47.80523" lon="-3.39448">
        <ele>5.64</ele>
        <time>2020-07-10T11:16:57Z</time>
      </trkpt>
      <trkpt lat="47.80526" lon="-3.39449">
        <ele>5.31</ele>
        <time>2020-07-10T11:16:58Z</time>
      </trkpt>
      <trkpt lat="47.80529" lon="-3.3945">
        <ele>5.18</ele>
        <time>2020-07-10T11:16:59Z</time>
      </trkpt>
      <trkpt lat="47.80533" lon="-3.39451">
        <ele>5.09</ele>
        <time>2020-07-10T11:17:00Z</time>
      </trkpt>
      <trkpt lat="47.80536" lon="-3.39453">
        <ele>5.02</ele>
        <time>2020-07-10T11:17:01Z</time>
      </trkpt>
      <trkpt lat="47.8054" lon="-3.39455">
        <ele>4.92</ele>
        <time>2020-07-10T11:17:02Z</time>
      </trkpt>
      <trkpt lat="47.80545" lon="-3.39458">
        <ele>4.83</ele>
        <time>2020-07-10T11:17:03Z</time>
      </trkpt>
      <trkpt lat="47.80548" lon="-3.3946">
        <ele>4.71</ele>
        <time>2020-07-10T11:17:04Z</time>
      </trkpt>
      <trkpt lat="47.80552" lon="-3.39462">
        <ele>4.47</ele>
        <time>2020-07-10T11:17:05Z</time>
      </trkpt>
      <trkpt lat="47.80556" lon="-3.39464">
        <ele>4.2</ele>
        <time>2020-07-10T11:17:06Z</time>
      </trkpt>
      <trkpt lat="47.80559" lon="-3.39466">
        <ele>4.23</ele>
        <time>2020-07-10T11:17:07Z</time>
      </trkpt>
      <trkpt lat="47.80563" lon="-3.39469">
        <ele>4.33</ele>
        <time>2020-07-10T11:17:08Z</time>
      </trkpt>
      <trkpt lat="47.80566" lon="-3.3947">
        <ele>4.42</ele>
        <time>2020-07-10T11:17:09Z</time>
      </trkpt>
      <trkpt lat="47.8057" lon="-3.39473">
        <ele>4.65</ele>
        <time>2020-07-10T11:17:10Z</time>
      </trkpt>
      <trkpt lat="47.80573" lon="-3.39476">
        <ele>5.05</ele>
        <time>2020-07-10T11:17:11Z</time>
      </trkpt>
      <trkpt lat="47.80576" lon="-3.39479">
        <ele>5.5</ele>
        <time>2020-07-10T11:17:12Z</time>
      </trkpt>
      <trkpt lat="47.80579" lon="-3.39482">
        <ele>5.89</ele>
        <time>2020-07-10T11:17:13Z</time>
      </trkpt>
      <trkpt lat="47.80581" lon="-3.39485">
        <ele>6.32</ele>
        <time>2020-07-10T11:17:14Z</time>
      </trkpt>
      <trkpt lat="47.80585" lon="-3.39489">
        <ele>6.7</ele>
        <time>2020-07-10T11:17:15Z</time>
      </trkpt>
      <trkpt lat="47.80588" lon="-3.39491">
        <ele>6.97</ele>
        <time>2020-07-10T11:17:16Z</time>
      </trkpt>
      <trkpt lat="47.80592" lon="-3.39493">
        <ele>7.12</ele>
        <time>2020-07-10T11:17:17Z</time>
      </trkpt>
      <trkpt lat="47.80595" lon="-3.39493">
        <ele>7.09</ele>
        <time>2020-07-10T11:17:18Z</time>
      </trkpt>
      <trkpt lat="47.80597" lon="-3.39493">
        <ele>6.97</ele>
        <time>2020-07-10T11:17:19Z</time>
      </trkpt>
      <trkpt lat="47.80601" lon="-3.39495">
        <ele>6.94</ele>
        <time>2020-07-10T11:17:20Z</time>
      </trkpt>
      <trkpt lat="47.80605" lon="-3.39497">
        <ele>7.01</ele>
        <time>2020-07-10T11:17:21Z</time>
      </trkpt>
      <trkpt lat="47.80608" lon="-3.395">
        <ele>7.12</ele>
        <time>2020-07-10T11:17:22Z</time>
      </trkpt>
      <trkpt lat="47.80611" lon="-3.39502">
        <ele>7.45</ele>
        <time>2020-07-10T11:17:23Z</time>
      </trkpt>
      <trkpt lat="47.80615" lon="-3.39505">
        <ele>7.74</ele>
        <time>2020-07-10T11:17:24Z</time>
      </trkpt>
      <trkpt lat="47.8062" lon="-3.39506">
        <ele>7.77</ele>
        <time>2020-07-10T11:17:25Z</time>
      </trkpt>
      <trkpt lat="47.80625" lon="-3.39508">
        <ele>7.7</ele>
        <time>2020-07-10T11:17:26Z</time>
      </trkpt>
      <trkpt lat="47.80629" lon="-3.39509">
        <ele>7.42</ele>
        <time>2020-07-10T11:17:27Z</time>
      </trkpt>
      <trkpt lat="47.80634" lon="-3.39511">
        <ele>7.17</ele>
        <time>2020-07-10T11:17:28Z</time>
      </trkpt>
      <trkpt lat="47.80637" lon="-3.39512">
        <ele>6.97</ele>
        <time>2020-07-10T11:17:29Z</time>
      </trkpt>
      <trkpt lat="47.80641" lon="-3.39514">
        <ele>6.8</ele>
        <time>2020-07-10T11:17:30Z</time>
      </trkpt>
      <trkpt lat="47.80645" lon="-3.39516">
        <ele>6.77</ele>
        <time>2020-07-10T11:17:31Z</time>
      </trkpt>
      <trkpt lat="47.80648" lon="-3.39519">
        <ele>6.86</ele>
        <time>2020-07-10T11:17:32Z</time>
      </trkpt>
      <trkpt lat="47.80652" lon="-3.39523">
        <ele>7.08</ele>
        <time>2020-07-10T11:17:33Z</time>
      </trkpt>
      <trkpt lat="47.80656" lon="-3.39527">
        <ele>7.34</ele>
        <time>2020-07-10T11:17:34Z</time>
      </trkpt>
      <trkpt lat="47.8066" lon="-3.39532">
        <ele>7.67</ele>
        <time>2020-07-10T11:17:35Z</time>
      </trkpt>
      <trkpt lat="47.80662" lon="-3.39538">
        <ele>8.05</ele>
        <time>2020-07-10T11:17:36Z</time>
      </trkpt>
      <trkpt lat="47.80664" lon="-3.39543">
        <ele>8.51</ele>
        <time>2020-07-10T11:17:37Z</time>
      </trkpt>
      <trkpt lat="47.80665" lon="-3.39548">
        <ele>9.03</ele>
        <time>2020-07-10T11:17:38Z</time>
      </trkpt>
      <trkpt lat="47.80667" lon="-3.39553">
        <ele>9.42</ele>
        <time>2020-07-10T11:17:39Z</time>
      </trkpt>
      <trkpt lat="47.80668" lon="-3.39558">
        <ele>9.82</ele>
        <time>2020-07-10T11:17:40Z</time>
      </trkpt>
      <trkpt lat="47.80669" lon="-3.39564">
        <ele>10.29</ele>
        <time>2020-07-10T11:17:41Z</time>
      </trkpt>
      <trkpt lat="47.80671" lon="-3.39569">
        <ele>10.69</ele>
        <time>2020-07-10T11:17:42Z</time>
      </trkpt>
      <trkpt lat="47.80672" lon="-3.39575">
        <ele>11.14</ele>
        <time>2020-07-10T11:17:43Z</time>
      </trkpt>
      <trkpt lat="47.80672" lon="-3.39581">
        <ele>11.63</ele>
        <time>2020-07-10T11:17:44Z</time>
      </trkpt>
      <trkpt lat="47.80671" lon="-3.39586">
        <ele>12.34</ele>
        <time>2020-07-10T11:17:45Z</time>
      </trkpt>
      <trkpt lat="47.8067" lon="-3.39593">
        <ele>13.32</ele>
        <time>2020-07-10T11:17:46Z</time>
      </trkpt>
      <trkpt lat="47.80668" lon="-3.396">
        <ele>14.23</ele>
        <time>2020-07-10T11:17:47Z</time>
      </trkpt>
      <trkpt lat="47.80667" lon="-3.39606">
        <ele>15.1</ele>
        <time>2020-07-10T11:17:48Z</time>
      </trkpt>
      <trkpt lat="47.80666" lon="-3.39613">
        <ele>15.8</ele>
        <time>2020-07-10T11:17:49Z</time>
      </trkpt>
      <trkpt lat="47.80665" lon="-3.39619">
        <ele>16.21</ele>
        <time>2020-07-10T11:17:50Z</time>
      </trkpt>
      <trkpt lat="47.80664" lon="-3.39625">
        <ele>16.53</ele>
        <time>2020-07-10T11:17:51Z</time>
      </trkpt>
      <trkpt lat="47.80664" lon="-3.39631">
        <ele>16.73</ele>
        <time>2020-07-10T11:17:52Z</time>
      </trkpt>
      <trkpt lat="47.80664" lon="-3.39636">
        <ele>16.86</ele>
        <time>2020-07-10T11:17:53Z</time>
      </trkpt>
      <trkpt lat="47.80663" lon="-3.39644">
        <ele>16.93</ele>
        <time>2020-07-10T11:17:54Z</time>
      </trkpt>
      <trkpt lat="47.80662" lon="-3.39649">
        <ele>17.1</ele>
        <time>2020-07-10T11:17:55Z</time>
      </trkpt>
      <trkpt lat="47.80661" lon="-3.39655">
        <ele>17.25</ele>
        <time>2020-07-10T11:17:56Z</time>
      </trkpt>
      <trkpt lat="47.8066" lon="-3.39661">
        <ele>17.48</ele>
        <time>2020-07-10T11:17:57Z</time>
      </trkpt>
      <trkpt lat="47.80658" lon="-3.39666">
        <ele>17.68</ele>
        <time>2020-07-10T11:17:58Z</time>
      </trkpt>
      <trkpt lat="47.80657" lon="-3.39672">
        <ele>17.8</ele>
        <time>2020-07-10T11:17:59Z</time>
      </trkpt>
      <trkpt lat="47.80655" lon="-3.39678">
        <ele>17.99</ele>
        <time>2020-07-10T11:18:00Z</time>
      </trkpt>
      <trkpt lat="47.80654" lon="-3.39684">
        <ele>18.14</ele>
        <time>2020-07-10T11:18:01Z</time>
      </trkpt>
      <trkpt lat="47.80652" lon="-3.39689">
        <ele>18.29</ele>
        <time>2020-07-10T11:18:02Z</time>
      </trkpt>
      <trkpt lat="47.8065" lon="-3.39694">
        <ele>18.47</ele>
        <time>2020-07-10T11:18:03Z</time>
      </trkpt>
      <trkpt lat="47.80649" lon="-3.39699">
        <ele>18.7</ele>
        <time>2020-07-10T11:18:04Z</time>
      </trkpt>
      <trkpt lat="47.80647" lon="-3.39703">
        <ele>18.95</ele>
        <time>2020-07-10T11:18:05Z</time>
      </trkpt>
      <trkpt lat="47.80647" lon="-3.39707">
        <ele>19.09</ele>
        <time>2020-07-10T11:18:06Z</time>
      </trkpt>
      <trkpt lat="47.80646" lon="-3.39712">
        <ele>19.12</ele>
        <time>2020-07-10T11:18:07Z</time>
      </trkpt>
      <trkpt lat="47.80647" lon="-3.39717">
        <ele>19.01</ele>
        <time>2020-07-10T11:18:08Z</time>
      </trkpt>
      <trkpt lat="47.80648" lon="-3.39722">
        <ele>18.78</ele>
        <time>2020-07-10T11:18:09Z</time>
      </trkpt>
      <trkpt lat="47.8065" lon="-3.39729">
        <ele>18.64</ele>
        <time>2020-07-10T11:18:10Z</time>
      </trkpt>
      <trkpt lat="47.80653" lon="-3.39736">
        <ele>18.54</ele>
        <time>2020-07-10T11:18:11Z</time>
      </trkpt>
      <trkpt lat="47.80657" lon="-3.39743">
        <ele>18.32</ele>
        <time>2020-07-10T11:18:12Z</time>
      </trkpt>
      <trkpt lat="47.80661" lon="-3.3975">
        <ele>17.98</ele>
        <time>2020-07-10T11:18:13Z</time>
      </trkpt>
      <trkpt lat="47.80665" lon="-3.39755">
        <ele>17.61</ele>
        <time>2020-07-10T11:18:14Z</time>
      </trkpt>
      <trkpt lat="47.8067" lon="-3.39758">
        <ele>17.05</ele>
        <time>2020-07-10T11:18:15Z</time>
      </trkpt>
      <trkpt lat="47.80673" lon="-3.39761">
        <ele>16.53</ele>
        <time>2020-07-10T11:18:16Z</time>
      </trkpt>
      <trkpt lat="47.80676" lon="-3.39765">
        <ele>16.21</ele>
        <time>2020-07-10T11:18:17Z</time>
      </trkpt>
      <trkpt lat="47.80678" lon="-3.39769">
        <ele>16.03</ele>
        <time>2020-07-10T11:18:18Z</time>
      </trkpt>
      <trkpt lat="47.8068" lon="-3.39772">
        <ele>15.88</ele>
        <time>2020-07-10T11:18:19Z</time>
      </trkpt>
      <trkpt lat="47.80681" lon="-3.39774">
        <ele>15.8</ele>
        <time>2020-07-10T11:18:20Z</time>
      </trkpt>
      <trkpt lat="47.80681" lon="-3.39774">
        <ele>15.77</ele>
        <time>2020-07-10T11:18:21Z</time>
      </trkpt>
      <trkpt lat="47.80681" lon="-3.39774">
        <ele>15.75</ele>
        <time>2020-07-10T11:18:22Z</time>
      </trkpt>
      <trkpt lat="47.80681" lon="-3.39775">
        <ele>15.8</ele>
        <time>2020-07-10T11:18:23Z</time>
      </trkpt>
      <trkpt lat="47.80681" lon="-3.39775">
        <ele>15.81</ele>
        <time>2020-07-10T11:18:24Z</time>
      </trkpt>
      <trkpt lat="47.80681" lon="-3.39775">
        <ele>15.82</ele>
        <time>2020-07-10T11:18:25Z</time>
      </trkpt>
      <trkpt lat="47.80681" lon="-3.39775">
        <ele>15.82</ele>
        <time>2020-07-10T11:18:26Z</time>
      </trkpt>
      <trkpt lat="47.80681" lon="-3.39775">
        <ele>15.82</ele>
        <time>2020-07-10T11:18:27Z</time>
      </trkpt>
      <trkpt lat="47.80681" lon="-3.39775">
        <ele>15.82</ele>
        <time>2020-07-10T11:18:28Z</time>
      </trkpt>
      <trkpt lat="47.80686" lon="-3.39774">
        <ele>15.28</ele>
        <time>2020-07-10T11:18:29Z</time>
      </trkpt>
      <trkpt lat="47.80688" lon="-3.39773">
        <ele>14.87</ele>
        <time>2020-07-10T11:18:30Z</time>
      </trkpt>
      <trkpt lat="47.8069" lon="-3.39775">
        <ele>14.51</ele>
        <time>2020-07-10T11:18:31Z</time>
      </trkpt>
      <trkpt lat="47.80694" lon="-3.39775">
        <ele>14.1</ele>
        <time>2020-07-10T11:18:32Z</time>
      </trkpt>
      <trkpt lat="47.80697" lon="-3.39776">
        <ele>13.52</ele>
        <time>2020-07-10T11:18:33Z</time>
      </trkpt>
      <trkpt lat="47.80701" lon="-3.39779">
        <ele>12.89</ele>
        <time>2020-07-10T11:18:34Z</time>
      </trkpt>
      <trkpt lat="47.80704" lon="-3.39783">
        <ele>12.52</ele>
        <time>2020-07-10T11:18:35Z</time>
      </trkpt>
      <trkpt lat="47.80706" lon="-3.39787">
        <ele>12.31</ele>
        <time>2020-07-10T11:18:36Z</time>
      </trkpt>
      <trkpt lat="47.80708" lon="-3.39791">
        <ele>12.27</ele>
        <time>2020-07-10T11:18:37Z</time>
      </trkpt>
      <trkpt lat="47.8071" lon="-3.39796">
        <ele>12.37</ele>
        <time>2020-07-10T11:18:38Z</time>
      </trkpt>
      <trkpt lat="47.80711" lon="-3.39801">
        <ele>12.6</ele>
        <time>2020-07-10T11:18:39Z</time>
      </trkpt>
      <trkpt lat="47.80711" lon="-3.39807">
        <ele>13.06</ele>
        <time>2020-07-10T11:18:40Z</time>
      </trkpt>
      <trkpt lat="47.80712" lon="-3.39812">
        <ele>13.59</ele>
        <time>2020-07-10T11:18:41Z</time>
      </trkpt>
      <trkpt lat="47.80712" lon="-3.39818">
        <ele>14.26</ele>
        <time>2020-07-10T11:18:42Z</time>
      </trkpt>
      <trkpt lat="47.80713" lon="-3.39823">
        <ele>14.78</ele>
        <time>2020-07-10T11:18:43Z</time>
      </trkpt>
      <trkpt lat="47.80714" lon="-3.39828">
        <ele>15.2</ele>
        <time>2020-07-10T11:18:44Z</time>
      </trkpt>
      <trkpt lat="47.80716" lon="-3.39835">
        <ele>15.51</ele>
        <time>2020-07-10T11:18:45Z</time>
      </trkpt>
      <trkpt lat="47.80718" lon="-3.39841">
        <ele>15.59</ele>
        <time>2020-07-10T11:18:46Z</time>
      </trkpt>
      <trkpt lat="47.8072" lon="-3.39848">
        <ele>15.5</ele>
        <time>2020-07-10T11:18:47Z</time>
      </trkpt>
      <trkpt lat="47.80723" lon="-3.39854">
        <ele>15.24</ele>
        <time>2020-07-10T11:18:48Z</time>
      </trkpt>
      <trkpt lat="47.80727" lon="-3.3986">
        <ele>14.62</ele>
        <time>2020-07-10T11:18:49Z</time>
      </trkpt>
      <trkpt lat="47.8073" lon="-3.39865">
        <ele>13.88</ele>
        <time>2020-07-10T11:18:50Z</time>
      </trkpt>
      <trkpt lat="47.80734" lon="-3.3987">
        <ele>12.99</ele>
        <time>2020-07-10T11:18:51Z</time>
      </trkpt>
      <trkpt lat="47.80739" lon="-3.39875">
        <ele>11.95</ele>
        <time>2020-07-10T11:18:52Z</time>
      </trkpt>
      <trkpt lat="47.80743" lon="-3.3988">
        <ele>10.79</ele>
        <time>2020-07-10T11:18:53Z</time>
      </trkpt>
      <trkpt lat="47.80749" lon="-3.39884">
        <ele>9.38</ele>
        <time>2020-07-10T11:18:54Z</time>
      </trkpt>
      <trkpt lat="47.80755" lon="-3.39888">
        <ele>8.8</ele>
        <time>2020-07-10T11:18:55Z</time>
      </trkpt>
      <trkpt lat="47.8076" lon="-3.39891">
        <ele>8.64</ele>
        <time>2020-07-10T11:18:56Z</time>
      </trkpt>
      <trkpt lat="47.80766" lon="-3.39893">
        <ele>8.62</ele>
        <time>2020-07-10T11:18:57Z</time>
      </trkpt>
      <trkpt lat="47.80769" lon="-3.39895">
        <ele>8.67</ele>
        <time>2020-07-10T11:18:58Z</time>
      </trkpt>
      <trkpt lat="47.80774" lon="-3.39898">
        <ele>8.82</ele>
        <time>2020-07-10T11:18:59Z</time>
      </trkpt>
      <trkpt lat="47.80777" lon="-3.399">
        <ele>8.98</ele>
        <time>2020-07-10T11:19:00Z</time>
      </trkpt>
      <trkpt lat="47.8078" lon="-3.39902">
        <ele>9.14</ele>
        <time>2020-07-10T11:19:01Z</time>
      </trkpt>
      <trkpt lat="47.80784" lon="-3.39904">
        <ele>9.29</ele>
        <time>2020-07-10T11:19:02Z</time>
      </trkpt>
      <trkpt lat="47.80788" lon="-3.39906">
        <ele>9.49</ele>
        <time>2020-07-10T11:19:03Z</time>
      </trkpt>
      <trkpt lat="47.80791" lon="-3.39908">
        <ele>9.6</ele>
        <time>2020-07-10T11:19:04Z</time>
      </trkpt>
      <trkpt lat="47.80794" lon="-3.3991">
        <ele>9.69</ele>
        <time>2020-07-10T11:19:05Z</time>
      </trkpt>
      <trkpt lat="47.80796" lon="-3.39911">
        <ele>9.79</ele>
        <time>2020-07-10T11:19:06Z</time>
      </trkpt>
      <trkpt lat="47.80797" lon="-3.39912">
        <ele>9.88</ele>
        <time>2020-07-10T11:19:07Z</time>
      </trkpt>
      <trkpt lat="47.80798" lon="-3.39913">
        <ele>9.94</ele>
        <time>2020-07-10T11:19:08Z</time>
      </trkpt>
      <trkpt lat="47.80799" lon="-3.39914">
        <ele>10.01</ele>
        <time>2020-07-10T11:19:09Z</time>
      </trkpt>
      <trkpt lat="47.80799" lon="-3.39914">
        <ele>10.05</ele>
        <time>2020-07-10T11:19:10Z</time>
      </trkpt>
      <trkpt lat="47.80799" lon="-3.39914">
        <ele>10.06</ele>
        <time>2020-07-10T11:19:11Z</time>
      </trkpt>
      <trkpt lat="47.80799" lon="-3.39914">
        <ele>10.06</ele>
        <time>2020-07-10T11:19:12Z</time>
      </trkpt>
      <trkpt lat="47.80799" lon="-3.39914">
        <ele>10.06</ele>
        <time>2020-07-10T11:19:13Z</time>
      </trkpt>
      <trkpt lat="47.80799" lon="-3.39914">
        <ele>10.07</ele>
        <time>2020-07-10T11:19:14Z</time>
      </trkpt>
      <trkpt lat="47.80799" lon="-3.39914">
        <ele>10.07</ele>
        <time>2020-07-10T11:19:15Z</time>
      </trkpt>
      <trkpt lat="47.80799" lon="-3.39914">
        <ele>10.07</ele>
        <time>2020-07-10T11:19:16Z</time>
      </trkpt>
      <trkpt lat="47.80799" lon="-3.39914">
        <ele>10.07</ele>
        <time>2020-07-10T11:19:17Z</time>
      </trkpt>
      <trkpt lat="47.80799" lon="-3.39914">
        <ele>10.07</ele>
        <time>2020-07-10T11:19:18Z</time>
      </trkpt>
      <trkpt lat="47.80799" lon="-3.39914">
        <ele>10.07</ele>
        <time>2020-07-10T11:19:19Z</time>
      </trkpt>
      <trkpt lat="47.80799" lon="-3.39914">
        <ele>10.07</ele>
        <time>2020-07-10T11:19:20Z</time>
      </trkpt>
      <trkpt lat="47.80799" lon="-3.39914">
        <ele>10.07</ele>
        <time>2020-07-10T11:19:21Z</time>
      </trkpt>
      <trkpt lat="47.80799" lon="-3.39914">
        <ele>10.07</ele>
        <time>2020-07-10T11:19:22Z</time>
      </trkpt>
      <trkpt lat="47.80799" lon="-3.39914">
        <ele>10.07</ele>
        <time>2020-07-10T11:19:23Z</time>
      </trkpt>
      <trkpt lat="47.80799" lon="-3.39914">
        <ele>10.07</ele>
        <time>2020-07-10T11:19:24Z</time>
      </trkpt>
      <trkpt lat="47.80799" lon="-3.39914">
        <ele>10.07</ele>
        <time>2020-07-10T11:19:25Z</time>
      </trkpt>
      <trkpt lat="47.80799" lon="-3.39914">
        <ele>10.07</ele>
        <time>2020-07-10T11:19:26Z</time>
      </trkpt>
      <trkpt lat="47.80799" lon="-3.39914">
        <ele>10.07</ele>
        <time>2020-07-10T11:19:27Z</time>
      </trkpt>
      <trkpt lat="47.80799" lon="-3.39914">
        <ele>10.07</ele>
        <time>2020-07-10T11:19:28Z</time>
      </trkpt>
      <trkpt lat="47.80799" lon="-3.39914">
        <ele>10.07</ele>
        <time>2020-07-10T11:19:29Z</time>
      </trkpt>
      <trkpt lat="47.80799" lon="-3.39914">
        <ele>10.07</ele>
        <time>2020-07-10T11:19:30Z</time>
      </trkpt>
      <trkpt lat="47.80804" lon="-3.39925">
        <ele>11.15</ele>
        <time>2020-07-10T11:19:31Z</time>
      </trkpt>
      <trkpt lat="47.80804" lon="-3.39925">
        <ele>11.47</ele>
        <time>2020-07-10T11:19:32Z</time>
      </trkpt>
      <trkpt lat="47.80805" lon="-3.39926">
        <ele>11.67</ele>
        <time>2020-07-10T11:19:33Z</time>
      </trkpt>
      <trkpt lat="47.80805" lon="-3.39927">
        <ele>11.87</ele>
        <time>2020-07-10T11:19:34Z</time>
      </trkpt>
      <trkpt lat="47.80805" lon="-3.39927">
        <ele>11.93</ele>
        <time>2020-07-10T11:19:35Z</time>
      </trkpt>
      <trkpt lat="47.80805" lon="-3.39927">
        <ele>11.95</ele>
        <time>2020-07-10T11:19:36Z</time>
      </trkpt>
      <trkpt lat="47.80805" lon="-3.39927">
        <ele>11.95</ele>
        <time>2020-07-10T11:19:37Z</time>
      </trkpt>
      <trkpt lat="47.80805" lon="-3.39927">
        <ele>11.95</ele>
        <time>2020-07-10T11:19:38Z</time>
      </trkpt>
      <trkpt lat="47.8081" lon="-3.39932">
        <ele>12.28</ele>
        <time>2020-07-10T11:19:39Z</time>
      </trkpt>
      <trkpt lat="47.80811" lon="-3.39933">
        <ele>12.43</ele>
        <time>2020-07-10T11:19:40Z</time>
      </trkpt>
      <trkpt lat="47.80812" lon="-3.39935">
        <ele>12.58</ele>
        <time>2020-07-10T11:19:41Z</time>
      </trkpt>
      <trkpt lat="47.80814" lon="-3.39936">
        <ele>12.68</ele>
        <time>2020-07-10T11:19:42Z</time>
      </trkpt>
      <trkpt lat="47.80816" lon="-3.39938">
        <ele>12.78</ele>
        <time>2020-07-10T11:19:43Z</time>
      </trkpt>
      <trkpt lat="47.80818" lon="-3.39939">
        <ele>12.72</ele>
        <time>2020-07-10T11:19:44Z</time>
      </trkpt>
      <trkpt lat="47.8082" lon="-3.39939">
        <ele>12.62</ele>
        <time>2020-07-10T11:19:45Z</time>
      </trkpt>
      <trkpt lat="47.80823" lon="-3.3994">
        <ele>12.47</ele>
        <time>2020-07-10T11:19:46Z</time>
      </trkpt>
      <trkpt lat="47.80825" lon="-3.39941">
        <ele>12.37</ele>
        <time>2020-07-10T11:19:47Z</time>
      </trkpt>
      <trkpt lat="47.80828" lon="-3.39942">
        <ele>12.27</ele>
        <time>2020-07-10T11:19:48Z</time>
      </trkpt>
      <trkpt lat="47.8083" lon="-3.39943">
        <ele>12.14</ele>
        <time>2020-07-10T11:19:49Z</time>
      </trkpt>
      <trkpt lat="47.80832" lon="-3.39944">
        <ele>12.09</ele>
        <time>2020-07-10T11:19:50Z</time>
      </trkpt>
      <trkpt lat="47.80835" lon="-3.39946">
        <ele>12.05</ele>
        <time>2020-07-10T11:19:51Z</time>
      </trkpt>
      <trkpt lat="47.80837" lon="-3.39947">
        <ele>11.95</ele>
        <time>2020-07-10T11:19:52Z</time>
      </trkpt>
      <trkpt lat="47.8084" lon="-3.39948">
        <ele>11.85</ele>
        <time>2020-07-10T11:19:53Z</time>
      </trkpt>
      <trkpt lat="47.80843" lon="-3.3995">
        <ele>11.78</ele>
        <time>2020-07-10T11:19:54Z</time>
      </trkpt>
      <trkpt lat="47.80846" lon="-3.39952">
        <ele>11.69</ele>
        <time>2020-07-10T11:19:55Z</time>
      </trkpt>
      <trkpt lat="47.80848" lon="-3.39954">
        <ele>11.64</ele>
        <time>2020-07-10T11:19:56Z</time>
      </trkpt>
      <trkpt lat="47.8085" lon="-3.39955">
        <ele>11.56</ele>
        <time>2020-07-10T11:19:57Z</time>
      </trkpt>
      <trkpt lat="47.80853" lon="-3.39957">
        <ele>11.42</ele>
        <time>2020-07-10T11:19:58Z</time>
      </trkpt>
      <trkpt lat="47.80856" lon="-3.39959">
        <ele>11.28</ele>
        <time>2020-07-10T11:19:59Z</time>
      </trkpt>
      <trkpt lat="47.80861" lon="-3.39962">
        <ele>11.11</ele>
        <time>2020-07-10T11:20:00Z</time>
      </trkpt>
      <trkpt lat="47.80865" lon="-3.39964">
        <ele>10.72</ele>
        <time>2020-07-10T11:20:01Z</time>
      </trkpt>
      <trkpt lat="47.80869" lon="-3.39967">
        <ele>10.29</ele>
        <time>2020-07-10T11:20:02Z</time>
      </trkpt>
      <trkpt lat="47.80872" lon="-3.3997">
        <ele>9.91</ele>
        <time>2020-07-10T11:20:03Z</time>
      </trkpt>
      <trkpt lat="47.80876" lon="-3.39973">
        <ele>9.58</ele>
        <time>2020-07-10T11:20:04Z</time>
      </trkpt>
      <trkpt lat="47.80879" lon="-3.39978">
        <ele>9.34</ele>
        <time>2020-07-10T11:20:05Z</time>
      </trkpt>
      <trkpt lat="47.80882" lon="-3.39982">
        <ele>9.16</ele>
        <time>2020-07-10T11:20:06Z</time>
      </trkpt>
      <trkpt lat="47.80884" lon="-3.39987">
        <ele>8.99</ele>
        <time>2020-07-10T11:20:07Z</time>
      </trkpt>
      <trkpt lat="47.80887" lon="-3.39991">
        <ele>8.86</ele>
        <time>2020-07-10T11:20:08Z</time>
      </trkpt>
      <trkpt lat="47.80889" lon="-3.39996">
        <ele>8.72</ele>
        <time>2020-07-10T11:20:09Z</time>
      </trkpt>
      <trkpt lat="47.8089" lon="-3.4">
        <ele>8.75</ele>
        <time>2020-07-10T11:20:10Z</time>
      </trkpt>
      <trkpt lat="47.80892" lon="-3.40004">
        <ele>8.87</ele>
        <time>2020-07-10T11:20:11Z</time>
      </trkpt>
      <trkpt lat="47.80893" lon="-3.40008">
        <ele>8.96</ele>
        <time>2020-07-10T11:20:12Z</time>
      </trkpt>
      <trkpt lat="47.80895" lon="-3.40012">
        <ele>9</ele>
        <time>2020-07-10T11:20:13Z</time>
      </trkpt>
      <trkpt lat="47.80897" lon="-3.40019">
        <ele>9.16</ele>
        <time>2020-07-10T11:20:14Z</time>
      </trkpt>
      <trkpt lat="47.80898" lon="-3.40025">
        <ele>9.32</ele>
        <time>2020-07-10T11:20:15Z</time>
      </trkpt>
      <trkpt lat="47.809" lon="-3.40033">
        <ele>9.48</ele>
        <time>2020-07-10T11:20:16Z</time>
      </trkpt>
      <trkpt lat="47.809" lon="-3.40039">
        <ele>9.55</ele>
        <time>2020-07-10T11:20:17Z</time>
      </trkpt>
      <trkpt lat="47.80901" lon="-3.40045">
        <ele>9.66</ele>
        <time>2020-07-10T11:20:18Z</time>
      </trkpt>
      <trkpt lat="47.80902" lon="-3.40051">
        <ele>9.65</ele>
        <time>2020-07-10T11:20:19Z</time>
      </trkpt>
      <trkpt lat="47.80902" lon="-3.40058">
        <ele>9.75</ele>
        <time>2020-07-10T11:20:20Z</time>
      </trkpt>
      <trkpt lat="47.80904" lon="-3.40066">
        <ele>9.71</ele>
        <time>2020-07-10T11:20:21Z</time>
      </trkpt>
      <trkpt lat="47.80905" lon="-3.40074">
        <ele>9.74</ele>
        <time>2020-07-10T11:20:22Z</time>
      </trkpt>
      <trkpt lat="47.80906" lon="-3.40081">
        <ele>9.73</ele>
        <time>2020-07-10T11:20:23Z</time>
      </trkpt>
      <trkpt lat="47.80908" lon="-3.4009">
        <ele>9.34</ele>
        <time>2020-07-10T11:20:24Z</time>
      </trkpt>
      <trkpt lat="47.80909" lon="-3.40099">
        <ele>8.98</ele>
        <time>2020-07-10T11:20:25Z</time>
      </trkpt>
      <trkpt lat="47.80909" lon="-3.40107">
        <ele>8.87</ele>
        <time>2020-07-10T11:20:26Z</time>
      </trkpt>
      <trkpt lat="47.80908" lon="-3.40115">
        <ele>9.02</ele>
        <time>2020-07-10T11:20:27Z</time>
      </trkpt>
      <trkpt lat="47.80907" lon="-3.40123">
        <ele>9.06</ele>
        <time>2020-07-10T11:20:28Z</time>
      </trkpt>
      <trkpt lat="47.80906" lon="-3.4013">
        <ele>9.23</ele>
        <time>2020-07-10T11:20:29Z</time>
      </trkpt>
      <trkpt lat="47.80905" lon="-3.40137">
        <ele>9.58</ele>
        <time>2020-07-10T11:20:30Z</time>
      </trkpt>
      <trkpt lat="47.80904" lon="-3.40143">
        <ele>9.81</ele>
        <time>2020-07-10T11:20:31Z</time>
      </trkpt>
      <trkpt lat="47.80903" lon="-3.4015">
        <ele>9.84</ele>
        <time>2020-07-10T11:20:32Z</time>
      </trkpt>
      <trkpt lat="47.80902" lon="-3.40157">
        <ele>10.03</ele>
        <time>2020-07-10T11:20:33Z</time>
      </trkpt>
      <trkpt lat="47.80901" lon="-3.40163">
        <ele>10.42</ele>
        <time>2020-07-10T11:20:34Z</time>
      </trkpt>
      <trkpt lat="47.80899" lon="-3.40169">
        <ele>10.9</ele>
        <time>2020-07-10T11:20:35Z</time>
      </trkpt>
      <trkpt lat="47.80897" lon="-3.40175">
        <ele>11.11</ele>
        <time>2020-07-10T11:20:36Z</time>
      </trkpt>
      <trkpt lat="47.80895" lon="-3.40181">
        <ele>11.21</ele>
        <time>2020-07-10T11:20:37Z</time>
      </trkpt>
      <trkpt lat="47.80894" lon="-3.40187">
        <ele>11.08</ele>
        <time>2020-07-10T11:20:38Z</time>
      </trkpt>
      <trkpt lat="47.80892" lon="-3.40193">
        <ele>10.9</ele>
        <time>2020-07-10T11:20:39Z</time>
      </trkpt>
      <trkpt lat="47.8089" lon="-3.402">
        <ele>10.74</ele>
        <time>2020-07-10T11:20:40Z</time>
      </trkpt>
      <trkpt lat="47.80889" lon="-3.40206">
        <ele>10.47</ele>
        <time>2020-07-10T11:20:41Z</time>
      </trkpt>
      <trkpt lat="47.80887" lon="-3.40214">
        <ele>10.1</ele>
        <time>2020-07-10T11:20:42Z</time>
      </trkpt>
      <trkpt lat="47.80885" lon="-3.4022">
        <ele>9.76</ele>
        <time>2020-07-10T11:20:43Z</time>
      </trkpt>
      <trkpt lat="47.80883" lon="-3.40227">
        <ele>9.73</ele>
        <time>2020-07-10T11:20:44Z</time>
      </trkpt>
      <trkpt lat="47.80881" lon="-3.40232">
        <ele>9.93</ele>
        <time>2020-07-10T11:20:45Z</time>
      </trkpt>
      <trkpt lat="47.80879" lon="-3.40238">
        <ele>10.14</ele>
        <time>2020-07-10T11:20:46Z</time>
      </trkpt>
      <trkpt lat="47.80877" lon="-3.40245">
        <ele>10.29</ele>
        <time>2020-07-10T11:20:47Z</time>
      </trkpt>
      <trkpt lat="47.80875" lon="-3.4025">
        <ele>10.49</ele>
        <time>2020-07-10T11:20:48Z</time>
      </trkpt>
      <trkpt lat="47.80872" lon="-3.40256">
        <ele>10.38</ele>
        <time>2020-07-10T11:20:49Z</time>
      </trkpt>
      <trkpt lat="47.8087" lon="-3.40261">
        <ele>10.43</ele>
        <time>2020-07-10T11:20:50Z</time>
      </trkpt>
      <trkpt lat="47.80866" lon="-3.40267">
        <ele>10.55</ele>
        <time>2020-07-10T11:20:51Z</time>
      </trkpt>
      <trkpt lat="47.80862" lon="-3.40272">
        <ele>10.83</ele>
        <time>2020-07-10T11:20:52Z</time>
      </trkpt>
      <trkpt lat="47.80858" lon="-3.40278">
        <ele>11.08</ele>
        <time>2020-07-10T11:20:53Z</time>
      </trkpt>
      <trkpt lat="47.80855" lon="-3.40284">
        <ele>11.48</ele>
        <time>2020-07-10T11:20:54Z</time>
      </trkpt>
      <trkpt lat="47.80851" lon="-3.40289">
        <ele>12.05</ele>
        <time>2020-07-10T11:20:55Z</time>
      </trkpt>
      <trkpt lat="47.80849" lon="-3.40294">
        <ele>12.45</ele>
        <time>2020-07-10T11:20:56Z</time>
      </trkpt>
      <trkpt lat="47.80846" lon="-3.40299">
        <ele>12.85</ele>
        <time>2020-07-10T11:20:57Z</time>
      </trkpt>
      <trkpt lat="47.80843" lon="-3.40305">
        <ele>13.31</ele>
        <time>2020-07-10T11:20:58Z</time>
      </trkpt>
      <trkpt lat="47.8084" lon="-3.40311">
        <ele>13.65</ele>
        <time>2020-07-10T11:20:59Z</time>
      </trkpt>
      <trkpt lat="47.80838" lon="-3.40317">
        <ele>13.78</ele>
        <time>2020-07-10T11:21:00Z</time>
      </trkpt>
      <trkpt lat="47.80836" lon="-3.40323">
        <ele>13.87</ele>
        <time>2020-07-10T11:21:01Z</time>
      </trkpt>
      <trkpt lat="47.80833" lon="-3.40328">
        <ele>13.99</ele>
        <time>2020-07-10T11:21:02Z</time>
      </trkpt>
      <trkpt lat="47.80831" lon="-3.40333">
        <ele>14.04</ele>
        <time>2020-07-10T11:21:03Z</time>
      </trkpt>
      <trkpt lat="47.80829" lon="-3.40337">
        <ele>14.11</ele>
        <time>2020-07-10T11:21:04Z</time>
      </trkpt>
      <trkpt lat="47.80828" lon="-3.40343">
        <ele>14.02</ele>
        <time>2020-07-10T11:21:05Z</time>
      </trkpt>
      <trkpt lat="47.80825" lon="-3.40349">
        <ele>13.94</ele>
        <time>2020-07-10T11:21:06Z</time>
      </trkpt>
      <trkpt lat="47.80822" lon="-3.40354">
        <ele>14</ele>
        <time>2020-07-10T11:21:07Z</time>
      </trkpt>
      <trkpt lat="47.80821" lon="-3.4036">
        <ele>13.66</ele>
        <time>2020-07-10T11:21:08Z</time>
      </trkpt>
      <trkpt lat="47.80819" lon="-3.40367">
        <ele>13.46</ele>
        <time>2020-07-10T11:21:09Z</time>
      </trkpt>
      <trkpt lat="47.80818" lon="-3.40372">
        <ele>13.36</ele>
        <time>2020-07-10T11:21:10Z</time>
      </trkpt>
      <trkpt lat="47.80816" lon="-3.40377">
        <ele>13.47</ele>
        <time>2020-07-10T11:21:11Z</time>
      </trkpt>
      <trkpt lat="47.80816" lon="-3.40382">
        <ele>13.34</ele>
        <time>2020-07-10T11:21:12Z</time>
      </trkpt>
      <trkpt lat="47.80814" lon="-3.40387">
        <ele>13.64</ele>
        <time>2020-07-10T11:21:13Z</time>
      </trkpt>
      <trkpt lat="47.80811" lon="-3.40391">
        <ele>14.04</ele>
        <time>2020-07-10T11:21:14Z</time>
      </trkpt>
      <trkpt lat="47.80809" lon="-3.40395">
        <ele>14.18</ele>
        <time>2020-07-10T11:21:15Z</time>
      </trkpt>
      <trkpt lat="47.80809" lon="-3.40401">
        <ele>13.81</ele>
        <time>2020-07-10T11:21:16Z</time>
      </trkpt>
      <trkpt lat="47.80808" lon="-3.40407">
        <ele>13.2</ele>
        <time>2020-07-10T11:21:17Z</time>
      </trkpt>
      <trkpt lat="47.80806" lon="-3.40413">
        <ele>12.78</ele>
        <time>2020-07-10T11:21:18Z</time>
      </trkpt>
      <trkpt lat="47.80804" lon="-3.40418">
        <ele>12.22</ele>
        <time>2020-07-10T11:21:19Z</time>
      </trkpt>
      <trkpt lat="47.80805" lon="-3.40424">
        <ele>11.47</ele>
        <time>2020-07-10T11:21:20Z</time>
      </trkpt>
      <trkpt lat="47.80806" lon="-3.40427">
        <ele>10.82</ele>
        <time>2020-07-10T11:21:21Z</time>
      </trkpt>
      <trkpt lat="47.80808" lon="-3.40429">
        <ele>10.13</ele>
        <time>2020-07-10T11:21:22Z</time>
      </trkpt>
      <trkpt lat="47.8081" lon="-3.4043">
        <ele>9.46</ele>
        <time>2020-07-10T11:21:23Z</time>
      </trkpt>
      <trkpt lat="47.80813" lon="-3.40431">
        <ele>8.76</ele>
        <time>2020-07-10T11:21:24Z</time>
      </trkpt>
      <trkpt lat="47.80817" lon="-3.40432">
        <ele>8</ele>
        <time>2020-07-10T11:21:25Z</time>
      </trkpt>
      <trkpt lat="47.80822" lon="-3.40432">
        <ele>7.11</ele>
        <time>2020-07-10T11:21:26Z</time>
      </trkpt>
      <trkpt lat="47.80826" lon="-3.40434">
        <ele>6.21</ele>
        <time>2020-07-10T11:21:27Z</time>
      </trkpt>
      <trkpt lat="47.8083" lon="-3.40435">
        <ele>5.48</ele>
        <time>2020-07-10T11:21:28Z</time>
      </trkpt>
      <trkpt lat="47.80834" lon="-3.40436">
        <ele>4.92</ele>
        <time>2020-07-10T11:21:29Z</time>
      </trkpt>
      <trkpt lat="47.80838" lon="-3.40438">
        <ele>4.79</ele>
        <time>2020-07-10T11:21:30Z</time>
      </trkpt>
      <trkpt lat="47.80842" lon="-3.40439">
        <ele>4.75</ele>
        <time>2020-07-10T11:21:31Z</time>
      </trkpt>
      <trkpt lat="47.80845" lon="-3.40441">
        <ele>4.79</ele>
        <time>2020-07-10T11:21:32Z</time>
      </trkpt>
      <trkpt lat="47.80849" lon="-3.40442">
        <ele>4.83</ele>
        <time>2020-07-10T11:21:33Z</time>
      </trkpt>
      <trkpt lat="47.80852" lon="-3.40443">
        <ele>4.89</ele>
        <time>2020-07-10T11:21:34Z</time>
      </trkpt>
      <trkpt lat="47.80856" lon="-3.40444">
        <ele>4.95</ele>
        <time>2020-07-10T11:21:35Z</time>
      </trkpt>
      <trkpt lat="47.80859" lon="-3.40445">
        <ele>4.99</ele>
        <time>2020-07-10T11:21:36Z</time>
      </trkpt>
      <trkpt lat="47.80862" lon="-3.40447">
        <ele>4.98</ele>
        <time>2020-07-10T11:21:37Z</time>
      </trkpt>
      <trkpt lat="47.80866" lon="-3.40447">
        <ele>4.88</ele>
        <time>2020-07-10T11:21:38Z</time>
      </trkpt>
      <trkpt lat="47.8087" lon="-3.40449">
        <ele>4.78</ele>
        <time>2020-07-10T11:21:39Z</time>
      </trkpt>
      <trkpt lat="47.80874" lon="-3.40451">
        <ele>4.69</ele>
        <time>2020-07-10T11:21:40Z</time>
      </trkpt>
      <trkpt lat="47.80878" lon="-3.40452">
        <ele>4.6</ele>
        <time>2020-07-10T11:21:41Z</time>
      </trkpt>
      <trkpt lat="47.80883" lon="-3.40454">
        <ele>4.52</ele>
        <time>2020-07-10T11:21:42Z</time>
      </trkpt>
      <trkpt lat="47.80887" lon="-3.40455">
        <ele>4.44</ele>
        <time>2020-07-10T11:21:43Z</time>
      </trkpt>
      <trkpt lat="47.80891" lon="-3.40455">
        <ele>4.53</ele>
        <time>2020-07-10T11:21:44Z</time>
      </trkpt>
      <trkpt lat="47.80894" lon="-3.40455">
        <ele>4.8</ele>
        <time>2020-07-10T11:21:45Z</time>
      </trkpt>
      <trkpt lat="47.80898" lon="-3.40455">
        <ele>5.13</ele>
        <time>2020-07-10T11:21:46Z</time>
      </trkpt>
      <trkpt lat="47.80901" lon="-3.40453">
        <ele>5.39</ele>
        <time>2020-07-10T11:21:47Z</time>
      </trkpt>
      <trkpt lat="47.80905" lon="-3.40451">
        <ele>5.6</ele>
        <time>2020-07-10T11:21:48Z</time>
      </trkpt>
      <trkpt lat="47.80908" lon="-3.40448">
        <ele>5.67</ele>
        <time>2020-07-10T11:21:49Z</time>
      </trkpt>
      <trkpt lat="47.80912" lon="-3.40443">
        <ele>5.62</ele>
        <time>2020-07-10T11:21:50Z</time>
      </trkpt>
      <trkpt lat="47.80914" lon="-3.40438">
        <ele>5.62</ele>
        <time>2020-07-10T11:21:51Z</time>
      </trkpt>
      <trkpt lat="47.80917" lon="-3.40434">
        <ele>5.66</ele>
        <time>2020-07-10T11:21:52Z</time>
      </trkpt>
      <trkpt lat="47.80919" lon="-3.40429">
        <ele>5.88</ele>
        <time>2020-07-10T11:21:53Z</time>
      </trkpt>
      <trkpt lat="47.80921" lon="-3.40426">
        <ele>6.06</ele>
        <time>2020-07-10T11:21:54Z</time>
      </trkpt>
      <trkpt lat="47.80923" lon="-3.40422">
        <ele>6.2</ele>
        <time>2020-07-10T11:21:55Z</time>
      </trkpt>
      <trkpt lat="47.80925" lon="-3.40418">
        <ele>6.29</ele>
        <time>2020-07-10T11:21:56Z</time>
      </trkpt>
      <trkpt lat="47.80927" lon="-3.40415">
        <ele>6.35</ele>
        <time>2020-07-10T11:21:57Z</time>
      </trkpt>
      <trkpt lat="47.80929" lon="-3.40412">
        <ele>6.45</ele>
        <time>2020-07-10T11:21:58Z</time>
      </trkpt>
      <trkpt lat="47.80932" lon="-3.40409">
        <ele>6.53</ele>
        <time>2020-07-10T11:21:59Z</time>
      </trkpt>
      <trkpt lat="47.80934" lon="-3.40405">
        <ele>6.56</ele>
        <time>2020-07-10T11:22:00Z</time>
      </trkpt>
      <trkpt lat="47.80937" lon="-3.40401">
        <ele>6.55</ele>
        <time>2020-07-10T11:22:01Z</time>
      </trkpt>
      <trkpt lat="47.80939" lon="-3.40397">
        <ele>6.42</ele>
        <time>2020-07-10T11:22:02Z</time>
      </trkpt>
      <trkpt lat="47.80942" lon="-3.40392">
        <ele>6.27</ele>
        <time>2020-07-10T11:22:03Z</time>
      </trkpt>
      <trkpt lat="47.80945" lon="-3.40388">
        <ele>6.11</ele>
        <time>2020-07-10T11:22:04Z</time>
      </trkpt>
      <trkpt lat="47.80947" lon="-3.40384">
        <ele>6.16</ele>
        <time>2020-07-10T11:22:05Z</time>
      </trkpt>
      <trkpt lat="47.8095" lon="-3.4038">
        <ele>6.28</ele>
        <time>2020-07-10T11:22:06Z</time>
      </trkpt>
      <trkpt lat="47.80954" lon="-3.40375">
        <ele>6.34</ele>
        <time>2020-07-10T11:22:07Z</time>
      </trkpt>
      <trkpt lat="47.80957" lon="-3.4037">
        <ele>6.35</ele>
        <time>2020-07-10T11:22:08Z</time>
      </trkpt>
      <trkpt lat="47.8096" lon="-3.40366">
        <ele>6.29</ele>
        <time>2020-07-10T11:22:09Z</time>
      </trkpt>
      <trkpt lat="47.80964" lon="-3.40363">
        <ele>6.33</ele>
        <time>2020-07-10T11:22:10Z</time>
      </trkpt>
      <trkpt lat="47.80968" lon="-3.4036">
        <ele>6.4</ele>
        <time>2020-07-10T11:22:11Z</time>
      </trkpt>
      <trkpt lat="47.80971" lon="-3.40357">
        <ele>6.43</ele>
        <time>2020-07-10T11:22:12Z</time>
      </trkpt>
      <trkpt lat="47.80974" lon="-3.40354">
        <ele>6.45</ele>
        <time>2020-07-10T11:22:13Z</time>
      </trkpt>
      <trkpt lat="47.80977" lon="-3.40352">
        <ele>6.55</ele>
        <time>2020-07-10T11:22:14Z</time>
      </trkpt>
      <trkpt lat="47.80981" lon="-3.40348">
        <ele>6.55</ele>
        <time>2020-07-10T11:22:15Z</time>
      </trkpt>
      <trkpt lat="47.80985" lon="-3.40344">
        <ele>6.48</ele>
        <time>2020-07-10T11:22:16Z</time>
      </trkpt>
      <trkpt lat="47.80988" lon="-3.40341">
        <ele>6.36</ele>
        <time>2020-07-10T11:22:17Z</time>
      </trkpt>
      <trkpt lat="47.80992" lon="-3.40338">
        <ele>6.2</ele>
        <time>2020-07-10T11:22:18Z</time>
      </trkpt>
      <trkpt lat="47.80995" lon="-3.40334">
        <ele>5.9</ele>
        <time>2020-07-10T11:22:19Z</time>
      </trkpt>
      <trkpt lat="47.80999" lon="-3.40331">
        <ele>5.76</ele>
        <time>2020-07-10T11:22:20Z</time>
      </trkpt>
      <trkpt lat="47.81002" lon="-3.40327">
        <ele>5.96</ele>
        <time>2020-07-10T11:22:21Z</time>
      </trkpt>
      <trkpt lat="47.81006" lon="-3.40323">
        <ele>6.34</ele>
        <time>2020-07-10T11:22:22Z</time>
      </trkpt>
      <trkpt lat="47.81009" lon="-3.4032">
        <ele>6.75</ele>
        <time>2020-07-10T11:22:23Z</time>
      </trkpt>
      <trkpt lat="47.81012" lon="-3.40317">
        <ele>6.97</ele>
        <time>2020-07-10T11:22:24Z</time>
      </trkpt>
      <trkpt lat="47.81015" lon="-3.40313">
        <ele>7.17</ele>
        <time>2020-07-10T11:22:25Z</time>
      </trkpt>
      <trkpt lat="47.81019" lon="-3.40311">
        <ele>7.46</ele>
        <time>2020-07-10T11:22:26Z</time>
      </trkpt>
      <trkpt lat="47.81023" lon="-3.40308">
        <ele>7.63</ele>
        <time>2020-07-10T11:22:27Z</time>
      </trkpt>
      <trkpt lat="47.81026" lon="-3.40306">
        <ele>7.82</ele>
        <time>2020-07-10T11:22:28Z</time>
      </trkpt>
      <trkpt lat="47.8103" lon="-3.40306">
        <ele>8.11</ele>
        <time>2020-07-10T11:22:29Z</time>
      </trkpt>
      <trkpt lat="47.81034" lon="-3.40304">
        <ele>8.39</ele>
        <time>2020-07-10T11:22:30Z</time>
      </trkpt>
      <trkpt lat="47.81038" lon="-3.40303">
        <ele>8.66</ele>
        <time>2020-07-10T11:22:31Z</time>
      </trkpt>
      <trkpt lat="47.81042" lon="-3.40302">
        <ele>9</ele>
        <time>2020-07-10T11:22:32Z</time>
      </trkpt>
      <trkpt lat="47.81046" lon="-3.40303">
        <ele>9.5</ele>
        <time>2020-07-10T11:22:33Z</time>
      </trkpt>
      <trkpt lat="47.8105" lon="-3.40306">
        <ele>10.17</ele>
        <time>2020-07-10T11:22:34Z</time>
      </trkpt>
      <trkpt lat="47.81054" lon="-3.40309">
        <ele>11.06</ele>
        <time>2020-07-10T11:22:35Z</time>
      </trkpt>
      <trkpt lat="47.81058" lon="-3.40312">
        <ele>11.98</ele>
        <time>2020-07-10T11:22:36Z</time>
      </trkpt>
      <trkpt lat="47.81061" lon="-3.40316">
        <ele>12.75</ele>
        <time>2020-07-10T11:22:37Z</time>
      </trkpt>
      <trkpt lat="47.81064" lon="-3.4032">
        <ele>13.41</ele>
        <time>2020-07-10T11:22:38Z</time>
      </trkpt>
      <trkpt lat="47.81067" lon="-3.40325">
        <ele>13.92</ele>
        <time>2020-07-10T11:22:39Z</time>
      </trkpt>
      <trkpt lat="47.81069" lon="-3.40329">
        <ele>14.36</ele>
        <time>2020-07-10T11:22:40Z</time>
      </trkpt>
      <trkpt lat="47.81071" lon="-3.40333">
        <ele>14.67</ele>
        <time>2020-07-10T11:22:41Z</time>
      </trkpt>
      <trkpt lat="47.81072" lon="-3.40337">
        <ele>15.01</ele>
        <time>2020-07-10T11:22:42Z</time>
      </trkpt>
      <trkpt lat="47.81074" lon="-3.40342">
        <ele>15.38</ele>
        <time>2020-07-10T11:22:43Z</time>
      </trkpt>
      <trkpt lat="47.81077" lon="-3.40347">
        <ele>15.64</ele>
        <time>2020-07-10T11:22:44Z</time>
      </trkpt>
      <trkpt lat="47.81079" lon="-3.40352">
        <ele>15.8</ele>
        <time>2020-07-10T11:22:45Z</time>
      </trkpt>
      <trkpt lat="47.81082" lon="-3.40356">
        <ele>15.85</ele>
        <time>2020-07-10T11:22:46Z</time>
      </trkpt>
      <trkpt lat="47.81083" lon="-3.4036">
        <ele>15.88</ele>
        <time>2020-07-10T11:22:47Z</time>
      </trkpt>
      <trkpt lat="47.81085" lon="-3.40364">
        <ele>16.27</ele>
        <time>2020-07-10T11:22:48Z</time>
      </trkpt>
      <trkpt lat="47.81087" lon="-3.40367">
        <ele>16.77</ele>
        <time>2020-07-10T11:22:49Z</time>
      </trkpt>
      <trkpt lat="47.81089" lon="-3.4037">
        <ele>17.17</ele>
        <time>2020-07-10T11:22:50Z</time>
      </trkpt>
      <trkpt lat="47.81091" lon="-3.40374">
        <ele>17.54</ele>
        <time>2020-07-10T11:22:51Z</time>
      </trkpt>
      <trkpt lat="47.81094" lon="-3.40379">
        <ele>17.8</ele>
        <time>2020-07-10T11:22:52Z</time>
      </trkpt>
      <trkpt lat="47.81097" lon="-3.40383">
        <ele>17.89</ele>
        <time>2020-07-10T11:22:53Z</time>
      </trkpt>
      <trkpt lat="47.81101" lon="-3.40387">
        <ele>17.75</ele>
        <time>2020-07-10T11:22:54Z</time>
      </trkpt>
      <trkpt lat="47.81104" lon="-3.40391">
        <ele>17.65</ele>
        <time>2020-07-10T11:22:55Z</time>
      </trkpt>
      <trkpt lat="47.81106" lon="-3.40395">
        <ele>17.59</ele>
        <time>2020-07-10T11:22:56Z</time>
      </trkpt>
      <trkpt lat="47.81109" lon="-3.40399">
        <ele>17.56</ele>
        <time>2020-07-10T11:22:57Z</time>
      </trkpt>
      <trkpt lat="47.81111" lon="-3.40403">
        <ele>17.6</ele>
        <time>2020-07-10T11:22:58Z</time>
      </trkpt>
      <trkpt lat="47.81113" lon="-3.40407">
        <ele>17.92</ele>
        <time>2020-07-10T11:22:59Z</time>
      </trkpt>
      <trkpt lat="47.81115" lon="-3.4041">
        <ele>18.38</ele>
        <time>2020-07-10T11:23:00Z</time>
      </trkpt>
      <trkpt lat="47.81117" lon="-3.40414">
        <ele>18.82</ele>
        <time>2020-07-10T11:23:01Z</time>
      </trkpt>
      <trkpt lat="47.81117" lon="-3.40418">
        <ele>19.16</ele>
        <time>2020-07-10T11:23:02Z</time>
      </trkpt>
      <trkpt lat="47.81119" lon="-3.40421">
        <ele>19.47</ele>
        <time>2020-07-10T11:23:03Z</time>
      </trkpt>
      <trkpt lat="47.8112" lon="-3.40422">
        <ele>19.67</ele>
        <time>2020-07-10T11:23:04Z</time>
      </trkpt>
      <trkpt lat="47.81122" lon="-3.40425">
        <ele>19.86</ele>
        <time>2020-07-10T11:23:05Z</time>
      </trkpt>
      <trkpt lat="47.81123" lon="-3.40426">
        <ele>19.97</ele>
        <time>2020-07-10T11:23:06Z</time>
      </trkpt>
      <trkpt lat="47.81123" lon="-3.40426">
        <ele>20.01</ele>
        <time>2020-07-10T11:23:07Z</time>
      </trkpt>
      <trkpt lat="47.81124" lon="-3.40426">
        <ele>20.02</ele>
        <time>2020-07-10T11:23:08Z</time>
      </trkpt>
      <trkpt lat="47.81124" lon="-3.40426">
        <ele>20.02</ele>
        <time>2020-07-10T11:23:09Z</time>
      </trkpt>
      <trkpt lat="47.81124" lon="-3.40426">
        <ele>20.02</ele>
        <time>2020-07-10T11:23:10Z</time>
      </trkpt>
      <trkpt lat="47.81124" lon="-3.40426">
        <ele>20.02</ele>
        <time>2020-07-10T11:23:11Z</time>
      </trkpt>
      <trkpt lat="47.81124" lon="-3.40426">
        <ele>20.02</ele>
        <time>2020-07-10T11:23:12Z</time>
      </trkpt>
      <trkpt lat="47.81124" lon="-3.40426">
        <ele>20.02</ele>
        <time>2020-07-10T11:23:13Z</time>
      </trkpt>
      <trkpt lat="47.81124" lon="-3.40426">
        <ele>20.02</ele>
        <time>2020-07-10T11:23:14Z</time>
      </trkpt>
      <trkpt lat="47.81124" lon="-3.40426">
        <ele>20.02</ele>
        <time>2020-07-10T11:23:15Z</time>
      </trkpt>
      <trkpt lat="47.81124" lon="-3.40426">
        <ele>20.02</ele>
        <time>2020-07-10T11:23:16Z</time>
      </trkpt>
      <trkpt lat="47.81124" lon="-3.40426">
        <ele>20.02</ele>
        <time>2020-07-10T11:23:17Z</time>
      </trkpt>
      <trkpt lat="47.81124" lon="-3.40426">
        <ele>20.02</ele>
        <time>2020-07-10T11:23:18Z</time>
      </trkpt>
      <trkpt lat="47.81124" lon="-3.40426">
        <ele>20.02</ele>
        <time>2020-07-10T11:23:19Z</time>
      </trkpt>
      <trkpt lat="47.81124" lon="-3.40426">
        <ele>20.02</ele>
        <time>2020-07-10T11:23:20Z</time>
      </trkpt>
      <trkpt lat="47.81124" lon="-3.40426">
        <ele>20.02</ele>
        <time>2020-07-10T11:23:21Z</time>
      </trkpt>
      <trkpt lat="47.81124" lon="-3.40426">
        <ele>20.02</ele>
        <time>2020-07-10T11:23:22Z</time>
      </trkpt>
      <trkpt lat="47.81124" lon="-3.40426">
        <ele>20.02</ele>
        <time>2020-07-10T11:23:23Z</time>
      </trkpt>
      <trkpt lat="47.81124" lon="-3.40426">
        <ele>20.02</ele>
        <time>2020-07-10T11:23:24Z</time>
      </trkpt>
      <trkpt lat="47.81124" lon="-3.40426">
        <ele>20.02</ele>
        <time>2020-07-10T11:23:25Z</time>
      </trkpt>
      <trkpt lat="47.81124" lon="-3.40426">
        <ele>20.02</ele>
        <time>2020-07-10T11:23:26Z</time>
      </trkpt>
      <trkpt lat="47.81124" lon="-3.40426">
        <ele>20.02</ele>
        <time>2020-07-10T11:23:27Z</time>
      </trkpt>
      <trkpt lat="47.81124" lon="-3.40426">
        <ele>20.02</ele>
        <time>2020-07-10T11:23:28Z</time>
      </trkpt>
      <trkpt lat="47.81124" lon="-3.40426">
        <ele>20.02</ele>
        <time>2020-07-10T11:23:29Z</time>
      </trkpt>
      <trkpt lat="47.81124" lon="-3.40426">
        <ele>20.02</ele>
        <time>2020-07-10T11:23:30Z</time>
      </trkpt>
      <trkpt lat="47.81124" lon="-3.40426">
        <ele>20.02</ele>
        <time>2020-07-10T11:23:31Z</time>
      </trkpt>
      <trkpt lat="47.81124" lon="-3.40426">
        <ele>20.02</ele>
        <time>2020-07-10T11:23:32Z</time>
      </trkpt>
      <trkpt lat="47.81124" lon="-3.40426">
        <ele>20.02</ele>
        <time>2020-07-10T11:23:33Z</time>
      </trkpt>
      <trkpt lat="47.81124" lon="-3.40426">
        <ele>20.02</ele>
        <time>2020-07-10T11:23:34Z</time>
      </trkpt>
      <trkpt lat="47.81124" lon="-3.40426">
        <ele>20.02</ele>
        <time>2020-07-10T11:23:35Z</time>
      </trkpt>
      <trkpt lat="47.81124" lon="-3.40426">
        <ele>20.02</ele>
        <time>2020-07-10T11:23:36Z</time>
      </trkpt>
      <trkpt lat="47.81124" lon="-3.40426">
        <ele>20.02</ele>
        <time>2020-07-10T11:23:37Z</time>
      </trkpt>
      <trkpt lat="47.81124" lon="-3.40426">
        <ele>20.02</ele>
        <time>2020-07-10T11:23:38Z</time>
      </trkpt>
      <trkpt lat="47.81124" lon="-3.40426">
        <ele>20.02</ele>
        <time>2020-07-10T11:23:39Z</time>
      </trkpt>
      <trkpt lat="47.81124" lon="-3.40426">
        <ele>20.02</ele>
        <time>2020-07-10T11:23:40Z</time>
      </trkpt>
      <trkpt lat="47.81124" lon="-3.40426">
        <ele>20.02</ele>
        <time>2020-07-10T11:23:41Z</time>
      </trkpt>
      <trkpt lat="47.81124" lon="-3.40426">
        <ele>20.02</ele>
        <time>2020-07-10T11:23:42Z</time>
      </trkpt>
      <trkpt lat="47.81124" lon="-3.40426">
        <ele>20.02</ele>
        <time>2020-07-10T11:23:43Z</time>
      </trkpt>
      <trkpt lat="47.81124" lon="-3.40426">
        <ele>20.02</ele>
        <time>2020-07-10T11:23:44Z</time>
      </trkpt>
      <trkpt lat="47.81124" lon="-3.40426">
        <ele>20.02</ele>
        <time>2020-07-10T11:23:45Z</time>
      </trkpt>
      <trkpt lat="47.81124" lon="-3.40426">
        <ele>20.02</ele>
        <time>2020-07-10T11:23:46Z</time>
      </trkpt>
      <trkpt lat="47.81124" lon="-3.40426">
        <ele>20.02</ele>
        <time>2020-07-10T11:23:47Z</time>
      </trkpt>
      <trkpt lat="47.81124" lon="-3.40426">
        <ele>20.02</ele>
        <time>2020-07-10T11:23:48Z</time>
      </trkpt>
      <trkpt lat="47.81124" lon="-3.40426">
        <ele>20.02</ele>
        <time>2020-07-10T11:23:49Z</time>
      </trkpt>
      <trkpt lat="47.81124" lon="-3.40426">
        <ele>20.02</ele>
        <time>2020-07-10T11:23:50Z</time>
      </trkpt>
      <trkpt lat="47.81124" lon="-3.40426">
        <ele>20.02</ele>
        <time>2020-07-10T11:23:51Z</time>
      </trkpt>
      <trkpt lat="47.81124" lon="-3.40426">
        <ele>20.02</ele>
        <time>2020-07-10T11:23:52Z</time>
      </trkpt>
      <trkpt lat="47.81124" lon="-3.40426">
        <ele>20.02</ele>
        <time>2020-07-10T11:23:53Z</time>
      </trkpt>
      <trkpt lat="47.81124" lon="-3.40426">
        <ele>20.02</ele>
        <time>2020-07-10T11:23:54Z</time>
      </trkpt>
      <trkpt lat="47.81124" lon="-3.40426">
        <ele>20.02</ele>
        <time>2020-07-10T11:23:55Z</time>
      </trkpt>
      <trkpt lat="47.81124" lon="-3.40426">
        <ele>20.02</ele>
        <time>2020-07-10T11:23:56Z</time>
      </trkpt>
      <trkpt lat="47.81124" lon="-3.40426">
        <ele>20.02</ele>
        <time>2020-07-10T11:23:57Z</time>
      </trkpt>
      <trkpt lat="47.81124" lon="-3.40426">
        <ele>20.02</ele>
        <time>2020-07-10T11:23:58Z</time>
      </trkpt>
      <trkpt lat="47.81124" lon="-3.40426">
        <ele>20.02</ele>
        <time>2020-07-10T11:23:59Z</time>
      </trkpt>
      <trkpt lat="47.81124" lon="-3.40426">
        <ele>20.02</ele>
        <time>2020-07-10T11:24:00Z</time>
      </trkpt>
      <trkpt lat="47.81124" lon="-3.40426">
        <ele>20.02</ele>
        <time>2020-07-10T11:24:01Z</time>
      </trkpt>
      <trkpt lat="47.81123" lon="-3.40433">
        <ele>20.3</ele>
        <time>2020-07-10T11:24:02Z</time>
      </trkpt>
      <trkpt lat="47.81125" lon="-3.40435">
        <ele>20.41</ele>
        <time>2020-07-10T11:24:03Z</time>
      </trkpt>
      <trkpt lat="47.81126" lon="-3.40437">
        <ele>20.51</ele>
        <time>2020-07-10T11:24:04Z</time>
      </trkpt>
      <trkpt lat="47.81127" lon="-3.4044">
        <ele>20.6</ele>
        <time>2020-07-10T11:24:05Z</time>
      </trkpt>
      <trkpt lat="47.81127" lon="-3.40443">
        <ele>20.72</ele>
        <time>2020-07-10T11:24:06Z</time>
      </trkpt>
      <trkpt lat="47.81128" lon="-3.40447">
        <ele>20.91</ele>
        <time>2020-07-10T11:24:07Z</time>
      </trkpt>
      <trkpt lat="47.81128" lon="-3.40451">
        <ele>21.21</ele>
        <time>2020-07-10T11:24:08Z</time>
      </trkpt>
      <trkpt lat="47.81129" lon="-3.40455">
        <ele>21.5</ele>
        <time>2020-07-10T11:24:09Z</time>
      </trkpt>
      <trkpt lat="47.8113" lon="-3.40459">
        <ele>21.74</ele>
        <time>2020-07-10T11:24:10Z</time>
      </trkpt>
      <trkpt lat="47.81131" lon="-3.40464">
        <ele>21.89</ele>
        <time>2020-07-10T11:24:11Z</time>
      </trkpt>
      <trkpt lat="47.81133" lon="-3.40468">
        <ele>21.98</ele>
        <time>2020-07-10T11:24:12Z</time>
      </trkpt>
      <trkpt lat="47.81135" lon="-3.40473">
        <ele>21.96</ele>
        <time>2020-07-10T11:24:13Z</time>
      </trkpt>
      <trkpt lat="47.81137" lon="-3.40479">
        <ele>22.01</ele>
        <time>2020-07-10T11:24:14Z</time>
      </trkpt>
      <trkpt lat="47.81138" lon="-3.40484">
        <ele>22</ele>
        <time>2020-07-10T11:24:15Z</time>
      </trkpt>
      <trkpt lat="47.8114" lon="-3.40487">
        <ele>22.06</ele>
        <time>2020-07-10T11:24:16Z</time>
      </trkpt>
      <trkpt lat="47.81142" lon="-3.4049">
        <ele>22.19</ele>
        <time>2020-07-10T11:24:17Z</time>
      </trkpt>
      <trkpt lat="47.81143" lon="-3.40493">
        <ele>22.34</ele>
        <time>2020-07-10T11:24:18Z</time>
      </trkpt>
      <trkpt lat="47.81144" lon="-3.40495">
        <ele>22.48</ele>
        <time>2020-07-10T11:24:19Z</time>
      </trkpt>
      <trkpt lat="47.81145" lon="-3.40498">
        <ele>22.6</ele>
        <time>2020-07-10T11:24:20Z</time>
      </trkpt>
      <trkpt lat="47.81146" lon="-3.40501">
        <ele>22.77</ele>
        <time>2020-07-10T11:24:21Z</time>
      </trkpt>
      <trkpt lat="47.81146" lon="-3.40505">
        <ele>23.04</ele>
        <time>2020-07-10T11:24:22Z</time>
      </trkpt>
      <trkpt lat="47.81147" lon="-3.40508">
        <ele>23.32</ele>
        <time>2020-07-10T11:24:23Z</time>
      </trkpt>
      <trkpt lat="47.81149" lon="-3.40512">
        <ele>23.55</ele>
        <time>2020-07-10T11:24:24Z</time>
      </trkpt>
      <trkpt lat="47.8115" lon="-3.40516">
        <ele>23.76</ele>
        <time>2020-07-10T11:24:25Z</time>
      </trkpt>
      <trkpt lat="47.81151" lon="-3.4052">
        <ele>23.97</ele>
        <time>2020-07-10T11:24:26Z</time>
      </trkpt>
      <trkpt lat="47.81153" lon="-3.40523">
        <ele>24.1</ele>
        <time>2020-07-10T11:24:27Z</time>
      </trkpt>
      <trkpt lat="47.81154" lon="-3.40527">
        <ele>24.24</ele>
        <time>2020-07-10T11:24:28Z</time>
      </trkpt>
      <trkpt lat="47.81155" lon="-3.4053">
        <ele>24.34</ele>
        <time>2020-07-10T11:24:29Z</time>
      </trkpt>
      <trkpt lat="47.81156" lon="-3.40533">
        <ele>24.36</ele>
        <time>2020-07-10T11:24:30Z</time>
      </trkpt>
      <trkpt lat="47.81158" lon="-3.40536">
        <ele>24.34</ele>
        <time>2020-07-10T11:24:31Z</time>
      </trkpt>
      <trkpt lat="47.81159" lon="-3.40539">
        <ele>24.32</ele>
        <time>2020-07-10T11:24:32Z</time>
      </trkpt>
      <trkpt lat="47.8116" lon="-3.40543">
        <ele>24.29</ele>
        <time>2020-07-10T11:24:33Z</time>
      </trkpt>
      <trkpt lat="47.81161" lon="-3.40547">
        <ele>24.19</ele>
        <time>2020-07-10T11:24:34Z</time>
      </trkpt>
      <trkpt lat="47.81163" lon="-3.40552">
        <ele>24.01</ele>
        <time>2020-07-10T11:24:35Z</time>
      </trkpt>
      <trkpt lat="47.81163" lon="-3.40557">
        <ele>24</ele>
        <time>2020-07-10T11:24:36Z</time>
      </trkpt>
      <trkpt lat="47.81166" lon="-3.40562">
        <ele>23.69</ele>
        <time>2020-07-10T11:24:37Z</time>
      </trkpt>
      <trkpt lat="47.81169" lon="-3.40567">
        <ele>23.88</ele>
        <time>2020-07-10T11:24:38Z</time>
      </trkpt>
      <trkpt lat="47.81171" lon="-3.40573">
        <ele>24.23</ele>
        <time>2020-07-10T11:24:39Z</time>
      </trkpt>
      <trkpt lat="47.81174" lon="-3.40579">
        <ele>24.51</ele>
        <time>2020-07-10T11:24:40Z</time>
      </trkpt>
      <trkpt lat="47.81176" lon="-3.40585">
        <ele>24.73</ele>
        <time>2020-07-10T11:24:41Z</time>
      </trkpt>
      <trkpt lat="47.81179" lon="-3.4059">
        <ele>25.08</ele>
        <time>2020-07-10T11:24:42Z</time>
      </trkpt>
      <trkpt lat="47.81181" lon="-3.40596">
        <ele>25.41</ele>
        <time>2020-07-10T11:24:43Z</time>
      </trkpt>
      <trkpt lat="47.81184" lon="-3.406">
        <ele>25.58</ele>
        <time>2020-07-10T11:24:44Z</time>
      </trkpt>
      <trkpt lat="47.81188" lon="-3.40605">
        <ele>25.58</ele>
        <time>2020-07-10T11:24:45Z</time>
      </trkpt>
      <trkpt lat="47.81192" lon="-3.4061">
        <ele>25.42</ele>
        <time>2020-07-10T11:24:46Z</time>
      </trkpt>
      <trkpt lat="47.81195" lon="-3.40614">
        <ele>25.29</ele>
        <time>2020-07-10T11:24:47Z</time>
      </trkpt>
      <trkpt lat="47.81198" lon="-3.40618">
        <ele>25.49</ele>
        <time>2020-07-10T11:24:48Z</time>
      </trkpt>
      <trkpt lat="47.81201" lon="-3.40622">
        <ele>25.72</ele>
        <time>2020-07-10T11:24:49Z</time>
      </trkpt>
      <trkpt lat="47.81204" lon="-3.40626">
        <ele>25.94</ele>
        <time>2020-07-10T11:24:50Z</time>
      </trkpt>
      <trkpt lat="47.81207" lon="-3.4063">
        <ele>26.11</ele>
        <time>2020-07-10T11:24:51Z</time>
      </trkpt>
      <trkpt lat="47.8121" lon="-3.40633">
        <ele>26.21</ele>
        <time>2020-07-10T11:24:52Z</time>
      </trkpt>
      <trkpt lat="47.81214" lon="-3.40638">
        <ele>26.25</ele>
        <time>2020-07-10T11:24:53Z</time>
      </trkpt>
      <trkpt lat="47.81218" lon="-3.40643">
        <ele>26.35</ele>
        <time>2020-07-10T11:24:54Z</time>
      </trkpt>
      <trkpt lat="47.8122" lon="-3.40648">
        <ele>26.48</ele>
        <time>2020-07-10T11:24:55Z</time>
      </trkpt>
      <trkpt lat="47.81222" lon="-3.40654">
        <ele>26.52</ele>
        <time>2020-07-10T11:24:56Z</time>
      </trkpt>
      <trkpt lat="47.81225" lon="-3.40658">
        <ele>26.78</ele>
        <time>2020-07-10T11:24:57Z</time>
      </trkpt>
      <trkpt lat="47.81227" lon="-3.40665">
        <ele>27.03</ele>
        <time>2020-07-10T11:24:58Z</time>
      </trkpt>
      <trkpt lat="47.81229" lon="-3.4067">
        <ele>27.31</ele>
        <time>2020-07-10T11:24:59Z</time>
      </trkpt>
      <trkpt lat="47.8123" lon="-3.40675">
        <ele>27.64</ele>
        <time>2020-07-10T11:25:00Z</time>
      </trkpt>
      <trkpt lat="47.8123" lon="-3.40679">
        <ele>27.94</ele>
        <time>2020-07-10T11:25:01Z</time>
      </trkpt>
      <trkpt lat="47.8123" lon="-3.40684">
        <ele>28.25</ele>
        <time>2020-07-10T11:25:02Z</time>
      </trkpt>
      <trkpt lat="47.81229" lon="-3.4069">
        <ele>28.59</ele>
        <time>2020-07-10T11:25:03Z</time>
      </trkpt>
      <trkpt lat="47.81229" lon="-3.40696">
        <ele>28.88</ele>
        <time>2020-07-10T11:25:04Z</time>
      </trkpt>
      <trkpt lat="47.81229" lon="-3.40701">
        <ele>28.96</ele>
        <time>2020-07-10T11:25:05Z</time>
      </trkpt>
      <trkpt lat="47.81229" lon="-3.40706">
        <ele>28.99</ele>
        <time>2020-07-10T11:25:06Z</time>
      </trkpt>
      <trkpt lat="47.81231" lon="-3.4071">
        <ele>29</ele>
        <time>2020-07-10T11:25:07Z</time>
      </trkpt>
      <trkpt lat="47.81232" lon="-3.40715">
        <ele>29</ele>
        <time>2020-07-10T11:25:08Z</time>
      </trkpt>
      <trkpt lat="47.81232" lon="-3.4072">
        <ele>29</ele>
        <time>2020-07-10T11:25:09Z</time>
      </trkpt>
      <trkpt lat="47.81231" lon="-3.40724">
        <ele>29.04</ele>
        <time>2020-07-10T11:25:10Z</time>
      </trkpt>
      <trkpt lat="47.81231" lon="-3.40728">
        <ele>29.11</ele>
        <time>2020-07-10T11:25:11Z</time>
      </trkpt>
      <trkpt lat="47.81232" lon="-3.40731">
        <ele>29.18</ele>
        <time>2020-07-10T11:25:12Z</time>
      </trkpt>
      <trkpt lat="47.81232" lon="-3.40733">
        <ele>29.23</ele>
        <time>2020-07-10T11:25:13Z</time>
      </trkpt>
      <trkpt lat="47.81233" lon="-3.40734">
        <ele>29.25</ele>
        <time>2020-07-10T11:25:14Z</time>
      </trkpt>
      <trkpt lat="47.81233" lon="-3.40734">
        <ele>29.25</ele>
        <time>2020-07-10T11:25:15Z</time>
      </trkpt>
      <trkpt lat="47.81233" lon="-3.40734">
        <ele>29.26</ele>
        <time>2020-07-10T11:25:16Z</time>
      </trkpt>
      <trkpt lat="47.81233" lon="-3.40734">
        <ele>29.26</ele>
        <time>2020-07-10T11:25:17Z</time>
      </trkpt>
      <trkpt lat="47.81233" lon="-3.40734">
        <ele>29.26</ele>
        <time>2020-07-10T11:25:18Z</time>
      </trkpt>
      <trkpt lat="47.81233" lon="-3.40734">
        <ele>29.26</ele>
        <time>2020-07-10T11:25:19Z</time>
      </trkpt>
      <trkpt lat="47.81233" lon="-3.40734">
        <ele>29.26</ele>
        <time>2020-07-10T11:25:20Z</time>
      </trkpt>
      <trkpt lat="47.81233" lon="-3.40734">
        <ele>29.26</ele>
        <time>2020-07-10T11:25:21Z</time>
      </trkpt>
      <trkpt lat="47.81233" lon="-3.40734">
        <ele>29.26</ele>
        <time>2020-07-10T11:25:22Z</time>
      </trkpt>
      <trkpt lat="47.81233" lon="-3.40734">
        <ele>29.26</ele>
        <time>2020-07-10T11:25:23Z</time>
      </trkpt>
      <trkpt lat="47.81233" lon="-3.40734">
        <ele>29.26</ele>
        <time>2020-07-10T11:25:24Z</time>
      </trkpt>
      <trkpt lat="47.81233" lon="-3.40734">
        <ele>29.26</ele>
        <time>2020-07-10T11:25:25Z</time>
      </trkpt>
      <trkpt lat="47.81233" lon="-3.40734">
        <ele>29.26</ele>
        <time>2020-07-10T11:25:26Z</time>
      </trkpt>
      <trkpt lat="47.81233" lon="-3.40734">
        <ele>29.26</ele>
        <time>2020-07-10T11:25:27Z</time>
      </trkpt>
      <trkpt lat="47.81233" lon="-3.40734">
        <ele>29.26</ele>
        <time>2020-07-10T11:25:28Z</time>
      </trkpt>
      <trkpt lat="47.81233" lon="-3.40734">
        <ele>29.26</ele>
        <time>2020-07-10T11:25:29Z</time>
      </trkpt>
      <trkpt lat="47.81233" lon="-3.40734">
        <ele>29.26</ele>
        <time>2020-07-10T11:25:30Z</time>
      </trkpt>
      <trkpt lat="47.81233" lon="-3.40734">
        <ele>29.26</ele>
        <time>2020-07-10T11:25:31Z</time>
      </trkpt>
      <trkpt lat="47.81233" lon="-3.40734">
        <ele>29.26</ele>
        <time>2020-07-10T11:25:32Z</time>
      </trkpt>
      <trkpt lat="47.81233" lon="-3.40734">
        <ele>29.26</ele>
        <time>2020-07-10T11:25:33Z</time>
      </trkpt>
      <trkpt lat="47.81233" lon="-3.40734">
        <ele>29.26</ele>
        <time>2020-07-10T11:25:34Z</time>
      </trkpt>
      <trkpt lat="47.81233" lon="-3.40734">
        <ele>29.26</ele>
        <time>2020-07-10T11:25:35Z</time>
      </trkpt>
      <trkpt lat="47.81233" lon="-3.40734">
        <ele>29.26</ele>
        <time>2020-07-10T11:25:36Z</time>
      </trkpt>
      <trkpt lat="47.81233" lon="-3.40734">
        <ele>29.26</ele>
        <time>2020-07-10T11:25:37Z</time>
      </trkpt>
      <trkpt lat="47.81233" lon="-3.40734">
        <ele>29.26</ele>
        <time>2020-07-10T11:25:38Z</time>
      </trkpt>
      <trkpt lat="47.81233" lon="-3.40734">
        <ele>29.26</ele>
        <time>2020-07-10T11:25:39Z</time>
      </trkpt>
      <trkpt lat="47.81233" lon="-3.40734">
        <ele>29.26</ele>
        <time>2020-07-10T11:25:40Z</time>
      </trkpt>
      <trkpt lat="47.81233" lon="-3.40734">
        <ele>29.26</ele>
        <time>2020-07-10T11:25:41Z</time>
      </trkpt>
      <trkpt lat="47.81233" lon="-3.40734">
        <ele>29.26</ele>
        <time>2020-07-10T11:25:42Z</time>
      </trkpt>
      <trkpt lat="47.81233" lon="-3.40734">
        <ele>29.26</ele>
        <time>2020-07-10T11:25:43Z</time>
      </trkpt>
      <trkpt lat="47.81233" lon="-3.40734">
        <ele>29.26</ele>
        <time>2020-07-10T11:25:44Z</time>
      </trkpt>
      <trkpt lat="47.81233" lon="-3.40734">
        <ele>29.26</ele>
        <time>2020-07-10T11:25:45Z</time>
      </trkpt>
      <trkpt lat="47.81233" lon="-3.40734">
        <ele>29.26</ele>
        <time>2020-07-10T11:25:46Z</time>
      </trkpt>
      <trkpt lat="47.81233" lon="-3.40734">
        <ele>29.26</ele>
        <time>2020-07-10T11:25:47Z</time>
      </trkpt>
      <trkpt lat="47.81233" lon="-3.40734">
        <ele>29.26</ele>
        <time>2020-07-10T11:25:48Z</time>
      </trkpt>
      <trkpt lat="47.81233" lon="-3.40734">
        <ele>29.26</ele>
        <time>2020-07-10T11:25:49Z</time>
      </trkpt>
      <trkpt lat="47.81233" lon="-3.40734">
        <ele>29.26</ele>
        <time>2020-07-10T11:25:50Z</time>
      </trkpt>
      <trkpt lat="47.81233" lon="-3.40734">
        <ele>29.26</ele>
        <time>2020-07-10T11:25:51Z</time>
      </trkpt>
      <trkpt lat="47.81233" lon="-3.40734">
        <ele>29.26</ele>
        <time>2020-07-10T11:25:52Z</time>
      </trkpt>
      <trkpt lat="47.81233" lon="-3.40734">
        <ele>29.26</ele>
        <time>2020-07-10T11:25:53Z</time>
      </trkpt>
      <trkpt lat="47.81233" lon="-3.40734">
        <ele>29.26</ele>
        <time>2020-07-10T11:25:54Z</time>
      </trkpt>
      <trkpt lat="47.81233" lon="-3.40734">
        <ele>29.26</ele>
        <time>2020-07-10T11:25:55Z</time>
      </trkpt>
      <trkpt lat="47.81233" lon="-3.40734">
        <ele>29.26</ele>
        <time>2020-07-10T11:25:56Z</time>
      </trkpt>
      <trkpt lat="47.81233" lon="-3.40734">
        <ele>29.26</ele>
        <time>2020-07-10T11:25:57Z</time>
      </trkpt>
      <trkpt lat="47.81233" lon="-3.40734">
        <ele>29.26</ele>
        <time>2020-07-10T11:25:58Z</time>
      </trkpt>
      <trkpt lat="47.81233" lon="-3.40734">
        <ele>29.26</ele>
        <time>2020-07-10T11:25:59Z</time>
      </trkpt>
      <trkpt lat="47.81233" lon="-3.40734">
        <ele>29.26</ele>
        <time>2020-07-10T11:26:00Z</time>
      </trkpt>
      <trkpt lat="47.81233" lon="-3.40734">
        <ele>29.26</ele>
        <time>2020-07-10T11:26:01Z</time>
      </trkpt>
      <trkpt lat="47.81233" lon="-3.40734">
        <ele>29.26</ele>
        <time>2020-07-10T11:26:02Z</time>
      </trkpt>
      <trkpt lat="47.81233" lon="-3.40734">
        <ele>29.26</ele>
        <time>2020-07-10T11:26:03Z</time>
      </trkpt>
      <trkpt lat="47.81233" lon="-3.40734">
        <ele>29.26</ele>
        <time>2020-07-10T11:26:04Z</time>
      </trkpt>
      <trkpt lat="47.81233" lon="-3.40734">
        <ele>29.26</ele>
        <time>2020-07-10T11:26:05Z</time>
      </trkpt>
      <trkpt lat="47.81233" lon="-3.40734">
        <ele>29.26</ele>
        <time>2020-07-10T11:26:06Z</time>
      </trkpt>
      <trkpt lat="47.81233" lon="-3.40734">
        <ele>29.26</ele>
        <time>2020-07-10T11:26:07Z</time>
      </trkpt>
      <trkpt lat="47.81233" lon="-3.40734">
        <ele>29.26</ele>
        <time>2020-07-10T11:26:08Z</time>
      </trkpt>
      <trkpt lat="47.81233" lon="-3.40734">
        <ele>29.26</ele>
        <time>2020-07-10T11:26:09Z</time>
      </trkpt>
      <trkpt lat="47.81233" lon="-3.40734">
        <ele>29.26</ele>
        <time>2020-07-10T11:26:10Z</time>
      </trkpt>
      <trkpt lat="47.81233" lon="-3.40734">
        <ele>29.26</ele>
        <time>2020-07-10T11:26:11Z</time>
      </trkpt>
      <trkpt lat="47.81233" lon="-3.40734">
        <ele>29.26</ele>
        <time>2020-07-10T11:26:12Z</time>
      </trkpt>
      <trkpt lat="47.81233" lon="-3.40734">
        <ele>29.26</ele>
        <time>2020-07-10T11:26:13Z</time>
      </trkpt>
      <trkpt lat="47.81233" lon="-3.40734">
        <ele>29.26</ele>
        <time>2020-07-10T11:26:14Z</time>
      </trkpt>
      <trkpt lat="47.81233" lon="-3.40734">
        <ele>29.26</ele>
        <time>2020-07-10T11:26:15Z</time>
      </trkpt>
      <trkpt lat="47.81233" lon="-3.40734">
        <ele>29.26</ele>
        <time>2020-07-10T11:26:16Z</time>
      </trkpt>
      <trkpt lat="47.81233" lon="-3.40734">
        <ele>29.26</ele>
        <time>2020-07-10T11:26:17Z</time>
      </trkpt>
      <trkpt lat="47.81233" lon="-3.40734">
        <ele>29.26</ele>
        <time>2020-07-10T11:26:18Z</time>
      </trkpt>
      <trkpt lat="47.81233" lon="-3.40734">
        <ele>29.26</ele>
        <time>2020-07-10T11:26:19Z</time>
      </trkpt>
      <trkpt lat="47.81233" lon="-3.40734">
        <ele>29.26</ele>
        <time>2020-07-10T11:26:20Z</time>
      </trkpt>
      <trkpt lat="47.81233" lon="-3.40734">
        <ele>29.26</ele>
        <time>2020-07-10T11:26:21Z</time>
      </trkpt>
      <trkpt lat="47.81233" lon="-3.40734">
        <ele>29.26</ele>
        <time>2020-07-10T11:26:22Z</time>
      </trkpt>
      <trkpt lat="47.81233" lon="-3.40734">
        <ele>29.26</ele>
        <time>2020-07-10T11:26:23Z</time>
      </trkpt>
      <trkpt lat="47.81233" lon="-3.40734">
        <ele>29.26</ele>
        <time>2020-07-10T11:26:24Z</time>
      </trkpt>
      <trkpt lat="47.81233" lon="-3.40734">
        <ele>29.26</ele>
        <time>2020-07-10T11:26:25Z</time>
      </trkpt>
      <trkpt lat="47.81233" lon="-3.40734">
        <ele>29.26</ele>
        <time>2020-07-10T11:26:26Z</time>
      </trkpt>
      <trkpt lat="47.81233" lon="-3.40734">
        <ele>29.26</ele>
        <time>2020-07-10T11:26:27Z</time>
      </trkpt>
      <trkpt lat="47.81237" lon="-3.40743">
        <ele>29.32</ele>
        <time>2020-07-10T11:26:28Z</time>
      </trkpt>
      <trkpt lat="47.81239" lon="-3.40745">
        <ele>29.33</ele>
        <time>2020-07-10T11:26:29Z</time>
      </trkpt>
      <trkpt lat="47.81241" lon="-3.40748">
        <ele>29.32</ele>
        <time>2020-07-10T11:26:30Z</time>
      </trkpt>
      <trkpt lat="47.81242" lon="-3.40751">
        <ele>29.31</ele>
        <time>2020-07-10T11:26:31Z</time>
      </trkpt>
      <trkpt lat="47.81244" lon="-3.40754">
        <ele>29.34</ele>
        <time>2020-07-10T11:26:32Z</time>
      </trkpt>
      <trkpt lat="47.81245" lon="-3.40757">
        <ele>29.39</ele>
        <time>2020-07-10T11:26:33Z</time>
      </trkpt>
      <trkpt lat="47.81246" lon="-3.4076">
        <ele>29.47</ele>
        <time>2020-07-10T11:26:34Z</time>
      </trkpt>
      <trkpt lat="47.81248" lon="-3.40764">
        <ele>29.56</ele>
        <time>2020-07-10T11:26:35Z</time>
      </trkpt>
      <trkpt lat="47.81249" lon="-3.40769">
        <ele>29.69</ele>
        <time>2020-07-10T11:26:36Z</time>
      </trkpt>
      <trkpt lat="47.8125" lon="-3.40774">
        <ele>29.82</ele>
        <time>2020-07-10T11:26:37Z</time>
      </trkpt>
      <trkpt lat="47.81252" lon="-3.40778">
        <ele>30.01</ele>
        <time>2020-07-10T11:26:38Z</time>
      </trkpt>
      <trkpt lat="47.81254" lon="-3.40783">
        <ele>30.22</ele>
        <time>2020-07-10T11:26:39Z</time>
      </trkpt>
      <trkpt lat="47.81256" lon="-3.40787">
        <ele>30.41</ele>
        <time>2020-07-10T11:26:40Z</time>
      </trkpt>
      <trkpt lat="47.81258" lon="-3.40792">
        <ele>30.57</ele>
        <time>2020-07-10T11:26:41Z</time>
      </trkpt>
      <trkpt lat="47.8126" lon="-3.40796">
        <ele>30.72</ele>
        <time>2020-07-10T11:26:42Z</time>
      </trkpt>
      <trkpt lat="47.81262" lon="-3.40801">
        <ele>30.85</ele>
        <time>2020-07-10T11:26:43Z</time>
      </trkpt>
      <trkpt lat="47.81264" lon="-3.40805">
        <ele>30.95</ele>
        <time>2020-07-10T11:26:44Z</time>
      </trkpt>
      <trkpt lat="47.81265" lon="-3.4081">
        <ele>31.04</ele>
        <time>2020-07-10T11:26:45Z</time>
      </trkpt>
      <trkpt lat="47.81267" lon="-3.40814">
        <ele>31.14</ele>
        <time>2020-07-10T11:26:46Z</time>
      </trkpt>
      <trkpt lat="47.81268" lon="-3.40819">
        <ele>31.26</ele>
        <time>2020-07-10T11:26:47Z</time>
      </trkpt>
      <trkpt lat="47.8127" lon="-3.40822">
        <ele>31.37</ele>
        <time>2020-07-10T11:26:48Z</time>
      </trkpt>
      <trkpt lat="47.81271" lon="-3.40824">
        <ele>31.47</ele>
        <time>2020-07-10T11:26:49Z</time>
      </trkpt>
      <trkpt lat="47.81272" lon="-3.40828">
        <ele>31.59</ele>
        <time>2020-07-10T11:26:50Z</time>
      </trkpt>
      <trkpt lat="47.81271" lon="-3.40832">
        <ele>31.68</ele>
        <time>2020-07-10T11:26:51Z</time>
      </trkpt>
      <trkpt lat="47.81269" lon="-3.40836">
        <ele>31.75</ele>
        <time>2020-07-10T11:26:52Z</time>
      </trkpt>
      <trkpt lat="47.81267" lon="-3.40839">
        <ele>31.78</ele>
        <time>2020-07-10T11:26:53Z</time>
      </trkpt>
      <trkpt lat="47.81263" lon="-3.40841">
        <ele>31.75</ele>
        <time>2020-07-10T11:26:54Z</time>
      </trkpt>
      <trkpt lat="47.81258" lon="-3.40843">
        <ele>31.7</ele>
        <time>2020-07-10T11:26:55Z</time>
      </trkpt>
      <trkpt lat="47.81255" lon="-3.40846">
        <ele>31.65</ele>
        <time>2020-07-10T11:26:56Z</time>
      </trkpt>
      <trkpt lat="47.81251" lon="-3.40849">
        <ele>31.61</ele>
        <time>2020-07-10T11:26:57Z</time>
      </trkpt>
      <trkpt lat="47.81247" lon="-3.40852">
        <ele>31.54</ele>
        <time>2020-07-10T11:26:58Z</time>
      </trkpt>
      <trkpt lat="47.81242" lon="-3.40855">
        <ele>31.39</ele>
        <time>2020-07-10T11:26:59Z</time>
      </trkpt>
      <trkpt lat="47.81238" lon="-3.40858">
        <ele>31.18</ele>
        <time>2020-07-10T11:27:00Z</time>
      </trkpt>
      <trkpt lat="47.81233" lon="-3.40861">
        <ele>30.92</ele>
        <time>2020-07-10T11:27:01Z</time>
      </trkpt>
      <trkpt lat="47.81228" lon="-3.40863">
        <ele>30.6</ele>
        <time>2020-07-10T11:27:02Z</time>
      </trkpt>
      <trkpt lat="47.81223" lon="-3.40866">
        <ele>30.22</ele>
        <time>2020-07-10T11:27:03Z</time>
      </trkpt>
      <trkpt lat="47.81218" lon="-3.40869">
        <ele>30.11</ele>
        <time>2020-07-10T11:27:04Z</time>
      </trkpt>
      <trkpt lat="47.81213" lon="-3.40873">
        <ele>30.07</ele>
        <time>2020-07-10T11:27:05Z</time>
      </trkpt>
      <trkpt lat="47.81208" lon="-3.40877">
        <ele>29.98</ele>
        <time>2020-07-10T11:27:06Z</time>
      </trkpt>
      <trkpt lat="47.81203" lon="-3.4088">
        <ele>29.83</ele>
        <time>2020-07-10T11:27:07Z</time>
      </trkpt>
      <trkpt lat="47.81197" lon="-3.40884">
        <ele>29.55</ele>
        <time>2020-07-10T11:27:08Z</time>
      </trkpt>
      <trkpt lat="47.81192" lon="-3.40889">
        <ele>29.22</ele>
        <time>2020-07-10T11:27:09Z</time>
      </trkpt>
      <trkpt lat="47.81187" lon="-3.40894">
        <ele>29.05</ele>
        <time>2020-07-10T11:27:10Z</time>
      </trkpt>
      <trkpt lat="47.81181" lon="-3.40899">
        <ele>28.85</ele>
        <time>2020-07-10T11:27:11Z</time>
      </trkpt>
      <trkpt lat="47.81175" lon="-3.40904">
        <ele>28.51</ele>
        <time>2020-07-10T11:27:12Z</time>
      </trkpt>
      <trkpt lat="47.81169" lon="-3.4091">
        <ele>27.99</ele>
        <time>2020-07-10T11:27:13Z</time>
      </trkpt>
      <trkpt lat="47.81163" lon="-3.40915">
        <ele>27.45</ele>
        <time>2020-07-10T11:27:14Z</time>
      </trkpt>
      <trkpt lat="47.81157" lon="-3.4092">
        <ele>27.11</ele>
        <time>2020-07-10T11:27:15Z</time>
      </trkpt>
      <trkpt lat="47.81152" lon="-3.40924">
        <ele>26.93</ele>
        <time>2020-07-10T11:27:16Z</time>
      </trkpt>
      <trkpt lat="47.81148" lon="-3.40928">
        <ele>26.79</ele>
        <time>2020-07-10T11:27:17Z</time>
      </trkpt>
      <trkpt lat="47.81144" lon="-3.40934">
        <ele>26.57</ele>
        <time>2020-07-10T11:27:18Z</time>
      </trkpt>
      <trkpt lat="47.81142" lon="-3.40941">
        <ele>26.33</ele>
        <time>2020-07-10T11:27:19Z</time>
      </trkpt>
      <trkpt lat="47.8114" lon="-3.40951">
        <ele>25.83</ele>
        <time>2020-07-10T11:27:20Z</time>
      </trkpt>
      <trkpt lat="47.8114" lon="-3.40958">
        <ele>25.3</ele>
        <time>2020-07-10T11:27:21Z</time>
      </trkpt>
      <trkpt lat="47.81139" lon="-3.40965">
        <ele>24.78</ele>
        <time>2020-07-10T11:27:22Z</time>
      </trkpt>
      <trkpt lat="47.81139" lon="-3.40972">
        <ele>24.25</ele>
        <time>2020-07-10T11:27:23Z</time>
      </trkpt>
      <trkpt lat="47.81138" lon="-3.40979">
        <ele>24.07</ele>
        <time>2020-07-10T11:27:24Z</time>
      </trkpt>
      <trkpt lat="47.81137" lon="-3.40987">
        <ele>23.99</ele>
        <time>2020-07-10T11:27:25Z</time>
      </trkpt>
      <trkpt lat="47.81136" lon="-3.40994">
        <ele>23.94</ele>
        <time>2020-07-10T11:27:26Z</time>
      </trkpt>
      <trkpt lat="47.81135" lon="-3.41">
        <ele>23.88</ele>
        <time>2020-07-10T11:27:27Z</time>
      </trkpt>
      <trkpt lat="47.81134" lon="-3.41008">
        <ele>23.85</ele>
        <time>2020-07-10T11:27:28Z</time>
      </trkpt>
      <trkpt lat="47.81133" lon="-3.41016">
        <ele>23.81</ele>
        <time>2020-07-10T11:27:29Z</time>
      </trkpt>
      <trkpt lat="47.81132" lon="-3.41025">
        <ele>23.77</ele>
        <time>2020-07-10T11:27:30Z</time>
      </trkpt>
      <trkpt lat="47.81132" lon="-3.41034">
        <ele>23.83</ele>
        <time>2020-07-10T11:27:31Z</time>
      </trkpt>
      <trkpt lat="47.81131" lon="-3.41042">
        <ele>23.95</ele>
        <time>2020-07-10T11:27:32Z</time>
      </trkpt>
      <trkpt lat="47.81131" lon="-3.41049">
        <ele>24.1</ele>
        <time>2020-07-10T11:27:33Z</time>
      </trkpt>
      <trkpt lat="47.81131" lon="-3.41056">
        <ele>24.25</ele>
        <time>2020-07-10T11:27:34Z</time>
      </trkpt>
      <trkpt lat="47.81131" lon="-3.41064">
        <ele>24.49</ele>
        <time>2020-07-10T11:27:35Z</time>
      </trkpt>
      <trkpt lat="47.8113" lon="-3.41073">
        <ele>24.8</ele>
        <time>2020-07-10T11:27:36Z</time>
      </trkpt>
      <trkpt lat="47.8113" lon="-3.41081">
        <ele>25.09</ele>
        <time>2020-07-10T11:27:37Z</time>
      </trkpt>
      <trkpt lat="47.8113" lon="-3.41089">
        <ele>25.24</ele>
        <time>2020-07-10T11:27:38Z</time>
      </trkpt>
      <trkpt lat="47.81131" lon="-3.41097">
        <ele>25.27</ele>
        <time>2020-07-10T11:27:39Z</time>
      </trkpt>
      <trkpt lat="47.8113" lon="-3.41105">
        <ele>25.29</ele>
        <time>2020-07-10T11:27:40Z</time>
      </trkpt>
      <trkpt lat="47.8113" lon="-3.41113">
        <ele>25.29</ele>
        <time>2020-07-10T11:27:41Z</time>
      </trkpt>
      <trkpt lat="47.8113" lon="-3.41121">
        <ele>25.24</ele>
        <time>2020-07-10T11:27:42Z</time>
      </trkpt>
      <trkpt lat="47.81129" lon="-3.41128">
        <ele>25.16</ele>
        <time>2020-07-10T11:27:43Z</time>
      </trkpt>
      <trkpt lat="47.81129" lon="-3.41136">
        <ele>25.07</ele>
        <time>2020-07-10T11:27:44Z</time>
      </trkpt>
      <trkpt lat="47.81129" lon="-3.41145">
        <ele>24.86</ele>
        <time>2020-07-10T11:27:45Z</time>
      </trkpt>
      <trkpt lat="47.81128" lon="-3.41154">
        <ele>24.58</ele>
        <time>2020-07-10T11:27:46Z</time>
      </trkpt>
      <trkpt lat="47.81127" lon="-3.41163">
        <ele>24.27</ele>
        <time>2020-07-10T11:27:47Z</time>
      </trkpt>
      <trkpt lat="47.81126" lon="-3.41172">
        <ele>23.74</ele>
        <time>2020-07-10T11:27:48Z</time>
      </trkpt>
      <trkpt lat="47.81126" lon="-3.41183">
        <ele>22.95</ele>
        <time>2020-07-10T11:27:49Z</time>
      </trkpt>
      <trkpt lat="47.81126" lon="-3.41193">
        <ele>22.13</ele>
        <time>2020-07-10T11:27:50Z</time>
      </trkpt>
      <trkpt lat="47.81127" lon="-3.41204">
        <ele>21.19</ele>
        <time>2020-07-10T11:27:51Z</time>
      </trkpt>
      <trkpt lat="47.81128" lon="-3.41213">
        <ele>20.33</ele>
        <time>2020-07-10T11:27:52Z</time>
      </trkpt>
      <trkpt lat="47.81129" lon="-3.41222">
        <ele>19.59</ele>
        <time>2020-07-10T11:27:53Z</time>
      </trkpt>
      <trkpt lat="47.81131" lon="-3.4123">
        <ele>19.32</ele>
        <time>2020-07-10T11:27:54Z</time>
      </trkpt>
      <trkpt lat="47.81132" lon="-3.41236">
        <ele>19.21</ele>
        <time>2020-07-10T11:27:55Z</time>
      </trkpt>
      <trkpt lat="47.81137" lon="-3.41252">
        <ele>19.24</ele>
        <time>2020-07-10T11:27:56Z</time>
      </trkpt>
      <trkpt lat="47.81137" lon="-3.41259">
        <ele>18.92</ele>
        <time>2020-07-10T11:27:57Z</time>
      </trkpt>
      <trkpt lat="47.81138" lon="-3.41264">
        <ele>18.47</ele>
        <time>2020-07-10T11:27:58Z</time>
      </trkpt>
      <trkpt lat="47.81138" lon="-3.4127">
        <ele>17.91</ele>
        <time>2020-07-10T11:27:59Z</time>
      </trkpt>
      <trkpt lat="47.81138" lon="-3.41276">
        <ele>17.28</ele>
        <time>2020-07-10T11:28:00Z</time>
      </trkpt>
      <trkpt lat="47.81138" lon="-3.4128">
        <ele>17.02</ele>
        <time>2020-07-10T11:28:01Z</time>
      </trkpt>
      <trkpt lat="47.81137" lon="-3.41282">
        <ele>16.9</ele>
        <time>2020-07-10T11:28:02Z</time>
      </trkpt>
      <trkpt lat="47.81136" lon="-3.41286">
        <ele>16.78</ele>
        <time>2020-07-10T11:28:03Z</time>
      </trkpt>
      <trkpt lat="47.81134" lon="-3.4129">
        <ele>16.61</ele>
        <time>2020-07-10T11:28:04Z</time>
      </trkpt>
      <trkpt lat="47.81132" lon="-3.41292">
        <ele>16.31</ele>
        <time>2020-07-10T11:28:05Z</time>
      </trkpt>
      <trkpt lat="47.81128" lon="-3.41294">
        <ele>15.74</ele>
        <time>2020-07-10T11:28:06Z</time>
      </trkpt>
      <trkpt lat="47.81126" lon="-3.41295">
        <ele>15.21</ele>
        <time>2020-07-10T11:28:07Z</time>
      </trkpt>
      <trkpt lat="47.81124" lon="-3.41298">
        <ele>14.86</ele>
        <time>2020-07-10T11:28:08Z</time>
      </trkpt>
      <trkpt lat="47.81123" lon="-3.41299">
        <ele>14.51</ele>
        <time>2020-07-10T11:28:09Z</time>
      </trkpt>
      <trkpt lat="47.8112" lon="-3.41301">
        <ele>14.04</ele>
        <time>2020-07-10T11:28:10Z</time>
      </trkpt>
      <trkpt lat="47.81117" lon="-3.41303">
        <ele>13.47</ele>
        <time>2020-07-10T11:28:11Z</time>
      </trkpt>
      <trkpt lat="47.81114" lon="-3.41305">
        <ele>12.95</ele>
        <time>2020-07-10T11:28:12Z</time>
      </trkpt>
      <trkpt lat="47.81113" lon="-3.41308">
        <ele>12.61</ele>
        <time>2020-07-10T11:28:13Z</time>
      </trkpt>
      <trkpt lat="47.81111" lon="-3.41312">
        <ele>12.25</ele>
        <time>2020-07-10T11:28:14Z</time>
      </trkpt>
      <trkpt lat="47.8111" lon="-3.41318">
        <ele>12.06</ele>
        <time>2020-07-10T11:28:15Z</time>
      </trkpt>
      <trkpt lat="47.81111" lon="-3.41324">
        <ele>12.01</ele>
        <time>2020-07-10T11:28:16Z</time>
      </trkpt>
      <trkpt lat="47.81111" lon="-3.41331">
        <ele>12.08</ele>
        <time>2020-07-10T11:28:17Z</time>
      </trkpt>
      <trkpt lat="47.81113" lon="-3.41337">
        <ele>12.44</ele>
        <time>2020-07-10T11:28:18Z</time>
      </trkpt>
      <trkpt lat="47.81114" lon="-3.41343">
        <ele>12.91</ele>
        <time>2020-07-10T11:28:19Z</time>
      </trkpt>
      <trkpt lat="47.81114" lon="-3.41349">
        <ele>13.37</ele>
        <time>2020-07-10T11:28:20Z</time>
      </trkpt>
      <trkpt lat="47.81115" lon="-3.41354">
        <ele>13.82</ele>
        <time>2020-07-10T11:28:21Z</time>
      </trkpt>
      <trkpt lat="47.81115" lon="-3.41357">
        <ele>14.18</ele>
        <time>2020-07-10T11:28:22Z</time>
      </trkpt>
      <trkpt lat="47.81115" lon="-3.41361">
        <ele>14.37</ele>
        <time>2020-07-10T11:28:23Z</time>
      </trkpt>
      <trkpt lat="47.81116" lon="-3.41366">
        <ele>14.56</ele>
        <time>2020-07-10T11:28:24Z</time>
      </trkpt>
      <trkpt lat="47.81116" lon="-3.41369">
        <ele>14.66</ele>
        <time>2020-07-10T11:28:25Z</time>
      </trkpt>
      <trkpt lat="47.81117" lon="-3.41373">
        <ele>14.86</ele>
        <time>2020-07-10T11:28:26Z</time>
      </trkpt>
      <trkpt lat="47.81117" lon="-3.41376">
        <ele>15.08</ele>
        <time>2020-07-10T11:28:27Z</time>
      </trkpt>
      <trkpt lat="47.81118" lon="-3.41378">
        <ele>15.4</ele>
        <time>2020-07-10T11:28:28Z</time>
      </trkpt>
      <trkpt lat="47.81119" lon="-3.41381">
        <ele>15.79</ele>
        <time>2020-07-10T11:28:29Z</time>
      </trkpt>
      <trkpt lat="47.8112" lon="-3.41382">
        <ele>16.08</ele>
        <time>2020-07-10T11:28:30Z</time>
      </trkpt>
      <trkpt lat="47.81121" lon="-3.41382">
        <ele>16.42</ele>
        <time>2020-07-10T11:28:31Z</time>
      </trkpt>
      <trkpt lat="47.81122" lon="-3.41382">
        <ele>16.68</ele>
        <time>2020-07-10T11:28:32Z</time>
      </trkpt>
      <trkpt lat="47.81122" lon="-3.41382">
        <ele>16.89</ele>
        <time>2020-07-10T11:28:33Z</time>
      </trkpt>
      <trkpt lat="47.81123" lon="-3.41382">
        <ele>17.08</ele>
        <time>2020-07-10T11:28:34Z</time>
      </trkpt>
      <trkpt lat="47.81122" lon="-3.41383">
        <ele>16.97</ele>
        <time>2020-07-10T11:28:35Z</time>
      </trkpt>
      <trkpt lat="47.81123" lon="-3.41383">
        <ele>17.1</ele>
        <time>2020-07-10T11:28:36Z</time>
      </trkpt>
      <trkpt lat="47.81123" lon="-3.41383">
        <ele>17.14</ele>
        <time>2020-07-10T11:28:37Z</time>
      </trkpt>
      <trkpt lat="47.81123" lon="-3.41383">
        <ele>17.15</ele>
        <time>2020-07-10T11:28:38Z</time>
      </trkpt>
      <trkpt lat="47.81123" lon="-3.41383">
        <ele>17.16</ele>
        <time>2020-07-10T11:28:39Z</time>
      </trkpt>
      <trkpt lat="47.81128" lon="-3.41384">
        <ele>18.46</ele>
        <time>2020-07-10T11:28:40Z</time>
      </trkpt>
      <trkpt lat="47.81129" lon="-3.41385">
        <ele>19.06</ele>
        <time>2020-07-10T11:28:41Z</time>
      </trkpt>
      <trkpt lat="47.8113" lon="-3.41388">
        <ele>19.58</ele>
        <time>2020-07-10T11:28:42Z</time>
      </trkpt>
      <trkpt lat="47.81131" lon="-3.41391">
        <ele>19.78</ele>
        <time>2020-07-10T11:28:43Z</time>
      </trkpt>
      <trkpt lat="47.81131" lon="-3.41394">
        <ele>19.63</ele>
        <time>2020-07-10T11:28:44Z</time>
      </trkpt>
      <trkpt lat="47.81133" lon="-3.41397">
        <ele>19.66</ele>
        <time>2020-07-10T11:28:45Z</time>
      </trkpt>
      <trkpt lat="47.81135" lon="-3.41399">
        <ele>19.96</ele>
        <time>2020-07-10T11:28:46Z</time>
      </trkpt>
      <trkpt lat="47.81137" lon="-3.41401">
        <ele>20.31</ele>
        <time>2020-07-10T11:28:47Z</time>
      </trkpt>
      <trkpt lat="47.81139" lon="-3.41402">
        <ele>20.52</ele>
        <time>2020-07-10T11:28:48Z</time>
      </trkpt>
      <trkpt lat="47.81141" lon="-3.41403">
        <ele>20.66</ele>
        <time>2020-07-10T11:28:49Z</time>
      </trkpt>
      <trkpt lat="47.81142" lon="-3.41404">
        <ele>20.8</ele>
        <time>2020-07-10T11:28:50Z</time>
      </trkpt>
      <trkpt lat="47.81143" lon="-3.41406">
        <ele>20.79</ele>
        <time>2020-07-10T11:28:51Z</time>
      </trkpt>
      <trkpt lat="47.81145" lon="-3.41408">
        <ele>20.72</ele>
        <time>2020-07-10T11:28:52Z</time>
      </trkpt>
      <trkpt lat="47.81147" lon="-3.4141">
        <ele>20.82</ele>
        <time>2020-07-10T11:28:53Z</time>
      </trkpt>
      <trkpt lat="47.8115" lon="-3.41412">
        <ele>20.86</ele>
        <time>2020-07-10T11:28:54Z</time>
      </trkpt>
      <trkpt lat="47.81152" lon="-3.41414">
        <ele>20.81</ele>
        <time>2020-07-10T11:28:55Z</time>
      </trkpt>
      <trkpt lat="47.81152" lon="-3.41415">
        <ele>20.72</ele>
        <time>2020-07-10T11:28:56Z</time>
      </trkpt>
      <trkpt lat="47.81153" lon="-3.41415">
        <ele>20.83</ele>
        <time>2020-07-10T11:28:57Z</time>
      </trkpt>
      <trkpt lat="47.81153" lon="-3.41415">
        <ele>20.9</ele>
        <time>2020-07-10T11:28:58Z</time>
      </trkpt>
      <trkpt lat="47.81153" lon="-3.41415">
        <ele>20.92</ele>
        <time>2020-07-10T11:28:59Z</time>
      </trkpt>
      <trkpt lat="47.81153" lon="-3.41415">
        <ele>20.93</ele>
        <time>2020-07-10T11:29:00Z</time>
      </trkpt>
      <trkpt lat="47.81153" lon="-3.41415">
        <ele>20.93</ele>
        <time>2020-07-10T11:29:01Z</time>
      </trkpt>
      <trkpt lat="47.81153" lon="-3.41415">
        <ele>20.93</ele>
        <time>2020-07-10T11:29:02Z</time>
      </trkpt>
      <trkpt lat="47.81153" lon="-3.41415">
        <ele>20.93</ele>
        <time>2020-07-10T11:29:03Z</time>
      </trkpt>
      <trkpt lat="47.81153" lon="-3.41415">
        <ele>20.93</ele>
        <time>2020-07-10T11:29:04Z</time>
      </trkpt>
      <trkpt lat="47.81153" lon="-3.41415">
        <ele>20.93</ele>
        <time>2020-07-10T11:29:05Z</time>
      </trkpt>
      <trkpt lat="47.81153" lon="-3.41415">
        <ele>20.93</ele>
        <time>2020-07-10T11:29:06Z</time>
      </trkpt>
      <trkpt lat="47.81153" lon="-3.41415">
        <ele>20.93</ele>
        <time>2020-07-10T11:29:07Z</time>
      </trkpt>
      <trkpt lat="47.81153" lon="-3.41415">
        <ele>20.93</ele>
        <time>2020-07-10T11:29:08Z</time>
      </trkpt>
      <trkpt lat="47.81153" lon="-3.41415">
        <ele>20.93</ele>
        <time>2020-07-10T11:29:09Z</time>
      </trkpt>
      <trkpt lat="47.81153" lon="-3.41415">
        <ele>20.93</ele>
        <time>2020-07-10T11:29:10Z</time>
      </trkpt>
      <trkpt lat="47.81163" lon="-3.41415">
        <ele>22.23</ele>
        <time>2020-07-10T11:29:11Z</time>
      </trkpt>
      <trkpt lat="47.81165" lon="-3.41416">
        <ele>22.63</ele>
        <time>2020-07-10T11:29:12Z</time>
      </trkpt>
      <trkpt lat="47.81167" lon="-3.41417">
        <ele>22.84</ele>
        <time>2020-07-10T11:29:13Z</time>
      </trkpt>
      <trkpt lat="47.8117" lon="-3.41418">
        <ele>22.97</ele>
        <time>2020-07-10T11:29:14Z</time>
      </trkpt>
      <trkpt lat="47.81173" lon="-3.41419">
        <ele>23.17</ele>
        <time>2020-07-10T11:29:15Z</time>
      </trkpt>
      <trkpt lat="47.81175" lon="-3.4142">
        <ele>23.14</ele>
        <time>2020-07-10T11:29:16Z</time>
      </trkpt>
      <trkpt lat="47.81178" lon="-3.41421">
        <ele>23.18</ele>
        <time>2020-07-10T11:29:17Z</time>
      </trkpt>
      <trkpt lat="47.8118" lon="-3.41421">
        <ele>23.25</ele>
        <time>2020-07-10T11:29:18Z</time>
      </trkpt>
      <trkpt lat="47.81181" lon="-3.41422">
        <ele>23.3</ele>
        <time>2020-07-10T11:29:19Z</time>
      </trkpt>
      <trkpt lat="47.81184" lon="-3.4142">
        <ele>24.04</ele>
        <time>2020-07-10T11:29:20Z</time>
      </trkpt>
      <trkpt lat="47.81187" lon="-3.4142">
        <ele>24.47</ele>
        <time>2020-07-10T11:29:21Z</time>
      </trkpt>
      <trkpt lat="47.81189" lon="-3.41421">
        <ele>24.57</ele>
        <time>2020-07-10T11:29:22Z</time>
      </trkpt>
      <trkpt lat="47.8119" lon="-3.41422">
        <ele>24.43</ele>
        <time>2020-07-10T11:29:23Z</time>
      </trkpt>
      <trkpt lat="47.81191" lon="-3.41424">
        <ele>24.07</ele>
        <time>2020-07-10T11:29:24Z</time>
      </trkpt>
      <trkpt lat="47.81193" lon="-3.41425">
        <ele>23.77</ele>
        <time>2020-07-10T11:29:25Z</time>
      </trkpt>
      <trkpt lat="47.81194" lon="-3.41426">
        <ele>23.57</ele>
        <time>2020-07-10T11:29:26Z</time>
      </trkpt>
      <trkpt lat="47.81195" lon="-3.41428">
        <ele>23.18</ele>
        <time>2020-07-10T11:29:27Z</time>
      </trkpt>
      <trkpt lat="47.81195" lon="-3.41429">
        <ele>22.77</ele>
        <time>2020-07-10T11:29:28Z</time>
      </trkpt>
      <trkpt lat="47.81196" lon="-3.4143">
        <ele>22.5</ele>
        <time>2020-07-10T11:29:29Z</time>
      </trkpt>
      <trkpt lat="47.81196" lon="-3.4143">
        <ele>22.42</ele>
        <time>2020-07-10T11:29:30Z</time>
      </trkpt>
      <trkpt lat="47.81196" lon="-3.4143">
        <ele>22.4</ele>
        <time>2020-07-10T11:29:31Z</time>
      </trkpt>
      <trkpt lat="47.81196" lon="-3.4143">
        <ele>22.39</ele>
        <time>2020-07-10T11:29:32Z</time>
      </trkpt>
      <trkpt lat="47.81196" lon="-3.4143">
        <ele>22.39</ele>
        <time>2020-07-10T11:29:33Z</time>
      </trkpt>
      <trkpt lat="47.81196" lon="-3.4143">
        <ele>22.38</ele>
        <time>2020-07-10T11:29:34Z</time>
      </trkpt>
      <trkpt lat="47.81196" lon="-3.4143">
        <ele>22.38</ele>
        <time>2020-07-10T11:29:35Z</time>
      </trkpt>
      <trkpt lat="47.81196" lon="-3.4143">
        <ele>22.38</ele>
        <time>2020-07-10T11:29:36Z</time>
      </trkpt>
      <trkpt lat="47.81196" lon="-3.4143">
        <ele>22.38</ele>
        <time>2020-07-10T11:29:37Z</time>
      </trkpt>
      <trkpt lat="47.81196" lon="-3.4143">
        <ele>22.38</ele>
        <time>2020-07-10T11:29:38Z</time>
      </trkpt>
      <trkpt lat="47.81196" lon="-3.4143">
        <ele>22.38</ele>
        <time>2020-07-10T11:29:39Z</time>
      </trkpt>
      <trkpt lat="47.81196" lon="-3.4143">
        <ele>22.38</ele>
        <time>2020-07-10T11:29:40Z</time>
      </trkpt>
      <trkpt lat="47.81196" lon="-3.4143">
        <ele>22.38</ele>
        <time>2020-07-10T11:29:41Z</time>
      </trkpt>
      <trkpt lat="47.81205" lon="-3.41435">
        <ele>21.41</ele>
        <time>2020-07-10T11:29:42Z</time>
      </trkpt>
      <trkpt lat="47.81208" lon="-3.41435">
        <ele>21.3</ele>
        <time>2020-07-10T11:29:43Z</time>
      </trkpt>
      <trkpt lat="47.81209" lon="-3.41435">
        <ele>21.31</ele>
        <time>2020-07-10T11:29:44Z</time>
      </trkpt>
      <trkpt lat="47.8121" lon="-3.41436">
        <ele>21.13</ele>
        <time>2020-07-10T11:29:45Z</time>
      </trkpt>
      <trkpt lat="47.81212" lon="-3.41436">
        <ele>21.1</ele>
        <time>2020-07-10T11:29:46Z</time>
      </trkpt>
      <trkpt lat="47.81213" lon="-3.41436">
        <ele>21.03</ele>
        <time>2020-07-10T11:29:47Z</time>
      </trkpt>
      <trkpt lat="47.81214" lon="-3.41436">
        <ele>21.26</ele>
        <time>2020-07-10T11:29:48Z</time>
      </trkpt>
      <trkpt lat="47.81215" lon="-3.41436">
        <ele>21.25</ele>
        <time>2020-07-10T11:29:49Z</time>
      </trkpt>
      <trkpt lat="47.81215" lon="-3.41436">
        <ele>21.24</ele>
        <time>2020-07-10T11:29:50Z</time>
      </trkpt>
      <trkpt lat="47.81215" lon="-3.41436">
        <ele>21.24</ele>
        <time>2020-07-10T11:29:51Z</time>
      </trkpt>
      <trkpt lat="47.81215" lon="-3.41436">
        <ele>21.24</ele>
        <time>2020-07-10T11:29:52Z</time>
      </trkpt>
      <trkpt lat="47.81215" lon="-3.41436">
        <ele>21.24</ele>
        <time>2020-07-10T11:29:53Z</time>
      </trkpt>
      <trkpt lat="47.81215" lon="-3.41436">
        <ele>21.24</ele>
        <time>2020-07-10T11:29:54Z</time>
      </trkpt>
      <trkpt lat="47.81215" lon="-3.41436">
        <ele>21.24</ele>
        <time>2020-07-10T11:29:55Z</time>
      </trkpt>
      <trkpt lat="47.81215" lon="-3.41436">
        <ele>21.24</ele>
        <time>2020-07-10T11:29:56Z</time>
      </trkpt>
      <trkpt lat="47.81215" lon="-3.41436">
        <ele>21.24</ele>
        <time>2020-07-10T11:29:57Z</time>
      </trkpt>
      <trkpt lat="47.81221" lon="-3.41439">
        <ele>20.83</ele>
        <time>2020-07-10T11:29:58Z</time>
      </trkpt>
      <trkpt lat="47.81223" lon="-3.4144">
        <ele>20.65</ele>
        <time>2020-07-10T11:29:59Z</time>
      </trkpt>
      <trkpt lat="47.81224" lon="-3.4144">
        <ele>20.48</ele>
        <time>2020-07-10T11:30:00Z</time>
      </trkpt>
      <trkpt lat="47.81226" lon="-3.4144">
        <ele>20.62</ele>
        <time>2020-07-10T11:30:01Z</time>
      </trkpt>
      <trkpt lat="47.81228" lon="-3.4144">
        <ele>20.56</ele>
        <time>2020-07-10T11:30:02Z</time>
      </trkpt>
      <trkpt lat="47.81229" lon="-3.4144">
        <ele>20.58</ele>
        <time>2020-07-10T11:30:03Z</time>
      </trkpt>
      <trkpt lat="47.81232" lon="-3.4144">
        <ele>20.72</ele>
        <time>2020-07-10T11:30:04Z</time>
      </trkpt>
      <trkpt lat="47.81235" lon="-3.4144">
        <ele>20.83</ele>
        <time>2020-07-10T11:30:05Z</time>
      </trkpt>
      <trkpt lat="47.81237" lon="-3.4144">
        <ele>20.93</ele>
        <time>2020-07-10T11:30:06Z</time>
      </trkpt>
      <trkpt lat="47.81242" lon="-3.41441">
        <ele>20.84</ele>
        <time>2020-07-10T11:30:07Z</time>
      </trkpt>
      <trkpt lat="47.81244" lon="-3.4144">
        <ele>21.19</ele>
        <time>2020-07-10T11:30:08Z</time>
      </trkpt>
      <trkpt lat="47.81246" lon="-3.41439">
        <ele>21.46</ele>
        <time>2020-07-10T11:30:09Z</time>
      </trkpt>
      <trkpt lat="47.81247" lon="-3.41439">
        <ele>21.56</ele>
        <time>2020-07-10T11:30:10Z</time>
      </trkpt>
      <trkpt lat="47.81248" lon="-3.41439">
        <ele>21.78</ele>
        <time>2020-07-10T11:30:11Z</time>
      </trkpt>
      <trkpt lat="47.81251" lon="-3.41438">
        <ele>22.08</ele>
        <time>2020-07-10T11:30:12Z</time>
      </trkpt>
      <trkpt lat="47.81253" lon="-3.41437">
        <ele>22.45</ele>
        <time>2020-07-10T11:30:13Z</time>
      </trkpt>
      <trkpt lat="47.81256" lon="-3.41437">
        <ele>22.84</ele>
        <time>2020-07-10T11:30:14Z</time>
      </trkpt>
      <trkpt lat="47.81259" lon="-3.41437">
        <ele>23.01</ele>
        <time>2020-07-10T11:30:15Z</time>
      </trkpt>
      <trkpt lat="47.81261" lon="-3.41438">
        <ele>23.1</ele>
        <time>2020-07-10T11:30:16Z</time>
      </trkpt>
      <trkpt lat="47.81263" lon="-3.41439">
        <ele>23.11</ele>
        <time>2020-07-10T11:30:17Z</time>
      </trkpt>
      <trkpt lat="47.81265" lon="-3.41439">
        <ele>23.09</ele>
        <time>2020-07-10T11:30:18Z</time>
      </trkpt>
      <trkpt lat="47.81266" lon="-3.4144">
        <ele>23.09</ele>
        <time>2020-07-10T11:30:19Z</time>
      </trkpt>
      <trkpt lat="47.81268" lon="-3.4144">
        <ele>23.17</ele>
        <time>2020-07-10T11:30:20Z</time>
      </trkpt>
      <trkpt lat="47.8127" lon="-3.4144">
        <ele>23.35</ele>
        <time>2020-07-10T11:30:21Z</time>
      </trkpt>
      <trkpt lat="47.81272" lon="-3.4144">
        <ele>23.46</ele>
        <time>2020-07-10T11:30:22Z</time>
      </trkpt>
      <trkpt lat="47.81273" lon="-3.41441">
        <ele>23.48</ele>
        <time>2020-07-10T11:30:23Z</time>
      </trkpt>
      <trkpt lat="47.81275" lon="-3.41441">
        <ele>23.58</ele>
        <time>2020-07-10T11:30:24Z</time>
      </trkpt>
      <trkpt lat="47.81276" lon="-3.4144">
        <ele>23.78</ele>
        <time>2020-07-10T11:30:25Z</time>
      </trkpt>
      <trkpt lat="47.81278" lon="-3.4144">
        <ele>24.08</ele>
        <time>2020-07-10T11:30:26Z</time>
      </trkpt>
      <trkpt lat="47.8128" lon="-3.41441">
        <ele>24.1</ele>
        <time>2020-07-10T11:30:27Z</time>
      </trkpt>
      <trkpt lat="47.81281" lon="-3.41442">
        <ele>24.06</ele>
        <time>2020-07-10T11:30:28Z</time>
      </trkpt>
      <trkpt lat="47.81282" lon="-3.41442">
        <ele>24.11</ele>
        <time>2020-07-10T11:30:29Z</time>
      </trkpt>
      <trkpt lat="47.81282" lon="-3.41442">
        <ele>24.09</ele>
        <time>2020-07-10T11:30:30Z</time>
      </trkpt>
      <trkpt lat="47.81283" lon="-3.41443">
        <ele>24.07</ele>
        <time>2020-07-10T11:30:31Z</time>
      </trkpt>
      <trkpt lat="47.81283" lon="-3.41443">
        <ele>24.06</ele>
        <time>2020-07-10T11:30:32Z</time>
      </trkpt>
      <trkpt lat="47.81287" lon="-3.41442">
        <ele>24.35</ele>
        <time>2020-07-10T11:30:33Z</time>
      </trkpt>
      <trkpt lat="47.81288" lon="-3.41443">
        <ele>24.55</ele>
        <time>2020-07-10T11:30:34Z</time>
      </trkpt>
      <trkpt lat="47.8129" lon="-3.41442">
        <ele>24.75</ele>
        <time>2020-07-10T11:30:35Z</time>
      </trkpt>
      <trkpt lat="47.81292" lon="-3.41442">
        <ele>24.96</ele>
        <time>2020-07-10T11:30:36Z</time>
      </trkpt>
      <trkpt lat="47.81293" lon="-3.41443">
        <ele>25.06</ele>
        <time>2020-07-10T11:30:37Z</time>
      </trkpt>
      <trkpt lat="47.81294" lon="-3.41443">
        <ele>24.97</ele>
        <time>2020-07-10T11:30:38Z</time>
      </trkpt>
      <trkpt lat="47.81295" lon="-3.41445">
        <ele>24.89</ele>
        <time>2020-07-10T11:30:39Z</time>
      </trkpt>
      <trkpt lat="47.81298" lon="-3.41446">
        <ele>24.74</ele>
        <time>2020-07-10T11:30:40Z</time>
      </trkpt>
      <trkpt lat="47.813" lon="-3.41447">
        <ele>24.68</ele>
        <time>2020-07-10T11:30:41Z</time>
      </trkpt>
      <trkpt lat="47.81301" lon="-3.41448">
        <ele>24.57</ele>
        <time>2020-07-10T11:30:42Z</time>
      </trkpt>
      <trkpt lat="47.81302" lon="-3.4145">
        <ele>24.27</ele>
        <time>2020-07-10T11:30:43Z</time>
      </trkpt>
      <trkpt lat="47.81303" lon="-3.41451">
        <ele>24.06</ele>
        <time>2020-07-10T11:30:44Z</time>
      </trkpt>
      <trkpt lat="47.81305" lon="-3.41452">
        <ele>23.92</ele>
        <time>2020-07-10T11:30:45Z</time>
      </trkpt>
      <trkpt lat="47.81305" lon="-3.41453">
        <ele>23.82</ele>
        <time>2020-07-10T11:30:46Z</time>
      </trkpt>
      <trkpt lat="47.81305" lon="-3.41454">
        <ele>23.62</ele>
        <time>2020-07-10T11:30:47Z</time>
      </trkpt>
      <trkpt lat="47.81306" lon="-3.41455">
        <ele>23.43</ele>
        <time>2020-07-10T11:30:48Z</time>
      </trkpt>
      <trkpt lat="47.81306" lon="-3.41455">
        <ele>23.38</ele>
        <time>2020-07-10T11:30:49Z</time>
      </trkpt>
      <trkpt lat="47.81306" lon="-3.41455">
        <ele>23.36</ele>
        <time>2020-07-10T11:30:50Z</time>
      </trkpt>
      <trkpt lat="47.81306" lon="-3.41455">
        <ele>23.35</ele>
        <time>2020-07-10T11:30:51Z</time>
      </trkpt>
      <trkpt lat="47.81306" lon="-3.41455">
        <ele>23.35</ele>
        <time>2020-07-10T11:30:52Z</time>
      </trkpt>
      <trkpt lat="47.81306" lon="-3.41455">
        <ele>23.35</ele>
        <time>2020-07-10T11:30:53Z</time>
      </trkpt>
      <trkpt lat="47.81306" lon="-3.41455">
        <ele>23.35</ele>
        <time>2020-07-10T11:30:54Z</time>
      </trkpt>
      <trkpt lat="47.81306" lon="-3.41455">
        <ele>23.35</ele>
        <time>2020-07-10T11:30:55Z</time>
      </trkpt>
      <trkpt lat="47.81306" lon="-3.41455">
        <ele>23.35</ele>
        <time>2020-07-10T11:30:56Z</time>
      </trkpt>
      <trkpt lat="47.81306" lon="-3.41455">
        <ele>23.35</ele>
        <time>2020-07-10T11:30:57Z</time>
      </trkpt>
      <trkpt lat="47.81306" lon="-3.41455">
        <ele>23.35</ele>
        <time>2020-07-10T11:30:58Z</time>
      </trkpt>
      <trkpt lat="47.81306" lon="-3.41455">
        <ele>23.35</ele>
        <time>2020-07-10T11:30:59Z</time>
      </trkpt>
      <trkpt lat="47.81306" lon="-3.41471">
        <ele>20.61</ele>
        <time>2020-07-10T11:31:00Z</time>
      </trkpt>
      <trkpt lat="47.81306" lon="-3.41473">
        <ele>19.45</ele>
        <time>2020-07-10T11:31:01Z</time>
      </trkpt>
      <trkpt lat="47.81305" lon="-3.41476">
        <ele>18.87</ele>
        <time>2020-07-10T11:31:02Z</time>
      </trkpt>
      <trkpt lat="47.81305" lon="-3.41478">
        <ele>18.52</ele>
        <time>2020-07-10T11:31:03Z</time>
      </trkpt>
      <trkpt lat="47.81305" lon="-3.41478">
        <ele>18.42</ele>
        <time>2020-07-10T11:31:04Z</time>
      </trkpt>
      <trkpt lat="47.81305" lon="-3.41478">
        <ele>18.39</ele>
        <time>2020-07-10T11:31:05Z</time>
      </trkpt>
      <trkpt lat="47.81305" lon="-3.41478">
        <ele>18.38</ele>
        <time>2020-07-10T11:31:06Z</time>
      </trkpt>
      <trkpt lat="47.81305" lon="-3.41478">
        <ele>18.37</ele>
        <time>2020-07-10T11:31:07Z</time>
      </trkpt>
      <trkpt lat="47.81305" lon="-3.41478">
        <ele>18.37</ele>
        <time>2020-07-10T11:31:08Z</time>
      </trkpt>
      <trkpt lat="47.81305" lon="-3.41478">
        <ele>18.37</ele>
        <time>2020-07-10T11:31:09Z</time>
      </trkpt>
      <trkpt lat="47.81305" lon="-3.41478">
        <ele>18.37</ele>
        <time>2020-07-10T11:31:10Z</time>
      </trkpt>
      <trkpt lat="47.81305" lon="-3.41478">
        <ele>18.37</ele>
        <time>2020-07-10T11:31:11Z</time>
      </trkpt>
      <trkpt lat="47.81305" lon="-3.41478">
        <ele>18.37</ele>
        <time>2020-07-10T11:31:12Z</time>
      </trkpt>
      <trkpt lat="47.8131" lon="-3.41489">
        <ele>18.11</ele>
        <time>2020-07-10T11:31:13Z</time>
      </trkpt>
      <trkpt lat="47.81311" lon="-3.41491">
        <ele>18.14</ele>
        <time>2020-07-10T11:31:14Z</time>
      </trkpt>
      <trkpt lat="47.81313" lon="-3.41491">
        <ele>18.42</ele>
        <time>2020-07-10T11:31:15Z</time>
      </trkpt>
      <trkpt lat="47.81314" lon="-3.41493">
        <ele>18.67</ele>
        <time>2020-07-10T11:31:16Z</time>
      </trkpt>
      <trkpt lat="47.81315" lon="-3.41494">
        <ele>18.84</ele>
        <time>2020-07-10T11:31:17Z</time>
      </trkpt>
      <trkpt lat="47.81316" lon="-3.41495">
        <ele>18.95</ele>
        <time>2020-07-10T11:31:18Z</time>
      </trkpt>
      <trkpt lat="47.81318" lon="-3.41496">
        <ele>19.18</ele>
        <time>2020-07-10T11:31:19Z</time>
      </trkpt>
      <trkpt lat="47.81319" lon="-3.41498">
        <ele>19.41</ele>
        <time>2020-07-10T11:31:20Z</time>
      </trkpt>
      <trkpt lat="47.81321" lon="-3.41501">
        <ele>19.72</ele>
        <time>2020-07-10T11:31:21Z</time>
      </trkpt>
      <trkpt lat="47.81323" lon="-3.41503">
        <ele>19.88</ele>
        <time>2020-07-10T11:31:22Z</time>
      </trkpt>
      <trkpt lat="47.81325" lon="-3.41505">
        <ele>19.99</ele>
        <time>2020-07-10T11:31:23Z</time>
      </trkpt>
      <trkpt lat="47.81326" lon="-3.41507">
        <ele>19.95</ele>
        <time>2020-07-10T11:31:24Z</time>
      </trkpt>
      <trkpt lat="47.81327" lon="-3.41508">
        <ele>19.92</ele>
        <time>2020-07-10T11:31:25Z</time>
      </trkpt>
      <trkpt lat="47.81328" lon="-3.41511">
        <ele>19.86</ele>
        <time>2020-07-10T11:31:26Z</time>
      </trkpt>
      <trkpt lat="47.8133" lon="-3.41512">
        <ele>19.9</ele>
        <time>2020-07-10T11:31:27Z</time>
      </trkpt>
      <trkpt lat="47.8133" lon="-3.41513">
        <ele>19.91</ele>
        <time>2020-07-10T11:31:28Z</time>
      </trkpt>
      <trkpt lat="47.8133" lon="-3.41513">
        <ele>19.9</ele>
        <time>2020-07-10T11:31:29Z</time>
      </trkpt>
      <trkpt lat="47.8133" lon="-3.41513">
        <ele>19.9</ele>
        <time>2020-07-10T11:31:30Z</time>
      </trkpt>
      <trkpt lat="47.8133" lon="-3.41513">
        <ele>19.9</ele>
        <time>2020-07-10T11:31:31Z</time>
      </trkpt>
      <trkpt lat="47.8133" lon="-3.41513">
        <ele>19.9</ele>
        <time>2020-07-10T11:31:32Z</time>
      </trkpt>
      <trkpt lat="47.8133" lon="-3.41513">
        <ele>19.9</ele>
        <time>2020-07-10T11:31:33Z</time>
      </trkpt>
      <trkpt lat="47.8133" lon="-3.41513">
        <ele>19.9</ele>
        <time>2020-07-10T11:31:34Z</time>
      </trkpt>
      <trkpt lat="47.8133" lon="-3.41513">
        <ele>19.9</ele>
        <time>2020-07-10T11:31:35Z</time>
      </trkpt>
      <trkpt lat="47.8133" lon="-3.41513">
        <ele>19.9</ele>
        <time>2020-07-10T11:31:36Z</time>
      </trkpt>
      <trkpt lat="47.81334" lon="-3.41521">
        <ele>19.71</ele>
        <time>2020-07-10T11:31:37Z</time>
      </trkpt>
      <trkpt lat="47.81335" lon="-3.41523">
        <ele>19.54</ele>
        <time>2020-07-10T11:31:38Z</time>
      </trkpt>
      <trkpt lat="47.81335" lon="-3.41525">
        <ele>19.32</ele>
        <time>2020-07-10T11:31:39Z</time>
      </trkpt>
      <trkpt lat="47.81335" lon="-3.41528">
        <ele>19.13</ele>
        <time>2020-07-10T11:31:40Z</time>
      </trkpt>
      <trkpt lat="47.81337" lon="-3.41531">
        <ele>19.23</ele>
        <time>2020-07-10T11:31:41Z</time>
      </trkpt>
      <trkpt lat="47.81337" lon="-3.41531">
        <ele>19.16</ele>
        <time>2020-07-10T11:31:42Z</time>
      </trkpt>
      <trkpt lat="47.81337" lon="-3.41533">
        <ele>18.96</ele>
        <time>2020-07-10T11:31:43Z</time>
      </trkpt>
      <trkpt lat="47.81337" lon="-3.41533">
        <ele>18.9</ele>
        <time>2020-07-10T11:31:44Z</time>
      </trkpt>
      <trkpt lat="47.81337" lon="-3.41533">
        <ele>18.88</ele>
        <time>2020-07-10T11:31:45Z</time>
      </trkpt>
      <trkpt lat="47.81337" lon="-3.41533">
        <ele>18.87</ele>
        <time>2020-07-10T11:31:46Z</time>
      </trkpt>
      <trkpt lat="47.81337" lon="-3.41533">
        <ele>18.87</ele>
        <time>2020-07-10T11:31:47Z</time>
      </trkpt>
      <trkpt lat="47.81337" lon="-3.41533">
        <ele>18.87</ele>
        <time>2020-07-10T11:31:48Z</time>
      </trkpt>
      <trkpt lat="47.81337" lon="-3.41533">
        <ele>18.87</ele>
        <time>2020-07-10T11:31:49Z</time>
      </trkpt>
      <trkpt lat="47.81337" lon="-3.41533">
        <ele>18.87</ele>
        <time>2020-07-10T11:31:50Z</time>
      </trkpt>
      <trkpt lat="47.81337" lon="-3.41533">
        <ele>18.87</ele>
        <time>2020-07-10T11:31:51Z</time>
      </trkpt>
      <trkpt lat="47.81337" lon="-3.41533">
        <ele>18.87</ele>
        <time>2020-07-10T11:31:52Z</time>
      </trkpt>
      <trkpt lat="47.81338" lon="-3.41546">
        <ele>18.11</ele>
        <time>2020-07-10T11:31:53Z</time>
      </trkpt>
      <trkpt lat="47.8134" lon="-3.41548">
        <ele>18.11</ele>
        <time>2020-07-10T11:31:54Z</time>
      </trkpt>
      <trkpt lat="47.81343" lon="-3.41553">
        <ele>18.79</ele>
        <time>2020-07-10T11:31:55Z</time>
      </trkpt>
      <trkpt lat="47.81345" lon="-3.41554">
        <ele>19.3</ele>
        <time>2020-07-10T11:31:56Z</time>
      </trkpt>
      <trkpt lat="47.81346" lon="-3.41556">
        <ele>19.66</ele>
        <time>2020-07-10T11:31:57Z</time>
      </trkpt>
      <trkpt lat="47.81347" lon="-3.41557">
        <ele>20.21</ele>
        <time>2020-07-10T11:31:58Z</time>
      </trkpt>
      <trkpt lat="47.81349" lon="-3.41558">
        <ele>20.73</ele>
        <time>2020-07-10T11:31:59Z</time>
      </trkpt>
      <trkpt lat="47.8135" lon="-3.4156">
        <ele>20.99</ele>
        <time>2020-07-10T11:32:00Z</time>
      </trkpt>
      <trkpt lat="47.81351" lon="-3.41561">
        <ele>21.25</ele>
        <time>2020-07-10T11:32:01Z</time>
      </trkpt>
      <trkpt lat="47.81351" lon="-3.41562">
        <ele>21.24</ele>
        <time>2020-07-10T11:32:02Z</time>
      </trkpt>
      <trkpt lat="47.81351" lon="-3.41563">
        <ele>21.13</ele>
        <time>2020-07-10T11:32:03Z</time>
      </trkpt>
      <trkpt lat="47.81351" lon="-3.41563">
        <ele>21</ele>
        <time>2020-07-10T11:32:04Z</time>
      </trkpt>
      <trkpt lat="47.81351" lon="-3.41563">
        <ele>20.97</ele>
        <time>2020-07-10T11:32:05Z</time>
      </trkpt>
      <trkpt lat="47.81351" lon="-3.41563">
        <ele>20.95</ele>
        <time>2020-07-10T11:32:06Z</time>
      </trkpt>
      <trkpt lat="47.81351" lon="-3.41563">
        <ele>20.95</ele>
        <time>2020-07-10T11:32:07Z</time>
      </trkpt>
      <trkpt lat="47.81351" lon="-3.41563">
        <ele>20.95</ele>
        <time>2020-07-10T11:32:08Z</time>
      </trkpt>
      <trkpt lat="47.81351" lon="-3.41563">
        <ele>20.95</ele>
        <time>2020-07-10T11:32:09Z</time>
      </trkpt>
      <trkpt lat="47.81351" lon="-3.41563">
        <ele>20.95</ele>
        <time>2020-07-10T11:32:10Z</time>
      </trkpt>
      <trkpt lat="47.81351" lon="-3.41563">
        <ele>20.95</ele>
        <time>2020-07-10T11:32:11Z</time>
      </trkpt>
      <trkpt lat="47.81351" lon="-3.41563">
        <ele>20.95</ele>
        <time>2020-07-10T11:32:12Z</time>
      </trkpt>
      <trkpt lat="47.81351" lon="-3.41563">
        <ele>20.95</ele>
        <time>2020-07-10T11:32:13Z</time>
      </trkpt>
      <trkpt lat="47.81351" lon="-3.41563">
        <ele>20.95</ele>
        <time>2020-07-10T11:32:14Z</time>
      </trkpt>
      <trkpt lat="47.81351" lon="-3.41563">
        <ele>20.95</ele>
        <time>2020-07-10T11:32:15Z</time>
      </trkpt>
      <trkpt lat="47.81351" lon="-3.41563">
        <ele>20.95</ele>
        <time>2020-07-10T11:32:16Z</time>
      </trkpt>
      <trkpt lat="47.81351" lon="-3.41563">
        <ele>20.95</ele>
        <time>2020-07-10T11:32:17Z</time>
      </trkpt>
      <trkpt lat="47.81351" lon="-3.41563">
        <ele>20.95</ele>
        <time>2020-07-10T11:32:18Z</time>
      </trkpt>
      <trkpt lat="47.81351" lon="-3.41563">
        <ele>20.95</ele>
        <time>2020-07-10T11:32:19Z</time>
      </trkpt>
      <trkpt lat="47.81351" lon="-3.41563">
        <ele>20.95</ele>
        <time>2020-07-10T11:32:20Z</time>
      </trkpt>
      <trkpt lat="47.81351" lon="-3.41563">
        <ele>20.95</ele>
        <time>2020-07-10T11:32:21Z</time>
      </trkpt>
      <trkpt lat="47.8135" lon="-3.41577">
        <ele>19</ele>
        <time>2020-07-10T11:32:22Z</time>
      </trkpt>
      <trkpt lat="47.8135" lon="-3.41577">
        <ele>18.39</ele>
        <time>2020-07-10T11:32:23Z</time>
      </trkpt>
      <trkpt lat="47.81351" lon="-3.41577">
        <ele>18.45</ele>
        <time>2020-07-10T11:32:24Z</time>
      </trkpt>
      <trkpt lat="47.81352" lon="-3.41577">
        <ele>18.5</ele>
        <time>2020-07-10T11:32:25Z</time>
      </trkpt>
      <trkpt lat="47.81352" lon="-3.41577">
        <ele>18.51</ele>
        <time>2020-07-10T11:32:26Z</time>
      </trkpt>
      <trkpt lat="47.81352" lon="-3.41577">
        <ele>18.52</ele>
        <time>2020-07-10T11:32:27Z</time>
      </trkpt>
      <trkpt lat="47.81352" lon="-3.41577">
        <ele>18.52</ele>
        <time>2020-07-10T11:32:28Z</time>
      </trkpt>
      <trkpt lat="47.81352" lon="-3.41577">
        <ele>18.52</ele>
        <time>2020-07-10T11:32:29Z</time>
      </trkpt>
      <trkpt lat="47.81352" lon="-3.41577">
        <ele>18.52</ele>
        <time>2020-07-10T11:32:30Z</time>
      </trkpt>
      <trkpt lat="47.81352" lon="-3.41577">
        <ele>18.52</ele>
        <time>2020-07-10T11:32:31Z</time>
      </trkpt>
      <trkpt lat="47.81352" lon="-3.41577">
        <ele>18.52</ele>
        <time>2020-07-10T11:32:32Z</time>
      </trkpt>
      <trkpt lat="47.81352" lon="-3.41577">
        <ele>18.52</ele>
        <time>2020-07-10T11:32:33Z</time>
      </trkpt>
      <trkpt lat="47.81352" lon="-3.41577">
        <ele>18.52</ele>
        <time>2020-07-10T11:32:34Z</time>
      </trkpt>
      <trkpt lat="47.81352" lon="-3.41577">
        <ele>18.52</ele>
        <time>2020-07-10T11:32:35Z</time>
      </trkpt>
      <trkpt lat="47.81352" lon="-3.41577">
        <ele>18.52</ele>
        <time>2020-07-10T11:32:36Z</time>
      </trkpt>
      <trkpt lat="47.81352" lon="-3.41577">
        <ele>18.52</ele>
        <time>2020-07-10T11:32:37Z</time>
      </trkpt>
      <trkpt lat="47.81352" lon="-3.41577">
        <ele>18.52</ele>
        <time>2020-07-10T11:32:38Z</time>
      </trkpt>
      <trkpt lat="47.81352" lon="-3.41577">
        <ele>18.52</ele>
        <time>2020-07-10T11:32:39Z</time>
      </trkpt>
      <trkpt lat="47.81352" lon="-3.41577">
        <ele>18.52</ele>
        <time>2020-07-10T11:32:40Z</time>
      </trkpt>
      <trkpt lat="47.81352" lon="-3.41577">
        <ele>18.52</ele>
        <time>2020-07-10T11:32:41Z</time>
      </trkpt>
      <trkpt lat="47.81352" lon="-3.41577">
        <ele>18.52</ele>
        <time>2020-07-10T11:32:42Z</time>
      </trkpt>
      <trkpt lat="47.81352" lon="-3.41577">
        <ele>18.52</ele>
        <time>2020-07-10T11:32:43Z</time>
      </trkpt>
      <trkpt lat="47.81352" lon="-3.41577">
        <ele>18.52</ele>
        <time>2020-07-10T11:32:44Z</time>
      </trkpt>
      <trkpt lat="47.81352" lon="-3.41577">
        <ele>18.52</ele>
        <time>2020-07-10T11:32:45Z</time>
      </trkpt>
      <trkpt lat="47.81352" lon="-3.41577">
        <ele>18.52</ele>
        <time>2020-07-10T11:32:46Z</time>
      </trkpt>
      <trkpt lat="47.81352" lon="-3.41577">
        <ele>18.52</ele>
        <time>2020-07-10T11:32:47Z</time>
      </trkpt>
      <trkpt lat="47.81352" lon="-3.41577">
        <ele>18.52</ele>
        <time>2020-07-10T11:32:48Z</time>
      </trkpt>
      <trkpt lat="47.81352" lon="-3.41577">
        <ele>18.52</ele>
        <time>2020-07-10T11:32:49Z</time>
      </trkpt>
      <trkpt lat="47.81352" lon="-3.41577">
        <ele>18.52</ele>
        <time>2020-07-10T11:32:50Z</time>
      </trkpt>
      <trkpt lat="47.81352" lon="-3.41577">
        <ele>18.52</ele>
        <time>2020-07-10T11:32:51Z</time>
      </trkpt>
      <trkpt lat="47.81352" lon="-3.41577">
        <ele>18.52</ele>
        <time>2020-07-10T11:32:52Z</time>
      </trkpt>
      <trkpt lat="47.81352" lon="-3.41577">
        <ele>18.52</ele>
        <time>2020-07-10T11:32:53Z</time>
      </trkpt>
      <trkpt lat="47.81352" lon="-3.41577">
        <ele>18.52</ele>
        <time>2020-07-10T11:32:54Z</time>
      </trkpt>
      <trkpt lat="47.81352" lon="-3.41577">
        <ele>18.52</ele>
        <time>2020-07-10T11:32:55Z</time>
      </trkpt>
      <trkpt lat="47.81352" lon="-3.41577">
        <ele>18.52</ele>
        <time>2020-07-10T11:32:56Z</time>
      </trkpt>
      <trkpt lat="47.81352" lon="-3.41577">
        <ele>18.52</ele>
        <time>2020-07-10T11:32:57Z</time>
      </trkpt>
      <trkpt lat="47.81353" lon="-3.4159">
        <ele>17.28</ele>
        <time>2020-07-10T11:32:58Z</time>
      </trkpt>
      <trkpt lat="47.81352" lon="-3.41591">
        <ele>16.72</ele>
        <time>2020-07-10T11:32:59Z</time>
      </trkpt>
      <trkpt lat="47.8135" lon="-3.41591">
        <ele>16.35</ele>
        <time>2020-07-10T11:33:00Z</time>
      </trkpt>
      <trkpt lat="47.8135" lon="-3.41591">
        <ele>16.19</ele>
        <time>2020-07-10T11:33:01Z</time>
      </trkpt>
      <trkpt lat="47.8135" lon="-3.41591">
        <ele>16.14</ele>
        <time>2020-07-10T11:33:02Z</time>
      </trkpt>
      <trkpt lat="47.8135" lon="-3.41591">
        <ele>16.13</ele>
        <time>2020-07-10T11:33:03Z</time>
      </trkpt>
      <trkpt lat="47.8135" lon="-3.41591">
        <ele>16.12</ele>
        <time>2020-07-10T11:33:04Z</time>
      </trkpt>
      <trkpt lat="47.8135" lon="-3.41591">
        <ele>16.12</ele>
        <time>2020-07-10T11:33:05Z</time>
      </trkpt>
      <trkpt lat="47.8135" lon="-3.41591">
        <ele>16.12</ele>
        <time>2020-07-10T11:33:06Z</time>
      </trkpt>
      <trkpt lat="47.8135" lon="-3.41591">
        <ele>16.12</ele>
        <time>2020-07-10T11:33:07Z</time>
      </trkpt>
      <trkpt lat="47.8135" lon="-3.41591">
        <ele>16.12</ele>
        <time>2020-07-10T11:33:08Z</time>
      </trkpt>
      <trkpt lat="47.8135" lon="-3.41591">
        <ele>16.12</ele>
        <time>2020-07-10T11:33:09Z</time>
      </trkpt>
      <trkpt lat="47.8135" lon="-3.41591">
        <ele>16.12</ele>
        <time>2020-07-10T11:33:10Z</time>
      </trkpt>
      <trkpt lat="47.8135" lon="-3.41591">
        <ele>16.12</ele>
        <time>2020-07-10T11:33:11Z</time>
      </trkpt>
      <trkpt lat="47.81347" lon="-3.41606">
        <ele>14.86</ele>
        <time>2020-07-10T11:33:12Z</time>
      </trkpt>
      <trkpt lat="47.81346" lon="-3.41609">
        <ele>14.27</ele>
        <time>2020-07-10T11:33:13Z</time>
      </trkpt>
      <trkpt lat="47.81343" lon="-3.41613">
        <ele>13.92</ele>
        <time>2020-07-10T11:33:14Z</time>
      </trkpt>
      <trkpt lat="47.81342" lon="-3.41617">
        <ele>13.82</ele>
        <time>2020-07-10T11:33:15Z</time>
      </trkpt>
      <trkpt lat="47.81342" lon="-3.4162">
        <ele>13.82</ele>
        <time>2020-07-10T11:33:16Z</time>
      </trkpt>
      <trkpt lat="47.8134" lon="-3.41622">
        <ele>13.81</ele>
        <time>2020-07-10T11:33:17Z</time>
      </trkpt>
      <trkpt lat="47.81339" lon="-3.41626">
        <ele>13.83</ele>
        <time>2020-07-10T11:33:18Z</time>
      </trkpt>
      <trkpt lat="47.81338" lon="-3.41629">
        <ele>13.85</ele>
        <time>2020-07-10T11:33:19Z</time>
      </trkpt>
      <trkpt lat="47.81336" lon="-3.41632">
        <ele>13.87</ele>
        <time>2020-07-10T11:33:20Z</time>
      </trkpt>
      <trkpt lat="47.81334" lon="-3.41636">
        <ele>13.92</ele>
        <time>2020-07-10T11:33:21Z</time>
      </trkpt>
      <trkpt lat="47.81333" lon="-3.4164">
        <ele>13.99</ele>
        <time>2020-07-10T11:33:22Z</time>
      </trkpt>
      <trkpt lat="47.81332" lon="-3.41643">
        <ele>14.04</ele>
        <time>2020-07-10T11:33:23Z</time>
      </trkpt>
      <trkpt lat="47.81331" lon="-3.41646">
        <ele>14.09</ele>
        <time>2020-07-10T11:33:24Z</time>
      </trkpt>
      <trkpt lat="47.8133" lon="-3.41649">
        <ele>14.13</ele>
        <time>2020-07-10T11:33:25Z</time>
      </trkpt>
      <trkpt lat="47.81331" lon="-3.41656">
        <ele>14.14</ele>
        <time>2020-07-10T11:33:26Z</time>
      </trkpt>
      <trkpt lat="47.81329" lon="-3.41659">
        <ele>14.22</ele>
        <time>2020-07-10T11:33:27Z</time>
      </trkpt>
      <trkpt lat="47.81328" lon="-3.41664">
        <ele>14.32</ele>
        <time>2020-07-10T11:33:28Z</time>
      </trkpt>
      <trkpt lat="47.81327" lon="-3.41669">
        <ele>14.4</ele>
        <time>2020-07-10T11:33:29Z</time>
      </trkpt>
      <trkpt lat="47.81327" lon="-3.41673">
        <ele>14.42</ele>
        <time>2020-07-10T11:33:30Z</time>
      </trkpt>
      <trkpt lat="47.81325" lon="-3.41677">
        <ele>14.48</ele>
        <time>2020-07-10T11:33:31Z</time>
      </trkpt>
      <trkpt lat="47.81323" lon="-3.4168">
        <ele>14.53</ele>
        <time>2020-07-10T11:33:32Z</time>
      </trkpt>
      <trkpt lat="47.81323" lon="-3.41683">
        <ele>14.54</ele>
        <time>2020-07-10T11:33:33Z</time>
      </trkpt>
      <trkpt lat="47.81322" lon="-3.41687">
        <ele>14.54</ele>
        <time>2020-07-10T11:33:34Z</time>
      </trkpt>
      <trkpt lat="47.8132" lon="-3.41691">
        <ele>14.53</ele>
        <time>2020-07-10T11:33:35Z</time>
      </trkpt>
      <trkpt lat="47.81318" lon="-3.41696">
        <ele>14.56</ele>
        <time>2020-07-10T11:33:36Z</time>
      </trkpt>
      <trkpt lat="47.81316" lon="-3.41699">
        <ele>14.64</ele>
        <time>2020-07-10T11:33:37Z</time>
      </trkpt>
      <trkpt lat="47.81314" lon="-3.41704">
        <ele>14.64</ele>
        <time>2020-07-10T11:33:38Z</time>
      </trkpt>
      <trkpt lat="47.81311" lon="-3.41708">
        <ele>14.49</ele>
        <time>2020-07-10T11:33:39Z</time>
      </trkpt>
      <trkpt lat="47.8131" lon="-3.41712">
        <ele>14.29</ele>
        <time>2020-07-10T11:33:40Z</time>
      </trkpt>
      <trkpt lat="47.81309" lon="-3.41716">
        <ele>14</ele>
        <time>2020-07-10T11:33:41Z</time>
      </trkpt>
      <trkpt lat="47.81308" lon="-3.4172">
        <ele>13.64</ele>
        <time>2020-07-10T11:33:42Z</time>
      </trkpt>
      <trkpt lat="47.81306" lon="-3.41725">
        <ele>13.32</ele>
        <time>2020-07-10T11:33:43Z</time>
      </trkpt>
      <trkpt lat="47.81304" lon="-3.41729">
        <ele>13.47</ele>
        <time>2020-07-10T11:33:44Z</time>
      </trkpt>
      <trkpt lat="47.81302" lon="-3.41733">
        <ele>13.76</ele>
        <time>2020-07-10T11:33:45Z</time>
      </trkpt>
      <trkpt lat="47.81301" lon="-3.41737">
        <ele>14.02</ele>
        <time>2020-07-10T11:33:46Z</time>
      </trkpt>
      <trkpt lat="47.81299" lon="-3.4174">
        <ele>14.2</ele>
        <time>2020-07-10T11:33:47Z</time>
      </trkpt>
      <trkpt lat="47.81298" lon="-3.41742">
        <ele>14.34</ele>
        <time>2020-07-10T11:33:48Z</time>
      </trkpt>
      <trkpt lat="47.81297" lon="-3.41745">
        <ele>14.44</ele>
        <time>2020-07-10T11:33:49Z</time>
      </trkpt>
      <trkpt lat="47.81295" lon="-3.41747">
        <ele>14.5</ele>
        <time>2020-07-10T11:33:50Z</time>
      </trkpt>
      <trkpt lat="47.81294" lon="-3.41749">
        <ele>14.55</ele>
        <time>2020-07-10T11:33:51Z</time>
      </trkpt>
      <trkpt lat="47.81292" lon="-3.41753">
        <ele>14.59</ele>
        <time>2020-07-10T11:33:52Z</time>
      </trkpt>
      <trkpt lat="47.8129" lon="-3.41758">
        <ele>14.64</ele>
        <time>2020-07-10T11:33:53Z</time>
      </trkpt>
      <trkpt lat="47.81289" lon="-3.41762">
        <ele>14.67</ele>
        <time>2020-07-10T11:33:54Z</time>
      </trkpt>
      <trkpt lat="47.81289" lon="-3.41767">
        <ele>14.74</ele>
        <time>2020-07-10T11:33:55Z</time>
      </trkpt>
      <trkpt lat="47.81289" lon="-3.41774">
        <ele>14.88</ele>
        <time>2020-07-10T11:33:56Z</time>
      </trkpt>
      <trkpt lat="47.8129" lon="-3.41781">
        <ele>15.22</ele>
        <time>2020-07-10T11:33:57Z</time>
      </trkpt>
      <trkpt lat="47.81292" lon="-3.4179">
        <ele>15.94</ele>
        <time>2020-07-10T11:33:58Z</time>
      </trkpt>
      <trkpt lat="47.81293" lon="-3.41796">
        <ele>16.6</ele>
        <time>2020-07-10T11:33:59Z</time>
      </trkpt>
      <trkpt lat="47.81295" lon="-3.418">
        <ele>17.31</ele>
        <time>2020-07-10T11:34:00Z</time>
      </trkpt>
      <trkpt lat="47.81297" lon="-3.41806">
        <ele>18.16</ele>
        <time>2020-07-10T11:34:01Z</time>
      </trkpt>
      <trkpt lat="47.81299" lon="-3.4181">
        <ele>18.71</ele>
        <time>2020-07-10T11:34:02Z</time>
      </trkpt>
      <trkpt lat="47.813" lon="-3.41814">
        <ele>19.08</ele>
        <time>2020-07-10T11:34:03Z</time>
      </trkpt>
      <trkpt lat="47.81303" lon="-3.41818">
        <ele>19.66</ele>
        <time>2020-07-10T11:34:04Z</time>
      </trkpt>
      <trkpt lat="47.81306" lon="-3.41822">
        <ele>20.22</ele>
        <time>2020-07-10T11:34:05Z</time>
      </trkpt>
      <trkpt lat="47.8131" lon="-3.41826">
        <ele>20.78</ele>
        <time>2020-07-10T11:34:06Z</time>
      </trkpt>
      <trkpt lat="47.81313" lon="-3.4183">
        <ele>21.24</ele>
        <time>2020-07-10T11:34:07Z</time>
      </trkpt>
      <trkpt lat="47.81315" lon="-3.41836">
        <ele>21.38</ele>
        <time>2020-07-10T11:34:08Z</time>
      </trkpt>
      <trkpt lat="47.81318" lon="-3.41841">
        <ele>21.33</ele>
        <time>2020-07-10T11:34:09Z</time>
      </trkpt>
      <trkpt lat="47.81321" lon="-3.41845">
        <ele>21.39</ele>
        <time>2020-07-10T11:34:10Z</time>
      </trkpt>
      <trkpt lat="47.81325" lon="-3.41849">
        <ele>21.54</ele>
        <time>2020-07-10T11:34:11Z</time>
      </trkpt>
      <trkpt lat="47.81328" lon="-3.41851">
        <ele>21.82</ele>
        <time>2020-07-10T11:34:12Z</time>
      </trkpt>
      <trkpt lat="47.81331" lon="-3.41853">
        <ele>22.2</ele>
        <time>2020-07-10T11:34:13Z</time>
      </trkpt>
      <trkpt lat="47.81334" lon="-3.41854">
        <ele>22.65</ele>
        <time>2020-07-10T11:34:14Z</time>
      </trkpt>
      <trkpt lat="47.81337" lon="-3.41855">
        <ele>22.85</ele>
        <time>2020-07-10T11:34:15Z</time>
      </trkpt>
      <trkpt lat="47.8134" lon="-3.41858">
        <ele>22.98</ele>
        <time>2020-07-10T11:34:16Z</time>
      </trkpt>
      <trkpt lat="47.81344" lon="-3.4186">
        <ele>23.15</ele>
        <time>2020-07-10T11:34:17Z</time>
      </trkpt>
      <trkpt lat="47.81346" lon="-3.41863">
        <ele>22.98</ele>
        <time>2020-07-10T11:34:18Z</time>
      </trkpt>
      <trkpt lat="47.81348" lon="-3.41866">
        <ele>22.68</ele>
        <time>2020-07-10T11:34:19Z</time>
      </trkpt>
      <trkpt lat="47.8135" lon="-3.4187">
        <ele>22.28</ele>
        <time>2020-07-10T11:34:20Z</time>
      </trkpt>
      <trkpt lat="47.81352" lon="-3.41876">
        <ele>21.47</ele>
        <time>2020-07-10T11:34:21Z</time>
      </trkpt>
      <trkpt lat="47.81354" lon="-3.41879">
        <ele>21.07</ele>
        <time>2020-07-10T11:34:22Z</time>
      </trkpt>
      <trkpt lat="47.81356" lon="-3.41881">
        <ele>20.79</ele>
        <time>2020-07-10T11:34:23Z</time>
      </trkpt>
      <trkpt lat="47.81358" lon="-3.41883">
        <ele>20.59</ele>
        <time>2020-07-10T11:34:24Z</time>
      </trkpt>
      <trkpt lat="47.8136" lon="-3.41885">
        <ele>20.53</ele>
        <time>2020-07-10T11:34:25Z</time>
      </trkpt>
      <trkpt lat="47.81363" lon="-3.41887">
        <ele>20.58</ele>
        <time>2020-07-10T11:34:26Z</time>
      </trkpt>
      <trkpt lat="47.81366" lon="-3.4189">
        <ele>20.72</ele>
        <time>2020-07-10T11:34:27Z</time>
      </trkpt>
      <trkpt lat="47.81369" lon="-3.41893">
        <ele>20.88</ele>
        <time>2020-07-10T11:34:28Z</time>
      </trkpt>
      <trkpt lat="47.81372" lon="-3.41897">
        <ele>20.82</ele>
        <time>2020-07-10T11:34:29Z</time>
      </trkpt>
      <trkpt lat="47.81375" lon="-3.41902">
        <ele>20.78</ele>
        <time>2020-07-10T11:34:30Z</time>
      </trkpt>
      <trkpt lat="47.8138" lon="-3.41905">
        <ele>20.99</ele>
        <time>2020-07-10T11:34:31Z</time>
      </trkpt>
      <trkpt lat="47.81383" lon="-3.41909">
        <ele>21.1</ele>
        <time>2020-07-10T11:34:32Z</time>
      </trkpt>
      <trkpt lat="47.81387" lon="-3.41913">
        <ele>21.23</ele>
        <time>2020-07-10T11:34:33Z</time>
      </trkpt>
      <trkpt lat="47.8139" lon="-3.41917">
        <ele>21.18</ele>
        <time>2020-07-10T11:34:34Z</time>
      </trkpt>
      <trkpt lat="47.81394" lon="-3.41921">
        <ele>20.83</ele>
        <time>2020-07-10T11:34:35Z</time>
      </trkpt>
      <trkpt lat="47.81398" lon="-3.41926">
        <ele>20.36</ele>
        <time>2020-07-10T11:34:36Z</time>
      </trkpt>
      <trkpt lat="47.81402" lon="-3.41929">
        <ele>19.92</ele>
        <time>2020-07-10T11:34:37Z</time>
      </trkpt>
      <trkpt lat="47.81404" lon="-3.41932">
        <ele>19.39</ele>
        <time>2020-07-10T11:34:38Z</time>
      </trkpt>
      <trkpt lat="47.81409" lon="-3.41936">
        <ele>18.85</ele>
        <time>2020-07-10T11:34:39Z</time>
      </trkpt>
      <trkpt lat="47.81412" lon="-3.41939">
        <ele>18.38</ele>
        <time>2020-07-10T11:34:40Z</time>
      </trkpt>
      <trkpt lat="47.81415" lon="-3.41942">
        <ele>17.77</ele>
        <time>2020-07-10T11:34:41Z</time>
      </trkpt>
      <trkpt lat="47.81419" lon="-3.41946">
        <ele>17.37</ele>
        <time>2020-07-10T11:34:42Z</time>
      </trkpt>
      <trkpt lat="47.81422" lon="-3.41949">
        <ele>17.44</ele>
        <time>2020-07-10T11:34:43Z</time>
      </trkpt>
      <trkpt lat="47.81425" lon="-3.41951">
        <ele>17.73</ele>
        <time>2020-07-10T11:34:44Z</time>
      </trkpt>
      <trkpt lat="47.81429" lon="-3.41951">
        <ele>18.29</ele>
        <time>2020-07-10T11:34:45Z</time>
      </trkpt>
      <trkpt lat="47.81433" lon="-3.41952">
        <ele>18.77</ele>
        <time>2020-07-10T11:34:46Z</time>
      </trkpt>
      <trkpt lat="47.81435" lon="-3.41954">
        <ele>19.01</ele>
        <time>2020-07-10T11:34:47Z</time>
      </trkpt>
      <trkpt lat="47.81438" lon="-3.41956">
        <ele>19.01</ele>
        <time>2020-07-10T11:34:48Z</time>
      </trkpt>
      <trkpt lat="47.81439" lon="-3.41957">
        <ele>18.93</ele>
        <time>2020-07-10T11:34:49Z</time>
      </trkpt>
      <trkpt lat="47.81439" lon="-3.41957">
        <ele>18.96</ele>
        <time>2020-07-10T11:34:50Z</time>
      </trkpt>
      <trkpt lat="47.81439" lon="-3.41957">
        <ele>18.98</ele>
        <time>2020-07-10T11:34:51Z</time>
      </trkpt>
      <trkpt lat="47.81439" lon="-3.41957">
        <ele>18.99</ele>
        <time>2020-07-10T11:34:52Z</time>
      </trkpt>
      <trkpt lat="47.81439" lon="-3.41957">
        <ele>18.99</ele>
        <time>2020-07-10T11:34:53Z</time>
      </trkpt>
      <trkpt lat="47.81439" lon="-3.41957">
        <ele>18.99</ele>
        <time>2020-07-10T11:34:54Z</time>
      </trkpt>
      <trkpt lat="47.81439" lon="-3.41957">
        <ele>18.99</ele>
        <time>2020-07-10T11:34:55Z</time>
      </trkpt>
      <trkpt lat="47.81439" lon="-3.41957">
        <ele>18.99</ele>
        <time>2020-07-10T11:34:56Z</time>
      </trkpt>
      <trkpt lat="47.81439" lon="-3.41957">
        <ele>18.99</ele>
        <time>2020-07-10T11:34:57Z</time>
      </trkpt>
      <trkpt lat="47.81439" lon="-3.41957">
        <ele>18.99</ele>
        <time>2020-07-10T11:34:58Z</time>
      </trkpt>
      <trkpt lat="47.81439" lon="-3.41957">
        <ele>18.99</ele>
        <time>2020-07-10T11:34:59Z</time>
      </trkpt>
      <trkpt lat="47.81439" lon="-3.41957">
        <ele>18.99</ele>
        <time>2020-07-10T11:35:00Z</time>
      </trkpt>
      <trkpt lat="47.81439" lon="-3.41957">
        <ele>18.99</ele>
        <time>2020-07-10T11:35:01Z</time>
      </trkpt>
      <trkpt lat="47.81439" lon="-3.41957">
        <ele>18.99</ele>
        <time>2020-07-10T11:35:02Z</time>
      </trkpt>
      <trkpt lat="47.81439" lon="-3.41957">
        <ele>18.99</ele>
        <time>2020-07-10T11:35:03Z</time>
      </trkpt>
      <trkpt lat="47.81439" lon="-3.41957">
        <ele>18.99</ele>
        <time>2020-07-10T11:35:04Z</time>
      </trkpt>
      <trkpt lat="47.81439" lon="-3.41957">
        <ele>18.99</ele>
        <time>2020-07-10T11:35:05Z</time>
      </trkpt>
      <trkpt lat="47.81439" lon="-3.41957">
        <ele>18.99</ele>
        <time>2020-07-10T11:35:06Z</time>
      </trkpt>
      <trkpt lat="47.81439" lon="-3.41957">
        <ele>18.99</ele>
        <time>2020-07-10T11:35:07Z</time>
      </trkpt>
      <trkpt lat="47.81439" lon="-3.41957">
        <ele>18.99</ele>
        <time>2020-07-10T11:35:08Z</time>
      </trkpt>
      <trkpt lat="47.81439" lon="-3.41957">
        <ele>18.99</ele>
        <time>2020-07-10T11:35:09Z</time>
      </trkpt>
      <trkpt lat="47.81439" lon="-3.41957">
        <ele>18.99</ele>
        <time>2020-07-10T11:35:10Z</time>
      </trkpt>
      <trkpt lat="47.81439" lon="-3.41957">
        <ele>18.99</ele>
        <time>2020-07-10T11:35:11Z</time>
      </trkpt>
      <trkpt lat="47.81439" lon="-3.41957">
        <ele>18.99</ele>
        <time>2020-07-10T11:35:12Z</time>
      </trkpt>
      <trkpt lat="47.81446" lon="-3.41968">
        <ele>17.78</ele>
        <time>2020-07-10T11:35:13Z</time>
      </trkpt>
      <trkpt lat="47.81448" lon="-3.41969">
        <ele>17.23</ele>
        <time>2020-07-10T11:35:14Z</time>
      </trkpt>
      <trkpt lat="47.81448" lon="-3.4197">
        <ele>16.99</ele>
        <time>2020-07-10T11:35:15Z</time>
      </trkpt>
      <trkpt lat="47.81448" lon="-3.4197">
        <ele>16.97</ele>
        <time>2020-07-10T11:35:16Z</time>
      </trkpt>
      <trkpt lat="47.81448" lon="-3.4197">
        <ele>16.96</ele>
        <time>2020-07-10T11:35:17Z</time>
      </trkpt>
      <trkpt lat="47.81448" lon="-3.4197">
        <ele>16.96</ele>
        <time>2020-07-10T11:35:18Z</time>
      </trkpt>
      <trkpt lat="47.81448" lon="-3.4197">
        <ele>16.95</ele>
        <time>2020-07-10T11:35:19Z</time>
      </trkpt>
      <trkpt lat="47.81448" lon="-3.4197">
        <ele>16.95</ele>
        <time>2020-07-10T11:35:20Z</time>
      </trkpt>
      <trkpt lat="47.81448" lon="-3.4197">
        <ele>16.95</ele>
        <time>2020-07-10T11:35:21Z</time>
      </trkpt>
      <trkpt lat="47.81448" lon="-3.4197">
        <ele>16.95</ele>
        <time>2020-07-10T11:35:22Z</time>
      </trkpt>
      <trkpt lat="47.81448" lon="-3.4197">
        <ele>16.95</ele>
        <time>2020-07-10T11:35:23Z</time>
      </trkpt>
      <trkpt lat="47.81454" lon="-3.41966">
        <ele>17.87</ele>
        <time>2020-07-10T11:35:24Z</time>
      </trkpt>
      <trkpt lat="47.81455" lon="-3.41966">
        <ele>18.23</ele>
        <time>2020-07-10T11:35:25Z</time>
      </trkpt>
      <trkpt lat="47.81455" lon="-3.41966">
        <ele>18.36</ele>
        <time>2020-07-10T11:35:26Z</time>
      </trkpt>
      <trkpt lat="47.81455" lon="-3.41966">
        <ele>18.44</ele>
        <time>2020-07-10T11:35:27Z</time>
      </trkpt>
      <trkpt lat="47.81455" lon="-3.41966">
        <ele>18.46</ele>
        <time>2020-07-10T11:35:28Z</time>
      </trkpt>
      <trkpt lat="47.81455" lon="-3.41966">
        <ele>18.47</ele>
        <time>2020-07-10T11:35:29Z</time>
      </trkpt>
      <trkpt lat="47.81455" lon="-3.41966">
        <ele>18.47</ele>
        <time>2020-07-10T11:35:30Z</time>
      </trkpt>
      <trkpt lat="47.81455" lon="-3.41966">
        <ele>18.47</ele>
        <time>2020-07-10T11:35:31Z</time>
      </trkpt>
      <trkpt lat="47.81455" lon="-3.41966">
        <ele>18.47</ele>
        <time>2020-07-10T11:35:32Z</time>
      </trkpt>
      <trkpt lat="47.81455" lon="-3.41966">
        <ele>18.47</ele>
        <time>2020-07-10T11:35:33Z</time>
      </trkpt>
      <trkpt lat="47.81455" lon="-3.41966">
        <ele>18.47</ele>
        <time>2020-07-10T11:35:34Z</time>
      </trkpt>
      <trkpt lat="47.81455" lon="-3.41966">
        <ele>18.47</ele>
        <time>2020-07-10T11:35:35Z</time>
      </trkpt>
      <trkpt lat="47.81455" lon="-3.41966">
        <ele>18.47</ele>
        <time>2020-07-10T11:35:36Z</time>
      </trkpt>
      <trkpt lat="47.81455" lon="-3.41966">
        <ele>18.47</ele>
        <time>2020-07-10T11:35:37Z</time>
      </trkpt>
      <trkpt lat="47.81455" lon="-3.41966">
        <ele>18.47</ele>
        <time>2020-07-10T11:35:38Z</time>
      </trkpt>
      <trkpt lat="47.81455" lon="-3.41966">
        <ele>18.47</ele>
        <time>2020-07-10T11:35:39Z</time>
      </trkpt>
      <trkpt lat="47.81455" lon="-3.41966">
        <ele>18.47</ele>
        <time>2020-07-10T11:35:40Z</time>
      </trkpt>
      <trkpt lat="47.81455" lon="-3.41966">
        <ele>18.47</ele>
        <time>2020-07-10T11:35:41Z</time>
      </trkpt>
      <trkpt lat="47.81455" lon="-3.41966">
        <ele>18.47</ele>
        <time>2020-07-10T11:35:42Z</time>
      </trkpt>
      <trkpt lat="47.81455" lon="-3.41966">
        <ele>18.47</ele>
        <time>2020-07-10T11:35:43Z</time>
      </trkpt>
      <trkpt lat="47.81455" lon="-3.41966">
        <ele>18.47</ele>
        <time>2020-07-10T11:35:44Z</time>
      </trkpt>
      <trkpt lat="47.81455" lon="-3.41966">
        <ele>18.47</ele>
        <time>2020-07-10T11:35:45Z</time>
      </trkpt>
      <trkpt lat="47.81455" lon="-3.41966">
        <ele>18.47</ele>
        <time>2020-07-10T11:35:46Z</time>
      </trkpt>
      <trkpt lat="47.81455" lon="-3.41966">
        <ele>18.47</ele>
        <time>2020-07-10T11:35:47Z</time>
      </trkpt>
      <trkpt lat="47.81455" lon="-3.41966">
        <ele>18.47</ele>
        <time>2020-07-10T11:35:48Z</time>
      </trkpt>
      <trkpt lat="47.81455" lon="-3.41966">
        <ele>18.47</ele>
        <time>2020-07-10T11:35:49Z</time>
      </trkpt>
      <trkpt lat="47.81455" lon="-3.41966">
        <ele>18.47</ele>
        <time>2020-07-10T11:35:50Z</time>
      </trkpt>
      <trkpt lat="47.81455" lon="-3.41966">
        <ele>18.47</ele>
        <time>2020-07-10T11:35:51Z</time>
      </trkpt>
      <trkpt lat="47.81455" lon="-3.41966">
        <ele>18.47</ele>
        <time>2020-07-10T11:35:52Z</time>
      </trkpt>
      <trkpt lat="47.81455" lon="-3.41966">
        <ele>18.47</ele>
        <time>2020-07-10T11:35:53Z</time>
      </trkpt>
      <trkpt lat="47.81455" lon="-3.41966">
        <ele>18.47</ele>
        <time>2020-07-10T11:35:54Z</time>
      </trkpt>
      <trkpt lat="47.81463" lon="-3.41959">
        <ele>20.21</ele>
        <time>2020-07-10T11:35:55Z</time>
      </trkpt>
      <trkpt lat="47.81464" lon="-3.41959">
        <ele>20.84</ele>
        <time>2020-07-10T11:35:56Z</time>
      </trkpt>
      <trkpt lat="47.81465" lon="-3.41959">
        <ele>21.1</ele>
        <time>2020-07-10T11:35:57Z</time>
      </trkpt>
      <trkpt lat="47.81464" lon="-3.41959">
        <ele>21.14</ele>
        <time>2020-07-10T11:35:58Z</time>
      </trkpt>
      <trkpt lat="47.81464" lon="-3.41959">
        <ele>21.15</ele>
        <time>2020-07-10T11:35:59Z</time>
      </trkpt>
      <trkpt lat="47.81464" lon="-3.41959">
        <ele>21.15</ele>
        <time>2020-07-10T11:36:00Z</time>
      </trkpt>
      <trkpt lat="47.81464" lon="-3.41959">
        <ele>21.15</ele>
        <time>2020-07-10T11:36:01Z</time>
      </trkpt>
      <trkpt lat="47.81464" lon="-3.41959">
        <ele>21.15</ele>
        <time>2020-07-10T11:36:02Z</time>
      </trkpt>
      <trkpt lat="47.81464" lon="-3.41959">
        <ele>21.15</ele>
        <time>2020-07-10T11:36:03Z</time>
      </trkpt>
      <trkpt lat="47.81464" lon="-3.41959">
        <ele>21.15</ele>
        <time>2020-07-10T11:36:04Z</time>
      </trkpt>
      <trkpt lat="47.81464" lon="-3.41959">
        <ele>21.15</ele>
        <time>2020-07-10T11:36:05Z</time>
      </trkpt>
      <trkpt lat="47.81464" lon="-3.41959">
        <ele>21.15</ele>
        <time>2020-07-10T11:36:06Z</time>
      </trkpt>
      <trkpt lat="47.81464" lon="-3.41959">
        <ele>21.15</ele>
        <time>2020-07-10T11:36:07Z</time>
      </trkpt>
      <trkpt lat="47.81464" lon="-3.41959">
        <ele>21.15</ele>
        <time>2020-07-10T11:36:08Z</time>
      </trkpt>
      <trkpt lat="47.81464" lon="-3.41959">
        <ele>21.15</ele>
        <time>2020-07-10T11:36:09Z</time>
      </trkpt>
      <trkpt lat="47.81464" lon="-3.41959">
        <ele>21.15</ele>
        <time>2020-07-10T11:36:10Z</time>
      </trkpt>
      <trkpt lat="47.81464" lon="-3.41959">
        <ele>21.15</ele>
        <time>2020-07-10T11:36:11Z</time>
      </trkpt>
      <trkpt lat="47.81464" lon="-3.41959">
        <ele>21.15</ele>
        <time>2020-07-10T11:36:12Z</time>
      </trkpt>
      <trkpt lat="47.81464" lon="-3.41959">
        <ele>21.15</ele>
        <time>2020-07-10T11:36:13Z</time>
      </trkpt>
      <trkpt lat="47.81464" lon="-3.41959">
        <ele>21.15</ele>
        <time>2020-07-10T11:36:14Z</time>
      </trkpt>
      <trkpt lat="47.81464" lon="-3.41959">
        <ele>21.15</ele>
        <time>2020-07-10T11:36:15Z</time>
      </trkpt>
      <trkpt lat="47.81469" lon="-3.41958">
        <ele>21.5</ele>
        <time>2020-07-10T11:36:16Z</time>
      </trkpt>
      <trkpt lat="47.8147" lon="-3.41958">
        <ele>21.68</ele>
        <time>2020-07-10T11:36:17Z</time>
      </trkpt>
      <trkpt lat="47.81471" lon="-3.41958">
        <ele>21.88</ele>
        <time>2020-07-10T11:36:18Z</time>
      </trkpt>
      <trkpt lat="47.81472" lon="-3.41957">
        <ele>22.17</ele>
        <time>2020-07-10T11:36:19Z</time>
      </trkpt>
      <trkpt lat="47.81473" lon="-3.41957">
        <ele>22.28</ele>
        <time>2020-07-10T11:36:20Z</time>
      </trkpt>
      <trkpt lat="47.81474" lon="-3.41959">
        <ele>21.97</ele>
        <time>2020-07-10T11:36:21Z</time>
      </trkpt>
      <trkpt lat="47.81475" lon="-3.4196">
        <ele>21.65</ele>
        <time>2020-07-10T11:36:22Z</time>
      </trkpt>
      <trkpt lat="47.81477" lon="-3.41961">
        <ele>21.3</ele>
        <time>2020-07-10T11:36:23Z</time>
      </trkpt>
      <trkpt lat="47.81477" lon="-3.41963">
        <ele>20.81</ele>
        <time>2020-07-10T11:36:24Z</time>
      </trkpt>
      <trkpt lat="47.81476" lon="-3.41965">
        <ele>20.25</ele>
        <time>2020-07-10T11:36:25Z</time>
      </trkpt>
      <trkpt lat="47.81476" lon="-3.41967">
        <ele>19.7</ele>
        <time>2020-07-10T11:36:26Z</time>
      </trkpt>
      <trkpt lat="47.81476" lon="-3.41969">
        <ele>19.14</ele>
        <time>2020-07-10T11:36:27Z</time>
      </trkpt>
      <trkpt lat="47.81477" lon="-3.41971">
        <ele>18.51</ele>
        <time>2020-07-10T11:36:28Z</time>
      </trkpt>
      <trkpt lat="47.81479" lon="-3.41972">
        <ele>18.16</ele>
        <time>2020-07-10T11:36:29Z</time>
      </trkpt>
      <trkpt lat="47.81481" lon="-3.41973">
        <ele>18</ele>
        <time>2020-07-10T11:36:30Z</time>
      </trkpt>
      <trkpt lat="47.81483" lon="-3.41973">
        <ele>17.91</ele>
        <time>2020-07-10T11:36:31Z</time>
      </trkpt>
      <trkpt lat="47.81485" lon="-3.41975">
        <ele>17.76</ele>
        <time>2020-07-10T11:36:32Z</time>
      </trkpt>
      <trkpt lat="47.81486" lon="-3.41977">
        <ele>17.57</ele>
        <time>2020-07-10T11:36:33Z</time>
      </trkpt>
      <trkpt lat="47.81488" lon="-3.41979">
        <ele>17.41</ele>
        <time>2020-07-10T11:36:34Z</time>
      </trkpt>
      <trkpt lat="47.8149" lon="-3.4198">
        <ele>17.26</ele>
        <time>2020-07-10T11:36:35Z</time>
      </trkpt>
      <trkpt lat="47.81492" lon="-3.41982">
        <ele>17.16</ele>
        <time>2020-07-10T11:36:36Z</time>
      </trkpt>
      <trkpt lat="47.81494" lon="-3.41983">
        <ele>17.08</ele>
        <time>2020-07-10T11:36:37Z</time>
      </trkpt>
      <trkpt lat="47.81495" lon="-3.41985">
        <ele>16.97</ele>
        <time>2020-07-10T11:36:38Z</time>
      </trkpt>
      <trkpt lat="47.81495" lon="-3.41985">
        <ele>16.92</ele>
        <time>2020-07-10T11:36:39Z</time>
      </trkpt>
      <trkpt lat="47.81495" lon="-3.41985">
        <ele>16.9</ele>
        <time>2020-07-10T11:36:40Z</time>
      </trkpt>
      <trkpt lat="47.81495" lon="-3.41985">
        <ele>16.89</ele>
        <time>2020-07-10T11:36:41Z</time>
      </trkpt>
      <trkpt lat="47.81495" lon="-3.41985">
        <ele>16.89</ele>
        <time>2020-07-10T11:36:42Z</time>
      </trkpt>
      <trkpt lat="47.81495" lon="-3.41985">
        <ele>16.89</ele>
        <time>2020-07-10T11:36:43Z</time>
      </trkpt>
      <trkpt lat="47.81495" lon="-3.41985">
        <ele>16.89</ele>
        <time>2020-07-10T11:36:44Z</time>
      </trkpt>
      <trkpt lat="47.81495" lon="-3.41985">
        <ele>16.89</ele>
        <time>2020-07-10T11:36:45Z</time>
      </trkpt>
      <trkpt lat="47.81495" lon="-3.41985">
        <ele>16.89</ele>
        <time>2020-07-10T11:36:46Z</time>
      </trkpt>
      <trkpt lat="47.81495" lon="-3.41985">
        <ele>16.89</ele>
        <time>2020-07-10T11:36:47Z</time>
      </trkpt>
      <trkpt lat="47.81495" lon="-3.41985">
        <ele>16.89</ele>
        <time>2020-07-10T11:36:48Z</time>
      </trkpt>
      <trkpt lat="47.81495" lon="-3.41985">
        <ele>16.89</ele>
        <time>2020-07-10T11:36:49Z</time>
      </trkpt>
      <trkpt lat="47.81495" lon="-3.41985">
        <ele>16.89</ele>
        <time>2020-07-10T11:36:50Z</time>
      </trkpt>
      <trkpt lat="47.81495" lon="-3.41985">
        <ele>16.89</ele>
        <time>2020-07-10T11:36:51Z</time>
      </trkpt>
      <trkpt lat="47.81495" lon="-3.41985">
        <ele>16.89</ele>
        <time>2020-07-10T11:36:52Z</time>
      </trkpt>
      <trkpt lat="47.81495" lon="-3.41985">
        <ele>16.89</ele>
        <time>2020-07-10T11:36:53Z</time>
      </trkpt>
      <trkpt lat="47.81495" lon="-3.41985">
        <ele>16.89</ele>
        <time>2020-07-10T11:36:54Z</time>
      </trkpt>
      <trkpt lat="47.81495" lon="-3.41985">
        <ele>16.89</ele>
        <time>2020-07-10T11:36:55Z</time>
      </trkpt>
      <trkpt lat="47.81495" lon="-3.41985">
        <ele>16.89</ele>
        <time>2020-07-10T11:36:56Z</time>
      </trkpt>
      <trkpt lat="47.81495" lon="-3.41985">
        <ele>16.89</ele>
        <time>2020-07-10T11:36:57Z</time>
      </trkpt>
      <trkpt lat="47.81503" lon="-3.41994">
        <ele>16.81</ele>
        <time>2020-07-10T11:36:58Z</time>
      </trkpt>
      <trkpt lat="47.81504" lon="-3.41994">
        <ele>16.81</ele>
        <time>2020-07-10T11:36:59Z</time>
      </trkpt>
      <trkpt lat="47.81504" lon="-3.41995">
        <ele>16.79</ele>
        <time>2020-07-10T11:37:00Z</time>
      </trkpt>
      <trkpt lat="47.81504" lon="-3.41996">
        <ele>16.72</ele>
        <time>2020-07-10T11:37:01Z</time>
      </trkpt>
      <trkpt lat="47.81504" lon="-3.41996">
        <ele>16.7</ele>
        <time>2020-07-10T11:37:02Z</time>
      </trkpt>
      <trkpt lat="47.81504" lon="-3.41996">
        <ele>16.7</ele>
        <time>2020-07-10T11:37:03Z</time>
      </trkpt>
      <trkpt lat="47.81504" lon="-3.41996">
        <ele>16.69</ele>
        <time>2020-07-10T11:37:04Z</time>
      </trkpt>
      <trkpt lat="47.81504" lon="-3.41996">
        <ele>16.69</ele>
        <time>2020-07-10T11:37:05Z</time>
      </trkpt>
      <trkpt lat="47.81504" lon="-3.41996">
        <ele>16.69</ele>
        <time>2020-07-10T11:37:06Z</time>
      </trkpt>
      <trkpt lat="47.81504" lon="-3.41996">
        <ele>16.69</ele>
        <time>2020-07-10T11:37:07Z</time>
      </trkpt>
      <trkpt lat="47.81504" lon="-3.41996">
        <ele>16.69</ele>
        <time>2020-07-10T11:37:08Z</time>
      </trkpt>
      <trkpt lat="47.81504" lon="-3.41996">
        <ele>16.69</ele>
        <time>2020-07-10T11:37:09Z</time>
      </trkpt>
      <trkpt lat="47.81504" lon="-3.41996">
        <ele>16.69</ele>
        <time>2020-07-10T11:37:10Z</time>
      </trkpt>
      <trkpt lat="47.81504" lon="-3.41996">
        <ele>16.69</ele>
        <time>2020-07-10T11:37:11Z</time>
      </trkpt>
      <trkpt lat="47.81511" lon="-3.42006">
        <ele>16.95</ele>
        <time>2020-07-10T11:37:12Z</time>
      </trkpt>
      <trkpt lat="47.81511" lon="-3.42007">
        <ele>17.04</ele>
        <time>2020-07-10T11:37:13Z</time>
      </trkpt>
      <trkpt lat="47.81512" lon="-3.42007">
        <ele>17.12</ele>
        <time>2020-07-10T11:37:14Z</time>
      </trkpt>
      <trkpt lat="47.81512" lon="-3.42008">
        <ele>17.16</ele>
        <time>2020-07-10T11:37:15Z</time>
      </trkpt>
      <trkpt lat="47.81512" lon="-3.42008">
        <ele>17.17</ele>
        <time>2020-07-10T11:37:16Z</time>
      </trkpt>
      <trkpt lat="47.81514" lon="-3.4201">
        <ele>17.3</ele>
        <time>2020-07-10T11:37:17Z</time>
      </trkpt>
      <trkpt lat="47.81515" lon="-3.42014">
        <ele>17.37</ele>
        <time>2020-07-10T11:37:18Z</time>
      </trkpt>
      <trkpt lat="47.81517" lon="-3.42016">
        <ele>17.44</ele>
        <time>2020-07-10T11:37:19Z</time>
      </trkpt>
      <trkpt lat="47.81518" lon="-3.42018">
        <ele>17.52</ele>
        <time>2020-07-10T11:37:20Z</time>
      </trkpt>
      <trkpt lat="47.8152" lon="-3.4202">
        <ele>17.6</ele>
        <time>2020-07-10T11:37:21Z</time>
      </trkpt>
      <trkpt lat="47.81521" lon="-3.42023">
        <ele>17.66</ele>
        <time>2020-07-10T11:37:22Z</time>
      </trkpt>
      <trkpt lat="47.81524" lon="-3.42025">
        <ele>17.74</ele>
        <time>2020-07-10T11:37:23Z</time>
      </trkpt>
      <trkpt lat="47.81526" lon="-3.42028">
        <ele>17.81</ele>
        <time>2020-07-10T11:37:24Z</time>
      </trkpt>
      <trkpt lat="47.81528" lon="-3.42031">
        <ele>17.82</ele>
        <time>2020-07-10T11:37:25Z</time>
      </trkpt>
      <trkpt lat="47.81531" lon="-3.42035">
        <ele>18.28</ele>
        <time>2020-07-10T11:37:26Z</time>
      </trkpt>
      <trkpt lat="47.81533" lon="-3.42037">
        <ele>18.63</ele>
        <time>2020-07-10T11:37:27Z</time>
      </trkpt>
      <trkpt lat="47.81534" lon="-3.42037">
        <ele>19.01</ele>
        <time>2020-07-10T11:37:28Z</time>
      </trkpt>
      <trkpt lat="47.81534" lon="-3.42039">
        <ele>19.01</ele>
        <time>2020-07-10T11:37:29Z</time>
      </trkpt>
      <trkpt lat="47.81534" lon="-3.42039">
        <ele>18.98</ele>
        <time>2020-07-10T11:37:30Z</time>
      </trkpt>
      <trkpt lat="47.81534" lon="-3.42039">
        <ele>18.98</ele>
        <time>2020-07-10T11:37:31Z</time>
      </trkpt>
      <trkpt lat="47.81534" lon="-3.42039">
        <ele>18.97</ele>
        <time>2020-07-10T11:37:32Z</time>
      </trkpt>
      <trkpt lat="47.81534" lon="-3.42039">
        <ele>18.97</ele>
        <time>2020-07-10T11:37:33Z</time>
      </trkpt>
      <trkpt lat="47.81534" lon="-3.42039">
        <ele>18.97</ele>
        <time>2020-07-10T11:37:34Z</time>
      </trkpt>
      <trkpt lat="47.81534" lon="-3.42039">
        <ele>18.97</ele>
        <time>2020-07-10T11:37:35Z</time>
      </trkpt>
      <trkpt lat="47.81534" lon="-3.42039">
        <ele>18.97</ele>
        <time>2020-07-10T11:37:36Z</time>
      </trkpt>
      <trkpt lat="47.81539" lon="-3.42049">
        <ele>19.53</ele>
        <time>2020-07-10T11:37:37Z</time>
      </trkpt>
      <trkpt lat="47.81541" lon="-3.42052">
        <ele>19.95</ele>
        <time>2020-07-10T11:37:38Z</time>
      </trkpt>
      <trkpt lat="47.81543" lon="-3.42053">
        <ele>20.44</ele>
        <time>2020-07-10T11:37:39Z</time>
      </trkpt>
      <trkpt lat="47.81545" lon="-3.42054">
        <ele>20.82</ele>
        <time>2020-07-10T11:37:40Z</time>
      </trkpt>
      <trkpt lat="47.81546" lon="-3.42056">
        <ele>21.09</ele>
        <time>2020-07-10T11:37:41Z</time>
      </trkpt>
      <trkpt lat="47.81548" lon="-3.42057">
        <ele>21.43</ele>
        <time>2020-07-10T11:37:42Z</time>
      </trkpt>
      <trkpt lat="47.8155" lon="-3.42058">
        <ele>21.87</ele>
        <time>2020-07-10T11:37:43Z</time>
      </trkpt>
      <trkpt lat="47.81552" lon="-3.4206">
        <ele>22.27</ele>
        <time>2020-07-10T11:37:44Z</time>
      </trkpt>
      <trkpt lat="47.81554" lon="-3.42062">
        <ele>22.48</ele>
        <time>2020-07-10T11:37:45Z</time>
      </trkpt>
      <trkpt lat="47.81555" lon="-3.42064">
        <ele>22.6</ele>
        <time>2020-07-10T11:37:46Z</time>
      </trkpt>
      <trkpt lat="47.81556" lon="-3.42067">
        <ele>22.46</ele>
        <time>2020-07-10T11:37:47Z</time>
      </trkpt>
      <trkpt lat="47.81558" lon="-3.42071">
        <ele>22.46</ele>
        <time>2020-07-10T11:37:48Z</time>
      </trkpt>
      <trkpt lat="47.8156" lon="-3.42072">
        <ele>22.64</ele>
        <time>2020-07-10T11:37:49Z</time>
      </trkpt>
      <trkpt lat="47.81562" lon="-3.42074">
        <ele>23.02</ele>
        <time>2020-07-10T11:37:50Z</time>
      </trkpt>
      <trkpt lat="47.81565" lon="-3.42076">
        <ele>23.46</ele>
        <time>2020-07-10T11:37:51Z</time>
      </trkpt>
      <trkpt lat="47.81567" lon="-3.42077">
        <ele>23.85</ele>
        <time>2020-07-10T11:37:52Z</time>
      </trkpt>
      <trkpt lat="47.81569" lon="-3.42079">
        <ele>24.26</ele>
        <time>2020-07-10T11:37:53Z</time>
      </trkpt>
      <trkpt lat="47.81572" lon="-3.42082">
        <ele>24.71</ele>
        <time>2020-07-10T11:37:54Z</time>
      </trkpt>
      <trkpt lat="47.81574" lon="-3.42084">
        <ele>25.11</ele>
        <time>2020-07-10T11:37:55Z</time>
      </trkpt>
      <trkpt lat="47.81576" lon="-3.42086">
        <ele>25.34</ele>
        <time>2020-07-10T11:37:56Z</time>
      </trkpt>
      <trkpt lat="47.8158" lon="-3.42089">
        <ele>25.84</ele>
        <time>2020-07-10T11:37:58Z</time>
      </trkpt>
      <trkpt lat="47.81582" lon="-3.42092">
        <ele>25.99</ele>
        <time>2020-07-10T11:37:59Z</time>
      </trkpt>
      <trkpt lat="47.81585" lon="-3.42094">
        <ele>26.27</ele>
        <time>2020-07-10T11:38:00Z</time>
      </trkpt>
      <trkpt lat="47.81586" lon="-3.42096">
        <ele>26.39</ele>
        <time>2020-07-10T11:38:01Z</time>
      </trkpt>
      <trkpt lat="47.81588" lon="-3.42099">
        <ele>26.5</ele>
        <time>2020-07-10T11:38:02Z</time>
      </trkpt>
      <trkpt lat="47.8159" lon="-3.42102">
        <ele>26.65</ele>
        <time>2020-07-10T11:38:03Z</time>
      </trkpt>
      <trkpt lat="47.81593" lon="-3.42105">
        <ele>26.9</ele>
        <time>2020-07-10T11:38:04Z</time>
      </trkpt>
      <trkpt lat="47.81595" lon="-3.42107">
        <ele>27.24</ele>
        <time>2020-07-10T11:38:05Z</time>
      </trkpt>
      <trkpt lat="47.81597" lon="-3.42109">
        <ele>27.75</ele>
        <time>2020-07-10T11:38:06Z</time>
      </trkpt>
      <trkpt lat="47.816" lon="-3.4211">
        <ele>28.2</ele>
        <time>2020-07-10T11:38:07Z</time>
      </trkpt>
      <trkpt lat="47.81602" lon="-3.42112">
        <ele>28.65</ele>
        <time>2020-07-10T11:38:08Z</time>
      </trkpt>
      <trkpt lat="47.81605" lon="-3.42114">
        <ele>29.18</ele>
        <time>2020-07-10T11:38:09Z</time>
      </trkpt>
      <trkpt lat="47.81606" lon="-3.42118">
        <ele>29.11</ele>
        <time>2020-07-10T11:38:10Z</time>
      </trkpt>
      <trkpt lat="47.81609" lon="-3.42123">
        <ele>28.8</ele>
        <time>2020-07-10T11:38:11Z</time>
      </trkpt>
      <trkpt lat="47.8161" lon="-3.42127">
        <ele>28.5</ele>
        <time>2020-07-10T11:38:12Z</time>
      </trkpt>
      <trkpt lat="47.81611" lon="-3.42133">
        <ele>27.54</ele>
        <time>2020-07-10T11:38:13Z</time>
      </trkpt>
      <trkpt lat="47.81613" lon="-3.42138">
        <ele>26.84</ele>
        <time>2020-07-10T11:38:14Z</time>
      </trkpt>
      <trkpt lat="47.81613" lon="-3.42143">
        <ele>26.28</ele>
        <time>2020-07-10T11:38:15Z</time>
      </trkpt>
      <trkpt lat="47.81615" lon="-3.42149">
        <ele>25.81</ele>
        <time>2020-07-10T11:38:16Z</time>
      </trkpt>
      <trkpt lat="47.81616" lon="-3.42154">
        <ele>25.46</ele>
        <time>2020-07-10T11:38:17Z</time>
      </trkpt>
      <trkpt lat="47.81617" lon="-3.42157">
        <ele>25.25</ele>
        <time>2020-07-10T11:38:18Z</time>
      </trkpt>
      <trkpt lat="47.81618" lon="-3.42161">
        <ele>25.08</ele>
        <time>2020-07-10T11:38:19Z</time>
      </trkpt>
      <trkpt lat="47.81619" lon="-3.42167">
        <ele>24.82</ele>
        <time>2020-07-10T11:38:20Z</time>
      </trkpt>
      <trkpt lat="47.8162" lon="-3.42172">
        <ele>24.62</ele>
        <time>2020-07-10T11:38:21Z</time>
      </trkpt>
      <trkpt lat="47.81621" lon="-3.42176">
        <ele>24.45</ele>
        <time>2020-07-10T11:38:22Z</time>
      </trkpt>
      <trkpt lat="47.81622" lon="-3.4218">
        <ele>24.53</ele>
        <time>2020-07-10T11:38:23Z</time>
      </trkpt>
      <trkpt lat="47.81624" lon="-3.42184">
        <ele>24.75</ele>
        <time>2020-07-10T11:38:24Z</time>
      </trkpt>
      <trkpt lat="47.81625" lon="-3.42187">
        <ele>24.98</ele>
        <time>2020-07-10T11:38:25Z</time>
      </trkpt>
      <trkpt lat="47.81626" lon="-3.42192">
        <ele>25.12</ele>
        <time>2020-07-10T11:38:26Z</time>
      </trkpt>
      <trkpt lat="47.81628" lon="-3.42199">
        <ele>25.26</ele>
        <time>2020-07-10T11:38:27Z</time>
      </trkpt>
      <trkpt lat="47.81629" lon="-3.42205">
        <ele>25.36</ele>
        <time>2020-07-10T11:38:28Z</time>
      </trkpt>
      <trkpt lat="47.81631" lon="-3.42211">
        <ele>25.45</ele>
        <time>2020-07-10T11:38:29Z</time>
      </trkpt>
      <trkpt lat="47.81632" lon="-3.42216">
        <ele>25.49</ele>
        <time>2020-07-10T11:38:30Z</time>
      </trkpt>
      <trkpt lat="47.81633" lon="-3.42222">
        <ele>25.54</ele>
        <time>2020-07-10T11:38:31Z</time>
      </trkpt>
      <trkpt lat="47.81635" lon="-3.42227">
        <ele>25.56</ele>
        <time>2020-07-10T11:38:32Z</time>
      </trkpt>
      <trkpt lat="47.81636" lon="-3.42233">
        <ele>25.49</ele>
        <time>2020-07-10T11:38:33Z</time>
      </trkpt>
      <trkpt lat="47.81637" lon="-3.42238">
        <ele>25.18</ele>
        <time>2020-07-10T11:38:34Z</time>
      </trkpt>
      <trkpt lat="47.81639" lon="-3.42243">
        <ele>25.12</ele>
        <time>2020-07-10T11:38:35Z</time>
      </trkpt>
      <trkpt lat="47.8164" lon="-3.42248">
        <ele>24.75</ele>
        <time>2020-07-10T11:38:36Z</time>
      </trkpt>
      <trkpt lat="47.8164" lon="-3.42252">
        <ele>24.36</ele>
        <time>2020-07-10T11:38:37Z</time>
      </trkpt>
      <trkpt lat="47.81641" lon="-3.42257">
        <ele>23.99</ele>
        <time>2020-07-10T11:38:38Z</time>
      </trkpt>
      <trkpt lat="47.81643" lon="-3.42261">
        <ele>23.85</ele>
        <time>2020-07-10T11:38:39Z</time>
      </trkpt>
      <trkpt lat="47.81645" lon="-3.42266">
        <ele>23.87</ele>
        <time>2020-07-10T11:38:40Z</time>
      </trkpt>
      <trkpt lat="47.81647" lon="-3.42271">
        <ele>23.94</ele>
        <time>2020-07-10T11:38:41Z</time>
      </trkpt>
      <trkpt lat="47.81648" lon="-3.42276">
        <ele>23.95</ele>
        <time>2020-07-10T11:38:42Z</time>
      </trkpt>
      <trkpt lat="47.81649" lon="-3.4228">
        <ele>23.93</ele>
        <time>2020-07-10T11:38:43Z</time>
      </trkpt>
      <trkpt lat="47.81652" lon="-3.42286">
        <ele>24.16</ele>
        <time>2020-07-10T11:38:44Z</time>
      </trkpt>
      <trkpt lat="47.81654" lon="-3.42291">
        <ele>24.36</ele>
        <time>2020-07-10T11:38:45Z</time>
      </trkpt>
      <trkpt lat="47.81655" lon="-3.42295">
        <ele>24.53</ele>
        <time>2020-07-10T11:38:46Z</time>
      </trkpt>
      <trkpt lat="47.81657" lon="-3.42298">
        <ele>24.86</ele>
        <time>2020-07-10T11:38:47Z</time>
      </trkpt>
      <trkpt lat="47.81659" lon="-3.42303">
        <ele>25.03</ele>
        <time>2020-07-10T11:38:48Z</time>
      </trkpt>
      <trkpt lat="47.81661" lon="-3.42307">
        <ele>25.24</ele>
        <time>2020-07-10T11:38:49Z</time>
      </trkpt>
      <trkpt lat="47.81663" lon="-3.42314">
        <ele>25.36</ele>
        <time>2020-07-10T11:38:50Z</time>
      </trkpt>
      <trkpt lat="47.81666" lon="-3.42319">
        <ele>25.62</ele>
        <time>2020-07-10T11:38:51Z</time>
      </trkpt>
      <trkpt lat="47.81667" lon="-3.42325">
        <ele>25.47</ele>
        <time>2020-07-10T11:38:52Z</time>
      </trkpt>
      <trkpt lat="47.81669" lon="-3.4233">
        <ele>25.2</ele>
        <time>2020-07-10T11:38:53Z</time>
      </trkpt>
      <trkpt lat="47.81671" lon="-3.42335">
        <ele>24.79</ele>
        <time>2020-07-10T11:38:54Z</time>
      </trkpt>
      <trkpt lat="47.81672" lon="-3.4234">
        <ele>24.38</ele>
        <time>2020-07-10T11:38:55Z</time>
      </trkpt>
      <trkpt lat="47.81674" lon="-3.42345">
        <ele>23.95</ele>
        <time>2020-07-10T11:38:56Z</time>
      </trkpt>
      <trkpt lat="47.81676" lon="-3.42351">
        <ele>23.65</ele>
        <time>2020-07-10T11:38:57Z</time>
      </trkpt>
      <trkpt lat="47.81678" lon="-3.42356">
        <ele>23.44</ele>
        <time>2020-07-10T11:38:58Z</time>
      </trkpt>
      <trkpt lat="47.8168" lon="-3.42361">
        <ele>23.32</ele>
        <time>2020-07-10T11:38:59Z</time>
      </trkpt>
      <trkpt lat="47.81682" lon="-3.42364">
        <ele>23.49</ele>
        <time>2020-07-10T11:39:00Z</time>
      </trkpt>
      <trkpt lat="47.81684" lon="-3.42367">
        <ele>23.76</ele>
        <time>2020-07-10T11:39:01Z</time>
      </trkpt>
      <trkpt lat="47.81685" lon="-3.42369">
        <ele>24.01</ele>
        <time>2020-07-10T11:39:02Z</time>
      </trkpt>
      <trkpt lat="47.81686" lon="-3.42372">
        <ele>24.08</ele>
        <time>2020-07-10T11:39:03Z</time>
      </trkpt>
      <trkpt lat="47.81688" lon="-3.42376">
        <ele>24.21</ele>
        <time>2020-07-10T11:39:04Z</time>
      </trkpt>
      <trkpt lat="47.81692" lon="-3.42383">
        <ele>24.57</ele>
        <time>2020-07-10T11:39:05Z</time>
      </trkpt>
      <trkpt lat="47.81694" lon="-3.42388">
        <ele>24.87</ele>
        <time>2020-07-10T11:39:06Z</time>
      </trkpt>
      <trkpt lat="47.81695" lon="-3.4239">
        <ele>24.85</ele>
        <time>2020-07-10T11:39:07Z</time>
      </trkpt>
      <trkpt lat="47.81698" lon="-3.42394">
        <ele>24.5</ele>
        <time>2020-07-10T11:39:08Z</time>
      </trkpt>
      <trkpt lat="47.817" lon="-3.42397">
        <ele>24</ele>
        <time>2020-07-10T11:39:09Z</time>
      </trkpt>
      <trkpt lat="47.81702" lon="-3.42401">
        <ele>23.6</ele>
        <time>2020-07-10T11:39:10Z</time>
      </trkpt>
      <trkpt lat="47.81704" lon="-3.42404">
        <ele>23.32</ele>
        <time>2020-07-10T11:39:11Z</time>
      </trkpt>
      <trkpt lat="47.81706" lon="-3.42407">
        <ele>23.14</ele>
        <time>2020-07-10T11:39:12Z</time>
      </trkpt>
      <trkpt lat="47.81707" lon="-3.42408">
        <ele>23.04</ele>
        <time>2020-07-10T11:39:13Z</time>
      </trkpt>
      <trkpt lat="47.8171" lon="-3.4241">
        <ele>23.14</ele>
        <time>2020-07-10T11:39:14Z</time>
      </trkpt>
      <trkpt lat="47.81712" lon="-3.42412">
        <ele>23.35</ele>
        <time>2020-07-10T11:39:15Z</time>
      </trkpt>
      <trkpt lat="47.81715" lon="-3.42413">
        <ele>23.62</ele>
        <time>2020-07-10T11:39:16Z</time>
      </trkpt>
      <trkpt lat="47.81718" lon="-3.42417">
        <ele>23.83</ele>
        <time>2020-07-10T11:39:17Z</time>
      </trkpt>
      <trkpt lat="47.81719" lon="-3.4242">
        <ele>23.97</ele>
        <time>2020-07-10T11:39:18Z</time>
      </trkpt>
      <trkpt lat="47.81721" lon="-3.42424">
        <ele>23.94</ele>
        <time>2020-07-10T11:39:19Z</time>
      </trkpt>
      <trkpt lat="47.81723" lon="-3.42428">
        <ele>23.81</ele>
        <time>2020-07-10T11:39:20Z</time>
      </trkpt>
      <trkpt lat="47.81724" lon="-3.42432">
        <ele>23.57</ele>
        <time>2020-07-10T11:39:21Z</time>
      </trkpt>
      <trkpt lat="47.81726" lon="-3.42435">
        <ele>23.41</ele>
        <time>2020-07-10T11:39:22Z</time>
      </trkpt>
      <trkpt lat="47.81728" lon="-3.42437">
        <ele>23.3</ele>
        <time>2020-07-10T11:39:23Z</time>
      </trkpt>
      <trkpt lat="47.81729" lon="-3.42439">
        <ele>23.25</ele>
        <time>2020-07-10T11:39:24Z</time>
      </trkpt>
      <trkpt lat="47.8173" lon="-3.4244">
        <ele>23.22</ele>
        <time>2020-07-10T11:39:25Z</time>
      </trkpt>
      <trkpt lat="47.81731" lon="-3.42441">
        <ele>23.23</ele>
        <time>2020-07-10T11:39:26Z</time>
      </trkpt>
      <trkpt lat="47.81732" lon="-3.42443">
        <ele>23.2</ele>
        <time>2020-07-10T11:39:27Z</time>
      </trkpt>
      <trkpt lat="47.81733" lon="-3.42447">
        <ele>22.94</ele>
        <time>2020-07-10T11:39:28Z</time>
      </trkpt>
      <trkpt lat="47.81734" lon="-3.42452">
        <ele>22.46</ele>
        <time>2020-07-10T11:39:29Z</time>
      </trkpt>
      <trkpt lat="47.81734" lon="-3.42456">
        <ele>22.06</ele>
        <time>2020-07-10T11:39:30Z</time>
      </trkpt>
      <trkpt lat="47.81735" lon="-3.4246">
        <ele>21.81</ele>
        <time>2020-07-10T11:39:31Z</time>
      </trkpt>
      <trkpt lat="47.81737" lon="-3.42463">
        <ele>21.76</ele>
        <time>2020-07-10T11:39:32Z</time>
      </trkpt>
      <trkpt lat="47.81739" lon="-3.42466">
        <ele>21.78</ele>
        <time>2020-07-10T11:39:33Z</time>
      </trkpt>
      <trkpt lat="47.81741" lon="-3.4247">
        <ele>21.79</ele>
        <time>2020-07-10T11:39:34Z</time>
      </trkpt>
      <trkpt lat="47.81742" lon="-3.42473">
        <ele>21.91</ele>
        <time>2020-07-10T11:39:35Z</time>
      </trkpt>
      <trkpt lat="47.81745" lon="-3.42477">
        <ele>22.12</ele>
        <time>2020-07-10T11:39:36Z</time>
      </trkpt>
      <trkpt lat="47.81747" lon="-3.42482">
        <ele>22.25</ele>
        <time>2020-07-10T11:39:37Z</time>
      </trkpt>
      <trkpt lat="47.8175" lon="-3.42487">
        <ele>22.31</ele>
        <time>2020-07-10T11:39:38Z</time>
      </trkpt>
      <trkpt lat="47.81752" lon="-3.42491">
        <ele>22.43</ele>
        <time>2020-07-10T11:39:39Z</time>
      </trkpt>
      <trkpt lat="47.81754" lon="-3.42496">
        <ele>22.59</ele>
        <time>2020-07-10T11:39:40Z</time>
      </trkpt>
      <trkpt lat="47.81755" lon="-3.425">
        <ele>22.7</ele>
        <time>2020-07-10T11:39:41Z</time>
      </trkpt>
      <trkpt lat="47.81757" lon="-3.42505">
        <ele>22.84</ele>
        <time>2020-07-10T11:39:42Z</time>
      </trkpt>
      <trkpt lat="47.81758" lon="-3.42509">
        <ele>23.01</ele>
        <time>2020-07-10T11:39:43Z</time>
      </trkpt>
      <trkpt lat="47.81759" lon="-3.42513">
        <ele>23</ele>
        <time>2020-07-10T11:39:44Z</time>
      </trkpt>
      <trkpt lat="47.81761" lon="-3.42516">
        <ele>23.05</ele>
        <time>2020-07-10T11:39:45Z</time>
      </trkpt>
      <trkpt lat="47.81762" lon="-3.42521">
        <ele>23.16</ele>
        <time>2020-07-10T11:39:46Z</time>
      </trkpt>
      <trkpt lat="47.81765" lon="-3.42526">
        <ele>23.53</ele>
        <time>2020-07-10T11:39:47Z</time>
      </trkpt>
      <trkpt lat="47.81767" lon="-3.4253">
        <ele>23.81</ele>
        <time>2020-07-10T11:39:48Z</time>
      </trkpt>
      <trkpt lat="47.81769" lon="-3.42535">
        <ele>23.95</ele>
        <time>2020-07-10T11:39:49Z</time>
      </trkpt>
      <trkpt lat="47.8177" lon="-3.42542">
        <ele>23.87</ele>
        <time>2020-07-10T11:39:50Z</time>
      </trkpt>
      <trkpt lat="47.81772" lon="-3.42547">
        <ele>23.98</ele>
        <time>2020-07-10T11:39:51Z</time>
      </trkpt>
      <trkpt lat="47.81774" lon="-3.4255">
        <ele>24.17</ele>
        <time>2020-07-10T11:39:52Z</time>
      </trkpt>
      <trkpt lat="47.81776" lon="-3.42554">
        <ele>24.38</ele>
        <time>2020-07-10T11:39:53Z</time>
      </trkpt>
      <trkpt lat="47.81777" lon="-3.42558">
        <ele>24.39</ele>
        <time>2020-07-10T11:39:54Z</time>
      </trkpt>
      <trkpt lat="47.81778" lon="-3.42561">
        <ele>24.15</ele>
        <time>2020-07-10T11:39:55Z</time>
      </trkpt>
      <trkpt lat="47.8178" lon="-3.42564">
        <ele>23.96</ele>
        <time>2020-07-10T11:39:56Z</time>
      </trkpt>
      <trkpt lat="47.81782" lon="-3.42568">
        <ele>24.04</ele>
        <time>2020-07-10T11:39:57Z</time>
      </trkpt>
      <trkpt lat="47.81784" lon="-3.4257">
        <ele>24.13</ele>
        <time>2020-07-10T11:39:58Z</time>
      </trkpt>
      <trkpt lat="47.81785" lon="-3.42574">
        <ele>24.13</ele>
        <time>2020-07-10T11:39:59Z</time>
      </trkpt>
      <trkpt lat="47.81786" lon="-3.42576">
        <ele>24.17</ele>
        <time>2020-07-10T11:40:00Z</time>
      </trkpt>
      <trkpt lat="47.81788" lon="-3.42579">
        <ele>24.29</ele>
        <time>2020-07-10T11:40:01Z</time>
      </trkpt>
      <trkpt lat="47.81789" lon="-3.42582">
        <ele>24.29</ele>
        <time>2020-07-10T11:40:02Z</time>
      </trkpt>
      <trkpt lat="47.8179" lon="-3.42584">
        <ele>24.35</ele>
        <time>2020-07-10T11:40:03Z</time>
      </trkpt>
      <trkpt lat="47.81791" lon="-3.42588">
        <ele>24.51</ele>
        <time>2020-07-10T11:40:04Z</time>
      </trkpt>
      <trkpt lat="47.81791" lon="-3.42589">
        <ele>24.71</ele>
        <time>2020-07-10T11:40:05Z</time>
      </trkpt>
      <trkpt lat="47.81792" lon="-3.42591">
        <ele>24.9</ele>
        <time>2020-07-10T11:40:06Z</time>
      </trkpt>
      <trkpt lat="47.81793" lon="-3.42592">
        <ele>25.17</ele>
        <time>2020-07-10T11:40:07Z</time>
      </trkpt>
      <trkpt lat="47.81794" lon="-3.42594">
        <ele>25.3</ele>
        <time>2020-07-10T11:40:08Z</time>
      </trkpt>
      <trkpt lat="47.81795" lon="-3.42597">
        <ele>25.3</ele>
        <time>2020-07-10T11:40:09Z</time>
      </trkpt>
      <trkpt lat="47.81796" lon="-3.42601">
        <ele>25.31</ele>
        <time>2020-07-10T11:40:10Z</time>
      </trkpt>
      <trkpt lat="47.81797" lon="-3.42604">
        <ele>25.39</ele>
        <time>2020-07-10T11:40:11Z</time>
      </trkpt>
      <trkpt lat="47.81798" lon="-3.42607">
        <ele>25.45</ele>
        <time>2020-07-10T11:40:12Z</time>
      </trkpt>
      <trkpt lat="47.81799" lon="-3.42611">
        <ele>25.35</ele>
        <time>2020-07-10T11:40:13Z</time>
      </trkpt>
      <trkpt lat="47.81799" lon="-3.42614">
        <ele>25.2</ele>
        <time>2020-07-10T11:40:14Z</time>
      </trkpt>
      <trkpt lat="47.818" lon="-3.42616">
        <ele>25.32</ele>
        <time>2020-07-10T11:40:15Z</time>
      </trkpt>
      <trkpt lat="47.81801" lon="-3.42618">
        <ele>25.41</ele>
        <time>2020-07-10T11:40:16Z</time>
      </trkpt>
      <trkpt lat="47.81802" lon="-3.4262">
        <ele>25.47</ele>
        <time>2020-07-10T11:40:17Z</time>
      </trkpt>
      <trkpt lat="47.81803" lon="-3.42623">
        <ele>25.52</ele>
        <time>2020-07-10T11:40:18Z</time>
      </trkpt>
      <trkpt lat="47.81804" lon="-3.42625">
        <ele>25.39</ele>
        <time>2020-07-10T11:40:19Z</time>
      </trkpt>
      <trkpt lat="47.81804" lon="-3.42627">
        <ele>25.37</ele>
        <time>2020-07-10T11:40:20Z</time>
      </trkpt>
      <trkpt lat="47.81806" lon="-3.4263">
        <ele>25.38</ele>
        <time>2020-07-10T11:40:21Z</time>
      </trkpt>
      <trkpt lat="47.81806" lon="-3.42634">
        <ele>25</ele>
        <time>2020-07-10T11:40:22Z</time>
      </trkpt>
      <trkpt lat="47.81807" lon="-3.42637">
        <ele>24.85</ele>
        <time>2020-07-10T11:40:23Z</time>
      </trkpt>
      <trkpt lat="47.8181" lon="-3.42641">
        <ele>25.09</ele>
        <time>2020-07-10T11:40:24Z</time>
      </trkpt>
      <trkpt lat="47.8181" lon="-3.42644">
        <ele>25.16</ele>
        <time>2020-07-10T11:40:25Z</time>
      </trkpt>
      <trkpt lat="47.81812" lon="-3.42647">
        <ele>25.38</ele>
        <time>2020-07-10T11:40:26Z</time>
      </trkpt>
      <trkpt lat="47.81813" lon="-3.42652">
        <ele>25.26</ele>
        <time>2020-07-10T11:40:27Z</time>
      </trkpt>
      <trkpt lat="47.81814" lon="-3.4266">
        <ele>24.95</ele>
        <time>2020-07-10T11:40:28Z</time>
      </trkpt>
      <trkpt lat="47.81815" lon="-3.42663">
        <ele>24.6</ele>
        <time>2020-07-10T11:40:29Z</time>
      </trkpt>
      <trkpt lat="47.81815" lon="-3.42667">
        <ele>24.22</ele>
        <time>2020-07-10T11:40:30Z</time>
      </trkpt>
      <trkpt lat="47.81815" lon="-3.4267">
        <ele>23.83</ele>
        <time>2020-07-10T11:40:31Z</time>
      </trkpt>
      <trkpt lat="47.81816" lon="-3.42675">
        <ele>23.82</ele>
        <time>2020-07-10T11:40:32Z</time>
      </trkpt>
      <trkpt lat="47.81816" lon="-3.42678">
        <ele>23.79</ele>
        <time>2020-07-10T11:40:33Z</time>
      </trkpt>
      <trkpt lat="47.81817" lon="-3.42681">
        <ele>23.84</ele>
        <time>2020-07-10T11:40:34Z</time>
      </trkpt>
      <trkpt lat="47.81816" lon="-3.42683">
        <ele>23.66</ele>
        <time>2020-07-10T11:40:35Z</time>
      </trkpt>
      <trkpt lat="47.81817" lon="-3.42686">
        <ele>23.54</ele>
        <time>2020-07-10T11:40:36Z</time>
      </trkpt>
      <trkpt lat="47.81817" lon="-3.42689">
        <ele>23.53</ele>
        <time>2020-07-10T11:40:37Z</time>
      </trkpt>
      <trkpt lat="47.81818" lon="-3.42692">
        <ele>23.58</ele>
        <time>2020-07-10T11:40:38Z</time>
      </trkpt>
      <trkpt lat="47.81817" lon="-3.42697">
        <ele>23.11</ele>
        <time>2020-07-10T11:40:39Z</time>
      </trkpt>
      <trkpt lat="47.81816" lon="-3.427">
        <ele>22.91</ele>
        <time>2020-07-10T11:40:40Z</time>
      </trkpt>
      <trkpt lat="47.81816" lon="-3.42703">
        <ele>22.85</ele>
        <time>2020-07-10T11:40:41Z</time>
      </trkpt>
      <trkpt lat="47.81815" lon="-3.42707">
        <ele>22.67</ele>
        <time>2020-07-10T11:40:42Z</time>
      </trkpt>
      <trkpt lat="47.81813" lon="-3.42712">
        <ele>22.31</ele>
        <time>2020-07-10T11:40:43Z</time>
      </trkpt>
      <trkpt lat="47.81811" lon="-3.42717">
        <ele>21.94</ele>
        <time>2020-07-10T11:40:44Z</time>
      </trkpt>
      <trkpt lat="47.81809" lon="-3.42724">
        <ele>21.56</ele>
        <time>2020-07-10T11:40:45Z</time>
      </trkpt>
      <trkpt lat="47.81809" lon="-3.42729">
        <ele>21.56</ele>
        <time>2020-07-10T11:40:46Z</time>
      </trkpt>
      <trkpt lat="47.81809" lon="-3.42734">
        <ele>21.84</ele>
        <time>2020-07-10T11:40:47Z</time>
      </trkpt>
      <trkpt lat="47.81808" lon="-3.42739">
        <ele>22.03</ele>
        <time>2020-07-10T11:40:48Z</time>
      </trkpt>
      <trkpt lat="47.81808" lon="-3.42744">
        <ele>22.19</ele>
        <time>2020-07-10T11:40:49Z</time>
      </trkpt>
      <trkpt lat="47.81807" lon="-3.42752">
        <ele>22.54</ele>
        <time>2020-07-10T11:40:50Z</time>
      </trkpt>
      <trkpt lat="47.81806" lon="-3.42758">
        <ele>22.49</ele>
        <time>2020-07-10T11:40:51Z</time>
      </trkpt>
      <trkpt lat="47.81805" lon="-3.42762">
        <ele>22.36</ele>
        <time>2020-07-10T11:40:52Z</time>
      </trkpt>
      <trkpt lat="47.81804" lon="-3.42766">
        <ele>22.33</ele>
        <time>2020-07-10T11:40:53Z</time>
      </trkpt>
      <trkpt lat="47.81803" lon="-3.42772">
        <ele>22.26</ele>
        <time>2020-07-10T11:40:54Z</time>
      </trkpt>
      <trkpt lat="47.81802" lon="-3.42775">
        <ele>22.15</ele>
        <time>2020-07-10T11:40:55Z</time>
      </trkpt>
      <trkpt lat="47.81801" lon="-3.42779">
        <ele>21.97</ele>
        <time>2020-07-10T11:40:56Z</time>
      </trkpt>
      <trkpt lat="47.818" lon="-3.42781">
        <ele>21.76</ele>
        <time>2020-07-10T11:40:57Z</time>
      </trkpt>
      <trkpt lat="47.81799" lon="-3.42785">
        <ele>21.66</ele>
        <time>2020-07-10T11:40:58Z</time>
      </trkpt>
      <trkpt lat="47.81797" lon="-3.42788">
        <ele>21.5</ele>
        <time>2020-07-10T11:40:59Z</time>
      </trkpt>
      <trkpt lat="47.81795" lon="-3.42792">
        <ele>21.19</ele>
        <time>2020-07-10T11:41:00Z</time>
      </trkpt>
      <trkpt lat="47.81795" lon="-3.42796">
        <ele>21.15</ele>
        <time>2020-07-10T11:41:01Z</time>
      </trkpt>
      <trkpt lat="47.81793" lon="-3.42801">
        <ele>20.97</ele>
        <time>2020-07-10T11:41:02Z</time>
      </trkpt>
      <trkpt lat="47.81792" lon="-3.42804">
        <ele>20.61</ele>
        <time>2020-07-10T11:41:03Z</time>
      </trkpt>
      <trkpt lat="47.81789" lon="-3.42809">
        <ele>20.13</ele>
        <time>2020-07-10T11:41:04Z</time>
      </trkpt>
      <trkpt lat="47.81786" lon="-3.42811">
        <ele>19.48</ele>
        <time>2020-07-10T11:41:05Z</time>
      </trkpt>
      <trkpt lat="47.81783" lon="-3.42817">
        <ele>18.91</ele>
        <time>2020-07-10T11:41:06Z</time>
      </trkpt>
      <trkpt lat="47.81781" lon="-3.42821">
        <ele>18.52</ele>
        <time>2020-07-10T11:41:07Z</time>
      </trkpt>
      <trkpt lat="47.81779" lon="-3.42826">
        <ele>18.02</ele>
        <time>2020-07-10T11:41:08Z</time>
      </trkpt>
      <trkpt lat="47.81776" lon="-3.42832">
        <ele>17.8</ele>
        <time>2020-07-10T11:41:09Z</time>
      </trkpt>
      <trkpt lat="47.81773" lon="-3.42836">
        <ele>17.81</ele>
        <time>2020-07-10T11:41:10Z</time>
      </trkpt>
      <trkpt lat="47.8177" lon="-3.42841">
        <ele>17.95</ele>
        <time>2020-07-10T11:41:11Z</time>
      </trkpt>
      <trkpt lat="47.81768" lon="-3.42848">
        <ele>18.14</ele>
        <time>2020-07-10T11:41:12Z</time>
      </trkpt>
      <trkpt lat="47.81765" lon="-3.42854">
        <ele>18.19</ele>
        <time>2020-07-10T11:41:13Z</time>
      </trkpt>
      <trkpt lat="47.81761" lon="-3.42862">
        <ele>17.99</ele>
        <time>2020-07-10T11:41:14Z</time>
      </trkpt>
      <trkpt lat="47.81759" lon="-3.42867">
        <ele>17.84</ele>
        <time>2020-07-10T11:41:15Z</time>
      </trkpt>
      <trkpt lat="47.81757" lon="-3.42874">
        <ele>17.7</ele>
        <time>2020-07-10T11:41:16Z</time>
      </trkpt>
      <trkpt lat="47.81754" lon="-3.4288">
        <ele>17.43</ele>
        <time>2020-07-10T11:41:17Z</time>
      </trkpt>
      <trkpt lat="47.81751" lon="-3.42884">
        <ele>17.14</ele>
        <time>2020-07-10T11:41:18Z</time>
      </trkpt>
      <trkpt lat="47.8175" lon="-3.42888">
        <ele>16.98</ele>
        <time>2020-07-10T11:41:19Z</time>
      </trkpt>
      <trkpt lat="47.81748" lon="-3.42892">
        <ele>16.98</ele>
        <time>2020-07-10T11:41:20Z</time>
      </trkpt>
      <trkpt lat="47.81747" lon="-3.42895">
        <ele>17.01</ele>
        <time>2020-07-10T11:41:21Z</time>
      </trkpt>
      <trkpt lat="47.81746" lon="-3.429">
        <ele>17.04</ele>
        <time>2020-07-10T11:41:22Z</time>
      </trkpt>
      <trkpt lat="47.81745" lon="-3.42905">
        <ele>17.1</ele>
        <time>2020-07-10T11:41:23Z</time>
      </trkpt>
      <trkpt lat="47.81744" lon="-3.42911">
        <ele>17.15</ele>
        <time>2020-07-10T11:41:24Z</time>
      </trkpt>
      <trkpt lat="47.81744" lon="-3.42917">
        <ele>17.27</ele>
        <time>2020-07-10T11:41:25Z</time>
      </trkpt>
      <trkpt lat="47.81743" lon="-3.42923">
        <ele>17.48</ele>
        <time>2020-07-10T11:41:26Z</time>
      </trkpt>
      <trkpt lat="47.81742" lon="-3.42929">
        <ele>17.71</ele>
        <time>2020-07-10T11:41:27Z</time>
      </trkpt>
      <trkpt lat="47.81741" lon="-3.42934">
        <ele>17.86</ele>
        <time>2020-07-10T11:41:28Z</time>
      </trkpt>
      <trkpt lat="47.81741" lon="-3.42939">
        <ele>18.11</ele>
        <time>2020-07-10T11:41:29Z</time>
      </trkpt>
      <trkpt lat="47.81742" lon="-3.42945">
        <ele>18.41</ele>
        <time>2020-07-10T11:41:30Z</time>
      </trkpt>
      <trkpt lat="47.81742" lon="-3.4295">
        <ele>18.59</ele>
        <time>2020-07-10T11:41:31Z</time>
      </trkpt>
      <trkpt lat="47.81742" lon="-3.42954">
        <ele>18.64</ele>
        <time>2020-07-10T11:41:32Z</time>
      </trkpt>
      <trkpt lat="47.81742" lon="-3.42961">
        <ele>18.72</ele>
        <time>2020-07-10T11:41:33Z</time>
      </trkpt>
      <trkpt lat="47.81743" lon="-3.42966">
        <ele>18.87</ele>
        <time>2020-07-10T11:41:34Z</time>
      </trkpt>
      <trkpt lat="47.81743" lon="-3.42971">
        <ele>18.98</ele>
        <time>2020-07-10T11:41:35Z</time>
      </trkpt>
      <trkpt lat="47.81744" lon="-3.42975">
        <ele>19.09</ele>
        <time>2020-07-10T11:41:36Z</time>
      </trkpt>
      <trkpt lat="47.81745" lon="-3.42978">
        <ele>19.26</ele>
        <time>2020-07-10T11:41:37Z</time>
      </trkpt>
      <trkpt lat="47.81747" lon="-3.42981">
        <ele>19.49</ele>
        <time>2020-07-10T11:41:38Z</time>
      </trkpt>
      <trkpt lat="47.8175" lon="-3.42983">
        <ele>19.81</ele>
        <time>2020-07-10T11:41:39Z</time>
      </trkpt>
      <trkpt lat="47.81752" lon="-3.42985">
        <ele>20.15</ele>
        <time>2020-07-10T11:41:40Z</time>
      </trkpt>
      <trkpt lat="47.81755" lon="-3.42988">
        <ele>20.45</ele>
        <time>2020-07-10T11:41:41Z</time>
      </trkpt>
      <trkpt lat="47.81757" lon="-3.42989">
        <ele>20.71</ele>
        <time>2020-07-10T11:41:42Z</time>
      </trkpt>
      <trkpt lat="47.8176" lon="-3.42991">
        <ele>20.94</ele>
        <time>2020-07-10T11:41:43Z</time>
      </trkpt>
      <trkpt lat="47.81761" lon="-3.42993">
        <ele>21.09</ele>
        <time>2020-07-10T11:41:44Z</time>
      </trkpt>
      <trkpt lat="47.81764" lon="-3.42995">
        <ele>21.19</ele>
        <time>2020-07-10T11:41:45Z</time>
      </trkpt>
      <trkpt lat="47.81766" lon="-3.42998">
        <ele>21.26</ele>
        <time>2020-07-10T11:41:46Z</time>
      </trkpt>
      <trkpt lat="47.81768" lon="-3.42999">
        <ele>21.32</ele>
        <time>2020-07-10T11:41:47Z</time>
      </trkpt>
      <trkpt lat="47.8177" lon="-3.42999">
        <ele>21.47</ele>
        <time>2020-07-10T11:41:48Z</time>
      </trkpt>
      <trkpt lat="47.81773" lon="-3.42999">
        <ele>21.64</ele>
        <time>2020-07-10T11:41:49Z</time>
      </trkpt>
      <trkpt lat="47.81775" lon="-3.42998">
        <ele>21.88</ele>
        <time>2020-07-10T11:41:50Z</time>
      </trkpt>
      <trkpt lat="47.81777" lon="-3.42998">
        <ele>22.12</ele>
        <time>2020-07-10T11:41:51Z</time>
      </trkpt>
      <trkpt lat="47.81778" lon="-3.42997">
        <ele>22.28</ele>
        <time>2020-07-10T11:41:52Z</time>
      </trkpt>
      <trkpt lat="47.8178" lon="-3.42997">
        <ele>22.43</ele>
        <time>2020-07-10T11:41:53Z</time>
      </trkpt>
      <trkpt lat="47.81782" lon="-3.42996">
        <ele>22.64</ele>
        <time>2020-07-10T11:41:54Z</time>
      </trkpt>
      <trkpt lat="47.81784" lon="-3.42995">
        <ele>22.89</ele>
        <time>2020-07-10T11:41:55Z</time>
      </trkpt>
      <trkpt lat="47.81787" lon="-3.42995">
        <ele>23.13</ele>
        <time>2020-07-10T11:41:56Z</time>
      </trkpt>
      <trkpt lat="47.8179" lon="-3.42994">
        <ele>23.42</ele>
        <time>2020-07-10T11:41:57Z</time>
      </trkpt>
      <trkpt lat="47.81793" lon="-3.42992">
        <ele>23.75</ele>
        <time>2020-07-10T11:41:58Z</time>
      </trkpt>
      <trkpt lat="47.81796" lon="-3.42992">
        <ele>24.05</ele>
        <time>2020-07-10T11:41:59Z</time>
      </trkpt>
      <trkpt lat="47.81797" lon="-3.42991">
        <ele>24.29</ele>
        <time>2020-07-10T11:42:00Z</time>
      </trkpt>
      <trkpt lat="47.818" lon="-3.42989">
        <ele>24.61</ele>
        <time>2020-07-10T11:42:01Z</time>
      </trkpt>
      <trkpt lat="47.81803" lon="-3.42988">
        <ele>24.94</ele>
        <time>2020-07-10T11:42:02Z</time>
      </trkpt>
      <trkpt lat="47.81805" lon="-3.42986">
        <ele>25.32</ele>
        <time>2020-07-10T11:42:03Z</time>
      </trkpt>
      <trkpt lat="47.81808" lon="-3.42985">
        <ele>25.49</ele>
        <time>2020-07-10T11:42:04Z</time>
      </trkpt>
      <trkpt lat="47.81811" lon="-3.42985">
        <ele>25.48</ele>
        <time>2020-07-10T11:42:05Z</time>
      </trkpt>
      <trkpt lat="47.81813" lon="-3.42985">
        <ele>25.39</ele>
        <time>2020-07-10T11:42:06Z</time>
      </trkpt>
      <trkpt lat="47.81817" lon="-3.42984">
        <ele>25.35</ele>
        <time>2020-07-10T11:42:07Z</time>
      </trkpt>
      <trkpt lat="47.8182" lon="-3.42984">
        <ele>25.31</ele>
        <time>2020-07-10T11:42:08Z</time>
      </trkpt>
      <trkpt lat="47.81822" lon="-3.42984">
        <ele>25.23</ele>
        <time>2020-07-10T11:42:09Z</time>
      </trkpt>
      <trkpt lat="47.81824" lon="-3.42984">
        <ele>25.2</ele>
        <time>2020-07-10T11:42:10Z</time>
      </trkpt>
      <trkpt lat="47.81826" lon="-3.42982">
        <ele>25.3</ele>
        <time>2020-07-10T11:42:11Z</time>
      </trkpt>
      <trkpt lat="47.81828" lon="-3.42981">
        <ele>25.43</ele>
        <time>2020-07-10T11:42:12Z</time>
      </trkpt>
      <trkpt lat="47.8183" lon="-3.4298">
        <ele>25.56</ele>
        <time>2020-07-10T11:42:13Z</time>
      </trkpt>
      <trkpt lat="47.81832" lon="-3.42979">
        <ele>25.67</ele>
        <time>2020-07-10T11:42:14Z</time>
      </trkpt>
      <trkpt lat="47.81833" lon="-3.42979">
        <ele>25.81</ele>
        <time>2020-07-10T11:42:15Z</time>
      </trkpt>
      <trkpt lat="47.81835" lon="-3.42979">
        <ele>25.86</ele>
        <time>2020-07-10T11:42:16Z</time>
      </trkpt>
      <trkpt lat="47.81838" lon="-3.42979">
        <ele>25.91</ele>
        <time>2020-07-10T11:42:17Z</time>
      </trkpt>
      <trkpt lat="47.8184" lon="-3.42978">
        <ele>26</ele>
        <time>2020-07-10T11:42:18Z</time>
      </trkpt>
      <trkpt lat="47.81843" lon="-3.42978">
        <ele>26.09</ele>
        <time>2020-07-10T11:42:19Z</time>
      </trkpt>
      <trkpt lat="47.81845" lon="-3.42978">
        <ele>26.13</ele>
        <time>2020-07-10T11:42:20Z</time>
      </trkpt>
      <trkpt lat="47.81848" lon="-3.42979">
        <ele>26.12</ele>
        <time>2020-07-10T11:42:21Z</time>
      </trkpt>
      <trkpt lat="47.81849" lon="-3.42979">
        <ele>26.14</ele>
        <time>2020-07-10T11:42:22Z</time>
      </trkpt>
      <trkpt lat="47.81851" lon="-3.42978">
        <ele>26.24</ele>
        <time>2020-07-10T11:42:23Z</time>
      </trkpt>
      <trkpt lat="47.81853" lon="-3.42978">
        <ele>26.31</ele>
        <time>2020-07-10T11:42:24Z</time>
      </trkpt>
      <trkpt lat="47.81856" lon="-3.42979">
        <ele>26.32</ele>
        <time>2020-07-10T11:42:25Z</time>
      </trkpt>
      <trkpt lat="47.81859" lon="-3.42978">
        <ele>26.38</ele>
        <time>2020-07-10T11:42:26Z</time>
      </trkpt>
      <trkpt lat="47.81861" lon="-3.42979">
        <ele>26.4</ele>
        <time>2020-07-10T11:42:27Z</time>
      </trkpt>
      <trkpt lat="47.81863" lon="-3.42979">
        <ele>26.33</ele>
        <time>2020-07-10T11:42:28Z</time>
      </trkpt>
      <trkpt lat="47.81865" lon="-3.42978">
        <ele>26.37</ele>
        <time>2020-07-10T11:42:29Z</time>
      </trkpt>
      <trkpt lat="47.81868" lon="-3.42977">
        <ele>26.45</ele>
        <time>2020-07-10T11:42:30Z</time>
      </trkpt>
      <trkpt lat="47.8187" lon="-3.42977">
        <ele>26.49</ele>
        <time>2020-07-10T11:42:31Z</time>
      </trkpt>
      <trkpt lat="47.81873" lon="-3.42976">
        <ele>26.5</ele>
        <time>2020-07-10T11:42:32Z</time>
      </trkpt>
      <trkpt lat="47.81875" lon="-3.42977">
        <ele>26.34</ele>
        <time>2020-07-10T11:42:33Z</time>
      </trkpt>
      <trkpt lat="47.81878" lon="-3.42978">
        <ele>26.02</ele>
        <time>2020-07-10T11:42:34Z</time>
      </trkpt>
      <trkpt lat="47.81882" lon="-3.42978">
        <ele>25.92</ele>
        <time>2020-07-10T11:42:35Z</time>
      </trkpt>
      <trkpt lat="47.81885" lon="-3.42979">
        <ele>25.63</ele>
        <time>2020-07-10T11:42:36Z</time>
      </trkpt>
      <trkpt lat="47.81888" lon="-3.4298">
        <ele>25.23</ele>
        <time>2020-07-10T11:42:37Z</time>
      </trkpt>
      <trkpt lat="47.81893" lon="-3.4298">
        <ele>25.49</ele>
        <time>2020-07-10T11:42:38Z</time>
      </trkpt>
      <trkpt lat="47.81898" lon="-3.4298">
        <ele>25.9</ele>
        <time>2020-07-10T11:42:39Z</time>
      </trkpt>
      <trkpt lat="47.81904" lon="-3.42981">
        <ele>26.24</ele>
        <time>2020-07-10T11:42:40Z</time>
      </trkpt>
      <trkpt lat="47.81907" lon="-3.42983">
        <ele>26.23</ele>
        <time>2020-07-10T11:42:41Z</time>
      </trkpt>
      <trkpt lat="47.8191" lon="-3.42985">
        <ele>26.05</ele>
        <time>2020-07-10T11:42:42Z</time>
      </trkpt>
      <trkpt lat="47.81913" lon="-3.42988">
        <ele>25.8</ele>
        <time>2020-07-10T11:42:43Z</time>
      </trkpt>
      <trkpt lat="47.81918" lon="-3.42989">
        <ele>25.9</ele>
        <time>2020-07-10T11:42:44Z</time>
      </trkpt>
      <trkpt lat="47.81923" lon="-3.42992">
        <ele>25.96</ele>
        <time>2020-07-10T11:42:45Z</time>
      </trkpt>
      <trkpt lat="47.81926" lon="-3.42995">
        <ele>25.64</ele>
        <time>2020-07-10T11:42:46Z</time>
      </trkpt>
      <trkpt lat="47.81929" lon="-3.42999">
        <ele>25.29</ele>
        <time>2020-07-10T11:42:47Z</time>
      </trkpt>
      <trkpt lat="47.81933" lon="-3.43002">
        <ele>24.99</ele>
        <time>2020-07-10T11:42:48Z</time>
      </trkpt>
      <trkpt lat="47.81937" lon="-3.43005">
        <ele>24.72</ele>
        <time>2020-07-10T11:42:49Z</time>
      </trkpt>
      <trkpt lat="47.8194" lon="-3.43008">
        <ele>24.45</ele>
        <time>2020-07-10T11:42:50Z</time>
      </trkpt>
      <trkpt lat="47.81943" lon="-3.43011">
        <ele>24.13</ele>
        <time>2020-07-10T11:42:51Z</time>
      </trkpt>
      <trkpt lat="47.81946" lon="-3.43014">
        <ele>23.95</ele>
        <time>2020-07-10T11:42:52Z</time>
      </trkpt>
      <trkpt lat="47.81948" lon="-3.43017">
        <ele>23.69</ele>
        <time>2020-07-10T11:42:53Z</time>
      </trkpt>
      <trkpt lat="47.81952" lon="-3.4302">
        <ele>23.49</ele>
        <time>2020-07-10T11:42:54Z</time>
      </trkpt>
      <trkpt lat="47.81957" lon="-3.43024">
        <ele>23.52</ele>
        <time>2020-07-10T11:42:55Z</time>
      </trkpt>
      <trkpt lat="47.81961" lon="-3.43027">
        <ele>23.56</ele>
        <time>2020-07-10T11:42:56Z</time>
      </trkpt>
      <trkpt lat="47.81967" lon="-3.43035">
        <ele>23.23</ele>
        <time>2020-07-10T11:42:57Z</time>
      </trkpt>
      <trkpt lat="47.81976" lon="-3.43038">
        <ele>23.66</ele>
        <time>2020-07-10T11:42:58Z</time>
      </trkpt>
      <trkpt lat="47.81982" lon="-3.4304">
        <ele>23.99</ele>
        <time>2020-07-10T11:42:59Z</time>
      </trkpt>
      <trkpt lat="47.81987" lon="-3.43043">
        <ele>24.22</ele>
        <time>2020-07-10T11:43:00Z</time>
      </trkpt>
      <trkpt lat="47.81992" lon="-3.43046">
        <ele>24.24</ele>
        <time>2020-07-10T11:43:01Z</time>
      </trkpt>
      <trkpt lat="47.82" lon="-3.43051">
        <ele>24.15</ele>
        <time>2020-07-10T11:43:02Z</time>
      </trkpt>
      <trkpt lat="47.82006" lon="-3.43056">
        <ele>23.87</ele>
        <time>2020-07-10T11:43:03Z</time>
      </trkpt>
      <trkpt lat="47.82013" lon="-3.43061">
        <ele>23.45</ele>
        <time>2020-07-10T11:43:04Z</time>
      </trkpt>
      <trkpt lat="47.82019" lon="-3.43066">
        <ele>22.97</ele>
        <time>2020-07-10T11:43:05Z</time>
      </trkpt>
      <trkpt lat="47.82023" lon="-3.4307">
        <ele>22.47</ele>
        <time>2020-07-10T11:43:06Z</time>
      </trkpt>
      <trkpt lat="47.82027" lon="-3.43073">
        <ele>22.07</ele>
        <time>2020-07-10T11:43:07Z</time>
      </trkpt>
      <trkpt lat="47.8203" lon="-3.43075">
        <ele>21.81</ele>
        <time>2020-07-10T11:43:08Z</time>
      </trkpt>
      <trkpt lat="47.82034" lon="-3.43075">
        <ele>21.97</ele>
        <time>2020-07-10T11:43:09Z</time>
      </trkpt>
      <trkpt lat="47.82037" lon="-3.43077">
        <ele>22.01</ele>
        <time>2020-07-10T11:43:10Z</time>
      </trkpt>
      <trkpt lat="47.8204" lon="-3.43077">
        <ele>22.1</ele>
        <time>2020-07-10T11:43:11Z</time>
      </trkpt>
      <trkpt lat="47.82042" lon="-3.43077">
        <ele>22.34</ele>
        <time>2020-07-10T11:43:12Z</time>
      </trkpt>
      <trkpt lat="47.82044" lon="-3.43077">
        <ele>22.78</ele>
        <time>2020-07-10T11:43:13Z</time>
      </trkpt>
      <trkpt lat="47.82045" lon="-3.43077">
        <ele>22.94</ele>
        <time>2020-07-10T11:43:14Z</time>
      </trkpt>
      <trkpt lat="47.82047" lon="-3.43078">
        <ele>22.92</ele>
        <time>2020-07-10T11:43:15Z</time>
      </trkpt>
      <trkpt lat="47.8205" lon="-3.43079">
        <ele>22.91</ele>
        <time>2020-07-10T11:43:16Z</time>
      </trkpt>
      <trkpt lat="47.82054" lon="-3.43081">
        <ele>22.76</ele>
        <time>2020-07-10T11:43:17Z</time>
      </trkpt>
      <trkpt lat="47.82058" lon="-3.43083">
        <ele>22.43</ele>
        <time>2020-07-10T11:43:18Z</time>
      </trkpt>
      <trkpt lat="47.82062" lon="-3.43086">
        <ele>22.25</ele>
        <time>2020-07-10T11:43:19Z</time>
      </trkpt>
      <trkpt lat="47.82066" lon="-3.43087">
        <ele>22.23</ele>
        <time>2020-07-10T11:43:20Z</time>
      </trkpt>
      <trkpt lat="47.82069" lon="-3.43088">
        <ele>22.22</ele>
        <time>2020-07-10T11:43:21Z</time>
      </trkpt>
      <trkpt lat="47.82072" lon="-3.4309">
        <ele>22.24</ele>
        <time>2020-07-10T11:43:22Z</time>
      </trkpt>
      <trkpt lat="47.82075" lon="-3.43092">
        <ele>22.07</ele>
        <time>2020-07-10T11:43:23Z</time>
      </trkpt>
      <trkpt lat="47.82081" lon="-3.43095">
        <ele>21.95</ele>
        <time>2020-07-10T11:43:24Z</time>
      </trkpt>
      <trkpt lat="47.82085" lon="-3.43096">
        <ele>21.95</ele>
        <time>2020-07-10T11:43:25Z</time>
      </trkpt>
      <trkpt lat="47.82091" lon="-3.43098">
        <ele>22.22</ele>
        <time>2020-07-10T11:43:26Z</time>
      </trkpt>
      <trkpt lat="47.82095" lon="-3.43098">
        <ele>22.58</ele>
        <time>2020-07-10T11:43:27Z</time>
      </trkpt>
      <trkpt lat="47.82099" lon="-3.43098">
        <ele>23.01</ele>
        <time>2020-07-10T11:43:28Z</time>
      </trkpt>
      <trkpt lat="47.82103" lon="-3.43097">
        <ele>23.69</ele>
        <time>2020-07-10T11:43:29Z</time>
      </trkpt>
      <trkpt lat="47.82107" lon="-3.43096">
        <ele>24.54</ele>
        <time>2020-07-10T11:43:30Z</time>
      </trkpt>
      <trkpt lat="47.82111" lon="-3.43095">
        <ele>25.34</ele>
        <time>2020-07-10T11:43:31Z</time>
      </trkpt>
      <trkpt lat="47.82116" lon="-3.43094">
        <ele>25.65</ele>
        <time>2020-07-10T11:43:32Z</time>
      </trkpt>
      <trkpt lat="47.8212" lon="-3.43093">
        <ele>25.87</ele>
        <time>2020-07-10T11:43:33Z</time>
      </trkpt>
      <trkpt lat="47.82123" lon="-3.43092">
        <ele>26.11</ele>
        <time>2020-07-10T11:43:34Z</time>
      </trkpt>
      <trkpt lat="47.82127" lon="-3.43091">
        <ele>26.33</ele>
        <time>2020-07-10T11:43:35Z</time>
      </trkpt>
      <trkpt lat="47.8213" lon="-3.4309">
        <ele>26.46</ele>
        <time>2020-07-10T11:43:36Z</time>
      </trkpt>
      <trkpt lat="47.82134" lon="-3.4309">
        <ele>26.47</ele>
        <time>2020-07-10T11:43:37Z</time>
      </trkpt>
      <trkpt lat="47.82138" lon="-3.43089">
        <ele>26.59</ele>
        <time>2020-07-10T11:43:38Z</time>
      </trkpt>
      <trkpt lat="47.82143" lon="-3.43088">
        <ele>26.5</ele>
        <time>2020-07-10T11:43:39Z</time>
      </trkpt>
      <trkpt lat="47.82145" lon="-3.4309">
        <ele>25.91</ele>
        <time>2020-07-10T11:43:40Z</time>
      </trkpt>
      <trkpt lat="47.8215" lon="-3.43093">
        <ele>25.04</ele>
        <time>2020-07-10T11:43:41Z</time>
      </trkpt>
      <trkpt lat="47.82154" lon="-3.43094">
        <ele>24.18</ele>
        <time>2020-07-10T11:43:42Z</time>
      </trkpt>
      <trkpt lat="47.82157" lon="-3.43097">
        <ele>23.2</ele>
        <time>2020-07-10T11:43:43Z</time>
      </trkpt>
      <trkpt lat="47.82161" lon="-3.43101">
        <ele>22.13</ele>
        <time>2020-07-10T11:43:44Z</time>
      </trkpt>
      <trkpt lat="47.82165" lon="-3.43105">
        <ele>20.97</ele>
        <time>2020-07-10T11:43:45Z</time>
      </trkpt>
      <trkpt lat="47.82169" lon="-3.4311">
        <ele>19.83</ele>
        <time>2020-07-10T11:43:46Z</time>
      </trkpt>
      <trkpt lat="47.82171" lon="-3.43115">
        <ele>19</ele>
        <time>2020-07-10T11:43:47Z</time>
      </trkpt>
      <trkpt lat="47.82171" lon="-3.4312">
        <ele>18.39</ele>
        <time>2020-07-10T11:43:48Z</time>
      </trkpt>
      <trkpt lat="47.82174" lon="-3.43127">
        <ele>17.8</ele>
        <time>2020-07-10T11:43:49Z</time>
      </trkpt>
      <trkpt lat="47.82178" lon="-3.43134">
        <ele>17.36</ele>
        <time>2020-07-10T11:43:50Z</time>
      </trkpt>
      <trkpt lat="47.82181" lon="-3.4314">
        <ele>17.07</ele>
        <time>2020-07-10T11:43:51Z</time>
      </trkpt>
      <trkpt lat="47.82185" lon="-3.43143">
        <ele>17.08</ele>
        <time>2020-07-10T11:43:52Z</time>
      </trkpt>
      <trkpt lat="47.82188" lon="-3.43146">
        <ele>17.08</ele>
        <time>2020-07-10T11:43:53Z</time>
      </trkpt>
      <trkpt lat="47.8219" lon="-3.43147">
        <ele>17.09</ele>
        <time>2020-07-10T11:43:54Z</time>
      </trkpt>
      <trkpt lat="47.8219" lon="-3.43148">
        <ele>17.1</ele>
        <time>2020-07-10T11:43:55Z</time>
      </trkpt>
      <trkpt lat="47.82191" lon="-3.43148">
        <ele>17.11</ele>
        <time>2020-07-10T11:43:56Z</time>
      </trkpt>
      <trkpt lat="47.82191" lon="-3.43148">
        <ele>17.13</ele>
        <time>2020-07-10T11:43:57Z</time>
      </trkpt>
      <trkpt lat="47.82191" lon="-3.43148">
        <ele>17.14</ele>
        <time>2020-07-10T11:43:58Z</time>
      </trkpt>
      <trkpt lat="47.82191" lon="-3.43148">
        <ele>17.14</ele>
        <time>2020-07-10T11:43:59Z</time>
      </trkpt>
      <trkpt lat="47.82191" lon="-3.43148">
        <ele>17.14</ele>
        <time>2020-07-10T11:44:00Z</time>
      </trkpt>
      <trkpt lat="47.82191" lon="-3.43148">
        <ele>17.14</ele>
        <time>2020-07-10T11:44:01Z</time>
      </trkpt>
      <trkpt lat="47.82191" lon="-3.43148">
        <ele>17.14</ele>
        <time>2020-07-10T11:44:02Z</time>
      </trkpt>
      <trkpt lat="47.82191" lon="-3.43148">
        <ele>17.14</ele>
        <time>2020-07-10T11:44:03Z</time>
      </trkpt>
      <trkpt lat="47.82191" lon="-3.43148">
        <ele>17.14</ele>
        <time>2020-07-10T11:44:04Z</time>
      </trkpt>
      <trkpt lat="47.82191" lon="-3.43148">
        <ele>17.14</ele>
        <time>2020-07-10T11:44:05Z</time>
      </trkpt>
      <trkpt lat="47.82191" lon="-3.43148">
        <ele>17.14</ele>
        <time>2020-07-10T11:44:06Z</time>
      </trkpt>
      <trkpt lat="47.82191" lon="-3.43148">
        <ele>17.14</ele>
        <time>2020-07-10T11:44:07Z</time>
      </trkpt>
      <trkpt lat="47.82191" lon="-3.43148">
        <ele>17.14</ele>
        <time>2020-07-10T11:44:08Z</time>
      </trkpt>
      <trkpt lat="47.82191" lon="-3.43148">
        <ele>17.14</ele>
        <time>2020-07-10T11:44:09Z</time>
      </trkpt>
      <trkpt lat="47.82191" lon="-3.43148">
        <ele>17.14</ele>
        <time>2020-07-10T11:44:10Z</time>
      </trkpt>
      <trkpt lat="47.82191" lon="-3.43148">
        <ele>17.14</ele>
        <time>2020-07-10T11:44:11Z</time>
      </trkpt>
      <trkpt lat="47.82191" lon="-3.43148">
        <ele>17.14</ele>
        <time>2020-07-10T11:44:12Z</time>
      </trkpt>
      <trkpt lat="47.82191" lon="-3.43148">
        <ele>17.14</ele>
        <time>2020-07-10T11:44:13Z</time>
      </trkpt>
      <trkpt lat="47.82191" lon="-3.43148">
        <ele>17.14</ele>
        <time>2020-07-10T11:44:14Z</time>
      </trkpt>
      <trkpt lat="47.82191" lon="-3.43148">
        <ele>17.14</ele>
        <time>2020-07-10T11:44:15Z</time>
      </trkpt>
      <trkpt lat="47.82191" lon="-3.43148">
        <ele>17.14</ele>
        <time>2020-07-10T11:44:16Z</time>
      </trkpt>
      <trkpt lat="47.82191" lon="-3.43148">
        <ele>17.14</ele>
        <time>2020-07-10T11:44:17Z</time>
      </trkpt>
      <trkpt lat="47.82191" lon="-3.43148">
        <ele>17.14</ele>
        <time>2020-07-10T11:44:18Z</time>
      </trkpt>
      <trkpt lat="47.822" lon="-3.43152">
        <ele>17.24</ele>
        <time>2020-07-10T11:44:19Z</time>
      </trkpt>
      <trkpt lat="47.82201" lon="-3.43153">
        <ele>17.21</ele>
        <time>2020-07-10T11:44:20Z</time>
      </trkpt>
      <trkpt lat="47.82202" lon="-3.43155">
        <ele>17.14</ele>
        <time>2020-07-10T11:44:21Z</time>
      </trkpt>
      <trkpt lat="47.82203" lon="-3.43157">
        <ele>17.02</ele>
        <time>2020-07-10T11:44:22Z</time>
      </trkpt>
      <trkpt lat="47.82202" lon="-3.43159">
        <ele>16.89</ele>
        <time>2020-07-10T11:44:23Z</time>
      </trkpt>
      <trkpt lat="47.82203" lon="-3.43161">
        <ele>16.78</ele>
        <time>2020-07-10T11:44:24Z</time>
      </trkpt>
      <trkpt lat="47.82203" lon="-3.43163">
        <ele>16.61</ele>
        <time>2020-07-10T11:44:25Z</time>
      </trkpt>
      <trkpt lat="47.82204" lon="-3.43165">
        <ele>16.49</ele>
        <time>2020-07-10T11:44:26Z</time>
      </trkpt>
      <trkpt lat="47.82206" lon="-3.43168">
        <ele>16.4</ele>
        <time>2020-07-10T11:44:27Z</time>
      </trkpt>
      <trkpt lat="47.82208" lon="-3.43171">
        <ele>16.39</ele>
        <time>2020-07-10T11:44:28Z</time>
      </trkpt>
      <trkpt lat="47.82208" lon="-3.43174">
        <ele>16.37</ele>
        <time>2020-07-10T11:44:29Z</time>
      </trkpt>
      <trkpt lat="47.82207" lon="-3.43177">
        <ele>16.27</ele>
        <time>2020-07-10T11:44:30Z</time>
      </trkpt>
      <trkpt lat="47.82206" lon="-3.4318">
        <ele>16.16</ele>
        <time>2020-07-10T11:44:31Z</time>
      </trkpt>
      <trkpt lat="47.82204" lon="-3.43183">
        <ele>16.03</ele>
        <time>2020-07-10T11:44:32Z</time>
      </trkpt>
      <trkpt lat="47.82203" lon="-3.43186">
        <ele>15.87</ele>
        <time>2020-07-10T11:44:33Z</time>
      </trkpt>
      <trkpt lat="47.82201" lon="-3.43189">
        <ele>15.7</ele>
        <time>2020-07-10T11:44:34Z</time>
      </trkpt>
      <trkpt lat="47.822" lon="-3.43192">
        <ele>15.52</ele>
        <time>2020-07-10T11:44:35Z</time>
      </trkpt>
      <trkpt lat="47.82198" lon="-3.43195">
        <ele>15.35</ele>
        <time>2020-07-10T11:44:36Z</time>
      </trkpt>
      <trkpt lat="47.82197" lon="-3.43197">
        <ele>15.34</ele>
        <time>2020-07-10T11:44:37Z</time>
      </trkpt>
      <trkpt lat="47.82195" lon="-3.432">
        <ele>15.39</ele>
        <time>2020-07-10T11:44:38Z</time>
      </trkpt>
      <trkpt lat="47.82194" lon="-3.43202">
        <ele>15.5</ele>
        <time>2020-07-10T11:44:39Z</time>
      </trkpt>
      <trkpt lat="47.82193" lon="-3.43204">
        <ele>15.65</ele>
        <time>2020-07-10T11:44:40Z</time>
      </trkpt>
      <trkpt lat="47.82192" lon="-3.43206">
        <ele>15.81</ele>
        <time>2020-07-10T11:44:41Z</time>
      </trkpt>
      <trkpt lat="47.82191" lon="-3.43208">
        <ele>15.96</ele>
        <time>2020-07-10T11:44:42Z</time>
      </trkpt>
      <trkpt lat="47.8219" lon="-3.43209">
        <ele>16.09</ele>
        <time>2020-07-10T11:44:43Z</time>
      </trkpt>
      <trkpt lat="47.82188" lon="-3.4321">
        <ele>16.18</ele>
        <time>2020-07-10T11:44:44Z</time>
      </trkpt>
      <trkpt lat="47.82187" lon="-3.43211">
        <ele>16.28</ele>
        <time>2020-07-10T11:44:45Z</time>
      </trkpt>
      <trkpt lat="47.82186" lon="-3.43213">
        <ele>16.39</ele>
        <time>2020-07-10T11:44:46Z</time>
      </trkpt>
      <trkpt lat="47.82184" lon="-3.43213">
        <ele>16.43</ele>
        <time>2020-07-10T11:44:47Z</time>
      </trkpt>
      <trkpt lat="47.82183" lon="-3.43212">
        <ele>16.41</ele>
        <time>2020-07-10T11:44:48Z</time>
      </trkpt>
      <trkpt lat="47.82181" lon="-3.43209">
        <ele>16.31</ele>
        <time>2020-07-10T11:44:49Z</time>
      </trkpt>
      <trkpt lat="47.82181" lon="-3.43207">
        <ele>16.19</ele>
        <time>2020-07-10T11:44:50Z</time>
      </trkpt>
      <trkpt lat="47.82183" lon="-3.43204">
        <ele>16.03</ele>
        <time>2020-07-10T11:44:51Z</time>
      </trkpt>
      <trkpt lat="47.82185" lon="-3.43202">
        <ele>15.84</ele>
        <time>2020-07-10T11:44:52Z</time>
      </trkpt>
      <trkpt lat="47.82188" lon="-3.43198">
        <ele>15.58</ele>
        <time>2020-07-10T11:44:53Z</time>
      </trkpt>
      <trkpt lat="47.8219" lon="-3.43194">
        <ele>15.27</ele>
        <time>2020-07-10T11:44:54Z</time>
      </trkpt>
      <trkpt lat="47.82194" lon="-3.43191">
        <ele>15.19</ele>
        <time>2020-07-10T11:44:55Z</time>
      </trkpt>
      <trkpt lat="47.82197" lon="-3.43187">
        <ele>15.33</ele>
        <time>2020-07-10T11:44:56Z</time>
      </trkpt>
      <trkpt lat="47.82199" lon="-3.43183">
        <ele>15.58</ele>
        <time>2020-07-10T11:44:57Z</time>
      </trkpt>
      <trkpt lat="47.82202" lon="-3.43179">
        <ele>15.84</ele>
        <time>2020-07-10T11:44:58Z</time>
      </trkpt>
      <trkpt lat="47.82205" lon="-3.43174">
        <ele>16.09</ele>
        <time>2020-07-10T11:44:59Z</time>
      </trkpt>
      <trkpt lat="47.82207" lon="-3.4317">
        <ele>16.31</ele>
        <time>2020-07-10T11:45:00Z</time>
      </trkpt>
      <trkpt lat="47.82209" lon="-3.43164">
        <ele>16.59</ele>
        <time>2020-07-10T11:45:01Z</time>
      </trkpt>
      <trkpt lat="47.82212" lon="-3.43159">
        <ele>17.02</ele>
        <time>2020-07-10T11:45:02Z</time>
      </trkpt>
      <trkpt lat="47.82214" lon="-3.43154">
        <ele>17.45</ele>
        <time>2020-07-10T11:45:03Z</time>
      </trkpt>
      <trkpt lat="47.82216" lon="-3.43148">
        <ele>17.91</ele>
        <time>2020-07-10T11:45:04Z</time>
      </trkpt>
      <trkpt lat="47.82218" lon="-3.43143">
        <ele>18.39</ele>
        <time>2020-07-10T11:45:05Z</time>
      </trkpt>
      <trkpt lat="47.8222" lon="-3.43137">
        <ele>18.85</ele>
        <time>2020-07-10T11:45:06Z</time>
      </trkpt>
      <trkpt lat="47.82222" lon="-3.43131">
        <ele>19.34</ele>
        <time>2020-07-10T11:45:07Z</time>
      </trkpt>
      <trkpt lat="47.82224" lon="-3.43126">
        <ele>19.67</ele>
        <time>2020-07-10T11:45:08Z</time>
      </trkpt>
      <trkpt lat="47.82227" lon="-3.4312">
        <ele>19.97</ele>
        <time>2020-07-10T11:45:09Z</time>
      </trkpt>
      <trkpt lat="47.8223" lon="-3.43115">
        <ele>20.28</ele>
        <time>2020-07-10T11:45:10Z</time>
      </trkpt>
      <trkpt lat="47.82233" lon="-3.4311">
        <ele>20.67</ele>
        <time>2020-07-10T11:45:11Z</time>
      </trkpt>
      <trkpt lat="47.82236" lon="-3.43105">
        <ele>21.24</ele>
        <time>2020-07-10T11:45:12Z</time>
      </trkpt>
      <trkpt lat="47.8224" lon="-3.43101">
        <ele>21.9</ele>
        <time>2020-07-10T11:45:13Z</time>
      </trkpt>
      <trkpt lat="47.82243" lon="-3.43097">
        <ele>22.65</ele>
        <time>2020-07-10T11:45:14Z</time>
      </trkpt>
      <trkpt lat="47.82247" lon="-3.43093">
        <ele>23.46</ele>
        <time>2020-07-10T11:45:15Z</time>
      </trkpt>
      <trkpt lat="47.82251" lon="-3.4309">
        <ele>24.18</ele>
        <time>2020-07-10T11:45:16Z</time>
      </trkpt>
      <trkpt lat="47.82255" lon="-3.43087">
        <ele>24.35</ele>
        <time>2020-07-10T11:45:17Z</time>
      </trkpt>
      <trkpt lat="47.82259" lon="-3.43084">
        <ele>24.35</ele>
        <time>2020-07-10T11:45:18Z</time>
      </trkpt>
      <trkpt lat="47.82263" lon="-3.43081">
        <ele>24.18</ele>
        <time>2020-07-10T11:45:19Z</time>
      </trkpt>
      <trkpt lat="47.82267" lon="-3.43078">
        <ele>24.03</ele>
        <time>2020-07-10T11:45:20Z</time>
      </trkpt>
      <trkpt lat="47.8227" lon="-3.43074">
        <ele>24.19</ele>
        <time>2020-07-10T11:45:21Z</time>
      </trkpt>
      <trkpt lat="47.82273" lon="-3.43071">
        <ele>24.49</ele>
        <time>2020-07-10T11:45:22Z</time>
      </trkpt>
      <trkpt lat="47.82277" lon="-3.43068">
        <ele>24.84</ele>
        <time>2020-07-10T11:45:23Z</time>
      </trkpt>
      <trkpt lat="47.8228" lon="-3.43065">
        <ele>25.07</ele>
        <time>2020-07-10T11:45:24Z</time>
      </trkpt>
      <trkpt lat="47.82284" lon="-3.43062">
        <ele>25.11</ele>
        <time>2020-07-10T11:45:25Z</time>
      </trkpt>
      <trkpt lat="47.82288" lon="-3.43059">
        <ele>25.14</ele>
        <time>2020-07-10T11:45:26Z</time>
      </trkpt>
      <trkpt lat="47.82292" lon="-3.43055">
        <ele>25.1</ele>
        <time>2020-07-10T11:45:27Z</time>
      </trkpt>
      <trkpt lat="47.82295" lon="-3.43051">
        <ele>24.84</ele>
        <time>2020-07-10T11:45:28Z</time>
      </trkpt>
      <trkpt lat="47.82299" lon="-3.43048">
        <ele>24.64</ele>
        <time>2020-07-10T11:45:29Z</time>
      </trkpt>
      <trkpt lat="47.82303" lon="-3.43043">
        <ele>24.57</ele>
        <time>2020-07-10T11:45:30Z</time>
      </trkpt>
      <trkpt lat="47.82308" lon="-3.43039">
        <ele>24.5</ele>
        <time>2020-07-10T11:45:31Z</time>
      </trkpt>
      <trkpt lat="47.82312" lon="-3.43036">
        <ele>24.27</ele>
        <time>2020-07-10T11:45:32Z</time>
      </trkpt>
      <trkpt lat="47.82316" lon="-3.43031">
        <ele>24.17</ele>
        <time>2020-07-10T11:45:33Z</time>
      </trkpt>
      <trkpt lat="47.8232" lon="-3.43027">
        <ele>24</ele>
        <time>2020-07-10T11:45:34Z</time>
      </trkpt>
      <trkpt lat="47.82324" lon="-3.43021">
        <ele>23.85</ele>
        <time>2020-07-10T11:45:35Z</time>
      </trkpt>
      <trkpt lat="47.82327" lon="-3.43016">
        <ele>23.81</ele>
        <time>2020-07-10T11:45:36Z</time>
      </trkpt>
      <trkpt lat="47.8233" lon="-3.43011">
        <ele>23.93</ele>
        <time>2020-07-10T11:45:37Z</time>
      </trkpt>
      <trkpt lat="47.82332" lon="-3.43005">
        <ele>24.25</ele>
        <time>2020-07-10T11:45:38Z</time>
      </trkpt>
      <trkpt lat="47.82334" lon="-3.43">
        <ele>24.67</ele>
        <time>2020-07-10T11:45:39Z</time>
      </trkpt>
      <trkpt lat="47.82335" lon="-3.42993">
        <ele>24.59</ele>
        <time>2020-07-10T11:45:40Z</time>
      </trkpt>
      <trkpt lat="47.82337" lon="-3.42987">
        <ele>24.41</ele>
        <time>2020-07-10T11:45:41Z</time>
      </trkpt>
      <trkpt lat="47.82338" lon="-3.4298">
        <ele>24.2</ele>
        <time>2020-07-10T11:45:42Z</time>
      </trkpt>
      <trkpt lat="47.82338" lon="-3.42974">
        <ele>24.12</ele>
        <time>2020-07-10T11:45:43Z</time>
      </trkpt>
      <trkpt lat="47.82338" lon="-3.42967">
        <ele>24.08</ele>
        <time>2020-07-10T11:45:44Z</time>
      </trkpt>
      <trkpt lat="47.82336" lon="-3.4296">
        <ele>24.07</ele>
        <time>2020-07-10T11:45:45Z</time>
      </trkpt>
      <trkpt lat="47.82335" lon="-3.42954">
        <ele>24.01</ele>
        <time>2020-07-10T11:45:46Z</time>
      </trkpt>
      <trkpt lat="47.82335" lon="-3.42948">
        <ele>23.92</ele>
        <time>2020-07-10T11:45:47Z</time>
      </trkpt>
      <trkpt lat="47.82334" lon="-3.42942">
        <ele>23.8</ele>
        <time>2020-07-10T11:45:48Z</time>
      </trkpt>
      <trkpt lat="47.82334" lon="-3.42935">
        <ele>23.66</ele>
        <time>2020-07-10T11:45:49Z</time>
      </trkpt>
      <trkpt lat="47.82333" lon="-3.42928">
        <ele>23.51</ele>
        <time>2020-07-10T11:45:50Z</time>
      </trkpt>
      <trkpt lat="47.82333" lon="-3.42922">
        <ele>23.33</ele>
        <time>2020-07-10T11:45:51Z</time>
      </trkpt>
      <trkpt lat="47.82332" lon="-3.42915">
        <ele>23.26</ele>
        <time>2020-07-10T11:45:52Z</time>
      </trkpt>
      <trkpt lat="47.82332" lon="-3.42909">
        <ele>23.54</ele>
        <time>2020-07-10T11:45:53Z</time>
      </trkpt>
      <trkpt lat="47.82332" lon="-3.42903">
        <ele>23.91</ele>
        <time>2020-07-10T11:45:54Z</time>
      </trkpt>
      <trkpt lat="47.82331" lon="-3.42897">
        <ele>24.32</ele>
        <time>2020-07-10T11:45:55Z</time>
      </trkpt>
      <trkpt lat="47.82332" lon="-3.4289">
        <ele>24.73</ele>
        <time>2020-07-10T11:45:56Z</time>
      </trkpt>
      <trkpt lat="47.82333" lon="-3.42884">
        <ele>25.47</ele>
        <time>2020-07-10T11:45:57Z</time>
      </trkpt>
      <trkpt lat="47.82335" lon="-3.42879">
        <ele>26.31</ele>
        <time>2020-07-10T11:45:58Z</time>
      </trkpt>
      <trkpt lat="47.82338" lon="-3.42874">
        <ele>27.09</ele>
        <time>2020-07-10T11:45:59Z</time>
      </trkpt>
      <trkpt lat="47.8234" lon="-3.42869">
        <ele>27.81</ele>
        <time>2020-07-10T11:46:00Z</time>
      </trkpt>
      <trkpt lat="47.82342" lon="-3.42865">
        <ele>28.46</ele>
        <time>2020-07-10T11:46:01Z</time>
      </trkpt>
      <trkpt lat="47.82345" lon="-3.42861">
        <ele>29.02</ele>
        <time>2020-07-10T11:46:02Z</time>
      </trkpt>
      <trkpt lat="47.82348" lon="-3.42858">
        <ele>29.51</ele>
        <time>2020-07-10T11:46:03Z</time>
      </trkpt>
      <trkpt lat="47.82351" lon="-3.42854">
        <ele>30.08</ele>
        <time>2020-07-10T11:46:04Z</time>
      </trkpt>
      <trkpt lat="47.82354" lon="-3.42851">
        <ele>30.55</ele>
        <time>2020-07-10T11:46:05Z</time>
      </trkpt>
      <trkpt lat="47.82358" lon="-3.4285">
        <ele>30.92</ele>
        <time>2020-07-10T11:46:06Z</time>
      </trkpt>
      <trkpt lat="47.82361" lon="-3.42848">
        <ele>31.15</ele>
        <time>2020-07-10T11:46:07Z</time>
      </trkpt>
      <trkpt lat="47.82364" lon="-3.42846">
        <ele>31.6</ele>
        <time>2020-07-10T11:46:08Z</time>
      </trkpt>
      <trkpt lat="47.82368" lon="-3.42845">
        <ele>31.86</ele>
        <time>2020-07-10T11:46:09Z</time>
      </trkpt>
      <trkpt lat="47.82372" lon="-3.42844">
        <ele>32.01</ele>
        <time>2020-07-10T11:46:10Z</time>
      </trkpt>
      <trkpt lat="47.82375" lon="-3.42843">
        <ele>32.16</ele>
        <time>2020-07-10T11:46:11Z</time>
      </trkpt>
      <trkpt lat="47.82379" lon="-3.42842">
        <ele>32.36</ele>
        <time>2020-07-10T11:46:12Z</time>
      </trkpt>
      <trkpt lat="47.82383" lon="-3.42841">
        <ele>32.39</ele>
        <time>2020-07-10T11:46:13Z</time>
      </trkpt>
      <trkpt lat="47.82386" lon="-3.4284">
        <ele>32.51</ele>
        <time>2020-07-10T11:46:14Z</time>
      </trkpt>
      <trkpt lat="47.82389" lon="-3.4284">
        <ele>32.57</ele>
        <time>2020-07-10T11:46:15Z</time>
      </trkpt>
      <trkpt lat="47.82392" lon="-3.42839">
        <ele>32.6</ele>
        <time>2020-07-10T11:46:16Z</time>
      </trkpt>
      <trkpt lat="47.82396" lon="-3.42839">
        <ele>32.61</ele>
        <time>2020-07-10T11:46:17Z</time>
      </trkpt>
      <trkpt lat="47.82399" lon="-3.42838">
        <ele>32.59</ele>
        <time>2020-07-10T11:46:18Z</time>
      </trkpt>
      <trkpt lat="47.82403" lon="-3.42838">
        <ele>32.55</ele>
        <time>2020-07-10T11:46:19Z</time>
      </trkpt>
      <trkpt lat="47.82406" lon="-3.42838">
        <ele>32.56</ele>
        <time>2020-07-10T11:46:20Z</time>
      </trkpt>
      <trkpt lat="47.8241" lon="-3.42837">
        <ele>32.54</ele>
        <time>2020-07-10T11:46:21Z</time>
      </trkpt>
      <trkpt lat="47.82414" lon="-3.42836">
        <ele>32.56</ele>
        <time>2020-07-10T11:46:22Z</time>
      </trkpt>
      <trkpt lat="47.82418" lon="-3.42835">
        <ele>32.63</ele>
        <time>2020-07-10T11:46:23Z</time>
      </trkpt>
      <trkpt lat="47.82422" lon="-3.42834">
        <ele>32.67</ele>
        <time>2020-07-10T11:46:24Z</time>
      </trkpt>
      <trkpt lat="47.82425" lon="-3.42834">
        <ele>32.66</ele>
        <time>2020-07-10T11:46:25Z</time>
      </trkpt>
      <trkpt lat="47.82429" lon="-3.42833">
        <ele>32.69</ele>
        <time>2020-07-10T11:46:26Z</time>
      </trkpt>
      <trkpt lat="47.82432" lon="-3.42832">
        <ele>32.74</ele>
        <time>2020-07-10T11:46:27Z</time>
      </trkpt>
      <trkpt lat="47.82436" lon="-3.42831">
        <ele>32.77</ele>
        <time>2020-07-10T11:46:28Z</time>
      </trkpt>
      <trkpt lat="47.82439" lon="-3.4283">
        <ele>32.87</ele>
        <time>2020-07-10T11:46:29Z</time>
      </trkpt>
      <trkpt lat="47.82443" lon="-3.42828">
        <ele>32.97</ele>
        <time>2020-07-10T11:46:30Z</time>
      </trkpt>
      <trkpt lat="47.82446" lon="-3.42826">
        <ele>33.24</ele>
        <time>2020-07-10T11:46:31Z</time>
      </trkpt>
      <trkpt lat="47.8245" lon="-3.42824">
        <ele>33.55</ele>
        <time>2020-07-10T11:46:32Z</time>
      </trkpt>
      <trkpt lat="47.82453" lon="-3.42822">
        <ele>33.83</ele>
        <time>2020-07-10T11:46:33Z</time>
      </trkpt>
      <trkpt lat="47.82456" lon="-3.4282">
        <ele>34.08</ele>
        <time>2020-07-10T11:46:34Z</time>
      </trkpt>
      <trkpt lat="47.82458" lon="-3.42818">
        <ele>34.3</ele>
        <time>2020-07-10T11:46:35Z</time>
      </trkpt>
      <trkpt lat="47.8246" lon="-3.42817">
        <ele>34.43</ele>
        <time>2020-07-10T11:46:36Z</time>
      </trkpt>
      <trkpt lat="47.82463" lon="-3.42817">
        <ele>34.47</ele>
        <time>2020-07-10T11:46:37Z</time>
      </trkpt>
      <trkpt lat="47.82465" lon="-3.42818">
        <ele>34.35</ele>
        <time>2020-07-10T11:46:38Z</time>
      </trkpt>
      <trkpt lat="47.82466" lon="-3.4282">
        <ele>34.12</ele>
        <time>2020-07-10T11:46:39Z</time>
      </trkpt>
      <trkpt lat="47.82467" lon="-3.42824">
        <ele>33.83</ele>
        <time>2020-07-10T11:46:40Z</time>
      </trkpt>
      <trkpt lat="47.82467" lon="-3.42827">
        <ele>33.54</ele>
        <time>2020-07-10T11:46:41Z</time>
      </trkpt>
      <trkpt lat="47.82467" lon="-3.4283">
        <ele>33.25</ele>
        <time>2020-07-10T11:46:42Z</time>
      </trkpt>
      <trkpt lat="47.82466" lon="-3.42834">
        <ele>32.91</ele>
        <time>2020-07-10T11:46:43Z</time>
      </trkpt>
      <trkpt lat="47.82465" lon="-3.42837">
        <ele>32.6</ele>
        <time>2020-07-10T11:46:44Z</time>
      </trkpt>
      <trkpt lat="47.82464" lon="-3.42841">
        <ele>32.28</ele>
        <time>2020-07-10T11:46:45Z</time>
      </trkpt>
      <trkpt lat="47.82462" lon="-3.42846">
        <ele>31.86</ele>
        <time>2020-07-10T11:46:46Z</time>
      </trkpt>
      <trkpt lat="47.82461" lon="-3.42852">
        <ele>31.35</ele>
        <time>2020-07-10T11:46:47Z</time>
      </trkpt>
      <trkpt lat="47.82459" lon="-3.42859">
        <ele>30.64</ele>
        <time>2020-07-10T11:46:48Z</time>
      </trkpt>
      <trkpt lat="47.82458" lon="-3.42864">
        <ele>30.09</ele>
        <time>2020-07-10T11:46:49Z</time>
      </trkpt>
      <trkpt lat="47.82456" lon="-3.42869">
        <ele>29.64</ele>
        <time>2020-07-10T11:46:50Z</time>
      </trkpt>
      <trkpt lat="47.82454" lon="-3.42873">
        <ele>29.26</ele>
        <time>2020-07-10T11:46:51Z</time>
      </trkpt>
      <trkpt lat="47.82453" lon="-3.42877">
        <ele>28.95</ele>
        <time>2020-07-10T11:46:52Z</time>
      </trkpt>
      <trkpt lat="47.82452" lon="-3.42881">
        <ele>28.67</ele>
        <time>2020-07-10T11:46:53Z</time>
      </trkpt>
      <trkpt lat="47.82452" lon="-3.42886">
        <ele>28.47</ele>
        <time>2020-07-10T11:46:54Z</time>
      </trkpt>
      <trkpt lat="47.82452" lon="-3.42889">
        <ele>28.38</ele>
        <time>2020-07-10T11:46:55Z</time>
      </trkpt>
      <trkpt lat="47.82451" lon="-3.42891">
        <ele>28.3</ele>
        <time>2020-07-10T11:46:56Z</time>
      </trkpt>
      <trkpt lat="47.8245" lon="-3.42893">
        <ele>28.21</ele>
        <time>2020-07-10T11:46:57Z</time>
      </trkpt>
      <trkpt lat="47.82449" lon="-3.42895">
        <ele>28.07</ele>
        <time>2020-07-10T11:46:58Z</time>
      </trkpt>
      <trkpt lat="47.82447" lon="-3.42897">
        <ele>27.9</ele>
        <time>2020-07-10T11:46:59Z</time>
      </trkpt>
      <trkpt lat="47.82446" lon="-3.42901">
        <ele>27.81</ele>
        <time>2020-07-10T11:47:00Z</time>
      </trkpt>
      <trkpt lat="47.82446" lon="-3.42904">
        <ele>27.73</ele>
        <time>2020-07-10T11:47:01Z</time>
      </trkpt>
      <trkpt lat="47.82444" lon="-3.42906">
        <ele>27.64</ele>
        <time>2020-07-10T11:47:02Z</time>
      </trkpt>
      <trkpt lat="47.82443" lon="-3.42909">
        <ele>27.55</ele>
        <time>2020-07-10T11:47:03Z</time>
      </trkpt>
      <trkpt lat="47.82442" lon="-3.4291">
        <ele>27.45</ele>
        <time>2020-07-10T11:47:04Z</time>
      </trkpt>
      <trkpt lat="47.82442" lon="-3.4291">
        <ele>27.43</ele>
        <time>2020-07-10T11:47:05Z</time>
      </trkpt>
      <trkpt lat="47.82442" lon="-3.42911">
        <ele>27.45</ele>
        <time>2020-07-10T11:47:06Z</time>
      </trkpt>
      <trkpt lat="47.82442" lon="-3.42911">
        <ele>27.45</ele>
        <time>2020-07-10T11:47:07Z</time>
      </trkpt>
      <trkpt lat="47.82442" lon="-3.42911">
        <ele>27.46</ele>
        <time>2020-07-10T11:47:08Z</time>
      </trkpt>
      <trkpt lat="47.82442" lon="-3.42911">
        <ele>27.46</ele>
        <time>2020-07-10T11:47:09Z</time>
      </trkpt>
      <trkpt lat="47.82442" lon="-3.42911">
        <ele>27.46</ele>
        <time>2020-07-10T11:47:10Z</time>
      </trkpt>
      <trkpt lat="47.82442" lon="-3.42911">
        <ele>27.46</ele>
        <time>2020-07-10T11:47:11Z</time>
      </trkpt>
      <trkpt lat="47.82442" lon="-3.42911">
        <ele>27.46</ele>
        <time>2020-07-10T11:47:12Z</time>
      </trkpt>
      <trkpt lat="47.82442" lon="-3.42911">
        <ele>27.46</ele>
        <time>2020-07-10T11:47:13Z</time>
      </trkpt>
      <trkpt lat="47.82442" lon="-3.42911">
        <ele>27.46</ele>
        <time>2020-07-10T11:47:14Z</time>
      </trkpt>
      <trkpt lat="47.82442" lon="-3.42911">
        <ele>27.46</ele>
        <time>2020-07-10T11:47:15Z</time>
      </trkpt>
      <trkpt lat="47.82442" lon="-3.42911">
        <ele>27.46</ele>
        <time>2020-07-10T11:47:16Z</time>
      </trkpt>
      <trkpt lat="47.82442" lon="-3.42911">
        <ele>27.46</ele>
        <time>2020-07-10T11:47:17Z</time>
      </trkpt>
      <trkpt lat="47.82442" lon="-3.42911">
        <ele>27.46</ele>
        <time>2020-07-10T11:47:18Z</time>
      </trkpt>
      <trkpt lat="47.82442" lon="-3.42911">
        <ele>27.46</ele>
        <time>2020-07-10T11:47:19Z</time>
      </trkpt>
      <trkpt lat="47.82442" lon="-3.42911">
        <ele>27.46</ele>
        <time>2020-07-10T11:47:20Z</time>
      </trkpt>
      <trkpt lat="47.82442" lon="-3.42911">
        <ele>27.46</ele>
        <time>2020-07-10T11:47:21Z</time>
      </trkpt>
      <trkpt lat="47.82442" lon="-3.42911">
        <ele>27.46</ele>
        <time>2020-07-10T11:47:22Z</time>
      </trkpt>
      <trkpt lat="47.82442" lon="-3.42911">
        <ele>27.46</ele>
        <time>2020-07-10T11:47:23Z</time>
      </trkpt>
      <trkpt lat="47.82445" lon="-3.42906">
        <ele>27.6</ele>
        <time>2020-07-10T11:47:24Z</time>
      </trkpt>
      <trkpt lat="47.82445" lon="-3.42903">
        <ele>27.65</ele>
        <time>2020-07-10T11:47:25Z</time>
      </trkpt>
      <trkpt lat="47.82446" lon="-3.42902">
        <ele>27.72</ele>
        <time>2020-07-10T11:47:26Z</time>
      </trkpt>
      <trkpt lat="47.82448" lon="-3.42901">
        <ele>27.89</ele>
        <time>2020-07-10T11:47:27Z</time>
      </trkpt>
      <trkpt lat="47.82449" lon="-3.429">
        <ele>28.05</ele>
        <time>2020-07-10T11:47:28Z</time>
      </trkpt>
      <trkpt lat="47.8245" lon="-3.42901">
        <ele>28.23</ele>
        <time>2020-07-10T11:47:29Z</time>
      </trkpt>
      <trkpt lat="47.8245" lon="-3.42903">
        <ele>28.41</ele>
        <time>2020-07-10T11:47:30Z</time>
      </trkpt>
      <trkpt lat="47.82451" lon="-3.42905">
        <ele>28.56</ele>
        <time>2020-07-10T11:47:31Z</time>
      </trkpt>
      <trkpt lat="47.82452" lon="-3.42908">
        <ele>28.81</ele>
        <time>2020-07-10T11:47:32Z</time>
      </trkpt>
      <trkpt lat="47.82454" lon="-3.4291">
        <ele>29.16</ele>
        <time>2020-07-10T11:47:33Z</time>
      </trkpt>
      <trkpt lat="47.82456" lon="-3.42912">
        <ele>29.48</ele>
        <time>2020-07-10T11:47:34Z</time>
      </trkpt>
      <trkpt lat="47.82459" lon="-3.42914">
        <ele>29.84</ele>
        <time>2020-07-10T11:47:35Z</time>
      </trkpt>
      <trkpt lat="47.82461" lon="-3.42915">
        <ele>30.22</ele>
        <time>2020-07-10T11:47:36Z</time>
      </trkpt>
      <trkpt lat="47.82463" lon="-3.42916">
        <ele>30.56</ele>
        <time>2020-07-10T11:47:37Z</time>
      </trkpt>
      <trkpt lat="47.82465" lon="-3.42916">
        <ele>30.87</ele>
        <time>2020-07-10T11:47:38Z</time>
      </trkpt>
      <trkpt lat="47.82468" lon="-3.42916">
        <ele>31.2</ele>
        <time>2020-07-10T11:47:39Z</time>
      </trkpt>
      <trkpt lat="47.8247" lon="-3.42917">
        <ele>31.52</ele>
        <time>2020-07-10T11:47:40Z</time>
      </trkpt>
      <trkpt lat="47.82471" lon="-3.42918">
        <ele>31.66</ele>
        <time>2020-07-10T11:47:41Z</time>
      </trkpt>
      <trkpt lat="47.82473" lon="-3.42919">
        <ele>31.78</ele>
        <time>2020-07-10T11:47:42Z</time>
      </trkpt>
      <trkpt lat="47.82474" lon="-3.4292">
        <ele>31.85</ele>
        <time>2020-07-10T11:47:43Z</time>
      </trkpt>
      <trkpt lat="47.82475" lon="-3.42922">
        <ele>31.89</ele>
        <time>2020-07-10T11:47:44Z</time>
      </trkpt>
      <trkpt lat="47.82477" lon="-3.42922">
        <ele>32.03</ele>
        <time>2020-07-10T11:47:45Z</time>
      </trkpt>
      <trkpt lat="47.82477" lon="-3.42923">
        <ele>32.11</ele>
        <time>2020-07-10T11:47:46Z</time>
      </trkpt>
      <trkpt lat="47.82477" lon="-3.42922">
        <ele>32.16</ele>
        <time>2020-07-10T11:47:47Z</time>
      </trkpt>
      <trkpt lat="47.82477" lon="-3.42922">
        <ele>32.18</ele>
        <time>2020-07-10T11:47:48Z</time>
      </trkpt>
      <trkpt lat="47.82477" lon="-3.42922">
        <ele>32.18</ele>
        <time>2020-07-10T11:47:49Z</time>
      </trkpt>
      <trkpt lat="47.82477" lon="-3.42922">
        <ele>32.19</ele>
        <time>2020-07-10T11:47:50Z</time>
      </trkpt>
      <trkpt lat="47.82477" lon="-3.42922">
        <ele>32.19</ele>
        <time>2020-07-10T11:47:51Z</time>
      </trkpt>
      <trkpt lat="47.82477" lon="-3.42922">
        <ele>32.19</ele>
        <time>2020-07-10T11:47:52Z</time>
      </trkpt>
      <trkpt lat="47.82477" lon="-3.42922">
        <ele>32.19</ele>
        <time>2020-07-10T11:47:53Z</time>
      </trkpt>
      <trkpt lat="47.82477" lon="-3.42922">
        <ele>32.19</ele>
        <time>2020-07-10T11:47:54Z</time>
      </trkpt>
      <trkpt lat="47.82477" lon="-3.42922">
        <ele>32.19</ele>
        <time>2020-07-10T11:47:55Z</time>
      </trkpt>
      <trkpt lat="47.82476" lon="-3.42919">
        <ele>32.25</ele>
        <time>2020-07-10T11:47:56Z</time>
      </trkpt>
      <trkpt lat="47.82475" lon="-3.42918">
        <ele>32.25</ele>
        <time>2020-07-10T11:47:57Z</time>
      </trkpt>
      <trkpt lat="47.82473" lon="-3.42917">
        <ele>32.15</ele>
        <time>2020-07-10T11:47:58Z</time>
      </trkpt>
      <trkpt lat="47.82472" lon="-3.42917">
        <ele>31.99</ele>
        <time>2020-07-10T11:47:59Z</time>
      </trkpt>
      <trkpt lat="47.8247" lon="-3.42917">
        <ele>31.71</ele>
        <time>2020-07-10T11:48:00Z</time>
      </trkpt>
      <trkpt lat="47.82467" lon="-3.42917">
        <ele>31.42</ele>
        <time>2020-07-10T11:48:01Z</time>
      </trkpt>
      <trkpt lat="47.82464" lon="-3.42915">
        <ele>31.04</ele>
        <time>2020-07-10T11:48:02Z</time>
      </trkpt>
      <trkpt lat="47.82462" lon="-3.42912">
        <ele>30.66</ele>
        <time>2020-07-10T11:48:03Z</time>
      </trkpt>
      <trkpt lat="47.8246" lon="-3.42908">
        <ele>30.21</ele>
        <time>2020-07-10T11:48:04Z</time>
      </trkpt>
      <trkpt lat="47.82457" lon="-3.42903">
        <ele>29.8</ele>
        <time>2020-07-10T11:48:05Z</time>
      </trkpt>
      <trkpt lat="47.82456" lon="-3.42899">
        <ele>29.41</ele>
        <time>2020-07-10T11:48:06Z</time>
      </trkpt>
      <trkpt lat="47.82455" lon="-3.42895">
        <ele>29.13</ele>
        <time>2020-07-10T11:48:07Z</time>
      </trkpt>
      <trkpt lat="47.82455" lon="-3.42891">
        <ele>28.97</ele>
        <time>2020-07-10T11:48:08Z</time>
      </trkpt>
      <trkpt lat="47.82455" lon="-3.42888">
        <ele>28.96</ele>
        <time>2020-07-10T11:48:09Z</time>
      </trkpt>
      <trkpt lat="47.82456" lon="-3.42884">
        <ele>29.15</ele>
        <time>2020-07-10T11:48:10Z</time>
      </trkpt>
      <trkpt lat="47.82457" lon="-3.42882">
        <ele>29.35</ele>
        <time>2020-07-10T11:48:11Z</time>
      </trkpt>
      <trkpt lat="47.82458" lon="-3.42878">
        <ele>29.59</ele>
        <time>2020-07-10T11:48:12Z</time>
      </trkpt>
      <trkpt lat="47.8246" lon="-3.42873">
        <ele>29.88</ele>
        <time>2020-07-10T11:48:13Z</time>
      </trkpt>
      <trkpt lat="47.82461" lon="-3.42868">
        <ele>30.16</ele>
        <time>2020-07-10T11:48:14Z</time>
      </trkpt>
      <trkpt lat="47.82462" lon="-3.42864">
        <ele>30.41</ele>
        <time>2020-07-10T11:48:15Z</time>
      </trkpt>
      <trkpt lat="47.82463" lon="-3.42859">
        <ele>30.69</ele>
        <time>2020-07-10T11:48:16Z</time>
      </trkpt>
      <trkpt lat="47.82464" lon="-3.42855">
        <ele>31.05</ele>
        <time>2020-07-10T11:48:17Z</time>
      </trkpt>
      <trkpt lat="47.82465" lon="-3.42851">
        <ele>31.43</ele>
        <time>2020-07-10T11:48:18Z</time>
      </trkpt>
      <trkpt lat="47.82466" lon="-3.42847">
        <ele>31.77</ele>
        <time>2020-07-10T11:48:19Z</time>
      </trkpt>
      <trkpt lat="47.82467" lon="-3.42843">
        <ele>32.13</ele>
        <time>2020-07-10T11:48:20Z</time>
      </trkpt>
      <trkpt lat="47.82469" lon="-3.42839">
        <ele>32.47</ele>
        <time>2020-07-10T11:48:21Z</time>
      </trkpt>
      <trkpt lat="47.8247" lon="-3.42834">
        <ele>32.75</ele>
        <time>2020-07-10T11:48:22Z</time>
      </trkpt>
      <trkpt lat="47.8247" lon="-3.4283">
        <ele>33.05</ele>
        <time>2020-07-10T11:48:23Z</time>
      </trkpt>
      <trkpt lat="47.82472" lon="-3.42826">
        <ele>33.39</ele>
        <time>2020-07-10T11:48:24Z</time>
      </trkpt>
      <trkpt lat="47.82472" lon="-3.42822">
        <ele>33.69</ele>
        <time>2020-07-10T11:48:25Z</time>
      </trkpt>
      <trkpt lat="47.82473" lon="-3.42818">
        <ele>34</ele>
        <time>2020-07-10T11:48:26Z</time>
      </trkpt>
      <trkpt lat="47.82475" lon="-3.42815">
        <ele>34.25</ele>
        <time>2020-07-10T11:48:27Z</time>
      </trkpt>
      <trkpt lat="47.82476" lon="-3.42812">
        <ele>34.41</ele>
        <time>2020-07-10T11:48:28Z</time>
      </trkpt>
      <trkpt lat="47.82477" lon="-3.4281">
        <ele>34.55</ele>
        <time>2020-07-10T11:48:29Z</time>
      </trkpt>
      <trkpt lat="47.82478" lon="-3.42809">
        <ele>34.59</ele>
        <time>2020-07-10T11:48:30Z</time>
      </trkpt>
      <trkpt lat="47.82479" lon="-3.42809">
        <ele>34.59</ele>
        <time>2020-07-10T11:48:31Z</time>
      </trkpt>
      <trkpt lat="47.82479" lon="-3.42809">
        <ele>34.59</ele>
        <time>2020-07-10T11:48:32Z</time>
      </trkpt>
      <trkpt lat="47.8248" lon="-3.42808">
        <ele>34.6</ele>
        <time>2020-07-10T11:48:33Z</time>
      </trkpt>
      <trkpt lat="47.8248" lon="-3.42808">
        <ele>34.6</ele>
        <time>2020-07-10T11:48:34Z</time>
      </trkpt>
      <trkpt lat="47.8248" lon="-3.42808">
        <ele>34.6</ele>
        <time>2020-07-10T11:48:35Z</time>
      </trkpt>
      <trkpt lat="47.8248" lon="-3.42808">
        <ele>34.6</ele>
        <time>2020-07-10T11:48:36Z</time>
      </trkpt>
      <trkpt lat="47.8248" lon="-3.42808">
        <ele>34.6</ele>
        <time>2020-07-10T11:48:37Z</time>
      </trkpt>
      <trkpt lat="47.8248" lon="-3.42808">
        <ele>34.6</ele>
        <time>2020-07-10T11:48:38Z</time>
      </trkpt>
      <trkpt lat="47.8248" lon="-3.42808">
        <ele>34.6</ele>
        <time>2020-07-10T11:48:39Z</time>
      </trkpt>
      <trkpt lat="47.8248" lon="-3.42808">
        <ele>34.6</ele>
        <time>2020-07-10T11:48:40Z</time>
      </trkpt>
      <trkpt lat="47.8248" lon="-3.42808">
        <ele>34.6</ele>
        <time>2020-07-10T11:48:41Z</time>
      </trkpt>
      <trkpt lat="47.8248" lon="-3.42808">
        <ele>34.6</ele>
        <time>2020-07-10T11:48:42Z</time>
      </trkpt>
      <trkpt lat="47.8248" lon="-3.42808">
        <ele>34.6</ele>
        <time>2020-07-10T11:48:43Z</time>
      </trkpt>
      <trkpt lat="47.82489" lon="-3.42814">
        <ele>34.42</ele>
        <time>2020-07-10T11:48:44Z</time>
      </trkpt>
      <trkpt lat="47.82489" lon="-3.42816">
        <ele>34.35</ele>
        <time>2020-07-10T11:48:45Z</time>
      </trkpt>
      <trkpt lat="47.82489" lon="-3.42818">
        <ele>34.33</ele>
        <time>2020-07-10T11:48:46Z</time>
      </trkpt>
      <trkpt lat="47.82489" lon="-3.42819">
        <ele>34.31</ele>
        <time>2020-07-10T11:48:47Z</time>
      </trkpt>
      <trkpt lat="47.82488" lon="-3.42821">
        <ele>34.27</ele>
        <time>2020-07-10T11:48:48Z</time>
      </trkpt>
      <trkpt lat="47.82487" lon="-3.42822">
        <ele>34.24</ele>
        <time>2020-07-10T11:48:49Z</time>
      </trkpt>
      <trkpt lat="47.82487" lon="-3.42825">
        <ele>34.22</ele>
        <time>2020-07-10T11:48:50Z</time>
      </trkpt>
      <trkpt lat="47.82486" lon="-3.42828">
        <ele>34.13</ele>
        <time>2020-07-10T11:48:51Z</time>
      </trkpt>
      <trkpt lat="47.82484" lon="-3.42834">
        <ele>33.95</ele>
        <time>2020-07-10T11:48:52Z</time>
      </trkpt>
      <trkpt lat="47.82483" lon="-3.42837">
        <ele>33.78</ele>
        <time>2020-07-10T11:48:53Z</time>
      </trkpt>
      <trkpt lat="47.82481" lon="-3.42839">
        <ele>33.62</ele>
        <time>2020-07-10T11:48:54Z</time>
      </trkpt>
      <trkpt lat="47.82479" lon="-3.42842">
        <ele>33.41</ele>
        <time>2020-07-10T11:48:55Z</time>
      </trkpt>
      <trkpt lat="47.82477" lon="-3.42847">
        <ele>33.17</ele>
        <time>2020-07-10T11:48:56Z</time>
      </trkpt>
      <trkpt lat="47.82475" lon="-3.42851">
        <ele>32.81</ele>
        <time>2020-07-10T11:48:57Z</time>
      </trkpt>
      <trkpt lat="47.82473" lon="-3.42856">
        <ele>32.43</ele>
        <time>2020-07-10T11:48:58Z</time>
      </trkpt>
      <trkpt lat="47.82471" lon="-3.4286">
        <ele>32.01</ele>
        <time>2020-07-10T11:48:59Z</time>
      </trkpt>
      <trkpt lat="47.82469" lon="-3.42864">
        <ele>31.67</ele>
        <time>2020-07-10T11:49:00Z</time>
      </trkpt>
      <trkpt lat="47.82468" lon="-3.42868">
        <ele>31.41</ele>
        <time>2020-07-10T11:49:01Z</time>
      </trkpt>
      <trkpt lat="47.82467" lon="-3.42871">
        <ele>31.23</ele>
        <time>2020-07-10T11:49:02Z</time>
      </trkpt>
      <trkpt lat="47.82467" lon="-3.42875">
        <ele>31.21</ele>
        <time>2020-07-10T11:49:03Z</time>
      </trkpt>
      <trkpt lat="47.82469" lon="-3.42879">
        <ele>31.37</ele>
        <time>2020-07-10T11:49:04Z</time>
      </trkpt>
      <trkpt lat="47.8247" lon="-3.42884">
        <ele>31.54</ele>
        <time>2020-07-10T11:49:05Z</time>
      </trkpt>
      <trkpt lat="47.82471" lon="-3.42888">
        <ele>31.75</ele>
        <time>2020-07-10T11:49:06Z</time>
      </trkpt>
      <trkpt lat="47.82473" lon="-3.42893">
        <ele>31.95</ele>
        <time>2020-07-10T11:49:07Z</time>
      </trkpt>
      <trkpt lat="47.82474" lon="-3.42897">
        <ele>32.13</ele>
        <time>2020-07-10T11:49:08Z</time>
      </trkpt>
      <trkpt lat="47.82475" lon="-3.42902">
        <ele>32.35</ele>
        <time>2020-07-10T11:49:09Z</time>
      </trkpt>
      <trkpt lat="47.82477" lon="-3.42907">
        <ele>32.64</ele>
        <time>2020-07-10T11:49:10Z</time>
      </trkpt>
      <trkpt lat="47.82479" lon="-3.42911">
        <ele>32.92</ele>
        <time>2020-07-10T11:49:11Z</time>
      </trkpt>
      <trkpt lat="47.82481" lon="-3.42915">
        <ele>33.18</ele>
        <time>2020-07-10T11:49:12Z</time>
      </trkpt>
      <trkpt lat="47.82483" lon="-3.42919">
        <ele>33.25</ele>
        <time>2020-07-10T11:49:13Z</time>
      </trkpt>
      <trkpt lat="47.82483" lon="-3.42923">
        <ele>33.13</ele>
        <time>2020-07-10T11:49:14Z</time>
      </trkpt>
      <trkpt lat="47.82484" lon="-3.42926">
        <ele>32.87</ele>
        <time>2020-07-10T11:49:15Z</time>
      </trkpt>
      <trkpt lat="47.82484" lon="-3.4293">
        <ele>32.61</ele>
        <time>2020-07-10T11:49:16Z</time>
      </trkpt>
      <trkpt lat="47.82485" lon="-3.42933">
        <ele>32.45</ele>
        <time>2020-07-10T11:49:17Z</time>
      </trkpt>
      <trkpt lat="47.82487" lon="-3.42934">
        <ele>32.55</ele>
        <time>2020-07-10T11:49:18Z</time>
      </trkpt>
      <trkpt lat="47.82489" lon="-3.42935">
        <ele>32.74</ele>
        <time>2020-07-10T11:49:19Z</time>
      </trkpt>
      <trkpt lat="47.8249" lon="-3.42936">
        <ele>32.92</ele>
        <time>2020-07-10T11:49:20Z</time>
      </trkpt>
      <trkpt lat="47.82492" lon="-3.42938">
        <ele>33.08</ele>
        <time>2020-07-10T11:49:21Z</time>
      </trkpt>
      <trkpt lat="47.82493" lon="-3.42942">
        <ele>33.01</ele>
        <time>2020-07-10T11:49:22Z</time>
      </trkpt>
      <trkpt lat="47.82494" lon="-3.42945">
        <ele>32.96</ele>
        <time>2020-07-10T11:49:23Z</time>
      </trkpt>
      <trkpt lat="47.82496" lon="-3.42946">
        <ele>33.07</ele>
        <time>2020-07-10T11:49:24Z</time>
      </trkpt>
      <trkpt lat="47.82498" lon="-3.42947">
        <ele>33.3</ele>
        <time>2020-07-10T11:49:25Z</time>
      </trkpt>
      <trkpt lat="47.825" lon="-3.42949">
        <ele>33.55</ele>
        <time>2020-07-10T11:49:26Z</time>
      </trkpt>
      <trkpt lat="47.82501" lon="-3.4295">
        <ele>33.7</ele>
        <time>2020-07-10T11:49:27Z</time>
      </trkpt>
      <trkpt lat="47.82503" lon="-3.4295">
        <ele>33.93</ele>
        <time>2020-07-10T11:49:28Z</time>
      </trkpt>
      <trkpt lat="47.82505" lon="-3.4295">
        <ele>34.19</ele>
        <time>2020-07-10T11:49:29Z</time>
      </trkpt>
      <trkpt lat="47.82507" lon="-3.4295">
        <ele>34.49</ele>
        <time>2020-07-10T11:49:30Z</time>
      </trkpt>
      <trkpt lat="47.82509" lon="-3.42949">
        <ele>34.84</ele>
        <time>2020-07-10T11:49:31Z</time>
      </trkpt>
      <trkpt lat="47.8251" lon="-3.42949">
        <ele>35.05</ele>
        <time>2020-07-10T11:49:32Z</time>
      </trkpt>
      <trkpt lat="47.82512" lon="-3.42949">
        <ele>35.33</ele>
        <time>2020-07-10T11:49:33Z</time>
      </trkpt>
      <trkpt lat="47.82514" lon="-3.42948">
        <ele>35.69</ele>
        <time>2020-07-10T11:49:34Z</time>
      </trkpt>
      <trkpt lat="47.82516" lon="-3.42947">
        <ele>36.04</ele>
        <time>2020-07-10T11:49:35Z</time>
      </trkpt>
      <trkpt lat="47.82518" lon="-3.42946">
        <ele>36.34</ele>
        <time>2020-07-10T11:49:36Z</time>
      </trkpt>
      <trkpt lat="47.82519" lon="-3.42945">
        <ele>36.6</ele>
        <time>2020-07-10T11:49:37Z</time>
      </trkpt>
      <trkpt lat="47.82521" lon="-3.42947">
        <ele>36.85</ele>
        <time>2020-07-10T11:49:38Z</time>
      </trkpt>
      <trkpt lat="47.82522" lon="-3.42948">
        <ele>37.01</ele>
        <time>2020-07-10T11:49:39Z</time>
      </trkpt>
      <trkpt lat="47.82525" lon="-3.4295">
        <ele>37.21</ele>
        <time>2020-07-10T11:49:40Z</time>
      </trkpt>
      <trkpt lat="47.82526" lon="-3.42953">
        <ele>37.38</ele>
        <time>2020-07-10T11:49:41Z</time>
      </trkpt>
      <trkpt lat="47.82528" lon="-3.42955">
        <ele>37.54</ele>
        <time>2020-07-10T11:49:42Z</time>
      </trkpt>
      <trkpt lat="47.82529" lon="-3.42957">
        <ele>37.68</ele>
        <time>2020-07-10T11:49:43Z</time>
      </trkpt>
      <trkpt lat="47.82532" lon="-3.4296">
        <ele>37.83</ele>
        <time>2020-07-10T11:49:44Z</time>
      </trkpt>
      <trkpt lat="47.82535" lon="-3.42963">
        <ele>37.99</ele>
        <time>2020-07-10T11:49:45Z</time>
      </trkpt>
      <trkpt lat="47.82537" lon="-3.42967">
        <ele>38.13</ele>
        <time>2020-07-10T11:49:46Z</time>
      </trkpt>
      <trkpt lat="47.82538" lon="-3.4297">
        <ele>38.21</ele>
        <time>2020-07-10T11:49:47Z</time>
      </trkpt>
      <trkpt lat="47.8254" lon="-3.42973">
        <ele>38.29</ele>
        <time>2020-07-10T11:49:48Z</time>
      </trkpt>
      <trkpt lat="47.82541" lon="-3.42977">
        <ele>38.37</ele>
        <time>2020-07-10T11:49:49Z</time>
      </trkpt>
      <trkpt lat="47.82542" lon="-3.42981">
        <ele>38.49</ele>
        <time>2020-07-10T11:49:50Z</time>
      </trkpt>
      <trkpt lat="47.82544" lon="-3.42985">
        <ele>38.66</ele>
        <time>2020-07-10T11:49:51Z</time>
      </trkpt>
      <trkpt lat="47.82546" lon="-3.42987">
        <ele>38.89</ele>
        <time>2020-07-10T11:49:52Z</time>
      </trkpt>
      <trkpt lat="47.8255" lon="-3.42989">
        <ele>39.23</ele>
        <time>2020-07-10T11:49:53Z</time>
      </trkpt>
      <trkpt lat="47.82553" lon="-3.42991">
        <ele>39.56</ele>
        <time>2020-07-10T11:49:54Z</time>
      </trkpt>
      <trkpt lat="47.82555" lon="-3.42993">
        <ele>39.87</ele>
        <time>2020-07-10T11:49:55Z</time>
      </trkpt>
      <trkpt lat="47.82558" lon="-3.42996">
        <ele>40.08</ele>
        <time>2020-07-10T11:49:56Z</time>
      </trkpt>
      <trkpt lat="47.8256" lon="-3.42999">
        <ele>40.24</ele>
        <time>2020-07-10T11:49:57Z</time>
      </trkpt>
      <trkpt lat="47.82562" lon="-3.43003">
        <ele>40.37</ele>
        <time>2020-07-10T11:49:58Z</time>
      </trkpt>
      <trkpt lat="47.82564" lon="-3.43007">
        <ele>40.48</ele>
        <time>2020-07-10T11:49:59Z</time>
      </trkpt>
      <trkpt lat="47.82565" lon="-3.43011">
        <ele>40.54</ele>
        <time>2020-07-10T11:50:00Z</time>
      </trkpt>
      <trkpt lat="47.82565" lon="-3.43014">
        <ele>40.53</ele>
        <time>2020-07-10T11:50:01Z</time>
      </trkpt>
      <trkpt lat="47.82566" lon="-3.43018">
        <ele>40.51</ele>
        <time>2020-07-10T11:50:02Z</time>
      </trkpt>
      <trkpt lat="47.82566" lon="-3.43023">
        <ele>40.45</ele>
        <time>2020-07-10T11:50:03Z</time>
      </trkpt>
      <trkpt lat="47.82566" lon="-3.43027">
        <ele>40.42</ele>
        <time>2020-07-10T11:50:04Z</time>
      </trkpt>
      <trkpt lat="47.82567" lon="-3.43031">
        <ele>40.41</ele>
        <time>2020-07-10T11:50:05Z</time>
      </trkpt>
      <trkpt lat="47.82567" lon="-3.43035">
        <ele>40.4</ele>
        <time>2020-07-10T11:50:06Z</time>
      </trkpt>
      <trkpt lat="47.82566" lon="-3.4304">
        <ele>40.37</ele>
        <time>2020-07-10T11:50:07Z</time>
      </trkpt>
      <trkpt lat="47.82565" lon="-3.43045">
        <ele>40.35</ele>
        <time>2020-07-10T11:50:08Z</time>
      </trkpt>
      <trkpt lat="47.82565" lon="-3.4305">
        <ele>40.33</ele>
        <time>2020-07-10T11:50:09Z</time>
      </trkpt>
      <trkpt lat="47.82564" lon="-3.43056">
        <ele>40.32</ele>
        <time>2020-07-10T11:50:10Z</time>
      </trkpt>
      <trkpt lat="47.82564" lon="-3.43061">
        <ele>40.3</ele>
        <time>2020-07-10T11:50:11Z</time>
      </trkpt>
      <trkpt lat="47.82562" lon="-3.43066">
        <ele>40.26</ele>
        <time>2020-07-10T11:50:12Z</time>
      </trkpt>
      <trkpt lat="47.82562" lon="-3.43071">
        <ele>40.24</ele>
        <time>2020-07-10T11:50:13Z</time>
      </trkpt>
      <trkpt lat="47.82561" lon="-3.43076">
        <ele>40.22</ele>
        <time>2020-07-10T11:50:14Z</time>
      </trkpt>
      <trkpt lat="47.82561" lon="-3.43081">
        <ele>40.21</ele>
        <time>2020-07-10T11:50:15Z</time>
      </trkpt>
      <trkpt lat="47.82562" lon="-3.43087">
        <ele>40.28</ele>
        <time>2020-07-10T11:50:16Z</time>
      </trkpt>
      <trkpt lat="47.82561" lon="-3.43092">
        <ele>40.4</ele>
        <time>2020-07-10T11:50:17Z</time>
      </trkpt>
      <trkpt lat="47.8256" lon="-3.43098">
        <ele>40.53</ele>
        <time>2020-07-10T11:50:18Z</time>
      </trkpt>
      <trkpt lat="47.82559" lon="-3.43103">
        <ele>40.67</ele>
        <time>2020-07-10T11:50:19Z</time>
      </trkpt>
      <trkpt lat="47.82558" lon="-3.43107">
        <ele>40.81</ele>
        <time>2020-07-10T11:50:20Z</time>
      </trkpt>
      <trkpt lat="47.82559" lon="-3.43113">
        <ele>40.94</ele>
        <time>2020-07-10T11:50:21Z</time>
      </trkpt>
      <trkpt lat="47.82559" lon="-3.43118">
        <ele>40.96</ele>
        <time>2020-07-10T11:50:22Z</time>
      </trkpt>
      <trkpt lat="47.82559" lon="-3.43124">
        <ele>40.94</ele>
        <time>2020-07-10T11:50:23Z</time>
      </trkpt>
      <trkpt lat="47.82559" lon="-3.43129">
        <ele>40.92</ele>
        <time>2020-07-10T11:50:24Z</time>
      </trkpt>
      <trkpt lat="47.82559" lon="-3.43135">
        <ele>40.89</ele>
        <time>2020-07-10T11:50:25Z</time>
      </trkpt>
      <trkpt lat="47.82559" lon="-3.43141">
        <ele>40.82</ele>
        <time>2020-07-10T11:50:26Z</time>
      </trkpt>
      <trkpt lat="47.82559" lon="-3.43146">
        <ele>40.7</ele>
        <time>2020-07-10T11:50:27Z</time>
      </trkpt>
      <trkpt lat="47.82559" lon="-3.43151">
        <ele>40.56</ele>
        <time>2020-07-10T11:50:28Z</time>
      </trkpt>
      <trkpt lat="47.82557" lon="-3.43155">
        <ele>40.45</ele>
        <time>2020-07-10T11:50:29Z</time>
      </trkpt>
      <trkpt lat="47.82555" lon="-3.43159">
        <ele>40.32</ele>
        <time>2020-07-10T11:50:30Z</time>
      </trkpt>
      <trkpt lat="47.82554" lon="-3.43165">
        <ele>40.01</ele>
        <time>2020-07-10T11:50:31Z</time>
      </trkpt>
      <trkpt lat="47.82554" lon="-3.4317">
        <ele>39.73</ele>
        <time>2020-07-10T11:50:32Z</time>
      </trkpt>
      <trkpt lat="47.82554" lon="-3.43176">
        <ele>39.53</ele>
        <time>2020-07-10T11:50:33Z</time>
      </trkpt>
      <trkpt lat="47.82555" lon="-3.43181">
        <ele>39.42</ele>
        <time>2020-07-10T11:50:34Z</time>
      </trkpt>
      <trkpt lat="47.82556" lon="-3.43186">
        <ele>39.33</ele>
        <time>2020-07-10T11:50:35Z</time>
      </trkpt>
      <trkpt lat="47.82558" lon="-3.4319">
        <ele>39.22</ele>
        <time>2020-07-10T11:50:36Z</time>
      </trkpt>
      <trkpt lat="47.82561" lon="-3.43193">
        <ele>39.11</ele>
        <time>2020-07-10T11:50:37Z</time>
      </trkpt>
      <trkpt lat="47.82565" lon="-3.43195">
        <ele>39.03</ele>
        <time>2020-07-10T11:50:38Z</time>
      </trkpt>
      <trkpt lat="47.82568" lon="-3.43195">
        <ele>39</ele>
        <time>2020-07-10T11:50:39Z</time>
      </trkpt>
      <trkpt lat="47.82572" lon="-3.43197">
        <ele>38.98</ele>
        <time>2020-07-10T11:50:40Z</time>
      </trkpt>
      <trkpt lat="47.82574" lon="-3.43196">
        <ele>38.98</ele>
        <time>2020-07-10T11:50:41Z</time>
      </trkpt>
      <trkpt lat="47.82578" lon="-3.43196">
        <ele>38.98</ele>
        <time>2020-07-10T11:50:42Z</time>
      </trkpt>
      <trkpt lat="47.82581" lon="-3.43196">
        <ele>38.99</ele>
        <time>2020-07-10T11:50:43Z</time>
      </trkpt>
      <trkpt lat="47.82585" lon="-3.43197">
        <ele>39.04</ele>
        <time>2020-07-10T11:50:44Z</time>
      </trkpt>
      <trkpt lat="47.82589" lon="-3.43199">
        <ele>39.15</ele>
        <time>2020-07-10T11:50:45Z</time>
      </trkpt>
      <trkpt lat="47.82592" lon="-3.43201">
        <ele>39.28</ele>
        <time>2020-07-10T11:50:46Z</time>
      </trkpt>
      <trkpt lat="47.82597" lon="-3.43202">
        <ele>39.42</ele>
        <time>2020-07-10T11:50:47Z</time>
      </trkpt>
      <trkpt lat="47.82601" lon="-3.43204">
        <ele>39.56</ele>
        <time>2020-07-10T11:50:48Z</time>
      </trkpt>
      <trkpt lat="47.82604" lon="-3.43205">
        <ele>39.7</ele>
        <time>2020-07-10T11:50:49Z</time>
      </trkpt>
      <trkpt lat="47.82607" lon="-3.43207">
        <ele>39.82</ele>
        <time>2020-07-10T11:50:50Z</time>
      </trkpt>
      <trkpt lat="47.82612" lon="-3.43211">
        <ele>39.96</ele>
        <time>2020-07-10T11:50:51Z</time>
      </trkpt>
      <trkpt lat="47.82616" lon="-3.43214">
        <ele>40.1</ele>
        <time>2020-07-10T11:50:52Z</time>
      </trkpt>
      <trkpt lat="47.8262" lon="-3.43216">
        <ele>40.24</ele>
        <time>2020-07-10T11:50:53Z</time>
      </trkpt>
      <trkpt lat="47.82624" lon="-3.43218">
        <ele>40.38</ele>
        <time>2020-07-10T11:50:54Z</time>
      </trkpt>
      <trkpt lat="47.82627" lon="-3.4322">
        <ele>40.52</ele>
        <time>2020-07-10T11:50:55Z</time>
      </trkpt>
      <trkpt lat="47.82631" lon="-3.43221">
        <ele>40.67</ele>
        <time>2020-07-10T11:50:56Z</time>
      </trkpt>
      <trkpt lat="47.82636" lon="-3.43222">
        <ele>40.82</ele>
        <time>2020-07-10T11:50:57Z</time>
      </trkpt>
      <trkpt lat="47.82639" lon="-3.4322">
        <ele>40.95</ele>
        <time>2020-07-10T11:50:58Z</time>
      </trkpt>
      <trkpt lat="47.82641" lon="-3.43218">
        <ele>40.99</ele>
        <time>2020-07-10T11:50:59Z</time>
      </trkpt>
      <trkpt lat="47.82642" lon="-3.43214">
        <ele>41.02</ele>
        <time>2020-07-10T11:51:00Z</time>
      </trkpt>
      <trkpt lat="47.82644" lon="-3.43211">
        <ele>41.06</ele>
        <time>2020-07-10T11:51:01Z</time>
      </trkpt>
      <trkpt lat="47.82646" lon="-3.43207">
        <ele>41.12</ele>
        <time>2020-07-10T11:51:02Z</time>
      </trkpt>
      <trkpt lat="47.82648" lon="-3.43202">
        <ele>41.19</ele>
        <time>2020-07-10T11:51:03Z</time>
      </trkpt>
      <trkpt lat="47.82649" lon="-3.43197">
        <ele>41.28</ele>
        <time>2020-07-10T11:51:04Z</time>
      </trkpt>
      <trkpt lat="47.8265" lon="-3.43192">
        <ele>41.43</ele>
        <time>2020-07-10T11:51:05Z</time>
      </trkpt>
      <trkpt lat="47.82652" lon="-3.43188">
        <ele>41.63</ele>
        <time>2020-07-10T11:51:06Z</time>
      </trkpt>
      <trkpt lat="47.82653" lon="-3.43183">
        <ele>41.82</ele>
        <time>2020-07-10T11:51:07Z</time>
      </trkpt>
      <trkpt lat="47.82653" lon="-3.43177">
        <ele>42.06</ele>
        <time>2020-07-10T11:51:08Z</time>
      </trkpt>
      <trkpt lat="47.82655" lon="-3.43169">
        <ele>42.36</ele>
        <time>2020-07-10T11:51:09Z</time>
      </trkpt>
      <trkpt lat="47.82656" lon="-3.43164">
        <ele>42.58</ele>
        <time>2020-07-10T11:51:10Z</time>
      </trkpt>
      <trkpt lat="47.82657" lon="-3.43158">
        <ele>42.78</ele>
        <time>2020-07-10T11:51:11Z</time>
      </trkpt>
      <trkpt lat="47.82659" lon="-3.43152">
        <ele>43.01</ele>
        <time>2020-07-10T11:51:12Z</time>
      </trkpt>
      <trkpt lat="47.8266" lon="-3.43148">
        <ele>43.22</ele>
        <time>2020-07-10T11:51:13Z</time>
      </trkpt>
      <trkpt lat="47.82663" lon="-3.43144">
        <ele>43.46</ele>
        <time>2020-07-10T11:51:14Z</time>
      </trkpt>
      <trkpt lat="47.82666" lon="-3.43143">
        <ele>43.74</ele>
        <time>2020-07-10T11:51:15Z</time>
      </trkpt>
      <trkpt lat="47.82669" lon="-3.43141">
        <ele>43.94</ele>
        <time>2020-07-10T11:51:16Z</time>
      </trkpt>
      <trkpt lat="47.82673" lon="-3.43141">
        <ele>44.09</ele>
        <time>2020-07-10T11:51:17Z</time>
      </trkpt>
      <trkpt lat="47.82675" lon="-3.4314">
        <ele>44.22</ele>
        <time>2020-07-10T11:51:18Z</time>
      </trkpt>
      <trkpt lat="47.82678" lon="-3.4314">
        <ele>44.34</ele>
        <time>2020-07-10T11:51:19Z</time>
      </trkpt>
      <trkpt lat="47.8268" lon="-3.43139">
        <ele>44.44</ele>
        <time>2020-07-10T11:51:20Z</time>
      </trkpt>
      <trkpt lat="47.82683" lon="-3.43138">
        <ele>44.57</ele>
        <time>2020-07-10T11:51:21Z</time>
      </trkpt>
      <trkpt lat="47.82686" lon="-3.43138">
        <ele>44.7</ele>
        <time>2020-07-10T11:51:22Z</time>
      </trkpt>
      <trkpt lat="47.82689" lon="-3.43138">
        <ele>44.79</ele>
        <time>2020-07-10T11:51:23Z</time>
      </trkpt>
      <trkpt lat="47.82691" lon="-3.4314">
        <ele>44.83</ele>
        <time>2020-07-10T11:51:24Z</time>
      </trkpt>
      <trkpt lat="47.82694" lon="-3.43142">
        <ele>44.86</ele>
        <time>2020-07-10T11:51:25Z</time>
      </trkpt>
      <trkpt lat="47.82696" lon="-3.43143">
        <ele>44.88</ele>
        <time>2020-07-10T11:51:26Z</time>
      </trkpt>
      <trkpt lat="47.82699" lon="-3.43144">
        <ele>44.95</ele>
        <time>2020-07-10T11:51:27Z</time>
      </trkpt>
      <trkpt lat="47.82702" lon="-3.43144">
        <ele>45.04</ele>
        <time>2020-07-10T11:51:28Z</time>
      </trkpt>
      <trkpt lat="47.82705" lon="-3.43145">
        <ele>45.11</ele>
        <time>2020-07-10T11:51:29Z</time>
      </trkpt>
      <trkpt lat="47.82708" lon="-3.43146">
        <ele>45.21</ele>
        <time>2020-07-10T11:51:30Z</time>
      </trkpt>
      <trkpt lat="47.82711" lon="-3.43146">
        <ele>45.31</ele>
        <time>2020-07-10T11:51:31Z</time>
      </trkpt>
      <trkpt lat="47.82714" lon="-3.43146">
        <ele>45.4</ele>
        <time>2020-07-10T11:51:32Z</time>
      </trkpt>
      <trkpt lat="47.82716" lon="-3.43146">
        <ele>45.48</ele>
        <time>2020-07-10T11:51:33Z</time>
      </trkpt>
      <trkpt lat="47.82719" lon="-3.43147">
        <ele>45.55</ele>
        <time>2020-07-10T11:51:34Z</time>
      </trkpt>
      <trkpt lat="47.82721" lon="-3.43147">
        <ele>45.64</ele>
        <time>2020-07-10T11:51:35Z</time>
      </trkpt>
      <trkpt lat="47.82725" lon="-3.43146">
        <ele>45.7</ele>
        <time>2020-07-10T11:51:36Z</time>
      </trkpt>
      <trkpt lat="47.82729" lon="-3.43145">
        <ele>45.75</ele>
        <time>2020-07-10T11:51:37Z</time>
      </trkpt>
      <trkpt lat="47.82734" lon="-3.43143">
        <ele>45.82</ele>
        <time>2020-07-10T11:51:38Z</time>
      </trkpt>
      <trkpt lat="47.82739" lon="-3.43141">
        <ele>45.9</ele>
        <time>2020-07-10T11:51:39Z</time>
      </trkpt>
      <trkpt lat="47.82743" lon="-3.43139">
        <ele>45.98</ele>
        <time>2020-07-10T11:51:40Z</time>
      </trkpt>
      <trkpt lat="47.82746" lon="-3.43136">
        <ele>46.07</ele>
        <time>2020-07-10T11:51:41Z</time>
      </trkpt>
      <trkpt lat="47.82748" lon="-3.43131">
        <ele>46.21</ele>
        <time>2020-07-10T11:51:42Z</time>
      </trkpt>
      <trkpt lat="47.8275" lon="-3.43127">
        <ele>46.35</ele>
        <time>2020-07-10T11:51:43Z</time>
      </trkpt>
      <trkpt lat="47.82752" lon="-3.43123">
        <ele>46.45</ele>
        <time>2020-07-10T11:51:44Z</time>
      </trkpt>
      <trkpt lat="47.82755" lon="-3.4312">
        <ele>46.51</ele>
        <time>2020-07-10T11:51:45Z</time>
      </trkpt>
      <trkpt lat="47.82758" lon="-3.43115">
        <ele>46.56</ele>
        <time>2020-07-10T11:51:46Z</time>
      </trkpt>
      <trkpt lat="47.82761" lon="-3.4311">
        <ele>46.64</ele>
        <time>2020-07-10T11:51:47Z</time>
      </trkpt>
      <trkpt lat="47.82763" lon="-3.43107">
        <ele>46.79</ele>
        <time>2020-07-10T11:51:48Z</time>
      </trkpt>
      <trkpt lat="47.82766" lon="-3.43102">
        <ele>46.97</ele>
        <time>2020-07-10T11:51:49Z</time>
      </trkpt>
      <trkpt lat="47.82769" lon="-3.43099">
        <ele>47.1</ele>
        <time>2020-07-10T11:51:50Z</time>
      </trkpt>
      <trkpt lat="47.82772" lon="-3.43099">
        <ele>47.09</ele>
        <time>2020-07-10T11:51:51Z</time>
      </trkpt>
      <trkpt lat="47.82776" lon="-3.43098">
        <ele>47.01</ele>
        <time>2020-07-10T11:51:52Z</time>
      </trkpt>
      <trkpt lat="47.82778" lon="-3.43098">
        <ele>46.98</ele>
        <time>2020-07-10T11:51:53Z</time>
      </trkpt>
      <trkpt lat="47.8278" lon="-3.43095">
        <ele>47.08</ele>
        <time>2020-07-10T11:51:54Z</time>
      </trkpt>
      <trkpt lat="47.82781" lon="-3.43091">
        <ele>47.27</ele>
        <time>2020-07-10T11:51:55Z</time>
      </trkpt>
      <trkpt lat="47.82782" lon="-3.43087">
        <ele>47.51</ele>
        <time>2020-07-10T11:51:56Z</time>
      </trkpt>
      <trkpt lat="47.82784" lon="-3.4308">
        <ele>47.9</ele>
        <time>2020-07-10T11:51:57Z</time>
      </trkpt>
      <trkpt lat="47.82785" lon="-3.43075">
        <ele>48.24</ele>
        <time>2020-07-10T11:51:58Z</time>
      </trkpt>
      <trkpt lat="47.82786" lon="-3.4307">
        <ele>48.53</ele>
        <time>2020-07-10T11:51:59Z</time>
      </trkpt>
      <trkpt lat="47.82787" lon="-3.43067">
        <ele>48.73</ele>
        <time>2020-07-10T11:52:00Z</time>
      </trkpt>
      <trkpt lat="47.8279" lon="-3.43065">
        <ele>48.86</ele>
        <time>2020-07-10T11:52:01Z</time>
      </trkpt>
      <trkpt lat="47.82792" lon="-3.43061">
        <ele>49.01</ele>
        <time>2020-07-10T11:52:02Z</time>
      </trkpt>
      <trkpt lat="47.82795" lon="-3.43058">
        <ele>49.16</ele>
        <time>2020-07-10T11:52:03Z</time>
      </trkpt>
      <trkpt lat="47.82798" lon="-3.43053">
        <ele>49.3</ele>
        <time>2020-07-10T11:52:04Z</time>
      </trkpt>
      <trkpt lat="47.828" lon="-3.43049">
        <ele>49.39</ele>
        <time>2020-07-10T11:52:05Z</time>
      </trkpt>
      <trkpt lat="47.82802" lon="-3.43046">
        <ele>49.44</ele>
        <time>2020-07-10T11:52:06Z</time>
      </trkpt>
      <trkpt lat="47.82805" lon="-3.43041">
        <ele>49.51</ele>
        <time>2020-07-10T11:52:07Z</time>
      </trkpt>
      <trkpt lat="47.82808" lon="-3.43038">
        <ele>49.53</ele>
        <time>2020-07-10T11:52:08Z</time>
      </trkpt>
      <trkpt lat="47.8281" lon="-3.43034">
        <ele>49.56</ele>
        <time>2020-07-10T11:52:09Z</time>
      </trkpt>
      <trkpt lat="47.82814" lon="-3.43031">
        <ele>49.55</ele>
        <time>2020-07-10T11:52:10Z</time>
      </trkpt>
      <trkpt lat="47.82817" lon="-3.43027">
        <ele>49.61</ele>
        <time>2020-07-10T11:52:11Z</time>
      </trkpt>
      <trkpt lat="47.82821" lon="-3.43024">
        <ele>49.63</ele>
        <time>2020-07-10T11:52:12Z</time>
      </trkpt>
      <trkpt lat="47.82825" lon="-3.43019">
        <ele>49.67</ele>
        <time>2020-07-10T11:52:13Z</time>
      </trkpt>
      <trkpt lat="47.82829" lon="-3.43015">
        <ele>49.69</ele>
        <time>2020-07-10T11:52:14Z</time>
      </trkpt>
      <trkpt lat="47.82832" lon="-3.4301">
        <ele>49.7</ele>
        <time>2020-07-10T11:52:15Z</time>
      </trkpt>
      <trkpt lat="47.82835" lon="-3.43005">
        <ele>49.64</ele>
        <time>2020-07-10T11:52:16Z</time>
      </trkpt>
      <trkpt lat="47.82838" lon="-3.43001">
        <ele>49.53</ele>
        <time>2020-07-10T11:52:17Z</time>
      </trkpt>
      <trkpt lat="47.82841" lon="-3.42997">
        <ele>49.34</ele>
        <time>2020-07-10T11:52:18Z</time>
      </trkpt>
      <trkpt lat="47.82845" lon="-3.42995">
        <ele>49.12</ele>
        <time>2020-07-10T11:52:19Z</time>
      </trkpt>
      <trkpt lat="47.82849" lon="-3.4299">
        <ele>48.95</ele>
        <time>2020-07-10T11:52:20Z</time>
      </trkpt>
      <trkpt lat="47.82851" lon="-3.42985">
        <ele>48.94</ele>
        <time>2020-07-10T11:52:21Z</time>
      </trkpt>
      <trkpt lat="47.82853" lon="-3.4298">
        <ele>49.02</ele>
        <time>2020-07-10T11:52:22Z</time>
      </trkpt>
      <trkpt lat="47.82855" lon="-3.42974">
        <ele>49.26</ele>
        <time>2020-07-10T11:52:23Z</time>
      </trkpt>
      <trkpt lat="47.82855" lon="-3.42967">
        <ele>49.49</ele>
        <time>2020-07-10T11:52:24Z</time>
      </trkpt>
      <trkpt lat="47.82856" lon="-3.42961">
        <ele>49.7</ele>
        <time>2020-07-10T11:52:25Z</time>
      </trkpt>
      <trkpt lat="47.82856" lon="-3.42956">
        <ele>49.87</ele>
        <time>2020-07-10T11:52:26Z</time>
      </trkpt>
      <trkpt lat="47.82858" lon="-3.4295">
        <ele>49.98</ele>
        <time>2020-07-10T11:52:27Z</time>
      </trkpt>
      <trkpt lat="47.82861" lon="-3.42943">
        <ele>50.06</ele>
        <time>2020-07-10T11:52:28Z</time>
      </trkpt>
      <trkpt lat="47.82863" lon="-3.42935">
        <ele>50.04</ele>
        <time>2020-07-10T11:52:29Z</time>
      </trkpt>
      <trkpt lat="47.82864" lon="-3.42927">
        <ele>50.04</ele>
        <time>2020-07-10T11:52:30Z</time>
      </trkpt>
      <trkpt lat="47.82866" lon="-3.42919">
        <ele>50.06</ele>
        <time>2020-07-10T11:52:31Z</time>
      </trkpt>
      <trkpt lat="47.82867" lon="-3.42912">
        <ele>50.05</ele>
        <time>2020-07-10T11:52:32Z</time>
      </trkpt>
      <trkpt lat="47.82868" lon="-3.42905">
        <ele>50.02</ele>
        <time>2020-07-10T11:52:33Z</time>
      </trkpt>
      <trkpt lat="47.82869" lon="-3.42898">
        <ele>50.02</ele>
        <time>2020-07-10T11:52:34Z</time>
      </trkpt>
      <trkpt lat="47.8287" lon="-3.42892">
        <ele>50.03</ele>
        <time>2020-07-10T11:52:35Z</time>
      </trkpt>
      <trkpt lat="47.82872" lon="-3.42886">
        <ele>49.96</ele>
        <time>2020-07-10T11:52:36Z</time>
      </trkpt>
      <trkpt lat="47.82874" lon="-3.4288">
        <ele>49.92</ele>
        <time>2020-07-10T11:52:37Z</time>
      </trkpt>
      <trkpt lat="47.82875" lon="-3.42874">
        <ele>49.99</ele>
        <time>2020-07-10T11:52:38Z</time>
      </trkpt>
      <trkpt lat="47.82876" lon="-3.42869">
        <ele>50.09</ele>
        <time>2020-07-10T11:52:39Z</time>
      </trkpt>
      <trkpt lat="47.82877" lon="-3.42865">
        <ele>50.2</ele>
        <time>2020-07-10T11:52:40Z</time>
      </trkpt>
      <trkpt lat="47.82878" lon="-3.42862">
        <ele>50.29</ele>
        <time>2020-07-10T11:52:41Z</time>
      </trkpt>
      <trkpt lat="47.82879" lon="-3.4286">
        <ele>50.36</ele>
        <time>2020-07-10T11:52:42Z</time>
      </trkpt>
      <trkpt lat="47.82882" lon="-3.42858">
        <ele>50.38</ele>
        <time>2020-07-10T11:52:43Z</time>
      </trkpt>
      <trkpt lat="47.82884" lon="-3.42857">
        <ele>50.34</ele>
        <time>2020-07-10T11:52:44Z</time>
      </trkpt>
      <trkpt lat="47.82887" lon="-3.42857">
        <ele>50.24</ele>
        <time>2020-07-10T11:52:45Z</time>
      </trkpt>
      <trkpt lat="47.82891" lon="-3.42858">
        <ele>50.04</ele>
        <time>2020-07-10T11:52:46Z</time>
      </trkpt>
      <trkpt lat="47.82894" lon="-3.4286">
        <ele>49.77</ele>
        <time>2020-07-10T11:52:47Z</time>
      </trkpt>
      <trkpt lat="47.82898" lon="-3.42863">
        <ele>49.33</ele>
        <time>2020-07-10T11:52:48Z</time>
      </trkpt>
      <trkpt lat="47.82903" lon="-3.42867">
        <ele>48.69</ele>
        <time>2020-07-10T11:52:49Z</time>
      </trkpt>
      <trkpt lat="47.82908" lon="-3.42871">
        <ele>47.96</ele>
        <time>2020-07-10T11:52:50Z</time>
      </trkpt>
      <trkpt lat="47.82912" lon="-3.42876">
        <ele>47.16</ele>
        <time>2020-07-10T11:52:51Z</time>
      </trkpt>
      <trkpt lat="47.82916" lon="-3.4288">
        <ele>46.37</ele>
        <time>2020-07-10T11:52:52Z</time>
      </trkpt>
      <trkpt lat="47.82917" lon="-3.42885">
        <ele>45.73</ele>
        <time>2020-07-10T11:52:53Z</time>
      </trkpt>
      <trkpt lat="47.82919" lon="-3.42887">
        <ele>45.34</ele>
        <time>2020-07-10T11:52:54Z</time>
      </trkpt>
      <trkpt lat="47.8292" lon="-3.4289">
        <ele>45.05</ele>
        <time>2020-07-10T11:52:55Z</time>
      </trkpt>
      <trkpt lat="47.82923" lon="-3.42892">
        <ele>44.79</ele>
        <time>2020-07-10T11:52:56Z</time>
      </trkpt>
      <trkpt lat="47.82926" lon="-3.42895">
        <ele>44.48</ele>
        <time>2020-07-10T11:52:57Z</time>
      </trkpt>
      <trkpt lat="47.82929" lon="-3.42899">
        <ele>44.05</ele>
        <time>2020-07-10T11:52:58Z</time>
      </trkpt>
      <trkpt lat="47.82933" lon="-3.42904">
        <ele>43.56</ele>
        <time>2020-07-10T11:52:59Z</time>
      </trkpt>
      <trkpt lat="47.82937" lon="-3.42909">
        <ele>43.07</ele>
        <time>2020-07-10T11:53:00Z</time>
      </trkpt>
      <trkpt lat="47.82941" lon="-3.42913">
        <ele>42.59</ele>
        <time>2020-07-10T11:53:01Z</time>
      </trkpt>
      <trkpt lat="47.82944" lon="-3.42917">
        <ele>42.09</ele>
        <time>2020-07-10T11:53:02Z</time>
      </trkpt>
      <trkpt lat="47.82946" lon="-3.4292">
        <ele>41.74</ele>
        <time>2020-07-10T11:53:03Z</time>
      </trkpt>
      <trkpt lat="47.82947" lon="-3.42922">
        <ele>41.55</ele>
        <time>2020-07-10T11:53:04Z</time>
      </trkpt>
      <trkpt lat="47.82948" lon="-3.42922">
        <ele>41.56</ele>
        <time>2020-07-10T11:53:05Z</time>
      </trkpt>
      <trkpt lat="47.82949" lon="-3.42922">
        <ele>41.54</ele>
        <time>2020-07-10T11:53:06Z</time>
      </trkpt>
      <trkpt lat="47.82949" lon="-3.42922">
        <ele>41.61</ele>
        <time>2020-07-10T11:53:07Z</time>
      </trkpt>
      <trkpt lat="47.82949" lon="-3.42921">
        <ele>41.67</ele>
        <time>2020-07-10T11:53:08Z</time>
      </trkpt>
      <trkpt lat="47.82949" lon="-3.42921">
        <ele>41.68</ele>
        <time>2020-07-10T11:53:09Z</time>
      </trkpt>
      <trkpt lat="47.82949" lon="-3.42921">
        <ele>41.69</ele>
        <time>2020-07-10T11:53:10Z</time>
      </trkpt>
      <trkpt lat="47.82949" lon="-3.42921">
        <ele>41.69</ele>
        <time>2020-07-10T11:53:11Z</time>
      </trkpt>
      <trkpt lat="47.82949" lon="-3.42921">
        <ele>41.69</ele>
        <time>2020-07-10T11:53:12Z</time>
      </trkpt>
      <trkpt lat="47.82949" lon="-3.42921">
        <ele>41.69</ele>
        <time>2020-07-10T11:53:13Z</time>
      </trkpt>
      <trkpt lat="47.82949" lon="-3.42921">
        <ele>41.69</ele>
        <time>2020-07-10T11:53:14Z</time>
      </trkpt>
      <trkpt lat="47.82949" lon="-3.42921">
        <ele>41.69</ele>
        <time>2020-07-10T11:53:15Z</time>
      </trkpt>
      <trkpt lat="47.82949" lon="-3.42921">
        <ele>41.69</ele>
        <time>2020-07-10T11:53:16Z</time>
      </trkpt>
      <trkpt lat="47.82949" lon="-3.42921">
        <ele>41.69</ele>
        <time>2020-07-10T11:53:17Z</time>
      </trkpt>
      <trkpt lat="47.82948" lon="-3.42916">
        <ele>42.16</ele>
        <time>2020-07-10T11:53:18Z</time>
      </trkpt>
      <trkpt lat="47.82947" lon="-3.42914">
        <ele>42.38</ele>
        <time>2020-07-10T11:53:19Z</time>
      </trkpt>
      <trkpt lat="47.82946" lon="-3.42912">
        <ele>42.54</ele>
        <time>2020-07-10T11:53:20Z</time>
      </trkpt>
      <trkpt lat="47.82945" lon="-3.4291">
        <ele>42.66</ele>
        <time>2020-07-10T11:53:21Z</time>
      </trkpt>
      <trkpt lat="47.82943" lon="-3.42908">
        <ele>42.84</ele>
        <time>2020-07-10T11:53:22Z</time>
      </trkpt>
      <trkpt lat="47.82942" lon="-3.42906">
        <ele>43.05</ele>
        <time>2020-07-10T11:53:23Z</time>
      </trkpt>
      <trkpt lat="47.8294" lon="-3.42903">
        <ele>43.35</ele>
        <time>2020-07-10T11:53:24Z</time>
      </trkpt>
      <trkpt lat="47.82938" lon="-3.429">
        <ele>43.64</ele>
        <time>2020-07-10T11:53:25Z</time>
      </trkpt>
      <trkpt lat="47.82936" lon="-3.42898">
        <ele>43.93</ele>
        <time>2020-07-10T11:53:26Z</time>
      </trkpt>
      <trkpt lat="47.82934" lon="-3.42896">
        <ele>44.17</ele>
        <time>2020-07-10T11:53:27Z</time>
      </trkpt>
      <trkpt lat="47.82933" lon="-3.42893">
        <ele>44.43</ele>
        <time>2020-07-10T11:53:28Z</time>
      </trkpt>
      <trkpt lat="47.82931" lon="-3.4289">
        <ele>44.73</ele>
        <time>2020-07-10T11:53:29Z</time>
      </trkpt>
      <trkpt lat="47.82928" lon="-3.42887">
        <ele>45.04</ele>
        <time>2020-07-10T11:53:30Z</time>
      </trkpt>
      <trkpt lat="47.82926" lon="-3.42885">
        <ele>45.31</ele>
        <time>2020-07-10T11:53:31Z</time>
      </trkpt>
      <trkpt lat="47.82925" lon="-3.42882">
        <ele>45.59</ele>
        <time>2020-07-10T11:53:32Z</time>
      </trkpt>
      <trkpt lat="47.82923" lon="-3.4288">
        <ele>45.87</ele>
        <time>2020-07-10T11:53:33Z</time>
      </trkpt>
      <trkpt lat="47.82923" lon="-3.42879">
        <ele>46</ele>
        <time>2020-07-10T11:53:34Z</time>
      </trkpt>
      <trkpt lat="47.82924" lon="-3.42879">
        <ele>46.03</ele>
        <time>2020-07-10T11:53:35Z</time>
      </trkpt>
      <trkpt lat="47.82926" lon="-3.4288">
        <ele>45.98</ele>
        <time>2020-07-10T11:53:36Z</time>
      </trkpt>
      <trkpt lat="47.82927" lon="-3.42881">
        <ele>45.88</ele>
        <time>2020-07-10T11:53:37Z</time>
      </trkpt>
      <trkpt lat="47.82928" lon="-3.42882">
        <ele>45.8</ele>
        <time>2020-07-10T11:53:38Z</time>
      </trkpt>
      <trkpt lat="47.8293" lon="-3.42883">
        <ele>45.72</ele>
        <time>2020-07-10T11:53:39Z</time>
      </trkpt>
      <trkpt lat="47.82931" lon="-3.42884">
        <ele>45.62</ele>
        <time>2020-07-10T11:53:40Z</time>
      </trkpt>
      <trkpt lat="47.82932" lon="-3.42884">
        <ele>45.53</ele>
        <time>2020-07-10T11:53:41Z</time>
      </trkpt>
      <trkpt lat="47.82934" lon="-3.42885">
        <ele>45.44</ele>
        <time>2020-07-10T11:53:42Z</time>
      </trkpt>
      <trkpt lat="47.82936" lon="-3.42887">
        <ele>45.31</ele>
        <time>2020-07-10T11:53:43Z</time>
      </trkpt>
      <trkpt lat="47.82939" lon="-3.42887">
        <ele>45.22</ele>
        <time>2020-07-10T11:53:44Z</time>
      </trkpt>
      <trkpt lat="47.82941" lon="-3.42888">
        <ele>45.13</ele>
        <time>2020-07-10T11:53:45Z</time>
      </trkpt>
      <trkpt lat="47.82943" lon="-3.42889">
        <ele>45.03</ele>
        <time>2020-07-10T11:53:46Z</time>
      </trkpt>
      <trkpt lat="47.82946" lon="-3.4289">
        <ele>44.99</ele>
        <time>2020-07-10T11:53:47Z</time>
      </trkpt>
      <trkpt lat="47.82947" lon="-3.4289">
        <ele>44.99</ele>
        <time>2020-07-10T11:53:48Z</time>
      </trkpt>
      <trkpt lat="47.82949" lon="-3.4289">
        <ele>45.04</ele>
        <time>2020-07-10T11:53:49Z</time>
      </trkpt>
      <trkpt lat="47.82952" lon="-3.4289">
        <ele>45.12</ele>
        <time>2020-07-10T11:53:50Z</time>
      </trkpt>
      <trkpt lat="47.82955" lon="-3.4289">
        <ele>45.25</ele>
        <time>2020-07-10T11:53:51Z</time>
      </trkpt>
      <trkpt lat="47.82958" lon="-3.4289">
        <ele>45.35</ele>
        <time>2020-07-10T11:53:52Z</time>
      </trkpt>
      <trkpt lat="47.82961" lon="-3.4289">
        <ele>45.46</ele>
        <time>2020-07-10T11:53:53Z</time>
      </trkpt>
      <trkpt lat="47.82964" lon="-3.4289">
        <ele>45.56</ele>
        <time>2020-07-10T11:53:54Z</time>
      </trkpt>
      <trkpt lat="47.82967" lon="-3.42891">
        <ele>45.64</ele>
        <time>2020-07-10T11:53:55Z</time>
      </trkpt>
      <trkpt lat="47.8297" lon="-3.42892">
        <ele>45.67</ele>
        <time>2020-07-10T11:53:56Z</time>
      </trkpt>
      <trkpt lat="47.82973" lon="-3.42893">
        <ele>45.68</ele>
        <time>2020-07-10T11:53:57Z</time>
      </trkpt>
      <trkpt lat="47.82976" lon="-3.42894">
        <ele>45.58</ele>
        <time>2020-07-10T11:53:58Z</time>
      </trkpt>
      <trkpt lat="47.8298" lon="-3.42894">
        <ele>45.46</ele>
        <time>2020-07-10T11:53:59Z</time>
      </trkpt>
      <trkpt lat="47.82983" lon="-3.42894">
        <ele>45.36</ele>
        <time>2020-07-10T11:54:00Z</time>
      </trkpt>
      <trkpt lat="47.82986" lon="-3.42893">
        <ele>45.29</ele>
        <time>2020-07-10T11:54:01Z</time>
      </trkpt>
      <trkpt lat="47.82989" lon="-3.42893">
        <ele>45.24</ele>
        <time>2020-07-10T11:54:02Z</time>
      </trkpt>
      <trkpt lat="47.82992" lon="-3.42891">
        <ele>45.21</ele>
        <time>2020-07-10T11:54:03Z</time>
      </trkpt>
      <trkpt lat="47.82994" lon="-3.4289">
        <ele>45.19</ele>
        <time>2020-07-10T11:54:04Z</time>
      </trkpt>
      <trkpt lat="47.82997" lon="-3.42888">
        <ele>45.14</ele>
        <time>2020-07-10T11:54:05Z</time>
      </trkpt>
      <trkpt lat="47.83001" lon="-3.42888">
        <ele>45.09</ele>
        <time>2020-07-10T11:54:06Z</time>
      </trkpt>
      <trkpt lat="47.83003" lon="-3.42887">
        <ele>45.04</ele>
        <time>2020-07-10T11:54:07Z</time>
      </trkpt>
      <trkpt lat="47.83006" lon="-3.42886">
        <ele>45.02</ele>
        <time>2020-07-10T11:54:08Z</time>
      </trkpt>
      <trkpt lat="47.83009" lon="-3.42884">
        <ele>44.99</ele>
        <time>2020-07-10T11:54:09Z</time>
      </trkpt>
      <trkpt lat="47.83012" lon="-3.42883">
        <ele>44.94</ele>
        <time>2020-07-10T11:54:10Z</time>
      </trkpt>
      <trkpt lat="47.83015" lon="-3.42881">
        <ele>44.89</ele>
        <time>2020-07-10T11:54:11Z</time>
      </trkpt>
      <trkpt lat="47.83018" lon="-3.42878">
        <ele>44.85</ele>
        <time>2020-07-10T11:54:12Z</time>
      </trkpt>
      <trkpt lat="47.83022" lon="-3.42877">
        <ele>44.78</ele>
        <time>2020-07-10T11:54:13Z</time>
      </trkpt>
      <trkpt lat="47.83025" lon="-3.42876">
        <ele>44.65</ele>
        <time>2020-07-10T11:54:14Z</time>
      </trkpt>
      <trkpt lat="47.83029" lon="-3.42876">
        <ele>44.5</ele>
        <time>2020-07-10T11:54:15Z</time>
      </trkpt>
      <trkpt lat="47.83032" lon="-3.42875">
        <ele>44.34</ele>
        <time>2020-07-10T11:54:16Z</time>
      </trkpt>
      <trkpt lat="47.83035" lon="-3.42873">
        <ele>44.23</ele>
        <time>2020-07-10T11:54:17Z</time>
      </trkpt>
      <trkpt lat="47.83037" lon="-3.4287">
        <ele>44.16</ele>
        <time>2020-07-10T11:54:18Z</time>
      </trkpt>
      <trkpt lat="47.83039" lon="-3.42868">
        <ele>44.07</ele>
        <time>2020-07-10T11:54:19Z</time>
      </trkpt>
      <trkpt lat="47.83043" lon="-3.42866">
        <ele>43.89</ele>
        <time>2020-07-10T11:54:20Z</time>
      </trkpt>
      <trkpt lat="47.83047" lon="-3.42864">
        <ele>43.7</ele>
        <time>2020-07-10T11:54:21Z</time>
      </trkpt>
      <trkpt lat="47.8305" lon="-3.42861">
        <ele>43.49</ele>
        <time>2020-07-10T11:54:22Z</time>
      </trkpt>
      <trkpt lat="47.83053" lon="-3.42856">
        <ele>43.27</ele>
        <time>2020-07-10T11:54:23Z</time>
      </trkpt>
      <trkpt lat="47.83056" lon="-3.4285">
        <ele>43</ele>
        <time>2020-07-10T11:54:24Z</time>
      </trkpt>
      <trkpt lat="47.83058" lon="-3.42844">
        <ele>42.71</ele>
        <time>2020-07-10T11:54:25Z</time>
      </trkpt>
      <trkpt lat="47.83059" lon="-3.42838">
        <ele>42.44</ele>
        <time>2020-07-10T11:54:26Z</time>
      </trkpt>
      <trkpt lat="47.8306" lon="-3.42831">
        <ele>42.18</ele>
        <time>2020-07-10T11:54:27Z</time>
      </trkpt>
      <trkpt lat="47.83062" lon="-3.42825">
        <ele>41.8</ele>
        <time>2020-07-10T11:54:28Z</time>
      </trkpt>
      <trkpt lat="47.83064" lon="-3.42818">
        <ele>41.36</ele>
        <time>2020-07-10T11:54:29Z</time>
      </trkpt>
      <trkpt lat="47.83065" lon="-3.4281">
        <ele>40.95</ele>
        <time>2020-07-10T11:54:30Z</time>
      </trkpt>
      <trkpt lat="47.83066" lon="-3.428">
        <ele>40.73</ele>
        <time>2020-07-10T11:54:31Z</time>
      </trkpt>
      <trkpt lat="47.83066" lon="-3.42791">
        <ele>40.72</ele>
        <time>2020-07-10T11:54:32Z</time>
      </trkpt>
      <trkpt lat="47.83066" lon="-3.42784">
        <ele>40.74</ele>
        <time>2020-07-10T11:54:33Z</time>
      </trkpt>
      <trkpt lat="47.83067" lon="-3.42776">
        <ele>40.77</ele>
        <time>2020-07-10T11:54:34Z</time>
      </trkpt>
      <trkpt lat="47.83068" lon="-3.42771">
        <ele>40.78</ele>
        <time>2020-07-10T11:54:35Z</time>
      </trkpt>
      <trkpt lat="47.83069" lon="-3.42765">
        <ele>40.77</ele>
        <time>2020-07-10T11:54:36Z</time>
      </trkpt>
      <trkpt lat="47.8307" lon="-3.4276">
        <ele>40.74</ele>
        <time>2020-07-10T11:54:37Z</time>
      </trkpt>
      <trkpt lat="47.83071" lon="-3.42756">
        <ele>40.68</ele>
        <time>2020-07-10T11:54:38Z</time>
      </trkpt>
      <trkpt lat="47.83071" lon="-3.42752">
        <ele>40.68</ele>
        <time>2020-07-10T11:54:39Z</time>
      </trkpt>
      <trkpt lat="47.83072" lon="-3.42747">
        <ele>40.76</ele>
        <time>2020-07-10T11:54:40Z</time>
      </trkpt>
      <trkpt lat="47.83072" lon="-3.42743">
        <ele>40.88</ele>
        <time>2020-07-10T11:54:41Z</time>
      </trkpt>
      <trkpt lat="47.83072" lon="-3.42739">
        <ele>41</ele>
        <time>2020-07-10T11:54:42Z</time>
      </trkpt>
      <trkpt lat="47.83072" lon="-3.42736">
        <ele>41.11</ele>
        <time>2020-07-10T11:54:43Z</time>
      </trkpt>
      <trkpt lat="47.83073" lon="-3.42732">
        <ele>41.19</ele>
        <time>2020-07-10T11:54:44Z</time>
      </trkpt>
      <trkpt lat="47.83073" lon="-3.42726">
        <ele>41.29</ele>
        <time>2020-07-10T11:54:45Z</time>
      </trkpt>
      <trkpt lat="47.83073" lon="-3.42722">
        <ele>41.41</ele>
        <time>2020-07-10T11:54:46Z</time>
      </trkpt>
      <trkpt lat="47.83073" lon="-3.42717">
        <ele>41.57</ele>
        <time>2020-07-10T11:54:47Z</time>
      </trkpt>
      <trkpt lat="47.83073" lon="-3.42712">
        <ele>41.75</ele>
        <time>2020-07-10T11:54:48Z</time>
      </trkpt>
      <trkpt lat="47.83073" lon="-3.42707">
        <ele>41.94</ele>
        <time>2020-07-10T11:54:49Z</time>
      </trkpt>
      <trkpt lat="47.83073" lon="-3.42702">
        <ele>42.1</ele>
        <time>2020-07-10T11:54:50Z</time>
      </trkpt>
      <trkpt lat="47.83073" lon="-3.42695">
        <ele>42.36</ele>
        <time>2020-07-10T11:54:51Z</time>
      </trkpt>
      <trkpt lat="47.83073" lon="-3.42689">
        <ele>42.45</ele>
        <time>2020-07-10T11:54:52Z</time>
      </trkpt>
      <trkpt lat="47.83073" lon="-3.42682">
        <ele>42.48</ele>
        <time>2020-07-10T11:54:53Z</time>
      </trkpt>
      <trkpt lat="47.83074" lon="-3.42674">
        <ele>42.38</ele>
        <time>2020-07-10T11:54:54Z</time>
      </trkpt>
      <trkpt lat="47.83075" lon="-3.42667">
        <ele>42.26</ele>
        <time>2020-07-10T11:54:55Z</time>
      </trkpt>
      <trkpt lat="47.83076" lon="-3.42659">
        <ele>41.91</ele>
        <time>2020-07-10T11:54:56Z</time>
      </trkpt>
      <trkpt lat="47.83077" lon="-3.42652">
        <ele>41.56</ele>
        <time>2020-07-10T11:54:57Z</time>
      </trkpt>
      <trkpt lat="47.83077" lon="-3.42644">
        <ele>41.25</ele>
        <time>2020-07-10T11:54:58Z</time>
      </trkpt>
      <trkpt lat="47.83077" lon="-3.42635">
        <ele>40.85</ele>
        <time>2020-07-10T11:54:59Z</time>
      </trkpt>
      <trkpt lat="47.83077" lon="-3.42627">
        <ele>40.22</ele>
        <time>2020-07-10T11:55:00Z</time>
      </trkpt>
      <trkpt lat="47.83078" lon="-3.42619">
        <ele>39.53</ele>
        <time>2020-07-10T11:55:01Z</time>
      </trkpt>
      <trkpt lat="47.83078" lon="-3.42612">
        <ele>38.9</ele>
        <time>2020-07-10T11:55:02Z</time>
      </trkpt>
      <trkpt lat="47.8308" lon="-3.42607">
        <ele>38.33</ele>
        <time>2020-07-10T11:55:03Z</time>
      </trkpt>
      <trkpt lat="47.83081" lon="-3.42602">
        <ele>37.86</ele>
        <time>2020-07-10T11:55:04Z</time>
      </trkpt>
      <trkpt lat="47.83083" lon="-3.42597">
        <ele>37.29</ele>
        <time>2020-07-10T11:55:05Z</time>
      </trkpt>
      <trkpt lat="47.83084" lon="-3.42592">
        <ele>36.75</ele>
        <time>2020-07-10T11:55:06Z</time>
      </trkpt>
      <trkpt lat="47.83087" lon="-3.42588">
        <ele>36.25</ele>
        <time>2020-07-10T11:55:07Z</time>
      </trkpt>
      <trkpt lat="47.83089" lon="-3.42582">
        <ele>35.77</ele>
        <time>2020-07-10T11:55:08Z</time>
      </trkpt>
      <trkpt lat="47.83091" lon="-3.42575">
        <ele>35.4</ele>
        <time>2020-07-10T11:55:09Z</time>
      </trkpt>
      <trkpt lat="47.83091" lon="-3.42569">
        <ele>35.16</ele>
        <time>2020-07-10T11:55:10Z</time>
      </trkpt>
      <trkpt lat="47.83091" lon="-3.42564">
        <ele>35.02</ele>
        <time>2020-07-10T11:55:11Z</time>
      </trkpt>
      <trkpt lat="47.8309" lon="-3.42559">
        <ele>34.91</ele>
        <time>2020-07-10T11:55:12Z</time>
      </trkpt>
      <trkpt lat="47.83088" lon="-3.42553">
        <ele>34.79</ele>
        <time>2020-07-10T11:55:13Z</time>
      </trkpt>
      <trkpt lat="47.83086" lon="-3.42548">
        <ele>34.67</ele>
        <time>2020-07-10T11:55:14Z</time>
      </trkpt>
      <trkpt lat="47.83085" lon="-3.42542">
        <ele>34.51</ele>
        <time>2020-07-10T11:55:15Z</time>
      </trkpt>
      <trkpt lat="47.83085" lon="-3.42536">
        <ele>34.34</ele>
        <time>2020-07-10T11:55:16Z</time>
      </trkpt>
      <trkpt lat="47.83086" lon="-3.42531">
        <ele>34.12</ele>
        <time>2020-07-10T11:55:17Z</time>
      </trkpt>
      <trkpt lat="47.83088" lon="-3.42526">
        <ele>33.93</ele>
        <time>2020-07-10T11:55:18Z</time>
      </trkpt>
      <trkpt lat="47.83091" lon="-3.42523">
        <ele>33.82</ele>
        <time>2020-07-10T11:55:19Z</time>
      </trkpt>
      <trkpt lat="47.83094" lon="-3.42519">
        <ele>33.76</ele>
        <time>2020-07-10T11:55:20Z</time>
      </trkpt>
      <trkpt lat="47.83098" lon="-3.42514">
        <ele>33.74</ele>
        <time>2020-07-10T11:55:21Z</time>
      </trkpt>
      <trkpt lat="47.83101" lon="-3.4251">
        <ele>33.76</ele>
        <time>2020-07-10T11:55:22Z</time>
      </trkpt>
      <trkpt lat="47.83104" lon="-3.42506">
        <ele>33.8</ele>
        <time>2020-07-10T11:55:23Z</time>
      </trkpt>
      <trkpt lat="47.83107" lon="-3.42503">
        <ele>33.89</ele>
        <time>2020-07-10T11:55:24Z</time>
      </trkpt>
      <trkpt lat="47.8311" lon="-3.42498">
        <ele>34.06</ele>
        <time>2020-07-10T11:55:25Z</time>
      </trkpt>
      <trkpt lat="47.83112" lon="-3.42494">
        <ele>34.34</ele>
        <time>2020-07-10T11:55:26Z</time>
      </trkpt>
      <trkpt lat="47.83113" lon="-3.4249">
        <ele>34.7</ele>
        <time>2020-07-10T11:55:27Z</time>
      </trkpt>
      <trkpt lat="47.83115" lon="-3.42486">
        <ele>35.1</ele>
        <time>2020-07-10T11:55:28Z</time>
      </trkpt>
      <trkpt lat="47.83116" lon="-3.42482">
        <ele>35.5</ele>
        <time>2020-07-10T11:55:29Z</time>
      </trkpt>
      <trkpt lat="47.83117" lon="-3.42478">
        <ele>35.89</ele>
        <time>2020-07-10T11:55:30Z</time>
      </trkpt>
      <trkpt lat="47.83118" lon="-3.42473">
        <ele>36.25</ele>
        <time>2020-07-10T11:55:31Z</time>
      </trkpt>
      <trkpt lat="47.83118" lon="-3.42469">
        <ele>36.57</ele>
        <time>2020-07-10T11:55:32Z</time>
      </trkpt>
      <trkpt lat="47.83118" lon="-3.42465">
        <ele>36.86</ele>
        <time>2020-07-10T11:55:33Z</time>
      </trkpt>
      <trkpt lat="47.83118" lon="-3.42461">
        <ele>37.14</ele>
        <time>2020-07-10T11:55:34Z</time>
      </trkpt>
      <trkpt lat="47.83118" lon="-3.42457">
        <ele>37.46</ele>
        <time>2020-07-10T11:55:35Z</time>
      </trkpt>
      <trkpt lat="47.83119" lon="-3.42453">
        <ele>37.79</ele>
        <time>2020-07-10T11:55:36Z</time>
      </trkpt>
      <trkpt lat="47.83119" lon="-3.42449">
        <ele>38.1</ele>
        <time>2020-07-10T11:55:37Z</time>
      </trkpt>
      <trkpt lat="47.83119" lon="-3.42445">
        <ele>38.4</ele>
        <time>2020-07-10T11:55:38Z</time>
      </trkpt>
      <trkpt lat="47.83119" lon="-3.4244">
        <ele>38.75</ele>
        <time>2020-07-10T11:55:39Z</time>
      </trkpt>
      <trkpt lat="47.83119" lon="-3.42436">
        <ele>39.09</ele>
        <time>2020-07-10T11:55:40Z</time>
      </trkpt>
      <trkpt lat="47.83119" lon="-3.42432">
        <ele>39.42</ele>
        <time>2020-07-10T11:55:41Z</time>
      </trkpt>
      <trkpt lat="47.83119" lon="-3.42428">
        <ele>39.75</ele>
        <time>2020-07-10T11:55:42Z</time>
      </trkpt>
      <trkpt lat="47.83119" lon="-3.42424">
        <ele>40.11</ele>
        <time>2020-07-10T11:55:43Z</time>
      </trkpt>
      <trkpt lat="47.83121" lon="-3.42421">
        <ele>40.48</ele>
        <time>2020-07-10T11:55:44Z</time>
      </trkpt>
      <trkpt lat="47.83122" lon="-3.42418">
        <ele>40.84</ele>
        <time>2020-07-10T11:55:45Z</time>
      </trkpt>
      <trkpt lat="47.83122" lon="-3.42415">
        <ele>41.2</ele>
        <time>2020-07-10T11:55:46Z</time>
      </trkpt>
      <trkpt lat="47.83122" lon="-3.42412">
        <ele>41.56</ele>
        <time>2020-07-10T11:55:47Z</time>
      </trkpt>
      <trkpt lat="47.83122" lon="-3.42409">
        <ele>41.95</ele>
        <time>2020-07-10T11:55:48Z</time>
      </trkpt>
      <trkpt lat="47.83121" lon="-3.42405">
        <ele>42.3</ele>
        <time>2020-07-10T11:55:49Z</time>
      </trkpt>
      <trkpt lat="47.83122" lon="-3.42402">
        <ele>42.7</ele>
        <time>2020-07-10T11:55:50Z</time>
      </trkpt>
      <trkpt lat="47.83122" lon="-3.42399">
        <ele>43.08</ele>
        <time>2020-07-10T11:55:51Z</time>
      </trkpt>
      <trkpt lat="47.83122" lon="-3.42395">
        <ele>43.5</ele>
        <time>2020-07-10T11:55:52Z</time>
      </trkpt>
      <trkpt lat="47.83122" lon="-3.42392">
        <ele>43.86</ele>
        <time>2020-07-10T11:55:53Z</time>
      </trkpt>
      <trkpt lat="47.83122" lon="-3.42388">
        <ele>44.27</ele>
        <time>2020-07-10T11:55:54Z</time>
      </trkpt>
      <trkpt lat="47.83123" lon="-3.42386">
        <ele>44.61</ele>
        <time>2020-07-10T11:55:55Z</time>
      </trkpt>
      <trkpt lat="47.83123" lon="-3.42383">
        <ele>44.94</ele>
        <time>2020-07-10T11:55:56Z</time>
      </trkpt>
      <trkpt lat="47.83123" lon="-3.42381">
        <ele>45.25</ele>
        <time>2020-07-10T11:55:57Z</time>
      </trkpt>
      <trkpt lat="47.83124" lon="-3.42378">
        <ele>45.58</ele>
        <time>2020-07-10T11:55:58Z</time>
      </trkpt>
      <trkpt lat="47.83123" lon="-3.42375">
        <ele>45.9</ele>
        <time>2020-07-10T11:55:59Z</time>
      </trkpt>
      <trkpt lat="47.83122" lon="-3.42372">
        <ele>46.25</ele>
        <time>2020-07-10T11:56:00Z</time>
      </trkpt>
      <trkpt lat="47.83122" lon="-3.42369">
        <ele>46.59</ele>
        <time>2020-07-10T11:56:01Z</time>
      </trkpt>
      <trkpt lat="47.83122" lon="-3.42365">
        <ele>46.96</ele>
        <time>2020-07-10T11:56:02Z</time>
      </trkpt>
      <trkpt lat="47.83122" lon="-3.42362">
        <ele>47.34</ele>
        <time>2020-07-10T11:56:03Z</time>
      </trkpt>
      <trkpt lat="47.83122" lon="-3.42359">
        <ele>47.59</ele>
        <time>2020-07-10T11:56:04Z</time>
      </trkpt>
      <trkpt lat="47.83122" lon="-3.42354">
        <ele>47.78</ele>
        <time>2020-07-10T11:56:05Z</time>
      </trkpt>
      <trkpt lat="47.83122" lon="-3.4235">
        <ele>47.96</ele>
        <time>2020-07-10T11:56:06Z</time>
      </trkpt>
      <trkpt lat="47.83122" lon="-3.42346">
        <ele>48.11</ele>
        <time>2020-07-10T11:56:07Z</time>
      </trkpt>
      <trkpt lat="47.83122" lon="-3.42341">
        <ele>48.26</ele>
        <time>2020-07-10T11:56:08Z</time>
      </trkpt>
      <trkpt lat="47.83123" lon="-3.42337">
        <ele>48.38</ele>
        <time>2020-07-10T11:56:09Z</time>
      </trkpt>
      <trkpt lat="47.83124" lon="-3.42333">
        <ele>48.5</ele>
        <time>2020-07-10T11:56:10Z</time>
      </trkpt>
      <trkpt lat="47.83124" lon="-3.42329">
        <ele>48.57</ele>
        <time>2020-07-10T11:56:11Z</time>
      </trkpt>
      <trkpt lat="47.83125" lon="-3.42324">
        <ele>48.64</ele>
        <time>2020-07-10T11:56:12Z</time>
      </trkpt>
      <trkpt lat="47.83125" lon="-3.4232">
        <ele>48.7</ele>
        <time>2020-07-10T11:56:13Z</time>
      </trkpt>
      <trkpt lat="47.83126" lon="-3.42316">
        <ele>48.77</ele>
        <time>2020-07-10T11:56:14Z</time>
      </trkpt>
      <trkpt lat="47.83127" lon="-3.42313">
        <ele>48.83</ele>
        <time>2020-07-10T11:56:15Z</time>
      </trkpt>
      <trkpt lat="47.83127" lon="-3.42309">
        <ele>48.9</ele>
        <time>2020-07-10T11:56:16Z</time>
      </trkpt>
      <trkpt lat="47.83127" lon="-3.42304">
        <ele>48.99</ele>
        <time>2020-07-10T11:56:17Z</time>
      </trkpt>
      <trkpt lat="47.83128" lon="-3.423">
        <ele>49.05</ele>
        <time>2020-07-10T11:56:18Z</time>
      </trkpt>
      <trkpt lat="47.83128" lon="-3.42296">
        <ele>49.11</ele>
        <time>2020-07-10T11:56:19Z</time>
      </trkpt>
      <trkpt lat="47.83128" lon="-3.42293">
        <ele>49.16</ele>
        <time>2020-07-10T11:56:20Z</time>
      </trkpt>
      <trkpt lat="47.83128" lon="-3.42289">
        <ele>49.22</ele>
        <time>2020-07-10T11:56:21Z</time>
      </trkpt>
      <trkpt lat="47.83127" lon="-3.42284">
        <ele>49.29</ele>
        <time>2020-07-10T11:56:22Z</time>
      </trkpt>
      <trkpt lat="47.83127" lon="-3.4228">
        <ele>49.37</ele>
        <time>2020-07-10T11:56:23Z</time>
      </trkpt>
      <trkpt lat="47.83127" lon="-3.42276">
        <ele>49.41</ele>
        <time>2020-07-10T11:56:24Z</time>
      </trkpt>
      <trkpt lat="47.83127" lon="-3.4227">
        <ele>49.42</ele>
        <time>2020-07-10T11:56:25Z</time>
      </trkpt>
      <trkpt lat="47.83127" lon="-3.42267">
        <ele>49.43</ele>
        <time>2020-07-10T11:56:26Z</time>
      </trkpt>
      <trkpt lat="47.83126" lon="-3.42263">
        <ele>49.45</ele>
        <time>2020-07-10T11:56:27Z</time>
      </trkpt>
      <trkpt lat="47.83126" lon="-3.4226">
        <ele>49.46</ele>
        <time>2020-07-10T11:56:28Z</time>
      </trkpt>
      <trkpt lat="47.83127" lon="-3.42259">
        <ele>49.43</ele>
        <time>2020-07-10T11:56:29Z</time>
      </trkpt>
      <trkpt lat="47.83128" lon="-3.4226">
        <ele>49.41</ele>
        <time>2020-07-10T11:56:30Z</time>
      </trkpt>
      <trkpt lat="47.83127" lon="-3.42263">
        <ele>49.41</ele>
        <time>2020-07-10T11:56:31Z</time>
      </trkpt>
      <trkpt lat="47.83127" lon="-3.42266">
        <ele>49.42</ele>
        <time>2020-07-10T11:56:32Z</time>
      </trkpt>
      <trkpt lat="47.83127" lon="-3.4227">
        <ele>49.43</ele>
        <time>2020-07-10T11:56:33Z</time>
      </trkpt>
      <trkpt lat="47.83128" lon="-3.42274">
        <ele>49.4</ele>
        <time>2020-07-10T11:56:34Z</time>
      </trkpt>
      <trkpt lat="47.8313" lon="-3.42277">
        <ele>49.35</ele>
        <time>2020-07-10T11:56:35Z</time>
      </trkpt>
      <trkpt lat="47.83132" lon="-3.4228">
        <ele>49.27</ele>
        <time>2020-07-10T11:56:36Z</time>
      </trkpt>
      <trkpt lat="47.83136" lon="-3.42282">
        <ele>49.15</ele>
        <time>2020-07-10T11:56:37Z</time>
      </trkpt>
      <trkpt lat="47.8314" lon="-3.42282">
        <ele>48.96</ele>
        <time>2020-07-10T11:56:38Z</time>
      </trkpt>
      <trkpt lat="47.83145" lon="-3.42283">
        <ele>48.67</ele>
        <time>2020-07-10T11:56:39Z</time>
      </trkpt>
      <trkpt lat="47.83149" lon="-3.42283">
        <ele>48.31</ele>
        <time>2020-07-10T11:56:40Z</time>
      </trkpt>
      <trkpt lat="47.83155" lon="-3.42284">
        <ele>47.9</ele>
        <time>2020-07-10T11:56:41Z</time>
      </trkpt>
      <trkpt lat="47.83162" lon="-3.42284">
        <ele>47.38</ele>
        <time>2020-07-10T11:56:42Z</time>
      </trkpt>
      <trkpt lat="47.83169" lon="-3.42285">
        <ele>46.85</ele>
        <time>2020-07-10T11:56:43Z</time>
      </trkpt>
      <trkpt lat="47.83174" lon="-3.42286">
        <ele>46.42</ele>
        <time>2020-07-10T11:56:44Z</time>
      </trkpt>
      <trkpt lat="47.8318" lon="-3.42287">
        <ele>46.02</ele>
        <time>2020-07-10T11:56:45Z</time>
      </trkpt>
      <trkpt lat="47.83186" lon="-3.42286">
        <ele>45.65</ele>
        <time>2020-07-10T11:56:46Z</time>
      </trkpt>
      <trkpt lat="47.83192" lon="-3.42286">
        <ele>45.28</ele>
        <time>2020-07-10T11:56:47Z</time>
      </trkpt>
      <trkpt lat="47.83198" lon="-3.42286">
        <ele>44.95</ele>
        <time>2020-07-10T11:56:48Z</time>
      </trkpt>
      <trkpt lat="47.83205" lon="-3.42287">
        <ele>44.65</ele>
        <time>2020-07-10T11:56:49Z</time>
      </trkpt>
      <trkpt lat="47.83211" lon="-3.42288">
        <ele>44.33</ele>
        <time>2020-07-10T11:56:50Z</time>
      </trkpt>
      <trkpt lat="47.83218" lon="-3.42288">
        <ele>43.99</ele>
        <time>2020-07-10T11:56:51Z</time>
      </trkpt>
      <trkpt lat="47.83225" lon="-3.42289">
        <ele>43.66</ele>
        <time>2020-07-10T11:56:52Z</time>
      </trkpt>
      <trkpt lat="47.83232" lon="-3.42289">
        <ele>43.39</ele>
        <time>2020-07-10T11:56:53Z</time>
      </trkpt>
      <trkpt lat="47.83239" lon="-3.42289">
        <ele>43.13</ele>
        <time>2020-07-10T11:56:54Z</time>
      </trkpt>
      <trkpt lat="47.83245" lon="-3.42289">
        <ele>42.88</ele>
        <time>2020-07-10T11:56:55Z</time>
      </trkpt>
      <trkpt lat="47.83253" lon="-3.42288">
        <ele>42.64</ele>
        <time>2020-07-10T11:56:56Z</time>
      </trkpt>
      <trkpt lat="47.8326" lon="-3.42288">
        <ele>42.4</ele>
        <time>2020-07-10T11:56:57Z</time>
      </trkpt>
      <trkpt lat="47.83267" lon="-3.42288">
        <ele>42.15</ele>
        <time>2020-07-10T11:56:58Z</time>
      </trkpt>
      <trkpt lat="47.83274" lon="-3.42288">
        <ele>41.9</ele>
        <time>2020-07-10T11:56:59Z</time>
      </trkpt>
      <trkpt lat="47.8328" lon="-3.42288">
        <ele>41.65</ele>
        <time>2020-07-10T11:57:00Z</time>
      </trkpt>
      <trkpt lat="47.83287" lon="-3.42289">
        <ele>41.4</ele>
        <time>2020-07-10T11:57:01Z</time>
      </trkpt>
      <trkpt lat="47.83293" lon="-3.4229">
        <ele>41.11</ele>
        <time>2020-07-10T11:57:02Z</time>
      </trkpt>
      <trkpt lat="47.833" lon="-3.42292">
        <ele>40.83</ele>
        <time>2020-07-10T11:57:03Z</time>
      </trkpt>
      <trkpt lat="47.83306" lon="-3.42294">
        <ele>40.52</ele>
        <time>2020-07-10T11:57:04Z</time>
      </trkpt>
      <trkpt lat="47.83313" lon="-3.42298">
        <ele>40.17</ele>
        <time>2020-07-10T11:57:05Z</time>
      </trkpt>
      <trkpt lat="47.8332" lon="-3.423">
        <ele>39.83</ele>
        <time>2020-07-10T11:57:06Z</time>
      </trkpt>
      <trkpt lat="47.83326" lon="-3.42302">
        <ele>39.52</ele>
        <time>2020-07-10T11:57:07Z</time>
      </trkpt>
      <trkpt lat="47.83332" lon="-3.42305">
        <ele>39.2</ele>
        <time>2020-07-10T11:57:08Z</time>
      </trkpt>
      <trkpt lat="47.83339" lon="-3.42309">
        <ele>39.04</ele>
        <time>2020-07-10T11:57:09Z</time>
      </trkpt>
      <trkpt lat="47.83345" lon="-3.42312">
        <ele>38.94</ele>
        <time>2020-07-10T11:57:10Z</time>
      </trkpt>
      <trkpt lat="47.8335" lon="-3.42316">
        <ele>38.83</ele>
        <time>2020-07-10T11:57:11Z</time>
      </trkpt>
      <trkpt lat="47.83356" lon="-3.42319">
        <ele>38.67</ele>
        <time>2020-07-10T11:57:12Z</time>
      </trkpt>
      <trkpt lat="47.83361" lon="-3.42322">
        <ele>38.5</ele>
        <time>2020-07-10T11:57:13Z</time>
      </trkpt>
      <trkpt lat="47.83366" lon="-3.42324">
        <ele>38.39</ele>
        <time>2020-07-10T11:57:14Z</time>
      </trkpt>
      <trkpt lat="47.83371" lon="-3.42326">
        <ele>38.3</ele>
        <time>2020-07-10T11:57:15Z</time>
      </trkpt>
      <trkpt lat="47.83377" lon="-3.42329">
        <ele>38.21</ele>
        <time>2020-07-10T11:57:16Z</time>
      </trkpt>
      <trkpt lat="47.83382" lon="-3.4233">
        <ele>38.13</ele>
        <time>2020-07-10T11:57:17Z</time>
      </trkpt>
      <trkpt lat="47.83386" lon="-3.42332">
        <ele>38.07</ele>
        <time>2020-07-10T11:57:18Z</time>
      </trkpt>
      <trkpt lat="47.83392" lon="-3.42334">
        <ele>38.07</ele>
        <time>2020-07-10T11:57:19Z</time>
      </trkpt>
      <trkpt lat="47.83396" lon="-3.42335">
        <ele>38.17</ele>
        <time>2020-07-10T11:57:20Z</time>
      </trkpt>
      <trkpt lat="47.83402" lon="-3.42335">
        <ele>38.31</ele>
        <time>2020-07-10T11:57:21Z</time>
      </trkpt>
      <trkpt lat="47.83405" lon="-3.42336">
        <ele>38.45</ele>
        <time>2020-07-10T11:57:22Z</time>
      </trkpt>
      <trkpt lat="47.83408" lon="-3.42335">
        <ele>38.55</ele>
        <time>2020-07-10T11:57:23Z</time>
      </trkpt>
      <trkpt lat="47.83408" lon="-3.42336">
        <ele>38.59</ele>
        <time>2020-07-10T11:57:24Z</time>
      </trkpt>
      <trkpt lat="47.83408" lon="-3.42336">
        <ele>38.59</ele>
        <time>2020-07-10T11:57:25Z</time>
      </trkpt>
      <trkpt lat="47.83408" lon="-3.42336">
        <ele>38.59</ele>
        <time>2020-07-10T11:57:26Z</time>
      </trkpt>
      <trkpt lat="47.83408" lon="-3.42336">
        <ele>38.59</ele>
        <time>2020-07-10T11:57:27Z</time>
      </trkpt>
      <trkpt lat="47.83408" lon="-3.42336">
        <ele>38.59</ele>
        <time>2020-07-10T11:57:28Z</time>
      </trkpt>
      <trkpt lat="47.83408" lon="-3.42336">
        <ele>38.59</ele>
        <time>2020-07-10T11:57:29Z</time>
      </trkpt>
      <trkpt lat="47.83408" lon="-3.42336">
        <ele>38.59</ele>
        <time>2020-07-10T11:57:30Z</time>
      </trkpt>
      <trkpt lat="47.83408" lon="-3.42336">
        <ele>38.59</ele>
        <time>2020-07-10T11:57:31Z</time>
      </trkpt>
      <trkpt lat="47.83408" lon="-3.42336">
        <ele>38.59</ele>
        <time>2020-07-10T11:57:32Z</time>
      </trkpt>
      <trkpt lat="47.83408" lon="-3.42336">
        <ele>38.59</ele>
        <time>2020-07-10T11:57:33Z</time>
      </trkpt>
      <trkpt lat="47.83408" lon="-3.42336">
        <ele>38.59</ele>
        <time>2020-07-10T11:57:34Z</time>
      </trkpt>
      <trkpt lat="47.83408" lon="-3.42336">
        <ele>38.59</ele>
        <time>2020-07-10T11:57:35Z</time>
      </trkpt>
      <trkpt lat="47.83408" lon="-3.42336">
        <ele>38.59</ele>
        <time>2020-07-10T11:57:36Z</time>
      </trkpt>
      <trkpt lat="47.83408" lon="-3.42336">
        <ele>38.59</ele>
        <time>2020-07-10T11:57:37Z</time>
      </trkpt>
      <trkpt lat="47.83408" lon="-3.42336">
        <ele>38.59</ele>
        <time>2020-07-10T11:57:38Z</time>
      </trkpt>
      <trkpt lat="47.83408" lon="-3.42336">
        <ele>38.59</ele>
        <time>2020-07-10T11:57:39Z</time>
      </trkpt>
      <trkpt lat="47.83408" lon="-3.42336">
        <ele>38.59</ele>
        <time>2020-07-10T11:57:40Z</time>
      </trkpt>
      <trkpt lat="47.83408" lon="-3.42336">
        <ele>38.59</ele>
        <time>2020-07-10T11:57:41Z</time>
      </trkpt>
      <trkpt lat="47.83408" lon="-3.42336">
        <ele>38.59</ele>
        <time>2020-07-10T11:57:42Z</time>
      </trkpt>
      <trkpt lat="47.83408" lon="-3.42336">
        <ele>38.59</ele>
        <time>2020-07-10T11:57:43Z</time>
      </trkpt>
      <trkpt lat="47.83408" lon="-3.42336">
        <ele>38.59</ele>
        <time>2020-07-10T11:57:44Z</time>
      </trkpt>
      <trkpt lat="47.83408" lon="-3.42336">
        <ele>38.59</ele>
        <time>2020-07-10T11:57:45Z</time>
      </trkpt>
      <trkpt lat="47.83408" lon="-3.42336">
        <ele>38.59</ele>
        <time>2020-07-10T11:57:46Z</time>
      </trkpt>
      <trkpt lat="47.83408" lon="-3.42336">
        <ele>38.59</ele>
        <time>2020-07-10T11:57:47Z</time>
      </trkpt>
      <trkpt lat="47.83408" lon="-3.42336">
        <ele>38.59</ele>
        <time>2020-07-10T11:57:48Z</time>
      </trkpt>
      <trkpt lat="47.83408" lon="-3.42336">
        <ele>38.59</ele>
        <time>2020-07-10T11:57:49Z</time>
      </trkpt>
      <trkpt lat="47.83408" lon="-3.42336">
        <ele>38.59</ele>
        <time>2020-07-10T11:57:50Z</time>
      </trkpt>
      <trkpt lat="47.83408" lon="-3.42336">
        <ele>38.59</ele>
        <time>2020-07-10T11:57:51Z</time>
      </trkpt>
      <trkpt lat="47.83408" lon="-3.42336">
        <ele>38.59</ele>
        <time>2020-07-10T11:57:52Z</time>
      </trkpt>
      <trkpt lat="47.83408" lon="-3.42336">
        <ele>38.59</ele>
        <time>2020-07-10T11:57:53Z</time>
      </trkpt>
      <trkpt lat="47.83408" lon="-3.42336">
        <ele>38.59</ele>
        <time>2020-07-10T11:57:54Z</time>
      </trkpt>
      <trkpt lat="47.83408" lon="-3.42336">
        <ele>38.59</ele>
        <time>2020-07-10T11:57:55Z</time>
      </trkpt>
      <trkpt lat="47.83408" lon="-3.42336">
        <ele>38.59</ele>
        <time>2020-07-10T11:57:56Z</time>
      </trkpt>
      <trkpt lat="47.83408" lon="-3.42336">
        <ele>38.59</ele>
        <time>2020-07-10T11:57:57Z</time>
      </trkpt>
      <trkpt lat="47.83408" lon="-3.42336">
        <ele>38.59</ele>
        <time>2020-07-10T11:57:58Z</time>
      </trkpt>
      <trkpt lat="47.83408" lon="-3.42336">
        <ele>38.59</ele>
        <time>2020-07-10T11:57:59Z</time>
      </trkpt>
      <trkpt lat="47.83408" lon="-3.42336">
        <ele>38.59</ele>
        <time>2020-07-10T11:58:00Z</time>
      </trkpt>
      <trkpt lat="47.83408" lon="-3.42336">
        <ele>38.59</ele>
        <time>2020-07-10T11:58:01Z</time>
      </trkpt>
      <trkpt lat="47.83408" lon="-3.42336">
        <ele>38.59</ele>
        <time>2020-07-10T11:58:02Z</time>
      </trkpt>
      <trkpt lat="47.83408" lon="-3.42336">
        <ele>38.59</ele>
        <time>2020-07-10T11:58:03Z</time>
      </trkpt>
      <trkpt lat="47.83413" lon="-3.42338">
        <ele>38.67</ele>
        <time>2020-07-10T11:58:04Z</time>
      </trkpt>
      <trkpt lat="47.83416" lon="-3.42341">
        <ele>38.69</ele>
        <time>2020-07-10T11:58:05Z</time>
      </trkpt>
      <trkpt lat="47.83419" lon="-3.42346">
        <ele>38.53</ele>
        <time>2020-07-10T11:58:06Z</time>
      </trkpt>
      <trkpt lat="47.83421" lon="-3.42352">
        <ele>38.26</ele>
        <time>2020-07-10T11:58:07Z</time>
      </trkpt>
      <trkpt lat="47.83423" lon="-3.4236">
        <ele>37.95</ele>
        <time>2020-07-10T11:58:08Z</time>
      </trkpt>
      <trkpt lat="47.83426" lon="-3.42366">
        <ele>37.68</ele>
        <time>2020-07-10T11:58:09Z</time>
      </trkpt>
      <trkpt lat="47.83428" lon="-3.42372">
        <ele>37.45</ele>
        <time>2020-07-10T11:58:10Z</time>
      </trkpt>
      <trkpt lat="47.83431" lon="-3.42378">
        <ele>37.27</ele>
        <time>2020-07-10T11:58:11Z</time>
      </trkpt>
      <trkpt lat="47.83433" lon="-3.42384">
        <ele>37.13</ele>
        <time>2020-07-10T11:58:12Z</time>
      </trkpt>
      <trkpt lat="47.83436" lon="-3.4239">
        <ele>37.01</ele>
        <time>2020-07-10T11:58:13Z</time>
      </trkpt>
      <trkpt lat="47.83439" lon="-3.42395">
        <ele>36.84</ele>
        <time>2020-07-10T11:58:14Z</time>
      </trkpt>
      <trkpt lat="47.83442" lon="-3.42401">
        <ele>36.65</ele>
        <time>2020-07-10T11:58:15Z</time>
      </trkpt>
      <trkpt lat="47.83445" lon="-3.42406">
        <ele>36.45</ele>
        <time>2020-07-10T11:58:16Z</time>
      </trkpt>
      <trkpt lat="47.83448" lon="-3.42411">
        <ele>36.25</ele>
        <time>2020-07-10T11:58:17Z</time>
      </trkpt>
      <trkpt lat="47.83451" lon="-3.42417">
        <ele>36.07</ele>
        <time>2020-07-10T11:58:18Z</time>
      </trkpt>
      <trkpt lat="47.83453" lon="-3.42422">
        <ele>36.02</ele>
        <time>2020-07-10T11:58:19Z</time>
      </trkpt>
      <trkpt lat="47.83455" lon="-3.42426">
        <ele>36.01</ele>
        <time>2020-07-10T11:58:20Z</time>
      </trkpt>
      <trkpt lat="47.83458" lon="-3.42431">
        <ele>36</ele>
        <time>2020-07-10T11:58:21Z</time>
      </trkpt>
      <trkpt lat="47.83461" lon="-3.42435">
        <ele>36</ele>
        <time>2020-07-10T11:58:22Z</time>
      </trkpt>
      <trkpt lat="47.83464" lon="-3.42438">
        <ele>36</ele>
        <time>2020-07-10T11:58:23Z</time>
      </trkpt>
      <trkpt lat="47.83467" lon="-3.42443">
        <ele>36</ele>
        <time>2020-07-10T11:58:24Z</time>
      </trkpt>
      <trkpt lat="47.8347" lon="-3.42447">
        <ele>35.93</ele>
        <time>2020-07-10T11:58:25Z</time>
      </trkpt>
      <trkpt lat="47.83471" lon="-3.42452">
        <ele>35.78</ele>
        <time>2020-07-10T11:58:26Z</time>
      </trkpt>
      <trkpt lat="47.83474" lon="-3.42457">
        <ele>35.6</ele>
        <time>2020-07-10T11:58:27Z</time>
      </trkpt>
      <trkpt lat="47.83476" lon="-3.42462">
        <ele>35.41</ele>
        <time>2020-07-10T11:58:28Z</time>
      </trkpt>
      <trkpt lat="47.83478" lon="-3.42467">
        <ele>35.24</ele>
        <time>2020-07-10T11:58:29Z</time>
      </trkpt>
      <trkpt lat="47.8348" lon="-3.42471">
        <ele>35.09</ele>
        <time>2020-07-10T11:58:30Z</time>
      </trkpt>
      <trkpt lat="47.83482" lon="-3.42476">
        <ele>35.03</ele>
        <time>2020-07-10T11:58:31Z</time>
      </trkpt>
      <trkpt lat="47.83485" lon="-3.42481">
        <ele>35.01</ele>
        <time>2020-07-10T11:58:32Z</time>
      </trkpt>
      <trkpt lat="47.83488" lon="-3.42485">
        <ele>35</ele>
        <time>2020-07-10T11:58:33Z</time>
      </trkpt>
      <trkpt lat="47.8349" lon="-3.4249">
        <ele>35</ele>
        <time>2020-07-10T11:58:34Z</time>
      </trkpt>
      <trkpt lat="47.83494" lon="-3.42495">
        <ele>35</ele>
        <time>2020-07-10T11:58:35Z</time>
      </trkpt>
      <trkpt lat="47.83497" lon="-3.425">
        <ele>35</ele>
        <time>2020-07-10T11:58:36Z</time>
      </trkpt>
      <trkpt lat="47.835" lon="-3.42505">
        <ele>35</ele>
        <time>2020-07-10T11:58:37Z</time>
      </trkpt>
      <trkpt lat="47.83503" lon="-3.42511">
        <ele>35</ele>
        <time>2020-07-10T11:58:38Z</time>
      </trkpt>
      <trkpt lat="47.83506" lon="-3.42516">
        <ele>35</ele>
        <time>2020-07-10T11:58:39Z</time>
      </trkpt>
      <trkpt lat="47.83509" lon="-3.42522">
        <ele>35</ele>
        <time>2020-07-10T11:58:40Z</time>
      </trkpt>
      <trkpt lat="47.83512" lon="-3.42527">
        <ele>35</ele>
        <time>2020-07-10T11:58:41Z</time>
      </trkpt>
      <trkpt lat="47.83515" lon="-3.42533">
        <ele>35</ele>
        <time>2020-07-10T11:58:42Z</time>
      </trkpt>
      <trkpt lat="47.83518" lon="-3.42538">
        <ele>35</ele>
        <time>2020-07-10T11:58:43Z</time>
      </trkpt>
      <trkpt lat="47.83521" lon="-3.42543">
        <ele>35</ele>
        <time>2020-07-10T11:58:44Z</time>
      </trkpt>
      <trkpt lat="47.83524" lon="-3.42548">
        <ele>35</ele>
        <time>2020-07-10T11:58:45Z</time>
      </trkpt>
      <trkpt lat="47.83527" lon="-3.42553">
        <ele>35</ele>
        <time>2020-07-10T11:58:46Z</time>
      </trkpt>
      <trkpt lat="47.8353" lon="-3.42558">
        <ele>34.95</ele>
        <time>2020-07-10T11:58:47Z</time>
      </trkpt>
      <trkpt lat="47.83532" lon="-3.42564">
        <ele>34.87</ele>
        <time>2020-07-10T11:58:48Z</time>
      </trkpt>
      <trkpt lat="47.83535" lon="-3.42569">
        <ele>34.78</ele>
        <time>2020-07-10T11:58:49Z</time>
      </trkpt>
      <trkpt lat="47.83538" lon="-3.42574">
        <ele>34.68</ele>
        <time>2020-07-10T11:58:50Z</time>
      </trkpt>
      <trkpt lat="47.83541" lon="-3.4258">
        <ele>34.57</ele>
        <time>2020-07-10T11:58:51Z</time>
      </trkpt>
      <trkpt lat="47.83545" lon="-3.42585">
        <ele>34.48</ele>
        <time>2020-07-10T11:58:52Z</time>
      </trkpt>
      <trkpt lat="47.83548" lon="-3.42591">
        <ele>34.48</ele>
        <time>2020-07-10T11:58:53Z</time>
      </trkpt>
      <trkpt lat="47.8355" lon="-3.42597">
        <ele>34.54</ele>
        <time>2020-07-10T11:58:54Z</time>
      </trkpt>
      <trkpt lat="47.83553" lon="-3.42602">
        <ele>34.65</ele>
        <time>2020-07-10T11:58:55Z</time>
      </trkpt>
      <trkpt lat="47.83556" lon="-3.42607">
        <ele>34.77</ele>
        <time>2020-07-10T11:58:56Z</time>
      </trkpt>
      <trkpt lat="47.83559" lon="-3.42613">
        <ele>34.84</ele>
        <time>2020-07-10T11:58:57Z</time>
      </trkpt>
      <trkpt lat="47.83562" lon="-3.42619">
        <ele>34.79</ele>
        <time>2020-07-10T11:58:58Z</time>
      </trkpt>
      <trkpt lat="47.83565" lon="-3.42625">
        <ele>34.7</ele>
        <time>2020-07-10T11:58:59Z</time>
      </trkpt>
      <trkpt lat="47.83569" lon="-3.42631">
        <ele>34.58</ele>
        <time>2020-07-10T11:59:00Z</time>
      </trkpt>
      <trkpt lat="47.83572" lon="-3.42637">
        <ele>34.46</ele>
        <time>2020-07-10T11:59:01Z</time>
      </trkpt>
      <trkpt lat="47.83575" lon="-3.42643">
        <ele>34.41</ele>
        <time>2020-07-10T11:59:02Z</time>
      </trkpt>
      <trkpt lat="47.83579" lon="-3.4265">
        <ele>34.47</ele>
        <time>2020-07-10T11:59:03Z</time>
      </trkpt>
      <trkpt lat="47.83582" lon="-3.42656">
        <ele>34.58</ele>
        <time>2020-07-10T11:59:04Z</time>
      </trkpt>
      <trkpt lat="47.83586" lon="-3.42662">
        <ele>34.71</ele>
        <time>2020-07-10T11:59:05Z</time>
      </trkpt>
      <trkpt lat="47.83589" lon="-3.42668">
        <ele>34.77</ele>
        <time>2020-07-10T11:59:06Z</time>
      </trkpt>
      <trkpt lat="47.83593" lon="-3.42674">
        <ele>34.75</ele>
        <time>2020-07-10T11:59:07Z</time>
      </trkpt>
      <trkpt lat="47.83597" lon="-3.4268">
        <ele>34.75</ele>
        <time>2020-07-10T11:59:08Z</time>
      </trkpt>
      <trkpt lat="47.83601" lon="-3.42687">
        <ele>34.8</ele>
        <time>2020-07-10T11:59:09Z</time>
      </trkpt>
      <trkpt lat="47.83605" lon="-3.42693">
        <ele>34.92</ele>
        <time>2020-07-10T11:59:10Z</time>
      </trkpt>
      <trkpt lat="47.83609" lon="-3.42699">
        <ele>35.09</ele>
        <time>2020-07-10T11:59:11Z</time>
      </trkpt>
      <trkpt lat="47.83612" lon="-3.42705">
        <ele>35.3</ele>
        <time>2020-07-10T11:59:12Z</time>
      </trkpt>
      <trkpt lat="47.83615" lon="-3.42711">
        <ele>35.51</ele>
        <time>2020-07-10T11:59:13Z</time>
      </trkpt>
      <trkpt lat="47.83618" lon="-3.42717">
        <ele>35.73</ele>
        <time>2020-07-10T11:59:14Z</time>
      </trkpt>
      <trkpt lat="47.83622" lon="-3.42723">
        <ele>35.92</ele>
        <time>2020-07-10T11:59:15Z</time>
      </trkpt>
      <trkpt lat="47.83626" lon="-3.4273">
        <ele>35.98</ele>
        <time>2020-07-10T11:59:16Z</time>
      </trkpt>
      <trkpt lat="47.83629" lon="-3.42736">
        <ele>35.99</ele>
        <time>2020-07-10T11:59:17Z</time>
      </trkpt>
      <trkpt lat="47.83633" lon="-3.42743">
        <ele>36</ele>
        <time>2020-07-10T11:59:18Z</time>
      </trkpt>
      <trkpt lat="47.83637" lon="-3.42749">
        <ele>36</ele>
        <time>2020-07-10T11:59:19Z</time>
      </trkpt>
      <trkpt lat="47.8364" lon="-3.42756">
        <ele>36.15</ele>
        <time>2020-07-10T11:59:20Z</time>
      </trkpt>
      <trkpt lat="47.83644" lon="-3.42762">
        <ele>36.36</ele>
        <time>2020-07-10T11:59:21Z</time>
      </trkpt>
      <trkpt lat="47.83648" lon="-3.42769">
        <ele>36.59</ele>
        <time>2020-07-10T11:59:22Z</time>
      </trkpt>
      <trkpt lat="47.83651" lon="-3.42775">
        <ele>36.81</ele>
        <time>2020-07-10T11:59:23Z</time>
      </trkpt>
      <trkpt lat="47.83655" lon="-3.42782">
        <ele>36.94</ele>
        <time>2020-07-10T11:59:24Z</time>
      </trkpt>
      <trkpt lat="47.83659" lon="-3.42788">
        <ele>36.98</ele>
        <time>2020-07-10T11:59:25Z</time>
      </trkpt>
      <trkpt lat="47.83663" lon="-3.42794">
        <ele>36.99</ele>
        <time>2020-07-10T11:59:26Z</time>
      </trkpt>
      <trkpt lat="47.83667" lon="-3.428">
        <ele>37</ele>
        <time>2020-07-10T11:59:27Z</time>
      </trkpt>
      <trkpt lat="47.8367" lon="-3.42806">
        <ele>37</ele>
        <time>2020-07-10T11:59:28Z</time>
      </trkpt>
      <trkpt lat="47.83673" lon="-3.42812">
        <ele>37.15</ele>
        <time>2020-07-10T11:59:29Z</time>
      </trkpt>
      <trkpt lat="47.83677" lon="-3.42818">
        <ele>37.35</ele>
        <time>2020-07-10T11:59:30Z</time>
      </trkpt>
      <trkpt lat="47.8368" lon="-3.42824">
        <ele>37.56</ele>
        <time>2020-07-10T11:59:31Z</time>
      </trkpt>
      <trkpt lat="47.83684" lon="-3.4283">
        <ele>37.79</ele>
        <time>2020-07-10T11:59:32Z</time>
      </trkpt>
      <trkpt lat="47.83687" lon="-3.42837">
        <ele>37.87</ele>
        <time>2020-07-10T11:59:33Z</time>
      </trkpt>
      <trkpt lat="47.8369" lon="-3.42844">
        <ele>37.74</ele>
        <time>2020-07-10T11:59:34Z</time>
      </trkpt>
      <trkpt lat="47.83692" lon="-3.42851">
        <ele>37.51</ele>
        <time>2020-07-10T11:59:35Z</time>
      </trkpt>
      <trkpt lat="47.83695" lon="-3.42859">
        <ele>37.21</ele>
        <time>2020-07-10T11:59:36Z</time>
      </trkpt>
      <trkpt lat="47.83698" lon="-3.42866">
        <ele>37.05</ele>
        <time>2020-07-10T11:59:37Z</time>
      </trkpt>
      <trkpt lat="47.837" lon="-3.42874">
        <ele>36.94</ele>
        <time>2020-07-10T11:59:38Z</time>
      </trkpt>
      <trkpt lat="47.83704" lon="-3.42881">
        <ele>36.82</ele>
        <time>2020-07-10T11:59:39Z</time>
      </trkpt>
      <trkpt lat="47.83707" lon="-3.42889">
        <ele>36.64</ele>
        <time>2020-07-10T11:59:40Z</time>
      </trkpt>
      <trkpt lat="47.8371" lon="-3.42896">
        <ele>36.4</ele>
        <time>2020-07-10T11:59:41Z</time>
      </trkpt>
      <trkpt lat="47.83713" lon="-3.42904">
        <ele>36.1</ele>
        <time>2020-07-10T11:59:42Z</time>
      </trkpt>
      <trkpt lat="47.83717" lon="-3.42911">
        <ele>35.72</ele>
        <time>2020-07-10T11:59:43Z</time>
      </trkpt>
      <trkpt lat="47.8372" lon="-3.42918">
        <ele>35.28</ele>
        <time>2020-07-10T11:59:44Z</time>
      </trkpt>
      <trkpt lat="47.83723" lon="-3.42926">
        <ele>34.85</ele>
        <time>2020-07-10T11:59:45Z</time>
      </trkpt>
      <trkpt lat="47.83727" lon="-3.42933">
        <ele>34.47</ele>
        <time>2020-07-10T11:59:46Z</time>
      </trkpt>
      <trkpt lat="47.8373" lon="-3.42942">
        <ele>34.04</ele>
        <time>2020-07-10T11:59:47Z</time>
      </trkpt>
      <trkpt lat="47.83733" lon="-3.42949">
        <ele>33.6</ele>
        <time>2020-07-10T11:59:48Z</time>
      </trkpt>
      <trkpt lat="47.83737" lon="-3.42957">
        <ele>33.19</ele>
        <time>2020-07-10T11:59:49Z</time>
      </trkpt>
      <trkpt lat="47.83741" lon="-3.42965">
        <ele>32.77</ele>
        <time>2020-07-10T11:59:50Z</time>
      </trkpt>
      <trkpt lat="47.83744" lon="-3.42973">
        <ele>32.34</ele>
        <time>2020-07-10T11:59:51Z</time>
      </trkpt>
      <trkpt lat="47.83747" lon="-3.42982">
        <ele>31.91</ele>
        <time>2020-07-10T11:59:52Z</time>
      </trkpt>
      <trkpt lat="47.83751" lon="-3.4299">
        <ele>31.47</ele>
        <time>2020-07-10T11:59:53Z</time>
      </trkpt>
      <trkpt lat="47.83755" lon="-3.42998">
        <ele>30.93</ele>
        <time>2020-07-10T11:59:54Z</time>
      </trkpt>
      <trkpt lat="47.8376" lon="-3.43007">
        <ele>30.31</ele>
        <time>2020-07-10T11:59:55Z</time>
      </trkpt>
      <trkpt lat="47.83764" lon="-3.43015">
        <ele>29.9</ele>
        <time>2020-07-10T11:59:56Z</time>
      </trkpt>
      <trkpt lat="47.83767" lon="-3.43024">
        <ele>29.72</ele>
        <time>2020-07-10T11:59:57Z</time>
      </trkpt>
      <trkpt lat="47.83771" lon="-3.43032">
        <ele>29.62</ele>
        <time>2020-07-10T11:59:58Z</time>
      </trkpt>
      <trkpt lat="47.83775" lon="-3.4304">
        <ele>29.47</ele>
        <time>2020-07-10T11:59:59Z</time>
      </trkpt>
      <trkpt lat="47.83779" lon="-3.43049">
        <ele>29.3</ele>
        <time>2020-07-10T12:00:00Z</time>
      </trkpt>
      <trkpt lat="47.83782" lon="-3.43058">
        <ele>29.05</ele>
        <time>2020-07-10T12:00:01Z</time>
      </trkpt>
      <trkpt lat="47.83786" lon="-3.43067">
        <ele>28.9</ele>
        <time>2020-07-10T12:00:02Z</time>
      </trkpt>
      <trkpt lat="47.8379" lon="-3.43075">
        <ele>28.91</ele>
        <time>2020-07-10T12:00:03Z</time>
      </trkpt>
      <trkpt lat="47.83793" lon="-3.43083">
        <ele>29.05</ele>
        <time>2020-07-10T12:00:04Z</time>
      </trkpt>
      <trkpt lat="47.83797" lon="-3.4309">
        <ele>29.27</ele>
        <time>2020-07-10T12:00:05Z</time>
      </trkpt>
      <trkpt lat="47.83799" lon="-3.43097">
        <ele>29.47</ele>
        <time>2020-07-10T12:00:06Z</time>
      </trkpt>
      <trkpt lat="47.83802" lon="-3.43103">
        <ele>29.68</ele>
        <time>2020-07-10T12:00:07Z</time>
      </trkpt>
      <trkpt lat="47.83805" lon="-3.43109">
        <ele>29.87</ele>
        <time>2020-07-10T12:00:08Z</time>
      </trkpt>
      <trkpt lat="47.83807" lon="-3.43114">
        <ele>29.91</ele>
        <time>2020-07-10T12:00:09Z</time>
      </trkpt>
      <trkpt lat="47.83809" lon="-3.43119">
        <ele>29.89</ele>
        <time>2020-07-10T12:00:10Z</time>
      </trkpt>
      <trkpt lat="47.83811" lon="-3.43123">
        <ele>29.86</ele>
        <time>2020-07-10T12:00:11Z</time>
      </trkpt>
      <trkpt lat="47.83813" lon="-3.43127">
        <ele>29.86</ele>
        <time>2020-07-10T12:00:12Z</time>
      </trkpt>
      <trkpt lat="47.83816" lon="-3.43131">
        <ele>29.92</ele>
        <time>2020-07-10T12:00:13Z</time>
      </trkpt>
      <trkpt lat="47.83819" lon="-3.43134">
        <ele>30.02</ele>
        <time>2020-07-10T12:00:14Z</time>
      </trkpt>
      <trkpt lat="47.83822" lon="-3.43138">
        <ele>30.16</ele>
        <time>2020-07-10T12:00:15Z</time>
      </trkpt>
      <trkpt lat="47.83826" lon="-3.43141">
        <ele>30.36</ele>
        <time>2020-07-10T12:00:16Z</time>
      </trkpt>
      <trkpt lat="47.83831" lon="-3.43144">
        <ele>30.56</ele>
        <time>2020-07-10T12:00:17Z</time>
      </trkpt>
      <trkpt lat="47.83836" lon="-3.43145">
        <ele>30.72</ele>
        <time>2020-07-10T12:00:18Z</time>
      </trkpt>
      <trkpt lat="47.83841" lon="-3.43146">
        <ele>30.78</ele>
        <time>2020-07-10T12:00:19Z</time>
      </trkpt>
      <trkpt lat="47.83845" lon="-3.43146">
        <ele>30.84</ele>
        <time>2020-07-10T12:00:20Z</time>
      </trkpt>
      <trkpt lat="47.83849" lon="-3.43145">
        <ele>30.88</ele>
        <time>2020-07-10T12:00:21Z</time>
      </trkpt>
      <trkpt lat="47.83853" lon="-3.43144">
        <ele>30.93</ele>
        <time>2020-07-10T12:00:22Z</time>
      </trkpt>
      <trkpt lat="47.83857" lon="-3.43143">
        <ele>30.96</ele>
        <time>2020-07-10T12:00:23Z</time>
      </trkpt>
      <trkpt lat="47.8386" lon="-3.43142">
        <ele>30.99</ele>
        <time>2020-07-10T12:00:24Z</time>
      </trkpt>
      <trkpt lat="47.83863" lon="-3.4314">
        <ele>31</ele>
        <time>2020-07-10T12:00:25Z</time>
      </trkpt>
      <trkpt lat="47.83865" lon="-3.43139">
        <ele>31</ele>
        <time>2020-07-10T12:00:26Z</time>
      </trkpt>
      <trkpt lat="47.83869" lon="-3.43138">
        <ele>31</ele>
        <time>2020-07-10T12:00:27Z</time>
      </trkpt>
      <trkpt lat="47.83872" lon="-3.43136">
        <ele>31</ele>
        <time>2020-07-10T12:00:28Z</time>
      </trkpt>
      <trkpt lat="47.83875" lon="-3.43136">
        <ele>31</ele>
        <time>2020-07-10T12:00:29Z</time>
      </trkpt>
      <trkpt lat="47.83878" lon="-3.43135">
        <ele>31</ele>
        <time>2020-07-10T12:00:30Z</time>
      </trkpt>
      <trkpt lat="47.83881" lon="-3.43134">
        <ele>31</ele>
        <time>2020-07-10T12:00:31Z</time>
      </trkpt>
      <trkpt lat="47.83884" lon="-3.43132">
        <ele>31</ele>
        <time>2020-07-10T12:00:32Z</time>
      </trkpt>
      <trkpt lat="47.83888" lon="-3.4313">
        <ele>31</ele>
        <time>2020-07-10T12:00:33Z</time>
      </trkpt>
      <trkpt lat="47.83892" lon="-3.43129">
        <ele>31</ele>
        <time>2020-07-10T12:00:34Z</time>
      </trkpt>
      <trkpt lat="47.83897" lon="-3.43127">
        <ele>31</ele>
        <time>2020-07-10T12:00:35Z</time>
      </trkpt>
      <trkpt lat="47.83901" lon="-3.43125">
        <ele>31</ele>
        <time>2020-07-10T12:00:36Z</time>
      </trkpt>
      <trkpt lat="47.83906" lon="-3.43124">
        <ele>31</ele>
        <time>2020-07-10T12:00:37Z</time>
      </trkpt>
      <trkpt lat="47.83911" lon="-3.43124">
        <ele>31</ele>
        <time>2020-07-10T12:00:38Z</time>
      </trkpt>
      <trkpt lat="47.83916" lon="-3.43123">
        <ele>31</ele>
        <time>2020-07-10T12:00:39Z</time>
      </trkpt>
      <trkpt lat="47.8392" lon="-3.43122">
        <ele>31</ele>
        <time>2020-07-10T12:00:40Z</time>
      </trkpt>
      <trkpt lat="47.83924" lon="-3.43122">
        <ele>31</ele>
        <time>2020-07-10T12:00:41Z</time>
      </trkpt>
      <trkpt lat="47.83928" lon="-3.43122">
        <ele>31</ele>
        <time>2020-07-10T12:00:42Z</time>
      </trkpt>
      <trkpt lat="47.83932" lon="-3.43121">
        <ele>31</ele>
        <time>2020-07-10T12:00:43Z</time>
      </trkpt>
      <trkpt lat="47.83935" lon="-3.43121">
        <ele>31</ele>
        <time>2020-07-10T12:00:44Z</time>
      </trkpt>
      <trkpt lat="47.83939" lon="-3.43121">
        <ele>31</ele>
        <time>2020-07-10T12:00:45Z</time>
      </trkpt>
      <trkpt lat="47.83943" lon="-3.43122">
        <ele>31</ele>
        <time>2020-07-10T12:00:46Z</time>
      </trkpt>
      <trkpt lat="47.83947" lon="-3.43123">
        <ele>31</ele>
        <time>2020-07-10T12:00:47Z</time>
      </trkpt>
      <trkpt lat="47.83951" lon="-3.43124">
        <ele>31</ele>
        <time>2020-07-10T12:00:48Z</time>
      </trkpt>
      <trkpt lat="47.83955" lon="-3.43126">
        <ele>31</ele>
        <time>2020-07-10T12:00:49Z</time>
      </trkpt>
      <trkpt lat="47.8396" lon="-3.43127">
        <ele>31</ele>
        <time>2020-07-10T12:00:50Z</time>
      </trkpt>
      <trkpt lat="47.83964" lon="-3.43129">
        <ele>31</ele>
        <time>2020-07-10T12:00:51Z</time>
      </trkpt>
      <trkpt lat="47.83969" lon="-3.43132">
        <ele>31</ele>
        <time>2020-07-10T12:00:52Z</time>
      </trkpt>
      <trkpt lat="47.83973" lon="-3.43134">
        <ele>31.02</ele>
        <time>2020-07-10T12:00:53Z</time>
      </trkpt>
      <trkpt lat="47.83978" lon="-3.43136">
        <ele>31.15</ele>
        <time>2020-07-10T12:00:54Z</time>
      </trkpt>
      <trkpt lat="47.83983" lon="-3.43139">
        <ele>31.31</ele>
        <time>2020-07-10T12:00:55Z</time>
      </trkpt>
      <trkpt lat="47.83987" lon="-3.43142">
        <ele>31.46</ele>
        <time>2020-07-10T12:00:56Z</time>
      </trkpt>
      <trkpt lat="47.83991" lon="-3.43144">
        <ele>31.6</ele>
        <time>2020-07-10T12:00:57Z</time>
      </trkpt>
      <trkpt lat="47.83994" lon="-3.43146">
        <ele>31.72</ele>
        <time>2020-07-10T12:00:58Z</time>
      </trkpt>
      <trkpt lat="47.83995" lon="-3.43147">
        <ele>31.8</ele>
        <time>2020-07-10T12:00:59Z</time>
      </trkpt>
      <trkpt lat="47.83996" lon="-3.43147">
        <ele>31.83</ele>
        <time>2020-07-10T12:01:00Z</time>
      </trkpt>
      <trkpt lat="47.83996" lon="-3.43147">
        <ele>31.84</ele>
        <time>2020-07-10T12:01:01Z</time>
      </trkpt>
      <trkpt lat="47.83995" lon="-3.43147">
        <ele>31.83</ele>
        <time>2020-07-10T12:01:02Z</time>
      </trkpt>
      <trkpt lat="47.83995" lon="-3.43147">
        <ele>31.83</ele>
        <time>2020-07-10T12:01:03Z</time>
      </trkpt>
      <trkpt lat="47.83995" lon="-3.43147">
        <ele>31.83</ele>
        <time>2020-07-10T12:01:04Z</time>
      </trkpt>
      <trkpt lat="47.83995" lon="-3.43147">
        <ele>31.83</ele>
        <time>2020-07-10T12:01:05Z</time>
      </trkpt>
      <trkpt lat="47.83995" lon="-3.43147">
        <ele>31.83</ele>
        <time>2020-07-10T12:01:06Z</time>
      </trkpt>
      <trkpt lat="47.83995" lon="-3.43147">
        <ele>31.83</ele>
        <time>2020-07-10T12:01:07Z</time>
      </trkpt>
      <trkpt lat="47.83995" lon="-3.43147">
        <ele>31.83</ele>
        <time>2020-07-10T12:01:08Z</time>
      </trkpt>
      <trkpt lat="47.83995" lon="-3.43147">
        <ele>31.83</ele>
        <time>2020-07-10T12:01:09Z</time>
      </trkpt>
      <trkpt lat="47.83995" lon="-3.43147">
        <ele>31.83</ele>
        <time>2020-07-10T12:01:10Z</time>
      </trkpt>
      <trkpt lat="47.83995" lon="-3.43147">
        <ele>31.83</ele>
        <time>2020-07-10T12:01:11Z</time>
      </trkpt>
      <trkpt lat="47.83995" lon="-3.43147">
        <ele>31.83</ele>
        <time>2020-07-10T12:01:12Z</time>
      </trkpt>
      <trkpt lat="47.83995" lon="-3.43147">
        <ele>31.83</ele>
        <time>2020-07-10T12:01:13Z</time>
      </trkpt>
      <trkpt lat="47.83995" lon="-3.43147">
        <ele>31.83</ele>
        <time>2020-07-10T12:01:14Z</time>
      </trkpt>
      <trkpt lat="47.83995" lon="-3.43147">
        <ele>31.83</ele>
        <time>2020-07-10T12:01:15Z</time>
      </trkpt>
      <trkpt lat="47.83995" lon="-3.43147">
        <ele>31.83</ele>
        <time>2020-07-10T12:01:16Z</time>
      </trkpt>
      <trkpt lat="47.83989" lon="-3.43147">
        <ele>31.67</ele>
        <time>2020-07-10T12:01:17Z</time>
      </trkpt>
      <trkpt lat="47.83987" lon="-3.43145">
        <ele>31.57</ele>
        <time>2020-07-10T12:01:18Z</time>
      </trkpt>
      <trkpt lat="47.83985" lon="-3.43142">
        <ele>31.48</ele>
        <time>2020-07-10T12:01:19Z</time>
      </trkpt>
      <trkpt lat="47.83982" lon="-3.4314">
        <ele>31.38</ele>
        <time>2020-07-10T12:01:20Z</time>
      </trkpt>
      <trkpt lat="47.83979" lon="-3.43137">
        <ele>31.27</ele>
        <time>2020-07-10T12:01:21Z</time>
      </trkpt>
      <trkpt lat="47.83975" lon="-3.43135">
        <ele>31.15</ele>
        <time>2020-07-10T12:01:22Z</time>
      </trkpt>
      <trkpt lat="47.83972" lon="-3.43133">
        <ele>31.05</ele>
        <time>2020-07-10T12:01:23Z</time>
      </trkpt>
      <trkpt lat="47.83968" lon="-3.4313">
        <ele>31.01</ele>
        <time>2020-07-10T12:01:24Z</time>
      </trkpt>
      <trkpt lat="47.83964" lon="-3.43128">
        <ele>31</ele>
        <time>2020-07-10T12:01:25Z</time>
      </trkpt>
      <trkpt lat="47.8396" lon="-3.43126">
        <ele>31</ele>
        <time>2020-07-10T12:01:26Z</time>
      </trkpt>
      <trkpt lat="47.83956" lon="-3.43123">
        <ele>31</ele>
        <time>2020-07-10T12:01:27Z</time>
      </trkpt>
      <trkpt lat="47.83952" lon="-3.43121">
        <ele>31</ele>
        <time>2020-07-10T12:01:28Z</time>
      </trkpt>
      <trkpt lat="47.83948" lon="-3.43119">
        <ele>31</ele>
        <time>2020-07-10T12:01:29Z</time>
      </trkpt>
      <trkpt lat="47.83944" lon="-3.43118">
        <ele>31</ele>
        <time>2020-07-10T12:01:30Z</time>
      </trkpt>
      <trkpt lat="47.8394" lon="-3.43117">
        <ele>31</ele>
        <time>2020-07-10T12:01:31Z</time>
      </trkpt>
      <trkpt lat="47.83936" lon="-3.43118">
        <ele>31</ele>
        <time>2020-07-10T12:01:32Z</time>
      </trkpt>
      <trkpt lat="47.83931" lon="-3.43118">
        <ele>31</ele>
        <time>2020-07-10T12:01:33Z</time>
      </trkpt>
      <trkpt lat="47.83927" lon="-3.43119">
        <ele>31</ele>
        <time>2020-07-10T12:01:34Z</time>
      </trkpt>
      <trkpt lat="47.83922" lon="-3.4312">
        <ele>31</ele>
        <time>2020-07-10T12:01:35Z</time>
      </trkpt>
      <trkpt lat="47.83917" lon="-3.43121">
        <ele>31</ele>
        <time>2020-07-10T12:01:36Z</time>
      </trkpt>
      <trkpt lat="47.83912" lon="-3.43122">
        <ele>31</ele>
        <time>2020-07-10T12:01:37Z</time>
      </trkpt>
      <trkpt lat="47.83908" lon="-3.43124">
        <ele>31</ele>
        <time>2020-07-10T12:01:38Z</time>
      </trkpt>
      <trkpt lat="47.83904" lon="-3.43125">
        <ele>31</ele>
        <time>2020-07-10T12:01:39Z</time>
      </trkpt>
      <trkpt lat="47.83899" lon="-3.43127">
        <ele>31</ele>
        <time>2020-07-10T12:01:40Z</time>
      </trkpt>
      <trkpt lat="47.83895" lon="-3.43128">
        <ele>31</ele>
        <time>2020-07-10T12:01:41Z</time>
      </trkpt>
      <trkpt lat="47.8389" lon="-3.43129">
        <ele>31</ele>
        <time>2020-07-10T12:01:42Z</time>
      </trkpt>
      <trkpt lat="47.83886" lon="-3.43131">
        <ele>31</ele>
        <time>2020-07-10T12:01:43Z</time>
      </trkpt>
      <trkpt lat="47.83882" lon="-3.43132">
        <ele>31</ele>
        <time>2020-07-10T12:01:44Z</time>
      </trkpt>
      <trkpt lat="47.83878" lon="-3.43134">
        <ele>31</ele>
        <time>2020-07-10T12:01:45Z</time>
      </trkpt>
      <trkpt lat="47.83874" lon="-3.43136">
        <ele>31</ele>
        <time>2020-07-10T12:01:46Z</time>
      </trkpt>
      <trkpt lat="47.83871" lon="-3.43137">
        <ele>31</ele>
        <time>2020-07-10T12:01:47Z</time>
      </trkpt>
      <trkpt lat="47.83867" lon="-3.43139">
        <ele>31</ele>
        <time>2020-07-10T12:01:48Z</time>
      </trkpt>
      <trkpt lat="47.83862" lon="-3.43141">
        <ele>31</ele>
        <time>2020-07-10T12:01:49Z</time>
      </trkpt>
      <trkpt lat="47.83858" lon="-3.43143">
        <ele>30.99</ele>
        <time>2020-07-10T12:01:50Z</time>
      </trkpt>
      <trkpt lat="47.83854" lon="-3.43145">
        <ele>30.96</ele>
        <time>2020-07-10T12:01:51Z</time>
      </trkpt>
      <trkpt lat="47.8385" lon="-3.43148">
        <ele>30.9</ele>
        <time>2020-07-10T12:01:52Z</time>
      </trkpt>
      <trkpt lat="47.83846" lon="-3.43152">
        <ele>30.79</ele>
        <time>2020-07-10T12:01:53Z</time>
      </trkpt>
      <trkpt lat="47.83842" lon="-3.43158">
        <ele>30.61</ele>
        <time>2020-07-10T12:01:54Z</time>
      </trkpt>
      <trkpt lat="47.8384" lon="-3.43166">
        <ele>30.37</ele>
        <time>2020-07-10T12:01:55Z</time>
      </trkpt>
      <trkpt lat="47.8384" lon="-3.43174">
        <ele>30.41</ele>
        <time>2020-07-10T12:01:56Z</time>
      </trkpt>
      <trkpt lat="47.83841" lon="-3.43181">
        <ele>30.58</ele>
        <time>2020-07-10T12:01:57Z</time>
      </trkpt>
      <trkpt lat="47.83843" lon="-3.43188">
        <ele>30.77</ele>
        <time>2020-07-10T12:01:58Z</time>
      </trkpt>
      <trkpt lat="47.83846" lon="-3.43195">
        <ele>30.92</ele>
        <time>2020-07-10T12:01:59Z</time>
      </trkpt>
      <trkpt lat="47.83848" lon="-3.43202">
        <ele>30.89</ele>
        <time>2020-07-10T12:02:00Z</time>
      </trkpt>
      <trkpt lat="47.83851" lon="-3.43209">
        <ele>30.84</ele>
        <time>2020-07-10T12:02:01Z</time>
      </trkpt>
      <trkpt lat="47.83855" lon="-3.43216">
        <ele>30.82</ele>
        <time>2020-07-10T12:02:02Z</time>
      </trkpt>
      <trkpt lat="47.83857" lon="-3.43224">
        <ele>30.85</ele>
        <time>2020-07-10T12:02:03Z</time>
      </trkpt>
      <trkpt lat="47.8386" lon="-3.43231">
        <ele>30.93</ele>
        <time>2020-07-10T12:02:04Z</time>
      </trkpt>
      <trkpt lat="47.83863" lon="-3.43238">
        <ele>30.96</ele>
        <time>2020-07-10T12:02:05Z</time>
      </trkpt>
      <trkpt lat="47.83867" lon="-3.43245">
        <ele>30.96</ele>
        <time>2020-07-10T12:02:06Z</time>
      </trkpt>
      <trkpt lat="47.8387" lon="-3.43252">
        <ele>30.99</ele>
        <time>2020-07-10T12:02:07Z</time>
      </trkpt>
      <trkpt lat="47.83873" lon="-3.43258">
        <ele>31</ele>
        <time>2020-07-10T12:02:08Z</time>
      </trkpt>
      <trkpt lat="47.83876" lon="-3.43265">
        <ele>31</ele>
        <time>2020-07-10T12:02:09Z</time>
      </trkpt>
      <trkpt lat="47.83878" lon="-3.4327">
        <ele>31</ele>
        <time>2020-07-10T12:02:10Z</time>
      </trkpt>
      <trkpt lat="47.83881" lon="-3.43275">
        <ele>31</ele>
        <time>2020-07-10T12:02:11Z</time>
      </trkpt>
      <trkpt lat="47.83884" lon="-3.43281">
        <ele>31.07</ele>
        <time>2020-07-10T12:02:12Z</time>
      </trkpt>
      <trkpt lat="47.83887" lon="-3.43287">
        <ele>31.24</ele>
        <time>2020-07-10T12:02:13Z</time>
      </trkpt>
      <trkpt lat="47.8389" lon="-3.43293">
        <ele>31.46</ele>
        <time>2020-07-10T12:02:14Z</time>
      </trkpt>
      <trkpt lat="47.83893" lon="-3.43299">
        <ele>31.68</ele>
        <time>2020-07-10T12:02:15Z</time>
      </trkpt>
      <trkpt lat="47.83896" lon="-3.43306">
        <ele>31.9</ele>
        <time>2020-07-10T12:02:16Z</time>
      </trkpt>
      <trkpt lat="47.83899" lon="-3.43312">
        <ele>31.97</ele>
        <time>2020-07-10T12:02:17Z</time>
      </trkpt>
      <trkpt lat="47.83902" lon="-3.43318">
        <ele>31.99</ele>
        <time>2020-07-10T12:02:18Z</time>
      </trkpt>
      <trkpt lat="47.83905" lon="-3.43324">
        <ele>32</ele>
        <time>2020-07-10T12:02:19Z</time>
      </trkpt>
      <trkpt lat="47.83908" lon="-3.43331">
        <ele>32</ele>
        <time>2020-07-10T12:02:20Z</time>
      </trkpt>
      <trkpt lat="47.83911" lon="-3.43338">
        <ele>32.11</ele>
        <time>2020-07-10T12:02:21Z</time>
      </trkpt>
      <trkpt lat="47.83915" lon="-3.43344">
        <ele>32.3</ele>
        <time>2020-07-10T12:02:22Z</time>
      </trkpt>
      <trkpt lat="47.83918" lon="-3.4335">
        <ele>32.52</ele>
        <time>2020-07-10T12:02:23Z</time>
      </trkpt>
      <trkpt lat="47.83921" lon="-3.43357">
        <ele>32.75</ele>
        <time>2020-07-10T12:02:24Z</time>
      </trkpt>
      <trkpt lat="47.83924" lon="-3.43364">
        <ele>32.94</ele>
        <time>2020-07-10T12:02:25Z</time>
      </trkpt>
      <trkpt lat="47.83927" lon="-3.43371">
        <ele>33.08</ele>
        <time>2020-07-10T12:02:26Z</time>
      </trkpt>
      <trkpt lat="47.83931" lon="-3.43378">
        <ele>33.24</ele>
        <time>2020-07-10T12:02:27Z</time>
      </trkpt>
      <trkpt lat="47.83934" lon="-3.43385">
        <ele>33.44</ele>
        <time>2020-07-10T12:02:28Z</time>
      </trkpt>
      <trkpt lat="47.83937" lon="-3.43391">
        <ele>33.66</ele>
        <time>2020-07-10T12:02:29Z</time>
      </trkpt>
      <trkpt lat="47.8394" lon="-3.43398">
        <ele>33.82</ele>
        <time>2020-07-10T12:02:30Z</time>
      </trkpt>
      <trkpt lat="47.83943" lon="-3.43404">
        <ele>33.93</ele>
        <time>2020-07-10T12:02:31Z</time>
      </trkpt>
      <trkpt lat="47.83946" lon="-3.4341">
        <ele>34.01</ele>
        <time>2020-07-10T12:02:32Z</time>
      </trkpt>
      <trkpt lat="47.83949" lon="-3.43416">
        <ele>34.11</ele>
        <time>2020-07-10T12:02:33Z</time>
      </trkpt>
      <trkpt lat="47.83951" lon="-3.43422">
        <ele>34.35</ele>
        <time>2020-07-10T12:02:34Z</time>
      </trkpt>
      <trkpt lat="47.83954" lon="-3.43428">
        <ele>34.65</ele>
        <time>2020-07-10T12:02:35Z</time>
      </trkpt>
      <trkpt lat="47.83957" lon="-3.43435">
        <ele>34.97</ele>
        <time>2020-07-10T12:02:36Z</time>
      </trkpt>
      <trkpt lat="47.8396" lon="-3.43441">
        <ele>35.3</ele>
        <time>2020-07-10T12:02:37Z</time>
      </trkpt>
      <trkpt lat="47.83963" lon="-3.43447">
        <ele>35.56</ele>
        <time>2020-07-10T12:02:38Z</time>
      </trkpt>
      <trkpt lat="47.83966" lon="-3.43454">
        <ele>35.7</ele>
        <time>2020-07-10T12:02:39Z</time>
      </trkpt>
      <trkpt lat="47.83969" lon="-3.4346">
        <ele>35.82</ele>
        <time>2020-07-10T12:02:40Z</time>
      </trkpt>
      <trkpt lat="47.83972" lon="-3.43466">
        <ele>35.93</ele>
        <time>2020-07-10T12:02:41Z</time>
      </trkpt>
      <trkpt lat="47.83975" lon="-3.43472">
        <ele>36.11</ele>
        <time>2020-07-10T12:02:42Z</time>
      </trkpt>
      <trkpt lat="47.83978" lon="-3.43479">
        <ele>36.32</ele>
        <time>2020-07-10T12:02:43Z</time>
      </trkpt>
      <trkpt lat="47.83981" lon="-3.43485">
        <ele>36.56</ele>
        <time>2020-07-10T12:02:44Z</time>
      </trkpt>
      <trkpt lat="47.83984" lon="-3.43492">
        <ele>36.78</ele>
        <time>2020-07-10T12:02:45Z</time>
      </trkpt>
      <trkpt lat="47.83988" lon="-3.43498">
        <ele>37.02</ele>
        <time>2020-07-10T12:02:46Z</time>
      </trkpt>
      <trkpt lat="47.83991" lon="-3.43504">
        <ele>37.2</ele>
        <time>2020-07-10T12:02:47Z</time>
      </trkpt>
      <trkpt lat="47.83995" lon="-3.4351">
        <ele>37.29</ele>
        <time>2020-07-10T12:02:48Z</time>
      </trkpt>
      <trkpt lat="47.83998" lon="-3.43516">
        <ele>37.32</ele>
        <time>2020-07-10T12:02:49Z</time>
      </trkpt>
      <trkpt lat="47.84001" lon="-3.43522">
        <ele>37.31</ele>
        <time>2020-07-10T12:02:50Z</time>
      </trkpt>
      <trkpt lat="47.84005" lon="-3.43527">
        <ele>37.33</ele>
        <time>2020-07-10T12:02:51Z</time>
      </trkpt>
      <trkpt lat="47.84007" lon="-3.43534">
        <ele>37.46</ele>
        <time>2020-07-10T12:02:52Z</time>
      </trkpt>
      <trkpt lat="47.8401" lon="-3.43539">
        <ele>37.65</ele>
        <time>2020-07-10T12:02:53Z</time>
      </trkpt>
      <trkpt lat="47.84013" lon="-3.43544">
        <ele>37.87</ele>
        <time>2020-07-10T12:02:54Z</time>
      </trkpt>
      <trkpt lat="47.84016" lon="-3.4355">
        <ele>38.08</ele>
        <time>2020-07-10T12:02:55Z</time>
      </trkpt>
      <trkpt lat="47.8402" lon="-3.43556">
        <ele>38.31</ele>
        <time>2020-07-10T12:02:56Z</time>
      </trkpt>
      <trkpt lat="47.84022" lon="-3.43562">
        <ele>38.41</ele>
        <time>2020-07-10T12:02:57Z</time>
      </trkpt>
      <trkpt lat="47.84025" lon="-3.43567">
        <ele>38.42</ele>
        <time>2020-07-10T12:02:58Z</time>
      </trkpt>
      <trkpt lat="47.84028" lon="-3.43573">
        <ele>38.4</ele>
        <time>2020-07-10T12:02:59Z</time>
      </trkpt>
      <trkpt lat="47.84031" lon="-3.43578">
        <ele>38.33</ele>
        <time>2020-07-10T12:03:00Z</time>
      </trkpt>
      <trkpt lat="47.84033" lon="-3.43582">
        <ele>38.27</ele>
        <time>2020-07-10T12:03:01Z</time>
      </trkpt>
      <trkpt lat="47.84037" lon="-3.43587">
        <ele>38.31</ele>
        <time>2020-07-10T12:03:02Z</time>
      </trkpt>
      <trkpt lat="47.8404" lon="-3.43591">
        <ele>38.4</ele>
        <time>2020-07-10T12:03:03Z</time>
      </trkpt>
      <trkpt lat="47.84044" lon="-3.43596">
        <ele>38.52</ele>
        <time>2020-07-10T12:03:04Z</time>
      </trkpt>
      <trkpt lat="47.84047" lon="-3.43601">
        <ele>38.64</ele>
        <time>2020-07-10T12:03:05Z</time>
      </trkpt>
      <trkpt lat="47.84051" lon="-3.43606">
        <ele>38.79</ele>
        <time>2020-07-10T12:03:06Z</time>
      </trkpt>
      <trkpt lat="47.84055" lon="-3.43612">
        <ele>38.93</ele>
        <time>2020-07-10T12:03:07Z</time>
      </trkpt>
      <trkpt lat="47.84059" lon="-3.43617">
        <ele>39.05</ele>
        <time>2020-07-10T12:03:08Z</time>
      </trkpt>
      <trkpt lat="47.84063" lon="-3.43623">
        <ele>39.12</ele>
        <time>2020-07-10T12:03:09Z</time>
      </trkpt>
      <trkpt lat="47.84067" lon="-3.43629">
        <ele>39.14</ele>
        <time>2020-07-10T12:03:10Z</time>
      </trkpt>
      <trkpt lat="47.84071" lon="-3.43635">
        <ele>39.1</ele>
        <time>2020-07-10T12:03:11Z</time>
      </trkpt>
      <trkpt lat="47.84075" lon="-3.43641">
        <ele>38.97</ele>
        <time>2020-07-10T12:03:12Z</time>
      </trkpt>
      <trkpt lat="47.84078" lon="-3.43647">
        <ele>38.78</ele>
        <time>2020-07-10T12:03:13Z</time>
      </trkpt>
      <trkpt lat="47.84082" lon="-3.43654">
        <ele>38.56</ele>
        <time>2020-07-10T12:03:14Z</time>
      </trkpt>
      <trkpt lat="47.84086" lon="-3.4366">
        <ele>38.4</ele>
        <time>2020-07-10T12:03:15Z</time>
      </trkpt>
      <trkpt lat="47.8409" lon="-3.43665">
        <ele>38.31</ele>
        <time>2020-07-10T12:03:16Z</time>
      </trkpt>
      <trkpt lat="47.84094" lon="-3.43671">
        <ele>38.25</ele>
        <time>2020-07-10T12:03:17Z</time>
      </trkpt>
      <trkpt lat="47.84098" lon="-3.43676">
        <ele>38.19</ele>
        <time>2020-07-10T12:03:18Z</time>
      </trkpt>
      <trkpt lat="47.84101" lon="-3.43682">
        <ele>38.12</ele>
        <time>2020-07-10T12:03:19Z</time>
      </trkpt>
      <trkpt lat="47.84105" lon="-3.43689">
        <ele>38.03</ele>
        <time>2020-07-10T12:03:20Z</time>
      </trkpt>
      <trkpt lat="47.84108" lon="-3.43695">
        <ele>37.93</ele>
        <time>2020-07-10T12:03:21Z</time>
      </trkpt>
      <trkpt lat="47.84111" lon="-3.43701">
        <ele>37.82</ele>
        <time>2020-07-10T12:03:22Z</time>
      </trkpt>
      <trkpt lat="47.84115" lon="-3.43706">
        <ele>37.74</ele>
        <time>2020-07-10T12:03:23Z</time>
      </trkpt>
      <trkpt lat="47.84118" lon="-3.43712">
        <ele>37.66</ele>
        <time>2020-07-10T12:03:24Z</time>
      </trkpt>
      <trkpt lat="47.84121" lon="-3.43717">
        <ele>37.58</ele>
        <time>2020-07-10T12:03:25Z</time>
      </trkpt>
      <trkpt lat="47.84125" lon="-3.43724">
        <ele>37.49</ele>
        <time>2020-07-10T12:03:26Z</time>
      </trkpt>
      <trkpt lat="47.84129" lon="-3.4373">
        <ele>37.41</ele>
        <time>2020-07-10T12:03:27Z</time>
      </trkpt>
      <trkpt lat="47.84133" lon="-3.43736">
        <ele>37.34</ele>
        <time>2020-07-10T12:03:28Z</time>
      </trkpt>
      <trkpt lat="47.84137" lon="-3.43741">
        <ele>37.27</ele>
        <time>2020-07-10T12:03:29Z</time>
      </trkpt>
      <trkpt lat="47.84141" lon="-3.43745">
        <ele>37.24</ele>
        <time>2020-07-10T12:03:30Z</time>
      </trkpt>
      <trkpt lat="47.84146" lon="-3.43752">
        <ele>37.24</ele>
        <time>2020-07-10T12:03:31Z</time>
      </trkpt>
      <trkpt lat="47.84151" lon="-3.43759">
        <ele>37.29</ele>
        <time>2020-07-10T12:03:32Z</time>
      </trkpt>
      <trkpt lat="47.84157" lon="-3.43764">
        <ele>37.3</ele>
        <time>2020-07-10T12:03:33Z</time>
      </trkpt>
      <trkpt lat="47.84161" lon="-3.4377">
        <ele>37.26</ele>
        <time>2020-07-10T12:03:34Z</time>
      </trkpt>
      <trkpt lat="47.84166" lon="-3.43773">
        <ele>37.19</ele>
        <time>2020-07-10T12:03:35Z</time>
      </trkpt>
      <trkpt lat="47.84172" lon="-3.43775">
        <ele>37.13</ele>
        <time>2020-07-10T12:03:36Z</time>
      </trkpt>
      <trkpt lat="47.84178" lon="-3.43773">
        <ele>37.16</ele>
        <time>2020-07-10T12:03:37Z</time>
      </trkpt>
      <trkpt lat="47.84183" lon="-3.4377">
        <ele>37.26</ele>
        <time>2020-07-10T12:03:38Z</time>
      </trkpt>
      <trkpt lat="47.84187" lon="-3.43765">
        <ele>37.39</ele>
        <time>2020-07-10T12:03:39Z</time>
      </trkpt>
      <trkpt lat="47.84192" lon="-3.43761">
        <ele>37.55</ele>
        <time>2020-07-10T12:03:40Z</time>
      </trkpt>
      <trkpt lat="47.84196" lon="-3.43756">
        <ele>37.73</ele>
        <time>2020-07-10T12:03:41Z</time>
      </trkpt>
      <trkpt lat="47.84201" lon="-3.43751">
        <ele>37.9</ele>
        <time>2020-07-10T12:03:42Z</time>
      </trkpt>
      <trkpt lat="47.84206" lon="-3.43746">
        <ele>37.97</ele>
        <time>2020-07-10T12:03:43Z</time>
      </trkpt>
      <trkpt lat="47.8421" lon="-3.43741">
        <ele>37.99</ele>
        <time>2020-07-10T12:03:44Z</time>
      </trkpt>
      <trkpt lat="47.84215" lon="-3.43737">
        <ele>38</ele>
        <time>2020-07-10T12:03:45Z</time>
      </trkpt>
      <trkpt lat="47.84219" lon="-3.43732">
        <ele>38</ele>
        <time>2020-07-10T12:03:46Z</time>
      </trkpt>
      <trkpt lat="47.84224" lon="-3.43727">
        <ele>38.04</ele>
        <time>2020-07-10T12:03:47Z</time>
      </trkpt>
      <trkpt lat="47.84228" lon="-3.43722">
        <ele>38.17</ele>
        <time>2020-07-10T12:03:48Z</time>
      </trkpt>
      <trkpt lat="47.84233" lon="-3.43717">
        <ele>38.44</ele>
        <time>2020-07-10T12:03:49Z</time>
      </trkpt>
      <trkpt lat="47.84237" lon="-3.43713">
        <ele>38.75</ele>
        <time>2020-07-10T12:03:50Z</time>
      </trkpt>
      <trkpt lat="47.84242" lon="-3.43708">
        <ele>39.06</ele>
        <time>2020-07-10T12:03:51Z</time>
      </trkpt>
      <trkpt lat="47.84246" lon="-3.43704">
        <ele>39.38</ele>
        <time>2020-07-10T12:03:52Z</time>
      </trkpt>
      <trkpt lat="47.84251" lon="-3.43699">
        <ele>39.71</ele>
        <time>2020-07-10T12:03:53Z</time>
      </trkpt>
      <trkpt lat="47.84255" lon="-3.43695">
        <ele>40.03</ele>
        <time>2020-07-10T12:03:54Z</time>
      </trkpt>
      <trkpt lat="47.84259" lon="-3.4369">
        <ele>40.24</ele>
        <time>2020-07-10T12:03:55Z</time>
      </trkpt>
      <trkpt lat="47.84263" lon="-3.43685">
        <ele>40.41</ele>
        <time>2020-07-10T12:03:56Z</time>
      </trkpt>
      <trkpt lat="47.84267" lon="-3.4368">
        <ele>40.56</ele>
        <time>2020-07-10T12:03:57Z</time>
      </trkpt>
      <trkpt lat="47.84271" lon="-3.43674">
        <ele>40.71</ele>
        <time>2020-07-10T12:03:58Z</time>
      </trkpt>
      <trkpt lat="47.84275" lon="-3.43669">
        <ele>40.85</ele>
        <time>2020-07-10T12:03:59Z</time>
      </trkpt>
      <trkpt lat="47.84279" lon="-3.43664">
        <ele>40.98</ele>
        <time>2020-07-10T12:04:00Z</time>
      </trkpt>
      <trkpt lat="47.84283" lon="-3.4366">
        <ele>41.13</ele>
        <time>2020-07-10T12:04:01Z</time>
      </trkpt>
      <trkpt lat="47.84288" lon="-3.43656">
        <ele>41.29</ele>
        <time>2020-07-10T12:04:02Z</time>
      </trkpt>
      <trkpt lat="47.84293" lon="-3.43653">
        <ele>41.47</ele>
        <time>2020-07-10T12:04:03Z</time>
      </trkpt>
      <trkpt lat="47.84298" lon="-3.43652">
        <ele>41.65</ele>
        <time>2020-07-10T12:04:04Z</time>
      </trkpt>
      <trkpt lat="47.84303" lon="-3.43651">
        <ele>41.82</ele>
        <time>2020-07-10T12:04:05Z</time>
      </trkpt>
      <trkpt lat="47.84308" lon="-3.43652">
        <ele>42</ele>
        <time>2020-07-10T12:04:06Z</time>
      </trkpt>
      <trkpt lat="47.84313" lon="-3.43654">
        <ele>42.18</ele>
        <time>2020-07-10T12:04:07Z</time>
      </trkpt>
      <trkpt lat="47.84317" lon="-3.43657">
        <ele>42.35</ele>
        <time>2020-07-10T12:04:08Z</time>
      </trkpt>
      <trkpt lat="47.84322" lon="-3.4366">
        <ele>42.52</ele>
        <time>2020-07-10T12:04:09Z</time>
      </trkpt>
      <trkpt lat="47.84326" lon="-3.43662">
        <ele>42.68</ele>
        <time>2020-07-10T12:04:10Z</time>
      </trkpt>
      <trkpt lat="47.84331" lon="-3.43665">
        <ele>42.84</ele>
        <time>2020-07-10T12:04:11Z</time>
      </trkpt>
      <trkpt lat="47.84336" lon="-3.43668">
        <ele>43.01</ele>
        <time>2020-07-10T12:04:12Z</time>
      </trkpt>
      <trkpt lat="47.8434" lon="-3.4367">
        <ele>43.18</ele>
        <time>2020-07-10T12:04:13Z</time>
      </trkpt>
      <trkpt lat="47.84345" lon="-3.43673">
        <ele>43.34</ele>
        <time>2020-07-10T12:04:14Z</time>
      </trkpt>
      <trkpt lat="47.8435" lon="-3.43675">
        <ele>43.51</ele>
        <time>2020-07-10T12:04:15Z</time>
      </trkpt>
      <trkpt lat="47.84354" lon="-3.43678">
        <ele>43.68</ele>
        <time>2020-07-10T12:04:16Z</time>
      </trkpt>
      <trkpt lat="47.84359" lon="-3.4368">
        <ele>43.85</ele>
        <time>2020-07-10T12:04:17Z</time>
      </trkpt>
      <trkpt lat="47.84364" lon="-3.43683">
        <ele>43.95</ele>
        <time>2020-07-10T12:04:18Z</time>
      </trkpt>
      <trkpt lat="47.84369" lon="-3.43685">
        <ele>43.99</ele>
        <time>2020-07-10T12:04:19Z</time>
      </trkpt>
      <trkpt lat="47.84374" lon="-3.43687">
        <ele>44</ele>
        <time>2020-07-10T12:04:20Z</time>
      </trkpt>
      <trkpt lat="47.84379" lon="-3.4369">
        <ele>44</ele>
        <time>2020-07-10T12:04:21Z</time>
      </trkpt>
      <trkpt lat="47.84383" lon="-3.43692">
        <ele>44</ele>
        <time>2020-07-10T12:04:22Z</time>
      </trkpt>
      <trkpt lat="47.84389" lon="-3.43695">
        <ele>44.01</ele>
        <time>2020-07-10T12:04:23Z</time>
      </trkpt>
      <trkpt lat="47.84393" lon="-3.43698">
        <ele>44.19</ele>
        <time>2020-07-10T12:04:24Z</time>
      </trkpt>
      <trkpt lat="47.84399" lon="-3.43701">
        <ele>44.4</ele>
        <time>2020-07-10T12:04:25Z</time>
      </trkpt>
      <trkpt lat="47.84404" lon="-3.43704">
        <ele>44.61</ele>
        <time>2020-07-10T12:04:26Z</time>
      </trkpt>
      <trkpt lat="47.84409" lon="-3.43707">
        <ele>44.78</ele>
        <time>2020-07-10T12:04:27Z</time>
      </trkpt>
      <trkpt lat="47.84413" lon="-3.43709">
        <ele>44.9</ele>
        <time>2020-07-10T12:04:28Z</time>
      </trkpt>
      <trkpt lat="47.84418" lon="-3.43711">
        <ele>44.96</ele>
        <time>2020-07-10T12:04:29Z</time>
      </trkpt>
      <trkpt lat="47.84422" lon="-3.43714">
        <ele>44.95</ele>
        <time>2020-07-10T12:04:30Z</time>
      </trkpt>
      <trkpt lat="47.84426" lon="-3.43716">
        <ele>44.93</ele>
        <time>2020-07-10T12:04:31Z</time>
      </trkpt>
      <trkpt lat="47.84429" lon="-3.43717">
        <ele>44.92</ele>
        <time>2020-07-10T12:04:32Z</time>
      </trkpt>
      <trkpt lat="47.84433" lon="-3.43719">
        <ele>44.93</ele>
        <time>2020-07-10T12:04:33Z</time>
      </trkpt>
      <trkpt lat="47.84438" lon="-3.43721">
        <ele>44.96</ele>
        <time>2020-07-10T12:04:34Z</time>
      </trkpt>
      <trkpt lat="47.84442" lon="-3.43723">
        <ele>44.99</ele>
        <time>2020-07-10T12:04:35Z</time>
      </trkpt>
      <trkpt lat="47.84446" lon="-3.43725">
        <ele>44.9</ele>
        <time>2020-07-10T12:04:36Z</time>
      </trkpt>
      <trkpt lat="47.84451" lon="-3.43727">
        <ele>44.61</ele>
        <time>2020-07-10T12:04:37Z</time>
      </trkpt>
      <trkpt lat="47.84456" lon="-3.4373">
        <ele>44.22</ele>
        <time>2020-07-10T12:04:38Z</time>
      </trkpt>
      <trkpt lat="47.84462" lon="-3.43732">
        <ele>43.74</ele>
        <time>2020-07-10T12:04:39Z</time>
      </trkpt>
      <trkpt lat="47.84468" lon="-3.43735">
        <ele>43.16</ele>
        <time>2020-07-10T12:04:40Z</time>
      </trkpt>
      <trkpt lat="47.84474" lon="-3.43737">
        <ele>42.54</ele>
        <time>2020-07-10T12:04:41Z</time>
      </trkpt>
      <trkpt lat="47.84482" lon="-3.4374">
        <ele>41.87</ele>
        <time>2020-07-10T12:04:42Z</time>
      </trkpt>
      <trkpt lat="47.84488" lon="-3.43742">
        <ele>41.22</ele>
        <time>2020-07-10T12:04:43Z</time>
      </trkpt>
      <trkpt lat="47.84496" lon="-3.43744">
        <ele>40.61</ele>
        <time>2020-07-10T12:04:44Z</time>
      </trkpt>
      <trkpt lat="47.84503" lon="-3.43746">
        <ele>40.12</ele>
        <time>2020-07-10T12:04:45Z</time>
      </trkpt>
      <trkpt lat="47.8451" lon="-3.43748">
        <ele>39.81</ele>
        <time>2020-07-10T12:04:46Z</time>
      </trkpt>
      <trkpt lat="47.84517" lon="-3.4375">
        <ele>39.52</ele>
        <time>2020-07-10T12:04:47Z</time>
      </trkpt>
      <trkpt lat="47.84524" lon="-3.43751">
        <ele>39.23</ele>
        <time>2020-07-10T12:04:48Z</time>
      </trkpt>
      <trkpt lat="47.8453" lon="-3.43752">
        <ele>39.07</ele>
        <time>2020-07-10T12:04:49Z</time>
      </trkpt>
      <trkpt lat="47.84536" lon="-3.43754">
        <ele>39.16</ele>
        <time>2020-07-10T12:04:50Z</time>
      </trkpt>
      <trkpt lat="47.84542" lon="-3.43756">
        <ele>39.33</ele>
        <time>2020-07-10T12:04:51Z</time>
      </trkpt>
      <trkpt lat="47.84547" lon="-3.43757">
        <ele>39.53</ele>
        <time>2020-07-10T12:04:52Z</time>
      </trkpt>
      <trkpt lat="47.84552" lon="-3.43759">
        <ele>39.74</ele>
        <time>2020-07-10T12:04:53Z</time>
      </trkpt>
      <trkpt lat="47.84557" lon="-3.4376">
        <ele>39.99</ele>
        <time>2020-07-10T12:04:54Z</time>
      </trkpt>
      <trkpt lat="47.84562" lon="-3.43761">
        <ele>40.31</ele>
        <time>2020-07-10T12:04:55Z</time>
      </trkpt>
      <trkpt lat="47.84567" lon="-3.43763">
        <ele>40.64</ele>
        <time>2020-07-10T12:04:56Z</time>
      </trkpt>
      <trkpt lat="47.84571" lon="-3.43764">
        <ele>40.97</ele>
        <time>2020-07-10T12:04:57Z</time>
      </trkpt>
      <trkpt lat="47.84576" lon="-3.43764">
        <ele>41.3</ele>
        <time>2020-07-10T12:04:58Z</time>
      </trkpt>
      <trkpt lat="47.8458" lon="-3.43764">
        <ele>41.62</ele>
        <time>2020-07-10T12:04:59Z</time>
      </trkpt>
      <trkpt lat="47.84584" lon="-3.43765">
        <ele>41.94</ele>
        <time>2020-07-10T12:05:00Z</time>
      </trkpt>
      <trkpt lat="47.84589" lon="-3.43766">
        <ele>42.24</ele>
        <time>2020-07-10T12:05:01Z</time>
      </trkpt>
      <trkpt lat="47.84593" lon="-3.43767">
        <ele>42.54</ele>
        <time>2020-07-10T12:05:02Z</time>
      </trkpt>
      <trkpt lat="47.84597" lon="-3.43767">
        <ele>42.84</ele>
        <time>2020-07-10T12:05:03Z</time>
      </trkpt>
      <trkpt lat="47.84601" lon="-3.43768">
        <ele>43.13</ele>
        <time>2020-07-10T12:05:04Z</time>
      </trkpt>
      <trkpt lat="47.84605" lon="-3.43769">
        <ele>43.42</ele>
        <time>2020-07-10T12:05:05Z</time>
      </trkpt>
      <trkpt lat="47.84609" lon="-3.4377">
        <ele>43.72</ele>
        <time>2020-07-10T12:05:06Z</time>
      </trkpt>
      <trkpt lat="47.84613" lon="-3.43771">
        <ele>43.97</ele>
        <time>2020-07-10T12:05:07Z</time>
      </trkpt>
      <trkpt lat="47.84617" lon="-3.43772">
        <ele>44.15</ele>
        <time>2020-07-10T12:05:08Z</time>
      </trkpt>
      <trkpt lat="47.84622" lon="-3.43773">
        <ele>44.32</ele>
        <time>2020-07-10T12:05:09Z</time>
      </trkpt>
      <trkpt lat="47.84626" lon="-3.43774">
        <ele>44.48</ele>
        <time>2020-07-10T12:05:10Z</time>
      </trkpt>
      <trkpt lat="47.84631" lon="-3.43775">
        <ele>44.64</ele>
        <time>2020-07-10T12:05:11Z</time>
      </trkpt>
      <trkpt lat="47.84636" lon="-3.43776">
        <ele>44.81</ele>
        <time>2020-07-10T12:05:12Z</time>
      </trkpt>
      <trkpt lat="47.8464" lon="-3.43778">
        <ele>44.94</ele>
        <time>2020-07-10T12:05:13Z</time>
      </trkpt>
      <trkpt lat="47.84644" lon="-3.43779">
        <ele>44.95</ele>
        <time>2020-07-10T12:05:14Z</time>
      </trkpt>
      <trkpt lat="47.84648" lon="-3.43781">
        <ele>44.94</ele>
        <time>2020-07-10T12:05:15Z</time>
      </trkpt>
      <trkpt lat="47.84652" lon="-3.43783">
        <ele>44.92</ele>
        <time>2020-07-10T12:05:16Z</time>
      </trkpt>
      <trkpt lat="47.84657" lon="-3.43783">
        <ele>44.92</ele>
        <time>2020-07-10T12:05:17Z</time>
      </trkpt>
      <trkpt lat="47.84661" lon="-3.43784">
        <ele>44.94</ele>
        <time>2020-07-10T12:05:18Z</time>
      </trkpt>
      <trkpt lat="47.84666" lon="-3.43786">
        <ele>44.98</ele>
        <time>2020-07-10T12:05:19Z</time>
      </trkpt>
      <trkpt lat="47.84671" lon="-3.43787">
        <ele>44.89</ele>
        <time>2020-07-10T12:05:20Z</time>
      </trkpt>
      <trkpt lat="47.84675" lon="-3.43789">
        <ele>44.75</ele>
        <time>2020-07-10T12:05:21Z</time>
      </trkpt>
      <trkpt lat="47.8468" lon="-3.4379">
        <ele>44.6</ele>
        <time>2020-07-10T12:05:22Z</time>
      </trkpt>
      <trkpt lat="47.84684" lon="-3.43791">
        <ele>44.43</ele>
        <time>2020-07-10T12:05:23Z</time>
      </trkpt>
      <trkpt lat="47.84689" lon="-3.43792">
        <ele>44.26</ele>
        <time>2020-07-10T12:05:24Z</time>
      </trkpt>
      <trkpt lat="47.84694" lon="-3.43793">
        <ele>44.08</ele>
        <time>2020-07-10T12:05:25Z</time>
      </trkpt>
      <trkpt lat="47.84699" lon="-3.43794">
        <ele>44.02</ele>
        <time>2020-07-10T12:05:26Z</time>
      </trkpt>
      <trkpt lat="47.84705" lon="-3.43795">
        <ele>44.01</ele>
        <time>2020-07-10T12:05:27Z</time>
      </trkpt>
      <trkpt lat="47.8471" lon="-3.43797">
        <ele>44</ele>
        <time>2020-07-10T12:05:28Z</time>
      </trkpt>
      <trkpt lat="47.84715" lon="-3.43798">
        <ele>44</ele>
        <time>2020-07-10T12:05:29Z</time>
      </trkpt>
      <trkpt lat="47.84721" lon="-3.438">
        <ele>44</ele>
        <time>2020-07-10T12:05:30Z</time>
      </trkpt>
      <trkpt lat="47.84726" lon="-3.43801">
        <ele>44</ele>
        <time>2020-07-10T12:05:31Z</time>
      </trkpt>
      <trkpt lat="47.84731" lon="-3.43802">
        <ele>44</ele>
        <time>2020-07-10T12:05:32Z</time>
      </trkpt>
      <trkpt lat="47.84736" lon="-3.43803">
        <ele>44</ele>
        <time>2020-07-10T12:05:33Z</time>
      </trkpt>
      <trkpt lat="47.84741" lon="-3.43804">
        <ele>44</ele>
        <time>2020-07-10T12:05:34Z</time>
      </trkpt>
      <trkpt lat="47.84747" lon="-3.43806">
        <ele>44</ele>
        <time>2020-07-10T12:05:35Z</time>
      </trkpt>
      <trkpt lat="47.84752" lon="-3.43807">
        <ele>43.97</ele>
        <time>2020-07-10T12:05:36Z</time>
      </trkpt>
      <trkpt lat="47.84758" lon="-3.43808">
        <ele>43.92</ele>
        <time>2020-07-10T12:05:37Z</time>
      </trkpt>
      <trkpt lat="47.84763" lon="-3.4381">
        <ele>43.87</ele>
        <time>2020-07-10T12:05:38Z</time>
      </trkpt>
      <trkpt lat="47.84768" lon="-3.43811">
        <ele>43.82</ele>
        <time>2020-07-10T12:05:39Z</time>
      </trkpt>
      <trkpt lat="47.84774" lon="-3.43813">
        <ele>43.77</ele>
        <time>2020-07-10T12:05:40Z</time>
      </trkpt>
      <trkpt lat="47.8478" lon="-3.43814">
        <ele>43.72</ele>
        <time>2020-07-10T12:05:41Z</time>
      </trkpt>
      <trkpt lat="47.84785" lon="-3.43816">
        <ele>43.66</ele>
        <time>2020-07-10T12:05:42Z</time>
      </trkpt>
      <trkpt lat="47.84791" lon="-3.43817">
        <ele>43.61</ele>
        <time>2020-07-10T12:05:43Z</time>
      </trkpt>
      <trkpt lat="47.84796" lon="-3.43819">
        <ele>43.56</ele>
        <time>2020-07-10T12:05:44Z</time>
      </trkpt>
      <trkpt lat="47.84801" lon="-3.4382">
        <ele>43.5</ele>
        <time>2020-07-10T12:05:45Z</time>
      </trkpt>
      <trkpt lat="47.84806" lon="-3.43822">
        <ele>43.44</ele>
        <time>2020-07-10T12:05:46Z</time>
      </trkpt>
      <trkpt lat="47.84811" lon="-3.43823">
        <ele>43.39</ele>
        <time>2020-07-10T12:05:47Z</time>
      </trkpt>
      <trkpt lat="47.84816" lon="-3.43825">
        <ele>43.32</ele>
        <time>2020-07-10T12:05:48Z</time>
      </trkpt>
      <trkpt lat="47.84821" lon="-3.43828">
        <ele>43.24</ele>
        <time>2020-07-10T12:05:49Z</time>
      </trkpt>
      <trkpt lat="47.84826" lon="-3.43831">
        <ele>43.13</ele>
        <time>2020-07-10T12:05:50Z</time>
      </trkpt>
      <trkpt lat="47.8483" lon="-3.43836">
        <ele>42.97</ele>
        <time>2020-07-10T12:05:51Z</time>
      </trkpt>
      <trkpt lat="47.84834" lon="-3.43842">
        <ele>42.81</ele>
        <time>2020-07-10T12:05:52Z</time>
      </trkpt>
      <trkpt lat="47.84838" lon="-3.43848">
        <ele>42.75</ele>
        <time>2020-07-10T12:05:53Z</time>
      </trkpt>
      <trkpt lat="47.84841" lon="-3.43855">
        <ele>42.74</ele>
        <time>2020-07-10T12:05:54Z</time>
      </trkpt>
      <trkpt lat="47.84844" lon="-3.43862">
        <ele>42.76</ele>
        <time>2020-07-10T12:05:55Z</time>
      </trkpt>
      <trkpt lat="47.84848" lon="-3.43868">
        <ele>42.68</ele>
        <time>2020-07-10T12:05:56Z</time>
      </trkpt>
      <trkpt lat="47.84851" lon="-3.43875">
        <ele>42.53</ele>
        <time>2020-07-10T12:05:57Z</time>
      </trkpt>
      <trkpt lat="47.84855" lon="-3.43881">
        <ele>42.36</ele>
        <time>2020-07-10T12:05:58Z</time>
      </trkpt>
      <trkpt lat="47.84859" lon="-3.43887">
        <ele>42.14</ele>
        <time>2020-07-10T12:05:59Z</time>
      </trkpt>
      <trkpt lat="47.84863" lon="-3.43894">
        <ele>42</ele>
        <time>2020-07-10T12:06:00Z</time>
      </trkpt>
      <trkpt lat="47.84866" lon="-3.43901">
        <ele>41.97</ele>
        <time>2020-07-10T12:06:01Z</time>
      </trkpt>
      <trkpt lat="47.8487" lon="-3.43907">
        <ele>42</ele>
        <time>2020-07-10T12:06:02Z</time>
      </trkpt>
      <trkpt lat="47.84875" lon="-3.43915">
        <ele>42.03</ele>
        <time>2020-07-10T12:06:03Z</time>
      </trkpt>
      <trkpt lat="47.84879" lon="-3.43922">
        <ele>41.98</ele>
        <time>2020-07-10T12:06:04Z</time>
      </trkpt>
      <trkpt lat="47.84883" lon="-3.43928">
        <ele>41.86</ele>
        <time>2020-07-10T12:06:05Z</time>
      </trkpt>
      <trkpt lat="47.84887" lon="-3.43935">
        <ele>41.66</ele>
        <time>2020-07-10T12:06:06Z</time>
      </trkpt>
      <trkpt lat="47.84891" lon="-3.43941">
        <ele>41.45</ele>
        <time>2020-07-10T12:06:07Z</time>
      </trkpt>
      <trkpt lat="47.84895" lon="-3.43947">
        <ele>41.36</ele>
        <time>2020-07-10T12:06:08Z</time>
      </trkpt>
      <trkpt lat="47.84898" lon="-3.43954">
        <ele>41.36</ele>
        <time>2020-07-10T12:06:09Z</time>
      </trkpt>
      <trkpt lat="47.84902" lon="-3.4396">
        <ele>41.39</ele>
        <time>2020-07-10T12:06:10Z</time>
      </trkpt>
      <trkpt lat="47.84906" lon="-3.43966">
        <ele>41.44</ele>
        <time>2020-07-10T12:06:11Z</time>
      </trkpt>
      <trkpt lat="47.8491" lon="-3.43972">
        <ele>41.48</ele>
        <time>2020-07-10T12:06:12Z</time>
      </trkpt>
      <trkpt lat="47.84913" lon="-3.43979">
        <ele>41.36</ele>
        <time>2020-07-10T12:06:13Z</time>
      </trkpt>
      <trkpt lat="47.84916" lon="-3.43985">
        <ele>41.15</ele>
        <time>2020-07-10T12:06:14Z</time>
      </trkpt>
      <trkpt lat="47.84919" lon="-3.43991">
        <ele>40.83</ele>
        <time>2020-07-10T12:06:15Z</time>
      </trkpt>
      <trkpt lat="47.84923" lon="-3.43998">
        <ele>40.52</ele>
        <time>2020-07-10T12:06:16Z</time>
      </trkpt>
      <trkpt lat="47.84926" lon="-3.44004">
        <ele>40.33</ele>
        <time>2020-07-10T12:06:17Z</time>
      </trkpt>
      <trkpt lat="47.84929" lon="-3.4401">
        <ele>40.28</ele>
        <time>2020-07-10T12:06:18Z</time>
      </trkpt>
      <trkpt lat="47.84933" lon="-3.44016">
        <ele>40.34</ele>
        <time>2020-07-10T12:06:19Z</time>
      </trkpt>
      <trkpt lat="47.84936" lon="-3.44022">
        <ele>40.44</ele>
        <time>2020-07-10T12:06:20Z</time>
      </trkpt>
      <trkpt lat="47.8494" lon="-3.44027">
        <ele>40.59</ele>
        <time>2020-07-10T12:06:21Z</time>
      </trkpt>
      <trkpt lat="47.84943" lon="-3.44032">
        <ele>40.8</ele>
        <time>2020-07-10T12:06:22Z</time>
      </trkpt>
      <trkpt lat="47.84946" lon="-3.44036">
        <ele>40.98</ele>
        <time>2020-07-10T12:06:23Z</time>
      </trkpt>
      <trkpt lat="47.84949" lon="-3.44041">
        <ele>41.11</ele>
        <time>2020-07-10T12:06:24Z</time>
      </trkpt>
      <trkpt lat="47.84951" lon="-3.44045">
        <ele>41.2</ele>
        <time>2020-07-10T12:06:25Z</time>
      </trkpt>
      <trkpt lat="47.84954" lon="-3.44049">
        <ele>41.3</ele>
        <time>2020-07-10T12:06:26Z</time>
      </trkpt>
      <trkpt lat="47.84956" lon="-3.44054">
        <ele>41.38</ele>
        <time>2020-07-10T12:06:27Z</time>
      </trkpt>
      <trkpt lat="47.84958" lon="-3.44059">
        <ele>41.51</ele>
        <time>2020-07-10T12:06:28Z</time>
      </trkpt>
      <trkpt lat="47.84961" lon="-3.44063">
        <ele>41.64</ele>
        <time>2020-07-10T12:06:29Z</time>
      </trkpt>
      <trkpt lat="47.84963" lon="-3.44069">
        <ele>41.76</ele>
        <time>2020-07-10T12:06:30Z</time>
      </trkpt>
      <trkpt lat="47.84966" lon="-3.44074">
        <ele>41.88</ele>
        <time>2020-07-10T12:06:31Z</time>
      </trkpt>
      <trkpt lat="47.84969" lon="-3.4408">
        <ele>41.95</ele>
        <time>2020-07-10T12:06:32Z</time>
      </trkpt>
      <trkpt lat="47.84971" lon="-3.44085">
        <ele>42.03</ele>
        <time>2020-07-10T12:06:33Z</time>
      </trkpt>
      <trkpt lat="47.84973" lon="-3.44089">
        <ele>42.18</ele>
        <time>2020-07-10T12:06:34Z</time>
      </trkpt>
      <trkpt lat="47.84974" lon="-3.44094">
        <ele>42.4</ele>
        <time>2020-07-10T12:06:35Z</time>
      </trkpt>
      <trkpt lat="47.84976" lon="-3.44099">
        <ele>42.67</ele>
        <time>2020-07-10T12:06:36Z</time>
      </trkpt>
      <trkpt lat="47.84978" lon="-3.44105">
        <ele>42.93</ele>
        <time>2020-07-10T12:06:37Z</time>
      </trkpt>
      <trkpt lat="47.84981" lon="-3.44109">
        <ele>43.17</ele>
        <time>2020-07-10T12:06:38Z</time>
      </trkpt>
      <trkpt lat="47.84983" lon="-3.44114">
        <ele>43.38</ele>
        <time>2020-07-10T12:06:39Z</time>
      </trkpt>
      <trkpt lat="47.84986" lon="-3.4412">
        <ele>43.57</ele>
        <time>2020-07-10T12:06:40Z</time>
      </trkpt>
      <trkpt lat="47.84989" lon="-3.44124">
        <ele>43.73</ele>
        <time>2020-07-10T12:06:41Z</time>
      </trkpt>
      <trkpt lat="47.84992" lon="-3.4413">
        <ele>43.85</ele>
        <time>2020-07-10T12:06:42Z</time>
      </trkpt>
      <trkpt lat="47.84995" lon="-3.44135">
        <ele>43.94</ele>
        <time>2020-07-10T12:06:43Z</time>
      </trkpt>
      <trkpt lat="47.84998" lon="-3.4414">
        <ele>44.01</ele>
        <time>2020-07-10T12:06:44Z</time>
      </trkpt>
      <trkpt lat="47.85001" lon="-3.44145">
        <ele>44.21</ele>
        <time>2020-07-10T12:06:45Z</time>
      </trkpt>
      <trkpt lat="47.85004" lon="-3.4415">
        <ele>44.52</ele>
        <time>2020-07-10T12:06:46Z</time>
      </trkpt>
      <trkpt lat="47.85007" lon="-3.44155">
        <ele>44.83</ele>
        <time>2020-07-10T12:06:47Z</time>
      </trkpt>
      <trkpt lat="47.85011" lon="-3.4416">
        <ele>45.11</ele>
        <time>2020-07-10T12:06:48Z</time>
      </trkpt>
      <trkpt lat="47.85013" lon="-3.44164">
        <ele>45.32</ele>
        <time>2020-07-10T12:06:49Z</time>
      </trkpt>
      <trkpt lat="47.85016" lon="-3.44169">
        <ele>45.49</ele>
        <time>2020-07-10T12:06:50Z</time>
      </trkpt>
      <trkpt lat="47.85018" lon="-3.44174">
        <ele>45.61</ele>
        <time>2020-07-10T12:06:51Z</time>
      </trkpt>
      <trkpt lat="47.85022" lon="-3.44181">
        <ele>45.74</ele>
        <time>2020-07-10T12:06:52Z</time>
      </trkpt>
      <trkpt lat="47.85025" lon="-3.44186">
        <ele>45.86</ele>
        <time>2020-07-10T12:06:53Z</time>
      </trkpt>
      <trkpt lat="47.85029" lon="-3.44192">
        <ele>45.99</ele>
        <time>2020-07-10T12:06:54Z</time>
      </trkpt>
      <trkpt lat="47.85033" lon="-3.44198">
        <ele>46.2</ele>
        <time>2020-07-10T12:06:55Z</time>
      </trkpt>
      <trkpt lat="47.85037" lon="-3.44204">
        <ele>46.44</ele>
        <time>2020-07-10T12:06:56Z</time>
      </trkpt>
      <trkpt lat="47.85041" lon="-3.44209">
        <ele>46.66</ele>
        <time>2020-07-10T12:06:57Z</time>
      </trkpt>
      <trkpt lat="47.85044" lon="-3.44214">
        <ele>46.82</ele>
        <time>2020-07-10T12:06:58Z</time>
      </trkpt>
      <trkpt lat="47.85048" lon="-3.4422">
        <ele>46.93</ele>
        <time>2020-07-10T12:06:59Z</time>
      </trkpt>
      <trkpt lat="47.85051" lon="-3.44224">
        <ele>46.98</ele>
        <time>2020-07-10T12:07:00Z</time>
      </trkpt>
      <trkpt lat="47.85054" lon="-3.44229">
        <ele>46.99</ele>
        <time>2020-07-10T12:07:01Z</time>
      </trkpt>
      <trkpt lat="47.85057" lon="-3.44233">
        <ele>47.03</ele>
        <time>2020-07-10T12:07:02Z</time>
      </trkpt>
      <trkpt lat="47.8506" lon="-3.44237">
        <ele>47.12</ele>
        <time>2020-07-10T12:07:03Z</time>
      </trkpt>
      <trkpt lat="47.85063" lon="-3.44241">
        <ele>47.22</ele>
        <time>2020-07-10T12:07:04Z</time>
      </trkpt>
      <trkpt lat="47.85065" lon="-3.44245">
        <ele>47.31</ele>
        <time>2020-07-10T12:07:05Z</time>
      </trkpt>
      <trkpt lat="47.85069" lon="-3.44247">
        <ele>47.43</ele>
        <time>2020-07-10T12:07:06Z</time>
      </trkpt>
      <trkpt lat="47.85071" lon="-3.44248">
        <ele>47.53</ele>
        <time>2020-07-10T12:07:07Z</time>
      </trkpt>
      <trkpt lat="47.85074" lon="-3.44247">
        <ele>47.62</ele>
        <time>2020-07-10T12:07:08Z</time>
      </trkpt>
      <trkpt lat="47.85077" lon="-3.44245">
        <ele>47.72</ele>
        <time>2020-07-10T12:07:09Z</time>
      </trkpt>
      <trkpt lat="47.8508" lon="-3.44242">
        <ele>47.83</ele>
        <time>2020-07-10T12:07:10Z</time>
      </trkpt>
      <trkpt lat="47.85083" lon="-3.44239">
        <ele>47.94</ele>
        <time>2020-07-10T12:07:11Z</time>
      </trkpt>
      <trkpt lat="47.85086" lon="-3.44237">
        <ele>48.04</ele>
        <time>2020-07-10T12:07:12Z</time>
      </trkpt>
      <trkpt lat="47.85087" lon="-3.44237">
        <ele>48.1</ele>
        <time>2020-07-10T12:07:13Z</time>
      </trkpt>
      <trkpt lat="47.85087" lon="-3.44238">
        <ele>48.13</ele>
        <time>2020-07-10T12:07:14Z</time>
      </trkpt>
      <trkpt lat="47.85087" lon="-3.44239">
        <ele>48.13</ele>
        <time>2020-07-10T12:07:15Z</time>
      </trkpt>
      <trkpt lat="47.85086" lon="-3.4424">
        <ele>48.11</ele>
        <time>2020-07-10T12:07:16Z</time>
      </trkpt>
      <trkpt lat="47.85086" lon="-3.44242">
        <ele>48.1</ele>
        <time>2020-07-10T12:07:17Z</time>
      </trkpt>
      <trkpt lat="47.85084" lon="-3.44243">
        <ele>48.05</ele>
        <time>2020-07-10T12:07:18Z</time>
      </trkpt>
      <trkpt lat="47.85082" lon="-3.44244">
        <ele>47.99</ele>
        <time>2020-07-10T12:07:19Z</time>
      </trkpt>
      <trkpt lat="47.8508" lon="-3.44246">
        <ele>47.92</ele>
        <time>2020-07-10T12:07:20Z</time>
      </trkpt>
      <trkpt lat="47.85079" lon="-3.44249">
        <ele>47.86</ele>
        <time>2020-07-10T12:07:21Z</time>
      </trkpt>
      <trkpt lat="47.85079" lon="-3.44254">
        <ele>47.94</ele>
        <time>2020-07-10T12:07:22Z</time>
      </trkpt>
      <trkpt lat="47.8508" lon="-3.44259">
        <ele>48.12</ele>
        <time>2020-07-10T12:07:23Z</time>
      </trkpt>
      <trkpt lat="47.85082" lon="-3.44265">
        <ele>48.37</ele>
        <time>2020-07-10T12:07:24Z</time>
      </trkpt>
      <trkpt lat="47.85084" lon="-3.4427">
        <ele>48.63</ele>
        <time>2020-07-10T12:07:25Z</time>
      </trkpt>
      <trkpt lat="47.85086" lon="-3.44276">
        <ele>48.84</ele>
        <time>2020-07-10T12:07:26Z</time>
      </trkpt>
      <trkpt lat="47.85089" lon="-3.44281">
        <ele>48.95</ele>
        <time>2020-07-10T12:07:27Z</time>
      </trkpt>
      <trkpt lat="47.85091" lon="-3.44287">
        <ele>48.99</ele>
        <time>2020-07-10T12:07:28Z</time>
      </trkpt>
      <trkpt lat="47.85092" lon="-3.44294">
        <ele>49</ele>
        <time>2020-07-10T12:07:29Z</time>
      </trkpt>
      <trkpt lat="47.85093" lon="-3.44301">
        <ele>49</ele>
        <time>2020-07-10T12:07:30Z</time>
      </trkpt>
      <trkpt lat="47.85093" lon="-3.44309">
        <ele>49</ele>
        <time>2020-07-10T12:07:31Z</time>
      </trkpt>
      <trkpt lat="47.85094" lon="-3.44316">
        <ele>49</ele>
        <time>2020-07-10T12:07:32Z</time>
      </trkpt>
      <trkpt lat="47.85094" lon="-3.44323">
        <ele>49</ele>
        <time>2020-07-10T12:07:33Z</time>
      </trkpt>
      <trkpt lat="47.85095" lon="-3.44331">
        <ele>49</ele>
        <time>2020-07-10T12:07:34Z</time>
      </trkpt>
      <trkpt lat="47.85095" lon="-3.44338">
        <ele>49</ele>
        <time>2020-07-10T12:07:35Z</time>
      </trkpt>
      <trkpt lat="47.85095" lon="-3.44345">
        <ele>49</ele>
        <time>2020-07-10T12:07:36Z</time>
      </trkpt>
      <trkpt lat="47.85095" lon="-3.44352">
        <ele>49</ele>
        <time>2020-07-10T12:07:37Z</time>
      </trkpt>
      <trkpt lat="47.85095" lon="-3.44359">
        <ele>49</ele>
        <time>2020-07-10T12:07:38Z</time>
      </trkpt>
      <trkpt lat="47.85095" lon="-3.44365">
        <ele>49.04</ele>
        <time>2020-07-10T12:07:39Z</time>
      </trkpt>
      <trkpt lat="47.85095" lon="-3.44372">
        <ele>49.13</ele>
        <time>2020-07-10T12:07:40Z</time>
      </trkpt>
      <trkpt lat="47.85096" lon="-3.44378">
        <ele>49.23</ele>
        <time>2020-07-10T12:07:41Z</time>
      </trkpt>
      <trkpt lat="47.85099" lon="-3.44383">
        <ele>49.37</ele>
        <time>2020-07-10T12:07:42Z</time>
      </trkpt>
      <trkpt lat="47.85102" lon="-3.44384">
        <ele>49.51</ele>
        <time>2020-07-10T12:07:43Z</time>
      </trkpt>
      <trkpt lat="47.85108" lon="-3.44383">
        <ele>49.63</ele>
        <time>2020-07-10T12:07:44Z</time>
      </trkpt>
      <trkpt lat="47.85113" lon="-3.4438">
        <ele>49.68</ele>
        <time>2020-07-10T12:07:45Z</time>
      </trkpt>
      <trkpt lat="47.85119" lon="-3.44377">
        <ele>49.69</ele>
        <time>2020-07-10T12:07:46Z</time>
      </trkpt>
      <trkpt lat="47.85124" lon="-3.44374">
        <ele>49.71</ele>
        <time>2020-07-10T12:07:47Z</time>
      </trkpt>
      <trkpt lat="47.85129" lon="-3.44371">
        <ele>49.75</ele>
        <time>2020-07-10T12:07:48Z</time>
      </trkpt>
      <trkpt lat="47.85135" lon="-3.44368">
        <ele>49.84</ele>
        <time>2020-07-10T12:07:49Z</time>
      </trkpt>
      <trkpt lat="47.85139" lon="-3.44365">
        <ele>49.96</ele>
        <time>2020-07-10T12:07:50Z</time>
      </trkpt>
      <trkpt lat="47.85145" lon="-3.44363">
        <ele>50</ele>
        <time>2020-07-10T12:07:51Z</time>
      </trkpt>
      <trkpt lat="47.8515" lon="-3.44361">
        <ele>50</ele>
        <time>2020-07-10T12:07:52Z</time>
      </trkpt>
      <trkpt lat="47.85154" lon="-3.44358">
        <ele>50</ele>
        <time>2020-07-10T12:07:53Z</time>
      </trkpt>
      <trkpt lat="47.85159" lon="-3.44355">
        <ele>50</ele>
        <time>2020-07-10T12:07:54Z</time>
      </trkpt>
      <trkpt lat="47.85164" lon="-3.44352">
        <ele>50</ele>
        <time>2020-07-10T12:07:55Z</time>
      </trkpt>
      <trkpt lat="47.85169" lon="-3.4435">
        <ele>50.06</ele>
        <time>2020-07-10T12:07:56Z</time>
      </trkpt>
      <trkpt lat="47.85174" lon="-3.44348">
        <ele>50.19</ele>
        <time>2020-07-10T12:07:57Z</time>
      </trkpt>
      <trkpt lat="47.85178" lon="-3.44345">
        <ele>50.35</ele>
        <time>2020-07-10T12:07:58Z</time>
      </trkpt>
      <trkpt lat="47.85183" lon="-3.44343">
        <ele>50.52</ele>
        <time>2020-07-10T12:07:59Z</time>
      </trkpt>
      <trkpt lat="47.85188" lon="-3.4434">
        <ele>50.69</ele>
        <time>2020-07-10T12:08:00Z</time>
      </trkpt>
      <trkpt lat="47.85193" lon="-3.44338">
        <ele>50.86</ele>
        <time>2020-07-10T12:08:01Z</time>
      </trkpt>
      <trkpt lat="47.85197" lon="-3.44335">
        <ele>50.96</ele>
        <time>2020-07-10T12:08:02Z</time>
      </trkpt>
      <trkpt lat="47.85202" lon="-3.44333">
        <ele>50.98</ele>
        <time>2020-07-10T12:08:03Z</time>
      </trkpt>
      <trkpt lat="47.85207" lon="-3.4433">
        <ele>50.95</ele>
        <time>2020-07-10T12:08:04Z</time>
      </trkpt>
      <trkpt lat="47.85213" lon="-3.44328">
        <ele>50.93</ele>
        <time>2020-07-10T12:08:05Z</time>
      </trkpt>
      <trkpt lat="47.85218" lon="-3.44325">
        <ele>50.94</ele>
        <time>2020-07-10T12:08:06Z</time>
      </trkpt>
      <trkpt lat="47.85223" lon="-3.44322">
        <ele>50.99</ele>
        <time>2020-07-10T12:08:07Z</time>
      </trkpt>
      <trkpt lat="47.85227" lon="-3.44319">
        <ele>51.06</ele>
        <time>2020-07-10T12:08:08Z</time>
      </trkpt>
      <trkpt lat="47.85232" lon="-3.44317">
        <ele>51.12</ele>
        <time>2020-07-10T12:08:09Z</time>
      </trkpt>
      <trkpt lat="47.85237" lon="-3.44315">
        <ele>51.16</ele>
        <time>2020-07-10T12:08:10Z</time>
      </trkpt>
      <trkpt lat="47.85242" lon="-3.44312">
        <ele>51.17</ele>
        <time>2020-07-10T12:08:11Z</time>
      </trkpt>
      <trkpt lat="47.85247" lon="-3.4431">
        <ele>51.15</ele>
        <time>2020-07-10T12:08:12Z</time>
      </trkpt>
      <trkpt lat="47.85252" lon="-3.44308">
        <ele>51.15</ele>
        <time>2020-07-10T12:08:13Z</time>
      </trkpt>
      <trkpt lat="47.85257" lon="-3.44306">
        <ele>51.24</ele>
        <time>2020-07-10T12:08:14Z</time>
      </trkpt>
      <trkpt lat="47.85263" lon="-3.44305">
        <ele>51.39</ele>
        <time>2020-07-10T12:08:15Z</time>
      </trkpt>
      <trkpt lat="47.85267" lon="-3.44304">
        <ele>51.56</ele>
        <time>2020-07-10T12:08:16Z</time>
      </trkpt>
      <trkpt lat="47.85273" lon="-3.44302">
        <ele>51.74</ele>
        <time>2020-07-10T12:08:17Z</time>
      </trkpt>
      <trkpt lat="47.85278" lon="-3.443">
        <ele>51.92</ele>
        <time>2020-07-10T12:08:18Z</time>
      </trkpt>
      <trkpt lat="47.85283" lon="-3.44298">
        <ele>51.98</ele>
        <time>2020-07-10T12:08:19Z</time>
      </trkpt>
      <trkpt lat="47.85288" lon="-3.44296">
        <ele>51.99</ele>
        <time>2020-07-10T12:08:20Z</time>
      </trkpt>
      <trkpt lat="47.85293" lon="-3.44294">
        <ele>52</ele>
        <time>2020-07-10T12:08:21Z</time>
      </trkpt>
      <trkpt lat="47.85299" lon="-3.44291">
        <ele>52</ele>
        <time>2020-07-10T12:08:22Z</time>
      </trkpt>
      <trkpt lat="47.85304" lon="-3.44289">
        <ele>52</ele>
        <time>2020-07-10T12:08:23Z</time>
      </trkpt>
      <trkpt lat="47.8531" lon="-3.44287">
        <ele>52.1</ele>
        <time>2020-07-10T12:08:24Z</time>
      </trkpt>
      <trkpt lat="47.85315" lon="-3.44285">
        <ele>52.27</ele>
        <time>2020-07-10T12:08:25Z</time>
      </trkpt>
      <trkpt lat="47.8532" lon="-3.44284">
        <ele>52.44</ele>
        <time>2020-07-10T12:08:26Z</time>
      </trkpt>
      <trkpt lat="47.85325" lon="-3.44282">
        <ele>52.62</ele>
        <time>2020-07-10T12:08:27Z</time>
      </trkpt>
      <trkpt lat="47.8533" lon="-3.4428">
        <ele>52.79</ele>
        <time>2020-07-10T12:08:28Z</time>
      </trkpt>
      <trkpt lat="47.85335" lon="-3.44278">
        <ele>53.01</ele>
        <time>2020-07-10T12:08:29Z</time>
      </trkpt>
      <trkpt lat="47.8534" lon="-3.44276">
        <ele>53.4</ele>
        <time>2020-07-10T12:08:30Z</time>
      </trkpt>
      <trkpt lat="47.85346" lon="-3.44274">
        <ele>53.84</ele>
        <time>2020-07-10T12:08:31Z</time>
      </trkpt>
      <trkpt lat="47.85351" lon="-3.44272">
        <ele>54.27</ele>
        <time>2020-07-10T12:08:32Z</time>
      </trkpt>
      <trkpt lat="47.85356" lon="-3.44271">
        <ele>54.69</ele>
        <time>2020-07-10T12:08:33Z</time>
      </trkpt>
      <trkpt lat="47.85361" lon="-3.4427">
        <ele>55.08</ele>
        <time>2020-07-10T12:08:34Z</time>
      </trkpt>
      <trkpt lat="47.85365" lon="-3.4427">
        <ele>55.41</ele>
        <time>2020-07-10T12:08:35Z</time>
      </trkpt>
      <trkpt lat="47.85369" lon="-3.44269">
        <ele>55.74</ele>
        <time>2020-07-10T12:08:36Z</time>
      </trkpt>
      <trkpt lat="47.85374" lon="-3.44269">
        <ele>56.08</ele>
        <time>2020-07-10T12:08:37Z</time>
      </trkpt>
      <trkpt lat="47.85379" lon="-3.44269">
        <ele>56.43</ele>
        <time>2020-07-10T12:08:38Z</time>
      </trkpt>
      <trkpt lat="47.85384" lon="-3.44269">
        <ele>56.79</ele>
        <time>2020-07-10T12:08:39Z</time>
      </trkpt>
      <trkpt lat="47.85388" lon="-3.44269">
        <ele>57.13</ele>
        <time>2020-07-10T12:08:40Z</time>
      </trkpt>
      <trkpt lat="47.85393" lon="-3.4427">
        <ele>57.13</ele>
        <time>2020-07-10T12:08:41Z</time>
      </trkpt>
      <trkpt lat="47.85398" lon="-3.44271">
        <ele>57</ele>
        <time>2020-07-10T12:08:42Z</time>
      </trkpt>
      <trkpt lat="47.85402" lon="-3.44271">
        <ele>56.83</ele>
        <time>2020-07-10T12:08:43Z</time>
      </trkpt>
      <trkpt lat="47.85406" lon="-3.44272">
        <ele>56.66</ele>
        <time>2020-07-10T12:08:44Z</time>
      </trkpt>
      <trkpt lat="47.8541" lon="-3.44273">
        <ele>56.48</ele>
        <time>2020-07-10T12:08:45Z</time>
      </trkpt>
      <trkpt lat="47.85415" lon="-3.44274">
        <ele>56.27</ele>
        <time>2020-07-10T12:08:46Z</time>
      </trkpt>
      <trkpt lat="47.8542" lon="-3.44275">
        <ele>55.89</ele>
        <time>2020-07-10T12:08:47Z</time>
      </trkpt>
      <trkpt lat="47.85426" lon="-3.44276">
        <ele>55.33</ele>
        <time>2020-07-10T12:08:48Z</time>
      </trkpt>
      <trkpt lat="47.85431" lon="-3.44277">
        <ele>54.7</ele>
        <time>2020-07-10T12:08:49Z</time>
      </trkpt>
      <trkpt lat="47.85438" lon="-3.44278">
        <ele>53.97</ele>
        <time>2020-07-10T12:08:50Z</time>
      </trkpt>
      <trkpt lat="47.85445" lon="-3.44279">
        <ele>53.24</ele>
        <time>2020-07-10T12:08:51Z</time>
      </trkpt>
      <trkpt lat="47.85453" lon="-3.4428">
        <ele>52.43</ele>
        <time>2020-07-10T12:08:52Z</time>
      </trkpt>
      <trkpt lat="47.8546" lon="-3.44281">
        <ele>51.62</ele>
        <time>2020-07-10T12:08:53Z</time>
      </trkpt>
      <trkpt lat="47.85468" lon="-3.44282">
        <ele>50.79</ele>
        <time>2020-07-10T12:08:54Z</time>
      </trkpt>
      <trkpt lat="47.85476" lon="-3.44283">
        <ele>50.13</ele>
        <time>2020-07-10T12:08:55Z</time>
      </trkpt>
      <trkpt lat="47.85485" lon="-3.44284">
        <ele>49.72</ele>
        <time>2020-07-10T12:08:56Z</time>
      </trkpt>
      <trkpt lat="47.85493" lon="-3.44285">
        <ele>49.39</ele>
        <time>2020-07-10T12:08:57Z</time>
      </trkpt>
      <trkpt lat="47.85502" lon="-3.44287">
        <ele>49.07</ele>
        <time>2020-07-10T12:08:58Z</time>
      </trkpt>
      <trkpt lat="47.8551" lon="-3.44288">
        <ele>48.77</ele>
        <time>2020-07-10T12:08:59Z</time>
      </trkpt>
      <trkpt lat="47.85518" lon="-3.44289">
        <ele>48.48</ele>
        <time>2020-07-10T12:09:00Z</time>
      </trkpt>
      <trkpt lat="47.85526" lon="-3.44289">
        <ele>48.2</ele>
        <time>2020-07-10T12:09:01Z</time>
      </trkpt>
      <trkpt lat="47.85533" lon="-3.4429">
        <ele>48.14</ele>
        <time>2020-07-10T12:09:02Z</time>
      </trkpt>
      <trkpt lat="47.85541" lon="-3.44291">
        <ele>48.22</ele>
        <time>2020-07-10T12:09:03Z</time>
      </trkpt>
      <trkpt lat="47.85548" lon="-3.44292">
        <ele>48.32</ele>
        <time>2020-07-10T12:09:04Z</time>
      </trkpt>
      <trkpt lat="47.85555" lon="-3.44292">
        <ele>48.42</ele>
        <time>2020-07-10T12:09:05Z</time>
      </trkpt>
      <trkpt lat="47.85561" lon="-3.44293">
        <ele>48.64</ele>
        <time>2020-07-10T12:09:06Z</time>
      </trkpt>
      <trkpt lat="47.85567" lon="-3.44294">
        <ele>48.93</ele>
        <time>2020-07-10T12:09:07Z</time>
      </trkpt>
      <trkpt lat="47.85572" lon="-3.44294">
        <ele>49.24</ele>
        <time>2020-07-10T12:09:08Z</time>
      </trkpt>
      <trkpt lat="47.85578" lon="-3.44295">
        <ele>49.56</ele>
        <time>2020-07-10T12:09:09Z</time>
      </trkpt>
      <trkpt lat="47.85584" lon="-3.44295">
        <ele>49.88</ele>
        <time>2020-07-10T12:09:10Z</time>
      </trkpt>
      <trkpt lat="47.85589" lon="-3.44295">
        <ele>50.11</ele>
        <time>2020-07-10T12:09:11Z</time>
      </trkpt>
      <trkpt lat="47.85595" lon="-3.44296">
        <ele>50.33</ele>
        <time>2020-07-10T12:09:12Z</time>
      </trkpt>
      <trkpt lat="47.856" lon="-3.44297">
        <ele>50.53</ele>
        <time>2020-07-10T12:09:13Z</time>
      </trkpt>
      <trkpt lat="47.85606" lon="-3.44298">
        <ele>50.73</ele>
        <time>2020-07-10T12:09:14Z</time>
      </trkpt>
      <trkpt lat="47.85611" lon="-3.44298">
        <ele>50.91</ele>
        <time>2020-07-10T12:09:15Z</time>
      </trkpt>
      <trkpt lat="47.85616" lon="-3.44299">
        <ele>51.25</ele>
        <time>2020-07-10T12:09:16Z</time>
      </trkpt>
      <trkpt lat="47.85621" lon="-3.44299">
        <ele>51.62</ele>
        <time>2020-07-10T12:09:17Z</time>
      </trkpt>
      <trkpt lat="47.85626" lon="-3.44299">
        <ele>52</ele>
        <time>2020-07-10T12:09:18Z</time>
      </trkpt>
      <trkpt lat="47.8563" lon="-3.443">
        <ele>52.36</ele>
        <time>2020-07-10T12:09:19Z</time>
      </trkpt>
      <trkpt lat="47.85634" lon="-3.44301">
        <ele>52.7</ele>
        <time>2020-07-10T12:09:20Z</time>
      </trkpt>
      <trkpt lat="47.85639" lon="-3.44301">
        <ele>53.01</ele>
        <time>2020-07-10T12:09:21Z</time>
      </trkpt>
      <trkpt lat="47.85643" lon="-3.44302">
        <ele>53.3</ele>
        <time>2020-07-10T12:09:22Z</time>
      </trkpt>
      <trkpt lat="47.85647" lon="-3.44302">
        <ele>53.58</ele>
        <time>2020-07-10T12:09:23Z</time>
      </trkpt>
      <trkpt lat="47.85651" lon="-3.44303">
        <ele>53.85</ele>
        <time>2020-07-10T12:09:24Z</time>
      </trkpt>
      <trkpt lat="47.85655" lon="-3.44304">
        <ele>54.13</ele>
        <time>2020-07-10T12:09:25Z</time>
      </trkpt>
      <trkpt lat="47.85659" lon="-3.44304">
        <ele>54.4</ele>
        <time>2020-07-10T12:09:26Z</time>
      </trkpt>
      <trkpt lat="47.85663" lon="-3.44305">
        <ele>54.65</ele>
        <time>2020-07-10T12:09:27Z</time>
      </trkpt>
      <trkpt lat="47.85667" lon="-3.44306">
        <ele>54.92</ele>
        <time>2020-07-10T12:09:28Z</time>
      </trkpt>
      <trkpt lat="47.85671" lon="-3.44306">
        <ele>55.29</ele>
        <time>2020-07-10T12:09:29Z</time>
      </trkpt>
      <trkpt lat="47.85675" lon="-3.44307">
        <ele>55.7</ele>
        <time>2020-07-10T12:09:30Z</time>
      </trkpt>
      <trkpt lat="47.85679" lon="-3.44307">
        <ele>56.12</ele>
        <time>2020-07-10T12:09:31Z</time>
      </trkpt>
      <trkpt lat="47.85683" lon="-3.44308">
        <ele>56.55</ele>
        <time>2020-07-10T12:09:32Z</time>
      </trkpt>
      <trkpt lat="47.85687" lon="-3.44308">
        <ele>56.98</ele>
        <time>2020-07-10T12:09:33Z</time>
      </trkpt>
      <trkpt lat="47.85691" lon="-3.44309">
        <ele>57.41</ele>
        <time>2020-07-10T12:09:34Z</time>
      </trkpt>
      <trkpt lat="47.85695" lon="-3.44309">
        <ele>57.84</ele>
        <time>2020-07-10T12:09:35Z</time>
      </trkpt>
      <trkpt lat="47.85699" lon="-3.44309">
        <ele>58.07</ele>
        <time>2020-07-10T12:09:36Z</time>
      </trkpt>
      <trkpt lat="47.85703" lon="-3.44309">
        <ele>58.25</ele>
        <time>2020-07-10T12:09:37Z</time>
      </trkpt>
      <trkpt lat="47.85708" lon="-3.4431">
        <ele>58.41</ele>
        <time>2020-07-10T12:09:38Z</time>
      </trkpt>
      <trkpt lat="47.85712" lon="-3.44311">
        <ele>58.57</ele>
        <time>2020-07-10T12:09:39Z</time>
      </trkpt>
      <trkpt lat="47.85717" lon="-3.44311">
        <ele>58.74</ele>
        <time>2020-07-10T12:09:40Z</time>
      </trkpt>
      <trkpt lat="47.85722" lon="-3.44312">
        <ele>58.9</ele>
        <time>2020-07-10T12:09:41Z</time>
      </trkpt>
      <trkpt lat="47.85726" lon="-3.44313">
        <ele>59.09</ele>
        <time>2020-07-10T12:09:42Z</time>
      </trkpt>
      <trkpt lat="47.8573" lon="-3.44313">
        <ele>59.28</ele>
        <time>2020-07-10T12:09:43Z</time>
      </trkpt>
      <trkpt lat="47.85734" lon="-3.44314">
        <ele>59.47</ele>
        <time>2020-07-10T12:09:44Z</time>
      </trkpt>
      <trkpt lat="47.85738" lon="-3.44315">
        <ele>59.67</ele>
        <time>2020-07-10T12:09:45Z</time>
      </trkpt>
      <trkpt lat="47.85742" lon="-3.44315">
        <ele>59.87</ele>
        <time>2020-07-10T12:09:46Z</time>
      </trkpt>
      <trkpt lat="47.85746" lon="-3.44315">
        <ele>60.08</ele>
        <time>2020-07-10T12:09:47Z</time>
      </trkpt>
      <trkpt lat="47.85751" lon="-3.44316">
        <ele>60.3</ele>
        <time>2020-07-10T12:09:48Z</time>
      </trkpt>
      <trkpt lat="47.85755" lon="-3.44316">
        <ele>60.55</ele>
        <time>2020-07-10T12:09:49Z</time>
      </trkpt>
      <trkpt lat="47.85759" lon="-3.44317">
        <ele>60.8</ele>
        <time>2020-07-10T12:09:50Z</time>
      </trkpt>
      <trkpt lat="47.85762" lon="-3.44318">
        <ele>61.04</ele>
        <time>2020-07-10T12:09:51Z</time>
      </trkpt>
      <trkpt lat="47.85767" lon="-3.44319">
        <ele>61.29</ele>
        <time>2020-07-10T12:09:52Z</time>
      </trkpt>
      <trkpt lat="47.85771" lon="-3.4432">
        <ele>61.53</ele>
        <time>2020-07-10T12:09:53Z</time>
      </trkpt>
      <trkpt lat="47.85775" lon="-3.44321">
        <ele>61.77</ele>
        <time>2020-07-10T12:09:54Z</time>
      </trkpt>
      <trkpt lat="47.8578" lon="-3.44321">
        <ele>62.03</ele>
        <time>2020-07-10T12:09:55Z</time>
      </trkpt>
      <trkpt lat="47.85784" lon="-3.44321">
        <ele>62.31</ele>
        <time>2020-07-10T12:09:56Z</time>
      </trkpt>
      <trkpt lat="47.85788" lon="-3.44321">
        <ele>62.61</ele>
        <time>2020-07-10T12:09:57Z</time>
      </trkpt>
      <trkpt lat="47.85792" lon="-3.44321">
        <ele>62.92</ele>
        <time>2020-07-10T12:09:58Z</time>
      </trkpt>
      <trkpt lat="47.85797" lon="-3.4432">
        <ele>63.24</ele>
        <time>2020-07-10T12:09:59Z</time>
      </trkpt>
      <trkpt lat="47.85801" lon="-3.4432">
        <ele>63.56</ele>
        <time>2020-07-10T12:10:00Z</time>
      </trkpt>
      <trkpt lat="47.85805" lon="-3.4432">
        <ele>63.85</ele>
        <time>2020-07-10T12:10:01Z</time>
      </trkpt>
      <trkpt lat="47.85809" lon="-3.4432">
        <ele>64.18</ele>
        <time>2020-07-10T12:10:02Z</time>
      </trkpt>
      <trkpt lat="47.85813" lon="-3.4432">
        <ele>64.52</ele>
        <time>2020-07-10T12:10:03Z</time>
      </trkpt>
      <trkpt lat="47.85817" lon="-3.4432">
        <ele>64.87</ele>
        <time>2020-07-10T12:10:04Z</time>
      </trkpt>
      <trkpt lat="47.85821" lon="-3.4432">
        <ele>65.23</ele>
        <time>2020-07-10T12:10:05Z</time>
      </trkpt>
      <trkpt lat="47.85825" lon="-3.44319">
        <ele>65.58</ele>
        <time>2020-07-10T12:10:06Z</time>
      </trkpt>
      <trkpt lat="47.85828" lon="-3.44318">
        <ele>65.92</ele>
        <time>2020-07-10T12:10:07Z</time>
      </trkpt>
      <trkpt lat="47.85831" lon="-3.44316">
        <ele>66.28</ele>
        <time>2020-07-10T12:10:08Z</time>
      </trkpt>
      <trkpt lat="47.85835" lon="-3.44315">
        <ele>66.6</ele>
        <time>2020-07-10T12:10:09Z</time>
      </trkpt>
      <trkpt lat="47.85839" lon="-3.44314">
        <ele>66.85</ele>
        <time>2020-07-10T12:10:10Z</time>
      </trkpt>
      <trkpt lat="47.85843" lon="-3.44314">
        <ele>67.05</ele>
        <time>2020-07-10T12:10:11Z</time>
      </trkpt>
      <trkpt lat="47.85847" lon="-3.44314">
        <ele>67.25</ele>
        <time>2020-07-10T12:10:12Z</time>
      </trkpt>
      <trkpt lat="47.85851" lon="-3.44315">
        <ele>67.43</ele>
        <time>2020-07-10T12:10:13Z</time>
      </trkpt>
      <trkpt lat="47.85854" lon="-3.44318">
        <ele>67.56</ele>
        <time>2020-07-10T12:10:14Z</time>
      </trkpt>
      <trkpt lat="47.85857" lon="-3.44323">
        <ele>67.69</ele>
        <time>2020-07-10T12:10:15Z</time>
      </trkpt>
      <trkpt lat="47.8586" lon="-3.44327">
        <ele>67.84</ele>
        <time>2020-07-10T12:10:16Z</time>
      </trkpt>
      <trkpt lat="47.85863" lon="-3.44332">
        <ele>67.99</ele>
        <time>2020-07-10T12:10:17Z</time>
      </trkpt>
      <trkpt lat="47.85866" lon="-3.44335">
        <ele>68.06</ele>
        <time>2020-07-10T12:10:18Z</time>
      </trkpt>
      <trkpt lat="47.85869" lon="-3.4434">
        <ele>68.04</ele>
        <time>2020-07-10T12:10:19Z</time>
      </trkpt>
      <trkpt lat="47.85873" lon="-3.44344">
        <ele>68.05</ele>
        <time>2020-07-10T12:10:20Z</time>
      </trkpt>
      <trkpt lat="47.85877" lon="-3.44349">
        <ele>68.01</ele>
        <time>2020-07-10T12:10:21Z</time>
      </trkpt>
      <trkpt lat="47.8588" lon="-3.44354">
        <ele>67.95</ele>
        <time>2020-07-10T12:10:22Z</time>
      </trkpt>
      <trkpt lat="47.85883" lon="-3.44358">
        <ele>67.9</ele>
        <time>2020-07-10T12:10:23Z</time>
      </trkpt>
      <trkpt lat="47.85885" lon="-3.44364">
        <ele>67.87</ele>
        <time>2020-07-10T12:10:24Z</time>
      </trkpt>
      <trkpt lat="47.85887" lon="-3.4437">
        <ele>67.91</ele>
        <time>2020-07-10T12:10:25Z</time>
      </trkpt>
      <trkpt lat="47.85888" lon="-3.44375">
        <ele>67.95</ele>
        <time>2020-07-10T12:10:26Z</time>
      </trkpt>
      <trkpt lat="47.85889" lon="-3.44382">
        <ele>67.97</ele>
        <time>2020-07-10T12:10:27Z</time>
      </trkpt>
      <trkpt lat="47.85888" lon="-3.44389">
        <ele>67.97</ele>
        <time>2020-07-10T12:10:28Z</time>
      </trkpt>
      <trkpt lat="47.85888" lon="-3.44396">
        <ele>67.79</ele>
        <time>2020-07-10T12:10:29Z</time>
      </trkpt>
      <trkpt lat="47.85887" lon="-3.44403">
        <ele>67.54</ele>
        <time>2020-07-10T12:10:30Z</time>
      </trkpt>
      <trkpt lat="47.85885" lon="-3.44411">
        <ele>67.29</ele>
        <time>2020-07-10T12:10:31Z</time>
      </trkpt>
      <trkpt lat="47.85884" lon="-3.44418">
        <ele>67.09</ele>
        <time>2020-07-10T12:10:32Z</time>
      </trkpt>
      <trkpt lat="47.85882" lon="-3.44426">
        <ele>67.03</ele>
        <time>2020-07-10T12:10:33Z</time>
      </trkpt>
      <trkpt lat="47.85881" lon="-3.44433">
        <ele>67.01</ele>
        <time>2020-07-10T12:10:34Z</time>
      </trkpt>
      <trkpt lat="47.85879" lon="-3.44441">
        <ele>67</ele>
        <time>2020-07-10T12:10:35Z</time>
      </trkpt>
      <trkpt lat="47.85878" lon="-3.44449">
        <ele>67</ele>
        <time>2020-07-10T12:10:36Z</time>
      </trkpt>
      <trkpt lat="47.85877" lon="-3.44457">
        <ele>67</ele>
        <time>2020-07-10T12:10:37Z</time>
      </trkpt>
      <trkpt lat="47.85876" lon="-3.44465">
        <ele>67</ele>
        <time>2020-07-10T12:10:38Z</time>
      </trkpt>
      <trkpt lat="47.85874" lon="-3.44473">
        <ele>67</ele>
        <time>2020-07-10T12:10:39Z</time>
      </trkpt>
      <trkpt lat="47.85873" lon="-3.44481">
        <ele>67</ele>
        <time>2020-07-10T12:10:40Z</time>
      </trkpt>
      <trkpt lat="47.85872" lon="-3.44489">
        <ele>67</ele>
        <time>2020-07-10T12:10:41Z</time>
      </trkpt>
      <trkpt lat="47.85871" lon="-3.44496">
        <ele>67</ele>
        <time>2020-07-10T12:10:42Z</time>
      </trkpt>
      <trkpt lat="47.85869" lon="-3.44505">
        <ele>67</ele>
        <time>2020-07-10T12:10:43Z</time>
      </trkpt>
      <trkpt lat="47.85868" lon="-3.44512">
        <ele>67</ele>
        <time>2020-07-10T12:10:44Z</time>
      </trkpt>
      <trkpt lat="47.85867" lon="-3.4452">
        <ele>67</ele>
        <time>2020-07-10T12:10:45Z</time>
      </trkpt>
      <trkpt lat="47.85866" lon="-3.44528">
        <ele>67</ele>
        <time>2020-07-10T12:10:46Z</time>
      </trkpt>
      <trkpt lat="47.85865" lon="-3.44536">
        <ele>67</ele>
        <time>2020-07-10T12:10:47Z</time>
      </trkpt>
      <trkpt lat="47.85864" lon="-3.44543">
        <ele>67</ele>
        <time>2020-07-10T12:10:48Z</time>
      </trkpt>
      <trkpt lat="47.85864" lon="-3.44551">
        <ele>67</ele>
        <time>2020-07-10T12:10:49Z</time>
      </trkpt>
      <trkpt lat="47.85863" lon="-3.44558">
        <ele>67</ele>
        <time>2020-07-10T12:10:50Z</time>
      </trkpt>
      <trkpt lat="47.85863" lon="-3.44566">
        <ele>67</ele>
        <time>2020-07-10T12:10:51Z</time>
      </trkpt>
      <trkpt lat="47.85862" lon="-3.44574">
        <ele>67</ele>
        <time>2020-07-10T12:10:52Z</time>
      </trkpt>
      <trkpt lat="47.85861" lon="-3.4459">
        <ele>67</ele>
        <time>2020-07-10T12:10:54Z</time>
      </trkpt>
      <trkpt lat="47.85861" lon="-3.44598">
        <ele>67</ele>
        <time>2020-07-10T12:10:55Z</time>
      </trkpt>
      <trkpt lat="47.85861" lon="-3.44606">
        <ele>66.99</ele>
        <time>2020-07-10T12:10:56Z</time>
      </trkpt>
      <trkpt lat="47.8586" lon="-3.44614">
        <ele>66.98</ele>
        <time>2020-07-10T12:10:57Z</time>
      </trkpt>
      <trkpt lat="47.8586" lon="-3.44622">
        <ele>66.96</ele>
        <time>2020-07-10T12:10:58Z</time>
      </trkpt>
      <trkpt lat="47.85859" lon="-3.4463">
        <ele>66.94</ele>
        <time>2020-07-10T12:10:59Z</time>
      </trkpt>
      <trkpt lat="47.85859" lon="-3.44637">
        <ele>66.93</ele>
        <time>2020-07-10T12:11:00Z</time>
      </trkpt>
      <trkpt lat="47.85859" lon="-3.44645">
        <ele>66.93</ele>
        <time>2020-07-10T12:11:01Z</time>
      </trkpt>
      <trkpt lat="47.85858" lon="-3.44652">
        <ele>66.94</ele>
        <time>2020-07-10T12:11:02Z</time>
      </trkpt>
      <trkpt lat="47.85858" lon="-3.44659">
        <ele>66.96</ele>
        <time>2020-07-10T12:11:03Z</time>
      </trkpt>
      <trkpt lat="47.85857" lon="-3.44666">
        <ele>66.99</ele>
        <time>2020-07-10T12:11:04Z</time>
      </trkpt>
      <trkpt lat="47.85857" lon="-3.44673">
        <ele>67</ele>
        <time>2020-07-10T12:11:05Z</time>
      </trkpt>
      <trkpt lat="47.85857" lon="-3.4468">
        <ele>67</ele>
        <time>2020-07-10T12:11:06Z</time>
      </trkpt>
      <trkpt lat="47.85857" lon="-3.44686">
        <ele>67</ele>
        <time>2020-07-10T12:11:07Z</time>
      </trkpt>
      <trkpt lat="47.85856" lon="-3.44692">
        <ele>67</ele>
        <time>2020-07-10T12:11:08Z</time>
      </trkpt>
      <trkpt lat="47.85856" lon="-3.44698">
        <ele>67.08</ele>
        <time>2020-07-10T12:11:09Z</time>
      </trkpt>
      <trkpt lat="47.85857" lon="-3.44702">
        <ele>67.22</ele>
        <time>2020-07-10T12:11:10Z</time>
      </trkpt>
      <trkpt lat="47.85858" lon="-3.44705">
        <ele>67.33</ele>
        <time>2020-07-10T12:11:11Z</time>
      </trkpt>
      <trkpt lat="47.85859" lon="-3.44706">
        <ele>67.39</ele>
        <time>2020-07-10T12:11:12Z</time>
      </trkpt>
      <trkpt lat="47.85859" lon="-3.44706">
        <ele>67.4</ele>
        <time>2020-07-10T12:11:13Z</time>
      </trkpt>
      <trkpt lat="47.85858" lon="-3.44706">
        <ele>67.41</ele>
        <time>2020-07-10T12:11:14Z</time>
      </trkpt>
      <trkpt lat="47.85858" lon="-3.44706">
        <ele>67.41</ele>
        <time>2020-07-10T12:11:15Z</time>
      </trkpt>
      <trkpt lat="47.85858" lon="-3.44706">
        <ele>67.41</ele>
        <time>2020-07-10T12:11:16Z</time>
      </trkpt>
      <trkpt lat="47.85858" lon="-3.44706">
        <ele>67.41</ele>
        <time>2020-07-10T12:11:17Z</time>
      </trkpt>
      <trkpt lat="47.85858" lon="-3.44706">
        <ele>67.41</ele>
        <time>2020-07-10T12:11:18Z</time>
      </trkpt>
      <trkpt lat="47.85858" lon="-3.44706">
        <ele>67.41</ele>
        <time>2020-07-10T12:11:19Z</time>
      </trkpt>
      <trkpt lat="47.85862" lon="-3.44707">
        <ele>67.44</ele>
        <time>2020-07-10T12:11:20Z</time>
      </trkpt>
      <trkpt lat="47.85864" lon="-3.44708">
        <ele>67.46</ele>
        <time>2020-07-10T12:11:21Z</time>
      </trkpt>
      <trkpt lat="47.85865" lon="-3.44708">
        <ele>67.48</ele>
        <time>2020-07-10T12:11:22Z</time>
      </trkpt>
      <trkpt lat="47.85867" lon="-3.44708">
        <ele>67.47</ele>
        <time>2020-07-10T12:11:23Z</time>
      </trkpt>
      <trkpt lat="47.85869" lon="-3.44707">
        <ele>67.45</ele>
        <time>2020-07-10T12:11:24Z</time>
      </trkpt>
      <trkpt lat="47.8587" lon="-3.44706">
        <ele>67.44</ele>
        <time>2020-07-10T12:11:25Z</time>
      </trkpt>
      <trkpt lat="47.85872" lon="-3.44706">
        <ele>67.42</ele>
        <time>2020-07-10T12:11:26Z</time>
      </trkpt>
      <trkpt lat="47.85874" lon="-3.44706">
        <ele>67.43</ele>
        <time>2020-07-10T12:11:27Z</time>
      </trkpt>
      <trkpt lat="47.85877" lon="-3.44707">
        <ele>67.44</ele>
        <time>2020-07-10T12:11:28Z</time>
      </trkpt>
      <trkpt lat="47.85879" lon="-3.44708">
        <ele>67.47</ele>
        <time>2020-07-10T12:11:29Z</time>
      </trkpt>
      <trkpt lat="47.85881" lon="-3.44709">
        <ele>67.51</ele>
        <time>2020-07-10T12:11:30Z</time>
      </trkpt>
      <trkpt lat="47.85883" lon="-3.44709">
        <ele>67.53</ele>
        <time>2020-07-10T12:11:31Z</time>
      </trkpt>
      <trkpt lat="47.85886" lon="-3.44709">
        <ele>67.53</ele>
        <time>2020-07-10T12:11:32Z</time>
      </trkpt>
      <trkpt lat="47.85888" lon="-3.44709">
        <ele>67.52</ele>
        <time>2020-07-10T12:11:33Z</time>
      </trkpt>
      <trkpt lat="47.8589" lon="-3.44709">
        <ele>67.49</ele>
        <time>2020-07-10T12:11:34Z</time>
      </trkpt>
      <trkpt lat="47.85893" lon="-3.44709">
        <ele>67.46</ele>
        <time>2020-07-10T12:11:35Z</time>
      </trkpt>
      <trkpt lat="47.85897" lon="-3.44708">
        <ele>67.38</ele>
        <time>2020-07-10T12:11:36Z</time>
      </trkpt>
      <trkpt lat="47.85901" lon="-3.44708">
        <ele>67.32</ele>
        <time>2020-07-10T12:11:37Z</time>
      </trkpt>
      <trkpt lat="47.85904" lon="-3.44709">
        <ele>67.26</ele>
        <time>2020-07-10T12:11:38Z</time>
      </trkpt>
      <trkpt lat="47.85907" lon="-3.44711">
        <ele>67.22</ele>
        <time>2020-07-10T12:11:39Z</time>
      </trkpt>
      <trkpt lat="47.85911" lon="-3.44713">
        <ele>67.17</ele>
        <time>2020-07-10T12:11:40Z</time>
      </trkpt>
      <trkpt lat="47.85915" lon="-3.44716">
        <ele>67.09</ele>
        <time>2020-07-10T12:11:41Z</time>
      </trkpt>
      <trkpt lat="47.85917" lon="-3.4472">
        <ele>67.01</ele>
        <time>2020-07-10T12:11:42Z</time>
      </trkpt>
      <trkpt lat="47.85922" lon="-3.44724">
        <ele>66.87</ele>
        <time>2020-07-10T12:11:43Z</time>
      </trkpt>
      <trkpt lat="47.85925" lon="-3.44728">
        <ele>66.71</ele>
        <time>2020-07-10T12:11:44Z</time>
      </trkpt>
      <trkpt lat="47.85928" lon="-3.44734">
        <ele>66.49</ele>
        <time>2020-07-10T12:11:45Z</time>
      </trkpt>
      <trkpt lat="47.85932" lon="-3.44741">
        <ele>66.2</ele>
        <time>2020-07-10T12:11:46Z</time>
      </trkpt>
      <trkpt lat="47.85934" lon="-3.44748">
        <ele>65.93</ele>
        <time>2020-07-10T12:11:47Z</time>
      </trkpt>
      <trkpt lat="47.85936" lon="-3.44757">
        <ele>65.54</ele>
        <time>2020-07-10T12:11:48Z</time>
      </trkpt>
      <trkpt lat="47.85938" lon="-3.44766">
        <ele>65.07</ele>
        <time>2020-07-10T12:11:49Z</time>
      </trkpt>
      <trkpt lat="47.8594" lon="-3.44775">
        <ele>64.58</ele>
        <time>2020-07-10T12:11:50Z</time>
      </trkpt>
      <trkpt lat="47.85942" lon="-3.44785">
        <ele>64.15</ele>
        <time>2020-07-10T12:11:51Z</time>
      </trkpt>
      <trkpt lat="47.85943" lon="-3.44794">
        <ele>63.74</ele>
        <time>2020-07-10T12:11:52Z</time>
      </trkpt>
      <trkpt lat="47.85945" lon="-3.44804">
        <ele>63.25</ele>
        <time>2020-07-10T12:11:53Z</time>
      </trkpt>
      <trkpt lat="47.85945" lon="-3.44813">
        <ele>62.85</ele>
        <time>2020-07-10T12:11:54Z</time>
      </trkpt>
      <trkpt lat="47.85946" lon="-3.44822">
        <ele>62.48</ele>
        <time>2020-07-10T12:11:55Z</time>
      </trkpt>
      <trkpt lat="47.85946" lon="-3.44831">
        <ele>62.13</ele>
        <time>2020-07-10T12:11:56Z</time>
      </trkpt>
      <trkpt lat="47.85946" lon="-3.44839">
        <ele>61.82</ele>
        <time>2020-07-10T12:11:57Z</time>
      </trkpt>
      <trkpt lat="47.85945" lon="-3.44848">
        <ele>61.54</ele>
        <time>2020-07-10T12:11:58Z</time>
      </trkpt>
      <trkpt lat="47.85945" lon="-3.44856">
        <ele>61.26</ele>
        <time>2020-07-10T12:11:59Z</time>
      </trkpt>
      <trkpt lat="47.85945" lon="-3.44866">
        <ele>60.94</ele>
        <time>2020-07-10T12:12:00Z</time>
      </trkpt>
      <trkpt lat="47.85946" lon="-3.44876">
        <ele>60.54</ele>
        <time>2020-07-10T12:12:01Z</time>
      </trkpt>
      <trkpt lat="47.85946" lon="-3.44886">
        <ele>60.14</ele>
        <time>2020-07-10T12:12:02Z</time>
      </trkpt>
      <trkpt lat="47.85947" lon="-3.44897">
        <ele>59.7</ele>
        <time>2020-07-10T12:12:03Z</time>
      </trkpt>
      <trkpt lat="47.85949" lon="-3.44907">
        <ele>59.22</ele>
        <time>2020-07-10T12:12:04Z</time>
      </trkpt>
      <trkpt lat="47.8595" lon="-3.44919">
        <ele>58.73</ele>
        <time>2020-07-10T12:12:05Z</time>
      </trkpt>
      <trkpt lat="47.85951" lon="-3.4493">
        <ele>58.24</ele>
        <time>2020-07-10T12:12:06Z</time>
      </trkpt>
      <trkpt lat="47.85951" lon="-3.4494">
        <ele>57.84</ele>
        <time>2020-07-10T12:12:07Z</time>
      </trkpt>
      <trkpt lat="47.85951" lon="-3.4495">
        <ele>57.61</ele>
        <time>2020-07-10T12:12:08Z</time>
      </trkpt>
      <trkpt lat="47.85951" lon="-3.44959">
        <ele>57.55</ele>
        <time>2020-07-10T12:12:09Z</time>
      </trkpt>
      <trkpt lat="47.85951" lon="-3.44967">
        <ele>57.55</ele>
        <time>2020-07-10T12:12:10Z</time>
      </trkpt>
      <trkpt lat="47.85951" lon="-3.44976">
        <ele>57.42</ele>
        <time>2020-07-10T12:12:11Z</time>
      </trkpt>
      <trkpt lat="47.85952" lon="-3.44985">
        <ele>57.06</ele>
        <time>2020-07-10T12:12:12Z</time>
      </trkpt>
      <trkpt lat="47.85952" lon="-3.44993">
        <ele>56.63</ele>
        <time>2020-07-10T12:12:13Z</time>
      </trkpt>
      <trkpt lat="47.85952" lon="-3.45001">
        <ele>56.23</ele>
        <time>2020-07-10T12:12:14Z</time>
      </trkpt>
      <trkpt lat="47.85952" lon="-3.45008">
        <ele>55.8</ele>
        <time>2020-07-10T12:12:15Z</time>
      </trkpt>
      <trkpt lat="47.85952" lon="-3.45013">
        <ele>55.41</ele>
        <time>2020-07-10T12:12:16Z</time>
      </trkpt>
      <trkpt lat="47.85955" lon="-3.45015">
        <ele>54.93</ele>
        <time>2020-07-10T12:12:17Z</time>
      </trkpt>
      <trkpt lat="47.85958" lon="-3.45017">
        <ele>54.49</ele>
        <time>2020-07-10T12:12:18Z</time>
      </trkpt>
      <trkpt lat="47.8596" lon="-3.45016">
        <ele>54.22</ele>
        <time>2020-07-10T12:12:19Z</time>
      </trkpt>
      <trkpt lat="47.85962" lon="-3.45017">
        <ele>54.02</ele>
        <time>2020-07-10T12:12:20Z</time>
      </trkpt>
      <trkpt lat="47.85963" lon="-3.45017">
        <ele>53.84</ele>
        <time>2020-07-10T12:12:21Z</time>
      </trkpt>
      <trkpt lat="47.85965" lon="-3.45017">
        <ele>53.65</ele>
        <time>2020-07-10T12:12:22Z</time>
      </trkpt>
      <trkpt lat="47.85965" lon="-3.45018">
        <ele>53.51</ele>
        <time>2020-07-10T12:12:23Z</time>
      </trkpt>
      <trkpt lat="47.85965" lon="-3.45018">
        <ele>53.46</ele>
        <time>2020-07-10T12:12:24Z</time>
      </trkpt>
      <trkpt lat="47.85965" lon="-3.45018">
        <ele>53.45</ele>
        <time>2020-07-10T12:12:25Z</time>
      </trkpt>
      <trkpt lat="47.85965" lon="-3.45018">
        <ele>53.44</ele>
        <time>2020-07-10T12:12:26Z</time>
      </trkpt>
      <trkpt lat="47.85965" lon="-3.45018">
        <ele>53.44</ele>
        <time>2020-07-10T12:12:27Z</time>
      </trkpt>
      <trkpt lat="47.85965" lon="-3.45018">
        <ele>53.44</ele>
        <time>2020-07-10T12:12:28Z</time>
      </trkpt>
      <trkpt lat="47.85965" lon="-3.45018">
        <ele>53.44</ele>
        <time>2020-07-10T12:12:29Z</time>
      </trkpt>
      <trkpt lat="47.85965" lon="-3.45018">
        <ele>53.44</ele>
        <time>2020-07-10T12:12:30Z</time>
      </trkpt>
      <trkpt lat="47.85965" lon="-3.45018">
        <ele>53.44</ele>
        <time>2020-07-10T12:12:31Z</time>
      </trkpt>
      <trkpt lat="47.85965" lon="-3.45018">
        <ele>53.44</ele>
        <time>2020-07-10T12:12:32Z</time>
      </trkpt>
      <trkpt lat="47.85965" lon="-3.45018">
        <ele>53.44</ele>
        <time>2020-07-10T12:12:33Z</time>
      </trkpt>
      <trkpt lat="47.85965" lon="-3.45018">
        <ele>53.44</ele>
        <time>2020-07-10T12:12:34Z</time>
      </trkpt>
      <trkpt lat="47.85965" lon="-3.45018">
        <ele>53.44</ele>
        <time>2020-07-10T12:12:35Z</time>
      </trkpt>
      <trkpt lat="47.85965" lon="-3.45018">
        <ele>53.44</ele>
        <time>2020-07-10T12:12:36Z</time>
      </trkpt>
      <trkpt lat="47.85965" lon="-3.45018">
        <ele>53.44</ele>
        <time>2020-07-10T12:12:37Z</time>
      </trkpt>
      <trkpt lat="47.85965" lon="-3.45018">
        <ele>53.44</ele>
        <time>2020-07-10T12:12:38Z</time>
      </trkpt>
      <trkpt lat="47.85965" lon="-3.45018">
        <ele>53.44</ele>
        <time>2020-07-10T12:12:39Z</time>
      </trkpt>
      <trkpt lat="47.85965" lon="-3.45018">
        <ele>53.44</ele>
        <time>2020-07-10T12:12:40Z</time>
      </trkpt>
      <trkpt lat="47.85965" lon="-3.45018">
        <ele>53.44</ele>
        <time>2020-07-10T12:12:41Z</time>
      </trkpt>
      <trkpt lat="47.85965" lon="-3.45018">
        <ele>53.44</ele>
        <time>2020-07-10T12:12:42Z</time>
      </trkpt>
      <trkpt lat="47.85965" lon="-3.45018">
        <ele>53.44</ele>
        <time>2020-07-10T12:12:43Z</time>
      </trkpt>
      <trkpt lat="47.85965" lon="-3.45018">
        <ele>53.44</ele>
        <time>2020-07-10T12:12:44Z</time>
      </trkpt>
      <trkpt lat="47.85965" lon="-3.45018">
        <ele>53.44</ele>
        <time>2020-07-10T12:12:45Z</time>
      </trkpt>
      <trkpt lat="47.85965" lon="-3.45018">
        <ele>53.44</ele>
        <time>2020-07-10T12:12:46Z</time>
      </trkpt>
      <trkpt lat="47.85965" lon="-3.45018">
        <ele>53.44</ele>
        <time>2020-07-10T12:12:47Z</time>
      </trkpt>
      <trkpt lat="47.85965" lon="-3.45018">
        <ele>53.44</ele>
        <time>2020-07-10T12:12:48Z</time>
      </trkpt>
      <trkpt lat="47.85965" lon="-3.45018">
        <ele>53.44</ele>
        <time>2020-07-10T12:12:49Z</time>
      </trkpt>
      <trkpt lat="47.85975" lon="-3.45019">
        <ele>52.82</ele>
        <time>2020-07-10T12:12:50Z</time>
      </trkpt>
      <trkpt lat="47.85977" lon="-3.45021">
        <ele>52.49</ele>
        <time>2020-07-10T12:12:51Z</time>
      </trkpt>
      <trkpt lat="47.85979" lon="-3.45023">
        <ele>52.22</ele>
        <time>2020-07-10T12:12:52Z</time>
      </trkpt>
      <trkpt lat="47.85981" lon="-3.45026">
        <ele>51.93</ele>
        <time>2020-07-10T12:12:53Z</time>
      </trkpt>
      <trkpt lat="47.85982" lon="-3.4503">
        <ele>51.7</ele>
        <time>2020-07-10T12:12:54Z</time>
      </trkpt>
      <trkpt lat="47.85984" lon="-3.45033">
        <ele>51.54</ele>
        <time>2020-07-10T12:12:55Z</time>
      </trkpt>
      <trkpt lat="47.85986" lon="-3.45035">
        <ele>51.43</ele>
        <time>2020-07-10T12:12:56Z</time>
      </trkpt>
      <trkpt lat="47.85989" lon="-3.45037">
        <ele>51.31</ele>
        <time>2020-07-10T12:12:57Z</time>
      </trkpt>
      <trkpt lat="47.85992" lon="-3.4504">
        <ele>51.21</ele>
        <time>2020-07-10T12:12:58Z</time>
      </trkpt>
      <trkpt lat="47.85993" lon="-3.45043">
        <ele>51.15</ele>
        <time>2020-07-10T12:12:59Z</time>
      </trkpt>
      <trkpt lat="47.85992" lon="-3.45047">
        <ele>51.11</ele>
        <time>2020-07-10T12:13:00Z</time>
      </trkpt>
      <trkpt lat="47.8599" lon="-3.45051">
        <ele>51.07</ele>
        <time>2020-07-10T12:13:01Z</time>
      </trkpt>
      <trkpt lat="47.85988" lon="-3.45056">
        <ele>51.02</ele>
        <time>2020-07-10T12:13:02Z</time>
      </trkpt>
      <trkpt lat="47.85985" lon="-3.45059">
        <ele>51.09</ele>
        <time>2020-07-10T12:13:03Z</time>
      </trkpt>
      <trkpt lat="47.85983" lon="-3.45062">
        <ele>51.16</ele>
        <time>2020-07-10T12:13:04Z</time>
      </trkpt>
      <trkpt lat="47.8598" lon="-3.45066">
        <ele>51.19</ele>
        <time>2020-07-10T12:13:05Z</time>
      </trkpt>
      <trkpt lat="47.85977" lon="-3.45069">
        <ele>51.18</ele>
        <time>2020-07-10T12:13:06Z</time>
      </trkpt>
      <trkpt lat="47.85975" lon="-3.45073">
        <ele>51.13</ele>
        <time>2020-07-10T12:13:07Z</time>
      </trkpt>
      <trkpt lat="47.85973" lon="-3.45078">
        <ele>51.08</ele>
        <time>2020-07-10T12:13:08Z</time>
      </trkpt>
      <trkpt lat="47.85972" lon="-3.45083">
        <ele>51.02</ele>
        <time>2020-07-10T12:13:09Z</time>
      </trkpt>
      <trkpt lat="47.85971" lon="-3.45087">
        <ele>51.1</ele>
        <time>2020-07-10T12:13:10Z</time>
      </trkpt>
      <trkpt lat="47.85972" lon="-3.45092">
        <ele>51.23</ele>
        <time>2020-07-10T12:13:11Z</time>
      </trkpt>
      <trkpt lat="47.85972" lon="-3.45095">
        <ele>51.37</ele>
        <time>2020-07-10T12:13:12Z</time>
      </trkpt>
      <trkpt lat="47.85974" lon="-3.45099">
        <ele>51.57</ele>
        <time>2020-07-10T12:13:13Z</time>
      </trkpt>
      <trkpt lat="47.85975" lon="-3.45101">
        <ele>51.77</ele>
        <time>2020-07-10T12:13:14Z</time>
      </trkpt>
      <trkpt lat="47.85976" lon="-3.45104">
        <ele>51.93</ele>
        <time>2020-07-10T12:13:15Z</time>
      </trkpt>
      <trkpt lat="47.85976" lon="-3.45107">
        <ele>52.05</ele>
        <time>2020-07-10T12:13:16Z</time>
      </trkpt>
      <trkpt lat="47.85976" lon="-3.45111">
        <ele>52.19</ele>
        <time>2020-07-10T12:13:17Z</time>
      </trkpt>
      <trkpt lat="47.85977" lon="-3.45115">
        <ele>52.22</ele>
        <time>2020-07-10T12:13:18Z</time>
      </trkpt>
      <trkpt lat="47.85977" lon="-3.4512">
        <ele>52.14</ele>
        <time>2020-07-10T12:13:19Z</time>
      </trkpt>
      <trkpt lat="47.85977" lon="-3.45125">
        <ele>52.03</ele>
        <time>2020-07-10T12:13:20Z</time>
      </trkpt>
      <trkpt lat="47.85977" lon="-3.45129">
        <ele>51.93</ele>
        <time>2020-07-10T12:13:21Z</time>
      </trkpt>
      <trkpt lat="47.85977" lon="-3.45133">
        <ele>51.83</ele>
        <time>2020-07-10T12:13:22Z</time>
      </trkpt>
      <trkpt lat="47.85977" lon="-3.45137">
        <ele>51.75</ele>
        <time>2020-07-10T12:13:23Z</time>
      </trkpt>
      <trkpt lat="47.85977" lon="-3.45141">
        <ele>51.78</ele>
        <time>2020-07-10T12:13:24Z</time>
      </trkpt>
      <trkpt lat="47.85978" lon="-3.45145">
        <ele>51.91</ele>
        <time>2020-07-10T12:13:25Z</time>
      </trkpt>
      <trkpt lat="47.85978" lon="-3.45149">
        <ele>52.14</ele>
        <time>2020-07-10T12:13:26Z</time>
      </trkpt>
      <trkpt lat="47.85979" lon="-3.45153">
        <ele>52.43</ele>
        <time>2020-07-10T12:13:27Z</time>
      </trkpt>
      <trkpt lat="47.85981" lon="-3.45156">
        <ele>52.72</ele>
        <time>2020-07-10T12:13:28Z</time>
      </trkpt>
      <trkpt lat="47.85981" lon="-3.45159">
        <ele>52.95</ele>
        <time>2020-07-10T12:13:29Z</time>
      </trkpt>
      <trkpt lat="47.85981" lon="-3.45163">
        <ele>53.11</ele>
        <time>2020-07-10T12:13:30Z</time>
      </trkpt>
      <trkpt lat="47.85981" lon="-3.45166">
        <ele>53.24</ele>
        <time>2020-07-10T12:13:31Z</time>
      </trkpt>
      <trkpt lat="47.85981" lon="-3.4517">
        <ele>53.35</ele>
        <time>2020-07-10T12:13:32Z</time>
      </trkpt>
      <trkpt lat="47.85981" lon="-3.45173">
        <ele>53.42</ele>
        <time>2020-07-10T12:13:33Z</time>
      </trkpt>
      <trkpt lat="47.8598" lon="-3.45177">
        <ele>53.47</ele>
        <time>2020-07-10T12:13:34Z</time>
      </trkpt>
      <trkpt lat="47.85979" lon="-3.45181">
        <ele>53.49</ele>
        <time>2020-07-10T12:13:35Z</time>
      </trkpt>
      <trkpt lat="47.85978" lon="-3.45184">
        <ele>53.46</ele>
        <time>2020-07-10T12:13:36Z</time>
      </trkpt>
      <trkpt lat="47.85977" lon="-3.45188">
        <ele>53.42</ele>
        <time>2020-07-10T12:13:37Z</time>
      </trkpt>
      <trkpt lat="47.85975" lon="-3.45191">
        <ele>53.37</ele>
        <time>2020-07-10T12:13:38Z</time>
      </trkpt>
      <trkpt lat="47.85975" lon="-3.45195">
        <ele>53.46</ele>
        <time>2020-07-10T12:13:39Z</time>
      </trkpt>
      <trkpt lat="47.85975" lon="-3.45199">
        <ele>53.73</ele>
        <time>2020-07-10T12:13:40Z</time>
      </trkpt>
      <trkpt lat="47.85975" lon="-3.45204">
        <ele>54.2</ele>
        <time>2020-07-10T12:13:41Z</time>
      </trkpt>
      <trkpt lat="47.85976" lon="-3.45208">
        <ele>54.71</ele>
        <time>2020-07-10T12:13:42Z</time>
      </trkpt>
      <trkpt lat="47.85977" lon="-3.45211">
        <ele>55.21</ele>
        <time>2020-07-10T12:13:43Z</time>
      </trkpt>
      <trkpt lat="47.85979" lon="-3.45214">
        <ele>55.72</ele>
        <time>2020-07-10T12:13:44Z</time>
      </trkpt>
      <trkpt lat="47.85981" lon="-3.45215">
        <ele>56.15</ele>
        <time>2020-07-10T12:13:45Z</time>
      </trkpt>
      <trkpt lat="47.85985" lon="-3.45218">
        <ele>56.72</ele>
        <time>2020-07-10T12:13:46Z</time>
      </trkpt>
      <trkpt lat="47.85987" lon="-3.45221">
        <ele>57.27</ele>
        <time>2020-07-10T12:13:47Z</time>
      </trkpt>
      <trkpt lat="47.85989" lon="-3.45223">
        <ele>57.74</ele>
        <time>2020-07-10T12:13:48Z</time>
      </trkpt>
      <trkpt lat="47.85991" lon="-3.45226">
        <ele>58.22</ele>
        <time>2020-07-10T12:13:49Z</time>
      </trkpt>
      <trkpt lat="47.85991" lon="-3.45229">
        <ele>58.63</ele>
        <time>2020-07-10T12:13:50Z</time>
      </trkpt>
      <trkpt lat="47.85991" lon="-3.45232">
        <ele>59</ele>
        <time>2020-07-10T12:13:51Z</time>
      </trkpt>
      <trkpt lat="47.85991" lon="-3.45234">
        <ele>59.3</ele>
        <time>2020-07-10T12:13:52Z</time>
      </trkpt>
      <trkpt lat="47.85991" lon="-3.45236">
        <ele>59.56</ele>
        <time>2020-07-10T12:13:53Z</time>
      </trkpt>
      <trkpt lat="47.8599" lon="-3.45238">
        <ele>59.8</ele>
        <time>2020-07-10T12:13:54Z</time>
      </trkpt>
      <trkpt lat="47.8599" lon="-3.45241">
        <ele>60.04</ele>
        <time>2020-07-10T12:13:55Z</time>
      </trkpt>
      <trkpt lat="47.85989" lon="-3.45244">
        <ele>60.3</ele>
        <time>2020-07-10T12:13:56Z</time>
      </trkpt>
      <trkpt lat="47.85988" lon="-3.45246">
        <ele>60.53</ele>
        <time>2020-07-10T12:13:57Z</time>
      </trkpt>
      <trkpt lat="47.85987" lon="-3.45249">
        <ele>60.81</ele>
        <time>2020-07-10T12:13:58Z</time>
      </trkpt>
      <trkpt lat="47.85985" lon="-3.45252">
        <ele>61.03</ele>
        <time>2020-07-10T12:13:59Z</time>
      </trkpt>
      <trkpt lat="47.85984" lon="-3.45255">
        <ele>61.15</ele>
        <time>2020-07-10T12:14:00Z</time>
      </trkpt>
      <trkpt lat="47.85983" lon="-3.45258">
        <ele>61.28</ele>
        <time>2020-07-10T12:14:01Z</time>
      </trkpt>
      <trkpt lat="47.85982" lon="-3.45261">
        <ele>61.42</ele>
        <time>2020-07-10T12:14:02Z</time>
      </trkpt>
      <trkpt lat="47.85982" lon="-3.45263">
        <ele>61.6</ele>
        <time>2020-07-10T12:14:03Z</time>
      </trkpt>
      <trkpt lat="47.85982" lon="-3.45266">
        <ele>61.76</ele>
        <time>2020-07-10T12:14:04Z</time>
      </trkpt>
      <trkpt lat="47.85982" lon="-3.45269">
        <ele>61.99</ele>
        <time>2020-07-10T12:14:05Z</time>
      </trkpt>
      <trkpt lat="47.85983" lon="-3.45272">
        <ele>62.22</ele>
        <time>2020-07-10T12:14:06Z</time>
      </trkpt>
      <trkpt lat="47.85984" lon="-3.45275">
        <ele>62.5</ele>
        <time>2020-07-10T12:14:07Z</time>
      </trkpt>
      <trkpt lat="47.85985" lon="-3.45278">
        <ele>62.81</ele>
        <time>2020-07-10T12:14:08Z</time>
      </trkpt>
      <trkpt lat="47.85987" lon="-3.45283">
        <ele>63.16</ele>
        <time>2020-07-10T12:14:09Z</time>
      </trkpt>
      <trkpt lat="47.85988" lon="-3.45286">
        <ele>63.46</ele>
        <time>2020-07-10T12:14:10Z</time>
      </trkpt>
      <trkpt lat="47.85989" lon="-3.4529">
        <ele>63.73</ele>
        <time>2020-07-10T12:14:11Z</time>
      </trkpt>
      <trkpt lat="47.85988" lon="-3.45293">
        <ele>63.88</ele>
        <time>2020-07-10T12:14:12Z</time>
      </trkpt>
      <trkpt lat="47.85988" lon="-3.45297">
        <ele>64.04</ele>
        <time>2020-07-10T12:14:13Z</time>
      </trkpt>
      <trkpt lat="47.85988" lon="-3.45302">
        <ele>64.26</ele>
        <time>2020-07-10T12:14:14Z</time>
      </trkpt>
      <trkpt lat="47.85988" lon="-3.45306">
        <ele>64.49</ele>
        <time>2020-07-10T12:14:15Z</time>
      </trkpt>
      <trkpt lat="47.85988" lon="-3.4531">
        <ele>64.82</ele>
        <time>2020-07-10T12:14:16Z</time>
      </trkpt>
      <trkpt lat="47.85987" lon="-3.45314">
        <ele>65.12</ele>
        <time>2020-07-10T12:14:17Z</time>
      </trkpt>
      <trkpt lat="47.85986" lon="-3.45317">
        <ele>65.42</ele>
        <time>2020-07-10T12:14:18Z</time>
      </trkpt>
      <trkpt lat="47.85985" lon="-3.4532">
        <ele>65.69</ele>
        <time>2020-07-10T12:14:19Z</time>
      </trkpt>
      <trkpt lat="47.85984" lon="-3.45323">
        <ele>65.96</ele>
        <time>2020-07-10T12:14:20Z</time>
      </trkpt>
      <trkpt lat="47.85983" lon="-3.45327">
        <ele>66.27</ele>
        <time>2020-07-10T12:14:21Z</time>
      </trkpt>
      <trkpt lat="47.85982" lon="-3.45331">
        <ele>66.61</ele>
        <time>2020-07-10T12:14:22Z</time>
      </trkpt>
      <trkpt lat="47.85981" lon="-3.45334">
        <ele>66.93</ele>
        <time>2020-07-10T12:14:23Z</time>
      </trkpt>
      <trkpt lat="47.8598" lon="-3.45338">
        <ele>67.22</ele>
        <time>2020-07-10T12:14:24Z</time>
      </trkpt>
      <trkpt lat="47.85978" lon="-3.45342">
        <ele>67.52</ele>
        <time>2020-07-10T12:14:25Z</time>
      </trkpt>
      <trkpt lat="47.85978" lon="-3.45347">
        <ele>67.86</ele>
        <time>2020-07-10T12:14:26Z</time>
      </trkpt>
      <trkpt lat="47.85976" lon="-3.45352">
        <ele>68.19</ele>
        <time>2020-07-10T12:14:27Z</time>
      </trkpt>
      <trkpt lat="47.85975" lon="-3.45356">
        <ele>68.48</ele>
        <time>2020-07-10T12:14:28Z</time>
      </trkpt>
      <trkpt lat="47.85974" lon="-3.45359">
        <ele>68.76</ele>
        <time>2020-07-10T12:14:29Z</time>
      </trkpt>
      <trkpt lat="47.85972" lon="-3.45364">
        <ele>68.98</ele>
        <time>2020-07-10T12:14:30Z</time>
      </trkpt>
      <trkpt lat="47.8597" lon="-3.45367">
        <ele>68.99</ele>
        <time>2020-07-10T12:14:31Z</time>
      </trkpt>
      <trkpt lat="47.85968" lon="-3.4537">
        <ele>68.92</ele>
        <time>2020-07-10T12:14:32Z</time>
      </trkpt>
      <trkpt lat="47.85966" lon="-3.45371">
        <ele>68.77</ele>
        <time>2020-07-10T12:14:33Z</time>
      </trkpt>
      <trkpt lat="47.85964" lon="-3.45373">
        <ele>68.62</ele>
        <time>2020-07-10T12:14:34Z</time>
      </trkpt>
      <trkpt lat="47.85962" lon="-3.45376">
        <ele>68.45</ele>
        <time>2020-07-10T12:14:35Z</time>
      </trkpt>
      <trkpt lat="47.85959" lon="-3.45378">
        <ele>68.27</ele>
        <time>2020-07-10T12:14:36Z</time>
      </trkpt>
      <trkpt lat="47.85957" lon="-3.45378">
        <ele>68.07</ele>
        <time>2020-07-10T12:14:37Z</time>
      </trkpt>
      <trkpt lat="47.85955" lon="-3.45378">
        <ele>67.86</ele>
        <time>2020-07-10T12:14:38Z</time>
      </trkpt>
      <trkpt lat="47.85953" lon="-3.45376">
        <ele>67.58</ele>
        <time>2020-07-10T12:14:39Z</time>
      </trkpt>
      <trkpt lat="47.8595" lon="-3.45375">
        <ele>67.21</ele>
        <time>2020-07-10T12:14:40Z</time>
      </trkpt>
      <trkpt lat="47.85947" lon="-3.45373">
        <ele>66.82</ele>
        <time>2020-07-10T12:14:41Z</time>
      </trkpt>
      <trkpt lat="47.85943" lon="-3.4537">
        <ele>66.41</ele>
        <time>2020-07-10T12:14:42Z</time>
      </trkpt>
      <trkpt lat="47.8594" lon="-3.45368">
        <ele>66.08</ele>
        <time>2020-07-10T12:14:43Z</time>
      </trkpt>
      <trkpt lat="47.85938" lon="-3.45365">
        <ele>65.76</ele>
        <time>2020-07-10T12:14:44Z</time>
      </trkpt>
      <trkpt lat="47.85936" lon="-3.45361">
        <ele>65.5</ele>
        <time>2020-07-10T12:14:45Z</time>
      </trkpt>
      <trkpt lat="47.85933" lon="-3.45359">
        <ele>65.18</ele>
        <time>2020-07-10T12:14:46Z</time>
      </trkpt>
      <trkpt lat="47.85929" lon="-3.45357">
        <ele>64.8</ele>
        <time>2020-07-10T12:14:47Z</time>
      </trkpt>
      <trkpt lat="47.85923" lon="-3.45355">
        <ele>64.4</ele>
        <time>2020-07-10T12:14:48Z</time>
      </trkpt>
      <trkpt lat="47.85919" lon="-3.45355">
        <ele>64.06</ele>
        <time>2020-07-10T12:14:49Z</time>
      </trkpt>
      <trkpt lat="47.85915" lon="-3.45354">
        <ele>63.81</ele>
        <time>2020-07-10T12:14:50Z</time>
      </trkpt>
      <trkpt lat="47.8591" lon="-3.45353">
        <ele>63.64</ele>
        <time>2020-07-10T12:14:51Z</time>
      </trkpt>
      <trkpt lat="47.85906" lon="-3.45352">
        <ele>63.49</ele>
        <time>2020-07-10T12:14:52Z</time>
      </trkpt>
      <trkpt lat="47.85902" lon="-3.45351">
        <ele>63.35</ele>
        <time>2020-07-10T12:14:53Z</time>
      </trkpt>
      <trkpt lat="47.85896" lon="-3.45351">
        <ele>63.23</ele>
        <time>2020-07-10T12:14:54Z</time>
      </trkpt>
      <trkpt lat="47.85892" lon="-3.45352">
        <ele>63.12</ele>
        <time>2020-07-10T12:14:55Z</time>
      </trkpt>
      <trkpt lat="47.85887" lon="-3.45352">
        <ele>62.95</ele>
        <time>2020-07-10T12:14:56Z</time>
      </trkpt>
      <trkpt lat="47.85881" lon="-3.45353">
        <ele>62.74</ele>
        <time>2020-07-10T12:14:57Z</time>
      </trkpt>
      <trkpt lat="47.85877" lon="-3.45355">
        <ele>62.55</ele>
        <time>2020-07-10T12:14:58Z</time>
      </trkpt>
      <trkpt lat="47.85871" lon="-3.4536">
        <ele>62.41</ele>
        <time>2020-07-10T12:14:59Z</time>
      </trkpt>
      <trkpt lat="47.85867" lon="-3.45365">
        <ele>62.37</ele>
        <time>2020-07-10T12:15:00Z</time>
      </trkpt>
      <trkpt lat="47.85863" lon="-3.45371">
        <ele>62.4</ele>
        <time>2020-07-10T12:15:01Z</time>
      </trkpt>
      <trkpt lat="47.8586" lon="-3.45376">
        <ele>62.47</ele>
        <time>2020-07-10T12:15:02Z</time>
      </trkpt>
      <trkpt lat="47.85858" lon="-3.45382">
        <ele>62.61</ele>
        <time>2020-07-10T12:15:03Z</time>
      </trkpt>
      <trkpt lat="47.85857" lon="-3.45389">
        <ele>62.78</ele>
        <time>2020-07-10T12:15:04Z</time>
      </trkpt>
      <trkpt lat="47.85854" lon="-3.45397">
        <ele>62.92</ele>
        <time>2020-07-10T12:15:05Z</time>
      </trkpt>
      <trkpt lat="47.85853" lon="-3.45405">
        <ele>63.05</ele>
        <time>2020-07-10T12:15:06Z</time>
      </trkpt>
      <trkpt lat="47.85852" lon="-3.4541">
        <ele>63.16</ele>
        <time>2020-07-10T12:15:07Z</time>
      </trkpt>
      <trkpt lat="47.85852" lon="-3.45417">
        <ele>63.3</ele>
        <time>2020-07-10T12:15:08Z</time>
      </trkpt>
      <trkpt lat="47.85852" lon="-3.45423">
        <ele>63.39</ele>
        <time>2020-07-10T12:15:09Z</time>
      </trkpt>
      <trkpt lat="47.85852" lon="-3.45429">
        <ele>63.46</ele>
        <time>2020-07-10T12:15:10Z</time>
      </trkpt>
      <trkpt lat="47.85851" lon="-3.45436">
        <ele>63.51</ele>
        <time>2020-07-10T12:15:11Z</time>
      </trkpt>
      <trkpt lat="47.8585" lon="-3.45442">
        <ele>63.55</ele>
        <time>2020-07-10T12:15:12Z</time>
      </trkpt>
      <trkpt lat="47.85848" lon="-3.45449">
        <ele>63.55</ele>
        <time>2020-07-10T12:15:13Z</time>
      </trkpt>
      <trkpt lat="47.85847" lon="-3.45455">
        <ele>63.5</ele>
        <time>2020-07-10T12:15:14Z</time>
      </trkpt>
      <trkpt lat="47.85846" lon="-3.45461">
        <ele>63.46</ele>
        <time>2020-07-10T12:15:15Z</time>
      </trkpt>
      <trkpt lat="47.85845" lon="-3.45467">
        <ele>63.44</ele>
        <time>2020-07-10T12:15:16Z</time>
      </trkpt>
      <trkpt lat="47.85844" lon="-3.45473">
        <ele>63.4</ele>
        <time>2020-07-10T12:15:17Z</time>
      </trkpt>
      <trkpt lat="47.85842" lon="-3.4548">
        <ele>63.21</ele>
        <time>2020-07-10T12:15:18Z</time>
      </trkpt>
      <trkpt lat="47.8584" lon="-3.45486">
        <ele>62.99</ele>
        <time>2020-07-10T12:15:19Z</time>
      </trkpt>
      <trkpt lat="47.85841" lon="-3.45491">
        <ele>62.83</ele>
        <time>2020-07-10T12:15:20Z</time>
      </trkpt>
      <trkpt lat="47.85841" lon="-3.45496">
        <ele>62.72</ele>
        <time>2020-07-10T12:15:21Z</time>
      </trkpt>
      <trkpt lat="47.85841" lon="-3.45502">
        <ele>62.59</ele>
        <time>2020-07-10T12:15:22Z</time>
      </trkpt>
      <trkpt lat="47.8584" lon="-3.45508">
        <ele>62.5</ele>
        <time>2020-07-10T12:15:23Z</time>
      </trkpt>
      <trkpt lat="47.85839" lon="-3.45513">
        <ele>62.42</ele>
        <time>2020-07-10T12:15:24Z</time>
      </trkpt>
      <trkpt lat="47.85838" lon="-3.45519">
        <ele>62.34</ele>
        <time>2020-07-10T12:15:25Z</time>
      </trkpt>
      <trkpt lat="47.85837" lon="-3.45524">
        <ele>62.28</ele>
        <time>2020-07-10T12:15:26Z</time>
      </trkpt>
      <trkpt lat="47.85836" lon="-3.4553">
        <ele>62.22</ele>
        <time>2020-07-10T12:15:27Z</time>
      </trkpt>
      <trkpt lat="47.85835" lon="-3.45536">
        <ele>62.15</ele>
        <time>2020-07-10T12:15:28Z</time>
      </trkpt>
      <trkpt lat="47.85834" lon="-3.45542">
        <ele>62.06</ele>
        <time>2020-07-10T12:15:29Z</time>
      </trkpt>
      <trkpt lat="47.85834" lon="-3.45549">
        <ele>62.03</ele>
        <time>2020-07-10T12:15:30Z</time>
      </trkpt>
      <trkpt lat="47.85834" lon="-3.45556">
        <ele>62.02</ele>
        <time>2020-07-10T12:15:31Z</time>
      </trkpt>
      <trkpt lat="47.85834" lon="-3.45562">
        <ele>61.85</ele>
        <time>2020-07-10T12:15:32Z</time>
      </trkpt>
      <trkpt lat="47.85834" lon="-3.45569">
        <ele>61.65</ele>
        <time>2020-07-10T12:15:33Z</time>
      </trkpt>
      <trkpt lat="47.85835" lon="-3.45576">
        <ele>61.43</ele>
        <time>2020-07-10T12:15:34Z</time>
      </trkpt>
      <trkpt lat="47.85834" lon="-3.45584">
        <ele>61.18</ele>
        <time>2020-07-10T12:15:35Z</time>
      </trkpt>
      <trkpt lat="47.85834" lon="-3.45592">
        <ele>60.91</ele>
        <time>2020-07-10T12:15:36Z</time>
      </trkpt>
      <trkpt lat="47.85835" lon="-3.45599">
        <ele>60.67</ele>
        <time>2020-07-10T12:15:37Z</time>
      </trkpt>
      <trkpt lat="47.85835" lon="-3.45606">
        <ele>60.42</ele>
        <time>2020-07-10T12:15:38Z</time>
      </trkpt>
      <trkpt lat="47.85835" lon="-3.45614">
        <ele>60.24</ele>
        <time>2020-07-10T12:15:39Z</time>
      </trkpt>
      <trkpt lat="47.85836" lon="-3.45621">
        <ele>60.21</ele>
        <time>2020-07-10T12:15:40Z</time>
      </trkpt>
      <trkpt lat="47.85836" lon="-3.45629">
        <ele>60.2</ele>
        <time>2020-07-10T12:15:41Z</time>
      </trkpt>
      <trkpt lat="47.85837" lon="-3.45637">
        <ele>60.22</ele>
        <time>2020-07-10T12:15:42Z</time>
      </trkpt>
      <trkpt lat="47.85836" lon="-3.45646">
        <ele>60.21</ele>
        <time>2020-07-10T12:15:43Z</time>
      </trkpt>
      <trkpt lat="47.85835" lon="-3.45654">
        <ele>60.16</ele>
        <time>2020-07-10T12:15:44Z</time>
      </trkpt>
      <trkpt lat="47.85835" lon="-3.45661">
        <ele>60.12</ele>
        <time>2020-07-10T12:15:45Z</time>
      </trkpt>
      <trkpt lat="47.85834" lon="-3.4567">
        <ele>60.08</ele>
        <time>2020-07-10T12:15:46Z</time>
      </trkpt>
      <trkpt lat="47.85834" lon="-3.45677">
        <ele>60.05</ele>
        <time>2020-07-10T12:15:47Z</time>
      </trkpt>
      <trkpt lat="47.85834" lon="-3.45684">
        <ele>60.03</ele>
        <time>2020-07-10T12:15:48Z</time>
      </trkpt>
      <trkpt lat="47.85833" lon="-3.45692">
        <ele>59.99</ele>
        <time>2020-07-10T12:15:49Z</time>
      </trkpt>
      <trkpt lat="47.85832" lon="-3.45699">
        <ele>59.94</ele>
        <time>2020-07-10T12:15:50Z</time>
      </trkpt>
      <trkpt lat="47.85831" lon="-3.45707">
        <ele>59.9</ele>
        <time>2020-07-10T12:15:51Z</time>
      </trkpt>
      <trkpt lat="47.85831" lon="-3.45714">
        <ele>59.88</ele>
        <time>2020-07-10T12:15:52Z</time>
      </trkpt>
      <trkpt lat="47.85829" lon="-3.45721">
        <ele>59.86</ele>
        <time>2020-07-10T12:15:53Z</time>
      </trkpt>
      <trkpt lat="47.85828" lon="-3.45728">
        <ele>59.94</ele>
        <time>2020-07-10T12:15:54Z</time>
      </trkpt>
      <trkpt lat="47.85827" lon="-3.45734">
        <ele>60.04</ele>
        <time>2020-07-10T12:15:55Z</time>
      </trkpt>
      <trkpt lat="47.85825" lon="-3.45741">
        <ele>60.15</ele>
        <time>2020-07-10T12:15:56Z</time>
      </trkpt>
      <trkpt lat="47.85824" lon="-3.45747">
        <ele>60.25</ele>
        <time>2020-07-10T12:15:57Z</time>
      </trkpt>
      <trkpt lat="47.85823" lon="-3.45754">
        <ele>60.36</ele>
        <time>2020-07-10T12:15:58Z</time>
      </trkpt>
      <trkpt lat="47.85822" lon="-3.4576">
        <ele>60.49</ele>
        <time>2020-07-10T12:15:59Z</time>
      </trkpt>
      <trkpt lat="47.85821" lon="-3.45767">
        <ele>60.63</ele>
        <time>2020-07-10T12:16:00Z</time>
      </trkpt>
      <trkpt lat="47.8582" lon="-3.45774">
        <ele>60.8</ele>
        <time>2020-07-10T12:16:01Z</time>
      </trkpt>
      <trkpt lat="47.85818" lon="-3.45781">
        <ele>60.98</ele>
        <time>2020-07-10T12:16:02Z</time>
      </trkpt>
      <trkpt lat="47.85818" lon="-3.45788">
        <ele>61.17</ele>
        <time>2020-07-10T12:16:03Z</time>
      </trkpt>
      <trkpt lat="47.85817" lon="-3.45794">
        <ele>61.31</ele>
        <time>2020-07-10T12:16:04Z</time>
      </trkpt>
      <trkpt lat="47.85815" lon="-3.45799">
        <ele>61.42</ele>
        <time>2020-07-10T12:16:05Z</time>
      </trkpt>
      <trkpt lat="47.85813" lon="-3.45805">
        <ele>61.5</ele>
        <time>2020-07-10T12:16:06Z</time>
      </trkpt>
      <trkpt lat="47.85811" lon="-3.45811">
        <ele>61.53</ele>
        <time>2020-07-10T12:16:07Z</time>
      </trkpt>
      <trkpt lat="47.85808" lon="-3.45816">
        <ele>61.53</ele>
        <time>2020-07-10T12:16:08Z</time>
      </trkpt>
      <trkpt lat="47.85804" lon="-3.45821">
        <ele>61.47</ele>
        <time>2020-07-10T12:16:09Z</time>
      </trkpt>
      <trkpt lat="47.858" lon="-3.45826">
        <ele>61.37</ele>
        <time>2020-07-10T12:16:10Z</time>
      </trkpt>
      <trkpt lat="47.85797" lon="-3.45831">
        <ele>61.3</ele>
        <time>2020-07-10T12:16:11Z</time>
      </trkpt>
      <trkpt lat="47.85793" lon="-3.45836">
        <ele>61.19</ele>
        <time>2020-07-10T12:16:12Z</time>
      </trkpt>
      <trkpt lat="47.85789" lon="-3.45842">
        <ele>61.07</ele>
        <time>2020-07-10T12:16:13Z</time>
      </trkpt>
      <trkpt lat="47.85786" lon="-3.45848">
        <ele>60.99</ele>
        <time>2020-07-10T12:16:14Z</time>
      </trkpt>
      <trkpt lat="47.85782" lon="-3.45855">
        <ele>60.96</ele>
        <time>2020-07-10T12:16:15Z</time>
      </trkpt>
      <trkpt lat="47.85778" lon="-3.45861">
        <ele>61</ele>
        <time>2020-07-10T12:16:16Z</time>
      </trkpt>
      <trkpt lat="47.85775" lon="-3.45869">
        <ele>60.87</ele>
        <time>2020-07-10T12:16:17Z</time>
      </trkpt>
      <trkpt lat="47.85772" lon="-3.45876">
        <ele>60.73</ele>
        <time>2020-07-10T12:16:18Z</time>
      </trkpt>
      <trkpt lat="47.85768" lon="-3.45884">
        <ele>60.63</ele>
        <time>2020-07-10T12:16:19Z</time>
      </trkpt>
      <trkpt lat="47.85765" lon="-3.45892">
        <ele>60.64</ele>
        <time>2020-07-10T12:16:20Z</time>
      </trkpt>
      <trkpt lat="47.85762" lon="-3.45899">
        <ele>60.75</ele>
        <time>2020-07-10T12:16:21Z</time>
      </trkpt>
      <trkpt lat="47.85758" lon="-3.45907">
        <ele>60.89</ele>
        <time>2020-07-10T12:16:22Z</time>
      </trkpt>
      <trkpt lat="47.85755" lon="-3.45915">
        <ele>61.05</ele>
        <time>2020-07-10T12:16:23Z</time>
      </trkpt>
      <trkpt lat="47.85752" lon="-3.45922">
        <ele>61.08</ele>
        <time>2020-07-10T12:16:24Z</time>
      </trkpt>
      <trkpt lat="47.85749" lon="-3.45931">
        <ele>60.98</ele>
        <time>2020-07-10T12:16:25Z</time>
      </trkpt>
      <trkpt lat="47.85747" lon="-3.45939">
        <ele>60.83</ele>
        <time>2020-07-10T12:16:26Z</time>
      </trkpt>
      <trkpt lat="47.85745" lon="-3.45947">
        <ele>60.68</ele>
        <time>2020-07-10T12:16:27Z</time>
      </trkpt>
      <trkpt lat="47.85742" lon="-3.45955">
        <ele>60.59</ele>
        <time>2020-07-10T12:16:28Z</time>
      </trkpt>
      <trkpt lat="47.8574" lon="-3.45962">
        <ele>60.52</ele>
        <time>2020-07-10T12:16:29Z</time>
      </trkpt>
      <trkpt lat="47.85737" lon="-3.45969">
        <ele>60.49</ele>
        <time>2020-07-10T12:16:30Z</time>
      </trkpt>
      <trkpt lat="47.85735" lon="-3.45976">
        <ele>60.51</ele>
        <time>2020-07-10T12:16:31Z</time>
      </trkpt>
      <trkpt lat="47.85733" lon="-3.45983">
        <ele>60.53</ele>
        <time>2020-07-10T12:16:32Z</time>
      </trkpt>
      <trkpt lat="47.85731" lon="-3.45992">
        <ele>60.54</ele>
        <time>2020-07-10T12:16:33Z</time>
      </trkpt>
      <trkpt lat="47.85729" lon="-3.45999">
        <ele>60.52</ele>
        <time>2020-07-10T12:16:34Z</time>
      </trkpt>
      <trkpt lat="47.85728" lon="-3.46008">
        <ele>60.43</ele>
        <time>2020-07-10T12:16:35Z</time>
      </trkpt>
      <trkpt lat="47.85726" lon="-3.46016">
        <ele>60.33</ele>
        <time>2020-07-10T12:16:36Z</time>
      </trkpt>
      <trkpt lat="47.85725" lon="-3.46026">
        <ele>60.24</ele>
        <time>2020-07-10T12:16:37Z</time>
      </trkpt>
      <trkpt lat="47.85724" lon="-3.46035">
        <ele>60.17</ele>
        <time>2020-07-10T12:16:38Z</time>
      </trkpt>
      <trkpt lat="47.85724" lon="-3.46045">
        <ele>60.14</ele>
        <time>2020-07-10T12:16:39Z</time>
      </trkpt>
      <trkpt lat="47.85724" lon="-3.46054">
        <ele>60.11</ele>
        <time>2020-07-10T12:16:40Z</time>
      </trkpt>
      <trkpt lat="47.85724" lon="-3.46064">
        <ele>60.1</ele>
        <time>2020-07-10T12:16:41Z</time>
      </trkpt>
      <trkpt lat="47.85724" lon="-3.46073">
        <ele>60.09</ele>
        <time>2020-07-10T12:16:42Z</time>
      </trkpt>
      <trkpt lat="47.85725" lon="-3.46082">
        <ele>60.09</ele>
        <time>2020-07-10T12:16:43Z</time>
      </trkpt>
      <trkpt lat="47.85725" lon="-3.46091">
        <ele>59.92</ele>
        <time>2020-07-10T12:16:44Z</time>
      </trkpt>
      <trkpt lat="47.85726" lon="-3.461">
        <ele>59.69</ele>
        <time>2020-07-10T12:16:45Z</time>
      </trkpt>
      <trkpt lat="47.85726" lon="-3.4611">
        <ele>59.46</ele>
        <time>2020-07-10T12:16:46Z</time>
      </trkpt>
      <trkpt lat="47.85728" lon="-3.46118">
        <ele>59.38</ele>
        <time>2020-07-10T12:16:47Z</time>
      </trkpt>
      <trkpt lat="47.85729" lon="-3.46127">
        <ele>59.35</ele>
        <time>2020-07-10T12:16:48Z</time>
      </trkpt>
      <trkpt lat="47.85729" lon="-3.46135">
        <ele>59.31</ele>
        <time>2020-07-10T12:16:49Z</time>
      </trkpt>
      <trkpt lat="47.8573" lon="-3.46143">
        <ele>59.22</ele>
        <time>2020-07-10T12:16:50Z</time>
      </trkpt>
      <trkpt lat="47.85731" lon="-3.46151">
        <ele>59.07</ele>
        <time>2020-07-10T12:16:51Z</time>
      </trkpt>
      <trkpt lat="47.85732" lon="-3.46159">
        <ele>58.92</ele>
        <time>2020-07-10T12:16:52Z</time>
      </trkpt>
      <trkpt lat="47.85733" lon="-3.46167">
        <ele>58.79</ele>
        <time>2020-07-10T12:16:53Z</time>
      </trkpt>
      <trkpt lat="47.85734" lon="-3.46176">
        <ele>58.59</ele>
        <time>2020-07-10T12:16:54Z</time>
      </trkpt>
      <trkpt lat="47.85735" lon="-3.46184">
        <ele>58.39</ele>
        <time>2020-07-10T12:16:55Z</time>
      </trkpt>
      <trkpt lat="47.85736" lon="-3.46192">
        <ele>58.18</ele>
        <time>2020-07-10T12:16:56Z</time>
      </trkpt>
      <trkpt lat="47.85737" lon="-3.46201">
        <ele>57.84</ele>
        <time>2020-07-10T12:16:57Z</time>
      </trkpt>
      <trkpt lat="47.85738" lon="-3.4621">
        <ele>57.42</ele>
        <time>2020-07-10T12:16:58Z</time>
      </trkpt>
      <trkpt lat="47.85738" lon="-3.46218">
        <ele>56.99</ele>
        <time>2020-07-10T12:16:59Z</time>
      </trkpt>
      <trkpt lat="47.85738" lon="-3.46226">
        <ele>56.61</ele>
        <time>2020-07-10T12:17:00Z</time>
      </trkpt>
      <trkpt lat="47.85738" lon="-3.46232">
        <ele>56.33</ele>
        <time>2020-07-10T12:17:01Z</time>
      </trkpt>
      <trkpt lat="47.85736" lon="-3.46238">
        <ele>56.06</ele>
        <time>2020-07-10T12:17:02Z</time>
      </trkpt>
      <trkpt lat="47.85733" lon="-3.46243">
        <ele>55.77</ele>
        <time>2020-07-10T12:17:03Z</time>
      </trkpt>
      <trkpt lat="47.85729" lon="-3.46248">
        <ele>55.47</ele>
        <time>2020-07-10T12:17:04Z</time>
      </trkpt>
      <trkpt lat="47.85724" lon="-3.46252">
        <ele>55.1</ele>
        <time>2020-07-10T12:17:05Z</time>
      </trkpt>
      <trkpt lat="47.85718" lon="-3.46255">
        <ele>54.65</ele>
        <time>2020-07-10T12:17:06Z</time>
      </trkpt>
      <trkpt lat="47.85712" lon="-3.46259">
        <ele>54.08</ele>
        <time>2020-07-10T12:17:07Z</time>
      </trkpt>
      <trkpt lat="47.85705" lon="-3.46264">
        <ele>53.37</ele>
        <time>2020-07-10T12:17:08Z</time>
      </trkpt>
      <trkpt lat="47.85698" lon="-3.46269">
        <ele>52.53</ele>
        <time>2020-07-10T12:17:09Z</time>
      </trkpt>
      <trkpt lat="47.8569" lon="-3.46275">
        <ele>51.48</ele>
        <time>2020-07-10T12:17:10Z</time>
      </trkpt>
      <trkpt lat="47.85683" lon="-3.46281">
        <ele>50.41</ele>
        <time>2020-07-10T12:17:11Z</time>
      </trkpt>
      <trkpt lat="47.85675" lon="-3.46288">
        <ele>49.36</ele>
        <time>2020-07-10T12:17:12Z</time>
      </trkpt>
      <trkpt lat="47.85667" lon="-3.46295">
        <ele>48.29</ele>
        <time>2020-07-10T12:17:13Z</time>
      </trkpt>
      <trkpt lat="47.85659" lon="-3.46301">
        <ele>47.36</ele>
        <time>2020-07-10T12:17:14Z</time>
      </trkpt>
      <trkpt lat="47.85649" lon="-3.46311">
        <ele>46.52</ele>
        <time>2020-07-10T12:17:15Z</time>
      </trkpt>
      <trkpt lat="47.85642" lon="-3.4632">
        <ele>45.88</ele>
        <time>2020-07-10T12:17:16Z</time>
      </trkpt>
      <trkpt lat="47.85634" lon="-3.46327">
        <ele>45.15</ele>
        <time>2020-07-10T12:17:17Z</time>
      </trkpt>
      <trkpt lat="47.85626" lon="-3.46334">
        <ele>44.38</ele>
        <time>2020-07-10T12:17:18Z</time>
      </trkpt>
      <trkpt lat="47.85617" lon="-3.46341">
        <ele>43.49</ele>
        <time>2020-07-10T12:17:19Z</time>
      </trkpt>
      <trkpt lat="47.85609" lon="-3.4635">
        <ele>42.71</ele>
        <time>2020-07-10T12:17:20Z</time>
      </trkpt>
      <trkpt lat="47.85601" lon="-3.46358">
        <ele>42.26</ele>
        <time>2020-07-10T12:17:21Z</time>
      </trkpt>
      <trkpt lat="47.85594" lon="-3.46366">
        <ele>41.99</ele>
        <time>2020-07-10T12:17:22Z</time>
      </trkpt>
      <trkpt lat="47.85587" lon="-3.46378">
        <ele>41.63</ele>
        <time>2020-07-10T12:17:23Z</time>
      </trkpt>
      <trkpt lat="47.85574" lon="-3.46386">
        <ele>41.23</ele>
        <time>2020-07-10T12:17:24Z</time>
      </trkpt>
      <trkpt lat="47.85567" lon="-3.46393">
        <ele>41.01</ele>
        <time>2020-07-10T12:17:25Z</time>
      </trkpt>
      <trkpt lat="47.85559" lon="-3.464">
        <ele>40.76</ele>
        <time>2020-07-10T12:17:26Z</time>
      </trkpt>
      <trkpt lat="47.85553" lon="-3.46405">
        <ele>40.49</ele>
        <time>2020-07-10T12:17:27Z</time>
      </trkpt>
      <trkpt lat="47.85547" lon="-3.46412">
        <ele>40.22</ele>
        <time>2020-07-10T12:17:28Z</time>
      </trkpt>
      <trkpt lat="47.8554" lon="-3.46418">
        <ele>40.04</ele>
        <time>2020-07-10T12:17:29Z</time>
      </trkpt>
      <trkpt lat="47.85532" lon="-3.46424">
        <ele>39.86</ele>
        <time>2020-07-10T12:17:30Z</time>
      </trkpt>
      <trkpt lat="47.85525" lon="-3.4643">
        <ele>39.6</ele>
        <time>2020-07-10T12:17:31Z</time>
      </trkpt>
      <trkpt lat="47.85519" lon="-3.46435">
        <ele>39.33</ele>
        <time>2020-07-10T12:17:32Z</time>
      </trkpt>
      <trkpt lat="47.85512" lon="-3.4644">
        <ele>39.15</ele>
        <time>2020-07-10T12:17:33Z</time>
      </trkpt>
      <trkpt lat="47.85505" lon="-3.46444">
        <ele>39.05</ele>
        <time>2020-07-10T12:17:34Z</time>
      </trkpt>
      <trkpt lat="47.85498" lon="-3.46448">
        <ele>39.16</ele>
        <time>2020-07-10T12:17:35Z</time>
      </trkpt>
      <trkpt lat="47.85492" lon="-3.46452">
        <ele>39.44</ele>
        <time>2020-07-10T12:17:36Z</time>
      </trkpt>
      <trkpt lat="47.85485" lon="-3.46454">
        <ele>39.75</ele>
        <time>2020-07-10T12:17:37Z</time>
      </trkpt>
      <trkpt lat="47.8548" lon="-3.46457">
        <ele>40.05</ele>
        <time>2020-07-10T12:17:38Z</time>
      </trkpt>
      <trkpt lat="47.85474" lon="-3.46459">
        <ele>40.33</ele>
        <time>2020-07-10T12:17:39Z</time>
      </trkpt>
      <trkpt lat="47.85469" lon="-3.46461">
        <ele>40.62</ele>
        <time>2020-07-10T12:17:40Z</time>
      </trkpt>
      <trkpt lat="47.85464" lon="-3.46462">
        <ele>40.92</ele>
        <time>2020-07-10T12:17:41Z</time>
      </trkpt>
      <trkpt lat="47.85459" lon="-3.46463">
        <ele>41.2</ele>
        <time>2020-07-10T12:17:42Z</time>
      </trkpt>
      <trkpt lat="47.85453" lon="-3.46465">
        <ele>41.47</ele>
        <time>2020-07-10T12:17:43Z</time>
      </trkpt>
      <trkpt lat="47.85448" lon="-3.46466">
        <ele>41.72</ele>
        <time>2020-07-10T12:17:44Z</time>
      </trkpt>
      <trkpt lat="47.85443" lon="-3.46467">
        <ele>42.01</ele>
        <time>2020-07-10T12:17:45Z</time>
      </trkpt>
      <trkpt lat="47.85437" lon="-3.46468">
        <ele>42.38</ele>
        <time>2020-07-10T12:17:46Z</time>
      </trkpt>
      <trkpt lat="47.85432" lon="-3.46469">
        <ele>42.75</ele>
        <time>2020-07-10T12:17:47Z</time>
      </trkpt>
      <trkpt lat="47.85427" lon="-3.4647">
        <ele>43.11</ele>
        <time>2020-07-10T12:17:48Z</time>
      </trkpt>
      <trkpt lat="47.85422" lon="-3.46471">
        <ele>43.48</ele>
        <time>2020-07-10T12:17:49Z</time>
      </trkpt>
      <trkpt lat="47.85417" lon="-3.46472">
        <ele>43.83</ele>
        <time>2020-07-10T12:17:50Z</time>
      </trkpt>
      <trkpt lat="47.85413" lon="-3.46473">
        <ele>44.16</ele>
        <time>2020-07-10T12:17:51Z</time>
      </trkpt>
      <trkpt lat="47.85408" lon="-3.46473">
        <ele>44.48</ele>
        <time>2020-07-10T12:17:52Z</time>
      </trkpt>
      <trkpt lat="47.85404" lon="-3.46474">
        <ele>44.78</ele>
        <time>2020-07-10T12:17:53Z</time>
      </trkpt>
      <trkpt lat="47.854" lon="-3.46474">
        <ele>45.07</ele>
        <time>2020-07-10T12:17:54Z</time>
      </trkpt>
      <trkpt lat="47.85396" lon="-3.46475">
        <ele>45.36</ele>
        <time>2020-07-10T12:17:55Z</time>
      </trkpt>
      <trkpt lat="47.85392" lon="-3.46475">
        <ele>45.67</ele>
        <time>2020-07-10T12:17:56Z</time>
      </trkpt>
      <trkpt lat="47.85387" lon="-3.46476">
        <ele>45.98</ele>
        <time>2020-07-10T12:17:57Z</time>
      </trkpt>
      <trkpt lat="47.85383" lon="-3.46477">
        <ele>46.29</ele>
        <time>2020-07-10T12:17:58Z</time>
      </trkpt>
      <trkpt lat="47.85379" lon="-3.46477">
        <ele>46.59</ele>
        <time>2020-07-10T12:17:59Z</time>
      </trkpt>
      <trkpt lat="47.85375" lon="-3.46477">
        <ele>46.89</ele>
        <time>2020-07-10T12:18:00Z</time>
      </trkpt>
      <trkpt lat="47.85371" lon="-3.46478">
        <ele>47.2</ele>
        <time>2020-07-10T12:18:01Z</time>
      </trkpt>
      <trkpt lat="47.85366" lon="-3.46478">
        <ele>47.5</ele>
        <time>2020-07-10T12:18:02Z</time>
      </trkpt>
      <trkpt lat="47.85362" lon="-3.46479">
        <ele>47.8</ele>
        <time>2020-07-10T12:18:03Z</time>
      </trkpt>
      <trkpt lat="47.85358" lon="-3.46479">
        <ele>48.04</ele>
        <time>2020-07-10T12:18:04Z</time>
      </trkpt>
      <trkpt lat="47.85354" lon="-3.4648">
        <ele>48.26</ele>
        <time>2020-07-10T12:18:05Z</time>
      </trkpt>
      <trkpt lat="47.85349" lon="-3.4648">
        <ele>48.45</ele>
        <time>2020-07-10T12:18:06Z</time>
      </trkpt>
      <trkpt lat="47.85345" lon="-3.4648">
        <ele>48.65</ele>
        <time>2020-07-10T12:18:07Z</time>
      </trkpt>
      <trkpt lat="47.85341" lon="-3.4648">
        <ele>48.83</ele>
        <time>2020-07-10T12:18:08Z</time>
      </trkpt>
      <trkpt lat="47.85337" lon="-3.46481">
        <ele>49.04</ele>
        <time>2020-07-10T12:18:09Z</time>
      </trkpt>
      <trkpt lat="47.85333" lon="-3.46482">
        <ele>49.26</ele>
        <time>2020-07-10T12:18:10Z</time>
      </trkpt>
      <trkpt lat="47.85329" lon="-3.46484">
        <ele>49.44</ele>
        <time>2020-07-10T12:18:11Z</time>
      </trkpt>
      <trkpt lat="47.85324" lon="-3.46485">
        <ele>49.57</ele>
        <time>2020-07-10T12:18:12Z</time>
      </trkpt>
      <trkpt lat="47.85319" lon="-3.46486">
        <ele>49.7</ele>
        <time>2020-07-10T12:18:13Z</time>
      </trkpt>
      <trkpt lat="47.85315" lon="-3.46487">
        <ele>49.8</ele>
        <time>2020-07-10T12:18:14Z</time>
      </trkpt>
      <trkpt lat="47.8531" lon="-3.46488">
        <ele>49.89</ele>
        <time>2020-07-10T12:18:15Z</time>
      </trkpt>
      <trkpt lat="47.85306" lon="-3.4649">
        <ele>49.97</ele>
        <time>2020-07-10T12:18:16Z</time>
      </trkpt>
      <trkpt lat="47.85301" lon="-3.46492">
        <ele>49.99</ele>
        <time>2020-07-10T12:18:17Z</time>
      </trkpt>
      <trkpt lat="47.85297" lon="-3.46494">
        <ele>50</ele>
        <time>2020-07-10T12:18:18Z</time>
      </trkpt>
      <trkpt lat="47.85292" lon="-3.46496">
        <ele>50</ele>
        <time>2020-07-10T12:18:19Z</time>
      </trkpt>
      <trkpt lat="47.85288" lon="-3.46498">
        <ele>50</ele>
        <time>2020-07-10T12:18:20Z</time>
      </trkpt>
      <trkpt lat="47.85283" lon="-3.465">
        <ele>50</ele>
        <time>2020-07-10T12:18:21Z</time>
      </trkpt>
      <trkpt lat="47.85277" lon="-3.46502">
        <ele>50</ele>
        <time>2020-07-10T12:18:22Z</time>
      </trkpt>
      <trkpt lat="47.85273" lon="-3.46505">
        <ele>49.98</ele>
        <time>2020-07-10T12:18:23Z</time>
      </trkpt>
      <trkpt lat="47.85268" lon="-3.46507">
        <ele>49.93</ele>
        <time>2020-07-10T12:18:24Z</time>
      </trkpt>
      <trkpt lat="47.85263" lon="-3.4651">
        <ele>49.85</ele>
        <time>2020-07-10T12:18:25Z</time>
      </trkpt>
      <trkpt lat="47.85258" lon="-3.46512">
        <ele>49.74</ele>
        <time>2020-07-10T12:18:26Z</time>
      </trkpt>
      <trkpt lat="47.85253" lon="-3.46514">
        <ele>49.6</ele>
        <time>2020-07-10T12:18:27Z</time>
      </trkpt>
      <trkpt lat="47.85247" lon="-3.46517">
        <ele>49.43</ele>
        <time>2020-07-10T12:18:28Z</time>
      </trkpt>
      <trkpt lat="47.85242" lon="-3.46518">
        <ele>49.3</ele>
        <time>2020-07-10T12:18:29Z</time>
      </trkpt>
      <trkpt lat="47.85237" lon="-3.4652">
        <ele>49.19</ele>
        <time>2020-07-10T12:18:30Z</time>
      </trkpt>
      <trkpt lat="47.85232" lon="-3.46522">
        <ele>49.11</ele>
        <time>2020-07-10T12:18:31Z</time>
      </trkpt>
      <trkpt lat="47.85227" lon="-3.46524">
        <ele>49.05</ele>
        <time>2020-07-10T12:18:32Z</time>
      </trkpt>
      <trkpt lat="47.85222" lon="-3.46527">
        <ele>49.03</ele>
        <time>2020-07-10T12:18:33Z</time>
      </trkpt>
      <trkpt lat="47.85217" lon="-3.4653">
        <ele>49.14</ele>
        <time>2020-07-10T12:18:34Z</time>
      </trkpt>
      <trkpt lat="47.85211" lon="-3.46532">
        <ele>49.27</ele>
        <time>2020-07-10T12:18:35Z</time>
      </trkpt>
      <trkpt lat="47.85206" lon="-3.46535">
        <ele>49.39</ele>
        <time>2020-07-10T12:18:36Z</time>
      </trkpt>
      <trkpt lat="47.852" lon="-3.46537">
        <ele>49.47</ele>
        <time>2020-07-10T12:18:37Z</time>
      </trkpt>
      <trkpt lat="47.85195" lon="-3.4654">
        <ele>49.52</ele>
        <time>2020-07-10T12:18:38Z</time>
      </trkpt>
      <trkpt lat="47.8519" lon="-3.46543">
        <ele>49.42</ele>
        <time>2020-07-10T12:18:39Z</time>
      </trkpt>
      <trkpt lat="47.85184" lon="-3.46545">
        <ele>49.3</ele>
        <time>2020-07-10T12:18:40Z</time>
      </trkpt>
      <trkpt lat="47.85179" lon="-3.46547">
        <ele>49.19</ele>
        <time>2020-07-10T12:18:41Z</time>
      </trkpt>
      <trkpt lat="47.85174" lon="-3.46548">
        <ele>49.1</ele>
        <time>2020-07-10T12:18:42Z</time>
      </trkpt>
      <trkpt lat="47.85168" lon="-3.4655">
        <ele>49.04</ele>
        <time>2020-07-10T12:18:43Z</time>
      </trkpt>
      <trkpt lat="47.85162" lon="-3.46551">
        <ele>49.01</ele>
        <time>2020-07-10T12:18:44Z</time>
      </trkpt>
      <trkpt lat="47.85156" lon="-3.46552">
        <ele>49</ele>
        <time>2020-07-10T12:18:45Z</time>
      </trkpt>
      <trkpt lat="47.8515" lon="-3.46552">
        <ele>49</ele>
        <time>2020-07-10T12:18:46Z</time>
      </trkpt>
      <trkpt lat="47.85144" lon="-3.46553">
        <ele>49</ele>
        <time>2020-07-10T12:18:47Z</time>
      </trkpt>
      <trkpt lat="47.85138" lon="-3.46553">
        <ele>49</ele>
        <time>2020-07-10T12:18:48Z</time>
      </trkpt>
      <trkpt lat="47.85132" lon="-3.46554">
        <ele>49</ele>
        <time>2020-07-10T12:18:49Z</time>
      </trkpt>
      <trkpt lat="47.85126" lon="-3.46555">
        <ele>49</ele>
        <time>2020-07-10T12:18:50Z</time>
      </trkpt>
      <trkpt lat="47.85119" lon="-3.46555">
        <ele>49</ele>
        <time>2020-07-10T12:18:51Z</time>
      </trkpt>
      <trkpt lat="47.85113" lon="-3.46555">
        <ele>49</ele>
        <time>2020-07-10T12:18:52Z</time>
      </trkpt>
      <trkpt lat="47.85108" lon="-3.46555">
        <ele>48.91</ele>
        <time>2020-07-10T12:18:53Z</time>
      </trkpt>
      <trkpt lat="47.85102" lon="-3.46554">
        <ele>48.75</ele>
        <time>2020-07-10T12:18:54Z</time>
      </trkpt>
      <trkpt lat="47.85096" lon="-3.46554">
        <ele>48.56</ele>
        <time>2020-07-10T12:18:55Z</time>
      </trkpt>
      <trkpt lat="47.85091" lon="-3.46554">
        <ele>48.36</ele>
        <time>2020-07-10T12:18:56Z</time>
      </trkpt>
      <trkpt lat="47.85085" lon="-3.46553">
        <ele>48.16</ele>
        <time>2020-07-10T12:18:57Z</time>
      </trkpt>
      <trkpt lat="47.8508" lon="-3.46551">
        <ele>47.96</ele>
        <time>2020-07-10T12:18:58Z</time>
      </trkpt>
      <trkpt lat="47.85074" lon="-3.46548">
        <ele>47.76</ele>
        <time>2020-07-10T12:18:59Z</time>
      </trkpt>
      <trkpt lat="47.85069" lon="-3.46545">
        <ele>47.55</ele>
        <time>2020-07-10T12:19:00Z</time>
      </trkpt>
      <trkpt lat="47.85063" lon="-3.46542">
        <ele>47.35</ele>
        <time>2020-07-10T12:19:01Z</time>
      </trkpt>
      <trkpt lat="47.85057" lon="-3.46539">
        <ele>47.13</ele>
        <time>2020-07-10T12:19:02Z</time>
      </trkpt>
      <trkpt lat="47.8505" lon="-3.46536">
        <ele>46.78</ele>
        <time>2020-07-10T12:19:03Z</time>
      </trkpt>
      <trkpt lat="47.85044" lon="-3.46534">
        <ele>46.35</ele>
        <time>2020-07-10T12:19:04Z</time>
      </trkpt>
      <trkpt lat="47.85038" lon="-3.46534">
        <ele>45.9</ele>
        <time>2020-07-10T12:19:05Z</time>
      </trkpt>
      <trkpt lat="47.85032" lon="-3.46536">
        <ele>45.48</ele>
        <time>2020-07-10T12:19:06Z</time>
      </trkpt>
      <trkpt lat="47.85027" lon="-3.46541">
        <ele>45.13</ele>
        <time>2020-07-10T12:19:07Z</time>
      </trkpt>
      <trkpt lat="47.85024" lon="-3.46548">
        <ele>45.01</ele>
        <time>2020-07-10T12:19:08Z</time>
      </trkpt>
      <trkpt lat="47.85022" lon="-3.46555">
        <ele>45</ele>
        <time>2020-07-10T12:19:09Z</time>
      </trkpt>
      <trkpt lat="47.85022" lon="-3.46563">
        <ele>45.15</ele>
        <time>2020-07-10T12:19:10Z</time>
      </trkpt>
      <trkpt lat="47.85023" lon="-3.4657">
        <ele>45.36</ele>
        <time>2020-07-10T12:19:11Z</time>
      </trkpt>
      <trkpt lat="47.85024" lon="-3.46578">
        <ele>45.58</ele>
        <time>2020-07-10T12:19:12Z</time>
      </trkpt>
      <trkpt lat="47.85025" lon="-3.46585">
        <ele>45.79</ele>
        <time>2020-07-10T12:19:13Z</time>
      </trkpt>
      <trkpt lat="47.85026" lon="-3.46592">
        <ele>45.86</ele>
        <time>2020-07-10T12:19:14Z</time>
      </trkpt>
      <trkpt lat="47.85027" lon="-3.466">
        <ele>45.93</ele>
        <time>2020-07-10T12:19:15Z</time>
      </trkpt>
      <trkpt lat="47.85028" lon="-3.46607">
        <ele>46.01</ele>
        <time>2020-07-10T12:19:16Z</time>
      </trkpt>
      <trkpt lat="47.85029" lon="-3.46614">
        <ele>46.07</ele>
        <time>2020-07-10T12:19:17Z</time>
      </trkpt>
      <trkpt lat="47.8503" lon="-3.46621">
        <ele>46.13</ele>
        <time>2020-07-10T12:19:18Z</time>
      </trkpt>
      <trkpt lat="47.8503" lon="-3.46628">
        <ele>46.17</ele>
        <time>2020-07-10T12:19:19Z</time>
      </trkpt>
      <trkpt lat="47.85031" lon="-3.46635">
        <ele>46.21</ele>
        <time>2020-07-10T12:19:20Z</time>
      </trkpt>
      <trkpt lat="47.8503" lon="-3.46642">
        <ele>46.18</ele>
        <time>2020-07-10T12:19:21Z</time>
      </trkpt>
      <trkpt lat="47.85028" lon="-3.46648">
        <ele>46.07</ele>
        <time>2020-07-10T12:19:22Z</time>
      </trkpt>
      <trkpt lat="47.85025" lon="-3.46653">
        <ele>45.91</ele>
        <time>2020-07-10T12:19:23Z</time>
      </trkpt>
      <trkpt lat="47.8502" lon="-3.46654">
        <ele>45.7</ele>
        <time>2020-07-10T12:19:24Z</time>
      </trkpt>
      <trkpt lat="47.85016" lon="-3.46652">
        <ele>45.44</ele>
        <time>2020-07-10T12:19:25Z</time>
      </trkpt>
      <trkpt lat="47.8501" lon="-3.46648">
        <ele>45.09</ele>
        <time>2020-07-10T12:19:26Z</time>
      </trkpt>
      <trkpt lat="47.85005" lon="-3.46642">
        <ele>44.64</ele>
        <time>2020-07-10T12:19:27Z</time>
      </trkpt>
      <trkpt lat="47.85" lon="-3.46636">
        <ele>44.18</ele>
        <time>2020-07-10T12:19:28Z</time>
      </trkpt>
      <trkpt lat="47.84994" lon="-3.46629">
        <ele>43.78</ele>
        <time>2020-07-10T12:19:29Z</time>
      </trkpt>
      <trkpt lat="47.84988" lon="-3.46623">
        <ele>43.35</ele>
        <time>2020-07-10T12:19:30Z</time>
      </trkpt>
      <trkpt lat="47.84983" lon="-3.46616">
        <ele>42.94</ele>
        <time>2020-07-10T12:19:31Z</time>
      </trkpt>
      <trkpt lat="47.84977" lon="-3.46609">
        <ele>42.51</ele>
        <time>2020-07-10T12:19:32Z</time>
      </trkpt>
      <trkpt lat="47.8497" lon="-3.46602">
        <ele>42.03</ele>
        <time>2020-07-10T12:19:33Z</time>
      </trkpt>
      <trkpt lat="47.84963" lon="-3.46595">
        <ele>41.52</ele>
        <time>2020-07-10T12:19:34Z</time>
      </trkpt>
      <trkpt lat="47.84955" lon="-3.46589">
        <ele>40.97</ele>
        <time>2020-07-10T12:19:35Z</time>
      </trkpt>
      <trkpt lat="47.84947" lon="-3.46583">
        <ele>40.41</ele>
        <time>2020-07-10T12:19:36Z</time>
      </trkpt>
      <trkpt lat="47.84939" lon="-3.46578">
        <ele>39.74</ele>
        <time>2020-07-10T12:19:37Z</time>
      </trkpt>
      <trkpt lat="47.84931" lon="-3.46575">
        <ele>39.03</ele>
        <time>2020-07-10T12:19:38Z</time>
      </trkpt>
      <trkpt lat="47.84924" lon="-3.46574">
        <ele>38.35</ele>
        <time>2020-07-10T12:19:39Z</time>
      </trkpt>
      <trkpt lat="47.84919" lon="-3.46573">
        <ele>37.8</ele>
        <time>2020-07-10T12:19:40Z</time>
      </trkpt>
      <trkpt lat="47.84914" lon="-3.46572">
        <ele>37.39</ele>
        <time>2020-07-10T12:19:41Z</time>
      </trkpt>
      <trkpt lat="47.84909" lon="-3.46572">
        <ele>36.93</ele>
        <time>2020-07-10T12:19:42Z</time>
      </trkpt>
      <trkpt lat="47.84902" lon="-3.46572">
        <ele>36.4</ele>
        <time>2020-07-10T12:19:43Z</time>
      </trkpt>
      <trkpt lat="47.84895" lon="-3.46573">
        <ele>35.81</ele>
        <time>2020-07-10T12:19:44Z</time>
      </trkpt>
      <trkpt lat="47.84889" lon="-3.46575">
        <ele>35.23</ele>
        <time>2020-07-10T12:19:45Z</time>
      </trkpt>
      <trkpt lat="47.84881" lon="-3.46576">
        <ele>34.73</ele>
        <time>2020-07-10T12:19:46Z</time>
      </trkpt>
      <trkpt lat="47.84873" lon="-3.46578">
        <ele>34.2</ele>
        <time>2020-07-10T12:19:47Z</time>
      </trkpt>
      <trkpt lat="47.84865" lon="-3.4658">
        <ele>33.63</ele>
        <time>2020-07-10T12:19:48Z</time>
      </trkpt>
      <trkpt lat="47.84856" lon="-3.46583">
        <ele>32.96</ele>
        <time>2020-07-10T12:19:49Z</time>
      </trkpt>
      <trkpt lat="47.84848" lon="-3.46586">
        <ele>32.29</ele>
        <time>2020-07-10T12:19:50Z</time>
      </trkpt>
      <trkpt lat="47.84839" lon="-3.46588">
        <ele>31.55</ele>
        <time>2020-07-10T12:19:51Z</time>
      </trkpt>
      <trkpt lat="47.84829" lon="-3.46593">
        <ele>30.73</ele>
        <time>2020-07-10T12:19:52Z</time>
      </trkpt>
      <trkpt lat="47.84819" lon="-3.46596">
        <ele>30.05</ele>
        <time>2020-07-10T12:19:53Z</time>
      </trkpt>
      <trkpt lat="47.84811" lon="-3.466">
        <ele>29.5</ele>
        <time>2020-07-10T12:19:54Z</time>
      </trkpt>
      <trkpt lat="47.84801" lon="-3.46606">
        <ele>29.07</ele>
        <time>2020-07-10T12:19:55Z</time>
      </trkpt>
      <trkpt lat="47.84792" lon="-3.46612">
        <ele>28.66</ele>
        <time>2020-07-10T12:19:56Z</time>
      </trkpt>
      <trkpt lat="47.84784" lon="-3.46618">
        <ele>28.17</ele>
        <time>2020-07-10T12:19:57Z</time>
      </trkpt>
      <trkpt lat="47.84777" lon="-3.46626">
        <ele>27.66</ele>
        <time>2020-07-10T12:19:58Z</time>
      </trkpt>
      <trkpt lat="47.8477" lon="-3.46633">
        <ele>27.35</ele>
        <time>2020-07-10T12:19:59Z</time>
      </trkpt>
      <trkpt lat="47.84764" lon="-3.46642">
        <ele>27.11</ele>
        <time>2020-07-10T12:20:00Z</time>
      </trkpt>
      <trkpt lat="47.84757" lon="-3.4665">
        <ele>27.03</ele>
        <time>2020-07-10T12:20:01Z</time>
      </trkpt>
      <trkpt lat="47.84752" lon="-3.46658">
        <ele>27.01</ele>
        <time>2020-07-10T12:20:02Z</time>
      </trkpt>
      <trkpt lat="47.84746" lon="-3.46666">
        <ele>26.9</ele>
        <time>2020-07-10T12:20:03Z</time>
      </trkpt>
      <trkpt lat="47.84741" lon="-3.46673">
        <ele>26.79</ele>
        <time>2020-07-10T12:20:04Z</time>
      </trkpt>
      <trkpt lat="47.84735" lon="-3.46679">
        <ele>26.74</ele>
        <time>2020-07-10T12:20:05Z</time>
      </trkpt>
      <trkpt lat="47.84731" lon="-3.46685">
        <ele>26.77</ele>
        <time>2020-07-10T12:20:06Z</time>
      </trkpt>
      <trkpt lat="47.84727" lon="-3.46692">
        <ele>26.87</ele>
        <time>2020-07-10T12:20:07Z</time>
      </trkpt>
      <trkpt lat="47.84722" lon="-3.46698">
        <ele>27.13</ele>
        <time>2020-07-10T12:20:08Z</time>
      </trkpt>
      <trkpt lat="47.84718" lon="-3.46704">
        <ele>27.68</ele>
        <time>2020-07-10T12:20:09Z</time>
      </trkpt>
      <trkpt lat="47.84714" lon="-3.46709">
        <ele>28.26</ele>
        <time>2020-07-10T12:20:10Z</time>
      </trkpt>
      <trkpt lat="47.84709" lon="-3.46715">
        <ele>28.82</ele>
        <time>2020-07-10T12:20:11Z</time>
      </trkpt>
      <trkpt lat="47.84705" lon="-3.46721">
        <ele>29.33</ele>
        <time>2020-07-10T12:20:12Z</time>
      </trkpt>
      <trkpt lat="47.84701" lon="-3.46726">
        <ele>29.74</ele>
        <time>2020-07-10T12:20:13Z</time>
      </trkpt>
      <trkpt lat="47.84697" lon="-3.46731">
        <ele>30.09</ele>
        <time>2020-07-10T12:20:14Z</time>
      </trkpt>
      <trkpt lat="47.84692" lon="-3.46736">
        <ele>30.42</ele>
        <time>2020-07-10T12:20:15Z</time>
      </trkpt>
      <trkpt lat="47.84688" lon="-3.46741">
        <ele>30.75</ele>
        <time>2020-07-10T12:20:16Z</time>
      </trkpt>
      <trkpt lat="47.84685" lon="-3.46746">
        <ele>31.07</ele>
        <time>2020-07-10T12:20:17Z</time>
      </trkpt>
      <trkpt lat="47.84681" lon="-3.46751">
        <ele>31.38</ele>
        <time>2020-07-10T12:20:18Z</time>
      </trkpt>
      <trkpt lat="47.84676" lon="-3.46757">
        <ele>31.64</ele>
        <time>2020-07-10T12:20:19Z</time>
      </trkpt>
      <trkpt lat="47.84672" lon="-3.46763">
        <ele>31.82</ele>
        <time>2020-07-10T12:20:20Z</time>
      </trkpt>
      <trkpt lat="47.84668" lon="-3.46768">
        <ele>31.93</ele>
        <time>2020-07-10T12:20:21Z</time>
      </trkpt>
      <trkpt lat="47.84664" lon="-3.46773">
        <ele>32.03</ele>
        <time>2020-07-10T12:20:22Z</time>
      </trkpt>
      <trkpt lat="47.8466" lon="-3.46777">
        <ele>32.17</ele>
        <time>2020-07-10T12:20:23Z</time>
      </trkpt>
      <trkpt lat="47.84656" lon="-3.46782">
        <ele>32.43</ele>
        <time>2020-07-10T12:20:24Z</time>
      </trkpt>
      <trkpt lat="47.84652" lon="-3.46787">
        <ele>32.73</ele>
        <time>2020-07-10T12:20:25Z</time>
      </trkpt>
      <trkpt lat="47.84649" lon="-3.46792">
        <ele>33.03</ele>
        <time>2020-07-10T12:20:26Z</time>
      </trkpt>
      <trkpt lat="47.84645" lon="-3.46796">
        <ele>33.3</ele>
        <time>2020-07-10T12:20:27Z</time>
      </trkpt>
      <trkpt lat="47.84641" lon="-3.468">
        <ele>33.6</ele>
        <time>2020-07-10T12:20:28Z</time>
      </trkpt>
      <trkpt lat="47.84637" lon="-3.46807">
        <ele>33.88</ele>
        <time>2020-07-10T12:20:29Z</time>
      </trkpt>
      <trkpt lat="47.84633" lon="-3.46813">
        <ele>33.96</ele>
        <time>2020-07-10T12:20:30Z</time>
      </trkpt>
      <trkpt lat="47.84629" lon="-3.46819">
        <ele>33.99</ele>
        <time>2020-07-10T12:20:31Z</time>
      </trkpt>
      <trkpt lat="47.84624" lon="-3.46826">
        <ele>34</ele>
        <time>2020-07-10T12:20:32Z</time>
      </trkpt>
      <trkpt lat="47.84619" lon="-3.46832">
        <ele>34</ele>
        <time>2020-07-10T12:20:33Z</time>
      </trkpt>
      <trkpt lat="47.84615" lon="-3.46838">
        <ele>33.91</ele>
        <time>2020-07-10T12:20:34Z</time>
      </trkpt>
      <trkpt lat="47.8461" lon="-3.46845">
        <ele>33.66</ele>
        <time>2020-07-10T12:20:35Z</time>
      </trkpt>
      <trkpt lat="47.84606" lon="-3.46852">
        <ele>33.29</ele>
        <time>2020-07-10T12:20:36Z</time>
      </trkpt>
      <trkpt lat="47.84602" lon="-3.46861">
        <ele>32.86</ele>
        <time>2020-07-10T12:20:37Z</time>
      </trkpt>
      <trkpt lat="47.84597" lon="-3.46869">
        <ele>32.51</ele>
        <time>2020-07-10T12:20:38Z</time>
      </trkpt>
      <trkpt lat="47.84593" lon="-3.46877">
        <ele>32.14</ele>
        <time>2020-07-10T12:20:39Z</time>
      </trkpt>
      <trkpt lat="47.8459" lon="-3.46886">
        <ele>31.71</ele>
        <time>2020-07-10T12:20:40Z</time>
      </trkpt>
      <trkpt lat="47.84586" lon="-3.46895">
        <ele>31.5</ele>
        <time>2020-07-10T12:20:41Z</time>
      </trkpt>
      <trkpt lat="47.84583" lon="-3.46904">
        <ele>31.52</ele>
        <time>2020-07-10T12:20:42Z</time>
      </trkpt>
      <trkpt lat="47.8458" lon="-3.46912">
        <ele>31.67</ele>
        <time>2020-07-10T12:20:43Z</time>
      </trkpt>
      <trkpt lat="47.84578" lon="-3.46921">
        <ele>31.86</ele>
        <time>2020-07-10T12:20:44Z</time>
      </trkpt>
      <trkpt lat="47.84575" lon="-3.4693">
        <ele>31.98</ele>
        <time>2020-07-10T12:20:45Z</time>
      </trkpt>
      <trkpt lat="47.84572" lon="-3.46938">
        <ele>32.01</ele>
        <time>2020-07-10T12:20:46Z</time>
      </trkpt>
      <trkpt lat="47.84569" lon="-3.46945">
        <ele>31.99</ele>
        <time>2020-07-10T12:20:47Z</time>
      </trkpt>
      <trkpt lat="47.84566" lon="-3.46954">
        <ele>32.04</ele>
        <time>2020-07-10T12:20:48Z</time>
      </trkpt>
      <trkpt lat="47.84563" lon="-3.46962">
        <ele>32.13</ele>
        <time>2020-07-10T12:20:49Z</time>
      </trkpt>
      <trkpt lat="47.8456" lon="-3.4697">
        <ele>32.2</ele>
        <time>2020-07-10T12:20:50Z</time>
      </trkpt>
      <trkpt lat="47.84557" lon="-3.46978">
        <ele>32.25</ele>
        <time>2020-07-10T12:20:51Z</time>
      </trkpt>
      <trkpt lat="47.84553" lon="-3.46985">
        <ele>32.33</ele>
        <time>2020-07-10T12:20:52Z</time>
      </trkpt>
      <trkpt lat="47.84549" lon="-3.46991">
        <ele>32.41</ele>
        <time>2020-07-10T12:20:53Z</time>
      </trkpt>
      <trkpt lat="47.84544" lon="-3.46998">
        <ele>32.48</ele>
        <time>2020-07-10T12:20:54Z</time>
      </trkpt>
      <trkpt lat="47.8454" lon="-3.47003">
        <ele>32.53</ele>
        <time>2020-07-10T12:20:55Z</time>
      </trkpt>
      <trkpt lat="47.84534" lon="-3.47009">
        <ele>32.56</ele>
        <time>2020-07-10T12:20:56Z</time>
      </trkpt>
      <trkpt lat="47.8453" lon="-3.47015">
        <ele>32.58</ele>
        <time>2020-07-10T12:20:57Z</time>
      </trkpt>
      <trkpt lat="47.84525" lon="-3.47019">
        <ele>32.49</ele>
        <time>2020-07-10T12:20:58Z</time>
      </trkpt>
      <trkpt lat="47.8452" lon="-3.47022">
        <ele>32.3</ele>
        <time>2020-07-10T12:20:59Z</time>
      </trkpt>
      <trkpt lat="47.84514" lon="-3.47025">
        <ele>32.05</ele>
        <time>2020-07-10T12:21:00Z</time>
      </trkpt>
      <trkpt lat="47.84509" lon="-3.47027">
        <ele>31.75</ele>
        <time>2020-07-10T12:21:01Z</time>
      </trkpt>
      <trkpt lat="47.84504" lon="-3.47028">
        <ele>31.46</ele>
        <time>2020-07-10T12:21:02Z</time>
      </trkpt>
      <trkpt lat="47.84499" lon="-3.4703">
        <ele>31.23</ele>
        <time>2020-07-10T12:21:03Z</time>
      </trkpt>
      <trkpt lat="47.84494" lon="-3.47031">
        <ele>31.08</ele>
        <time>2020-07-10T12:21:04Z</time>
      </trkpt>
      <trkpt lat="47.84488" lon="-3.4703">
        <ele>30.9</ele>
        <time>2020-07-10T12:21:05Z</time>
      </trkpt>
      <trkpt lat="47.84482" lon="-3.4703">
        <ele>30.66</ele>
        <time>2020-07-10T12:21:06Z</time>
      </trkpt>
      <trkpt lat="47.84476" lon="-3.47029">
        <ele>30.39</ele>
        <time>2020-07-10T12:21:07Z</time>
      </trkpt>
      <trkpt lat="47.8447" lon="-3.47029">
        <ele>30.06</ele>
        <time>2020-07-10T12:21:08Z</time>
      </trkpt>
      <trkpt lat="47.84463" lon="-3.47028">
        <ele>29.58</ele>
        <time>2020-07-10T12:21:09Z</time>
      </trkpt>
      <trkpt lat="47.84456" lon="-3.47029">
        <ele>29.11</ele>
        <time>2020-07-10T12:21:10Z</time>
      </trkpt>
      <trkpt lat="47.84449" lon="-3.47029">
        <ele>28.65</ele>
        <time>2020-07-10T12:21:11Z</time>
      </trkpt>
      <trkpt lat="47.84441" lon="-3.47032">
        <ele>28.29</ele>
        <time>2020-07-10T12:21:12Z</time>
      </trkpt>
      <trkpt lat="47.84432" lon="-3.47036">
        <ele>28.03</ele>
        <time>2020-07-10T12:21:13Z</time>
      </trkpt>
      <trkpt lat="47.84425" lon="-3.47042">
        <ele>27.72</ele>
        <time>2020-07-10T12:21:14Z</time>
      </trkpt>
      <trkpt lat="47.84419" lon="-3.47048">
        <ele>27.33</ele>
        <time>2020-07-10T12:21:15Z</time>
      </trkpt>
      <trkpt lat="47.84413" lon="-3.47055">
        <ele>27.01</ele>
        <time>2020-07-10T12:21:16Z</time>
      </trkpt>
      <trkpt lat="47.84408" lon="-3.47062">
        <ele>26.99</ele>
        <time>2020-07-10T12:21:17Z</time>
      </trkpt>
      <trkpt lat="47.84402" lon="-3.47068">
        <ele>26.93</ele>
        <time>2020-07-10T12:21:18Z</time>
      </trkpt>
      <trkpt lat="47.84397" lon="-3.47075">
        <ele>26.75</ele>
        <time>2020-07-10T12:21:19Z</time>
      </trkpt>
      <trkpt lat="47.84392" lon="-3.47082">
        <ele>26.42</ele>
        <time>2020-07-10T12:21:20Z</time>
      </trkpt>
      <trkpt lat="47.84387" lon="-3.47088">
        <ele>26.23</ele>
        <time>2020-07-10T12:21:21Z</time>
      </trkpt>
      <trkpt lat="47.84383" lon="-3.47095">
        <ele>26.43</ele>
        <time>2020-07-10T12:21:22Z</time>
      </trkpt>
      <trkpt lat="47.84379" lon="-3.47103">
        <ele>26.78</ele>
        <time>2020-07-10T12:21:23Z</time>
      </trkpt>
      <trkpt lat="47.84377" lon="-3.47111">
        <ele>27.14</ele>
        <time>2020-07-10T12:21:24Z</time>
      </trkpt>
      <trkpt lat="47.84374" lon="-3.4712">
        <ele>28.09</ele>
        <time>2020-07-10T12:21:25Z</time>
      </trkpt>
      <trkpt lat="47.84373" lon="-3.47128">
        <ele>29.28</ele>
        <time>2020-07-10T12:21:26Z</time>
      </trkpt>
      <trkpt lat="47.84373" lon="-3.47138">
        <ele>30.37</ele>
        <time>2020-07-10T12:21:27Z</time>
      </trkpt>
      <trkpt lat="47.84375" lon="-3.47147">
        <ele>30.81</ele>
        <time>2020-07-10T12:21:28Z</time>
      </trkpt>
      <trkpt lat="47.84376" lon="-3.47155">
        <ele>31.25</ele>
        <time>2020-07-10T12:21:29Z</time>
      </trkpt>
      <trkpt lat="47.84376" lon="-3.47164">
        <ele>31.75</ele>
        <time>2020-07-10T12:21:30Z</time>
      </trkpt>
      <trkpt lat="47.84377" lon="-3.47174">
        <ele>31.78</ele>
        <time>2020-07-10T12:21:31Z</time>
      </trkpt>
      <trkpt lat="47.84378" lon="-3.47183">
        <ele>31.53</ele>
        <time>2020-07-10T12:21:32Z</time>
      </trkpt>
      <trkpt lat="47.84379" lon="-3.47191">
        <ele>31.23</ele>
        <time>2020-07-10T12:21:33Z</time>
      </trkpt>
      <trkpt lat="47.8438" lon="-3.472">
        <ele>31.13</ele>
        <time>2020-07-10T12:21:34Z</time>
      </trkpt>
      <trkpt lat="47.84382" lon="-3.47209">
        <ele>31.26</ele>
        <time>2020-07-10T12:21:35Z</time>
      </trkpt>
      <trkpt lat="47.84382" lon="-3.47217">
        <ele>31.59</ele>
        <time>2020-07-10T12:21:36Z</time>
      </trkpt>
      <trkpt lat="47.84382" lon="-3.47225">
        <ele>31.94</ele>
        <time>2020-07-10T12:21:37Z</time>
      </trkpt>
      <trkpt lat="47.84383" lon="-3.47234">
        <ele>31.99</ele>
        <time>2020-07-10T12:21:38Z</time>
      </trkpt>
      <trkpt lat="47.84384" lon="-3.47242">
        <ele>32.08</ele>
        <time>2020-07-10T12:21:39Z</time>
      </trkpt>
      <trkpt lat="47.84385" lon="-3.4725">
        <ele>32.17</ele>
        <time>2020-07-10T12:21:40Z</time>
      </trkpt>
      <trkpt lat="47.84386" lon="-3.47258">
        <ele>32.09</ele>
        <time>2020-07-10T12:21:41Z</time>
      </trkpt>
      <trkpt lat="47.84386" lon="-3.47266">
        <ele>32.03</ele>
        <time>2020-07-10T12:21:42Z</time>
      </trkpt>
      <trkpt lat="47.84386" lon="-3.47273">
        <ele>31.93</ele>
        <time>2020-07-10T12:21:43Z</time>
      </trkpt>
      <trkpt lat="47.84387" lon="-3.47281">
        <ele>31.95</ele>
        <time>2020-07-10T12:21:44Z</time>
      </trkpt>
      <trkpt lat="47.84388" lon="-3.47288">
        <ele>32.24</ele>
        <time>2020-07-10T12:21:45Z</time>
      </trkpt>
      <trkpt lat="47.84389" lon="-3.47295">
        <ele>32.63</ele>
        <time>2020-07-10T12:21:46Z</time>
      </trkpt>
      <trkpt lat="47.8439" lon="-3.47303">
        <ele>33.24</ele>
        <time>2020-07-10T12:21:47Z</time>
      </trkpt>
      <trkpt lat="47.84391" lon="-3.47311">
        <ele>33.77</ele>
        <time>2020-07-10T12:21:48Z</time>
      </trkpt>
      <trkpt lat="47.84392" lon="-3.47319">
        <ele>34.2</ele>
        <time>2020-07-10T12:21:49Z</time>
      </trkpt>
      <trkpt lat="47.84393" lon="-3.47327">
        <ele>34.57</ele>
        <time>2020-07-10T12:21:50Z</time>
      </trkpt>
      <trkpt lat="47.84394" lon="-3.47334">
        <ele>34.81</ele>
        <time>2020-07-10T12:21:51Z</time>
      </trkpt>
      <trkpt lat="47.84396" lon="-3.47342">
        <ele>35.05</ele>
        <time>2020-07-10T12:21:52Z</time>
      </trkpt>
      <trkpt lat="47.84396" lon="-3.47351">
        <ele>35.34</ele>
        <time>2020-07-10T12:21:53Z</time>
      </trkpt>
      <trkpt lat="47.84398" lon="-3.47361">
        <ele>35.55</ele>
        <time>2020-07-10T12:21:54Z</time>
      </trkpt>
      <trkpt lat="47.844" lon="-3.4737">
        <ele>35.5</ele>
        <time>2020-07-10T12:21:55Z</time>
      </trkpt>
      <trkpt lat="47.84402" lon="-3.47379">
        <ele>35.44</ele>
        <time>2020-07-10T12:21:56Z</time>
      </trkpt>
      <trkpt lat="47.84404" lon="-3.47387">
        <ele>35.21</ele>
        <time>2020-07-10T12:21:57Z</time>
      </trkpt>
      <trkpt lat="47.84405" lon="-3.47395">
        <ele>35.23</ele>
        <time>2020-07-10T12:21:58Z</time>
      </trkpt>
      <trkpt lat="47.84406" lon="-3.47403">
        <ele>35.11</ele>
        <time>2020-07-10T12:21:59Z</time>
      </trkpt>
      <trkpt lat="47.84407" lon="-3.47411">
        <ele>35.16</ele>
        <time>2020-07-10T12:22:00Z</time>
      </trkpt>
      <trkpt lat="47.84408" lon="-3.47419">
        <ele>35.19</ele>
        <time>2020-07-10T12:22:01Z</time>
      </trkpt>
      <trkpt lat="47.84409" lon="-3.47426">
        <ele>35.03</ele>
        <time>2020-07-10T12:22:02Z</time>
      </trkpt>
      <trkpt lat="47.84409" lon="-3.47434">
        <ele>34.87</ele>
        <time>2020-07-10T12:22:03Z</time>
      </trkpt>
      <trkpt lat="47.84409" lon="-3.47442">
        <ele>34.71</ele>
        <time>2020-07-10T12:22:04Z</time>
      </trkpt>
      <trkpt lat="47.84409" lon="-3.4745">
        <ele>34.66</ele>
        <time>2020-07-10T12:22:05Z</time>
      </trkpt>
      <trkpt lat="47.84409" lon="-3.47458">
        <ele>34.76</ele>
        <time>2020-07-10T12:22:06Z</time>
      </trkpt>
      <trkpt lat="47.84408" lon="-3.47465">
        <ele>35.02</ele>
        <time>2020-07-10T12:22:07Z</time>
      </trkpt>
      <trkpt lat="47.84407" lon="-3.47473">
        <ele>35.3</ele>
        <time>2020-07-10T12:22:08Z</time>
      </trkpt>
      <trkpt lat="47.84405" lon="-3.47481">
        <ele>35.29</ele>
        <time>2020-07-10T12:22:09Z</time>
      </trkpt>
      <trkpt lat="47.84402" lon="-3.47488">
        <ele>35.27</ele>
        <time>2020-07-10T12:22:10Z</time>
      </trkpt>
      <trkpt lat="47.84398" lon="-3.47495">
        <ele>35.28</ele>
        <time>2020-07-10T12:22:11Z</time>
      </trkpt>
      <trkpt lat="47.84395" lon="-3.47501">
        <ele>35.28</ele>
        <time>2020-07-10T12:22:12Z</time>
      </trkpt>
      <trkpt lat="47.84392" lon="-3.47508">
        <ele>35.39</ele>
        <time>2020-07-10T12:22:13Z</time>
      </trkpt>
      <trkpt lat="47.84388" lon="-3.47515">
        <ele>35.47</ele>
        <time>2020-07-10T12:22:14Z</time>
      </trkpt>
      <trkpt lat="47.84384" lon="-3.47521">
        <ele>35.42</ele>
        <time>2020-07-10T12:22:15Z</time>
      </trkpt>
      <trkpt lat="47.8438" lon="-3.47527">
        <ele>35.36</ele>
        <time>2020-07-10T12:22:16Z</time>
      </trkpt>
      <trkpt lat="47.84376" lon="-3.47534">
        <ele>35.44</ele>
        <time>2020-07-10T12:22:17Z</time>
      </trkpt>
      <trkpt lat="47.84372" lon="-3.4754">
        <ele>35.57</ele>
        <time>2020-07-10T12:22:18Z</time>
      </trkpt>
      <trkpt lat="47.84369" lon="-3.47546">
        <ele>35.68</ele>
        <time>2020-07-10T12:22:19Z</time>
      </trkpt>
      <trkpt lat="47.84366" lon="-3.47553">
        <ele>35.79</ele>
        <time>2020-07-10T12:22:20Z</time>
      </trkpt>
      <trkpt lat="47.84362" lon="-3.47559">
        <ele>35.91</ele>
        <time>2020-07-10T12:22:21Z</time>
      </trkpt>
      <trkpt lat="47.84358" lon="-3.47566">
        <ele>36.05</ele>
        <time>2020-07-10T12:22:22Z</time>
      </trkpt>
      <trkpt lat="47.84354" lon="-3.47573">
        <ele>36.19</ele>
        <time>2020-07-10T12:22:23Z</time>
      </trkpt>
      <trkpt lat="47.84351" lon="-3.4758">
        <ele>36.31</ele>
        <time>2020-07-10T12:22:24Z</time>
      </trkpt>
      <trkpt lat="47.84348" lon="-3.47588">
        <ele>36.37</ele>
        <time>2020-07-10T12:22:25Z</time>
      </trkpt>
      <trkpt lat="47.84345" lon="-3.47595">
        <ele>36.4</ele>
        <time>2020-07-10T12:22:26Z</time>
      </trkpt>
      <trkpt lat="47.84342" lon="-3.47603">
        <ele>36.46</ele>
        <time>2020-07-10T12:22:27Z</time>
      </trkpt>
      <trkpt lat="47.84339" lon="-3.47611">
        <ele>36.56</ele>
        <time>2020-07-10T12:22:28Z</time>
      </trkpt>
      <trkpt lat="47.84337" lon="-3.47619">
        <ele>36.69</ele>
        <time>2020-07-10T12:22:29Z</time>
      </trkpt>
      <trkpt lat="47.84335" lon="-3.47627">
        <ele>36.84</ele>
        <time>2020-07-10T12:22:30Z</time>
      </trkpt>
      <trkpt lat="47.84333" lon="-3.47636">
        <ele>37</ele>
        <time>2020-07-10T12:22:31Z</time>
      </trkpt>
      <trkpt lat="47.84331" lon="-3.47644">
        <ele>37.21</ele>
        <time>2020-07-10T12:22:32Z</time>
      </trkpt>
      <trkpt lat="47.84328" lon="-3.47652">
        <ele>37.45</ele>
        <time>2020-07-10T12:22:33Z</time>
      </trkpt>
      <trkpt lat="47.84326" lon="-3.4766">
        <ele>37.68</ele>
        <time>2020-07-10T12:22:34Z</time>
      </trkpt>
      <trkpt lat="47.84324" lon="-3.47669">
        <ele>37.86</ele>
        <time>2020-07-10T12:22:35Z</time>
      </trkpt>
      <trkpt lat="47.84321" lon="-3.47676">
        <ele>37.91</ele>
        <time>2020-07-10T12:22:36Z</time>
      </trkpt>
      <trkpt lat="47.84319" lon="-3.47684">
        <ele>37.94</ele>
        <time>2020-07-10T12:22:37Z</time>
      </trkpt>
      <trkpt lat="47.84316" lon="-3.47692">
        <ele>37.99</ele>
        <time>2020-07-10T12:22:38Z</time>
      </trkpt>
      <trkpt lat="47.84312" lon="-3.47698">
        <ele>38.05</ele>
        <time>2020-07-10T12:22:39Z</time>
      </trkpt>
      <trkpt lat="47.84308" lon="-3.47705">
        <ele>38.04</ele>
        <time>2020-07-10T12:22:40Z</time>
      </trkpt>
      <trkpt lat="47.84304" lon="-3.47711">
        <ele>38</ele>
        <time>2020-07-10T12:22:41Z</time>
      </trkpt>
      <trkpt lat="47.84299" lon="-3.47717">
        <ele>38</ele>
        <time>2020-07-10T12:22:42Z</time>
      </trkpt>
      <trkpt lat="47.84295" lon="-3.47723">
        <ele>38.08</ele>
        <time>2020-07-10T12:22:43Z</time>
      </trkpt>
      <trkpt lat="47.84291" lon="-3.47728">
        <ele>38.22</ele>
        <time>2020-07-10T12:22:44Z</time>
      </trkpt>
      <trkpt lat="47.84286" lon="-3.47734">
        <ele>38.35</ele>
        <time>2020-07-10T12:22:45Z</time>
      </trkpt>
      <trkpt lat="47.84281" lon="-3.4774">
        <ele>38.41</ele>
        <time>2020-07-10T12:22:46Z</time>
      </trkpt>
      <trkpt lat="47.84277" lon="-3.47745">
        <ele>38.42</ele>
        <time>2020-07-10T12:22:47Z</time>
      </trkpt>
      <trkpt lat="47.84272" lon="-3.47751">
        <ele>38.39</ele>
        <time>2020-07-10T12:22:48Z</time>
      </trkpt>
      <trkpt lat="47.84267" lon="-3.47757">
        <ele>38.4</ele>
        <time>2020-07-10T12:22:49Z</time>
      </trkpt>
      <trkpt lat="47.84262" lon="-3.47763">
        <ele>38.38</ele>
        <time>2020-07-10T12:22:50Z</time>
      </trkpt>
      <trkpt lat="47.84258" lon="-3.47769">
        <ele>38.26</ele>
        <time>2020-07-10T12:22:51Z</time>
      </trkpt>
      <trkpt lat="47.84254" lon="-3.47776">
        <ele>38.05</ele>
        <time>2020-07-10T12:22:52Z</time>
      </trkpt>
      <trkpt lat="47.8425" lon="-3.47783">
        <ele>37.9</ele>
        <time>2020-07-10T12:22:53Z</time>
      </trkpt>
      <trkpt lat="47.84246" lon="-3.4779">
        <ele>37.86</ele>
        <time>2020-07-10T12:22:54Z</time>
      </trkpt>
      <trkpt lat="47.84242" lon="-3.47798">
        <ele>37.85</ele>
        <time>2020-07-10T12:22:55Z</time>
      </trkpt>
      <trkpt lat="47.84238" lon="-3.47807">
        <ele>37.82</ele>
        <time>2020-07-10T12:22:56Z</time>
      </trkpt>
      <trkpt lat="47.84234" lon="-3.47815">
        <ele>37.66</ele>
        <time>2020-07-10T12:22:57Z</time>
      </trkpt>
      <trkpt lat="47.84231" lon="-3.47824">
        <ele>37.41</ele>
        <time>2020-07-10T12:22:58Z</time>
      </trkpt>
      <trkpt lat="47.84227" lon="-3.47832">
        <ele>37.06</ele>
        <time>2020-07-10T12:22:59Z</time>
      </trkpt>
      <trkpt lat="47.84224" lon="-3.47841">
        <ele>36.79</ele>
        <time>2020-07-10T12:23:00Z</time>
      </trkpt>
      <trkpt lat="47.84221" lon="-3.47849">
        <ele>36.6</ele>
        <time>2020-07-10T12:23:01Z</time>
      </trkpt>
      <trkpt lat="47.84218" lon="-3.47858">
        <ele>36.48</ele>
        <time>2020-07-10T12:23:02Z</time>
      </trkpt>
      <trkpt lat="47.84215" lon="-3.47867">
        <ele>36.48</ele>
        <time>2020-07-10T12:23:03Z</time>
      </trkpt>
      <trkpt lat="47.84212" lon="-3.47876">
        <ele>36.52</ele>
        <time>2020-07-10T12:23:04Z</time>
      </trkpt>
      <trkpt lat="47.84209" lon="-3.47885">
        <ele>36.53</ele>
        <time>2020-07-10T12:23:05Z</time>
      </trkpt>
      <trkpt lat="47.84207" lon="-3.47893">
        <ele>36.55</ele>
        <time>2020-07-10T12:23:06Z</time>
      </trkpt>
      <trkpt lat="47.84204" lon="-3.47901">
        <ele>36.62</ele>
        <time>2020-07-10T12:23:07Z</time>
      </trkpt>
      <trkpt lat="47.84202" lon="-3.47908">
        <ele>36.71</ele>
        <time>2020-07-10T12:23:08Z</time>
      </trkpt>
      <trkpt lat="47.84199" lon="-3.47916">
        <ele>36.79</ele>
        <time>2020-07-10T12:23:09Z</time>
      </trkpt>
      <trkpt lat="47.84197" lon="-3.47923">
        <ele>36.88</ele>
        <time>2020-07-10T12:23:10Z</time>
      </trkpt>
      <trkpt lat="47.84194" lon="-3.4793">
        <ele>36.98</ele>
        <time>2020-07-10T12:23:11Z</time>
      </trkpt>
      <trkpt lat="47.84191" lon="-3.47938">
        <ele>37.1</ele>
        <time>2020-07-10T12:23:12Z</time>
      </trkpt>
      <trkpt lat="47.84188" lon="-3.47946">
        <ele>37.18</ele>
        <time>2020-07-10T12:23:13Z</time>
      </trkpt>
      <trkpt lat="47.84186" lon="-3.47955">
        <ele>37.28</ele>
        <time>2020-07-10T12:23:14Z</time>
      </trkpt>
      <trkpt lat="47.84183" lon="-3.47964">
        <ele>37.37</ele>
        <time>2020-07-10T12:23:15Z</time>
      </trkpt>
      <trkpt lat="47.84181" lon="-3.47973">
        <ele>37.46</ele>
        <time>2020-07-10T12:23:16Z</time>
      </trkpt>
      <trkpt lat="47.84178" lon="-3.47982">
        <ele>37.55</ele>
        <time>2020-07-10T12:23:17Z</time>
      </trkpt>
      <trkpt lat="47.84175" lon="-3.47992">
        <ele>37.65</ele>
        <time>2020-07-10T12:23:18Z</time>
      </trkpt>
      <trkpt lat="47.84173" lon="-3.48">
        <ele>37.74</ele>
        <time>2020-07-10T12:23:19Z</time>
      </trkpt>
      <trkpt lat="47.8417" lon="-3.48009">
        <ele>37.84</ele>
        <time>2020-07-10T12:23:20Z</time>
      </trkpt>
      <trkpt lat="47.84167" lon="-3.48017">
        <ele>37.94</ele>
        <time>2020-07-10T12:23:21Z</time>
      </trkpt>
      <trkpt lat="47.84164" lon="-3.48026">
        <ele>38.04</ele>
        <time>2020-07-10T12:23:22Z</time>
      </trkpt>
      <trkpt lat="47.84161" lon="-3.48034">
        <ele>38.01</ele>
        <time>2020-07-10T12:23:23Z</time>
      </trkpt>
      <trkpt lat="47.84159" lon="-3.48043">
        <ele>37.93</ele>
        <time>2020-07-10T12:23:24Z</time>
      </trkpt>
      <trkpt lat="47.84156" lon="-3.48052">
        <ele>37.89</ele>
        <time>2020-07-10T12:23:25Z</time>
      </trkpt>
      <trkpt lat="47.84153" lon="-3.48061">
        <ele>37.91</ele>
        <time>2020-07-10T12:23:26Z</time>
      </trkpt>
      <trkpt lat="47.8415" lon="-3.4807">
        <ele>37.89</ele>
        <time>2020-07-10T12:23:27Z</time>
      </trkpt>
      <trkpt lat="47.84147" lon="-3.48079">
        <ele>37.83</ele>
        <time>2020-07-10T12:23:28Z</time>
      </trkpt>
      <trkpt lat="47.84144" lon="-3.48088">
        <ele>37.71</ele>
        <time>2020-07-10T12:23:29Z</time>
      </trkpt>
      <trkpt lat="47.84141" lon="-3.48097">
        <ele>37.55</ele>
        <time>2020-07-10T12:23:30Z</time>
      </trkpt>
      <trkpt lat="47.84138" lon="-3.48105">
        <ele>37.33</ele>
        <time>2020-07-10T12:23:31Z</time>
      </trkpt>
      <trkpt lat="47.84135" lon="-3.48114">
        <ele>37.19</ele>
        <time>2020-07-10T12:23:32Z</time>
      </trkpt>
      <trkpt lat="47.84132" lon="-3.48123">
        <ele>37.16</ele>
        <time>2020-07-10T12:23:33Z</time>
      </trkpt>
      <trkpt lat="47.84129" lon="-3.48132">
        <ele>37.11</ele>
        <time>2020-07-10T12:23:34Z</time>
      </trkpt>
      <trkpt lat="47.84126" lon="-3.48141">
        <ele>37.03</ele>
        <time>2020-07-10T12:23:35Z</time>
      </trkpt>
      <trkpt lat="47.84123" lon="-3.48149">
        <ele>37.01</ele>
        <time>2020-07-10T12:23:36Z</time>
      </trkpt>
      <trkpt lat="47.8412" lon="-3.48158">
        <ele>37</ele>
        <time>2020-07-10T12:23:37Z</time>
      </trkpt>
      <trkpt lat="47.84117" lon="-3.48166">
        <ele>37</ele>
        <time>2020-07-10T12:23:38Z</time>
      </trkpt>
      <trkpt lat="47.84114" lon="-3.48174">
        <ele>37</ele>
        <time>2020-07-10T12:23:39Z</time>
      </trkpt>
      <trkpt lat="47.84111" lon="-3.48182">
        <ele>37</ele>
        <time>2020-07-10T12:23:40Z</time>
      </trkpt>
      <trkpt lat="47.84108" lon="-3.48189">
        <ele>37.01</ele>
        <time>2020-07-10T12:23:41Z</time>
      </trkpt>
      <trkpt lat="47.84106" lon="-3.48198">
        <ele>37</ele>
        <time>2020-07-10T12:23:42Z</time>
      </trkpt>
      <trkpt lat="47.84104" lon="-3.48206">
        <ele>37</ele>
        <time>2020-07-10T12:23:43Z</time>
      </trkpt>
      <trkpt lat="47.84101" lon="-3.48214">
        <ele>37</ele>
        <time>2020-07-10T12:23:44Z</time>
      </trkpt>
      <trkpt lat="47.84099" lon="-3.48222">
        <ele>37</ele>
        <time>2020-07-10T12:23:45Z</time>
      </trkpt>
      <trkpt lat="47.84096" lon="-3.4823">
        <ele>37.2</ele>
        <time>2020-07-10T12:23:46Z</time>
      </trkpt>
      <trkpt lat="47.84093" lon="-3.48238">
        <ele>37.46</ele>
        <time>2020-07-10T12:23:47Z</time>
      </trkpt>
      <trkpt lat="47.84091" lon="-3.48246">
        <ele>37.75</ele>
        <time>2020-07-10T12:23:48Z</time>
      </trkpt>
      <trkpt lat="47.84088" lon="-3.48255">
        <ele>38.04</ele>
        <time>2020-07-10T12:23:49Z</time>
      </trkpt>
      <trkpt lat="47.84085" lon="-3.48263">
        <ele>38.34</ele>
        <time>2020-07-10T12:23:50Z</time>
      </trkpt>
      <trkpt lat="47.84082" lon="-3.48271">
        <ele>38.65</ele>
        <time>2020-07-10T12:23:51Z</time>
      </trkpt>
      <trkpt lat="47.8408" lon="-3.4828">
        <ele>38.95</ele>
        <time>2020-07-10T12:23:52Z</time>
      </trkpt>
      <trkpt lat="47.84077" lon="-3.48288">
        <ele>39.3</ele>
        <time>2020-07-10T12:23:53Z</time>
      </trkpt>
      <trkpt lat="47.84074" lon="-3.48296">
        <ele>39.69</ele>
        <time>2020-07-10T12:23:54Z</time>
      </trkpt>
      <trkpt lat="47.84071" lon="-3.48304">
        <ele>40.14</ele>
        <time>2020-07-10T12:23:55Z</time>
      </trkpt>
      <trkpt lat="47.84069" lon="-3.48312">
        <ele>40.48</ele>
        <time>2020-07-10T12:23:56Z</time>
      </trkpt>
      <trkpt lat="47.84066" lon="-3.4832">
        <ele>40.72</ele>
        <time>2020-07-10T12:23:57Z</time>
      </trkpt>
      <trkpt lat="47.84064" lon="-3.48328">
        <ele>40.87</ele>
        <time>2020-07-10T12:23:58Z</time>
      </trkpt>
      <trkpt lat="47.84061" lon="-3.48336">
        <ele>41.01</ele>
        <time>2020-07-10T12:23:59Z</time>
      </trkpt>
      <trkpt lat="47.84058" lon="-3.48343">
        <ele>41.22</ele>
        <time>2020-07-10T12:24:00Z</time>
      </trkpt>
      <trkpt lat="47.84055" lon="-3.48351">
        <ele>41.51</ele>
        <time>2020-07-10T12:24:01Z</time>
      </trkpt>
      <trkpt lat="47.84053" lon="-3.48359">
        <ele>41.86</ele>
        <time>2020-07-10T12:24:02Z</time>
      </trkpt>
      <trkpt lat="47.84051" lon="-3.48366">
        <ele>42.21</ele>
        <time>2020-07-10T12:24:03Z</time>
      </trkpt>
      <trkpt lat="47.84048" lon="-3.48374">
        <ele>42.56</ele>
        <time>2020-07-10T12:24:04Z</time>
      </trkpt>
      <trkpt lat="47.84046" lon="-3.48381">
        <ele>42.92</ele>
        <time>2020-07-10T12:24:05Z</time>
      </trkpt>
      <trkpt lat="47.84043" lon="-3.48389">
        <ele>43.28</ele>
        <time>2020-07-10T12:24:06Z</time>
      </trkpt>
      <trkpt lat="47.84041" lon="-3.48396">
        <ele>43.45</ele>
        <time>2020-07-10T12:24:07Z</time>
      </trkpt>
      <trkpt lat="47.84039" lon="-3.48404">
        <ele>43.56</ele>
        <time>2020-07-10T12:24:08Z</time>
      </trkpt>
      <trkpt lat="47.84036" lon="-3.48411">
        <ele>43.65</ele>
        <time>2020-07-10T12:24:09Z</time>
      </trkpt>
      <trkpt lat="47.84034" lon="-3.48418">
        <ele>43.77</ele>
        <time>2020-07-10T12:24:10Z</time>
      </trkpt>
      <trkpt lat="47.84032" lon="-3.48425">
        <ele>44.04</ele>
        <time>2020-07-10T12:24:11Z</time>
      </trkpt>
      <trkpt lat="47.84029" lon="-3.48432">
        <ele>44.35</ele>
        <time>2020-07-10T12:24:12Z</time>
      </trkpt>
      <trkpt lat="47.84027" lon="-3.48438">
        <ele>44.72</ele>
        <time>2020-07-10T12:24:13Z</time>
      </trkpt>
      <trkpt lat="47.84024" lon="-3.48445">
        <ele>45.09</ele>
        <time>2020-07-10T12:24:14Z</time>
      </trkpt>
      <trkpt lat="47.84022" lon="-3.48452">
        <ele>45.33</ele>
        <time>2020-07-10T12:24:15Z</time>
      </trkpt>
      <trkpt lat="47.84019" lon="-3.48459">
        <ele>45.52</ele>
        <time>2020-07-10T12:24:16Z</time>
      </trkpt>
      <trkpt lat="47.84017" lon="-3.48466">
        <ele>45.72</ele>
        <time>2020-07-10T12:24:17Z</time>
      </trkpt>
      <trkpt lat="47.84014" lon="-3.48473">
        <ele>45.91</ele>
        <time>2020-07-10T12:24:18Z</time>
      </trkpt>
      <trkpt lat="47.84012" lon="-3.4848">
        <ele>46.16</ele>
        <time>2020-07-10T12:24:19Z</time>
      </trkpt>
      <trkpt lat="47.84009" lon="-3.48487">
        <ele>46.42</ele>
        <time>2020-07-10T12:24:20Z</time>
      </trkpt>
      <trkpt lat="47.84006" lon="-3.48493">
        <ele>46.64</ele>
        <time>2020-07-10T12:24:21Z</time>
      </trkpt>
      <trkpt lat="47.84003" lon="-3.48501">
        <ele>46.81</ele>
        <time>2020-07-10T12:24:22Z</time>
      </trkpt>
      <trkpt lat="47.84001" lon="-3.48509">
        <ele>46.92</ele>
        <time>2020-07-10T12:24:23Z</time>
      </trkpt>
      <trkpt lat="47.83999" lon="-3.48516">
        <ele>46.99</ele>
        <time>2020-07-10T12:24:24Z</time>
      </trkpt>
      <trkpt lat="47.83996" lon="-3.48523">
        <ele>47.01</ele>
        <time>2020-07-10T12:24:25Z</time>
      </trkpt>
      <trkpt lat="47.83993" lon="-3.48529">
        <ele>46.98</ele>
        <time>2020-07-10T12:24:26Z</time>
      </trkpt>
      <trkpt lat="47.83991" lon="-3.48535">
        <ele>46.82</ele>
        <time>2020-07-10T12:24:27Z</time>
      </trkpt>
      <trkpt lat="47.83988" lon="-3.48541">
        <ele>46.61</ele>
        <time>2020-07-10T12:24:28Z</time>
      </trkpt>
      <trkpt lat="47.83985" lon="-3.48547">
        <ele>46.39</ele>
        <time>2020-07-10T12:24:29Z</time>
      </trkpt>
      <trkpt lat="47.83981" lon="-3.48554">
        <ele>46.15</ele>
        <time>2020-07-10T12:24:30Z</time>
      </trkpt>
      <trkpt lat="47.83977" lon="-3.48561">
        <ele>45.94</ele>
        <time>2020-07-10T12:24:31Z</time>
      </trkpt>
      <trkpt lat="47.83973" lon="-3.48567">
        <ele>45.69</ele>
        <time>2020-07-10T12:24:32Z</time>
      </trkpt>
      <trkpt lat="47.83968" lon="-3.48574">
        <ele>45.45</ele>
        <time>2020-07-10T12:24:33Z</time>
      </trkpt>
      <trkpt lat="47.83963" lon="-3.48581">
        <ele>45.19</ele>
        <time>2020-07-10T12:24:34Z</time>
      </trkpt>
      <trkpt lat="47.83958" lon="-3.48588">
        <ele>44.94</ele>
        <time>2020-07-10T12:24:35Z</time>
      </trkpt>
      <trkpt lat="47.83953" lon="-3.48595">
        <ele>44.69</ele>
        <time>2020-07-10T12:24:36Z</time>
      </trkpt>
      <trkpt lat="47.83947" lon="-3.48602">
        <ele>44.45</ele>
        <time>2020-07-10T12:24:37Z</time>
      </trkpt>
      <trkpt lat="47.83942" lon="-3.48608">
        <ele>44.22</ele>
        <time>2020-07-10T12:24:38Z</time>
      </trkpt>
      <trkpt lat="47.83936" lon="-3.48613">
        <ele>44.01</ele>
        <time>2020-07-10T12:24:39Z</time>
      </trkpt>
      <trkpt lat="47.8393" lon="-3.48619">
        <ele>43.81</ele>
        <time>2020-07-10T12:24:40Z</time>
      </trkpt>
      <trkpt lat="47.83924" lon="-3.48624">
        <ele>43.62</ele>
        <time>2020-07-10T12:24:41Z</time>
      </trkpt>
      <trkpt lat="47.83918" lon="-3.48629">
        <ele>43.43</ele>
        <time>2020-07-10T12:24:42Z</time>
      </trkpt>
      <trkpt lat="47.83912" lon="-3.48634">
        <ele>43.25</ele>
        <time>2020-07-10T12:24:43Z</time>
      </trkpt>
      <trkpt lat="47.83906" lon="-3.48639">
        <ele>43.08</ele>
        <time>2020-07-10T12:24:44Z</time>
      </trkpt>
      <trkpt lat="47.839" lon="-3.48643">
        <ele>42.87</ele>
        <time>2020-07-10T12:24:45Z</time>
      </trkpt>
      <trkpt lat="47.83893" lon="-3.48647">
        <ele>42.71</ele>
        <time>2020-07-10T12:24:46Z</time>
      </trkpt>
      <trkpt lat="47.83887" lon="-3.48651">
        <ele>42.67</ele>
        <time>2020-07-10T12:24:47Z</time>
      </trkpt>
      <trkpt lat="47.83881" lon="-3.48654">
        <ele>42.73</ele>
        <time>2020-07-10T12:24:48Z</time>
      </trkpt>
      <trkpt lat="47.83874" lon="-3.48657">
        <ele>42.82</ele>
        <time>2020-07-10T12:24:49Z</time>
      </trkpt>
      <trkpt lat="47.83868" lon="-3.48661">
        <ele>42.91</ele>
        <time>2020-07-10T12:24:50Z</time>
      </trkpt>
      <trkpt lat="47.83862" lon="-3.48664">
        <ele>43.03</ele>
        <time>2020-07-10T12:24:51Z</time>
      </trkpt>
      <trkpt lat="47.83855" lon="-3.48667">
        <ele>43.16</ele>
        <time>2020-07-10T12:24:52Z</time>
      </trkpt>
      <trkpt lat="47.83848" lon="-3.48669">
        <ele>43.31</ele>
        <time>2020-07-10T12:24:53Z</time>
      </trkpt>
      <trkpt lat="47.83842" lon="-3.48671">
        <ele>43.46</ele>
        <time>2020-07-10T12:24:54Z</time>
      </trkpt>
      <trkpt lat="47.83835" lon="-3.48674">
        <ele>43.63</ele>
        <time>2020-07-10T12:24:55Z</time>
      </trkpt>
      <trkpt lat="47.83828" lon="-3.48676">
        <ele>43.7</ele>
        <time>2020-07-10T12:24:56Z</time>
      </trkpt>
      <trkpt lat="47.83822" lon="-3.48678">
        <ele>43.73</ele>
        <time>2020-07-10T12:24:57Z</time>
      </trkpt>
      <trkpt lat="47.83817" lon="-3.4868">
        <ele>43.78</ele>
        <time>2020-07-10T12:24:58Z</time>
      </trkpt>
      <trkpt lat="47.83811" lon="-3.48682">
        <ele>43.86</ele>
        <time>2020-07-10T12:24:59Z</time>
      </trkpt>
      <trkpt lat="47.83805" lon="-3.48683">
        <ele>43.96</ele>
        <time>2020-07-10T12:25:00Z</time>
      </trkpt>
      <trkpt lat="47.83799" lon="-3.48685">
        <ele>43.99</ele>
        <time>2020-07-10T12:25:01Z</time>
      </trkpt>
      <trkpt lat="47.83793" lon="-3.48686">
        <ele>44</ele>
        <time>2020-07-10T12:25:02Z</time>
      </trkpt>
      <trkpt lat="47.83786" lon="-3.48687">
        <ele>44</ele>
        <time>2020-07-10T12:25:03Z</time>
      </trkpt>
      <trkpt lat="47.8378" lon="-3.48689">
        <ele>44</ele>
        <time>2020-07-10T12:25:04Z</time>
      </trkpt>
      <trkpt lat="47.83774" lon="-3.4869">
        <ele>44.01</ele>
        <time>2020-07-10T12:25:05Z</time>
      </trkpt>
      <trkpt lat="47.83768" lon="-3.48691">
        <ele>44.03</ele>
        <time>2020-07-10T12:25:06Z</time>
      </trkpt>
      <trkpt lat="47.83761" lon="-3.48693">
        <ele>44.03</ele>
        <time>2020-07-10T12:25:07Z</time>
      </trkpt>
      <trkpt lat="47.83754" lon="-3.48694">
        <ele>44.01</ele>
        <time>2020-07-10T12:25:08Z</time>
      </trkpt>
      <trkpt lat="47.83748" lon="-3.48696">
        <ele>44.05</ele>
        <time>2020-07-10T12:25:09Z</time>
      </trkpt>
      <trkpt lat="47.83741" lon="-3.48697">
        <ele>44.21</ele>
        <time>2020-07-10T12:25:10Z</time>
      </trkpt>
      <trkpt lat="47.83735" lon="-3.48698">
        <ele>44.4</ele>
        <time>2020-07-10T12:25:11Z</time>
      </trkpt>
      <trkpt lat="47.83728" lon="-3.48699">
        <ele>44.57</ele>
        <time>2020-07-10T12:25:12Z</time>
      </trkpt>
      <trkpt lat="47.83722" lon="-3.487">
        <ele>44.73</ele>
        <time>2020-07-10T12:25:13Z</time>
      </trkpt>
      <trkpt lat="47.83715" lon="-3.487">
        <ele>44.81</ele>
        <time>2020-07-10T12:25:14Z</time>
      </trkpt>
      <trkpt lat="47.83708" lon="-3.48701">
        <ele>44.86</ele>
        <time>2020-07-10T12:25:15Z</time>
      </trkpt>
      <trkpt lat="47.83701" lon="-3.48702">
        <ele>44.91</ele>
        <time>2020-07-10T12:25:16Z</time>
      </trkpt>
      <trkpt lat="47.83695" lon="-3.48703">
        <ele>44.97</ele>
        <time>2020-07-10T12:25:17Z</time>
      </trkpt>
      <trkpt lat="47.83688" lon="-3.48703">
        <ele>44.94</ele>
        <time>2020-07-10T12:25:18Z</time>
      </trkpt>
      <trkpt lat="47.83682" lon="-3.48704">
        <ele>44.87</ele>
        <time>2020-07-10T12:25:19Z</time>
      </trkpt>
      <trkpt lat="47.83676" lon="-3.48705">
        <ele>44.79</ele>
        <time>2020-07-10T12:25:20Z</time>
      </trkpt>
      <trkpt lat="47.8367" lon="-3.48705">
        <ele>44.7</ele>
        <time>2020-07-10T12:25:21Z</time>
      </trkpt>
      <trkpt lat="47.83663" lon="-3.48706">
        <ele>44.58</ele>
        <time>2020-07-10T12:25:22Z</time>
      </trkpt>
      <trkpt lat="47.83658" lon="-3.48706">
        <ele>44.45</ele>
        <time>2020-07-10T12:25:23Z</time>
      </trkpt>
      <trkpt lat="47.83651" lon="-3.48706">
        <ele>44.32</ele>
        <time>2020-07-10T12:25:24Z</time>
      </trkpt>
      <trkpt lat="47.83645" lon="-3.48706">
        <ele>44.18</ele>
        <time>2020-07-10T12:25:25Z</time>
      </trkpt>
      <trkpt lat="47.83639" lon="-3.48706">
        <ele>44.06</ele>
        <time>2020-07-10T12:25:26Z</time>
      </trkpt>
      <trkpt lat="47.83632" lon="-3.48706">
        <ele>44.23</ele>
        <time>2020-07-10T12:25:27Z</time>
      </trkpt>
      <trkpt lat="47.83626" lon="-3.48707">
        <ele>44.51</ele>
        <time>2020-07-10T12:25:28Z</time>
      </trkpt>
      <trkpt lat="47.83619" lon="-3.48708">
        <ele>44.86</ele>
        <time>2020-07-10T12:25:29Z</time>
      </trkpt>
      <trkpt lat="47.83614" lon="-3.48709">
        <ele>45.23</ele>
        <time>2020-07-10T12:25:30Z</time>
      </trkpt>
      <trkpt lat="47.83608" lon="-3.48709">
        <ele>45.44</ele>
        <time>2020-07-10T12:25:31Z</time>
      </trkpt>
      <trkpt lat="47.83602" lon="-3.4871">
        <ele>45.53</ele>
        <time>2020-07-10T12:25:32Z</time>
      </trkpt>
      <trkpt lat="47.83597" lon="-3.48711">
        <ele>45.6</ele>
        <time>2020-07-10T12:25:33Z</time>
      </trkpt>
      <trkpt lat="47.83592" lon="-3.48713">
        <ele>45.71</ele>
        <time>2020-07-10T12:25:34Z</time>
      </trkpt>
      <trkpt lat="47.83587" lon="-3.48714">
        <ele>45.86</ele>
        <time>2020-07-10T12:25:35Z</time>
      </trkpt>
      <trkpt lat="47.83581" lon="-3.48717">
        <ele>45.86</ele>
        <time>2020-07-10T12:25:36Z</time>
      </trkpt>
      <trkpt lat="47.83575" lon="-3.48719">
        <ele>45.42</ele>
        <time>2020-07-10T12:25:37Z</time>
      </trkpt>
      <trkpt lat="47.83569" lon="-3.48721">
        <ele>44.73</ele>
        <time>2020-07-10T12:25:38Z</time>
      </trkpt>
      <trkpt lat="47.83564" lon="-3.48723">
        <ele>43.9</ele>
        <time>2020-07-10T12:25:39Z</time>
      </trkpt>
      <trkpt lat="47.83558" lon="-3.48725">
        <ele>43.08</ele>
        <time>2020-07-10T12:25:40Z</time>
      </trkpt>
      <trkpt lat="47.83552" lon="-3.48728">
        <ele>42.6</ele>
        <time>2020-07-10T12:25:41Z</time>
      </trkpt>
      <trkpt lat="47.83547" lon="-3.4873">
        <ele>42.35</ele>
        <time>2020-07-10T12:25:42Z</time>
      </trkpt>
      <trkpt lat="47.83541" lon="-3.48732">
        <ele>42.07</ele>
        <time>2020-07-10T12:25:43Z</time>
      </trkpt>
      <trkpt lat="47.83536" lon="-3.48733">
        <ele>41.75</ele>
        <time>2020-07-10T12:25:44Z</time>
      </trkpt>
      <trkpt lat="47.8353" lon="-3.48735">
        <ele>41.37</ele>
        <time>2020-07-10T12:25:45Z</time>
      </trkpt>
      <trkpt lat="47.83525" lon="-3.48737">
        <ele>41.15</ele>
        <time>2020-07-10T12:25:46Z</time>
      </trkpt>
      <trkpt lat="47.83519" lon="-3.48739">
        <ele>41.18</ele>
        <time>2020-07-10T12:25:47Z</time>
      </trkpt>
      <trkpt lat="47.83513" lon="-3.48741">
        <ele>41.3</ele>
        <time>2020-07-10T12:25:48Z</time>
      </trkpt>
      <trkpt lat="47.83507" lon="-3.48743">
        <ele>41.47</ele>
        <time>2020-07-10T12:25:49Z</time>
      </trkpt>
      <trkpt lat="47.83502" lon="-3.48745">
        <ele>41.67</ele>
        <time>2020-07-10T12:25:50Z</time>
      </trkpt>
      <trkpt lat="47.83496" lon="-3.48747">
        <ele>41.82</ele>
        <time>2020-07-10T12:25:51Z</time>
      </trkpt>
      <trkpt lat="47.8349" lon="-3.48749">
        <ele>41.93</ele>
        <time>2020-07-10T12:25:52Z</time>
      </trkpt>
      <trkpt lat="47.83483" lon="-3.48752">
        <ele>42</ele>
        <time>2020-07-10T12:25:53Z</time>
      </trkpt>
      <trkpt lat="47.83476" lon="-3.48753">
        <ele>42.01</ele>
        <time>2020-07-10T12:25:54Z</time>
      </trkpt>
      <trkpt lat="47.8347" lon="-3.48756">
        <ele>41.95</ele>
        <time>2020-07-10T12:25:55Z</time>
      </trkpt>
      <trkpt lat="47.83463" lon="-3.48758">
        <ele>41.82</ele>
        <time>2020-07-10T12:25:56Z</time>
      </trkpt>
      <trkpt lat="47.83457" lon="-3.4876">
        <ele>41.7</ele>
        <time>2020-07-10T12:25:57Z</time>
      </trkpt>
      <trkpt lat="47.8345" lon="-3.48762">
        <ele>41.6</ele>
        <time>2020-07-10T12:25:58Z</time>
      </trkpt>
      <trkpt lat="47.83443" lon="-3.48764">
        <ele>41.54</ele>
        <time>2020-07-10T12:25:59Z</time>
      </trkpt>
      <trkpt lat="47.83436" lon="-3.48767">
        <ele>41.58</ele>
        <time>2020-07-10T12:26:00Z</time>
      </trkpt>
      <trkpt lat="47.83429" lon="-3.48769">
        <ele>41.65</ele>
        <time>2020-07-10T12:26:01Z</time>
      </trkpt>
      <trkpt lat="47.83423" lon="-3.48771">
        <ele>41.73</ele>
        <time>2020-07-10T12:26:02Z</time>
      </trkpt>
      <trkpt lat="47.83416" lon="-3.48773">
        <ele>41.81</ele>
        <time>2020-07-10T12:26:03Z</time>
      </trkpt>
      <trkpt lat="47.83409" lon="-3.48776">
        <ele>41.91</ele>
        <time>2020-07-10T12:26:04Z</time>
      </trkpt>
      <trkpt lat="47.83402" lon="-3.48778">
        <ele>41.97</ele>
        <time>2020-07-10T12:26:05Z</time>
      </trkpt>
      <trkpt lat="47.83396" lon="-3.4878">
        <ele>41.99</ele>
        <time>2020-07-10T12:26:06Z</time>
      </trkpt>
      <trkpt lat="47.83389" lon="-3.48783">
        <ele>42</ele>
        <time>2020-07-10T12:26:07Z</time>
      </trkpt>
      <trkpt lat="47.83384" lon="-3.48786">
        <ele>42.04</ele>
        <time>2020-07-10T12:26:08Z</time>
      </trkpt>
      <trkpt lat="47.83379" lon="-3.48791">
        <ele>42.14</ele>
        <time>2020-07-10T12:26:09Z</time>
      </trkpt>
      <trkpt lat="47.83374" lon="-3.48798">
        <ele>42.31</ele>
        <time>2020-07-10T12:26:10Z</time>
      </trkpt>
      <trkpt lat="47.8337" lon="-3.48805">
        <ele>42.56</ele>
        <time>2020-07-10T12:26:11Z</time>
      </trkpt>
      <trkpt lat="47.83365" lon="-3.48812">
        <ele>42.76</ele>
        <time>2020-07-10T12:26:12Z</time>
      </trkpt>
      <trkpt lat="47.83361" lon="-3.48819">
        <ele>42.94</ele>
        <time>2020-07-10T12:26:13Z</time>
      </trkpt>
      <trkpt lat="47.83356" lon="-3.48825">
        <ele>43.11</ele>
        <time>2020-07-10T12:26:14Z</time>
      </trkpt>
      <trkpt lat="47.83351" lon="-3.48831">
        <ele>43.28</ele>
        <time>2020-07-10T12:26:15Z</time>
      </trkpt>
      <trkpt lat="47.83346" lon="-3.48838">
        <ele>43.45</ele>
        <time>2020-07-10T12:26:16Z</time>
      </trkpt>
      <trkpt lat="47.83342" lon="-3.48844">
        <ele>43.62</ele>
        <time>2020-07-10T12:26:17Z</time>
      </trkpt>
      <trkpt lat="47.83337" lon="-3.4885">
        <ele>43.78</ele>
        <time>2020-07-10T12:26:18Z</time>
      </trkpt>
      <trkpt lat="47.83333" lon="-3.48857">
        <ele>43.94</ele>
        <time>2020-07-10T12:26:19Z</time>
      </trkpt>
      <trkpt lat="47.83329" lon="-3.48862">
        <ele>43.98</ele>
        <time>2020-07-10T12:26:20Z</time>
      </trkpt>
      <trkpt lat="47.83325" lon="-3.48869">
        <ele>43.99</ele>
        <time>2020-07-10T12:26:21Z</time>
      </trkpt>
      <trkpt lat="47.83321" lon="-3.48874">
        <ele>44</ele>
        <time>2020-07-10T12:26:22Z</time>
      </trkpt>
      <trkpt lat="47.83318" lon="-3.4888">
        <ele>44</ele>
        <time>2020-07-10T12:26:23Z</time>
      </trkpt>
      <trkpt lat="47.83315" lon="-3.48885">
        <ele>44</ele>
        <time>2020-07-10T12:26:24Z</time>
      </trkpt>
      <trkpt lat="47.83311" lon="-3.4889">
        <ele>44.03</ele>
        <time>2020-07-10T12:26:25Z</time>
      </trkpt>
      <trkpt lat="47.83307" lon="-3.48896">
        <ele>44.17</ele>
        <time>2020-07-10T12:26:26Z</time>
      </trkpt>
      <trkpt lat="47.83303" lon="-3.48901">
        <ele>44.45</ele>
        <time>2020-07-10T12:26:27Z</time>
      </trkpt>
      <trkpt lat="47.833" lon="-3.48907">
        <ele>44.78</ele>
        <time>2020-07-10T12:26:28Z</time>
      </trkpt>
      <trkpt lat="47.83297" lon="-3.48913">
        <ele>45.09</ele>
        <time>2020-07-10T12:26:29Z</time>
      </trkpt>
      <trkpt lat="47.83293" lon="-3.48919">
        <ele>45.33</ele>
        <time>2020-07-10T12:26:30Z</time>
      </trkpt>
      <trkpt lat="47.8329" lon="-3.48925">
        <ele>45.49</ele>
        <time>2020-07-10T12:26:31Z</time>
      </trkpt>
      <trkpt lat="47.83287" lon="-3.48931">
        <ele>45.61</ele>
        <time>2020-07-10T12:26:32Z</time>
      </trkpt>
      <trkpt lat="47.83284" lon="-3.48937">
        <ele>45.73</ele>
        <time>2020-07-10T12:26:33Z</time>
      </trkpt>
      <trkpt lat="47.83282" lon="-3.48943">
        <ele>45.8</ele>
        <time>2020-07-10T12:26:34Z</time>
      </trkpt>
      <trkpt lat="47.83282" lon="-3.48949">
        <ele>45.74</ele>
        <time>2020-07-10T12:26:35Z</time>
      </trkpt>
      <trkpt lat="47.83283" lon="-3.48955">
        <ele>45.57</ele>
        <time>2020-07-10T12:26:36Z</time>
      </trkpt>
      <trkpt lat="47.83284" lon="-3.4896">
        <ele>45.42</ele>
        <time>2020-07-10T12:26:37Z</time>
      </trkpt>
      <trkpt lat="47.83285" lon="-3.48963">
        <ele>45.31</ele>
        <time>2020-07-10T12:26:38Z</time>
      </trkpt>
      <trkpt lat="47.83287" lon="-3.48964">
        <ele>45.24</ele>
        <time>2020-07-10T12:26:39Z</time>
      </trkpt>
      <trkpt lat="47.83287" lon="-3.48965">
        <ele>45.19</ele>
        <time>2020-07-10T12:26:40Z</time>
      </trkpt>
      <trkpt lat="47.83286" lon="-3.48966">
        <ele>45.16</ele>
        <time>2020-07-10T12:26:41Z</time>
      </trkpt>
      <trkpt lat="47.83284" lon="-3.48966">
        <ele>45.18</ele>
        <time>2020-07-10T12:26:42Z</time>
      </trkpt>
      <trkpt lat="47.83283" lon="-3.48963">
        <ele>45.24</ele>
        <time>2020-07-10T12:26:43Z</time>
      </trkpt>
      <trkpt lat="47.83284" lon="-3.48959">
        <ele>45.33</ele>
        <time>2020-07-10T12:26:44Z</time>
      </trkpt>
      <trkpt lat="47.83284" lon="-3.48955">
        <ele>45.43</ele>
        <time>2020-07-10T12:26:45Z</time>
      </trkpt>
      <trkpt lat="47.83284" lon="-3.4895">
        <ele>45.56</ele>
        <time>2020-07-10T12:26:46Z</time>
      </trkpt>
      <trkpt lat="47.83284" lon="-3.48945">
        <ele>45.71</ele>
        <time>2020-07-10T12:26:47Z</time>
      </trkpt>
      <trkpt lat="47.83284" lon="-3.48939">
        <ele>45.75</ele>
        <time>2020-07-10T12:26:48Z</time>
      </trkpt>
      <trkpt lat="47.83286" lon="-3.48933">
        <ele>45.72</ele>
        <time>2020-07-10T12:26:49Z</time>
      </trkpt>
      <trkpt lat="47.83289" lon="-3.48927">
        <ele>45.64</ele>
        <time>2020-07-10T12:26:50Z</time>
      </trkpt>
      <trkpt lat="47.83291" lon="-3.48921">
        <ele>45.55</ele>
        <time>2020-07-10T12:26:51Z</time>
      </trkpt>
      <trkpt lat="47.83295" lon="-3.48915">
        <ele>45.41</ele>
        <time>2020-07-10T12:26:52Z</time>
      </trkpt>
      <trkpt lat="47.83298" lon="-3.48908">
        <ele>45.17</ele>
        <time>2020-07-10T12:26:53Z</time>
      </trkpt>
      <trkpt lat="47.83301" lon="-3.48902">
        <ele>44.85</ele>
        <time>2020-07-10T12:26:54Z</time>
      </trkpt>
      <trkpt lat="47.83304" lon="-3.48896">
        <ele>44.48</ele>
        <time>2020-07-10T12:26:55Z</time>
      </trkpt>
      <trkpt lat="47.83309" lon="-3.48891">
        <ele>44.2</ele>
        <time>2020-07-10T12:26:56Z</time>
      </trkpt>
      <trkpt lat="47.83313" lon="-3.48889">
        <ele>44.07</ele>
        <time>2020-07-10T12:26:57Z</time>
      </trkpt>
      <trkpt lat="47.83318" lon="-3.4889">
        <ele>44.03</ele>
        <time>2020-07-10T12:26:58Z</time>
      </trkpt>
      <trkpt lat="47.83323" lon="-3.48893">
        <ele>44.04</ele>
        <time>2020-07-10T12:26:59Z</time>
      </trkpt>
      <trkpt lat="47.83329" lon="-3.48897">
        <ele>44.05</ele>
        <time>2020-07-10T12:27:00Z</time>
      </trkpt>
      <trkpt lat="47.83332" lon="-3.48901">
        <ele>44.03</ele>
        <time>2020-07-10T12:27:01Z</time>
      </trkpt>
      <trkpt lat="47.83334" lon="-3.48907">
        <ele>43.99</ele>
        <time>2020-07-10T12:27:02Z</time>
      </trkpt>
      <trkpt lat="47.83334" lon="-3.48914">
        <ele>43.97</ele>
        <time>2020-07-10T12:27:03Z</time>
      </trkpt>
      <trkpt lat="47.83333" lon="-3.4892">
        <ele>44</ele>
        <time>2020-07-10T12:27:04Z</time>
      </trkpt>
      <trkpt lat="47.83332" lon="-3.48927">
        <ele>44.04</ele>
        <time>2020-07-10T12:27:05Z</time>
      </trkpt>
      <trkpt lat="47.83331" lon="-3.48933">
        <ele>44.08</ele>
        <time>2020-07-10T12:27:06Z</time>
      </trkpt>
      <trkpt lat="47.8333" lon="-3.4894">
        <ele>44.12</ele>
        <time>2020-07-10T12:27:07Z</time>
      </trkpt>
      <trkpt lat="47.8333" lon="-3.48946">
        <ele>44.13</ele>
        <time>2020-07-10T12:27:08Z</time>
      </trkpt>
      <trkpt lat="47.8333" lon="-3.48953">
        <ele>44.13</ele>
        <time>2020-07-10T12:27:09Z</time>
      </trkpt>
      <trkpt lat="47.8333" lon="-3.4896">
        <ele>44.13</ele>
        <time>2020-07-10T12:27:10Z</time>
      </trkpt>
      <trkpt lat="47.83329" lon="-3.48968">
        <ele>44.14</ele>
        <time>2020-07-10T12:27:11Z</time>
      </trkpt>
      <trkpt lat="47.83329" lon="-3.48975">
        <ele>44.13</ele>
        <time>2020-07-10T12:27:12Z</time>
      </trkpt>
      <trkpt lat="47.8333" lon="-3.48983">
        <ele>44.1</ele>
        <time>2020-07-10T12:27:13Z</time>
      </trkpt>
      <trkpt lat="47.8333" lon="-3.48991">
        <ele>44.06</ele>
        <time>2020-07-10T12:27:14Z</time>
      </trkpt>
      <trkpt lat="47.8333" lon="-3.48999">
        <ele>44.02</ele>
        <time>2020-07-10T12:27:15Z</time>
      </trkpt>
      <trkpt lat="47.83331" lon="-3.49008">
        <ele>43.65</ele>
        <time>2020-07-10T12:27:16Z</time>
      </trkpt>
      <trkpt lat="47.83332" lon="-3.49016">
        <ele>43.08</ele>
        <time>2020-07-10T12:27:17Z</time>
      </trkpt>
      <trkpt lat="47.83333" lon="-3.49026">
        <ele>42.42</ele>
        <time>2020-07-10T12:27:18Z</time>
      </trkpt>
      <trkpt lat="47.83334" lon="-3.49036">
        <ele>41.95</ele>
        <time>2020-07-10T12:27:19Z</time>
      </trkpt>
      <trkpt lat="47.83335" lon="-3.49045">
        <ele>41.6</ele>
        <time>2020-07-10T12:27:20Z</time>
      </trkpt>
      <trkpt lat="47.83337" lon="-3.49055">
        <ele>41.29</ele>
        <time>2020-07-10T12:27:21Z</time>
      </trkpt>
      <trkpt lat="47.83339" lon="-3.49065">
        <ele>41.13</ele>
        <time>2020-07-10T12:27:22Z</time>
      </trkpt>
      <trkpt lat="47.83339" lon="-3.49075">
        <ele>40.98</ele>
        <time>2020-07-10T12:27:23Z</time>
      </trkpt>
      <trkpt lat="47.8334" lon="-3.49084">
        <ele>40.83</ele>
        <time>2020-07-10T12:27:24Z</time>
      </trkpt>
      <trkpt lat="47.83339" lon="-3.49094">
        <ele>40.8</ele>
        <time>2020-07-10T12:27:25Z</time>
      </trkpt>
      <trkpt lat="47.83338" lon="-3.49104">
        <ele>40.82</ele>
        <time>2020-07-10T12:27:26Z</time>
      </trkpt>
      <trkpt lat="47.83336" lon="-3.49113">
        <ele>40.89</ele>
        <time>2020-07-10T12:27:27Z</time>
      </trkpt>
      <trkpt lat="47.83333" lon="-3.4912">
        <ele>40.97</ele>
        <time>2020-07-10T12:27:28Z</time>
      </trkpt>
      <trkpt lat="47.8333" lon="-3.49127">
        <ele>41.03</ele>
        <time>2020-07-10T12:27:29Z</time>
      </trkpt>
      <trkpt lat="47.83327" lon="-3.49134">
        <ele>41.13</ele>
        <time>2020-07-10T12:27:30Z</time>
      </trkpt>
      <trkpt lat="47.83325" lon="-3.49141">
        <ele>41.37</ele>
        <time>2020-07-10T12:27:31Z</time>
      </trkpt>
      <trkpt lat="47.83323" lon="-3.49149">
        <ele>41.8</ele>
        <time>2020-07-10T12:27:32Z</time>
      </trkpt>
      <trkpt lat="47.8332" lon="-3.49156">
        <ele>42.23</ele>
        <time>2020-07-10T12:27:33Z</time>
      </trkpt>
      <trkpt lat="47.83317" lon="-3.49162">
        <ele>42.61</ele>
        <time>2020-07-10T12:27:34Z</time>
      </trkpt>
      <trkpt lat="47.83315" lon="-3.49169">
        <ele>42.92</ele>
        <time>2020-07-10T12:27:35Z</time>
      </trkpt>
      <trkpt lat="47.83312" lon="-3.49176">
        <ele>43.09</ele>
        <time>2020-07-10T12:27:36Z</time>
      </trkpt>
      <trkpt lat="47.8331" lon="-3.49183">
        <ele>43.15</ele>
        <time>2020-07-10T12:27:37Z</time>
      </trkpt>
      <trkpt lat="47.83307" lon="-3.4919">
        <ele>43.12</ele>
        <time>2020-07-10T12:27:38Z</time>
      </trkpt>
      <trkpt lat="47.83304" lon="-3.49197">
        <ele>43.25</ele>
        <time>2020-07-10T12:27:39Z</time>
      </trkpt>
      <trkpt lat="47.83301" lon="-3.49204">
        <ele>43.75</ele>
        <time>2020-07-10T12:27:40Z</time>
      </trkpt>
      <trkpt lat="47.83298" lon="-3.49211">
        <ele>44.33</ele>
        <time>2020-07-10T12:27:41Z</time>
      </trkpt>
      <trkpt lat="47.83295" lon="-3.49218">
        <ele>44.87</ele>
        <time>2020-07-10T12:27:42Z</time>
      </trkpt>
      <trkpt lat="47.83292" lon="-3.49224">
        <ele>45.35</ele>
        <time>2020-07-10T12:27:43Z</time>
      </trkpt>
      <trkpt lat="47.8329" lon="-3.4923">
        <ele>45.78</ele>
        <time>2020-07-10T12:27:44Z</time>
      </trkpt>
      <trkpt lat="47.83287" lon="-3.49235">
        <ele>46.15</ele>
        <time>2020-07-10T12:27:45Z</time>
      </trkpt>
      <trkpt lat="47.83285" lon="-3.49241">
        <ele>46.44</ele>
        <time>2020-07-10T12:27:46Z</time>
      </trkpt>
      <trkpt lat="47.83282" lon="-3.49246">
        <ele>46.71</ele>
        <time>2020-07-10T12:27:47Z</time>
      </trkpt>
      <trkpt lat="47.8328" lon="-3.49251">
        <ele>46.95</ele>
        <time>2020-07-10T12:27:48Z</time>
      </trkpt>
      <trkpt lat="47.83278" lon="-3.49256">
        <ele>47.13</ele>
        <time>2020-07-10T12:27:49Z</time>
      </trkpt>
      <trkpt lat="47.83276" lon="-3.49261">
        <ele>47.33</ele>
        <time>2020-07-10T12:27:50Z</time>
      </trkpt>
      <trkpt lat="47.83274" lon="-3.49267">
        <ele>47.52</ele>
        <time>2020-07-10T12:27:51Z</time>
      </trkpt>
      <trkpt lat="47.83273" lon="-3.49272">
        <ele>47.72</ele>
        <time>2020-07-10T12:27:52Z</time>
      </trkpt>
      <trkpt lat="47.83272" lon="-3.49277">
        <ele>47.9</ele>
        <time>2020-07-10T12:27:53Z</time>
      </trkpt>
      <trkpt lat="47.83271" lon="-3.49283">
        <ele>47.97</ele>
        <time>2020-07-10T12:27:54Z</time>
      </trkpt>
      <trkpt lat="47.83271" lon="-3.49289">
        <ele>47.99</ele>
        <time>2020-07-10T12:27:55Z</time>
      </trkpt>
      <trkpt lat="47.8327" lon="-3.49295">
        <ele>48</ele>
        <time>2020-07-10T12:27:56Z</time>
      </trkpt>
      <trkpt lat="47.83269" lon="-3.49301">
        <ele>48</ele>
        <time>2020-07-10T12:27:57Z</time>
      </trkpt>
      <trkpt lat="47.83268" lon="-3.49307">
        <ele>48</ele>
        <time>2020-07-10T12:27:58Z</time>
      </trkpt>
      <trkpt lat="47.83267" lon="-3.49314">
        <ele>48</ele>
        <time>2020-07-10T12:27:59Z</time>
      </trkpt>
      <trkpt lat="47.83266" lon="-3.4932">
        <ele>48</ele>
        <time>2020-07-10T12:28:00Z</time>
      </trkpt>
      <trkpt lat="47.83265" lon="-3.49327">
        <ele>48</ele>
        <time>2020-07-10T12:28:01Z</time>
      </trkpt>
      <trkpt lat="47.83264" lon="-3.49334">
        <ele>48</ele>
        <time>2020-07-10T12:28:02Z</time>
      </trkpt>
      <trkpt lat="47.83262" lon="-3.49341">
        <ele>47.91</ele>
        <time>2020-07-10T12:28:03Z</time>
      </trkpt>
      <trkpt lat="47.83261" lon="-3.49349">
        <ele>47.83</ele>
        <time>2020-07-10T12:28:04Z</time>
      </trkpt>
      <trkpt lat="47.83259" lon="-3.49357">
        <ele>47.75</ele>
        <time>2020-07-10T12:28:05Z</time>
      </trkpt>
      <trkpt lat="47.83257" lon="-3.49365">
        <ele>47.66</ele>
        <time>2020-07-10T12:28:06Z</time>
      </trkpt>
      <trkpt lat="47.83255" lon="-3.49373">
        <ele>47.47</ele>
        <time>2020-07-10T12:28:07Z</time>
      </trkpt>
      <trkpt lat="47.83253" lon="-3.49382">
        <ele>47.25</ele>
        <time>2020-07-10T12:28:08Z</time>
      </trkpt>
      <trkpt lat="47.83251" lon="-3.4939">
        <ele>47.01</ele>
        <time>2020-07-10T12:28:09Z</time>
      </trkpt>
      <trkpt lat="47.83249" lon="-3.49399">
        <ele>46.77</ele>
        <time>2020-07-10T12:28:10Z</time>
      </trkpt>
      <trkpt lat="47.83247" lon="-3.49407">
        <ele>46.5</ele>
        <time>2020-07-10T12:28:11Z</time>
      </trkpt>
      <trkpt lat="47.83245" lon="-3.49416">
        <ele>46.18</ele>
        <time>2020-07-10T12:28:12Z</time>
      </trkpt>
      <trkpt lat="47.83244" lon="-3.49425">
        <ele>45.85</ele>
        <time>2020-07-10T12:28:13Z</time>
      </trkpt>
      <trkpt lat="47.83242" lon="-3.49435">
        <ele>45.49</ele>
        <time>2020-07-10T12:28:14Z</time>
      </trkpt>
      <trkpt lat="47.83241" lon="-3.49445">
        <ele>45.13</ele>
        <time>2020-07-10T12:28:15Z</time>
      </trkpt>
      <trkpt lat="47.8324" lon="-3.49455">
        <ele>44.61</ele>
        <time>2020-07-10T12:28:16Z</time>
      </trkpt>
      <trkpt lat="47.83238" lon="-3.49465">
        <ele>44.07</ele>
        <time>2020-07-10T12:28:17Z</time>
      </trkpt>
      <trkpt lat="47.83237" lon="-3.49475">
        <ele>43.57</ele>
        <time>2020-07-10T12:28:18Z</time>
      </trkpt>
      <trkpt lat="47.83236" lon="-3.49486">
        <ele>43.19</ele>
        <time>2020-07-10T12:28:19Z</time>
      </trkpt>
      <trkpt lat="47.83234" lon="-3.49496">
        <ele>42.85</ele>
        <time>2020-07-10T12:28:20Z</time>
      </trkpt>
      <trkpt lat="47.83231" lon="-3.49506">
        <ele>42.64</ele>
        <time>2020-07-10T12:28:21Z</time>
      </trkpt>
      <trkpt lat="47.83226" lon="-3.49512">
        <ele>42.52</ele>
        <time>2020-07-10T12:28:22Z</time>
      </trkpt>
      <trkpt lat="47.8322" lon="-3.49517">
        <ele>42.44</ele>
        <time>2020-07-10T12:28:23Z</time>
      </trkpt>
      <trkpt lat="47.83214" lon="-3.4952">
        <ele>42.34</ele>
        <time>2020-07-10T12:28:24Z</time>
      </trkpt>
      <trkpt lat="47.83207" lon="-3.49521">
        <ele>42.26</ele>
        <time>2020-07-10T12:28:25Z</time>
      </trkpt>
      <trkpt lat="47.83201" lon="-3.49522">
        <ele>42.21</ele>
        <time>2020-07-10T12:28:26Z</time>
      </trkpt>
      <trkpt lat="47.83195" lon="-3.49524">
        <ele>42.17</ele>
        <time>2020-07-10T12:28:27Z</time>
      </trkpt>
      <trkpt lat="47.83188" lon="-3.49525">
        <ele>42.26</ele>
        <time>2020-07-10T12:28:28Z</time>
      </trkpt>
      <trkpt lat="47.83183" lon="-3.49527">
        <ele>42.38</ele>
        <time>2020-07-10T12:28:29Z</time>
      </trkpt>
      <trkpt lat="47.83177" lon="-3.49529">
        <ele>42.57</ele>
        <time>2020-07-10T12:28:30Z</time>
      </trkpt>
      <trkpt lat="47.83171" lon="-3.4953">
        <ele>42.78</ele>
        <time>2020-07-10T12:28:31Z</time>
      </trkpt>
      <trkpt lat="47.83165" lon="-3.49531">
        <ele>42.93</ele>
        <time>2020-07-10T12:28:32Z</time>
      </trkpt>
      <trkpt lat="47.83159" lon="-3.49532">
        <ele>42.98</ele>
        <time>2020-07-10T12:28:33Z</time>
      </trkpt>
      <trkpt lat="47.83153" lon="-3.49532">
        <ele>42.99</ele>
        <time>2020-07-10T12:28:34Z</time>
      </trkpt>
      <trkpt lat="47.83148" lon="-3.49532">
        <ele>43</ele>
        <time>2020-07-10T12:28:35Z</time>
      </trkpt>
      <trkpt lat="47.83142" lon="-3.49531">
        <ele>43</ele>
        <time>2020-07-10T12:28:36Z</time>
      </trkpt>
      <trkpt lat="47.83137" lon="-3.4953">
        <ele>43</ele>
        <time>2020-07-10T12:28:37Z</time>
      </trkpt>
      <trkpt lat="47.83131" lon="-3.49529">
        <ele>43.01</ele>
        <time>2020-07-10T12:28:38Z</time>
      </trkpt>
      <trkpt lat="47.83126" lon="-3.4953">
        <ele>43.03</ele>
        <time>2020-07-10T12:28:39Z</time>
      </trkpt>
      <trkpt lat="47.83121" lon="-3.49534">
        <ele>43.11</ele>
        <time>2020-07-10T12:28:40Z</time>
      </trkpt>
      <trkpt lat="47.83119" lon="-3.4954">
        <ele>43.25</ele>
        <time>2020-07-10T12:28:41Z</time>
      </trkpt>
      <trkpt lat="47.8312" lon="-3.49545">
        <ele>43.36</ele>
        <time>2020-07-10T12:28:42Z</time>
      </trkpt>
      <trkpt lat="47.83124" lon="-3.49549">
        <ele>43.4</ele>
        <time>2020-07-10T12:28:43Z</time>
      </trkpt>
      <trkpt lat="47.83126" lon="-3.49555">
        <ele>43.42</ele>
        <time>2020-07-10T12:28:44Z</time>
      </trkpt>
      <trkpt lat="47.83129" lon="-3.4956">
        <ele>43.37</ele>
        <time>2020-07-10T12:28:45Z</time>
      </trkpt>
      <trkpt lat="47.83131" lon="-3.49567">
        <ele>43.32</ele>
        <time>2020-07-10T12:28:46Z</time>
      </trkpt>
      <trkpt lat="47.83133" lon="-3.49573">
        <ele>43.25</ele>
        <time>2020-07-10T12:28:47Z</time>
      </trkpt>
      <trkpt lat="47.83133" lon="-3.49578">
        <ele>43.22</ele>
        <time>2020-07-10T12:28:48Z</time>
      </trkpt>
      <trkpt lat="47.83134" lon="-3.49583">
        <ele>43.19</ele>
        <time>2020-07-10T12:28:49Z</time>
      </trkpt>
      <trkpt lat="47.83135" lon="-3.49588">
        <ele>43.27</ele>
        <time>2020-07-10T12:28:50Z</time>
      </trkpt>
      <trkpt lat="47.83137" lon="-3.49593">
        <ele>43.36</ele>
        <time>2020-07-10T12:28:51Z</time>
      </trkpt>
      <trkpt lat="47.83139" lon="-3.49598">
        <ele>43.48</ele>
        <time>2020-07-10T12:28:52Z</time>
      </trkpt>
      <trkpt lat="47.83142" lon="-3.49603">
        <ele>43.6</ele>
        <time>2020-07-10T12:28:53Z</time>
      </trkpt>
      <trkpt lat="47.83144" lon="-3.49608">
        <ele>43.69</ele>
        <time>2020-07-10T12:28:54Z</time>
      </trkpt>
      <trkpt lat="47.83146" lon="-3.49613">
        <ele>43.77</ele>
        <time>2020-07-10T12:28:55Z</time>
      </trkpt>
      <trkpt lat="47.83149" lon="-3.49619">
        <ele>43.85</ele>
        <time>2020-07-10T12:28:56Z</time>
      </trkpt>
      <trkpt lat="47.83153" lon="-3.49625">
        <ele>43.94</ele>
        <time>2020-07-10T12:28:57Z</time>
      </trkpt>
      <trkpt lat="47.83156" lon="-3.4963">
        <ele>44.03</ele>
        <time>2020-07-10T12:28:58Z</time>
      </trkpt>
      <trkpt lat="47.8316" lon="-3.49636">
        <ele>44.11</ele>
        <time>2020-07-10T12:28:59Z</time>
      </trkpt>
      <trkpt lat="47.83163" lon="-3.49642">
        <ele>44.18</ele>
        <time>2020-07-10T12:29:00Z</time>
      </trkpt>
      <trkpt lat="47.83167" lon="-3.49648">
        <ele>44.28</ele>
        <time>2020-07-10T12:29:01Z</time>
      </trkpt>
      <trkpt lat="47.8317" lon="-3.49654">
        <ele>44.39</ele>
        <time>2020-07-10T12:29:02Z</time>
      </trkpt>
      <trkpt lat="47.83172" lon="-3.49661">
        <ele>44.52</ele>
        <time>2020-07-10T12:29:03Z</time>
      </trkpt>
      <trkpt lat="47.83176" lon="-3.49666">
        <ele>44.62</ele>
        <time>2020-07-10T12:29:04Z</time>
      </trkpt>
      <trkpt lat="47.83179" lon="-3.49673">
        <ele>44.74</ele>
        <time>2020-07-10T12:29:05Z</time>
      </trkpt>
      <trkpt lat="47.83182" lon="-3.4968">
        <ele>44.87</ele>
        <time>2020-07-10T12:29:06Z</time>
      </trkpt>
      <trkpt lat="47.83185" lon="-3.49686">
        <ele>44.99</ele>
        <time>2020-07-10T12:29:07Z</time>
      </trkpt>
      <trkpt lat="47.83188" lon="-3.49693">
        <ele>45.11</ele>
        <time>2020-07-10T12:29:08Z</time>
      </trkpt>
      <trkpt lat="47.83192" lon="-3.497">
        <ele>45.09</ele>
        <time>2020-07-10T12:29:09Z</time>
      </trkpt>
      <trkpt lat="47.83196" lon="-3.49707">
        <ele>45</ele>
        <time>2020-07-10T12:29:10Z</time>
      </trkpt>
      <trkpt lat="47.83199" lon="-3.49714">
        <ele>44.88</ele>
        <time>2020-07-10T12:29:11Z</time>
      </trkpt>
      <trkpt lat="47.83203" lon="-3.49721">
        <ele>44.74</ele>
        <time>2020-07-10T12:29:12Z</time>
      </trkpt>
      <trkpt lat="47.83207" lon="-3.49728">
        <ele>44.75</ele>
        <time>2020-07-10T12:29:13Z</time>
      </trkpt>
      <trkpt lat="47.83211" lon="-3.49735">
        <ele>44.83</ele>
        <time>2020-07-10T12:29:14Z</time>
      </trkpt>
      <trkpt lat="47.83214" lon="-3.49742">
        <ele>44.94</ele>
        <time>2020-07-10T12:29:15Z</time>
      </trkpt>
      <trkpt lat="47.83218" lon="-3.49749">
        <ele>45.06</ele>
        <time>2020-07-10T12:29:16Z</time>
      </trkpt>
      <trkpt lat="47.83221" lon="-3.49756">
        <ele>45.04</ele>
        <time>2020-07-10T12:29:17Z</time>
      </trkpt>
      <trkpt lat="47.83224" lon="-3.49763">
        <ele>44.95</ele>
        <time>2020-07-10T12:29:18Z</time>
      </trkpt>
      <trkpt lat="47.83228" lon="-3.4977">
        <ele>44.85</ele>
        <time>2020-07-10T12:29:19Z</time>
      </trkpt>
      <trkpt lat="47.83231" lon="-3.49777">
        <ele>44.74</ele>
        <time>2020-07-10T12:29:20Z</time>
      </trkpt>
      <trkpt lat="47.83234" lon="-3.49783">
        <ele>44.71</ele>
        <time>2020-07-10T12:29:21Z</time>
      </trkpt>
      <trkpt lat="47.83237" lon="-3.4979">
        <ele>44.68</ele>
        <time>2020-07-10T12:29:22Z</time>
      </trkpt>
      <trkpt lat="47.8324" lon="-3.49798">
        <ele>44.62</ele>
        <time>2020-07-10T12:29:23Z</time>
      </trkpt>
      <trkpt lat="47.83243" lon="-3.49805">
        <ele>44.53</ele>
        <time>2020-07-10T12:29:24Z</time>
      </trkpt>
      <trkpt lat="47.83246" lon="-3.49811">
        <ele>44.47</ele>
        <time>2020-07-10T12:29:25Z</time>
      </trkpt>
      <trkpt lat="47.83249" lon="-3.49817">
        <ele>44.46</ele>
        <time>2020-07-10T12:29:26Z</time>
      </trkpt>
      <trkpt lat="47.83252" lon="-3.49823">
        <ele>44.49</ele>
        <time>2020-07-10T12:29:27Z</time>
      </trkpt>
      <trkpt lat="47.83255" lon="-3.49829">
        <ele>44.51</ele>
        <time>2020-07-10T12:29:28Z</time>
      </trkpt>
      <trkpt lat="47.83261" lon="-3.49837">
        <ele>44.32</ele>
        <time>2020-07-10T12:29:29Z</time>
      </trkpt>
      <trkpt lat="47.83266" lon="-3.49845">
        <ele>44.01</ele>
        <time>2020-07-10T12:29:30Z</time>
      </trkpt>
      <trkpt lat="47.8327" lon="-3.49852">
        <ele>43.69</ele>
        <time>2020-07-10T12:29:31Z</time>
      </trkpt>
      <trkpt lat="47.83274" lon="-3.49859">
        <ele>43.42</ele>
        <time>2020-07-10T12:29:32Z</time>
      </trkpt>
      <trkpt lat="47.83277" lon="-3.49868">
        <ele>43.17</ele>
        <time>2020-07-10T12:29:33Z</time>
      </trkpt>
      <trkpt lat="47.8328" lon="-3.49876">
        <ele>42.98</ele>
        <time>2020-07-10T12:29:34Z</time>
      </trkpt>
      <trkpt lat="47.83282" lon="-3.49884">
        <ele>42.78</ele>
        <time>2020-07-10T12:29:35Z</time>
      </trkpt>
      <trkpt lat="47.83284" lon="-3.49893">
        <ele>42.54</ele>
        <time>2020-07-10T12:29:36Z</time>
      </trkpt>
      <trkpt lat="47.83285" lon="-3.49902">
        <ele>42.26</ele>
        <time>2020-07-10T12:29:37Z</time>
      </trkpt>
      <trkpt lat="47.83286" lon="-3.49911">
        <ele>41.99</ele>
        <time>2020-07-10T12:29:38Z</time>
      </trkpt>
      <trkpt lat="47.83285" lon="-3.4992">
        <ele>41.81</ele>
        <time>2020-07-10T12:29:39Z</time>
      </trkpt>
      <trkpt lat="47.83284" lon="-3.49929">
        <ele>41.78</ele>
        <time>2020-07-10T12:29:40Z</time>
      </trkpt>
      <trkpt lat="47.83284" lon="-3.49938">
        <ele>41.78</ele>
        <time>2020-07-10T12:29:41Z</time>
      </trkpt>
      <trkpt lat="47.83284" lon="-3.49946">
        <ele>41.77</ele>
        <time>2020-07-10T12:29:42Z</time>
      </trkpt>
      <trkpt lat="47.83285" lon="-3.49954">
        <ele>41.75</ele>
        <time>2020-07-10T12:29:43Z</time>
      </trkpt>
      <trkpt lat="47.83287" lon="-3.49962">
        <ele>41.69</ele>
        <time>2020-07-10T12:29:44Z</time>
      </trkpt>
      <trkpt lat="47.83288" lon="-3.4997">
        <ele>41.64</ele>
        <time>2020-07-10T12:29:45Z</time>
      </trkpt>
      <trkpt lat="47.83288" lon="-3.49978">
        <ele>41.63</ele>
        <time>2020-07-10T12:29:46Z</time>
      </trkpt>
      <trkpt lat="47.83287" lon="-3.49987">
        <ele>41.65</ele>
        <time>2020-07-10T12:29:47Z</time>
      </trkpt>
      <trkpt lat="47.83285" lon="-3.49994">
        <ele>41.71</ele>
        <time>2020-07-10T12:29:48Z</time>
      </trkpt>
      <trkpt lat="47.83283" lon="-3.50001">
        <ele>41.78</ele>
        <time>2020-07-10T12:29:49Z</time>
      </trkpt>
      <trkpt lat="47.8328" lon="-3.50008">
        <ele>41.88</ele>
        <time>2020-07-10T12:29:50Z</time>
      </trkpt>
      <trkpt lat="47.83277" lon="-3.50014">
        <ele>42.01</ele>
        <time>2020-07-10T12:29:51Z</time>
      </trkpt>
      <trkpt lat="47.83273" lon="-3.50019">
        <ele>42.16</ele>
        <time>2020-07-10T12:29:52Z</time>
      </trkpt>
      <trkpt lat="47.8327" lon="-3.50023">
        <ele>42.29</ele>
        <time>2020-07-10T12:29:53Z</time>
      </trkpt>
      <trkpt lat="47.83267" lon="-3.50025">
        <ele>42.39</ele>
        <time>2020-07-10T12:29:54Z</time>
      </trkpt>
      <trkpt lat="47.83264" lon="-3.50026">
        <ele>42.48</ele>
        <time>2020-07-10T12:29:55Z</time>
      </trkpt>
      <trkpt lat="47.83262" lon="-3.50027">
        <ele>42.56</ele>
        <time>2020-07-10T12:29:56Z</time>
      </trkpt>
      <trkpt lat="47.83259" lon="-3.50027">
        <ele>42.66</ele>
        <time>2020-07-10T12:29:57Z</time>
      </trkpt>
      <trkpt lat="47.83255" lon="-3.50025">
        <ele>42.83</ele>
        <time>2020-07-10T12:29:58Z</time>
      </trkpt>
      <trkpt lat="47.83252" lon="-3.50022">
        <ele>43.02</ele>
        <time>2020-07-10T12:29:59Z</time>
      </trkpt>
      <trkpt lat="47.83249" lon="-3.50019">
        <ele>43.24</ele>
        <time>2020-07-10T12:30:00Z</time>
      </trkpt>
      <trkpt lat="47.83246" lon="-3.50016">
        <ele>43.45</ele>
        <time>2020-07-10T12:30:01Z</time>
      </trkpt>
      <trkpt lat="47.83243" lon="-3.50014">
        <ele>43.67</ele>
        <time>2020-07-10T12:30:02Z</time>
      </trkpt>
      <trkpt lat="47.83239" lon="-3.5001">
        <ele>43.91</ele>
        <time>2020-07-10T12:30:03Z</time>
      </trkpt>
      <trkpt lat="47.83234" lon="-3.50007">
        <ele>44.2</ele>
        <time>2020-07-10T12:30:04Z</time>
      </trkpt>
      <trkpt lat="47.8323" lon="-3.50003">
        <ele>44.5</ele>
        <time>2020-07-10T12:30:05Z</time>
      </trkpt>
      <trkpt lat="47.83226" lon="-3.49999">
        <ele>44.77</ele>
        <time>2020-07-10T12:30:06Z</time>
      </trkpt>
      <trkpt lat="47.83221" lon="-3.49996">
        <ele>45.07</ele>
        <time>2020-07-10T12:30:07Z</time>
      </trkpt>
      <trkpt lat="47.83217" lon="-3.49992">
        <ele>45.35</ele>
        <time>2020-07-10T12:30:08Z</time>
      </trkpt>
      <trkpt lat="47.83213" lon="-3.49989">
        <ele>45.63</ele>
        <time>2020-07-10T12:30:09Z</time>
      </trkpt>
      <trkpt lat="47.83208" lon="-3.49985">
        <ele>45.91</ele>
        <time>2020-07-10T12:30:10Z</time>
      </trkpt>
      <trkpt lat="47.83205" lon="-3.49981">
        <ele>46.19</ele>
        <time>2020-07-10T12:30:11Z</time>
      </trkpt>
      <trkpt lat="47.83201" lon="-3.49978">
        <ele>46.45</ele>
        <time>2020-07-10T12:30:12Z</time>
      </trkpt>
      <trkpt lat="47.83197" lon="-3.49975">
        <ele>46.71</ele>
        <time>2020-07-10T12:30:13Z</time>
      </trkpt>
      <trkpt lat="47.83193" lon="-3.49971">
        <ele>46.93</ele>
        <time>2020-07-10T12:30:14Z</time>
      </trkpt>
      <trkpt lat="47.83189" lon="-3.49968">
        <ele>47.06</ele>
        <time>2020-07-10T12:30:15Z</time>
      </trkpt>
      <trkpt lat="47.83185" lon="-3.49964">
        <ele>47.15</ele>
        <time>2020-07-10T12:30:16Z</time>
      </trkpt>
      <trkpt lat="47.83181" lon="-3.49961">
        <ele>47.19</ele>
        <time>2020-07-10T12:30:17Z</time>
      </trkpt>
      <trkpt lat="47.83177" lon="-3.49959">
        <ele>47.18</ele>
        <time>2020-07-10T12:30:18Z</time>
      </trkpt>
      <trkpt lat="47.83173" lon="-3.49957">
        <ele>47.15</ele>
        <time>2020-07-10T12:30:19Z</time>
      </trkpt>
      <trkpt lat="47.83169" lon="-3.49954">
        <ele>47.09</ele>
        <time>2020-07-10T12:30:20Z</time>
      </trkpt>
      <trkpt lat="47.83165" lon="-3.49951">
        <ele>47.06</ele>
        <time>2020-07-10T12:30:21Z</time>
      </trkpt>
      <trkpt lat="47.83161" lon="-3.49949">
        <ele>47.14</ele>
        <time>2020-07-10T12:30:22Z</time>
      </trkpt>
      <trkpt lat="47.83156" lon="-3.49949">
        <ele>47.26</ele>
        <time>2020-07-10T12:30:23Z</time>
      </trkpt>
      <trkpt lat="47.83152" lon="-3.49951">
        <ele>47.37</ele>
        <time>2020-07-10T12:30:24Z</time>
      </trkpt>
      <trkpt lat="47.83148" lon="-3.49955">
        <ele>47.4</ele>
        <time>2020-07-10T12:30:25Z</time>
      </trkpt>
      <trkpt lat="47.83145" lon="-3.4996">
        <ele>47.35</ele>
        <time>2020-07-10T12:30:26Z</time>
      </trkpt>
      <trkpt lat="47.83142" lon="-3.49965">
        <ele>47.26</ele>
        <time>2020-07-10T12:30:27Z</time>
      </trkpt>
      <trkpt lat="47.83139" lon="-3.4997">
        <ele>47.15</ele>
        <time>2020-07-10T12:30:28Z</time>
      </trkpt>
      <trkpt lat="47.83135" lon="-3.49974">
        <ele>47.13</ele>
        <time>2020-07-10T12:30:29Z</time>
      </trkpt>
      <trkpt lat="47.83132" lon="-3.49977">
        <ele>47.2</ele>
        <time>2020-07-10T12:30:30Z</time>
      </trkpt>
      <trkpt lat="47.83129" lon="-3.4998">
        <ele>47.24</ele>
        <time>2020-07-10T12:30:31Z</time>
      </trkpt>
      <trkpt lat="47.83128" lon="-3.49981">
        <ele>47.27</ele>
        <time>2020-07-10T12:30:32Z</time>
      </trkpt>
      <trkpt lat="47.83127" lon="-3.49982">
        <ele>47.27</ele>
        <time>2020-07-10T12:30:33Z</time>
      </trkpt>
      <trkpt lat="47.83128" lon="-3.49981">
        <ele>47.27</ele>
        <time>2020-07-10T12:30:34Z</time>
      </trkpt>
      <trkpt lat="47.83128" lon="-3.49981">
        <ele>47.27</ele>
        <time>2020-07-10T12:30:35Z</time>
      </trkpt>
      <trkpt lat="47.83128" lon="-3.49981">
        <ele>47.28</ele>
        <time>2020-07-10T12:30:36Z</time>
      </trkpt>
      <trkpt lat="47.83128" lon="-3.49981">
        <ele>47.28</ele>
        <time>2020-07-10T12:30:37Z</time>
      </trkpt>
      <trkpt lat="47.83128" lon="-3.49981">
        <ele>47.28</ele>
        <time>2020-07-10T12:30:38Z</time>
      </trkpt>
      <trkpt lat="47.83128" lon="-3.49981">
        <ele>47.28</ele>
        <time>2020-07-10T12:30:39Z</time>
      </trkpt>
      <trkpt lat="47.83128" lon="-3.49981">
        <ele>47.28</ele>
        <time>2020-07-10T12:30:40Z</time>
      </trkpt>
      <trkpt lat="47.83128" lon="-3.49981">
        <ele>47.28</ele>
        <time>2020-07-10T12:30:41Z</time>
      </trkpt>
      <trkpt lat="47.83128" lon="-3.49981">
        <ele>47.28</ele>
        <time>2020-07-10T12:30:42Z</time>
      </trkpt>
      <trkpt lat="47.83128" lon="-3.49981">
        <ele>47.28</ele>
        <time>2020-07-10T12:30:43Z</time>
      </trkpt>
      <trkpt lat="47.83128" lon="-3.49981">
        <ele>47.28</ele>
        <time>2020-07-10T12:30:44Z</time>
      </trkpt>
      <trkpt lat="47.83128" lon="-3.49981">
        <ele>47.28</ele>
        <time>2020-07-10T12:30:45Z</time>
      </trkpt>
      <trkpt lat="47.83128" lon="-3.49981">
        <ele>47.28</ele>
        <time>2020-07-10T12:30:46Z</time>
      </trkpt>
      <trkpt lat="47.83128" lon="-3.49981">
        <ele>47.28</ele>
        <time>2020-07-10T12:30:47Z</time>
      </trkpt>
      <trkpt lat="47.83128" lon="-3.49981">
        <ele>47.28</ele>
        <time>2020-07-10T12:30:48Z</time>
      </trkpt>
      <trkpt lat="47.83128" lon="-3.49981">
        <ele>47.28</ele>
        <time>2020-07-10T12:30:49Z</time>
      </trkpt>
      <trkpt lat="47.83128" lon="-3.49981">
        <ele>47.28</ele>
        <time>2020-07-10T12:30:50Z</time>
      </trkpt>
      <trkpt lat="47.83128" lon="-3.49981">
        <ele>47.28</ele>
        <time>2020-07-10T12:30:51Z</time>
      </trkpt>
      <trkpt lat="47.83128" lon="-3.49981">
        <ele>47.28</ele>
        <time>2020-07-10T12:30:52Z</time>
      </trkpt>
      <trkpt lat="47.83128" lon="-3.49981">
        <ele>47.28</ele>
        <time>2020-07-10T12:30:53Z</time>
      </trkpt>
      <trkpt lat="47.83128" lon="-3.49981">
        <ele>47.28</ele>
        <time>2020-07-10T12:30:54Z</time>
      </trkpt>
      <trkpt lat="47.83128" lon="-3.49981">
        <ele>47.28</ele>
        <time>2020-07-10T12:30:55Z</time>
      </trkpt>
      <trkpt lat="47.83128" lon="-3.49981">
        <ele>47.28</ele>
        <time>2020-07-10T12:30:56Z</time>
      </trkpt>
      <trkpt lat="47.83128" lon="-3.49981">
        <ele>47.28</ele>
        <time>2020-07-10T12:30:57Z</time>
      </trkpt>
      <trkpt lat="47.83128" lon="-3.49981">
        <ele>47.28</ele>
        <time>2020-07-10T12:30:58Z</time>
      </trkpt>
      <trkpt lat="47.83128" lon="-3.49981">
        <ele>47.28</ele>
        <time>2020-07-10T12:30:59Z</time>
      </trkpt>
      <trkpt lat="47.83128" lon="-3.49981">
        <ele>47.28</ele>
        <time>2020-07-10T12:31:00Z</time>
      </trkpt>
      <trkpt lat="47.83128" lon="-3.49981">
        <ele>47.28</ele>
        <time>2020-07-10T12:31:01Z</time>
      </trkpt>
      <trkpt lat="47.83128" lon="-3.49981">
        <ele>47.28</ele>
        <time>2020-07-10T12:31:02Z</time>
      </trkpt>
      <trkpt lat="47.83128" lon="-3.49981">
        <ele>47.28</ele>
        <time>2020-07-10T12:31:03Z</time>
      </trkpt>
      <trkpt lat="47.83128" lon="-3.49981">
        <ele>47.28</ele>
        <time>2020-07-10T12:31:04Z</time>
      </trkpt>
      <trkpt lat="47.83128" lon="-3.49981">
        <ele>47.28</ele>
        <time>2020-07-10T12:31:05Z</time>
      </trkpt>
      <trkpt lat="47.83128" lon="-3.49981">
        <ele>47.28</ele>
        <time>2020-07-10T12:31:06Z</time>
      </trkpt>
      <trkpt lat="47.83128" lon="-3.49981">
        <ele>47.28</ele>
        <time>2020-07-10T12:31:07Z</time>
      </trkpt>
      <trkpt lat="47.83128" lon="-3.49981">
        <ele>47.28</ele>
        <time>2020-07-10T12:31:08Z</time>
      </trkpt>
      <trkpt lat="47.83128" lon="-3.49981">
        <ele>47.28</ele>
        <time>2020-07-10T12:31:09Z</time>
      </trkpt>
      <trkpt lat="47.83128" lon="-3.49981">
        <ele>47.28</ele>
        <time>2020-07-10T12:31:10Z</time>
      </trkpt>
      <trkpt lat="47.83128" lon="-3.49981">
        <ele>47.28</ele>
        <time>2020-07-10T12:31:11Z</time>
      </trkpt>
      <trkpt lat="47.83128" lon="-3.49981">
        <ele>47.28</ele>
        <time>2020-07-10T12:31:12Z</time>
      </trkpt>
      <trkpt lat="47.83128" lon="-3.49981">
        <ele>47.28</ele>
        <time>2020-07-10T12:31:13Z</time>
      </trkpt>
      <trkpt lat="47.83128" lon="-3.49981">
        <ele>47.28</ele>
        <time>2020-07-10T12:31:14Z</time>
      </trkpt>
      <trkpt lat="47.83128" lon="-3.49981">
        <ele>47.28</ele>
        <time>2020-07-10T12:31:15Z</time>
      </trkpt>
      <trkpt lat="47.83128" lon="-3.49981">
        <ele>47.28</ele>
        <time>2020-07-10T12:31:16Z</time>
      </trkpt>
      <trkpt lat="47.83128" lon="-3.49981">
        <ele>47.28</ele>
        <time>2020-07-10T12:31:17Z</time>
      </trkpt>
      <trkpt lat="47.83128" lon="-3.49981">
        <ele>47.28</ele>
        <time>2020-07-10T12:31:18Z</time>
      </trkpt>
      <trkpt lat="47.83128" lon="-3.49981">
        <ele>47.28</ele>
        <time>2020-07-10T12:31:19Z</time>
      </trkpt>
      <trkpt lat="47.83128" lon="-3.49981">
        <ele>47.28</ele>
        <time>2020-07-10T12:31:20Z</time>
      </trkpt>
      <trkpt lat="47.83128" lon="-3.49981">
        <ele>47.28</ele>
        <time>2020-07-10T12:31:21Z</time>
      </trkpt>
      <trkpt lat="47.83128" lon="-3.49981">
        <ele>47.28</ele>
        <time>2020-07-10T12:31:22Z</time>
      </trkpt>
      <trkpt lat="47.83128" lon="-3.49981">
        <ele>47.28</ele>
        <time>2020-07-10T12:31:23Z</time>
      </trkpt>
      <trkpt lat="47.83128" lon="-3.49981">
        <ele>47.28</ele>
        <time>2020-07-10T12:31:24Z</time>
      </trkpt>
      <trkpt lat="47.83128" lon="-3.49981">
        <ele>47.28</ele>
        <time>2020-07-10T12:31:25Z</time>
      </trkpt>
      <trkpt lat="47.83128" lon="-3.49981">
        <ele>47.28</ele>
        <time>2020-07-10T12:31:26Z</time>
      </trkpt>
      <trkpt lat="47.83128" lon="-3.49981">
        <ele>47.28</ele>
        <time>2020-07-10T12:31:27Z</time>
      </trkpt>
      <trkpt lat="47.83128" lon="-3.49981">
        <ele>47.28</ele>
        <time>2020-07-10T12:31:28Z</time>
      </trkpt>
      <trkpt lat="47.83128" lon="-3.49981">
        <ele>47.28</ele>
        <time>2020-07-10T12:31:29Z</time>
      </trkpt>
      <trkpt lat="47.83128" lon="-3.49981">
        <ele>47.28</ele>
        <time>2020-07-10T12:31:30Z</time>
      </trkpt>
      <trkpt lat="47.83128" lon="-3.49981">
        <ele>47.28</ele>
        <time>2020-07-10T12:31:31Z</time>
      </trkpt>
      <trkpt lat="47.83128" lon="-3.49981">
        <ele>47.28</ele>
        <time>2020-07-10T12:31:32Z</time>
      </trkpt>
      <trkpt lat="47.83128" lon="-3.49981">
        <ele>47.28</ele>
        <time>2020-07-10T12:31:33Z</time>
      </trkpt>
      <trkpt lat="47.83128" lon="-3.49981">
        <ele>47.28</ele>
        <time>2020-07-10T12:31:34Z</time>
      </trkpt>
      <trkpt lat="47.83128" lon="-3.49981">
        <ele>47.28</ele>
        <time>2020-07-10T12:31:35Z</time>
      </trkpt>
      <trkpt lat="47.83128" lon="-3.49981">
        <ele>47.28</ele>
        <time>2020-07-10T12:31:36Z</time>
      </trkpt>
      <trkpt lat="47.83128" lon="-3.49981">
        <ele>47.28</ele>
        <time>2020-07-10T12:31:37Z</time>
      </trkpt>
      <trkpt lat="47.83128" lon="-3.49981">
        <ele>47.28</ele>
        <time>2020-07-10T12:31:38Z</time>
      </trkpt>
      <trkpt lat="47.83128" lon="-3.49981">
        <ele>47.28</ele>
        <time>2020-07-10T12:31:39Z</time>
      </trkpt>
      <trkpt lat="47.83128" lon="-3.49981">
        <ele>47.28</ele>
        <time>2020-07-10T12:31:40Z</time>
      </trkpt>
      <trkpt lat="47.83128" lon="-3.49981">
        <ele>47.28</ele>
        <time>2020-07-10T12:31:41Z</time>
      </trkpt>
      <trkpt lat="47.83128" lon="-3.49981">
        <ele>47.28</ele>
        <time>2020-07-10T12:31:42Z</time>
      </trkpt>
      <trkpt lat="47.83128" lon="-3.49981">
        <ele>47.28</ele>
        <time>2020-07-10T12:31:43Z</time>
      </trkpt>
      <trkpt lat="47.83128" lon="-3.49981">
        <ele>47.28</ele>
        <time>2020-07-10T12:31:44Z</time>
      </trkpt>
      <trkpt lat="47.83128" lon="-3.49981">
        <ele>47.28</ele>
        <time>2020-07-10T12:31:45Z</time>
      </trkpt>
      <trkpt lat="47.83128" lon="-3.49981">
        <ele>47.28</ele>
        <time>2020-07-10T12:31:46Z</time>
      </trkpt>
      <trkpt lat="47.83128" lon="-3.49981">
        <ele>47.28</ele>
        <time>2020-07-10T12:31:47Z</time>
      </trkpt>
      <trkpt lat="47.83128" lon="-3.49981">
        <ele>47.28</ele>
        <time>2020-07-10T12:31:48Z</time>
      </trkpt>
      <trkpt lat="47.83128" lon="-3.49981">
        <ele>47.28</ele>
        <time>2020-07-10T12:31:49Z</time>
      </trkpt>
      <trkpt lat="47.83128" lon="-3.49981">
        <ele>47.28</ele>
        <time>2020-07-10T12:31:50Z</time>
      </trkpt>
      <trkpt lat="47.83128" lon="-3.49981">
        <ele>47.28</ele>
        <time>2020-07-10T12:31:51Z</time>
      </trkpt>
      <trkpt lat="47.83128" lon="-3.49981">
        <ele>47.28</ele>
        <time>2020-07-10T12:31:52Z</time>
      </trkpt>
      <trkpt lat="47.83128" lon="-3.49981">
        <ele>47.28</ele>
        <time>2020-07-10T12:31:53Z</time>
      </trkpt>
      <trkpt lat="47.83128" lon="-3.49981">
        <ele>47.28</ele>
        <time>2020-07-10T12:31:54Z</time>
      </trkpt>
      <trkpt lat="47.83128" lon="-3.49981">
        <ele>47.28</ele>
        <time>2020-07-10T12:31:55Z</time>
      </trkpt>
      <trkpt lat="47.83128" lon="-3.49981">
        <ele>47.28</ele>
        <time>2020-07-10T12:31:56Z</time>
      </trkpt>
      <trkpt lat="47.83128" lon="-3.49981">
        <ele>47.28</ele>
        <time>2020-07-10T12:31:57Z</time>
      </trkpt>
      <trkpt lat="47.83128" lon="-3.49981">
        <ele>47.28</ele>
        <time>2020-07-10T12:31:58Z</time>
      </trkpt>
      <trkpt lat="47.83128" lon="-3.49981">
        <ele>47.28</ele>
        <time>2020-07-10T12:31:59Z</time>
      </trkpt>
      <trkpt lat="47.83128" lon="-3.49981">
        <ele>47.28</ele>
        <time>2020-07-10T12:32:00Z</time>
      </trkpt>
      <trkpt lat="47.83128" lon="-3.49981">
        <ele>47.28</ele>
        <time>2020-07-10T12:32:01Z</time>
      </trkpt>
      <trkpt lat="47.83128" lon="-3.49981">
        <ele>47.28</ele>
        <time>2020-07-10T12:32:02Z</time>
      </trkpt>
      <trkpt lat="47.83128" lon="-3.49981">
        <ele>47.28</ele>
        <time>2020-07-10T12:32:03Z</time>
      </trkpt>
      <trkpt lat="47.83128" lon="-3.49981">
        <ele>47.28</ele>
        <time>2020-07-10T12:32:04Z</time>
      </trkpt>
      <trkpt lat="47.83128" lon="-3.49981">
        <ele>47.28</ele>
        <time>2020-07-10T12:32:05Z</time>
      </trkpt>
      <trkpt lat="47.83128" lon="-3.49981">
        <ele>47.28</ele>
        <time>2020-07-10T12:32:06Z</time>
      </trkpt>
      <trkpt lat="47.83128" lon="-3.49981">
        <ele>47.28</ele>
        <time>2020-07-10T12:32:07Z</time>
      </trkpt>
      <trkpt lat="47.83128" lon="-3.49981">
        <ele>47.28</ele>
        <time>2020-07-10T12:32:08Z</time>
      </trkpt>
      <trkpt lat="47.83128" lon="-3.49981">
        <ele>47.28</ele>
        <time>2020-07-10T12:32:09Z</time>
      </trkpt>
      <trkpt lat="47.83128" lon="-3.49981">
        <ele>47.28</ele>
        <time>2020-07-10T12:32:10Z</time>
      </trkpt>
      <trkpt lat="47.83128" lon="-3.49981">
        <ele>47.28</ele>
        <time>2020-07-10T12:32:11Z</time>
      </trkpt>
      <trkpt lat="47.83128" lon="-3.49981">
        <ele>47.28</ele>
        <time>2020-07-10T12:32:12Z</time>
      </trkpt>
      <trkpt lat="47.83128" lon="-3.49981">
        <ele>47.28</ele>
        <time>2020-07-10T12:32:13Z</time>
      </trkpt>
      <trkpt lat="47.83128" lon="-3.49981">
        <ele>47.28</ele>
        <time>2020-07-10T12:32:14Z</time>
      </trkpt>
      <trkpt lat="47.83128" lon="-3.49981">
        <ele>47.28</ele>
        <time>2020-07-10T12:32:15Z</time>
      </trkpt>
      <trkpt lat="47.83128" lon="-3.49981">
        <ele>47.28</ele>
        <time>2020-07-10T12:32:16Z</time>
      </trkpt>
      <trkpt lat="47.83128" lon="-3.49981">
        <ele>47.28</ele>
        <time>2020-07-10T12:32:17Z</time>
      </trkpt>
      <trkpt lat="47.83128" lon="-3.49981">
        <ele>47.28</ele>
        <time>2020-07-10T12:32:18Z</time>
      </trkpt>
      <trkpt lat="47.83128" lon="-3.49981">
        <ele>47.28</ele>
        <time>2020-07-10T12:32:19Z</time>
      </trkpt>
      <trkpt lat="47.83128" lon="-3.49981">
        <ele>47.28</ele>
        <time>2020-07-10T12:32:20Z</time>
      </trkpt>
      <trkpt lat="47.83128" lon="-3.49981">
        <ele>47.28</ele>
        <time>2020-07-10T12:32:21Z</time>
      </trkpt>
      <trkpt lat="47.83128" lon="-3.49981">
        <ele>47.28</ele>
        <time>2020-07-10T12:32:22Z</time>
      </trkpt>
      <trkpt lat="47.83128" lon="-3.49981">
        <ele>47.28</ele>
        <time>2020-07-10T12:32:23Z</time>
      </trkpt>
      <trkpt lat="47.83128" lon="-3.49981">
        <ele>47.28</ele>
        <time>2020-07-10T12:32:24Z</time>
      </trkpt>
      <trkpt lat="47.83128" lon="-3.49981">
        <ele>47.28</ele>
        <time>2020-07-10T12:32:25Z</time>
      </trkpt>
      <trkpt lat="47.83128" lon="-3.49981">
        <ele>47.28</ele>
        <time>2020-07-10T12:32:26Z</time>
      </trkpt>
      <trkpt lat="47.83128" lon="-3.49981">
        <ele>47.28</ele>
        <time>2020-07-10T12:32:27Z</time>
      </trkpt>
      <trkpt lat="47.83128" lon="-3.49981">
        <ele>47.28</ele>
        <time>2020-07-10T12:32:28Z</time>
      </trkpt>
      <trkpt lat="47.83128" lon="-3.49981">
        <ele>47.28</ele>
        <time>2020-07-10T12:32:29Z</time>
      </trkpt>
      <trkpt lat="47.83128" lon="-3.49981">
        <ele>47.28</ele>
        <time>2020-07-10T12:32:30Z</time>
      </trkpt>
      <trkpt lat="47.83128" lon="-3.49981">
        <ele>47.28</ele>
        <time>2020-07-10T12:32:31Z</time>
      </trkpt>
      <trkpt lat="47.83128" lon="-3.49981">
        <ele>47.28</ele>
        <time>2020-07-10T12:32:32Z</time>
      </trkpt>
      <trkpt lat="47.83128" lon="-3.49981">
        <ele>47.28</ele>
        <time>2020-07-10T12:32:33Z</time>
      </trkpt>
      <trkpt lat="47.83128" lon="-3.49981">
        <ele>47.28</ele>
        <time>2020-07-10T12:32:34Z</time>
      </trkpt>
      <trkpt lat="47.83128" lon="-3.49981">
        <ele>47.28</ele>
        <time>2020-07-10T12:32:35Z</time>
      </trkpt>
      <trkpt lat="47.83128" lon="-3.49981">
        <ele>47.28</ele>
        <time>2020-07-10T12:32:36Z</time>
      </trkpt>
      <trkpt lat="47.83128" lon="-3.49981">
        <ele>47.28</ele>
        <time>2020-07-10T12:32:37Z</time>
      </trkpt>
      <trkpt lat="47.83124" lon="-3.4998">
        <ele>47.34</ele>
        <time>2020-07-10T12:32:38Z</time>
      </trkpt>
      <trkpt lat="47.83124" lon="-3.49984">
        <ele>47.33</ele>
        <time>2020-07-10T12:32:39Z</time>
      </trkpt>
      <trkpt lat="47.83123" lon="-3.49988">
        <ele>47.27</ele>
        <time>2020-07-10T12:32:40Z</time>
      </trkpt>
      <trkpt lat="47.83122" lon="-3.49992">
        <ele>47.21</ele>
        <time>2020-07-10T12:32:41Z</time>
      </trkpt>
      <trkpt lat="47.8312" lon="-3.49996">
        <ele>47.13</ele>
        <time>2020-07-10T12:32:42Z</time>
      </trkpt>
      <trkpt lat="47.83118" lon="-3.5">
        <ele>47.03</ele>
        <time>2020-07-10T12:32:43Z</time>
      </trkpt>
      <trkpt lat="47.83116" lon="-3.50004">
        <ele>46.9</ele>
        <time>2020-07-10T12:32:44Z</time>
      </trkpt>
      <trkpt lat="47.83113" lon="-3.50008">
        <ele>46.76</ele>
        <time>2020-07-10T12:32:45Z</time>
      </trkpt>
      <trkpt lat="47.83111" lon="-3.50013">
        <ele>46.61</ele>
        <time>2020-07-10T12:32:46Z</time>
      </trkpt>
      <trkpt lat="47.83109" lon="-3.50016">
        <ele>46.48</ele>
        <time>2020-07-10T12:32:47Z</time>
      </trkpt>
      <trkpt lat="47.83107" lon="-3.5002">
        <ele>46.33</ele>
        <time>2020-07-10T12:32:48Z</time>
      </trkpt>
      <trkpt lat="47.83105" lon="-3.50024">
        <ele>46.2</ele>
        <time>2020-07-10T12:32:49Z</time>
      </trkpt>
      <trkpt lat="47.83103" lon="-3.50027">
        <ele>46.07</ele>
        <time>2020-07-10T12:32:50Z</time>
      </trkpt>
      <trkpt lat="47.83102" lon="-3.5003">
        <ele>46.02</ele>
        <time>2020-07-10T12:32:51Z</time>
      </trkpt>
      <trkpt lat="47.831" lon="-3.50034">
        <ele>46.01</ele>
        <time>2020-07-10T12:32:52Z</time>
      </trkpt>
      <trkpt lat="47.83099" lon="-3.50037">
        <ele>46</ele>
        <time>2020-07-10T12:32:53Z</time>
      </trkpt>
      <trkpt lat="47.83097" lon="-3.50039">
        <ele>46</ele>
        <time>2020-07-10T12:32:54Z</time>
      </trkpt>
      <trkpt lat="47.83096" lon="-3.50043">
        <ele>46</ele>
        <time>2020-07-10T12:32:55Z</time>
      </trkpt>
      <trkpt lat="47.83094" lon="-3.50046">
        <ele>46</ele>
        <time>2020-07-10T12:32:56Z</time>
      </trkpt>
      <trkpt lat="47.83092" lon="-3.50049">
        <ele>46</ele>
        <time>2020-07-10T12:32:57Z</time>
      </trkpt>
      <trkpt lat="47.83089" lon="-3.50053">
        <ele>46</ele>
        <time>2020-07-10T12:32:58Z</time>
      </trkpt>
      <trkpt lat="47.83087" lon="-3.50057">
        <ele>46</ele>
        <time>2020-07-10T12:32:59Z</time>
      </trkpt>
      <trkpt lat="47.83085" lon="-3.50061">
        <ele>45.99</ele>
        <time>2020-07-10T12:33:00Z</time>
      </trkpt>
      <trkpt lat="47.83084" lon="-3.50065">
        <ele>45.99</ele>
        <time>2020-07-10T12:33:01Z</time>
      </trkpt>
      <trkpt lat="47.83082" lon="-3.50068">
        <ele>46.02</ele>
        <time>2020-07-10T12:33:02Z</time>
      </trkpt>
      <trkpt lat="47.8308" lon="-3.50072">
        <ele>46.05</ele>
        <time>2020-07-10T12:33:03Z</time>
      </trkpt>
      <trkpt lat="47.83077" lon="-3.50076">
        <ele>46.05</ele>
        <time>2020-07-10T12:33:04Z</time>
      </trkpt>
      <trkpt lat="47.83075" lon="-3.5008">
        <ele>46.04</ele>
        <time>2020-07-10T12:33:05Z</time>
      </trkpt>
      <trkpt lat="47.83073" lon="-3.50084">
        <ele>46</ele>
        <time>2020-07-10T12:33:06Z</time>
      </trkpt>
      <trkpt lat="47.8307" lon="-3.50087">
        <ele>45.95</ele>
        <time>2020-07-10T12:33:07Z</time>
      </trkpt>
      <trkpt lat="47.83068" lon="-3.5009">
        <ele>45.91</ele>
        <time>2020-07-10T12:33:08Z</time>
      </trkpt>
      <trkpt lat="47.83066" lon="-3.50093">
        <ele>45.87</ele>
        <time>2020-07-10T12:33:09Z</time>
      </trkpt>
      <trkpt lat="47.83065" lon="-3.50097">
        <ele>45.85</ele>
        <time>2020-07-10T12:33:10Z</time>
      </trkpt>
      <trkpt lat="47.83063" lon="-3.501">
        <ele>45.85</ele>
        <time>2020-07-10T12:33:11Z</time>
      </trkpt>
      <trkpt lat="47.83061" lon="-3.50103">
        <ele>45.86</ele>
        <time>2020-07-10T12:33:12Z</time>
      </trkpt>
      <trkpt lat="47.83058" lon="-3.50106">
        <ele>45.9</ele>
        <time>2020-07-10T12:33:13Z</time>
      </trkpt>
      <trkpt lat="47.83056" lon="-3.5011">
        <ele>45.96</ele>
        <time>2020-07-10T12:33:14Z</time>
      </trkpt>
      <trkpt lat="47.83053" lon="-3.50115">
        <ele>46.14</ele>
        <time>2020-07-10T12:33:15Z</time>
      </trkpt>
      <trkpt lat="47.83051" lon="-3.5012">
        <ele>46.34</ele>
        <time>2020-07-10T12:33:16Z</time>
      </trkpt>
      <trkpt lat="47.83048" lon="-3.50125">
        <ele>46.54</ele>
        <time>2020-07-10T12:33:17Z</time>
      </trkpt>
      <trkpt lat="47.83046" lon="-3.50129">
        <ele>46.7</ele>
        <time>2020-07-10T12:33:18Z</time>
      </trkpt>
      <trkpt lat="47.83043" lon="-3.50135">
        <ele>46.86</ele>
        <time>2020-07-10T12:33:19Z</time>
      </trkpt>
      <trkpt lat="47.83041" lon="-3.5014">
        <ele>46.99</ele>
        <time>2020-07-10T12:33:20Z</time>
      </trkpt>
      <trkpt lat="47.83039" lon="-3.50146">
        <ele>47.17</ele>
        <time>2020-07-10T12:33:21Z</time>
      </trkpt>
      <trkpt lat="47.83037" lon="-3.50151">
        <ele>47.36</ele>
        <time>2020-07-10T12:33:22Z</time>
      </trkpt>
      <trkpt lat="47.83035" lon="-3.50156">
        <ele>47.53</ele>
        <time>2020-07-10T12:33:23Z</time>
      </trkpt>
      <trkpt lat="47.83033" lon="-3.50161">
        <ele>47.7</ele>
        <time>2020-07-10T12:33:24Z</time>
      </trkpt>
      <trkpt lat="47.83031" lon="-3.50165">
        <ele>47.87</ele>
        <time>2020-07-10T12:33:25Z</time>
      </trkpt>
      <trkpt lat="47.8303" lon="-3.50169">
        <ele>48.09</ele>
        <time>2020-07-10T12:33:26Z</time>
      </trkpt>
      <trkpt lat="47.83029" lon="-3.50174">
        <ele>48.4</ele>
        <time>2020-07-10T12:33:27Z</time>
      </trkpt>
      <trkpt lat="47.83028" lon="-3.50179">
        <ele>48.73</ele>
        <time>2020-07-10T12:33:28Z</time>
      </trkpt>
      <trkpt lat="47.83028" lon="-3.50184">
        <ele>49.08</ele>
        <time>2020-07-10T12:33:29Z</time>
      </trkpt>
      <trkpt lat="47.83027" lon="-3.50188">
        <ele>49.42</ele>
        <time>2020-07-10T12:33:30Z</time>
      </trkpt>
      <trkpt lat="47.83027" lon="-3.50194">
        <ele>49.8</ele>
        <time>2020-07-10T12:33:31Z</time>
      </trkpt>
      <trkpt lat="47.83026" lon="-3.50198">
        <ele>50.02</ele>
        <time>2020-07-10T12:33:32Z</time>
      </trkpt>
      <trkpt lat="47.83027" lon="-3.50201">
        <ele>50.16</ele>
        <time>2020-07-10T12:33:33Z</time>
      </trkpt>
      <trkpt lat="47.83027" lon="-3.50202">
        <ele>50.23</ele>
        <time>2020-07-10T12:33:34Z</time>
      </trkpt>
      <trkpt lat="47.83027" lon="-3.50202">
        <ele>50.25</ele>
        <time>2020-07-10T12:33:35Z</time>
      </trkpt>
      <trkpt lat="47.83027" lon="-3.50202">
        <ele>50.26</ele>
        <time>2020-07-10T12:33:36Z</time>
      </trkpt>
      <trkpt lat="47.83027" lon="-3.50202">
        <ele>50.26</ele>
        <time>2020-07-10T12:33:37Z</time>
      </trkpt>
      <trkpt lat="47.83027" lon="-3.50202">
        <ele>50.26</ele>
        <time>2020-07-10T12:33:38Z</time>
      </trkpt>
      <trkpt lat="47.83027" lon="-3.50202">
        <ele>50.26</ele>
        <time>2020-07-10T12:33:39Z</time>
      </trkpt>
      <trkpt lat="47.83027" lon="-3.50202">
        <ele>50.26</ele>
        <time>2020-07-10T12:33:40Z</time>
      </trkpt>
      <trkpt lat="47.83027" lon="-3.50202">
        <ele>50.26</ele>
        <time>2020-07-10T12:33:41Z</time>
      </trkpt>
      <trkpt lat="47.83027" lon="-3.50202">
        <ele>50.26</ele>
        <time>2020-07-10T12:33:42Z</time>
      </trkpt>
      <trkpt lat="47.83027" lon="-3.50202">
        <ele>50.26</ele>
        <time>2020-07-10T12:33:43Z</time>
      </trkpt>
      <trkpt lat="47.83027" lon="-3.50202">
        <ele>50.26</ele>
        <time>2020-07-10T12:33:44Z</time>
      </trkpt>
      <trkpt lat="47.83026" lon="-3.50207">
        <ele>50.38</ele>
        <time>2020-07-10T12:33:45Z</time>
      </trkpt>
      <trkpt lat="47.83025" lon="-3.50209">
        <ele>50.49</ele>
        <time>2020-07-10T12:33:46Z</time>
      </trkpt>
      <trkpt lat="47.83024" lon="-3.50212">
        <ele>50.58</ele>
        <time>2020-07-10T12:33:47Z</time>
      </trkpt>
      <trkpt lat="47.83023" lon="-3.50215">
        <ele>50.68</ele>
        <time>2020-07-10T12:33:48Z</time>
      </trkpt>
      <trkpt lat="47.83022" lon="-3.50218">
        <ele>50.8</ele>
        <time>2020-07-10T12:33:49Z</time>
      </trkpt>
      <trkpt lat="47.83021" lon="-3.50221">
        <ele>50.92</ele>
        <time>2020-07-10T12:33:50Z</time>
      </trkpt>
      <trkpt lat="47.8302" lon="-3.50225">
        <ele>51.09</ele>
        <time>2020-07-10T12:33:51Z</time>
      </trkpt>
      <trkpt lat="47.83019" lon="-3.50228">
        <ele>51.28</ele>
        <time>2020-07-10T12:33:52Z</time>
      </trkpt>
      <trkpt lat="47.83018" lon="-3.50232">
        <ele>51.49</ele>
        <time>2020-07-10T12:33:53Z</time>
      </trkpt>
      <trkpt lat="47.83017" lon="-3.50235">
        <ele>51.65</ele>
        <time>2020-07-10T12:33:54Z</time>
      </trkpt>
      <trkpt lat="47.83014" lon="-3.50237">
        <ele>51.76</ele>
        <time>2020-07-10T12:33:55Z</time>
      </trkpt>
      <trkpt lat="47.83012" lon="-3.50238">
        <ele>51.81</ele>
        <time>2020-07-10T12:33:56Z</time>
      </trkpt>
      <trkpt lat="47.8301" lon="-3.50238">
        <ele>51.79</ele>
        <time>2020-07-10T12:33:57Z</time>
      </trkpt>
      <trkpt lat="47.83008" lon="-3.50239">
        <ele>51.77</ele>
        <time>2020-07-10T12:33:58Z</time>
      </trkpt>
      <trkpt lat="47.83006" lon="-3.50238">
        <ele>51.72</ele>
        <time>2020-07-10T12:33:59Z</time>
      </trkpt>
      <trkpt lat="47.83003" lon="-3.50238">
        <ele>51.66</ele>
        <time>2020-07-10T12:34:00Z</time>
      </trkpt>
      <trkpt lat="47.83" lon="-3.50238">
        <ele>51.59</ele>
        <time>2020-07-10T12:34:01Z</time>
      </trkpt>
      <trkpt lat="47.82997" lon="-3.50237">
        <ele>51.55</ele>
        <time>2020-07-10T12:34:02Z</time>
      </trkpt>
      <trkpt lat="47.82994" lon="-3.50236">
        <ele>51.5</ele>
        <time>2020-07-10T12:34:03Z</time>
      </trkpt>
      <trkpt lat="47.8299" lon="-3.50235">
        <ele>51.46</ele>
        <time>2020-07-10T12:34:04Z</time>
      </trkpt>
      <trkpt lat="47.82986" lon="-3.50234">
        <ele>51.44</ele>
        <time>2020-07-10T12:34:05Z</time>
      </trkpt>
      <trkpt lat="47.82981" lon="-3.50234">
        <ele>51.44</ele>
        <time>2020-07-10T12:34:06Z</time>
      </trkpt>
      <trkpt lat="47.82977" lon="-3.50234">
        <ele>51.42</ele>
        <time>2020-07-10T12:34:07Z</time>
      </trkpt>
      <trkpt lat="47.82972" lon="-3.50233">
        <ele>51.4</ele>
        <time>2020-07-10T12:34:08Z</time>
      </trkpt>
      <trkpt lat="47.82967" lon="-3.50232">
        <ele>51.45</ele>
        <time>2020-07-10T12:34:09Z</time>
      </trkpt>
      <trkpt lat="47.82962" lon="-3.5023">
        <ele>51.52</ele>
        <time>2020-07-10T12:34:10Z</time>
      </trkpt>
      <trkpt lat="47.82957" lon="-3.50228">
        <ele>51.61</ele>
        <time>2020-07-10T12:34:11Z</time>
      </trkpt>
      <trkpt lat="47.82952" lon="-3.50227">
        <ele>51.73</ele>
        <time>2020-07-10T12:34:12Z</time>
      </trkpt>
      <trkpt lat="47.82947" lon="-3.50226">
        <ele>51.87</ele>
        <time>2020-07-10T12:34:13Z</time>
      </trkpt>
      <trkpt lat="47.82942" lon="-3.50224">
        <ele>51.9</ele>
        <time>2020-07-10T12:34:14Z</time>
      </trkpt>
      <trkpt lat="47.82936" lon="-3.50223">
        <ele>51.77</ele>
        <time>2020-07-10T12:34:15Z</time>
      </trkpt>
      <trkpt lat="47.82931" lon="-3.50221">
        <ele>51.57</ele>
        <time>2020-07-10T12:34:16Z</time>
      </trkpt>
      <trkpt lat="47.82926" lon="-3.5022">
        <ele>51.34</ele>
        <time>2020-07-10T12:34:17Z</time>
      </trkpt>
      <trkpt lat="47.8292" lon="-3.50219">
        <ele>51.11</ele>
        <time>2020-07-10T12:34:18Z</time>
      </trkpt>
      <trkpt lat="47.82914" lon="-3.50217">
        <ele>50.86</ele>
        <time>2020-07-10T12:34:19Z</time>
      </trkpt>
      <trkpt lat="47.82909" lon="-3.50217">
        <ele>50.66</ele>
        <time>2020-07-10T12:34:20Z</time>
      </trkpt>
      <trkpt lat="47.82904" lon="-3.50216">
        <ele>50.49</ele>
        <time>2020-07-10T12:34:21Z</time>
      </trkpt>
      <trkpt lat="47.82899" lon="-3.50214">
        <ele>50.33</ele>
        <time>2020-07-10T12:34:22Z</time>
      </trkpt>
      <trkpt lat="47.82894" lon="-3.50213">
        <ele>50.18</ele>
        <time>2020-07-10T12:34:23Z</time>
      </trkpt>
      <trkpt lat="47.82889" lon="-3.50211">
        <ele>50.04</ele>
        <time>2020-07-10T12:34:24Z</time>
      </trkpt>
      <trkpt lat="47.82883" lon="-3.5021">
        <ele>49.82</ele>
        <time>2020-07-10T12:34:25Z</time>
      </trkpt>
      <trkpt lat="47.82878" lon="-3.50209">
        <ele>49.55</ele>
        <time>2020-07-10T12:34:26Z</time>
      </trkpt>
      <trkpt lat="47.82873" lon="-3.50208">
        <ele>49.24</ele>
        <time>2020-07-10T12:34:27Z</time>
      </trkpt>
      <trkpt lat="47.82867" lon="-3.50206">
        <ele>48.92</ele>
        <time>2020-07-10T12:34:28Z</time>
      </trkpt>
      <trkpt lat="47.82862" lon="-3.50204">
        <ele>48.57</ele>
        <time>2020-07-10T12:34:29Z</time>
      </trkpt>
      <trkpt lat="47.82857" lon="-3.50203">
        <ele>48.28</ele>
        <time>2020-07-10T12:34:30Z</time>
      </trkpt>
      <trkpt lat="47.82851" lon="-3.50201">
        <ele>48</ele>
        <time>2020-07-10T12:34:31Z</time>
      </trkpt>
      <trkpt lat="47.82845" lon="-3.502">
        <ele>47.73</ele>
        <time>2020-07-10T12:34:32Z</time>
      </trkpt>
      <trkpt lat="47.82839" lon="-3.50197">
        <ele>47.44</ele>
        <time>2020-07-10T12:34:33Z</time>
      </trkpt>
      <trkpt lat="47.82833" lon="-3.50196">
        <ele>47.16</ele>
        <time>2020-07-10T12:34:34Z</time>
      </trkpt>
      <trkpt lat="47.82827" lon="-3.50194">
        <ele>47.05</ele>
        <time>2020-07-10T12:34:35Z</time>
      </trkpt>
      <trkpt lat="47.82822" lon="-3.50194">
        <ele>47.01</ele>
        <time>2020-07-10T12:34:36Z</time>
      </trkpt>
      <trkpt lat="47.82816" lon="-3.50193">
        <ele>46.97</ele>
        <time>2020-07-10T12:34:37Z</time>
      </trkpt>
      <trkpt lat="47.8281" lon="-3.50191">
        <ele>46.93</ele>
        <time>2020-07-10T12:34:38Z</time>
      </trkpt>
      <trkpt lat="47.82804" lon="-3.50191">
        <ele>46.86</ele>
        <time>2020-07-10T12:34:39Z</time>
      </trkpt>
      <trkpt lat="47.82798" lon="-3.5019">
        <ele>46.69</ele>
        <time>2020-07-10T12:34:40Z</time>
      </trkpt>
      <trkpt lat="47.82793" lon="-3.50188">
        <ele>46.5</ele>
        <time>2020-07-10T12:34:41Z</time>
      </trkpt>
      <trkpt lat="47.82787" lon="-3.50186">
        <ele>46.31</ele>
        <time>2020-07-10T12:34:42Z</time>
      </trkpt>
      <trkpt lat="47.82781" lon="-3.50185">
        <ele>46.15</ele>
        <time>2020-07-10T12:34:43Z</time>
      </trkpt>
      <trkpt lat="47.82775" lon="-3.50183">
        <ele>46.05</ele>
        <time>2020-07-10T12:34:44Z</time>
      </trkpt>
      <trkpt lat="47.8277" lon="-3.50182">
        <ele>46.01</ele>
        <time>2020-07-10T12:34:45Z</time>
      </trkpt>
      <trkpt lat="47.82764" lon="-3.5018">
        <ele>46</ele>
        <time>2020-07-10T12:34:46Z</time>
      </trkpt>
      <trkpt lat="47.82758" lon="-3.50179">
        <ele>46</ele>
        <time>2020-07-10T12:34:47Z</time>
      </trkpt>
      <trkpt lat="47.82752" lon="-3.50177">
        <ele>46</ele>
        <time>2020-07-10T12:34:48Z</time>
      </trkpt>
      <trkpt lat="47.82746" lon="-3.50176">
        <ele>46</ele>
        <time>2020-07-10T12:34:49Z</time>
      </trkpt>
      <trkpt lat="47.8274" lon="-3.50175">
        <ele>46</ele>
        <time>2020-07-10T12:34:50Z</time>
      </trkpt>
      <trkpt lat="47.82734" lon="-3.50174">
        <ele>46</ele>
        <time>2020-07-10T12:34:51Z</time>
      </trkpt>
      <trkpt lat="47.82728" lon="-3.50174">
        <ele>46</ele>
        <time>2020-07-10T12:34:52Z</time>
      </trkpt>
      <trkpt lat="47.82722" lon="-3.50173">
        <ele>46</ele>
        <time>2020-07-10T12:34:53Z</time>
      </trkpt>
      <trkpt lat="47.82716" lon="-3.50173">
        <ele>46</ele>
        <time>2020-07-10T12:34:54Z</time>
      </trkpt>
      <trkpt lat="47.82711" lon="-3.50172">
        <ele>46</ele>
        <time>2020-07-10T12:34:55Z</time>
      </trkpt>
      <trkpt lat="47.82705" lon="-3.50171">
        <ele>46</ele>
        <time>2020-07-10T12:34:56Z</time>
      </trkpt>
      <trkpt lat="47.82699" lon="-3.5017">
        <ele>46</ele>
        <time>2020-07-10T12:34:57Z</time>
      </trkpt>
      <trkpt lat="47.82693" lon="-3.50169">
        <ele>45.97</ele>
        <time>2020-07-10T12:34:58Z</time>
      </trkpt>
      <trkpt lat="47.82688" lon="-3.50168">
        <ele>45.81</ele>
        <time>2020-07-10T12:34:59Z</time>
      </trkpt>
      <trkpt lat="47.82682" lon="-3.50166">
        <ele>45.63</ele>
        <time>2020-07-10T12:35:00Z</time>
      </trkpt>
      <trkpt lat="47.82676" lon="-3.50165">
        <ele>45.44</ele>
        <time>2020-07-10T12:35:01Z</time>
      </trkpt>
      <trkpt lat="47.82671" lon="-3.50164">
        <ele>45.24</ele>
        <time>2020-07-10T12:35:02Z</time>
      </trkpt>
      <trkpt lat="47.82666" lon="-3.50162">
        <ele>45.04</ele>
        <time>2020-07-10T12:35:03Z</time>
      </trkpt>
      <trkpt lat="47.82662" lon="-3.50161">
        <ele>44.79</ele>
        <time>2020-07-10T12:35:04Z</time>
      </trkpt>
      <trkpt lat="47.82659" lon="-3.50162">
        <ele>44.57</ele>
        <time>2020-07-10T12:35:05Z</time>
      </trkpt>
      <trkpt lat="47.82657" lon="-3.50165">
        <ele>44.42</ele>
        <time>2020-07-10T12:35:06Z</time>
      </trkpt>
      <trkpt lat="47.82658" lon="-3.50169">
        <ele>44.36</ele>
        <time>2020-07-10T12:35:07Z</time>
      </trkpt>
      <trkpt lat="47.8266" lon="-3.50174">
        <ele>44.33</ele>
        <time>2020-07-10T12:35:08Z</time>
      </trkpt>
      <trkpt lat="47.82662" lon="-3.50179">
        <ele>44.3</ele>
        <time>2020-07-10T12:35:09Z</time>
      </trkpt>
      <trkpt lat="47.82664" lon="-3.50184">
        <ele>44.26</ele>
        <time>2020-07-10T12:35:10Z</time>
      </trkpt>
      <trkpt lat="47.82666" lon="-3.5019">
        <ele>44.18</ele>
        <time>2020-07-10T12:35:11Z</time>
      </trkpt>
      <trkpt lat="47.82668" lon="-3.50195">
        <ele>44.13</ele>
        <time>2020-07-10T12:35:12Z</time>
      </trkpt>
      <trkpt lat="47.8267" lon="-3.50201">
        <ele>44.19</ele>
        <time>2020-07-10T12:35:13Z</time>
      </trkpt>
      <trkpt lat="47.82672" lon="-3.50207">
        <ele>44.27</ele>
        <time>2020-07-10T12:35:14Z</time>
      </trkpt>
      <trkpt lat="47.82673" lon="-3.50213">
        <ele>44.31</ele>
        <time>2020-07-10T12:35:15Z</time>
      </trkpt>
      <trkpt lat="47.82674" lon="-3.50218">
        <ele>44.32</ele>
        <time>2020-07-10T12:35:16Z</time>
      </trkpt>
      <trkpt lat="47.82676" lon="-3.50223">
        <ele>44.32</ele>
        <time>2020-07-10T12:35:17Z</time>
      </trkpt>
      <trkpt lat="47.82676" lon="-3.50228">
        <ele>44.34</ele>
        <time>2020-07-10T12:35:18Z</time>
      </trkpt>
      <trkpt lat="47.82677" lon="-3.50233">
        <ele>44.37</ele>
        <time>2020-07-10T12:35:19Z</time>
      </trkpt>
      <trkpt lat="47.82678" lon="-3.50238">
        <ele>44.39</ele>
        <time>2020-07-10T12:35:20Z</time>
      </trkpt>
      <trkpt lat="47.82679" lon="-3.50243">
        <ele>44.42</ele>
        <time>2020-07-10T12:35:21Z</time>
      </trkpt>
      <trkpt lat="47.82679" lon="-3.50246">
        <ele>44.44</ele>
        <time>2020-07-10T12:35:22Z</time>
      </trkpt>
      <trkpt lat="47.82679" lon="-3.50246">
        <ele>44.44</ele>
        <time>2020-07-10T12:35:23Z</time>
      </trkpt>
      <trkpt lat="47.82679" lon="-3.50246">
        <ele>44.44</ele>
        <time>2020-07-10T12:35:24Z</time>
      </trkpt>
      <trkpt lat="47.82679" lon="-3.50246">
        <ele>44.44</ele>
        <time>2020-07-10T12:35:25Z</time>
      </trkpt>
      <trkpt lat="47.82679" lon="-3.50246">
        <ele>44.44</ele>
        <time>2020-07-10T12:35:26Z</time>
      </trkpt>
      <trkpt lat="47.82679" lon="-3.50246">
        <ele>44.44</ele>
        <time>2020-07-10T12:35:27Z</time>
      </trkpt>
      <trkpt lat="47.82679" lon="-3.50246">
        <ele>44.44</ele>
        <time>2020-07-10T12:35:28Z</time>
      </trkpt>
      <trkpt lat="47.82679" lon="-3.50246">
        <ele>44.44</ele>
        <time>2020-07-10T12:35:29Z</time>
      </trkpt>
      <trkpt lat="47.82679" lon="-3.50246">
        <ele>44.44</ele>
        <time>2020-07-10T12:35:30Z</time>
      </trkpt>
      <trkpt lat="47.82679" lon="-3.50246">
        <ele>44.44</ele>
        <time>2020-07-10T12:35:31Z</time>
      </trkpt>
      <trkpt lat="47.82679" lon="-3.5025">
        <ele>44.45</ele>
        <time>2020-07-10T12:35:32Z</time>
      </trkpt>
      <trkpt lat="47.82679" lon="-3.50253">
        <ele>44.5</ele>
        <time>2020-07-10T12:35:33Z</time>
      </trkpt>
      <trkpt lat="47.82679" lon="-3.50258">
        <ele>44.57</ele>
        <time>2020-07-10T12:35:34Z</time>
      </trkpt>
      <trkpt lat="47.82679" lon="-3.50263">
        <ele>44.66</ele>
        <time>2020-07-10T12:35:35Z</time>
      </trkpt>
      <trkpt lat="47.8268" lon="-3.50268">
        <ele>44.77</ele>
        <time>2020-07-10T12:35:36Z</time>
      </trkpt>
      <trkpt lat="47.8268" lon="-3.50274">
        <ele>44.88</ele>
        <time>2020-07-10T12:35:37Z</time>
      </trkpt>
      <trkpt lat="47.8268" lon="-3.5028">
        <ele>45.02</ele>
        <time>2020-07-10T12:35:38Z</time>
      </trkpt>
      <trkpt lat="47.8268" lon="-3.50287">
        <ele>45.23</ele>
        <time>2020-07-10T12:35:39Z</time>
      </trkpt>
      <trkpt lat="47.8268" lon="-3.50293">
        <ele>45.45</ele>
        <time>2020-07-10T12:35:40Z</time>
      </trkpt>
      <trkpt lat="47.8268" lon="-3.50299">
        <ele>45.67</ele>
        <time>2020-07-10T12:35:41Z</time>
      </trkpt>
      <trkpt lat="47.82679" lon="-3.50305">
        <ele>45.9</ele>
        <time>2020-07-10T12:35:42Z</time>
      </trkpt>
      <trkpt lat="47.82679" lon="-3.50312">
        <ele>46.13</ele>
        <time>2020-07-10T12:35:43Z</time>
      </trkpt>
      <trkpt lat="47.82679" lon="-3.50318">
        <ele>46.37</ele>
        <time>2020-07-10T12:35:44Z</time>
      </trkpt>
      <trkpt lat="47.82678" lon="-3.50325">
        <ele>46.6</ele>
        <time>2020-07-10T12:35:45Z</time>
      </trkpt>
      <trkpt lat="47.82677" lon="-3.50332">
        <ele>46.84</ele>
        <time>2020-07-10T12:35:46Z</time>
      </trkpt>
      <trkpt lat="47.82677" lon="-3.50338">
        <ele>46.95</ele>
        <time>2020-07-10T12:35:47Z</time>
      </trkpt>
      <trkpt lat="47.82676" lon="-3.50345">
        <ele>46.99</ele>
        <time>2020-07-10T12:35:48Z</time>
      </trkpt>
      <trkpt lat="47.82675" lon="-3.50351">
        <ele>47</ele>
        <time>2020-07-10T12:35:49Z</time>
      </trkpt>
      <trkpt lat="47.82674" lon="-3.50358">
        <ele>47</ele>
        <time>2020-07-10T12:35:50Z</time>
      </trkpt>
      <trkpt lat="47.82673" lon="-3.50364">
        <ele>47.02</ele>
        <time>2020-07-10T12:35:51Z</time>
      </trkpt>
      <trkpt lat="47.82673" lon="-3.50371">
        <ele>47.06</ele>
        <time>2020-07-10T12:35:52Z</time>
      </trkpt>
      <trkpt lat="47.82672" lon="-3.50377">
        <ele>47.09</ele>
        <time>2020-07-10T12:35:53Z</time>
      </trkpt>
      <trkpt lat="47.82671" lon="-3.50384">
        <ele>47.11</ele>
        <time>2020-07-10T12:35:54Z</time>
      </trkpt>
      <trkpt lat="47.8267" lon="-3.5039">
        <ele>47.14</ele>
        <time>2020-07-10T12:35:55Z</time>
      </trkpt>
      <trkpt lat="47.82668" lon="-3.50397">
        <ele>47.27</ele>
        <time>2020-07-10T12:35:56Z</time>
      </trkpt>
      <trkpt lat="47.82667" lon="-3.50404">
        <ele>47.46</ele>
        <time>2020-07-10T12:35:57Z</time>
      </trkpt>
      <trkpt lat="47.82665" lon="-3.5041">
        <ele>47.65</ele>
        <time>2020-07-10T12:35:58Z</time>
      </trkpt>
      <trkpt lat="47.82664" lon="-3.50417">
        <ele>47.84</ele>
        <time>2020-07-10T12:35:59Z</time>
      </trkpt>
      <trkpt lat="47.82663" lon="-3.50423">
        <ele>47.86</ele>
        <time>2020-07-10T12:36:00Z</time>
      </trkpt>
      <trkpt lat="47.82662" lon="-3.50428">
        <ele>47.84</ele>
        <time>2020-07-10T12:36:01Z</time>
      </trkpt>
      <trkpt lat="47.82661" lon="-3.50434">
        <ele>47.81</ele>
        <time>2020-07-10T12:36:02Z</time>
      </trkpt>
      <trkpt lat="47.82661" lon="-3.5044">
        <ele>47.8</ele>
        <time>2020-07-10T12:36:03Z</time>
      </trkpt>
      <trkpt lat="47.8266" lon="-3.50446">
        <ele>47.77</ele>
        <time>2020-07-10T12:36:04Z</time>
      </trkpt>
      <trkpt lat="47.82659" lon="-3.50453">
        <ele>47.73</ele>
        <time>2020-07-10T12:36:05Z</time>
      </trkpt>
      <trkpt lat="47.82658" lon="-3.50458">
        <ele>47.7</ele>
        <time>2020-07-10T12:36:06Z</time>
      </trkpt>
      <trkpt lat="47.82657" lon="-3.50464">
        <ele>47.67</ele>
        <time>2020-07-10T12:36:07Z</time>
      </trkpt>
      <trkpt lat="47.82656" lon="-3.5047">
        <ele>47.64</ele>
        <time>2020-07-10T12:36:08Z</time>
      </trkpt>
      <trkpt lat="47.82655" lon="-3.50477">
        <ele>47.53</ele>
        <time>2020-07-10T12:36:09Z</time>
      </trkpt>
      <trkpt lat="47.82655" lon="-3.50483">
        <ele>47.41</ele>
        <time>2020-07-10T12:36:10Z</time>
      </trkpt>
      <trkpt lat="47.82654" lon="-3.50488">
        <ele>47.28</ele>
        <time>2020-07-10T12:36:11Z</time>
      </trkpt>
      <trkpt lat="47.82655" lon="-3.50493">
        <ele>47.18</ele>
        <time>2020-07-10T12:36:12Z</time>
      </trkpt>
      <trkpt lat="47.82654" lon="-3.505">
        <ele>47.06</ele>
        <time>2020-07-10T12:36:13Z</time>
      </trkpt>
      <trkpt lat="47.82654" lon="-3.50506">
        <ele>47.02</ele>
        <time>2020-07-10T12:36:14Z</time>
      </trkpt>
      <trkpt lat="47.82651" lon="-3.50512">
        <ele>47.01</ele>
        <time>2020-07-10T12:36:15Z</time>
      </trkpt>
      <trkpt lat="47.82652" lon="-3.50521">
        <ele>47</ele>
        <time>2020-07-10T12:36:16Z</time>
      </trkpt>
      <trkpt lat="47.82652" lon="-3.50529">
        <ele>46.99</ele>
        <time>2020-07-10T12:36:17Z</time>
      </trkpt>
      <trkpt lat="47.82652" lon="-3.50537">
        <ele>46.87</ele>
        <time>2020-07-10T12:36:18Z</time>
      </trkpt>
      <trkpt lat="47.8265" lon="-3.50546">
        <ele>46.7</ele>
        <time>2020-07-10T12:36:19Z</time>
      </trkpt>
      <trkpt lat="47.82649" lon="-3.50554">
        <ele>46.48</ele>
        <time>2020-07-10T12:36:20Z</time>
      </trkpt>
      <trkpt lat="47.82647" lon="-3.50562">
        <ele>46.29</ele>
        <time>2020-07-10T12:36:21Z</time>
      </trkpt>
      <trkpt lat="47.82644" lon="-3.5057">
        <ele>46.14</ele>
        <time>2020-07-10T12:36:22Z</time>
      </trkpt>
      <trkpt lat="47.82644" lon="-3.5058">
        <ele>46.06</ele>
        <time>2020-07-10T12:36:23Z</time>
      </trkpt>
      <trkpt lat="47.82641" lon="-3.50587">
        <ele>46.02</ele>
        <time>2020-07-10T12:36:24Z</time>
      </trkpt>
      <trkpt lat="47.82639" lon="-3.50594">
        <ele>46</ele>
        <time>2020-07-10T12:36:25Z</time>
      </trkpt>
      <trkpt lat="47.82636" lon="-3.50601">
        <ele>45.91</ele>
        <time>2020-07-10T12:36:26Z</time>
      </trkpt>
      <trkpt lat="47.82632" lon="-3.50608">
        <ele>45.81</ele>
        <time>2020-07-10T12:36:27Z</time>
      </trkpt>
      <trkpt lat="47.82629" lon="-3.50615">
        <ele>45.62</ele>
        <time>2020-07-10T12:36:28Z</time>
      </trkpt>
      <trkpt lat="47.82626" lon="-3.50622">
        <ele>45.41</ele>
        <time>2020-07-10T12:36:29Z</time>
      </trkpt>
      <trkpt lat="47.82623" lon="-3.5063">
        <ele>45.21</ele>
        <time>2020-07-10T12:36:30Z</time>
      </trkpt>
      <trkpt lat="47.8262" lon="-3.50638">
        <ele>45.07</ele>
        <time>2020-07-10T12:36:31Z</time>
      </trkpt>
      <trkpt lat="47.82618" lon="-3.50646">
        <ele>45.07</ele>
        <time>2020-07-10T12:36:32Z</time>
      </trkpt>
      <trkpt lat="47.82616" lon="-3.50653">
        <ele>45.08</ele>
        <time>2020-07-10T12:36:33Z</time>
      </trkpt>
      <trkpt lat="47.82614" lon="-3.50662">
        <ele>45.09</ele>
        <time>2020-07-10T12:36:34Z</time>
      </trkpt>
      <trkpt lat="47.82613" lon="-3.5067">
        <ele>45.08</ele>
        <time>2020-07-10T12:36:35Z</time>
      </trkpt>
      <trkpt lat="47.82612" lon="-3.50678">
        <ele>45.04</ele>
        <time>2020-07-10T12:36:36Z</time>
      </trkpt>
      <trkpt lat="47.8261" lon="-3.50686">
        <ele>45.01</ele>
        <time>2020-07-10T12:36:37Z</time>
      </trkpt>
      <trkpt lat="47.82609" lon="-3.50694">
        <ele>45</ele>
        <time>2020-07-10T12:36:38Z</time>
      </trkpt>
      <trkpt lat="47.82607" lon="-3.50702">
        <ele>45.16</ele>
        <time>2020-07-10T12:36:39Z</time>
      </trkpt>
      <trkpt lat="47.82606" lon="-3.5071">
        <ele>45.36</ele>
        <time>2020-07-10T12:36:40Z</time>
      </trkpt>
      <trkpt lat="47.82604" lon="-3.50718">
        <ele>45.55</ele>
        <time>2020-07-10T12:36:41Z</time>
      </trkpt>
      <trkpt lat="47.82603" lon="-3.50725">
        <ele>45.63</ele>
        <time>2020-07-10T12:36:42Z</time>
      </trkpt>
      <trkpt lat="47.82602" lon="-3.50733">
        <ele>45.57</ele>
        <time>2020-07-10T12:36:43Z</time>
      </trkpt>
      <trkpt lat="47.82601" lon="-3.50741">
        <ele>45.49</ele>
        <time>2020-07-10T12:36:44Z</time>
      </trkpt>
      <trkpt lat="47.826" lon="-3.50749">
        <ele>45.43</ele>
        <time>2020-07-10T12:36:45Z</time>
      </trkpt>
      <trkpt lat="47.82599" lon="-3.50758">
        <ele>45.43</ele>
        <time>2020-07-10T12:36:46Z</time>
      </trkpt>
      <trkpt lat="47.82599" lon="-3.50767">
        <ele>45.44</ele>
        <time>2020-07-10T12:36:47Z</time>
      </trkpt>
      <trkpt lat="47.82597" lon="-3.50775">
        <ele>45.47</ele>
        <time>2020-07-10T12:36:48Z</time>
      </trkpt>
      <trkpt lat="47.82596" lon="-3.50783">
        <ele>45.57</ele>
        <time>2020-07-10T12:36:49Z</time>
      </trkpt>
      <trkpt lat="47.82595" lon="-3.50791">
        <ele>45.71</ele>
        <time>2020-07-10T12:36:50Z</time>
      </trkpt>
      <trkpt lat="47.82593" lon="-3.50798">
        <ele>45.85</ele>
        <time>2020-07-10T12:36:51Z</time>
      </trkpt>
      <trkpt lat="47.82592" lon="-3.50807">
        <ele>45.94</ele>
        <time>2020-07-10T12:36:52Z</time>
      </trkpt>
      <trkpt lat="47.82591" lon="-3.50815">
        <ele>45.92</ele>
        <time>2020-07-10T12:36:53Z</time>
      </trkpt>
      <trkpt lat="47.82589" lon="-3.50824">
        <ele>45.89</ele>
        <time>2020-07-10T12:36:54Z</time>
      </trkpt>
      <trkpt lat="47.82587" lon="-3.50833">
        <ele>45.87</ele>
        <time>2020-07-10T12:36:55Z</time>
      </trkpt>
      <trkpt lat="47.82586" lon="-3.50841">
        <ele>45.71</ele>
        <time>2020-07-10T12:36:56Z</time>
      </trkpt>
      <trkpt lat="47.82585" lon="-3.5085">
        <ele>45.47</ele>
        <time>2020-07-10T12:36:57Z</time>
      </trkpt>
      <trkpt lat="47.82583" lon="-3.50859">
        <ele>45.19</ele>
        <time>2020-07-10T12:36:58Z</time>
      </trkpt>
      <trkpt lat="47.82582" lon="-3.50867">
        <ele>45.1</ele>
        <time>2020-07-10T12:36:59Z</time>
      </trkpt>
      <trkpt lat="47.8258" lon="-3.50876">
        <ele>45.11</ele>
        <time>2020-07-10T12:37:00Z</time>
      </trkpt>
      <trkpt lat="47.82578" lon="-3.50884">
        <ele>45.15</ele>
        <time>2020-07-10T12:37:01Z</time>
      </trkpt>
      <trkpt lat="47.82577" lon="-3.50893">
        <ele>45.21</ele>
        <time>2020-07-10T12:37:02Z</time>
      </trkpt>
      <trkpt lat="47.82575" lon="-3.50902">
        <ele>45.26</ele>
        <time>2020-07-10T12:37:03Z</time>
      </trkpt>
      <trkpt lat="47.82574" lon="-3.5091">
        <ele>45.32</ele>
        <time>2020-07-10T12:37:04Z</time>
      </trkpt>
      <trkpt lat="47.82572" lon="-3.50919">
        <ele>45.38</ele>
        <time>2020-07-10T12:37:05Z</time>
      </trkpt>
      <trkpt lat="47.82571" lon="-3.50928">
        <ele>45.43</ele>
        <time>2020-07-10T12:37:06Z</time>
      </trkpt>
      <trkpt lat="47.82569" lon="-3.50937">
        <ele>45.48</ele>
        <time>2020-07-10T12:37:07Z</time>
      </trkpt>
      <trkpt lat="47.82568" lon="-3.50946">
        <ele>45.5</ele>
        <time>2020-07-10T12:37:08Z</time>
      </trkpt>
      <trkpt lat="47.82567" lon="-3.50954">
        <ele>45.32</ele>
        <time>2020-07-10T12:37:09Z</time>
      </trkpt>
      <trkpt lat="47.82566" lon="-3.50963">
        <ele>45.07</ele>
        <time>2020-07-10T12:37:10Z</time>
      </trkpt>
      <trkpt lat="47.82565" lon="-3.50972">
        <ele>44.8</ele>
        <time>2020-07-10T12:37:11Z</time>
      </trkpt>
      <trkpt lat="47.82563" lon="-3.50981">
        <ele>44.68</ele>
        <time>2020-07-10T12:37:12Z</time>
      </trkpt>
      <trkpt lat="47.82562" lon="-3.5099">
        <ele>44.65</ele>
        <time>2020-07-10T12:37:13Z</time>
      </trkpt>
      <trkpt lat="47.82559" lon="-3.50999">
        <ele>44.71</ele>
        <time>2020-07-10T12:37:14Z</time>
      </trkpt>
      <trkpt lat="47.82556" lon="-3.51007">
        <ele>44.54</ele>
        <time>2020-07-10T12:37:15Z</time>
      </trkpt>
      <trkpt lat="47.82551" lon="-3.51014">
        <ele>44.42</ele>
        <time>2020-07-10T12:37:16Z</time>
      </trkpt>
      <trkpt lat="47.82545" lon="-3.51018">
        <ele>44.48</ele>
        <time>2020-07-10T12:37:17Z</time>
      </trkpt>
      <trkpt lat="47.8254" lon="-3.51022">
        <ele>44.75</ele>
        <time>2020-07-10T12:37:18Z</time>
      </trkpt>
      <trkpt lat="47.82534" lon="-3.51024">
        <ele>45.2</ele>
        <time>2020-07-10T12:37:19Z</time>
      </trkpt>
      <trkpt lat="47.82528" lon="-3.51026">
        <ele>45.73</ele>
        <time>2020-07-10T12:37:20Z</time>
      </trkpt>
      <trkpt lat="47.82523" lon="-3.51027">
        <ele>45.92</ele>
        <time>2020-07-10T12:37:21Z</time>
      </trkpt>
      <trkpt lat="47.82518" lon="-3.51027">
        <ele>45.98</ele>
        <time>2020-07-10T12:37:22Z</time>
      </trkpt>
      <trkpt lat="47.82513" lon="-3.51028">
        <ele>45.99</ele>
        <time>2020-07-10T12:37:23Z</time>
      </trkpt>
      <trkpt lat="47.82508" lon="-3.51028">
        <ele>45.98</ele>
        <time>2020-07-10T12:37:24Z</time>
      </trkpt>
      <trkpt lat="47.82503" lon="-3.51029">
        <ele>45.96</ele>
        <time>2020-07-10T12:37:25Z</time>
      </trkpt>
      <trkpt lat="47.82498" lon="-3.51029">
        <ele>45.89</ele>
        <time>2020-07-10T12:37:26Z</time>
      </trkpt>
      <trkpt lat="47.82492" lon="-3.51029">
        <ele>45.73</ele>
        <time>2020-07-10T12:37:27Z</time>
      </trkpt>
      <trkpt lat="47.82486" lon="-3.5103">
        <ele>45.53</ele>
        <time>2020-07-10T12:37:28Z</time>
      </trkpt>
      <trkpt lat="47.82481" lon="-3.51031">
        <ele>45.3</ele>
        <time>2020-07-10T12:37:29Z</time>
      </trkpt>
      <trkpt lat="47.82476" lon="-3.51033">
        <ele>45.05</ele>
        <time>2020-07-10T12:37:30Z</time>
      </trkpt>
      <trkpt lat="47.8247" lon="-3.51036">
        <ele>44.78</ele>
        <time>2020-07-10T12:37:31Z</time>
      </trkpt>
      <trkpt lat="47.82465" lon="-3.51039">
        <ele>44.53</ele>
        <time>2020-07-10T12:37:32Z</time>
      </trkpt>
      <trkpt lat="47.8246" lon="-3.51044">
        <ele>44.32</ele>
        <time>2020-07-10T12:37:33Z</time>
      </trkpt>
      <trkpt lat="47.82455" lon="-3.51049">
        <ele>44.16</ele>
        <time>2020-07-10T12:37:34Z</time>
      </trkpt>
      <trkpt lat="47.8245" lon="-3.51055">
        <ele>44.05</ele>
        <time>2020-07-10T12:37:35Z</time>
      </trkpt>
      <trkpt lat="47.82446" lon="-3.51062">
        <ele>43.69</ele>
        <time>2020-07-10T12:37:36Z</time>
      </trkpt>
      <trkpt lat="47.82442" lon="-3.5107">
        <ele>43.13</ele>
        <time>2020-07-10T12:37:37Z</time>
      </trkpt>
      <trkpt lat="47.82438" lon="-3.51079">
        <ele>42.52</ele>
        <time>2020-07-10T12:37:38Z</time>
      </trkpt>
      <trkpt lat="47.82434" lon="-3.51089">
        <ele>42.01</ele>
        <time>2020-07-10T12:37:39Z</time>
      </trkpt>
      <trkpt lat="47.8243" lon="-3.511">
        <ele>41.57</ele>
        <time>2020-07-10T12:37:40Z</time>
      </trkpt>
      <trkpt lat="47.82427" lon="-3.51112">
        <ele>41.16</ele>
        <time>2020-07-10T12:37:41Z</time>
      </trkpt>
      <trkpt lat="47.82424" lon="-3.51123">
        <ele>40.76</ele>
        <time>2020-07-10T12:37:42Z</time>
      </trkpt>
      <trkpt lat="47.82421" lon="-3.51134">
        <ele>40.35</ele>
        <time>2020-07-10T12:37:43Z</time>
      </trkpt>
      <trkpt lat="47.82419" lon="-3.51145">
        <ele>39.96</ele>
        <time>2020-07-10T12:37:44Z</time>
      </trkpt>
      <trkpt lat="47.82416" lon="-3.51155">
        <ele>39.57</ele>
        <time>2020-07-10T12:37:45Z</time>
      </trkpt>
      <trkpt lat="47.82413" lon="-3.51166">
        <ele>39.18</ele>
        <time>2020-07-10T12:37:46Z</time>
      </trkpt>
      <trkpt lat="47.8241" lon="-3.51178">
        <ele>38.77</ele>
        <time>2020-07-10T12:37:47Z</time>
      </trkpt>
      <trkpt lat="47.82407" lon="-3.51189">
        <ele>38.36</ele>
        <time>2020-07-10T12:37:48Z</time>
      </trkpt>
      <trkpt lat="47.82405" lon="-3.51201">
        <ele>37.76</ele>
        <time>2020-07-10T12:37:49Z</time>
      </trkpt>
      <trkpt lat="47.82402" lon="-3.51213">
        <ele>36.99</ele>
        <time>2020-07-10T12:37:50Z</time>
      </trkpt>
      <trkpt lat="47.82398" lon="-3.51225">
        <ele>36.22</ele>
        <time>2020-07-10T12:37:51Z</time>
      </trkpt>
      <trkpt lat="47.82395" lon="-3.51238">
        <ele>35.66</ele>
        <time>2020-07-10T12:37:52Z</time>
      </trkpt>
      <trkpt lat="47.82393" lon="-3.51251">
        <ele>35.17</ele>
        <time>2020-07-10T12:37:53Z</time>
      </trkpt>
      <trkpt lat="47.82391" lon="-3.51265">
        <ele>34.67</ele>
        <time>2020-07-10T12:37:54Z</time>
      </trkpt>
      <trkpt lat="47.82389" lon="-3.51279">
        <ele>34.2</ele>
        <time>2020-07-10T12:37:55Z</time>
      </trkpt>
      <trkpt lat="47.82388" lon="-3.51291">
        <ele>34.06</ele>
        <time>2020-07-10T12:37:56Z</time>
      </trkpt>
      <trkpt lat="47.82387" lon="-3.51302">
        <ele>34.02</ele>
        <time>2020-07-10T12:37:57Z</time>
      </trkpt>
      <trkpt lat="47.82385" lon="-3.51312">
        <ele>34.17</ele>
        <time>2020-07-10T12:37:58Z</time>
      </trkpt>
      <trkpt lat="47.82383" lon="-3.51321">
        <ele>34.45</ele>
        <time>2020-07-10T12:37:59Z</time>
      </trkpt>
      <trkpt lat="47.82381" lon="-3.51329">
        <ele>34.74</ele>
        <time>2020-07-10T12:38:00Z</time>
      </trkpt>
      <trkpt lat="47.8238" lon="-3.51337">
        <ele>34.95</ele>
        <time>2020-07-10T12:38:01Z</time>
      </trkpt>
      <trkpt lat="47.82378" lon="-3.51344">
        <ele>35.09</ele>
        <time>2020-07-10T12:38:02Z</time>
      </trkpt>
      <trkpt lat="47.82377" lon="-3.51351">
        <ele>35.23</ele>
        <time>2020-07-10T12:38:03Z</time>
      </trkpt>
      <trkpt lat="47.82376" lon="-3.51357">
        <ele>35.34</ele>
        <time>2020-07-10T12:38:04Z</time>
      </trkpt>
      <trkpt lat="47.82374" lon="-3.51363">
        <ele>35.54</ele>
        <time>2020-07-10T12:38:05Z</time>
      </trkpt>
      <trkpt lat="47.82371" lon="-3.51369">
        <ele>35.81</ele>
        <time>2020-07-10T12:38:06Z</time>
      </trkpt>
      <trkpt lat="47.8237" lon="-3.51376">
        <ele>36.1</ele>
        <time>2020-07-10T12:38:07Z</time>
      </trkpt>
      <trkpt lat="47.82368" lon="-3.51382">
        <ele>36.37</ele>
        <time>2020-07-10T12:38:08Z</time>
      </trkpt>
      <trkpt lat="47.82367" lon="-3.51388">
        <ele>36.63</ele>
        <time>2020-07-10T12:38:09Z</time>
      </trkpt>
      <trkpt lat="47.82367" lon="-3.51394">
        <ele>36.91</ele>
        <time>2020-07-10T12:38:10Z</time>
      </trkpt>
      <trkpt lat="47.82366" lon="-3.514">
        <ele>37.19</ele>
        <time>2020-07-10T12:38:11Z</time>
      </trkpt>
      <trkpt lat="47.82365" lon="-3.51407">
        <ele>37.47</ele>
        <time>2020-07-10T12:38:12Z</time>
      </trkpt>
      <trkpt lat="47.82364" lon="-3.51413">
        <ele>37.74</ele>
        <time>2020-07-10T12:38:13Z</time>
      </trkpt>
      <trkpt lat="47.82364" lon="-3.51419">
        <ele>37.99</ele>
        <time>2020-07-10T12:38:14Z</time>
      </trkpt>
      <trkpt lat="47.82362" lon="-3.51425">
        <ele>38.22</ele>
        <time>2020-07-10T12:38:15Z</time>
      </trkpt>
      <trkpt lat="47.82361" lon="-3.51432">
        <ele>38.46</ele>
        <time>2020-07-10T12:38:16Z</time>
      </trkpt>
      <trkpt lat="47.82361" lon="-3.51439">
        <ele>38.71</ele>
        <time>2020-07-10T12:38:17Z</time>
      </trkpt>
      <trkpt lat="47.8236" lon="-3.51446">
        <ele>38.96</ele>
        <time>2020-07-10T12:38:18Z</time>
      </trkpt>
      <trkpt lat="47.8236" lon="-3.51454">
        <ele>39.23</ele>
        <time>2020-07-10T12:38:19Z</time>
      </trkpt>
      <trkpt lat="47.82359" lon="-3.51461">
        <ele>39.51</ele>
        <time>2020-07-10T12:38:20Z</time>
      </trkpt>
      <trkpt lat="47.82359" lon="-3.51468">
        <ele>39.79</ele>
        <time>2020-07-10T12:38:21Z</time>
      </trkpt>
      <trkpt lat="47.82358" lon="-3.51474">
        <ele>40.07</ele>
        <time>2020-07-10T12:38:22Z</time>
      </trkpt>
      <trkpt lat="47.82357" lon="-3.51481">
        <ele>40.32</ele>
        <time>2020-07-10T12:38:23Z</time>
      </trkpt>
      <trkpt lat="47.82356" lon="-3.51487">
        <ele>40.54</ele>
        <time>2020-07-10T12:38:24Z</time>
      </trkpt>
      <trkpt lat="47.82355" lon="-3.51494">
        <ele>40.73</ele>
        <time>2020-07-10T12:38:25Z</time>
      </trkpt>
      <trkpt lat="47.82354" lon="-3.515">
        <ele>40.92</ele>
        <time>2020-07-10T12:38:26Z</time>
      </trkpt>
      <trkpt lat="47.82354" lon="-3.51506">
        <ele>41.02</ele>
        <time>2020-07-10T12:38:27Z</time>
      </trkpt>
      <trkpt lat="47.82353" lon="-3.51513">
        <ele>41.1</ele>
        <time>2020-07-10T12:38:28Z</time>
      </trkpt>
      <trkpt lat="47.82352" lon="-3.51519">
        <ele>41.18</ele>
        <time>2020-07-10T12:38:29Z</time>
      </trkpt>
      <trkpt lat="47.82352" lon="-3.51526">
        <ele>41.27</ele>
        <time>2020-07-10T12:38:30Z</time>
      </trkpt>
      <trkpt lat="47.82351" lon="-3.51533">
        <ele>41.48</ele>
        <time>2020-07-10T12:38:31Z</time>
      </trkpt>
      <trkpt lat="47.82351" lon="-3.5154">
        <ele>41.78</ele>
        <time>2020-07-10T12:38:32Z</time>
      </trkpt>
      <trkpt lat="47.82351" lon="-3.51546">
        <ele>42.09</ele>
        <time>2020-07-10T12:38:33Z</time>
      </trkpt>
      <trkpt lat="47.82351" lon="-3.51554">
        <ele>42.41</ele>
        <time>2020-07-10T12:38:34Z</time>
      </trkpt>
      <trkpt lat="47.8235" lon="-3.51561">
        <ele>42.6</ele>
        <time>2020-07-10T12:38:35Z</time>
      </trkpt>
      <trkpt lat="47.8235" lon="-3.51568">
        <ele>42.72</ele>
        <time>2020-07-10T12:38:36Z</time>
      </trkpt>
      <trkpt lat="47.82349" lon="-3.51574">
        <ele>42.82</ele>
        <time>2020-07-10T12:38:37Z</time>
      </trkpt>
      <trkpt lat="47.82348" lon="-3.51581">
        <ele>42.92</ele>
        <time>2020-07-10T12:38:38Z</time>
      </trkpt>
      <trkpt lat="47.82348" lon="-3.51587">
        <ele>43.06</ele>
        <time>2020-07-10T12:38:39Z</time>
      </trkpt>
      <trkpt lat="47.82348" lon="-3.51593">
        <ele>43.26</ele>
        <time>2020-07-10T12:38:40Z</time>
      </trkpt>
      <trkpt lat="47.82347" lon="-3.51599">
        <ele>43.48</ele>
        <time>2020-07-10T12:38:41Z</time>
      </trkpt>
      <trkpt lat="47.82347" lon="-3.51605">
        <ele>43.7</ele>
        <time>2020-07-10T12:38:42Z</time>
      </trkpt>
      <trkpt lat="47.82346" lon="-3.51612">
        <ele>43.92</ele>
        <time>2020-07-10T12:38:43Z</time>
      </trkpt>
      <trkpt lat="47.82346" lon="-3.51619">
        <ele>44.06</ele>
        <time>2020-07-10T12:38:44Z</time>
      </trkpt>
      <trkpt lat="47.82345" lon="-3.51625">
        <ele>44.17</ele>
        <time>2020-07-10T12:38:45Z</time>
      </trkpt>
      <trkpt lat="47.82345" lon="-3.51631">
        <ele>44.26</ele>
        <time>2020-07-10T12:38:46Z</time>
      </trkpt>
      <trkpt lat="47.82345" lon="-3.51638">
        <ele>44.35</ele>
        <time>2020-07-10T12:38:47Z</time>
      </trkpt>
      <trkpt lat="47.82344" lon="-3.51644">
        <ele>44.51</ele>
        <time>2020-07-10T12:38:48Z</time>
      </trkpt>
      <trkpt lat="47.82344" lon="-3.5165">
        <ele>44.7</ele>
        <time>2020-07-10T12:38:49Z</time>
      </trkpt>
      <trkpt lat="47.82344" lon="-3.51657">
        <ele>44.92</ele>
        <time>2020-07-10T12:38:50Z</time>
      </trkpt>
      <trkpt lat="47.82343" lon="-3.51663">
        <ele>45.14</ele>
        <time>2020-07-10T12:38:51Z</time>
      </trkpt>
      <trkpt lat="47.82343" lon="-3.5167">
        <ele>45.37</ele>
        <time>2020-07-10T12:38:52Z</time>
      </trkpt>
      <trkpt lat="47.82343" lon="-3.51677">
        <ele>45.59</ele>
        <time>2020-07-10T12:38:53Z</time>
      </trkpt>
      <trkpt lat="47.82342" lon="-3.51683">
        <ele>45.81</ele>
        <time>2020-07-10T12:38:54Z</time>
      </trkpt>
      <trkpt lat="47.82342" lon="-3.5169">
        <ele>46.05</ele>
        <time>2020-07-10T12:38:55Z</time>
      </trkpt>
      <trkpt lat="47.82342" lon="-3.51697">
        <ele>46.25</ele>
        <time>2020-07-10T12:38:56Z</time>
      </trkpt>
      <trkpt lat="47.82342" lon="-3.51704">
        <ele>46.35</ele>
        <time>2020-07-10T12:38:57Z</time>
      </trkpt>
      <trkpt lat="47.82341" lon="-3.51711">
        <ele>46.43</ele>
        <time>2020-07-10T12:38:58Z</time>
      </trkpt>
      <trkpt lat="47.82342" lon="-3.51717">
        <ele>46.51</ele>
        <time>2020-07-10T12:38:59Z</time>
      </trkpt>
      <trkpt lat="47.82342" lon="-3.51724">
        <ele>46.58</ele>
        <time>2020-07-10T12:39:00Z</time>
      </trkpt>
      <trkpt lat="47.82342" lon="-3.5173">
        <ele>46.6</ele>
        <time>2020-07-10T12:39:01Z</time>
      </trkpt>
      <trkpt lat="47.82341" lon="-3.51736">
        <ele>46.59</ele>
        <time>2020-07-10T12:39:02Z</time>
      </trkpt>
      <trkpt lat="47.82341" lon="-3.51742">
        <ele>46.59</ele>
        <time>2020-07-10T12:39:03Z</time>
      </trkpt>
      <trkpt lat="47.82341" lon="-3.51747">
        <ele>46.58</ele>
        <time>2020-07-10T12:39:04Z</time>
      </trkpt>
      <trkpt lat="47.82341" lon="-3.51752">
        <ele>46.59</ele>
        <time>2020-07-10T12:39:05Z</time>
      </trkpt>
      <trkpt lat="47.82339" lon="-3.51756">
        <ele>46.64</ele>
        <time>2020-07-10T12:39:06Z</time>
      </trkpt>
      <trkpt lat="47.82336" lon="-3.51761">
        <ele>46.63</ele>
        <time>2020-07-10T12:39:07Z</time>
      </trkpt>
      <trkpt lat="47.82333" lon="-3.51764">
        <ele>46.52</ele>
        <time>2020-07-10T12:39:08Z</time>
      </trkpt>
      <trkpt lat="47.82328" lon="-3.51767">
        <ele>46.34</ele>
        <time>2020-07-10T12:39:09Z</time>
      </trkpt>
      <trkpt lat="47.82324" lon="-3.51767">
        <ele>46.05</ele>
        <time>2020-07-10T12:39:10Z</time>
      </trkpt>
      <trkpt lat="47.82319" lon="-3.51766">
        <ele>45.73</ele>
        <time>2020-07-10T12:39:11Z</time>
      </trkpt>
      <trkpt lat="47.82315" lon="-3.51764">
        <ele>45.32</ele>
        <time>2020-07-10T12:39:12Z</time>
      </trkpt>
      <trkpt lat="47.82309" lon="-3.51762">
        <ele>44.88</ele>
        <time>2020-07-10T12:39:13Z</time>
      </trkpt>
      <trkpt lat="47.82304" lon="-3.51762">
        <ele>44.5</ele>
        <time>2020-07-10T12:39:14Z</time>
      </trkpt>
      <trkpt lat="47.82299" lon="-3.51765">
        <ele>44.28</ele>
        <time>2020-07-10T12:39:15Z</time>
      </trkpt>
      <trkpt lat="47.82296" lon="-3.5177">
        <ele>44.29</ele>
        <time>2020-07-10T12:39:16Z</time>
      </trkpt>
      <trkpt lat="47.82294" lon="-3.51777">
        <ele>44.47</ele>
        <time>2020-07-10T12:39:17Z</time>
      </trkpt>
      <trkpt lat="47.82293" lon="-3.51785">
        <ele>44.64</ele>
        <time>2020-07-10T12:39:18Z</time>
      </trkpt>
      <trkpt lat="47.82293" lon="-3.51793">
        <ele>44.78</ele>
        <time>2020-07-10T12:39:19Z</time>
      </trkpt>
      <trkpt lat="47.82292" lon="-3.51801">
        <ele>44.9</ele>
        <time>2020-07-10T12:39:20Z</time>
      </trkpt>
      <trkpt lat="47.82292" lon="-3.51808">
        <ele>45.05</ele>
        <time>2020-07-10T12:39:21Z</time>
      </trkpt>
      <trkpt lat="47.82292" lon="-3.51815">
        <ele>45.26</ele>
        <time>2020-07-10T12:39:22Z</time>
      </trkpt>
      <trkpt lat="47.82292" lon="-3.51822">
        <ele>45.51</ele>
        <time>2020-07-10T12:39:23Z</time>
      </trkpt>
      <trkpt lat="47.82291" lon="-3.5183">
        <ele>45.73</ele>
        <time>2020-07-10T12:39:24Z</time>
      </trkpt>
      <trkpt lat="47.82291" lon="-3.51837">
        <ele>45.91</ele>
        <time>2020-07-10T12:39:25Z</time>
      </trkpt>
      <trkpt lat="47.8229" lon="-3.51845">
        <ele>46.03</ele>
        <time>2020-07-10T12:39:26Z</time>
      </trkpt>
      <trkpt lat="47.8229" lon="-3.51852">
        <ele>46.12</ele>
        <time>2020-07-10T12:39:27Z</time>
      </trkpt>
      <trkpt lat="47.82289" lon="-3.5186">
        <ele>46.21</ele>
        <time>2020-07-10T12:39:28Z</time>
      </trkpt>
      <trkpt lat="47.82289" lon="-3.51867">
        <ele>46.35</ele>
        <time>2020-07-10T12:39:29Z</time>
      </trkpt>
      <trkpt lat="47.82288" lon="-3.51874">
        <ele>46.53</ele>
        <time>2020-07-10T12:39:30Z</time>
      </trkpt>
      <trkpt lat="47.82288" lon="-3.51881">
        <ele>46.71</ele>
        <time>2020-07-10T12:39:31Z</time>
      </trkpt>
      <trkpt lat="47.82287" lon="-3.51888">
        <ele>46.88</ele>
        <time>2020-07-10T12:39:32Z</time>
      </trkpt>
      <trkpt lat="47.82286" lon="-3.51895">
        <ele>47.07</ele>
        <time>2020-07-10T12:39:33Z</time>
      </trkpt>
      <trkpt lat="47.82286" lon="-3.51902">
        <ele>47.32</ele>
        <time>2020-07-10T12:39:34Z</time>
      </trkpt>
      <trkpt lat="47.82287" lon="-3.5191">
        <ele>47.59</ele>
        <time>2020-07-10T12:39:35Z</time>
      </trkpt>
      <trkpt lat="47.82286" lon="-3.51917">
        <ele>47.84</ele>
        <time>2020-07-10T12:39:36Z</time>
      </trkpt>
      <trkpt lat="47.82287" lon="-3.51925">
        <ele>47.94</ele>
        <time>2020-07-10T12:39:37Z</time>
      </trkpt>
      <trkpt lat="47.82286" lon="-3.51933">
        <ele>47.94</ele>
        <time>2020-07-10T12:39:38Z</time>
      </trkpt>
      <trkpt lat="47.82286" lon="-3.5194">
        <ele>47.89</ele>
        <time>2020-07-10T12:39:39Z</time>
      </trkpt>
      <trkpt lat="47.82285" lon="-3.51948">
        <ele>47.8</ele>
        <time>2020-07-10T12:39:40Z</time>
      </trkpt>
      <trkpt lat="47.82285" lon="-3.51956">
        <ele>47.69</ele>
        <time>2020-07-10T12:39:41Z</time>
      </trkpt>
      <trkpt lat="47.82284" lon="-3.51963">
        <ele>47.59</ele>
        <time>2020-07-10T12:39:42Z</time>
      </trkpt>
      <trkpt lat="47.82285" lon="-3.51971">
        <ele>47.52</ele>
        <time>2020-07-10T12:39:43Z</time>
      </trkpt>
      <trkpt lat="47.82284" lon="-3.51979">
        <ele>47.48</ele>
        <time>2020-07-10T12:39:44Z</time>
      </trkpt>
      <trkpt lat="47.82284" lon="-3.51987">
        <ele>47.46</ele>
        <time>2020-07-10T12:39:45Z</time>
      </trkpt>
      <trkpt lat="47.82283" lon="-3.51995">
        <ele>47.43</ele>
        <time>2020-07-10T12:39:46Z</time>
      </trkpt>
      <trkpt lat="47.82283" lon="-3.52003">
        <ele>47.39</ele>
        <time>2020-07-10T12:39:47Z</time>
      </trkpt>
      <trkpt lat="47.82283" lon="-3.52011">
        <ele>47.36</ele>
        <time>2020-07-10T12:39:48Z</time>
      </trkpt>
      <trkpt lat="47.82282" lon="-3.52019">
        <ele>47.32</ele>
        <time>2020-07-10T12:39:49Z</time>
      </trkpt>
      <trkpt lat="47.82282" lon="-3.52026">
        <ele>47.3</ele>
        <time>2020-07-10T12:39:50Z</time>
      </trkpt>
      <trkpt lat="47.82282" lon="-3.52033">
        <ele>47.29</ele>
        <time>2020-07-10T12:39:51Z</time>
      </trkpt>
      <trkpt lat="47.82281" lon="-3.52041">
        <ele>47.27</ele>
        <time>2020-07-10T12:39:52Z</time>
      </trkpt>
      <trkpt lat="47.82281" lon="-3.52049">
        <ele>47.26</ele>
        <time>2020-07-10T12:39:53Z</time>
      </trkpt>
      <trkpt lat="47.82282" lon="-3.52056">
        <ele>47.28</ele>
        <time>2020-07-10T12:39:54Z</time>
      </trkpt>
      <trkpt lat="47.82283" lon="-3.52064">
        <ele>47.14</ele>
        <time>2020-07-10T12:39:55Z</time>
      </trkpt>
      <trkpt lat="47.82284" lon="-3.52071">
        <ele>46.98</ele>
        <time>2020-07-10T12:39:56Z</time>
      </trkpt>
      <trkpt lat="47.82286" lon="-3.52077">
        <ele>46.87</ele>
        <time>2020-07-10T12:39:57Z</time>
      </trkpt>
      <trkpt lat="47.82288" lon="-3.52084">
        <ele>46.74</ele>
        <time>2020-07-10T12:39:58Z</time>
      </trkpt>
      <trkpt lat="47.82289" lon="-3.52091">
        <ele>46.69</ele>
        <time>2020-07-10T12:39:59Z</time>
      </trkpt>
      <trkpt lat="47.82291" lon="-3.52099">
        <ele>46.69</ele>
        <time>2020-07-10T12:40:00Z</time>
      </trkpt>
      <trkpt lat="47.82293" lon="-3.52106">
        <ele>46.75</ele>
        <time>2020-07-10T12:40:01Z</time>
      </trkpt>
      <trkpt lat="47.82296" lon="-3.52113">
        <ele>46.82</ele>
        <time>2020-07-10T12:40:02Z</time>
      </trkpt>
      <trkpt lat="47.82298" lon="-3.5212">
        <ele>46.88</ele>
        <time>2020-07-10T12:40:03Z</time>
      </trkpt>
      <trkpt lat="47.82301" lon="-3.52127">
        <ele>46.92</ele>
        <time>2020-07-10T12:40:04Z</time>
      </trkpt>
      <trkpt lat="47.82303" lon="-3.52134">
        <ele>46.92</ele>
        <time>2020-07-10T12:40:05Z</time>
      </trkpt>
      <trkpt lat="47.82305" lon="-3.52142">
        <ele>46.97</ele>
        <time>2020-07-10T12:40:06Z</time>
      </trkpt>
      <trkpt lat="47.82308" lon="-3.5215">
        <ele>47.16</ele>
        <time>2020-07-10T12:40:07Z</time>
      </trkpt>
      <trkpt lat="47.82309" lon="-3.52158">
        <ele>47.41</ele>
        <time>2020-07-10T12:40:08Z</time>
      </trkpt>
      <trkpt lat="47.82312" lon="-3.52165">
        <ele>47.72</ele>
        <time>2020-07-10T12:40:09Z</time>
      </trkpt>
      <trkpt lat="47.82313" lon="-3.52173">
        <ele>47.85</ele>
        <time>2020-07-10T12:40:10Z</time>
      </trkpt>
      <trkpt lat="47.82315" lon="-3.5218">
        <ele>47.92</ele>
        <time>2020-07-10T12:40:11Z</time>
      </trkpt>
      <trkpt lat="47.82318" lon="-3.52188">
        <ele>47.96</ele>
        <time>2020-07-10T12:40:12Z</time>
      </trkpt>
      <trkpt lat="47.82319" lon="-3.52196">
        <ele>47.93</ele>
        <time>2020-07-10T12:40:13Z</time>
      </trkpt>
      <trkpt lat="47.82322" lon="-3.52203">
        <ele>47.74</ele>
        <time>2020-07-10T12:40:14Z</time>
      </trkpt>
      <trkpt lat="47.82324" lon="-3.52211">
        <ele>47.5</ele>
        <time>2020-07-10T12:40:15Z</time>
      </trkpt>
      <trkpt lat="47.82326" lon="-3.52218">
        <ele>47.29</ele>
        <time>2020-07-10T12:40:16Z</time>
      </trkpt>
      <trkpt lat="47.82328" lon="-3.52226">
        <ele>47.12</ele>
        <time>2020-07-10T12:40:17Z</time>
      </trkpt>
      <trkpt lat="47.8233" lon="-3.52234">
        <ele>47.1</ele>
        <time>2020-07-10T12:40:18Z</time>
      </trkpt>
      <trkpt lat="47.82332" lon="-3.52241">
        <ele>47.1</ele>
        <time>2020-07-10T12:40:19Z</time>
      </trkpt>
      <trkpt lat="47.82334" lon="-3.52249">
        <ele>47.1</ele>
        <time>2020-07-10T12:40:20Z</time>
      </trkpt>
      <trkpt lat="47.82336" lon="-3.52257">
        <ele>46.94</ele>
        <time>2020-07-10T12:40:21Z</time>
      </trkpt>
      <trkpt lat="47.82338" lon="-3.52265">
        <ele>46.7</ele>
        <time>2020-07-10T12:40:22Z</time>
      </trkpt>
      <trkpt lat="47.82341" lon="-3.52272">
        <ele>46.43</ele>
        <time>2020-07-10T12:40:23Z</time>
      </trkpt>
      <trkpt lat="47.82344" lon="-3.5228">
        <ele>46.22</ele>
        <time>2020-07-10T12:40:24Z</time>
      </trkpt>
      <trkpt lat="47.82346" lon="-3.52288">
        <ele>46.31</ele>
        <time>2020-07-10T12:40:25Z</time>
      </trkpt>
      <trkpt lat="47.82348" lon="-3.52296">
        <ele>46.49</ele>
        <time>2020-07-10T12:40:26Z</time>
      </trkpt>
      <trkpt lat="47.8235" lon="-3.52304">
        <ele>46.72</ele>
        <time>2020-07-10T12:40:27Z</time>
      </trkpt>
      <trkpt lat="47.82353" lon="-3.52311">
        <ele>46.7</ele>
        <time>2020-07-10T12:40:28Z</time>
      </trkpt>
      <trkpt lat="47.82356" lon="-3.52319">
        <ele>46.52</ele>
        <time>2020-07-10T12:40:29Z</time>
      </trkpt>
      <trkpt lat="47.82359" lon="-3.52327">
        <ele>46.31</ele>
        <time>2020-07-10T12:40:30Z</time>
      </trkpt>
      <trkpt lat="47.82362" lon="-3.52335">
        <ele>46.13</ele>
        <time>2020-07-10T12:40:31Z</time>
      </trkpt>
      <trkpt lat="47.82366" lon="-3.52342">
        <ele>46.11</ele>
        <time>2020-07-10T12:40:32Z</time>
      </trkpt>
      <trkpt lat="47.8237" lon="-3.52349">
        <ele>46.18</ele>
        <time>2020-07-10T12:40:33Z</time>
      </trkpt>
      <trkpt lat="47.82373" lon="-3.52357">
        <ele>46.29</ele>
        <time>2020-07-10T12:40:34Z</time>
      </trkpt>
      <trkpt lat="47.82377" lon="-3.52365">
        <ele>46.49</ele>
        <time>2020-07-10T12:40:35Z</time>
      </trkpt>
      <trkpt lat="47.8238" lon="-3.52373">
        <ele>46.67</ele>
        <time>2020-07-10T12:40:36Z</time>
      </trkpt>
      <trkpt lat="47.82384" lon="-3.52381">
        <ele>46.8</ele>
        <time>2020-07-10T12:40:37Z</time>
      </trkpt>
      <trkpt lat="47.82387" lon="-3.52389">
        <ele>46.84</ele>
        <time>2020-07-10T12:40:38Z</time>
      </trkpt>
      <trkpt lat="47.8239" lon="-3.52398">
        <ele>47.02</ele>
        <time>2020-07-10T12:40:39Z</time>
      </trkpt>
      <trkpt lat="47.82393" lon="-3.52406">
        <ele>47.21</ele>
        <time>2020-07-10T12:40:40Z</time>
      </trkpt>
      <trkpt lat="47.82396" lon="-3.52414">
        <ele>47.4</ele>
        <time>2020-07-10T12:40:41Z</time>
      </trkpt>
      <trkpt lat="47.82398" lon="-3.52422">
        <ele>47.54</ele>
        <time>2020-07-10T12:40:42Z</time>
      </trkpt>
      <trkpt lat="47.82401" lon="-3.5243">
        <ele>47.61</ele>
        <time>2020-07-10T12:40:43Z</time>
      </trkpt>
      <trkpt lat="47.82403" lon="-3.52438">
        <ele>47.62</ele>
        <time>2020-07-10T12:40:44Z</time>
      </trkpt>
      <trkpt lat="47.82405" lon="-3.52446">
        <ele>47.57</ele>
        <time>2020-07-10T12:40:45Z</time>
      </trkpt>
      <trkpt lat="47.82407" lon="-3.52454">
        <ele>47.47</ele>
        <time>2020-07-10T12:40:46Z</time>
      </trkpt>
      <trkpt lat="47.8241" lon="-3.52462">
        <ele>47.34</ele>
        <time>2020-07-10T12:40:47Z</time>
      </trkpt>
      <trkpt lat="47.82413" lon="-3.5247">
        <ele>47.16</ele>
        <time>2020-07-10T12:40:48Z</time>
      </trkpt>
      <trkpt lat="47.82415" lon="-3.52477">
        <ele>47.04</ele>
        <time>2020-07-10T12:40:49Z</time>
      </trkpt>
      <trkpt lat="47.82417" lon="-3.52485">
        <ele>47.01</ele>
        <time>2020-07-10T12:40:50Z</time>
      </trkpt>
      <trkpt lat="47.82419" lon="-3.52493">
        <ele>47.08</ele>
        <time>2020-07-10T12:40:51Z</time>
      </trkpt>
      <trkpt lat="47.82422" lon="-3.52501">
        <ele>47.13</ele>
        <time>2020-07-10T12:40:52Z</time>
      </trkpt>
      <trkpt lat="47.82424" lon="-3.52509">
        <ele>47.08</ele>
        <time>2020-07-10T12:40:53Z</time>
      </trkpt>
      <trkpt lat="47.82428" lon="-3.52517">
        <ele>47.04</ele>
        <time>2020-07-10T12:40:54Z</time>
      </trkpt>
      <trkpt lat="47.8243" lon="-3.52525">
        <ele>47.04</ele>
        <time>2020-07-10T12:40:55Z</time>
      </trkpt>
      <trkpt lat="47.82434" lon="-3.52532">
        <ele>47.11</ele>
        <time>2020-07-10T12:40:56Z</time>
      </trkpt>
      <trkpt lat="47.82437" lon="-3.52541">
        <ele>47.1</ele>
        <time>2020-07-10T12:40:57Z</time>
      </trkpt>
      <trkpt lat="47.82439" lon="-3.52548">
        <ele>47.04</ele>
        <time>2020-07-10T12:40:58Z</time>
      </trkpt>
      <trkpt lat="47.82442" lon="-3.52555">
        <ele>46.95</ele>
        <time>2020-07-10T12:40:59Z</time>
      </trkpt>
      <trkpt lat="47.82445" lon="-3.52562">
        <ele>47.01</ele>
        <time>2020-07-10T12:41:00Z</time>
      </trkpt>
      <trkpt lat="47.82448" lon="-3.52569">
        <ele>47.17</ele>
        <time>2020-07-10T12:41:01Z</time>
      </trkpt>
      <trkpt lat="47.82451" lon="-3.52576">
        <ele>47.39</ele>
        <time>2020-07-10T12:41:02Z</time>
      </trkpt>
      <trkpt lat="47.82455" lon="-3.52583">
        <ele>47.63</ele>
        <time>2020-07-10T12:41:03Z</time>
      </trkpt>
      <trkpt lat="47.82458" lon="-3.5259">
        <ele>47.8</ele>
        <time>2020-07-10T12:41:04Z</time>
      </trkpt>
      <trkpt lat="47.82462" lon="-3.52597">
        <ele>47.91</ele>
        <time>2020-07-10T12:41:05Z</time>
      </trkpt>
      <trkpt lat="47.82466" lon="-3.52604">
        <ele>47.95</ele>
        <time>2020-07-10T12:41:06Z</time>
      </trkpt>
      <trkpt lat="47.8247" lon="-3.5261">
        <ele>47.94</ele>
        <time>2020-07-10T12:41:07Z</time>
      </trkpt>
      <trkpt lat="47.82474" lon="-3.52617">
        <ele>48.02</ele>
        <time>2020-07-10T12:41:08Z</time>
      </trkpt>
      <trkpt lat="47.82477" lon="-3.52623">
        <ele>48.14</ele>
        <time>2020-07-10T12:41:09Z</time>
      </trkpt>
      <trkpt lat="47.82481" lon="-3.5263">
        <ele>48.27</ele>
        <time>2020-07-10T12:41:10Z</time>
      </trkpt>
      <trkpt lat="47.82484" lon="-3.52636">
        <ele>48.39</ele>
        <time>2020-07-10T12:41:11Z</time>
      </trkpt>
      <trkpt lat="47.82488" lon="-3.52643">
        <ele>48.34</ele>
        <time>2020-07-10T12:41:12Z</time>
      </trkpt>
      <trkpt lat="47.82492" lon="-3.52649">
        <ele>48.16</ele>
        <time>2020-07-10T12:41:13Z</time>
      </trkpt>
      <trkpt lat="47.82496" lon="-3.52655">
        <ele>47.88</ele>
        <time>2020-07-10T12:41:14Z</time>
      </trkpt>
      <trkpt lat="47.82499" lon="-3.52662">
        <ele>47.48</ele>
        <time>2020-07-10T12:41:15Z</time>
      </trkpt>
      <trkpt lat="47.82502" lon="-3.5267">
        <ele>47.13</ele>
        <time>2020-07-10T12:41:16Z</time>
      </trkpt>
      <trkpt lat="47.82506" lon="-3.52677">
        <ele>46.98</ele>
        <time>2020-07-10T12:41:17Z</time>
      </trkpt>
      <trkpt lat="47.82509" lon="-3.52685">
        <ele>46.91</ele>
        <time>2020-07-10T12:41:18Z</time>
      </trkpt>
      <trkpt lat="47.82512" lon="-3.52692">
        <ele>46.9</ele>
        <time>2020-07-10T12:41:19Z</time>
      </trkpt>
      <trkpt lat="47.82515" lon="-3.527">
        <ele>46.81</ele>
        <time>2020-07-10T12:41:20Z</time>
      </trkpt>
      <trkpt lat="47.82519" lon="-3.52708">
        <ele>46.61</ele>
        <time>2020-07-10T12:41:21Z</time>
      </trkpt>
      <trkpt lat="47.82522" lon="-3.52716">
        <ele>46.33</ele>
        <time>2020-07-10T12:41:22Z</time>
      </trkpt>
      <trkpt lat="47.82526" lon="-3.52724">
        <ele>46.01</ele>
        <time>2020-07-10T12:41:23Z</time>
      </trkpt>
      <trkpt lat="47.82529" lon="-3.52731">
        <ele>45.81</ele>
        <time>2020-07-10T12:41:24Z</time>
      </trkpt>
      <trkpt lat="47.82534" lon="-3.5274">
        <ele>45.65</ele>
        <time>2020-07-10T12:41:25Z</time>
      </trkpt>
      <trkpt lat="47.82537" lon="-3.52747">
        <ele>45.5</ele>
        <time>2020-07-10T12:41:26Z</time>
      </trkpt>
      <trkpt lat="47.82542" lon="-3.52755">
        <ele>45.22</ele>
        <time>2020-07-10T12:41:27Z</time>
      </trkpt>
      <trkpt lat="47.82545" lon="-3.52764">
        <ele>44.8</ele>
        <time>2020-07-10T12:41:28Z</time>
      </trkpt>
      <trkpt lat="47.82549" lon="-3.52772">
        <ele>44.35</ele>
        <time>2020-07-10T12:41:29Z</time>
      </trkpt>
      <trkpt lat="47.82553" lon="-3.52781">
        <ele>43.97</ele>
        <time>2020-07-10T12:41:30Z</time>
      </trkpt>
      <trkpt lat="47.82557" lon="-3.52789">
        <ele>43.75</ele>
        <time>2020-07-10T12:41:31Z</time>
      </trkpt>
      <trkpt lat="47.82561" lon="-3.52798">
        <ele>43.56</ele>
        <time>2020-07-10T12:41:32Z</time>
      </trkpt>
      <trkpt lat="47.82565" lon="-3.52807">
        <ele>43.39</ele>
        <time>2020-07-10T12:41:33Z</time>
      </trkpt>
      <trkpt lat="47.82569" lon="-3.52815">
        <ele>43.22</ele>
        <time>2020-07-10T12:41:34Z</time>
      </trkpt>
      <trkpt lat="47.82574" lon="-3.52824">
        <ele>43.06</ele>
        <time>2020-07-10T12:41:35Z</time>
      </trkpt>
      <trkpt lat="47.82578" lon="-3.52833">
        <ele>42.9</ele>
        <time>2020-07-10T12:41:36Z</time>
      </trkpt>
      <trkpt lat="47.82582" lon="-3.52841">
        <ele>42.74</ele>
        <time>2020-07-10T12:41:37Z</time>
      </trkpt>
      <trkpt lat="47.82586" lon="-3.5285">
        <ele>42.63</ele>
        <time>2020-07-10T12:41:38Z</time>
      </trkpt>
      <trkpt lat="47.82591" lon="-3.52858">
        <ele>42.62</ele>
        <time>2020-07-10T12:41:39Z</time>
      </trkpt>
      <trkpt lat="47.82596" lon="-3.52865">
        <ele>42.82</ele>
        <time>2020-07-10T12:41:40Z</time>
      </trkpt>
      <trkpt lat="47.82601" lon="-3.52872">
        <ele>43.12</ele>
        <time>2020-07-10T12:41:41Z</time>
      </trkpt>
      <trkpt lat="47.82604" lon="-3.5288">
        <ele>43.39</ele>
        <time>2020-07-10T12:41:42Z</time>
      </trkpt>
      <trkpt lat="47.82608" lon="-3.52888">
        <ele>43.65</ele>
        <time>2020-07-10T12:41:43Z</time>
      </trkpt>
      <trkpt lat="47.82611" lon="-3.52894">
        <ele>43.77</ele>
        <time>2020-07-10T12:41:44Z</time>
      </trkpt>
      <trkpt lat="47.82615" lon="-3.52902">
        <ele>43.86</ele>
        <time>2020-07-10T12:41:45Z</time>
      </trkpt>
      <trkpt lat="47.82618" lon="-3.52909">
        <ele>43.95</ele>
        <time>2020-07-10T12:41:46Z</time>
      </trkpt>
      <trkpt lat="47.82621" lon="-3.52917">
        <ele>44.01</ele>
        <time>2020-07-10T12:41:47Z</time>
      </trkpt>
      <trkpt lat="47.82624" lon="-3.52924">
        <ele>44.27</ele>
        <time>2020-07-10T12:41:48Z</time>
      </trkpt>
      <trkpt lat="47.82627" lon="-3.52931">
        <ele>44.52</ele>
        <time>2020-07-10T12:41:49Z</time>
      </trkpt>
      <trkpt lat="47.8263" lon="-3.52938">
        <ele>44.69</ele>
        <time>2020-07-10T12:41:50Z</time>
      </trkpt>
      <trkpt lat="47.82633" lon="-3.52945">
        <ele>44.75</ele>
        <time>2020-07-10T12:41:51Z</time>
      </trkpt>
      <trkpt lat="47.82637" lon="-3.52954">
        <ele>44.85</ele>
        <time>2020-07-10T12:41:52Z</time>
      </trkpt>
      <trkpt lat="47.82639" lon="-3.52962">
        <ele>44.96</ele>
        <time>2020-07-10T12:41:53Z</time>
      </trkpt>
      <trkpt lat="47.82641" lon="-3.5297">
        <ele>45.09</ele>
        <time>2020-07-10T12:41:54Z</time>
      </trkpt>
      <trkpt lat="47.82642" lon="-3.52977">
        <ele>45.18</ele>
        <time>2020-07-10T12:41:55Z</time>
      </trkpt>
      <trkpt lat="47.82643" lon="-3.52984">
        <ele>45.25</ele>
        <time>2020-07-10T12:41:56Z</time>
      </trkpt>
      <trkpt lat="47.82643" lon="-3.52992">
        <ele>45.31</ele>
        <time>2020-07-10T12:41:57Z</time>
      </trkpt>
      <trkpt lat="47.82644" lon="-3.52999">
        <ele>45.33</ele>
        <time>2020-07-10T12:41:58Z</time>
      </trkpt>
      <trkpt lat="47.82643" lon="-3.53007">
        <ele>45.46</ele>
        <time>2020-07-10T12:41:59Z</time>
      </trkpt>
      <trkpt lat="47.82643" lon="-3.53014">
        <ele>45.65</ele>
        <time>2020-07-10T12:42:00Z</time>
      </trkpt>
      <trkpt lat="47.82643" lon="-3.53021">
        <ele>45.86</ele>
        <time>2020-07-10T12:42:01Z</time>
      </trkpt>
      <trkpt lat="47.82643" lon="-3.53029">
        <ele>46.08</ele>
        <time>2020-07-10T12:42:02Z</time>
      </trkpt>
      <trkpt lat="47.82643" lon="-3.53036">
        <ele>46.31</ele>
        <time>2020-07-10T12:42:03Z</time>
      </trkpt>
      <trkpt lat="47.82642" lon="-3.53043">
        <ele>46.56</ele>
        <time>2020-07-10T12:42:04Z</time>
      </trkpt>
      <trkpt lat="47.82641" lon="-3.53051">
        <ele>46.81</ele>
        <time>2020-07-10T12:42:05Z</time>
      </trkpt>
      <trkpt lat="47.8264" lon="-3.53058">
        <ele>47.06</ele>
        <time>2020-07-10T12:42:06Z</time>
      </trkpt>
      <trkpt lat="47.8264" lon="-3.53066">
        <ele>47.29</ele>
        <time>2020-07-10T12:42:07Z</time>
      </trkpt>
      <trkpt lat="47.82639" lon="-3.53073">
        <ele>47.51</ele>
        <time>2020-07-10T12:42:08Z</time>
      </trkpt>
      <trkpt lat="47.82637" lon="-3.5308">
        <ele>47.7</ele>
        <time>2020-07-10T12:42:09Z</time>
      </trkpt>
      <trkpt lat="47.82637" lon="-3.53087">
        <ele>47.81</ele>
        <time>2020-07-10T12:42:10Z</time>
      </trkpt>
      <trkpt lat="47.82636" lon="-3.53095">
        <ele>47.8</ele>
        <time>2020-07-10T12:42:11Z</time>
      </trkpt>
      <trkpt lat="47.82636" lon="-3.53102">
        <ele>47.77</ele>
        <time>2020-07-10T12:42:12Z</time>
      </trkpt>
      <trkpt lat="47.82635" lon="-3.5311">
        <ele>47.72</ele>
        <time>2020-07-10T12:42:13Z</time>
      </trkpt>
      <trkpt lat="47.82634" lon="-3.53118">
        <ele>47.67</ele>
        <time>2020-07-10T12:42:14Z</time>
      </trkpt>
      <trkpt lat="47.82634" lon="-3.53125">
        <ele>47.63</ele>
        <time>2020-07-10T12:42:15Z</time>
      </trkpt>
      <trkpt lat="47.82633" lon="-3.53132">
        <ele>47.59</ele>
        <time>2020-07-10T12:42:16Z</time>
      </trkpt>
      <trkpt lat="47.82632" lon="-3.5314">
        <ele>47.55</ele>
        <time>2020-07-10T12:42:17Z</time>
      </trkpt>
      <trkpt lat="47.82632" lon="-3.53148">
        <ele>47.51</ele>
        <time>2020-07-10T12:42:18Z</time>
      </trkpt>
      <trkpt lat="47.82631" lon="-3.53156">
        <ele>47.45</ele>
        <time>2020-07-10T12:42:19Z</time>
      </trkpt>
      <trkpt lat="47.8263" lon="-3.53164">
        <ele>47.41</ele>
        <time>2020-07-10T12:42:20Z</time>
      </trkpt>
      <trkpt lat="47.82629" lon="-3.53172">
        <ele>47.34</ele>
        <time>2020-07-10T12:42:21Z</time>
      </trkpt>
      <trkpt lat="47.82628" lon="-3.53181">
        <ele>47.27</ele>
        <time>2020-07-10T12:42:22Z</time>
      </trkpt>
      <trkpt lat="47.82627" lon="-3.53189">
        <ele>47.2</ele>
        <time>2020-07-10T12:42:23Z</time>
      </trkpt>
      <trkpt lat="47.82626" lon="-3.53197">
        <ele>47.08</ele>
        <time>2020-07-10T12:42:24Z</time>
      </trkpt>
      <trkpt lat="47.82625" lon="-3.53206">
        <ele>46.9</ele>
        <time>2020-07-10T12:42:25Z</time>
      </trkpt>
      <trkpt lat="47.82624" lon="-3.53214">
        <ele>46.7</ele>
        <time>2020-07-10T12:42:26Z</time>
      </trkpt>
      <trkpt lat="47.82624" lon="-3.53223">
        <ele>46.52</ele>
        <time>2020-07-10T12:42:27Z</time>
      </trkpt>
      <trkpt lat="47.82623" lon="-3.53231">
        <ele>46.32</ele>
        <time>2020-07-10T12:42:28Z</time>
      </trkpt>
      <trkpt lat="47.82622" lon="-3.5324">
        <ele>46.1</ele>
        <time>2020-07-10T12:42:29Z</time>
      </trkpt>
      <trkpt lat="47.82621" lon="-3.53249">
        <ele>45.85</ele>
        <time>2020-07-10T12:42:30Z</time>
      </trkpt>
      <trkpt lat="47.8262" lon="-3.53257">
        <ele>45.54</ele>
        <time>2020-07-10T12:42:31Z</time>
      </trkpt>
      <trkpt lat="47.82619" lon="-3.53267">
        <ele>45.16</ele>
        <time>2020-07-10T12:42:32Z</time>
      </trkpt>
      <trkpt lat="47.82618" lon="-3.53276">
        <ele>44.75</ele>
        <time>2020-07-10T12:42:33Z</time>
      </trkpt>
      <trkpt lat="47.82617" lon="-3.53285">
        <ele>44.33</ele>
        <time>2020-07-10T12:42:34Z</time>
      </trkpt>
      <trkpt lat="47.82616" lon="-3.53295">
        <ele>43.91</ele>
        <time>2020-07-10T12:42:35Z</time>
      </trkpt>
      <trkpt lat="47.82615" lon="-3.53304">
        <ele>43.5</ele>
        <time>2020-07-10T12:42:36Z</time>
      </trkpt>
      <trkpt lat="47.82614" lon="-3.53313">
        <ele>43.08</ele>
        <time>2020-07-10T12:42:37Z</time>
      </trkpt>
      <trkpt lat="47.82612" lon="-3.53322">
        <ele>42.65</ele>
        <time>2020-07-10T12:42:38Z</time>
      </trkpt>
      <trkpt lat="47.82611" lon="-3.53332">
        <ele>42.22</ele>
        <time>2020-07-10T12:42:39Z</time>
      </trkpt>
      <trkpt lat="47.8261" lon="-3.53341">
        <ele>41.82</ele>
        <time>2020-07-10T12:42:40Z</time>
      </trkpt>
      <trkpt lat="47.82609" lon="-3.53351">
        <ele>41.37</ele>
        <time>2020-07-10T12:42:41Z</time>
      </trkpt>
      <trkpt lat="47.82607" lon="-3.53362">
        <ele>40.8</ele>
        <time>2020-07-10T12:42:42Z</time>
      </trkpt>
      <trkpt lat="47.82605" lon="-3.53372">
        <ele>40.24</ele>
        <time>2020-07-10T12:42:43Z</time>
      </trkpt>
      <trkpt lat="47.82604" lon="-3.53383">
        <ele>39.69</ele>
        <time>2020-07-10T12:42:44Z</time>
      </trkpt>
      <trkpt lat="47.82603" lon="-3.53393">
        <ele>39.27</ele>
        <time>2020-07-10T12:42:45Z</time>
      </trkpt>
      <trkpt lat="47.82601" lon="-3.53403">
        <ele>39.05</ele>
        <time>2020-07-10T12:42:46Z</time>
      </trkpt>
      <trkpt lat="47.826" lon="-3.53412">
        <ele>38.9</ele>
        <time>2020-07-10T12:42:47Z</time>
      </trkpt>
      <trkpt lat="47.826" lon="-3.53422">
        <ele>38.79</ele>
        <time>2020-07-10T12:42:48Z</time>
      </trkpt>
      <trkpt lat="47.82599" lon="-3.53432">
        <ele>38.73</ele>
        <time>2020-07-10T12:42:49Z</time>
      </trkpt>
      <trkpt lat="47.82598" lon="-3.53442">
        <ele>38.65</ele>
        <time>2020-07-10T12:42:50Z</time>
      </trkpt>
      <trkpt lat="47.82597" lon="-3.53452">
        <ele>38.67</ele>
        <time>2020-07-10T12:42:51Z</time>
      </trkpt>
      <trkpt lat="47.82597" lon="-3.53462">
        <ele>38.73</ele>
        <time>2020-07-10T12:42:52Z</time>
      </trkpt>
      <trkpt lat="47.82596" lon="-3.53471">
        <ele>38.75</ele>
        <time>2020-07-10T12:42:53Z</time>
      </trkpt>
      <trkpt lat="47.82594" lon="-3.53481">
        <ele>38.78</ele>
        <time>2020-07-10T12:42:54Z</time>
      </trkpt>
      <trkpt lat="47.82594" lon="-3.5349">
        <ele>38.89</ele>
        <time>2020-07-10T12:42:55Z</time>
      </trkpt>
      <trkpt lat="47.82594" lon="-3.53499">
        <ele>39.03</ele>
        <time>2020-07-10T12:42:56Z</time>
      </trkpt>
      <trkpt lat="47.82593" lon="-3.53509">
        <ele>39.25</ele>
        <time>2020-07-10T12:42:57Z</time>
      </trkpt>
      <trkpt lat="47.82592" lon="-3.53519">
        <ele>39.49</ele>
        <time>2020-07-10T12:42:58Z</time>
      </trkpt>
      <trkpt lat="47.82591" lon="-3.53527">
        <ele>39.7</ele>
        <time>2020-07-10T12:42:59Z</time>
      </trkpt>
      <trkpt lat="47.8259" lon="-3.53537">
        <ele>39.69</ele>
        <time>2020-07-10T12:43:00Z</time>
      </trkpt>
      <trkpt lat="47.82589" lon="-3.53546">
        <ele>39.62</ele>
        <time>2020-07-10T12:43:01Z</time>
      </trkpt>
      <trkpt lat="47.82588" lon="-3.53555">
        <ele>39.54</ele>
        <time>2020-07-10T12:43:02Z</time>
      </trkpt>
      <trkpt lat="47.82587" lon="-3.53565">
        <ele>39.45</ele>
        <time>2020-07-10T12:43:03Z</time>
      </trkpt>
      <trkpt lat="47.82585" lon="-3.53573">
        <ele>39.26</ele>
        <time>2020-07-10T12:43:04Z</time>
      </trkpt>
      <trkpt lat="47.82582" lon="-3.53581">
        <ele>38.99</ele>
        <time>2020-07-10T12:43:05Z</time>
      </trkpt>
      <trkpt lat="47.82578" lon="-3.53588">
        <ele>38.83</ele>
        <time>2020-07-10T12:43:06Z</time>
      </trkpt>
      <trkpt lat="47.82572" lon="-3.53594">
        <ele>38.64</ele>
        <time>2020-07-10T12:43:07Z</time>
      </trkpt>
      <trkpt lat="47.82567" lon="-3.53598">
        <ele>38.41</ele>
        <time>2020-07-10T12:43:08Z</time>
      </trkpt>
      <trkpt lat="47.82561" lon="-3.53601">
        <ele>38.13</ele>
        <time>2020-07-10T12:43:09Z</time>
      </trkpt>
      <trkpt lat="47.82555" lon="-3.53602">
        <ele>37.79</ele>
        <time>2020-07-10T12:43:10Z</time>
      </trkpt>
      <trkpt lat="47.82549" lon="-3.53604">
        <ele>37.44</ele>
        <time>2020-07-10T12:43:11Z</time>
      </trkpt>
      <trkpt lat="47.82545" lon="-3.53604">
        <ele>37.11</ele>
        <time>2020-07-10T12:43:12Z</time>
      </trkpt>
      <trkpt lat="47.82542" lon="-3.53604">
        <ele>36.86</ele>
        <time>2020-07-10T12:43:13Z</time>
      </trkpt>
      <trkpt lat="47.8254" lon="-3.53604">
        <ele>36.71</ele>
        <time>2020-07-10T12:43:14Z</time>
      </trkpt>
      <trkpt lat="47.82539" lon="-3.53604">
        <ele>36.62</ele>
        <time>2020-07-10T12:43:15Z</time>
      </trkpt>
      <trkpt lat="47.82539" lon="-3.53603">
        <ele>36.57</ele>
        <time>2020-07-10T12:43:16Z</time>
      </trkpt>
      <trkpt lat="47.82539" lon="-3.53602">
        <ele>36.53</ele>
        <time>2020-07-10T12:43:17Z</time>
      </trkpt>
      <trkpt lat="47.8254" lon="-3.53602">
        <ele>36.52</ele>
        <time>2020-07-10T12:43:18Z</time>
      </trkpt>
      <trkpt lat="47.8254" lon="-3.53602">
        <ele>36.52</ele>
        <time>2020-07-10T12:43:19Z</time>
      </trkpt>
      <trkpt lat="47.8254" lon="-3.53602">
        <ele>36.52</ele>
        <time>2020-07-10T12:43:20Z</time>
      </trkpt>
      <trkpt lat="47.8254" lon="-3.53602">
        <ele>36.52</ele>
        <time>2020-07-10T12:43:21Z</time>
      </trkpt>
      <trkpt lat="47.82545" lon="-3.53602">
        <ele>36.8</ele>
        <time>2020-07-10T12:43:22Z</time>
      </trkpt>
      <trkpt lat="47.82547" lon="-3.53602">
        <ele>36.97</ele>
        <time>2020-07-10T12:43:23Z</time>
      </trkpt>
      <trkpt lat="47.8255" lon="-3.53602">
        <ele>37.16</ele>
        <time>2020-07-10T12:43:24Z</time>
      </trkpt>
      <trkpt lat="47.82553" lon="-3.53602">
        <ele>37.37</ele>
        <time>2020-07-10T12:43:25Z</time>
      </trkpt>
      <trkpt lat="47.82556" lon="-3.53602">
        <ele>37.58</ele>
        <time>2020-07-10T12:43:26Z</time>
      </trkpt>
      <trkpt lat="47.82559" lon="-3.53602">
        <ele>37.83</ele>
        <time>2020-07-10T12:43:27Z</time>
      </trkpt>
      <trkpt lat="47.82562" lon="-3.53601">
        <ele>38.05</ele>
        <time>2020-07-10T12:43:28Z</time>
      </trkpt>
      <trkpt lat="47.82565" lon="-3.53601">
        <ele>38.26</ele>
        <time>2020-07-10T12:43:29Z</time>
      </trkpt>
      <trkpt lat="47.82568" lon="-3.536">
        <ele>38.45</ele>
        <time>2020-07-10T12:43:30Z</time>
      </trkpt>
      <trkpt lat="47.82571" lon="-3.53599">
        <ele>38.63</ele>
        <time>2020-07-10T12:43:31Z</time>
      </trkpt>
      <trkpt lat="47.82574" lon="-3.53597">
        <ele>38.76</ele>
        <time>2020-07-10T12:43:32Z</time>
      </trkpt>
      <trkpt lat="47.82577" lon="-3.53594">
        <ele>38.87</ele>
        <time>2020-07-10T12:43:33Z</time>
      </trkpt>
      <trkpt lat="47.8258" lon="-3.5359">
        <ele>38.95</ele>
        <time>2020-07-10T12:43:34Z</time>
      </trkpt>
      <trkpt lat="47.82581" lon="-3.53587">
        <ele>38.99</ele>
        <time>2020-07-10T12:43:35Z</time>
      </trkpt>
      <trkpt lat="47.82583" lon="-3.53584">
        <ele>39.01</ele>
        <time>2020-07-10T12:43:36Z</time>
      </trkpt>
      <trkpt lat="47.82585" lon="-3.53583">
        <ele>39.22</ele>
        <time>2020-07-10T12:43:37Z</time>
      </trkpt>
      <trkpt lat="47.82588" lon="-3.53582">
        <ele>39.58</ele>
        <time>2020-07-10T12:43:38Z</time>
      </trkpt>
      <trkpt lat="47.82591" lon="-3.53583">
        <ele>39.93</ele>
        <time>2020-07-10T12:43:39Z</time>
      </trkpt>
      <trkpt lat="47.82593" lon="-3.53586">
        <ele>40.26</ele>
        <time>2020-07-10T12:43:40Z</time>
      </trkpt>
      <trkpt lat="47.82594" lon="-3.53588">
        <ele>40.51</ele>
        <time>2020-07-10T12:43:41Z</time>
      </trkpt>
      <trkpt lat="47.82595" lon="-3.53591">
        <ele>40.76</ele>
        <time>2020-07-10T12:43:42Z</time>
      </trkpt>
      <trkpt lat="47.82597" lon="-3.53594">
        <ele>41</ele>
        <time>2020-07-10T12:43:43Z</time>
      </trkpt>
      <trkpt lat="47.82597" lon="-3.53598">
        <ele>41.2</ele>
        <time>2020-07-10T12:43:44Z</time>
      </trkpt>
      <trkpt lat="47.82598" lon="-3.53601">
        <ele>41.4</ele>
        <time>2020-07-10T12:43:45Z</time>
      </trkpt>
      <trkpt lat="47.82598" lon="-3.53606">
        <ele>41.51</ele>
        <time>2020-07-10T12:43:46Z</time>
      </trkpt>
      <trkpt lat="47.82598" lon="-3.5361">
        <ele>41.55</ele>
        <time>2020-07-10T12:43:47Z</time>
      </trkpt>
      <trkpt lat="47.82596" lon="-3.53614">
        <ele>41.38</ele>
        <time>2020-07-10T12:43:48Z</time>
      </trkpt>
      <trkpt lat="47.82594" lon="-3.53618">
        <ele>41.03</ele>
        <time>2020-07-10T12:43:49Z</time>
      </trkpt>
      <trkpt lat="47.82592" lon="-3.53623">
        <ele>40.66</ele>
        <time>2020-07-10T12:43:50Z</time>
      </trkpt>
      <trkpt lat="47.8259" lon="-3.53627">
        <ele>40.26</ele>
        <time>2020-07-10T12:43:51Z</time>
      </trkpt>
      <trkpt lat="47.82587" lon="-3.53633">
        <ele>39.84</ele>
        <time>2020-07-10T12:43:52Z</time>
      </trkpt>
      <trkpt lat="47.82585" lon="-3.53639">
        <ele>39.42</ele>
        <time>2020-07-10T12:43:53Z</time>
      </trkpt>
      <trkpt lat="47.82584" lon="-3.53644">
        <ele>39.01</ele>
        <time>2020-07-10T12:43:54Z</time>
      </trkpt>
      <trkpt lat="47.82582" lon="-3.53651">
        <ele>38.66</ele>
        <time>2020-07-10T12:43:55Z</time>
      </trkpt>
      <trkpt lat="47.82582" lon="-3.53657">
        <ele>38.36</ele>
        <time>2020-07-10T12:43:56Z</time>
      </trkpt>
      <trkpt lat="47.82581" lon="-3.53665">
        <ele>38.02</ele>
        <time>2020-07-10T12:43:57Z</time>
      </trkpt>
      <trkpt lat="47.8258" lon="-3.53671">
        <ele>37.73</ele>
        <time>2020-07-10T12:43:58Z</time>
      </trkpt>
      <trkpt lat="47.8258" lon="-3.53676">
        <ele>37.51</ele>
        <time>2020-07-10T12:43:59Z</time>
      </trkpt>
      <trkpt lat="47.8258" lon="-3.5368">
        <ele>37.34</ele>
        <time>2020-07-10T12:44:00Z</time>
      </trkpt>
      <trkpt lat="47.82581" lon="-3.53683">
        <ele>37.26</ele>
        <time>2020-07-10T12:44:01Z</time>
      </trkpt>
      <trkpt lat="47.82581" lon="-3.53686">
        <ele>37.17</ele>
        <time>2020-07-10T12:44:02Z</time>
      </trkpt>
      <trkpt lat="47.82581" lon="-3.53689">
        <ele>37.08</ele>
        <time>2020-07-10T12:44:03Z</time>
      </trkpt>
      <trkpt lat="47.82582" lon="-3.53693">
        <ele>36.99</ele>
        <time>2020-07-10T12:44:04Z</time>
      </trkpt>
      <trkpt lat="47.82582" lon="-3.53697">
        <ele>36.79</ele>
        <time>2020-07-10T12:44:05Z</time>
      </trkpt>
      <trkpt lat="47.82584" lon="-3.53703">
        <ele>36.52</ele>
        <time>2020-07-10T12:44:06Z</time>
      </trkpt>
      <trkpt lat="47.82585" lon="-3.53708">
        <ele>36.36</ele>
        <time>2020-07-10T12:44:07Z</time>
      </trkpt>
      <trkpt lat="47.82586" lon="-3.53712">
        <ele>36.18</ele>
        <time>2020-07-10T12:44:08Z</time>
      </trkpt>
      <trkpt lat="47.82587" lon="-3.53715">
        <ele>36.09</ele>
        <time>2020-07-10T12:44:09Z</time>
      </trkpt>
      <trkpt lat="47.82586" lon="-3.53719">
        <ele>35.8</ele>
        <time>2020-07-10T12:44:10Z</time>
      </trkpt>
      <trkpt lat="47.82586" lon="-3.53723">
        <ele>35.49</ele>
        <time>2020-07-10T12:44:11Z</time>
      </trkpt>
      <trkpt lat="47.82584" lon="-3.53729">
        <ele>35.08</ele>
        <time>2020-07-10T12:44:12Z</time>
      </trkpt>
      <trkpt lat="47.82583" lon="-3.53734">
        <ele>34.72</ele>
        <time>2020-07-10T12:44:13Z</time>
      </trkpt>
      <trkpt lat="47.82581" lon="-3.53738">
        <ele>34.4</ele>
        <time>2020-07-10T12:44:14Z</time>
      </trkpt>
      <trkpt lat="47.82578" lon="-3.53742">
        <ele>34.09</ele>
        <time>2020-07-10T12:44:15Z</time>
      </trkpt>
      <trkpt lat="47.82574" lon="-3.53748">
        <ele>33.65</ele>
        <time>2020-07-10T12:44:16Z</time>
      </trkpt>
      <trkpt lat="47.82572" lon="-3.53749">
        <ele>33.34</ele>
        <time>2020-07-10T12:44:17Z</time>
      </trkpt>
      <trkpt lat="47.82569" lon="-3.53751">
        <ele>33.08</ele>
        <time>2020-07-10T12:44:18Z</time>
      </trkpt>
      <trkpt lat="47.82567" lon="-3.53752">
        <ele>32.82</ele>
        <time>2020-07-10T12:44:19Z</time>
      </trkpt>
      <trkpt lat="47.82564" lon="-3.53753">
        <ele>32.56</ele>
        <time>2020-07-10T12:44:20Z</time>
      </trkpt>
      <trkpt lat="47.8256" lon="-3.53754">
        <ele>32.21</ele>
        <time>2020-07-10T12:44:21Z</time>
      </trkpt>
      <trkpt lat="47.82556" lon="-3.53756">
        <ele>31.78</ele>
        <time>2020-07-10T12:44:22Z</time>
      </trkpt>
      <trkpt lat="47.82552" lon="-3.53759">
        <ele>31.39</ele>
        <time>2020-07-10T12:44:23Z</time>
      </trkpt>
      <trkpt lat="47.82549" lon="-3.53763">
        <ele>31</ele>
        <time>2020-07-10T12:44:24Z</time>
      </trkpt>
      <trkpt lat="47.82548" lon="-3.53768">
        <ele>30.61</ele>
        <time>2020-07-10T12:44:25Z</time>
      </trkpt>
      <trkpt lat="47.82547" lon="-3.53773">
        <ele>30.22</ele>
        <time>2020-07-10T12:44:26Z</time>
      </trkpt>
      <trkpt lat="47.82546" lon="-3.53778">
        <ele>29.78</ele>
        <time>2020-07-10T12:44:27Z</time>
      </trkpt>
      <trkpt lat="47.82543" lon="-3.53784">
        <ele>28.8</ele>
        <time>2020-07-10T12:44:28Z</time>
      </trkpt>
      <trkpt lat="47.82541" lon="-3.5379">
        <ele>27.61</ele>
        <time>2020-07-10T12:44:29Z</time>
      </trkpt>
      <trkpt lat="47.82539" lon="-3.53797">
        <ele>26.31</ele>
        <time>2020-07-10T12:44:30Z</time>
      </trkpt>
      <trkpt lat="47.82538" lon="-3.53803">
        <ele>25.04</ele>
        <time>2020-07-10T12:44:31Z</time>
      </trkpt>
      <trkpt lat="47.82537" lon="-3.53807">
        <ele>24.14</ele>
        <time>2020-07-10T12:44:32Z</time>
      </trkpt>
      <trkpt lat="47.82536" lon="-3.53809">
        <ele>23.38</ele>
        <time>2020-07-10T12:44:33Z</time>
      </trkpt>
      <trkpt lat="47.82536" lon="-3.53812">
        <ele>22.57</ele>
        <time>2020-07-10T12:44:34Z</time>
      </trkpt>
      <trkpt lat="47.82535" lon="-3.53816">
        <ele>21.63</ele>
        <time>2020-07-10T12:44:35Z</time>
      </trkpt>
      <trkpt lat="47.82532" lon="-3.53821">
        <ele>20.59</ele>
        <time>2020-07-10T12:44:36Z</time>
      </trkpt>
      <trkpt lat="47.82531" lon="-3.53825">
        <ele>19.55</ele>
        <time>2020-07-10T12:44:37Z</time>
      </trkpt>
      <trkpt lat="47.82531" lon="-3.53829">
        <ele>18.53</ele>
        <time>2020-07-10T12:44:38Z</time>
      </trkpt>
      <trkpt lat="47.8253" lon="-3.53833">
        <ele>17.43</ele>
        <time>2020-07-10T12:44:39Z</time>
      </trkpt>
      <trkpt lat="47.8253" lon="-3.53838">
        <ele>16.32</ele>
        <time>2020-07-10T12:44:40Z</time>
      </trkpt>
      <trkpt lat="47.82528" lon="-3.53843">
        <ele>15.27</ele>
        <time>2020-07-10T12:44:41Z</time>
      </trkpt>
      <trkpt lat="47.82526" lon="-3.53848">
        <ele>14.18</ele>
        <time>2020-07-10T12:44:42Z</time>
      </trkpt>
      <trkpt lat="47.82525" lon="-3.53852">
        <ele>13.21</ele>
        <time>2020-07-10T12:44:43Z</time>
      </trkpt>
      <trkpt lat="47.82524" lon="-3.53856">
        <ele>12.32</ele>
        <time>2020-07-10T12:44:44Z</time>
      </trkpt>
      <trkpt lat="47.82523" lon="-3.5386">
        <ele>11.42</ele>
        <time>2020-07-10T12:44:45Z</time>
      </trkpt>
      <trkpt lat="47.82523" lon="-3.53865">
        <ele>10.46</ele>
        <time>2020-07-10T12:44:46Z</time>
      </trkpt>
      <trkpt lat="47.82522" lon="-3.53867">
        <ele>9.74</ele>
        <time>2020-07-10T12:44:47Z</time>
      </trkpt>
      <trkpt lat="47.8252" lon="-3.53869">
        <ele>9.17</ele>
        <time>2020-07-10T12:44:48Z</time>
      </trkpt>
      <trkpt lat="47.82516" lon="-3.5387">
        <ele>8.9</ele>
        <time>2020-07-10T12:44:49Z</time>
      </trkpt>
      <trkpt lat="47.82514" lon="-3.53869">
        <ele>8.77</ele>
        <time>2020-07-10T12:44:50Z</time>
      </trkpt>
      <trkpt lat="47.82511" lon="-3.5387">
        <ele>8.62</ele>
        <time>2020-07-10T12:44:51Z</time>
      </trkpt>
      <trkpt lat="47.82509" lon="-3.5387">
        <ele>8.49</ele>
        <time>2020-07-10T12:44:52Z</time>
      </trkpt>
      <trkpt lat="47.82506" lon="-3.5387">
        <ele>8.4</ele>
        <time>2020-07-10T12:44:53Z</time>
      </trkpt>
      <trkpt lat="47.82503" lon="-3.5387">
        <ele>8.24</ele>
        <time>2020-07-10T12:44:54Z</time>
      </trkpt>
      <trkpt lat="47.82499" lon="-3.5387">
        <ele>8.06</ele>
        <time>2020-07-10T12:44:55Z</time>
      </trkpt>
      <trkpt lat="47.82496" lon="-3.5387">
        <ele>8.02</ele>
        <time>2020-07-10T12:44:56Z</time>
      </trkpt>
      <trkpt lat="47.82492" lon="-3.53869">
        <ele>7.97</ele>
        <time>2020-07-10T12:44:57Z</time>
      </trkpt>
      <trkpt lat="47.82489" lon="-3.53869">
        <ele>7.88</ele>
        <time>2020-07-10T12:44:58Z</time>
      </trkpt>
      <trkpt lat="47.82485" lon="-3.53869">
        <ele>7.8</ele>
        <time>2020-07-10T12:44:59Z</time>
      </trkpt>
      <trkpt lat="47.82481" lon="-3.5387">
        <ele>7.6</ele>
        <time>2020-07-10T12:45:00Z</time>
      </trkpt>
      <trkpt lat="47.82478" lon="-3.5387">
        <ele>7.43</ele>
        <time>2020-07-10T12:45:01Z</time>
      </trkpt>
      <trkpt lat="47.82474" lon="-3.5387">
        <ele>7.25</ele>
        <time>2020-07-10T12:45:02Z</time>
      </trkpt>
      <trkpt lat="47.8247" lon="-3.5387">
        <ele>7.16</ele>
        <time>2020-07-10T12:45:03Z</time>
      </trkpt>
      <trkpt lat="47.82466" lon="-3.5387">
        <ele>7.09</ele>
        <time>2020-07-10T12:45:04Z</time>
      </trkpt>
      <trkpt lat="47.82462" lon="-3.53869">
        <ele>7.07</ele>
        <time>2020-07-10T12:45:05Z</time>
      </trkpt>
      <trkpt lat="47.82458" lon="-3.53869">
        <ele>7.05</ele>
        <time>2020-07-10T12:45:06Z</time>
      </trkpt>
      <trkpt lat="47.82454" lon="-3.53869">
        <ele>7.02</ele>
        <time>2020-07-10T12:45:07Z</time>
      </trkpt>
      <trkpt lat="47.8245" lon="-3.53868">
        <ele>7.05</ele>
        <time>2020-07-10T12:45:08Z</time>
      </trkpt>
      <trkpt lat="47.82446" lon="-3.53868">
        <ele>7.08</ele>
        <time>2020-07-10T12:45:09Z</time>
      </trkpt>
      <trkpt lat="47.82445" lon="-3.53867">
        <ele>7.12</ele>
        <time>2020-07-10T12:45:10Z</time>
      </trkpt>
      <trkpt lat="47.82443" lon="-3.53867">
        <ele>7.08</ele>
        <time>2020-07-10T12:45:11Z</time>
      </trkpt>
      <trkpt lat="47.82443" lon="-3.53867">
        <ele>7.09</ele>
        <time>2020-07-10T12:45:12Z</time>
      </trkpt>
      <trkpt lat="47.82443" lon="-3.53866">
        <ele>7.13</ele>
        <time>2020-07-10T12:45:13Z</time>
      </trkpt>
      <trkpt lat="47.82443" lon="-3.53866">
        <ele>7.14</ele>
        <time>2020-07-10T12:45:14Z</time>
      </trkpt>
      <trkpt lat="47.82443" lon="-3.53866">
        <ele>7.15</ele>
        <time>2020-07-10T12:45:15Z</time>
      </trkpt>
      <trkpt lat="47.82443" lon="-3.53866">
        <ele>7.15</ele>
        <time>2020-07-10T12:45:16Z</time>
      </trkpt>
      <trkpt lat="47.82443" lon="-3.53866">
        <ele>7.15</ele>
        <time>2020-07-10T12:45:17Z</time>
      </trkpt>
      <trkpt lat="47.82443" lon="-3.53866">
        <ele>7.15</ele>
        <time>2020-07-10T12:45:18Z</time>
      </trkpt>
      <trkpt lat="47.82443" lon="-3.53866">
        <ele>7.15</ele>
        <time>2020-07-10T12:45:19Z</time>
      </trkpt>
      <trkpt lat="47.82443" lon="-3.53866">
        <ele>7.15</ele>
        <time>2020-07-10T12:45:20Z</time>
      </trkpt>
      <trkpt lat="47.82443" lon="-3.53866">
        <ele>7.15</ele>
        <time>2020-07-10T12:45:21Z</time>
      </trkpt>
      <trkpt lat="47.82443" lon="-3.53866">
        <ele>7.15</ele>
        <time>2020-07-10T12:45:22Z</time>
      </trkpt>
      <trkpt lat="47.82443" lon="-3.53866">
        <ele>7.15</ele>
        <time>2020-07-10T12:45:23Z</time>
      </trkpt>
      <trkpt lat="47.82443" lon="-3.53866">
        <ele>7.15</ele>
        <time>2020-07-10T12:45:24Z</time>
      </trkpt>
      <trkpt lat="47.82443" lon="-3.53866">
        <ele>7.15</ele>
        <time>2020-07-10T12:45:25Z</time>
      </trkpt>
      <trkpt lat="47.82443" lon="-3.53866">
        <ele>7.15</ele>
        <time>2020-07-10T12:45:26Z</time>
      </trkpt>
      <trkpt lat="47.82443" lon="-3.53866">
        <ele>7.15</ele>
        <time>2020-07-10T12:45:27Z</time>
      </trkpt>
      <trkpt lat="47.82443" lon="-3.53866">
        <ele>7.15</ele>
        <time>2020-07-10T12:45:28Z</time>
      </trkpt>
      <trkpt lat="47.82443" lon="-3.53866">
        <ele>7.15</ele>
        <time>2020-07-10T12:45:29Z</time>
      </trkpt>
      <trkpt lat="47.82443" lon="-3.53866">
        <ele>7.15</ele>
        <time>2020-07-10T12:45:30Z</time>
      </trkpt>
      <trkpt lat="47.82443" lon="-3.53866">
        <ele>7.15</ele>
        <time>2020-07-10T12:45:31Z</time>
      </trkpt>
      <trkpt lat="47.82443" lon="-3.53866">
        <ele>7.15</ele>
        <time>2020-07-10T12:45:32Z</time>
      </trkpt>
      <trkpt lat="47.82443" lon="-3.53866">
        <ele>7.15</ele>
        <time>2020-07-10T12:45:33Z</time>
      </trkpt>
      <trkpt lat="47.82443" lon="-3.53866">
        <ele>7.15</ele>
        <time>2020-07-10T12:45:34Z</time>
      </trkpt>
      <trkpt lat="47.82443" lon="-3.53866">
        <ele>7.15</ele>
        <time>2020-07-10T12:45:35Z</time>
      </trkpt>
      <trkpt lat="47.82443" lon="-3.53866">
        <ele>7.15</ele>
        <time>2020-07-10T12:45:36Z</time>
      </trkpt>
      <trkpt lat="47.82443" lon="-3.53866">
        <ele>7.15</ele>
        <time>2020-07-10T12:45:37Z</time>
      </trkpt>
      <trkpt lat="47.82443" lon="-3.53866">
        <ele>7.15</ele>
        <time>2020-07-10T12:45:38Z</time>
      </trkpt>
      <trkpt lat="47.82443" lon="-3.53866">
        <ele>7.15</ele>
        <time>2020-07-10T12:45:39Z</time>
      </trkpt>
      <trkpt lat="47.82443" lon="-3.53866">
        <ele>7.15</ele>
        <time>2020-07-10T12:45:40Z</time>
      </trkpt>
      <trkpt lat="47.82443" lon="-3.53866">
        <ele>7.15</ele>
        <time>2020-07-10T12:45:41Z</time>
      </trkpt>
      <trkpt lat="47.82443" lon="-3.53866">
        <ele>7.15</ele>
        <time>2020-07-10T12:45:42Z</time>
      </trkpt>
      <trkpt lat="47.82443" lon="-3.53866">
        <ele>7.15</ele>
        <time>2020-07-10T12:45:43Z</time>
      </trkpt>
      <trkpt lat="47.82443" lon="-3.53866">
        <ele>7.15</ele>
        <time>2020-07-10T12:45:44Z</time>
      </trkpt>
      <trkpt lat="47.82443" lon="-3.53866">
        <ele>7.15</ele>
        <time>2020-07-10T12:45:45Z</time>
      </trkpt>
      <trkpt lat="47.82443" lon="-3.53866">
        <ele>7.15</ele>
        <time>2020-07-10T12:45:46Z</time>
      </trkpt>
      <trkpt lat="47.82443" lon="-3.53866">
        <ele>7.15</ele>
        <time>2020-07-10T12:45:47Z</time>
      </trkpt>
      <trkpt lat="47.82443" lon="-3.53866">
        <ele>7.15</ele>
        <time>2020-07-10T12:45:48Z</time>
      </trkpt>
      <trkpt lat="47.82443" lon="-3.53866">
        <ele>7.15</ele>
        <time>2020-07-10T12:45:49Z</time>
      </trkpt>
      <trkpt lat="47.82443" lon="-3.53866">
        <ele>7.15</ele>
        <time>2020-07-10T12:45:50Z</time>
      </trkpt>
      <trkpt lat="47.82443" lon="-3.53866">
        <ele>7.15</ele>
        <time>2020-07-10T12:45:51Z</time>
      </trkpt>
      <trkpt lat="47.82443" lon="-3.53866">
        <ele>7.15</ele>
        <time>2020-07-10T12:45:52Z</time>
      </trkpt>
      <trkpt lat="47.82443" lon="-3.53866">
        <ele>7.15</ele>
        <time>2020-07-10T12:45:53Z</time>
      </trkpt>
      <trkpt lat="47.82443" lon="-3.53866">
        <ele>7.15</ele>
        <time>2020-07-10T12:45:54Z</time>
      </trkpt>
      <trkpt lat="47.82443" lon="-3.53866">
        <ele>7.15</ele>
        <time>2020-07-10T12:45:55Z</time>
      </trkpt>
      <trkpt lat="47.82443" lon="-3.53866">
        <ele>7.15</ele>
        <time>2020-07-10T12:45:56Z</time>
      </trkpt>
      <trkpt lat="47.82443" lon="-3.53866">
        <ele>7.15</ele>
        <time>2020-07-10T12:45:57Z</time>
      </trkpt>
      <trkpt lat="47.82443" lon="-3.53866">
        <ele>7.15</ele>
        <time>2020-07-10T12:45:58Z</time>
      </trkpt>
      <trkpt lat="47.82443" lon="-3.53866">
        <ele>7.15</ele>
        <time>2020-07-10T12:45:59Z</time>
      </trkpt>
      <trkpt lat="47.82443" lon="-3.53866">
        <ele>7.15</ele>
        <time>2020-07-10T12:46:00Z</time>
      </trkpt>
      <trkpt lat="47.82443" lon="-3.53866">
        <ele>7.15</ele>
        <time>2020-07-10T12:46:01Z</time>
      </trkpt>
      <trkpt lat="47.82443" lon="-3.53866">
        <ele>7.15</ele>
        <time>2020-07-10T12:46:02Z</time>
      </trkpt>
      <trkpt lat="47.82443" lon="-3.53866">
        <ele>7.15</ele>
        <time>2020-07-10T12:46:03Z</time>
      </trkpt>
      <trkpt lat="47.82443" lon="-3.53866">
        <ele>7.15</ele>
        <time>2020-07-10T12:46:04Z</time>
      </trkpt>
      <trkpt lat="47.82443" lon="-3.53866">
        <ele>7.15</ele>
        <time>2020-07-10T12:46:05Z</time>
      </trkpt>
      <trkpt lat="47.82443" lon="-3.53866">
        <ele>7.15</ele>
        <time>2020-07-10T12:46:06Z</time>
      </trkpt>
      <trkpt lat="47.82443" lon="-3.53866">
        <ele>7.15</ele>
        <time>2020-07-10T12:46:07Z</time>
      </trkpt>
      <trkpt lat="47.82443" lon="-3.53866">
        <ele>7.15</ele>
        <time>2020-07-10T12:46:08Z</time>
      </trkpt>
      <trkpt lat="47.82443" lon="-3.53866">
        <ele>7.15</ele>
        <time>2020-07-10T12:46:09Z</time>
      </trkpt>
      <trkpt lat="47.82443" lon="-3.53866">
        <ele>7.15</ele>
        <time>2020-07-10T12:46:10Z</time>
      </trkpt>
      <trkpt lat="47.82443" lon="-3.53866">
        <ele>7.15</ele>
        <time>2020-07-10T12:46:11Z</time>
      </trkpt>
      <trkpt lat="47.82443" lon="-3.53866">
        <ele>7.15</ele>
        <time>2020-07-10T12:46:12Z</time>
      </trkpt>
      <trkpt lat="47.82443" lon="-3.53866">
        <ele>7.15</ele>
        <time>2020-07-10T12:46:13Z</time>
      </trkpt>
      <trkpt lat="47.82443" lon="-3.53866">
        <ele>7.15</ele>
        <time>2020-07-10T12:46:14Z</time>
      </trkpt>
      <trkpt lat="47.82443" lon="-3.53866">
        <ele>7.15</ele>
        <time>2020-07-10T12:46:15Z</time>
      </trkpt>
      <trkpt lat="47.82443" lon="-3.53866">
        <ele>7.15</ele>
        <time>2020-07-10T12:46:16Z</time>
      </trkpt>
      <trkpt lat="47.82443" lon="-3.53866">
        <ele>7.15</ele>
        <time>2020-07-10T12:46:17Z</time>
      </trkpt>
      <trkpt lat="47.82443" lon="-3.53866">
        <ele>7.15</ele>
        <time>2020-07-10T12:46:18Z</time>
      </trkpt>
      <trkpt lat="47.82443" lon="-3.53866">
        <ele>7.15</ele>
        <time>2020-07-10T12:46:19Z</time>
      </trkpt>
      <trkpt lat="47.82443" lon="-3.53866">
        <ele>7.15</ele>
        <time>2020-07-10T12:46:20Z</time>
      </trkpt>
      <trkpt lat="47.82443" lon="-3.53866">
        <ele>7.15</ele>
        <time>2020-07-10T12:46:21Z</time>
      </trkpt>
      <trkpt lat="47.82443" lon="-3.53866">
        <ele>7.15</ele>
        <time>2020-07-10T12:46:22Z</time>
      </trkpt>
      <trkpt lat="47.82443" lon="-3.53866">
        <ele>7.15</ele>
        <time>2020-07-10T12:46:23Z</time>
      </trkpt>
      <trkpt lat="47.82443" lon="-3.53866">
        <ele>7.15</ele>
        <time>2020-07-10T12:46:24Z</time>
      </trkpt>
      <trkpt lat="47.82443" lon="-3.53866">
        <ele>7.15</ele>
        <time>2020-07-10T12:46:25Z</time>
      </trkpt>
      <trkpt lat="47.82443" lon="-3.53866">
        <ele>7.15</ele>
        <time>2020-07-10T12:46:26Z</time>
      </trkpt>
      <trkpt lat="47.82443" lon="-3.53866">
        <ele>7.15</ele>
        <time>2020-07-10T12:46:27Z</time>
      </trkpt>
      <trkpt lat="47.82443" lon="-3.53866">
        <ele>7.15</ele>
        <time>2020-07-10T12:46:28Z</time>
      </trkpt>
      <trkpt lat="47.82443" lon="-3.53866">
        <ele>7.15</ele>
        <time>2020-07-10T12:46:29Z</time>
      </trkpt>
      <trkpt lat="47.82443" lon="-3.53866">
        <ele>7.15</ele>
        <time>2020-07-10T12:46:30Z</time>
      </trkpt>
      <trkpt lat="47.82443" lon="-3.53866">
        <ele>7.15</ele>
        <time>2020-07-10T12:46:31Z</time>
      </trkpt>
      <trkpt lat="47.82443" lon="-3.53866">
        <ele>7.15</ele>
        <time>2020-07-10T12:46:32Z</time>
      </trkpt>
      <trkpt lat="47.82443" lon="-3.53866">
        <ele>7.15</ele>
        <time>2020-07-10T12:46:33Z</time>
      </trkpt>
      <trkpt lat="47.82443" lon="-3.53866">
        <ele>7.15</ele>
        <time>2020-07-10T12:46:34Z</time>
      </trkpt>
      <trkpt lat="47.82443" lon="-3.53866">
        <ele>7.15</ele>
        <time>2020-07-10T12:46:35Z</time>
      </trkpt>
      <trkpt lat="47.82443" lon="-3.53866">
        <ele>7.15</ele>
        <time>2020-07-10T12:46:36Z</time>
      </trkpt>
      <trkpt lat="47.82443" lon="-3.53866">
        <ele>7.15</ele>
        <time>2020-07-10T12:46:37Z</time>
      </trkpt>
      <trkpt lat="47.82443" lon="-3.53866">
        <ele>7.15</ele>
        <time>2020-07-10T12:46:38Z</time>
      </trkpt>
      <trkpt lat="47.82443" lon="-3.53866">
        <ele>7.15</ele>
        <time>2020-07-10T12:46:39Z</time>
      </trkpt>
      <trkpt lat="47.82443" lon="-3.53866">
        <ele>7.15</ele>
        <time>2020-07-10T12:46:40Z</time>
      </trkpt>
      <trkpt lat="47.82443" lon="-3.53866">
        <ele>7.15</ele>
        <time>2020-07-10T12:46:41Z</time>
      </trkpt>
      <trkpt lat="47.82443" lon="-3.53866">
        <ele>7.15</ele>
        <time>2020-07-10T12:46:42Z</time>
      </trkpt>
      <trkpt lat="47.82443" lon="-3.53866">
        <ele>7.15</ele>
        <time>2020-07-10T12:46:43Z</time>
      </trkpt>
      <trkpt lat="47.82443" lon="-3.53866">
        <ele>7.15</ele>
        <time>2020-07-10T12:46:44Z</time>
      </trkpt>
      <trkpt lat="47.82443" lon="-3.53866">
        <ele>7.15</ele>
        <time>2020-07-10T12:46:45Z</time>
      </trkpt>
      <trkpt lat="47.82443" lon="-3.53866">
        <ele>7.15</ele>
        <time>2020-07-10T12:46:46Z</time>
      </trkpt>
      <trkpt lat="47.82443" lon="-3.53866">
        <ele>7.15</ele>
        <time>2020-07-10T12:46:47Z</time>
      </trkpt>
      <trkpt lat="47.82443" lon="-3.53866">
        <ele>7.15</ele>
        <time>2020-07-10T12:46:48Z</time>
      </trkpt>
      <trkpt lat="47.82443" lon="-3.53866">
        <ele>7.15</ele>
        <time>2020-07-10T12:46:49Z</time>
      </trkpt>
      <trkpt lat="47.82443" lon="-3.53866">
        <ele>7.15</ele>
        <time>2020-07-10T12:46:50Z</time>
      </trkpt>
      <trkpt lat="47.82443" lon="-3.53866">
        <ele>7.15</ele>
        <time>2020-07-10T12:46:51Z</time>
      </trkpt>
      <trkpt lat="47.82443" lon="-3.53866">
        <ele>7.15</ele>
        <time>2020-07-10T12:46:52Z</time>
      </trkpt>
      <trkpt lat="47.82443" lon="-3.53866">
        <ele>7.15</ele>
        <time>2020-07-10T12:46:53Z</time>
      </trkpt>
      <trkpt lat="47.82443" lon="-3.53866">
        <ele>7.15</ele>
        <time>2020-07-10T12:46:54Z</time>
      </trkpt>
      <trkpt lat="47.82443" lon="-3.53866">
        <ele>7.15</ele>
        <time>2020-07-10T12:46:55Z</time>
      </trkpt>
      <trkpt lat="47.82443" lon="-3.53866">
        <ele>7.15</ele>
        <time>2020-07-10T12:46:56Z</time>
      </trkpt>
      <trkpt lat="47.82436" lon="-3.53869">
        <ele>6.54</ele>
        <time>2020-07-10T12:46:57Z</time>
      </trkpt>
      <trkpt lat="47.82434" lon="-3.53869">
        <ele>6.21</ele>
        <time>2020-07-10T12:46:58Z</time>
      </trkpt>
      <trkpt lat="47.82432" lon="-3.53868">
        <ele>6.04</ele>
        <time>2020-07-10T12:46:59Z</time>
      </trkpt>
      <trkpt lat="47.82429" lon="-3.53868">
        <ele>5.84</ele>
        <time>2020-07-10T12:47:00Z</time>
      </trkpt>
      <trkpt lat="47.82425" lon="-3.53867">
        <ele>5.63</ele>
        <time>2020-07-10T12:47:01Z</time>
      </trkpt>
      <trkpt lat="47.82421" lon="-3.53866">
        <ele>5.35</ele>
        <time>2020-07-10T12:47:02Z</time>
      </trkpt>
      <trkpt lat="47.82418" lon="-3.53866">
        <ele>5.07</ele>
        <time>2020-07-10T12:47:03Z</time>
      </trkpt>
      <trkpt lat="47.82414" lon="-3.53864">
        <ele>4.87</ele>
        <time>2020-07-10T12:47:04Z</time>
      </trkpt>
      <trkpt lat="47.8241" lon="-3.53863">
        <ele>4.75</ele>
        <time>2020-07-10T12:47:05Z</time>
      </trkpt>
      <trkpt lat="47.82406" lon="-3.53861">
        <ele>4.7</ele>
        <time>2020-07-10T12:47:06Z</time>
      </trkpt>
      <trkpt lat="47.82403" lon="-3.53858">
        <ele>4.81</ele>
        <time>2020-07-10T12:47:07Z</time>
      </trkpt>
      <trkpt lat="47.82401" lon="-3.53856">
        <ele>4.97</ele>
        <time>2020-07-10T12:47:08Z</time>
      </trkpt>
      <trkpt lat="47.82399" lon="-3.53853">
        <ele>5.17</ele>
        <time>2020-07-10T12:47:09Z</time>
      </trkpt>
      <trkpt lat="47.82397" lon="-3.53851">
        <ele>5.34</ele>
        <time>2020-07-10T12:47:10Z</time>
      </trkpt>
      <trkpt lat="47.82396" lon="-3.53848">
        <ele>5.46</ele>
        <time>2020-07-10T12:47:11Z</time>
      </trkpt>
      <trkpt lat="47.82394" lon="-3.53846">
        <ele>5.58</ele>
        <time>2020-07-10T12:47:12Z</time>
      </trkpt>
      <trkpt lat="47.82393" lon="-3.53843">
        <ele>5.64</ele>
        <time>2020-07-10T12:47:13Z</time>
      </trkpt>
      <trkpt lat="47.82391" lon="-3.5384">
        <ele>5.7</ele>
        <time>2020-07-10T12:47:14Z</time>
      </trkpt>
      <trkpt lat="47.8239" lon="-3.53837">
        <ele>5.8</ele>
        <time>2020-07-10T12:47:15Z</time>
      </trkpt>
      <trkpt lat="47.82388" lon="-3.53834">
        <ele>5.9</ele>
        <time>2020-07-10T12:47:16Z</time>
      </trkpt>
      <trkpt lat="47.82386" lon="-3.53831">
        <ele>6.07</ele>
        <time>2020-07-10T12:47:17Z</time>
      </trkpt>
      <trkpt lat="47.82384" lon="-3.53827">
        <ele>6.44</ele>
        <time>2020-07-10T12:47:18Z</time>
      </trkpt>
      <trkpt lat="47.82382" lon="-3.53825">
        <ele>6.74</ele>
        <time>2020-07-10T12:47:19Z</time>
      </trkpt>
      <trkpt lat="47.8238" lon="-3.53822">
        <ele>6.97</ele>
        <time>2020-07-10T12:47:20Z</time>
      </trkpt>
      <trkpt lat="47.82378" lon="-3.53819">
        <ele>7.14</ele>
        <time>2020-07-10T12:47:21Z</time>
      </trkpt>
      <trkpt lat="47.82376" lon="-3.53817">
        <ele>7.16</ele>
        <time>2020-07-10T12:47:22Z</time>
      </trkpt>
      <trkpt lat="47.82374" lon="-3.53814">
        <ele>7.17</ele>
        <time>2020-07-10T12:47:23Z</time>
      </trkpt>
      <trkpt lat="47.82371" lon="-3.53812">
        <ele>7.14</ele>
        <time>2020-07-10T12:47:24Z</time>
      </trkpt>
      <trkpt lat="47.8237" lon="-3.53809">
        <ele>7.14</ele>
        <time>2020-07-10T12:47:25Z</time>
      </trkpt>
      <trkpt lat="47.82368" lon="-3.53807">
        <ele>7.13</ele>
        <time>2020-07-10T12:47:26Z</time>
      </trkpt>
      <trkpt lat="47.82367" lon="-3.53805">
        <ele>7.11</ele>
        <time>2020-07-10T12:47:27Z</time>
      </trkpt>
      <trkpt lat="47.82364" lon="-3.53802">
        <ele>7.17</ele>
        <time>2020-07-10T12:47:28Z</time>
      </trkpt>
      <trkpt lat="47.82362" lon="-3.538">
        <ele>7.22</ele>
        <time>2020-07-10T12:47:29Z</time>
      </trkpt>
      <trkpt lat="47.82361" lon="-3.53798">
        <ele>7.28</ele>
        <time>2020-07-10T12:47:30Z</time>
      </trkpt>
      <trkpt lat="47.8236" lon="-3.53797">
        <ele>7.37</ele>
        <time>2020-07-10T12:47:31Z</time>
      </trkpt>
      <trkpt lat="47.82357" lon="-3.53796">
        <ele>7.32</ele>
        <time>2020-07-10T12:47:32Z</time>
      </trkpt>
      <trkpt lat="47.82355" lon="-3.53795">
        <ele>7.1</ele>
        <time>2020-07-10T12:47:33Z</time>
      </trkpt>
      <trkpt lat="47.82352" lon="-3.53795">
        <ele>6.83</ele>
        <time>2020-07-10T12:47:34Z</time>
      </trkpt>
      <trkpt lat="47.82349" lon="-3.53794">
        <ele>6.63</ele>
        <time>2020-07-10T12:47:35Z</time>
      </trkpt>
      <trkpt lat="47.82346" lon="-3.53792">
        <ele>6.35</ele>
        <time>2020-07-10T12:47:36Z</time>
      </trkpt>
      <trkpt lat="47.82342" lon="-3.5379">
        <ele>6.06</ele>
        <time>2020-07-10T12:47:37Z</time>
      </trkpt>
      <trkpt lat="47.82339" lon="-3.53787">
        <ele>5.74</ele>
        <time>2020-07-10T12:47:38Z</time>
      </trkpt>
      <trkpt lat="47.82335" lon="-3.53783">
        <ele>5.32</ele>
        <time>2020-07-10T12:47:39Z</time>
      </trkpt>
      <trkpt lat="47.82332" lon="-3.53778">
        <ele>5.07</ele>
        <time>2020-07-10T12:47:40Z</time>
      </trkpt>
      <trkpt lat="47.82329" lon="-3.53771">
        <ele>5.22</ele>
        <time>2020-07-10T12:47:41Z</time>
      </trkpt>
      <trkpt lat="47.82326" lon="-3.53765">
        <ele>5.38</ele>
        <time>2020-07-10T12:47:42Z</time>
      </trkpt>
      <trkpt lat="47.82324" lon="-3.53761">
        <ele>5.42</ele>
        <time>2020-07-10T12:47:43Z</time>
      </trkpt>
      <trkpt lat="47.8232" lon="-3.53754">
        <ele>5.38</ele>
        <time>2020-07-10T12:47:44Z</time>
      </trkpt>
      <trkpt lat="47.82316" lon="-3.53749">
        <ele>5.29</ele>
        <time>2020-07-10T12:47:45Z</time>
      </trkpt>
      <trkpt lat="47.82313" lon="-3.53745">
        <ele>5.13</ele>
        <time>2020-07-10T12:47:46Z</time>
      </trkpt>
      <trkpt lat="47.82309" lon="-3.53742">
        <ele>4.88</ele>
        <time>2020-07-10T12:47:47Z</time>
      </trkpt>
      <trkpt lat="47.82305" lon="-3.53738">
        <ele>4.56</ele>
        <time>2020-07-10T12:47:48Z</time>
      </trkpt>
      <trkpt lat="47.82301" lon="-3.53736">
        <ele>4.47</ele>
        <time>2020-07-10T12:47:49Z</time>
      </trkpt>
      <trkpt lat="47.82297" lon="-3.53733">
        <ele>4.44</ele>
        <time>2020-07-10T12:47:50Z</time>
      </trkpt>
      <trkpt lat="47.82294" lon="-3.5373">
        <ele>4.42</ele>
        <time>2020-07-10T12:47:51Z</time>
      </trkpt>
      <trkpt lat="47.8229" lon="-3.53728">
        <ele>4.38</ele>
        <time>2020-07-10T12:47:52Z</time>
      </trkpt>
      <trkpt lat="47.82289" lon="-3.53725">
        <ele>4.36</ele>
        <time>2020-07-10T12:47:53Z</time>
      </trkpt>
      <trkpt lat="47.82286" lon="-3.53722">
        <ele>4.33</ele>
        <time>2020-07-10T12:47:54Z</time>
      </trkpt>
      <trkpt lat="47.82285" lon="-3.53719">
        <ele>4.41</ele>
        <time>2020-07-10T12:47:55Z</time>
      </trkpt>
      <trkpt lat="47.82284" lon="-3.53716">
        <ele>4.51</ele>
        <time>2020-07-10T12:47:56Z</time>
      </trkpt>
      <trkpt lat="47.82283" lon="-3.53712">
        <ele>4.64</ele>
        <time>2020-07-10T12:47:57Z</time>
      </trkpt>
      <trkpt lat="47.82283" lon="-3.53708">
        <ele>4.79</ele>
        <time>2020-07-10T12:47:58Z</time>
      </trkpt>
      <trkpt lat="47.82283" lon="-3.53705">
        <ele>4.99</ele>
        <time>2020-07-10T12:47:59Z</time>
      </trkpt>
      <trkpt lat="47.82282" lon="-3.53701">
        <ele>5.12</ele>
        <time>2020-07-10T12:48:00Z</time>
      </trkpt>
      <trkpt lat="47.82281" lon="-3.53697">
        <ele>5.24</ele>
        <time>2020-07-10T12:48:01Z</time>
      </trkpt>
      <trkpt lat="47.8228" lon="-3.53692">
        <ele>5.22</ele>
        <time>2020-07-10T12:48:02Z</time>
      </trkpt>
      <trkpt lat="47.82279" lon="-3.53688">
        <ele>5.15</ele>
        <time>2020-07-10T12:48:03Z</time>
      </trkpt>
      <trkpt lat="47.82279" lon="-3.53684">
        <ele>5.12</ele>
        <time>2020-07-10T12:48:04Z</time>
      </trkpt>
      <trkpt lat="47.82279" lon="-3.53681">
        <ele>5.1</ele>
        <time>2020-07-10T12:48:05Z</time>
      </trkpt>
      <trkpt lat="47.82278" lon="-3.53678">
        <ele>5.08</ele>
        <time>2020-07-10T12:48:06Z</time>
      </trkpt>
      <trkpt lat="47.82278" lon="-3.53675">
        <ele>5.02</ele>
        <time>2020-07-10T12:48:07Z</time>
      </trkpt>
      <trkpt lat="47.82277" lon="-3.53671">
        <ele>4.99</ele>
        <time>2020-07-10T12:48:08Z</time>
      </trkpt>
      <trkpt lat="47.82278" lon="-3.53669">
        <ele>4.99</ele>
        <time>2020-07-10T12:48:09Z</time>
      </trkpt>
      <trkpt lat="47.82279" lon="-3.53665">
        <ele>5.07</ele>
        <time>2020-07-10T12:48:10Z</time>
      </trkpt>
      <trkpt lat="47.8228" lon="-3.53662">
        <ele>5.11</ele>
        <time>2020-07-10T12:48:11Z</time>
      </trkpt>
      <trkpt lat="47.82281" lon="-3.5366">
        <ele>5.19</ele>
        <time>2020-07-10T12:48:12Z</time>
      </trkpt>
      <trkpt lat="47.82282" lon="-3.53658">
        <ele>5.25</ele>
        <time>2020-07-10T12:48:13Z</time>
      </trkpt>
      <trkpt lat="47.82282" lon="-3.53655">
        <ele>5.32</ele>
        <time>2020-07-10T12:48:14Z</time>
      </trkpt>
      <trkpt lat="47.82283" lon="-3.53653">
        <ele>5.33</ele>
        <time>2020-07-10T12:48:15Z</time>
      </trkpt>
      <trkpt lat="47.82284" lon="-3.5365">
        <ele>5.37</ele>
        <time>2020-07-10T12:48:16Z</time>
      </trkpt>
      <trkpt lat="47.82284" lon="-3.53647">
        <ele>5.34</ele>
        <time>2020-07-10T12:48:17Z</time>
      </trkpt>
      <trkpt lat="47.82284" lon="-3.53645">
        <ele>5.33</ele>
        <time>2020-07-10T12:48:18Z</time>
      </trkpt>
      <trkpt lat="47.82285" lon="-3.53643">
        <ele>5.35</ele>
        <time>2020-07-10T12:48:19Z</time>
      </trkpt>
      <trkpt lat="47.82286" lon="-3.53641">
        <ele>5.44</ele>
        <time>2020-07-10T12:48:20Z</time>
      </trkpt>
      <trkpt lat="47.82287" lon="-3.5364">
        <ele>5.58</ele>
        <time>2020-07-10T12:48:21Z</time>
      </trkpt>
      <trkpt lat="47.82288" lon="-3.53638">
        <ele>5.72</ele>
        <time>2020-07-10T12:48:22Z</time>
      </trkpt>
      <trkpt lat="47.82289" lon="-3.53635">
        <ele>5.81</ele>
        <time>2020-07-10T12:48:23Z</time>
      </trkpt>
      <trkpt lat="47.8229" lon="-3.53631">
        <ele>5.88</ele>
        <time>2020-07-10T12:48:24Z</time>
      </trkpt>
      <trkpt lat="47.82291" lon="-3.53628">
        <ele>5.98</ele>
        <time>2020-07-10T12:48:25Z</time>
      </trkpt>
      <trkpt lat="47.82292" lon="-3.53624">
        <ele>6</ele>
        <time>2020-07-10T12:48:26Z</time>
      </trkpt>
      <trkpt lat="47.82293" lon="-3.53619">
        <ele>6.05</ele>
        <time>2020-07-10T12:48:27Z</time>
      </trkpt>
      <trkpt lat="47.82295" lon="-3.53614">
        <ele>6.13</ele>
        <time>2020-07-10T12:48:28Z</time>
      </trkpt>
      <trkpt lat="47.82296" lon="-3.5361">
        <ele>6.27</ele>
        <time>2020-07-10T12:48:29Z</time>
      </trkpt>
      <trkpt lat="47.82297" lon="-3.53606">
        <ele>6.61</ele>
        <time>2020-07-10T12:48:30Z</time>
      </trkpt>
      <trkpt lat="47.82298" lon="-3.53602">
        <ele>7.02</ele>
        <time>2020-07-10T12:48:31Z</time>
      </trkpt>
      <trkpt lat="47.82299" lon="-3.53598">
        <ele>7.46</ele>
        <time>2020-07-10T12:48:32Z</time>
      </trkpt>
      <trkpt lat="47.823" lon="-3.53594">
        <ele>7.94</ele>
        <time>2020-07-10T12:48:33Z</time>
      </trkpt>
      <trkpt lat="47.82301" lon="-3.5359">
        <ele>8.37</ele>
        <time>2020-07-10T12:48:34Z</time>
      </trkpt>
      <trkpt lat="47.82301" lon="-3.53586">
        <ele>8.75</ele>
        <time>2020-07-10T12:48:35Z</time>
      </trkpt>
      <trkpt lat="47.82302" lon="-3.53583">
        <ele>9.08</ele>
        <time>2020-07-10T12:48:36Z</time>
      </trkpt>
      <trkpt lat="47.82303" lon="-3.5358">
        <ele>9.21</ele>
        <time>2020-07-10T12:48:37Z</time>
      </trkpt>
      <trkpt lat="47.82305" lon="-3.53579">
        <ele>9.32</ele>
        <time>2020-07-10T12:48:38Z</time>
      </trkpt>
      <trkpt lat="47.82306" lon="-3.53578">
        <ele>9.43</ele>
        <time>2020-07-10T12:48:39Z</time>
      </trkpt>
      <trkpt lat="47.82307" lon="-3.53578">
        <ele>9.58</ele>
        <time>2020-07-10T12:48:40Z</time>
      </trkpt>
      <trkpt lat="47.82307" lon="-3.53578">
        <ele>9.64</ele>
        <time>2020-07-10T12:48:41Z</time>
      </trkpt>
      <trkpt lat="47.82307" lon="-3.53579">
        <ele>9.73</ele>
        <time>2020-07-10T12:48:42Z</time>
      </trkpt>
      <trkpt lat="47.82307" lon="-3.53579">
        <ele>9.75</ele>
        <time>2020-07-10T12:48:43Z</time>
      </trkpt>
      <trkpt lat="47.82307" lon="-3.53579">
        <ele>9.76</ele>
        <time>2020-07-10T12:48:44Z</time>
      </trkpt>
      <trkpt lat="47.82307" lon="-3.53579">
        <ele>9.76</ele>
        <time>2020-07-10T12:48:45Z</time>
      </trkpt>
      <trkpt lat="47.82307" lon="-3.53579">
        <ele>9.76</ele>
        <time>2020-07-10T12:48:46Z</time>
      </trkpt>
      <trkpt lat="47.82307" lon="-3.53579">
        <ele>9.76</ele>
        <time>2020-07-10T12:48:47Z</time>
      </trkpt>
      <trkpt lat="47.82307" lon="-3.53579">
        <ele>9.76</ele>
        <time>2020-07-10T12:48:48Z</time>
      </trkpt>
      <trkpt lat="47.82307" lon="-3.53579">
        <ele>9.76</ele>
        <time>2020-07-10T12:48:49Z</time>
      </trkpt>
      <trkpt lat="47.82307" lon="-3.53579">
        <ele>9.76</ele>
        <time>2020-07-10T12:48:50Z</time>
      </trkpt>
      <trkpt lat="47.82307" lon="-3.53579">
        <ele>9.76</ele>
        <time>2020-07-10T12:48:51Z</time>
      </trkpt>
      <trkpt lat="47.82307" lon="-3.53579">
        <ele>9.76</ele>
        <time>2020-07-10T12:48:52Z</time>
      </trkpt>
      <trkpt lat="47.82307" lon="-3.53579">
        <ele>9.76</ele>
        <time>2020-07-10T12:48:53Z</time>
      </trkpt>
      <trkpt lat="47.82312" lon="-3.53565">
        <ele>9.15</ele>
        <time>2020-07-10T12:48:54Z</time>
      </trkpt>
      <trkpt lat="47.82314" lon="-3.53562">
        <ele>8.99</ele>
        <time>2020-07-10T12:48:55Z</time>
      </trkpt>
      <trkpt lat="47.82315" lon="-3.5356">
        <ele>8.91</ele>
        <time>2020-07-10T12:48:56Z</time>
      </trkpt>
      <trkpt lat="47.82316" lon="-3.53559">
        <ele>8.83</ele>
        <time>2020-07-10T12:48:57Z</time>
      </trkpt>
      <trkpt lat="47.82316" lon="-3.53559">
        <ele>8.8</ele>
        <time>2020-07-10T12:48:58Z</time>
      </trkpt>
      <trkpt lat="47.82316" lon="-3.53559">
        <ele>8.8</ele>
        <time>2020-07-10T12:48:59Z</time>
      </trkpt>
      <trkpt lat="47.82316" lon="-3.53559">
        <ele>8.79</ele>
        <time>2020-07-10T12:49:00Z</time>
      </trkpt>
      <trkpt lat="47.82316" lon="-3.53559">
        <ele>8.79</ele>
        <time>2020-07-10T12:49:01Z</time>
      </trkpt>
      <trkpt lat="47.82316" lon="-3.53559">
        <ele>8.79</ele>
        <time>2020-07-10T12:49:02Z</time>
      </trkpt>
      <trkpt lat="47.82316" lon="-3.53559">
        <ele>8.79</ele>
        <time>2020-07-10T12:49:03Z</time>
      </trkpt>
      <trkpt lat="47.82316" lon="-3.53559">
        <ele>8.79</ele>
        <time>2020-07-10T12:49:04Z</time>
      </trkpt>
      <trkpt lat="47.82316" lon="-3.53559">
        <ele>8.79</ele>
        <time>2020-07-10T12:49:05Z</time>
      </trkpt>
      <trkpt lat="47.82316" lon="-3.53559">
        <ele>8.79</ele>
        <time>2020-07-10T12:49:06Z</time>
      </trkpt>
      <trkpt lat="47.82316" lon="-3.53559">
        <ele>8.79</ele>
        <time>2020-07-10T12:49:07Z</time>
      </trkpt>
      <trkpt lat="47.82316" lon="-3.53559">
        <ele>8.79</ele>
        <time>2020-07-10T12:49:08Z</time>
      </trkpt>
      <trkpt lat="47.82316" lon="-3.53559">
        <ele>8.79</ele>
        <time>2020-07-10T12:49:09Z</time>
      </trkpt>
      <trkpt lat="47.82315" lon="-3.53546">
        <ele>9.32</ele>
        <time>2020-07-10T12:49:10Z</time>
      </trkpt>
      <trkpt lat="47.82314" lon="-3.53544">
        <ele>9.55</ele>
        <time>2020-07-10T12:49:11Z</time>
      </trkpt>
      <trkpt lat="47.82314" lon="-3.53543">
        <ele>9.65</ele>
        <time>2020-07-10T12:49:12Z</time>
      </trkpt>
      <trkpt lat="47.82313" lon="-3.5354">
        <ele>9.96</ele>
        <time>2020-07-10T12:49:13Z</time>
      </trkpt>
      <trkpt lat="47.82313" lon="-3.53539">
        <ele>10.12</ele>
        <time>2020-07-10T12:49:14Z</time>
      </trkpt>
      <trkpt lat="47.82314" lon="-3.53539">
        <ele>10.2</ele>
        <time>2020-07-10T12:49:15Z</time>
      </trkpt>
      <trkpt lat="47.82314" lon="-3.53539">
        <ele>10.17</ele>
        <time>2020-07-10T12:49:16Z</time>
      </trkpt>
      <trkpt lat="47.82313" lon="-3.5354">
        <ele>10.1</ele>
        <time>2020-07-10T12:49:17Z</time>
      </trkpt>
      <trkpt lat="47.82312" lon="-3.5354">
        <ele>9.96</ele>
        <time>2020-07-10T12:49:18Z</time>
      </trkpt>
      <trkpt lat="47.82312" lon="-3.5354">
        <ele>9.92</ele>
        <time>2020-07-10T12:49:19Z</time>
      </trkpt>
      <trkpt lat="47.82308" lon="-3.5354">
        <ele>9.68</ele>
        <time>2020-07-10T12:49:20Z</time>
      </trkpt>
      <trkpt lat="47.82306" lon="-3.5354">
        <ele>9.43</ele>
        <time>2020-07-10T12:49:21Z</time>
      </trkpt>
      <trkpt lat="47.82304" lon="-3.53541">
        <ele>9.17</ele>
        <time>2020-07-10T12:49:22Z</time>
      </trkpt>
      <trkpt lat="47.82302" lon="-3.53542">
        <ele>8.78</ele>
        <time>2020-07-10T12:49:23Z</time>
      </trkpt>
      <trkpt lat="47.82296" lon="-3.53543">
        <ele>8.27</ele>
        <time>2020-07-10T12:49:24Z</time>
      </trkpt>
      <trkpt lat="47.82294" lon="-3.53543">
        <ele>7.95</ele>
        <time>2020-07-10T12:49:25Z</time>
      </trkpt>
      <trkpt lat="47.82292" lon="-3.53545">
        <ele>7.62</ele>
        <time>2020-07-10T12:49:26Z</time>
      </trkpt>
      <trkpt lat="47.82289" lon="-3.53548">
        <ele>7.23</ele>
        <time>2020-07-10T12:49:27Z</time>
      </trkpt>
      <trkpt lat="47.82287" lon="-3.5355">
        <ele>6.86</ele>
        <time>2020-07-10T12:49:28Z</time>
      </trkpt>
      <trkpt lat="47.82284" lon="-3.53553">
        <ele>6.52</ele>
        <time>2020-07-10T12:49:29Z</time>
      </trkpt>
      <trkpt lat="47.82282" lon="-3.53556">
        <ele>6.23</ele>
        <time>2020-07-10T12:49:30Z</time>
      </trkpt>
      <trkpt lat="47.82279" lon="-3.53559">
        <ele>5.95</ele>
        <time>2020-07-10T12:49:31Z</time>
      </trkpt>
      <trkpt lat="47.82277" lon="-3.53562">
        <ele>5.64</ele>
        <time>2020-07-10T12:49:32Z</time>
      </trkpt>
      <trkpt lat="47.82275" lon="-3.53564">
        <ele>5.34</ele>
        <time>2020-07-10T12:49:33Z</time>
      </trkpt>
      <trkpt lat="47.82272" lon="-3.53567">
        <ele>5.04</ele>
        <time>2020-07-10T12:49:34Z</time>
      </trkpt>
      <trkpt lat="47.82269" lon="-3.53569">
        <ele>4.78</ele>
        <time>2020-07-10T12:49:35Z</time>
      </trkpt>
      <trkpt lat="47.82265" lon="-3.53571">
        <ele>4.56</ele>
        <time>2020-07-10T12:49:36Z</time>
      </trkpt>
      <trkpt lat="47.82262" lon="-3.53572">
        <ele>4.41</ele>
        <time>2020-07-10T12:49:37Z</time>
      </trkpt>
      <trkpt lat="47.82259" lon="-3.53573">
        <ele>4.29</ele>
        <time>2020-07-10T12:49:38Z</time>
      </trkpt>
      <trkpt lat="47.82257" lon="-3.53573">
        <ele>4.22</ele>
        <time>2020-07-10T12:49:39Z</time>
      </trkpt>
      <trkpt lat="47.82256" lon="-3.53574">
        <ele>4.18</ele>
        <time>2020-07-10T12:49:40Z</time>
      </trkpt>
      <trkpt lat="47.82255" lon="-3.53574">
        <ele>4.13</ele>
        <time>2020-07-10T12:49:41Z</time>
      </trkpt>
      <trkpt lat="47.82253" lon="-3.53573">
        <ele>4.1</ele>
        <time>2020-07-10T12:49:42Z</time>
      </trkpt>
      <trkpt lat="47.82252" lon="-3.53573">
        <ele>4.06</ele>
        <time>2020-07-10T12:49:43Z</time>
      </trkpt>
      <trkpt lat="47.8225" lon="-3.53573">
        <ele>4.02</ele>
        <time>2020-07-10T12:49:44Z</time>
      </trkpt>
      <trkpt lat="47.82249" lon="-3.53572">
        <ele>3.99</ele>
        <time>2020-07-10T12:49:45Z</time>
      </trkpt>
      <trkpt lat="47.8225" lon="-3.53569">
        <ele>3.99</ele>
        <time>2020-07-10T12:49:46Z</time>
      </trkpt>
      <trkpt lat="47.8225" lon="-3.53566">
        <ele>3.99</ele>
        <time>2020-07-10T12:49:47Z</time>
      </trkpt>
      <trkpt lat="47.82249" lon="-3.53563">
        <ele>3.97</ele>
        <time>2020-07-10T12:49:48Z</time>
      </trkpt>
      <trkpt lat="47.82249" lon="-3.53559">
        <ele>3.96</ele>
        <time>2020-07-10T12:49:49Z</time>
      </trkpt>
      <trkpt lat="47.82247" lon="-3.53556">
        <ele>3.92</ele>
        <time>2020-07-10T12:49:50Z</time>
      </trkpt>
      <trkpt lat="47.82246" lon="-3.53552">
        <ele>3.97</ele>
        <time>2020-07-10T12:49:51Z</time>
      </trkpt>
      <trkpt lat="47.82245" lon="-3.53548">
        <ele>4.05</ele>
        <time>2020-07-10T12:49:52Z</time>
      </trkpt>
      <trkpt lat="47.82244" lon="-3.53544">
        <ele>4.14</ele>
        <time>2020-07-10T12:49:53Z</time>
      </trkpt>
      <trkpt lat="47.82241" lon="-3.53541">
        <ele>4.19</ele>
        <time>2020-07-10T12:49:54Z</time>
      </trkpt>
      <trkpt lat="47.82239" lon="-3.53537">
        <ele>4.25</ele>
        <time>2020-07-10T12:49:55Z</time>
      </trkpt>
      <trkpt lat="47.82237" lon="-3.53533">
        <ele>4.3</ele>
        <time>2020-07-10T12:49:56Z</time>
      </trkpt>
      <trkpt lat="47.82234" lon="-3.5353">
        <ele>4.33</ele>
        <time>2020-07-10T12:49:57Z</time>
      </trkpt>
      <trkpt lat="47.82231" lon="-3.53527">
        <ele>4.33</ele>
        <time>2020-07-10T12:49:58Z</time>
      </trkpt>
      <trkpt lat="47.82229" lon="-3.53524">
        <ele>4.28</ele>
        <time>2020-07-10T12:49:59Z</time>
      </trkpt>
      <trkpt lat="47.82226" lon="-3.5352">
        <ele>4.21</ele>
        <time>2020-07-10T12:50:00Z</time>
      </trkpt>
      <trkpt lat="47.82224" lon="-3.53516">
        <ele>4.15</ele>
        <time>2020-07-10T12:50:01Z</time>
      </trkpt>
      <trkpt lat="47.82222" lon="-3.53512">
        <ele>4.04</ele>
        <time>2020-07-10T12:50:02Z</time>
      </trkpt>
      <trkpt lat="47.82219" lon="-3.53509">
        <ele>3.98</ele>
        <time>2020-07-10T12:50:03Z</time>
      </trkpt>
      <trkpt lat="47.82217" lon="-3.53506">
        <ele>3.97</ele>
        <time>2020-07-10T12:50:04Z</time>
      </trkpt>
      <trkpt lat="47.82216" lon="-3.53503">
        <ele>3.97</ele>
        <time>2020-07-10T12:50:05Z</time>
      </trkpt>
      <trkpt lat="47.82215" lon="-3.53499">
        <ele>4</ele>
        <time>2020-07-10T12:50:06Z</time>
      </trkpt>
      <trkpt lat="47.82215" lon="-3.53496">
        <ele>4.08</ele>
        <time>2020-07-10T12:50:07Z</time>
      </trkpt>
      <trkpt lat="47.82215" lon="-3.53494">
        <ele>4.14</ele>
        <time>2020-07-10T12:50:08Z</time>
      </trkpt>
      <trkpt lat="47.82216" lon="-3.53492">
        <ele>4.19</ele>
        <time>2020-07-10T12:50:09Z</time>
      </trkpt>
      <trkpt lat="47.82217" lon="-3.5349">
        <ele>4.25</ele>
        <time>2020-07-10T12:50:10Z</time>
      </trkpt>
      <trkpt lat="47.82216" lon="-3.53489">
        <ele>4.3</ele>
        <time>2020-07-10T12:50:11Z</time>
      </trkpt>
      <trkpt lat="47.82216" lon="-3.53487">
        <ele>4.34</ele>
        <time>2020-07-10T12:50:12Z</time>
      </trkpt>
      <trkpt lat="47.82217" lon="-3.53486">
        <ele>4.4</ele>
        <time>2020-07-10T12:50:13Z</time>
      </trkpt>
      <trkpt lat="47.82217" lon="-3.53485">
        <ele>4.44</ele>
        <time>2020-07-10T12:50:14Z</time>
      </trkpt>
      <trkpt lat="47.82218" lon="-3.53484">
        <ele>4.48</ele>
        <time>2020-07-10T12:50:15Z</time>
      </trkpt>
      <trkpt lat="47.82219" lon="-3.53483">
        <ele>4.51</ele>
        <time>2020-07-10T12:50:16Z</time>
      </trkpt>
      <trkpt lat="47.82219" lon="-3.53483">
        <ele>4.52</ele>
        <time>2020-07-10T12:50:17Z</time>
      </trkpt>
      <trkpt lat="47.82221" lon="-3.53482">
        <ele>4.59</ele>
        <time>2020-07-10T12:50:18Z</time>
      </trkpt>
      <trkpt lat="47.82223" lon="-3.53482">
        <ele>4.66</ele>
        <time>2020-07-10T12:50:19Z</time>
      </trkpt>
      <trkpt lat="47.82224" lon="-3.5348">
        <ele>4.8</ele>
        <time>2020-07-10T12:50:20Z</time>
      </trkpt>
      <trkpt lat="47.82225" lon="-3.5348">
        <ele>4.92</ele>
        <time>2020-07-10T12:50:21Z</time>
      </trkpt>
      <trkpt lat="47.82226" lon="-3.53478">
        <ele>5.06</ele>
        <time>2020-07-10T12:50:22Z</time>
      </trkpt>
      <trkpt lat="47.82228" lon="-3.53476">
        <ele>5.3</ele>
        <time>2020-07-10T12:50:23Z</time>
      </trkpt>
      <trkpt lat="47.82229" lon="-3.53473">
        <ele>5.57</ele>
        <time>2020-07-10T12:50:24Z</time>
      </trkpt>
      <trkpt lat="47.8223" lon="-3.5347">
        <ele>5.78</ele>
        <time>2020-07-10T12:50:25Z</time>
      </trkpt>
      <trkpt lat="47.82232" lon="-3.53467">
        <ele>6.01</ele>
        <time>2020-07-10T12:50:26Z</time>
      </trkpt>
      <trkpt lat="47.82234" lon="-3.53463">
        <ele>6.26</ele>
        <time>2020-07-10T12:50:27Z</time>
      </trkpt>
      <trkpt lat="47.82237" lon="-3.53458">
        <ele>6.69</ele>
        <time>2020-07-10T12:50:28Z</time>
      </trkpt>
      <trkpt lat="47.82239" lon="-3.53455">
        <ele>7.07</ele>
        <time>2020-07-10T12:50:29Z</time>
      </trkpt>
      <trkpt lat="47.82241" lon="-3.53451">
        <ele>7.36</ele>
        <time>2020-07-10T12:50:30Z</time>
      </trkpt>
      <trkpt lat="47.82242" lon="-3.53449">
        <ele>7.59</ele>
        <time>2020-07-10T12:50:31Z</time>
      </trkpt>
      <trkpt lat="47.82242" lon="-3.53446">
        <ele>7.75</ele>
        <time>2020-07-10T12:50:32Z</time>
      </trkpt>
      <trkpt lat="47.82242" lon="-3.53443">
        <ele>7.84</ele>
        <time>2020-07-10T12:50:33Z</time>
      </trkpt>
      <trkpt lat="47.82243" lon="-3.5344">
        <ele>7.98</ele>
        <time>2020-07-10T12:50:34Z</time>
      </trkpt>
      <trkpt lat="47.82242" lon="-3.53438">
        <ele>8.02</ele>
        <time>2020-07-10T12:50:35Z</time>
      </trkpt>
      <trkpt lat="47.82241" lon="-3.53435">
        <ele>8.02</ele>
        <time>2020-07-10T12:50:36Z</time>
      </trkpt>
      <trkpt lat="47.82241" lon="-3.53434">
        <ele>8.03</ele>
        <time>2020-07-10T12:50:37Z</time>
      </trkpt>
      <trkpt lat="47.8224" lon="-3.53434">
        <ele>8.03</ele>
        <time>2020-07-10T12:50:38Z</time>
      </trkpt>
      <trkpt lat="47.8224" lon="-3.53433">
        <ele>8.02</ele>
        <time>2020-07-10T12:50:39Z</time>
      </trkpt>
      <trkpt lat="47.8224" lon="-3.53433">
        <ele>8.01</ele>
        <time>2020-07-10T12:50:40Z</time>
      </trkpt>
      <trkpt lat="47.8224" lon="-3.53433">
        <ele>8.01</ele>
        <time>2020-07-10T12:50:41Z</time>
      </trkpt>
      <trkpt lat="47.8224" lon="-3.53433">
        <ele>8.01</ele>
        <time>2020-07-10T12:50:42Z</time>
      </trkpt>
      <trkpt lat="47.8224" lon="-3.53433">
        <ele>8.01</ele>
        <time>2020-07-10T12:50:43Z</time>
      </trkpt>
      <trkpt lat="47.8224" lon="-3.53433">
        <ele>8.01</ele>
        <time>2020-07-10T12:50:44Z</time>
      </trkpt>
      <trkpt lat="47.8224" lon="-3.53433">
        <ele>8.01</ele>
        <time>2020-07-10T12:50:45Z</time>
      </trkpt>
      <trkpt lat="47.8224" lon="-3.53433">
        <ele>8.01</ele>
        <time>2020-07-10T12:50:46Z</time>
      </trkpt>
      <trkpt lat="47.8224" lon="-3.53433">
        <ele>8.01</ele>
        <time>2020-07-10T12:50:47Z</time>
      </trkpt>
      <trkpt lat="47.8224" lon="-3.53433">
        <ele>8.01</ele>
        <time>2020-07-10T12:50:48Z</time>
      </trkpt>
      <trkpt lat="47.8224" lon="-3.53433">
        <ele>8.01</ele>
        <time>2020-07-10T12:50:49Z</time>
      </trkpt>
      <trkpt lat="47.8224" lon="-3.53433">
        <ele>8.01</ele>
        <time>2020-07-10T12:50:50Z</time>
      </trkpt>
      <trkpt lat="47.8224" lon="-3.53433">
        <ele>8.01</ele>
        <time>2020-07-10T12:50:51Z</time>
      </trkpt>
      <trkpt lat="47.8224" lon="-3.53433">
        <ele>8.01</ele>
        <time>2020-07-10T12:50:52Z</time>
      </trkpt>
      <trkpt lat="47.82243" lon="-3.53426">
        <ele>8.36</ele>
        <time>2020-07-10T12:50:53Z</time>
      </trkpt>
      <trkpt lat="47.82242" lon="-3.53427">
        <ele>8.37</ele>
        <time>2020-07-10T12:50:54Z</time>
      </trkpt>
      <trkpt lat="47.8224" lon="-3.53429">
        <ele>8.24</ele>
        <time>2020-07-10T12:50:55Z</time>
      </trkpt>
      <trkpt lat="47.82234" lon="-3.5343">
        <ele>7.81</ele>
        <time>2020-07-10T12:50:56Z</time>
      </trkpt>
      <trkpt lat="47.82228" lon="-3.53432">
        <ele>7.2</ele>
        <time>2020-07-10T12:50:57Z</time>
      </trkpt>
      <trkpt lat="47.82222" lon="-3.53433">
        <ele>6.52</ele>
        <time>2020-07-10T12:50:58Z</time>
      </trkpt>
      <trkpt lat="47.82215" lon="-3.53433">
        <ele>6.14</ele>
        <time>2020-07-10T12:50:59Z</time>
      </trkpt>
      <trkpt lat="47.82209" lon="-3.53434">
        <ele>5.82</ele>
        <time>2020-07-10T12:51:00Z</time>
      </trkpt>
      <trkpt lat="47.82205" lon="-3.53434">
        <ele>5.61</ele>
        <time>2020-07-10T12:51:01Z</time>
      </trkpt>
      <trkpt lat="47.82201" lon="-3.53433">
        <ele>5.52</ele>
        <time>2020-07-10T12:51:02Z</time>
      </trkpt>
      <trkpt lat="47.82197" lon="-3.53433">
        <ele>5.4</ele>
        <time>2020-07-10T12:51:03Z</time>
      </trkpt>
      <trkpt lat="47.82193" lon="-3.53433">
        <ele>5.22</ele>
        <time>2020-07-10T12:51:04Z</time>
      </trkpt>
      <trkpt lat="47.82189" lon="-3.53432">
        <ele>5.04</ele>
        <time>2020-07-10T12:51:05Z</time>
      </trkpt>
      <trkpt lat="47.82187" lon="-3.53433">
        <ele>4.88</ele>
        <time>2020-07-10T12:51:06Z</time>
      </trkpt>
      <trkpt lat="47.82186" lon="-3.5343">
        <ele>4.93</ele>
        <time>2020-07-10T12:51:07Z</time>
      </trkpt>
      <trkpt lat="47.82183" lon="-3.53425">
        <ele>5.06</ele>
        <time>2020-07-10T12:51:08Z</time>
      </trkpt>
      <trkpt lat="47.82181" lon="-3.5342">
        <ele>5.24</ele>
        <time>2020-07-10T12:51:09Z</time>
      </trkpt>
      <trkpt lat="47.8218" lon="-3.53415">
        <ele>5.55</ele>
        <time>2020-07-10T12:51:10Z</time>
      </trkpt>
      <trkpt lat="47.82178" lon="-3.53411">
        <ele>6.17</ele>
        <time>2020-07-10T12:51:11Z</time>
      </trkpt>
      <trkpt lat="47.82176" lon="-3.53406">
        <ele>6.79</ele>
        <time>2020-07-10T12:51:12Z</time>
      </trkpt>
      <trkpt lat="47.82175" lon="-3.53401">
        <ele>7.35</ele>
        <time>2020-07-10T12:51:13Z</time>
      </trkpt>
      <trkpt lat="47.82173" lon="-3.53396">
        <ele>7.7</ele>
        <time>2020-07-10T12:51:14Z</time>
      </trkpt>
      <trkpt lat="47.8217" lon="-3.53391">
        <ele>7.75</ele>
        <time>2020-07-10T12:51:15Z</time>
      </trkpt>
      <trkpt lat="47.82167" lon="-3.53387">
        <ele>7.74</ele>
        <time>2020-07-10T12:51:16Z</time>
      </trkpt>
      <trkpt lat="47.82164" lon="-3.53382">
        <ele>8.12</ele>
        <time>2020-07-10T12:51:17Z</time>
      </trkpt>
      <trkpt lat="47.82161" lon="-3.53378">
        <ele>8.48</ele>
        <time>2020-07-10T12:51:18Z</time>
      </trkpt>
      <trkpt lat="47.82158" lon="-3.53374">
        <ele>8.47</ele>
        <time>2020-07-10T12:51:19Z</time>
      </trkpt>
      <trkpt lat="47.82154" lon="-3.53371">
        <ele>8.27</ele>
        <time>2020-07-10T12:51:20Z</time>
      </trkpt>
      <trkpt lat="47.82151" lon="-3.53367">
        <ele>8.08</ele>
        <time>2020-07-10T12:51:21Z</time>
      </trkpt>
      <trkpt lat="47.82149" lon="-3.53363">
        <ele>7.74</ele>
        <time>2020-07-10T12:51:22Z</time>
      </trkpt>
      <trkpt lat="47.82147" lon="-3.53358">
        <ele>7.79</ele>
        <time>2020-07-10T12:51:23Z</time>
      </trkpt>
      <trkpt lat="47.82145" lon="-3.53353">
        <ele>8.33</ele>
        <time>2020-07-10T12:51:24Z</time>
      </trkpt>
      <trkpt lat="47.82143" lon="-3.53349">
        <ele>8.83</ele>
        <time>2020-07-10T12:51:25Z</time>
      </trkpt>
      <trkpt lat="47.82141" lon="-3.53345">
        <ele>9.02</ele>
        <time>2020-07-10T12:51:26Z</time>
      </trkpt>
      <trkpt lat="47.82138" lon="-3.53341">
        <ele>8.91</ele>
        <time>2020-07-10T12:51:27Z</time>
      </trkpt>
      <trkpt lat="47.82135" lon="-3.53338">
        <ele>8.93</ele>
        <time>2020-07-10T12:51:28Z</time>
      </trkpt>
      <trkpt lat="47.82133" lon="-3.53335">
        <ele>9.05</ele>
        <time>2020-07-10T12:51:29Z</time>
      </trkpt>
      <trkpt lat="47.82129" lon="-3.53332">
        <ele>9.08</ele>
        <time>2020-07-10T12:51:30Z</time>
      </trkpt>
      <trkpt lat="47.82125" lon="-3.53329">
        <ele>8.93</ele>
        <time>2020-07-10T12:51:31Z</time>
      </trkpt>
      <trkpt lat="47.82121" lon="-3.53327">
        <ele>8.61</ele>
        <time>2020-07-10T12:51:32Z</time>
      </trkpt>
      <trkpt lat="47.82118" lon="-3.53324">
        <ele>8.45</ele>
        <time>2020-07-10T12:51:33Z</time>
      </trkpt>
      <trkpt lat="47.82115" lon="-3.53321">
        <ele>8.35</ele>
        <time>2020-07-10T12:51:34Z</time>
      </trkpt>
      <trkpt lat="47.82111" lon="-3.53317">
        <ele>8.18</ele>
        <time>2020-07-10T12:51:35Z</time>
      </trkpt>
      <trkpt lat="47.82108" lon="-3.53313">
        <ele>8.21</ele>
        <time>2020-07-10T12:51:36Z</time>
      </trkpt>
      <trkpt lat="47.82105" lon="-3.53309">
        <ele>8.31</ele>
        <time>2020-07-10T12:51:37Z</time>
      </trkpt>
      <trkpt lat="47.82102" lon="-3.53305">
        <ele>8.58</ele>
        <time>2020-07-10T12:51:38Z</time>
      </trkpt>
      <trkpt lat="47.82099" lon="-3.53301">
        <ele>9.07</ele>
        <time>2020-07-10T12:51:39Z</time>
      </trkpt>
      <trkpt lat="47.82096" lon="-3.53297">
        <ele>9.56</ele>
        <time>2020-07-10T12:51:40Z</time>
      </trkpt>
      <trkpt lat="47.82093" lon="-3.53293">
        <ele>9.87</ele>
        <time>2020-07-10T12:51:41Z</time>
      </trkpt>
      <trkpt lat="47.8209" lon="-3.5329">
        <ele>10.08</ele>
        <time>2020-07-10T12:51:42Z</time>
      </trkpt>
      <trkpt lat="47.82088" lon="-3.53287">
        <ele>10.39</ele>
        <time>2020-07-10T12:51:43Z</time>
      </trkpt>
      <trkpt lat="47.82085" lon="-3.53284">
        <ele>10.47</ele>
        <time>2020-07-10T12:51:44Z</time>
      </trkpt>
      <trkpt lat="47.82082" lon="-3.53281">
        <ele>10.49</ele>
        <time>2020-07-10T12:51:45Z</time>
      </trkpt>
      <trkpt lat="47.82079" lon="-3.53279">
        <ele>10.32</ele>
        <time>2020-07-10T12:51:46Z</time>
      </trkpt>
      <trkpt lat="47.82076" lon="-3.53276">
        <ele>10.28</ele>
        <time>2020-07-10T12:51:47Z</time>
      </trkpt>
      <trkpt lat="47.82073" lon="-3.53274">
        <ele>10.44</ele>
        <time>2020-07-10T12:51:48Z</time>
      </trkpt>
      <trkpt lat="47.82071" lon="-3.53271">
        <ele>10.72</ele>
        <time>2020-07-10T12:51:49Z</time>
      </trkpt>
      <trkpt lat="47.82068" lon="-3.53268">
        <ele>10.91</ele>
        <time>2020-07-10T12:51:50Z</time>
      </trkpt>
      <trkpt lat="47.82065" lon="-3.53265">
        <ele>11.2</ele>
        <time>2020-07-10T12:51:51Z</time>
      </trkpt>
      <trkpt lat="47.82062" lon="-3.53262">
        <ele>11.63</ele>
        <time>2020-07-10T12:51:52Z</time>
      </trkpt>
      <trkpt lat="47.82059" lon="-3.53258">
        <ele>12.07</ele>
        <time>2020-07-10T12:51:53Z</time>
      </trkpt>
      <trkpt lat="47.82057" lon="-3.53255">
        <ele>12.47</ele>
        <time>2020-07-10T12:51:54Z</time>
      </trkpt>
      <trkpt lat="47.82054" lon="-3.53251">
        <ele>13.12</ele>
        <time>2020-07-10T12:51:55Z</time>
      </trkpt>
      <trkpt lat="47.8205" lon="-3.53247">
        <ele>13.75</ele>
        <time>2020-07-10T12:51:56Z</time>
      </trkpt>
      <trkpt lat="47.82046" lon="-3.53244">
        <ele>14.17</ele>
        <time>2020-07-10T12:51:57Z</time>
      </trkpt>
      <trkpt lat="47.82043" lon="-3.53243">
        <ele>14.37</ele>
        <time>2020-07-10T12:51:58Z</time>
      </trkpt>
      <trkpt lat="47.8204" lon="-3.53242">
        <ele>14.19</ele>
        <time>2020-07-10T12:51:59Z</time>
      </trkpt>
      <trkpt lat="47.82036" lon="-3.5324">
        <ele>14.09</ele>
        <time>2020-07-10T12:52:00Z</time>
      </trkpt>
      <trkpt lat="47.82034" lon="-3.53238">
        <ele>14.18</ele>
        <time>2020-07-10T12:52:01Z</time>
      </trkpt>
      <trkpt lat="47.82032" lon="-3.53236">
        <ele>14.19</ele>
        <time>2020-07-10T12:52:02Z</time>
      </trkpt>
      <trkpt lat="47.8203" lon="-3.53235">
        <ele>14.25</ele>
        <time>2020-07-10T12:52:03Z</time>
      </trkpt>
      <trkpt lat="47.8203" lon="-3.53234">
        <ele>14.33</ele>
        <time>2020-07-10T12:52:04Z</time>
      </trkpt>
      <trkpt lat="47.8203" lon="-3.53233">
        <ele>14.54</ele>
        <time>2020-07-10T12:52:05Z</time>
      </trkpt>
      <trkpt lat="47.8203" lon="-3.53234">
        <ele>14.4</ele>
        <time>2020-07-10T12:52:06Z</time>
      </trkpt>
      <trkpt lat="47.8203" lon="-3.53234">
        <ele>14.36</ele>
        <time>2020-07-10T12:52:07Z</time>
      </trkpt>
      <trkpt lat="47.8203" lon="-3.53234">
        <ele>14.35</ele>
        <time>2020-07-10T12:52:08Z</time>
      </trkpt>
      <trkpt lat="47.8203" lon="-3.53234">
        <ele>14.34</ele>
        <time>2020-07-10T12:52:09Z</time>
      </trkpt>
      <trkpt lat="47.8203" lon="-3.53234">
        <ele>14.34</ele>
        <time>2020-07-10T12:52:10Z</time>
      </trkpt>
      <trkpt lat="47.8203" lon="-3.53234">
        <ele>14.34</ele>
        <time>2020-07-10T12:52:11Z</time>
      </trkpt>
      <trkpt lat="47.8203" lon="-3.53234">
        <ele>14.34</ele>
        <time>2020-07-10T12:52:12Z</time>
      </trkpt>
      <trkpt lat="47.8203" lon="-3.53234">
        <ele>14.34</ele>
        <time>2020-07-10T12:52:13Z</time>
      </trkpt>
      <trkpt lat="47.8203" lon="-3.53234">
        <ele>14.34</ele>
        <time>2020-07-10T12:52:14Z</time>
      </trkpt>
      <trkpt lat="47.8203" lon="-3.53234">
        <ele>14.34</ele>
        <time>2020-07-10T12:52:15Z</time>
      </trkpt>
      <trkpt lat="47.8203" lon="-3.53234">
        <ele>14.34</ele>
        <time>2020-07-10T12:52:16Z</time>
      </trkpt>
      <trkpt lat="47.8203" lon="-3.53234">
        <ele>14.34</ele>
        <time>2020-07-10T12:52:17Z</time>
      </trkpt>
      <trkpt lat="47.8203" lon="-3.53234">
        <ele>14.34</ele>
        <time>2020-07-10T12:52:18Z</time>
      </trkpt>
      <trkpt lat="47.8203" lon="-3.53234">
        <ele>14.34</ele>
        <time>2020-07-10T12:52:19Z</time>
      </trkpt>
      <trkpt lat="47.8203" lon="-3.53234">
        <ele>14.34</ele>
        <time>2020-07-10T12:52:20Z</time>
      </trkpt>
      <trkpt lat="47.8203" lon="-3.53234">
        <ele>14.34</ele>
        <time>2020-07-10T12:52:21Z</time>
      </trkpt>
      <trkpt lat="47.8203" lon="-3.53234">
        <ele>14.34</ele>
        <time>2020-07-10T12:52:22Z</time>
      </trkpt>
      <trkpt lat="47.8203" lon="-3.53234">
        <ele>14.34</ele>
        <time>2020-07-10T12:52:23Z</time>
      </trkpt>
      <trkpt lat="47.8203" lon="-3.53234">
        <ele>14.34</ele>
        <time>2020-07-10T12:52:24Z</time>
      </trkpt>
      <trkpt lat="47.8203" lon="-3.53234">
        <ele>14.34</ele>
        <time>2020-07-10T12:52:25Z</time>
      </trkpt>
      <trkpt lat="47.8203" lon="-3.53234">
        <ele>14.34</ele>
        <time>2020-07-10T12:52:26Z</time>
      </trkpt>
      <trkpt lat="47.8203" lon="-3.53234">
        <ele>14.34</ele>
        <time>2020-07-10T12:52:27Z</time>
      </trkpt>
      <trkpt lat="47.8203" lon="-3.53234">
        <ele>14.34</ele>
        <time>2020-07-10T12:52:28Z</time>
      </trkpt>
      <trkpt lat="47.8203" lon="-3.53234">
        <ele>14.34</ele>
        <time>2020-07-10T12:52:29Z</time>
      </trkpt>
      <trkpt lat="47.8203" lon="-3.53234">
        <ele>14.34</ele>
        <time>2020-07-10T12:52:30Z</time>
      </trkpt>
      <trkpt lat="47.8203" lon="-3.53234">
        <ele>14.34</ele>
        <time>2020-07-10T12:52:31Z</time>
      </trkpt>
      <trkpt lat="47.82025" lon="-3.5322">
        <ele>16.62</ele>
        <time>2020-07-10T12:52:32Z</time>
      </trkpt>
      <trkpt lat="47.82022" lon="-3.53218">
        <ele>17.47</ele>
        <time>2020-07-10T12:52:33Z</time>
      </trkpt>
      <trkpt lat="47.82022" lon="-3.53216">
        <ele>18.15</ele>
        <time>2020-07-10T12:52:34Z</time>
      </trkpt>
      <trkpt lat="47.82021" lon="-3.53213">
        <ele>18.86</ele>
        <time>2020-07-10T12:52:35Z</time>
      </trkpt>
      <trkpt lat="47.8202" lon="-3.5321">
        <ele>19.53</ele>
        <time>2020-07-10T12:52:36Z</time>
      </trkpt>
      <trkpt lat="47.82019" lon="-3.53207">
        <ele>20.23</ele>
        <time>2020-07-10T12:52:37Z</time>
      </trkpt>
      <trkpt lat="47.82017" lon="-3.53204">
        <ele>20.82</ele>
        <time>2020-07-10T12:52:38Z</time>
      </trkpt>
      <trkpt lat="47.82016" lon="-3.53203">
        <ele>21.2</ele>
        <time>2020-07-10T12:52:39Z</time>
      </trkpt>
      <trkpt lat="47.82016" lon="-3.532">
        <ele>21.68</ele>
        <time>2020-07-10T12:52:40Z</time>
      </trkpt>
      <trkpt lat="47.82016" lon="-3.53198">
        <ele>22.18</ele>
        <time>2020-07-10T12:52:41Z</time>
      </trkpt>
      <trkpt lat="47.82016" lon="-3.53197">
        <ele>22.58</ele>
        <time>2020-07-10T12:52:42Z</time>
      </trkpt>
      <trkpt lat="47.82016" lon="-3.53195">
        <ele>22.94</ele>
        <time>2020-07-10T12:52:43Z</time>
      </trkpt>
      <trkpt lat="47.82016" lon="-3.53195">
        <ele>23.11</ele>
        <time>2020-07-10T12:52:44Z</time>
      </trkpt>
      <trkpt lat="47.82014" lon="-3.53194">
        <ele>23.16</ele>
        <time>2020-07-10T12:52:45Z</time>
      </trkpt>
      <trkpt lat="47.82013" lon="-3.53192">
        <ele>23.26</ele>
        <time>2020-07-10T12:52:46Z</time>
      </trkpt>
      <trkpt lat="47.82012" lon="-3.5319">
        <ele>23.45</ele>
        <time>2020-07-10T12:52:47Z</time>
      </trkpt>
      <trkpt lat="47.82012" lon="-3.53188">
        <ele>23.62</ele>
        <time>2020-07-10T12:52:48Z</time>
      </trkpt>
      <trkpt lat="47.82011" lon="-3.53187">
        <ele>23.88</ele>
        <time>2020-07-10T12:52:49Z</time>
      </trkpt>
      <trkpt lat="47.8201" lon="-3.53185">
        <ele>23.98</ele>
        <time>2020-07-10T12:52:50Z</time>
      </trkpt>
      <trkpt lat="47.82009" lon="-3.53184">
        <ele>24.09</ele>
        <time>2020-07-10T12:52:51Z</time>
      </trkpt>
      <trkpt lat="47.82008" lon="-3.53182">
        <ele>24.32</ele>
        <time>2020-07-10T12:52:52Z</time>
      </trkpt>
      <trkpt lat="47.82007" lon="-3.53181">
        <ele>24.47</ele>
        <time>2020-07-10T12:52:53Z</time>
      </trkpt>
      <trkpt lat="47.82006" lon="-3.5318">
        <ele>24.58</ele>
        <time>2020-07-10T12:52:54Z</time>
      </trkpt>
      <trkpt lat="47.82006" lon="-3.5318">
        <ele>24.62</ele>
        <time>2020-07-10T12:52:55Z</time>
      </trkpt>
      <trkpt lat="47.82006" lon="-3.5318">
        <ele>24.63</ele>
        <time>2020-07-10T12:52:56Z</time>
      </trkpt>
      <trkpt lat="47.82" lon="-3.53174">
        <ele>25.28</ele>
        <time>2020-07-10T12:52:57Z</time>
      </trkpt>
      <trkpt lat="47.81999" lon="-3.53171">
        <ele>25.86</ele>
        <time>2020-07-10T12:52:58Z</time>
      </trkpt>
      <trkpt lat="47.81999" lon="-3.5317">
        <ele>26.31</ele>
        <time>2020-07-10T12:52:59Z</time>
      </trkpt>
      <trkpt lat="47.81998" lon="-3.53169">
        <ele>26.58</ele>
        <time>2020-07-10T12:53:00Z</time>
      </trkpt>
      <trkpt lat="47.81999" lon="-3.53168">
        <ele>26.72</ele>
        <time>2020-07-10T12:53:01Z</time>
      </trkpt>
      <trkpt lat="47.81999" lon="-3.53168">
        <ele>26.79</ele>
        <time>2020-07-10T12:53:02Z</time>
      </trkpt>
      <trkpt lat="47.81999" lon="-3.53168">
        <ele>26.82</ele>
        <time>2020-07-10T12:53:03Z</time>
      </trkpt>
      <trkpt lat="47.81999" lon="-3.53168">
        <ele>26.82</ele>
        <time>2020-07-10T12:53:04Z</time>
      </trkpt>
      <trkpt lat="47.81999" lon="-3.53168">
        <ele>26.83</ele>
        <time>2020-07-10T12:53:05Z</time>
      </trkpt>
      <trkpt lat="47.81999" lon="-3.53168">
        <ele>26.83</ele>
        <time>2020-07-10T12:53:06Z</time>
      </trkpt>
      <trkpt lat="47.81999" lon="-3.53168">
        <ele>26.83</ele>
        <time>2020-07-10T12:53:07Z</time>
      </trkpt>
      <trkpt lat="47.81999" lon="-3.53168">
        <ele>26.83</ele>
        <time>2020-07-10T12:53:08Z</time>
      </trkpt>
      <trkpt lat="47.81999" lon="-3.53168">
        <ele>26.83</ele>
        <time>2020-07-10T12:53:09Z</time>
      </trkpt>
      <trkpt lat="47.81999" lon="-3.53168">
        <ele>26.83</ele>
        <time>2020-07-10T12:53:10Z</time>
      </trkpt>
      <trkpt lat="47.81999" lon="-3.53168">
        <ele>26.83</ele>
        <time>2020-07-10T12:53:11Z</time>
      </trkpt>
      <trkpt lat="47.81999" lon="-3.53168">
        <ele>26.83</ele>
        <time>2020-07-10T12:53:12Z</time>
      </trkpt>
      <trkpt lat="47.81999" lon="-3.53168">
        <ele>26.83</ele>
        <time>2020-07-10T12:53:13Z</time>
      </trkpt>
      <trkpt lat="47.81999" lon="-3.53168">
        <ele>26.83</ele>
        <time>2020-07-10T12:53:14Z</time>
      </trkpt>
      <trkpt lat="47.81999" lon="-3.53168">
        <ele>26.83</ele>
        <time>2020-07-10T12:53:15Z</time>
      </trkpt>
      <trkpt lat="47.81999" lon="-3.53168">
        <ele>26.83</ele>
        <time>2020-07-10T12:53:16Z</time>
      </trkpt>
      <trkpt lat="47.81999" lon="-3.53168">
        <ele>26.83</ele>
        <time>2020-07-10T12:53:17Z</time>
      </trkpt>
      <trkpt lat="47.81999" lon="-3.53168">
        <ele>26.83</ele>
        <time>2020-07-10T12:53:18Z</time>
      </trkpt>
      <trkpt lat="47.81999" lon="-3.53168">
        <ele>26.83</ele>
        <time>2020-07-10T12:53:19Z</time>
      </trkpt>
      <trkpt lat="47.81999" lon="-3.53168">
        <ele>26.83</ele>
        <time>2020-07-10T12:53:20Z</time>
      </trkpt>
      <trkpt lat="47.81999" lon="-3.53168">
        <ele>26.83</ele>
        <time>2020-07-10T12:53:21Z</time>
      </trkpt>
      <trkpt lat="47.81999" lon="-3.53168">
        <ele>26.83</ele>
        <time>2020-07-10T12:53:22Z</time>
      </trkpt>
      <trkpt lat="47.81993" lon="-3.53157">
        <ele>27.91</ele>
        <time>2020-07-10T12:53:23Z</time>
      </trkpt>
      <trkpt lat="47.8199" lon="-3.53156">
        <ele>28.41</ele>
        <time>2020-07-10T12:53:24Z</time>
      </trkpt>
      <trkpt lat="47.81989" lon="-3.53155">
        <ele>28.62</ele>
        <time>2020-07-10T12:53:25Z</time>
      </trkpt>
      <trkpt lat="47.81987" lon="-3.53155">
        <ele>28.76</ele>
        <time>2020-07-10T12:53:26Z</time>
      </trkpt>
      <trkpt lat="47.81987" lon="-3.53155">
        <ele>28.8</ele>
        <time>2020-07-10T12:53:27Z</time>
      </trkpt>
      <trkpt lat="47.81987" lon="-3.53155">
        <ele>28.81</ele>
        <time>2020-07-10T12:53:28Z</time>
      </trkpt>
      <trkpt lat="47.81987" lon="-3.53155">
        <ele>28.82</ele>
        <time>2020-07-10T12:53:29Z</time>
      </trkpt>
      <trkpt lat="47.81987" lon="-3.53155">
        <ele>28.82</ele>
        <time>2020-07-10T12:53:30Z</time>
      </trkpt>
      <trkpt lat="47.81987" lon="-3.53155">
        <ele>28.82</ele>
        <time>2020-07-10T12:53:31Z</time>
      </trkpt>
      <trkpt lat="47.81987" lon="-3.53155">
        <ele>28.82</ele>
        <time>2020-07-10T12:53:32Z</time>
      </trkpt>
      <trkpt lat="47.81987" lon="-3.53155">
        <ele>28.82</ele>
        <time>2020-07-10T12:53:33Z</time>
      </trkpt>
      <trkpt lat="47.81987" lon="-3.53155">
        <ele>28.82</ele>
        <time>2020-07-10T12:53:34Z</time>
      </trkpt>
      <trkpt lat="47.81978" lon="-3.53153">
        <ele>29.15</ele>
        <time>2020-07-10T12:53:35Z</time>
      </trkpt>
      <trkpt lat="47.81977" lon="-3.53153">
        <ele>29.27</ele>
        <time>2020-07-10T12:53:36Z</time>
      </trkpt>
      <trkpt lat="47.81976" lon="-3.53153">
        <ele>29.33</ele>
        <time>2020-07-10T12:53:37Z</time>
      </trkpt>
      <trkpt lat="47.81977" lon="-3.53152">
        <ele>29.37</ele>
        <time>2020-07-10T12:53:38Z</time>
      </trkpt>
      <trkpt lat="47.81977" lon="-3.53152">
        <ele>29.38</ele>
        <time>2020-07-10T12:53:39Z</time>
      </trkpt>
      <trkpt lat="47.81977" lon="-3.53152">
        <ele>29.38</ele>
        <time>2020-07-10T12:53:40Z</time>
      </trkpt>
      <trkpt lat="47.81977" lon="-3.53152">
        <ele>29.38</ele>
        <time>2020-07-10T12:53:41Z</time>
      </trkpt>
      <trkpt lat="47.81977" lon="-3.53152">
        <ele>29.38</ele>
        <time>2020-07-10T12:53:42Z</time>
      </trkpt>
      <trkpt lat="47.81977" lon="-3.53152">
        <ele>29.38</ele>
        <time>2020-07-10T12:53:43Z</time>
      </trkpt>
      <trkpt lat="47.81977" lon="-3.53152">
        <ele>29.38</ele>
        <time>2020-07-10T12:53:44Z</time>
      </trkpt>
      <trkpt lat="47.81977" lon="-3.53152">
        <ele>29.38</ele>
        <time>2020-07-10T12:53:45Z</time>
      </trkpt>
      <trkpt lat="47.81977" lon="-3.53152">
        <ele>29.38</ele>
        <time>2020-07-10T12:53:46Z</time>
      </trkpt>
      <trkpt lat="47.81977" lon="-3.53152">
        <ele>29.38</ele>
        <time>2020-07-10T12:53:47Z</time>
      </trkpt>
      <trkpt lat="47.81977" lon="-3.53152">
        <ele>29.38</ele>
        <time>2020-07-10T12:53:48Z</time>
      </trkpt>
      <trkpt lat="47.81977" lon="-3.53152">
        <ele>29.38</ele>
        <time>2020-07-10T12:53:49Z</time>
      </trkpt>
      <trkpt lat="47.81977" lon="-3.53152">
        <ele>29.38</ele>
        <time>2020-07-10T12:53:50Z</time>
      </trkpt>
      <trkpt lat="47.81977" lon="-3.53152">
        <ele>29.38</ele>
        <time>2020-07-10T12:53:51Z</time>
      </trkpt>
      <trkpt lat="47.81973" lon="-3.53155">
        <ele>29.38</ele>
        <time>2020-07-10T12:53:52Z</time>
      </trkpt>
      <trkpt lat="47.81972" lon="-3.53155">
        <ele>29.41</ele>
        <time>2020-07-10T12:53:53Z</time>
      </trkpt>
      <trkpt lat="47.81971" lon="-3.53155">
        <ele>29.44</ele>
        <time>2020-07-10T12:53:54Z</time>
      </trkpt>
      <trkpt lat="47.81971" lon="-3.53156">
        <ele>29.45</ele>
        <time>2020-07-10T12:53:55Z</time>
      </trkpt>
      <trkpt lat="47.81971" lon="-3.53156">
        <ele>29.46</ele>
        <time>2020-07-10T12:53:56Z</time>
      </trkpt>
      <trkpt lat="47.81971" lon="-3.53156">
        <ele>29.46</ele>
        <time>2020-07-10T12:53:57Z</time>
      </trkpt>
      <trkpt lat="47.81971" lon="-3.53156">
        <ele>29.46</ele>
        <time>2020-07-10T12:53:58Z</time>
      </trkpt>
      <trkpt lat="47.81971" lon="-3.53156">
        <ele>29.46</ele>
        <time>2020-07-10T12:53:59Z</time>
      </trkpt>
      <trkpt lat="47.81968" lon="-3.53162">
        <ele>29.47</ele>
        <time>2020-07-10T12:54:00Z</time>
      </trkpt>
      <trkpt lat="47.81967" lon="-3.53163">
        <ele>29.53</ele>
        <time>2020-07-10T12:54:01Z</time>
      </trkpt>
      <trkpt lat="47.81966" lon="-3.53164">
        <ele>29.55</ele>
        <time>2020-07-10T12:54:02Z</time>
      </trkpt>
      <trkpt lat="47.81965" lon="-3.53165">
        <ele>29.57</ele>
        <time>2020-07-10T12:54:03Z</time>
      </trkpt>
      <trkpt lat="47.81963" lon="-3.53167">
        <ele>29.63</ele>
        <time>2020-07-10T12:54:04Z</time>
      </trkpt>
      <trkpt lat="47.81961" lon="-3.53168">
        <ele>29.68</ele>
        <time>2020-07-10T12:54:05Z</time>
      </trkpt>
      <trkpt lat="47.8196" lon="-3.53169">
        <ele>29.75</ele>
        <time>2020-07-10T12:54:06Z</time>
      </trkpt>
      <trkpt lat="47.81958" lon="-3.5317">
        <ele>29.83</ele>
        <time>2020-07-10T12:54:07Z</time>
      </trkpt>
      <trkpt lat="47.81956" lon="-3.53171">
        <ele>29.93</ele>
        <time>2020-07-10T12:54:08Z</time>
      </trkpt>
      <trkpt lat="47.81954" lon="-3.53172">
        <ele>30.01</ele>
        <time>2020-07-10T12:54:09Z</time>
      </trkpt>
      <trkpt lat="47.81953" lon="-3.53174">
        <ele>30.01</ele>
        <time>2020-07-10T12:54:10Z</time>
      </trkpt>
      <trkpt lat="47.81952" lon="-3.53178">
        <ele>29.95</ele>
        <time>2020-07-10T12:54:11Z</time>
      </trkpt>
      <trkpt lat="47.81951" lon="-3.53182">
        <ele>29.88</ele>
        <time>2020-07-10T12:54:12Z</time>
      </trkpt>
      <trkpt lat="47.8195" lon="-3.53187">
        <ele>29.81</ele>
        <time>2020-07-10T12:54:13Z</time>
      </trkpt>
      <trkpt lat="47.81948" lon="-3.53192">
        <ele>29.77</ele>
        <time>2020-07-10T12:54:14Z</time>
      </trkpt>
      <trkpt lat="47.81945" lon="-3.53197">
        <ele>29.68</ele>
        <time>2020-07-10T12:54:15Z</time>
      </trkpt>
      <trkpt lat="47.81943" lon="-3.53203">
        <ele>29.38</ele>
        <time>2020-07-10T12:54:16Z</time>
      </trkpt>
      <trkpt lat="47.81942" lon="-3.53208">
        <ele>28.94</ele>
        <time>2020-07-10T12:54:17Z</time>
      </trkpt>
      <trkpt lat="47.81941" lon="-3.53214">
        <ele>28.44</ele>
        <time>2020-07-10T12:54:18Z</time>
      </trkpt>
      <trkpt lat="47.81938" lon="-3.5322">
        <ele>28.03</ele>
        <time>2020-07-10T12:54:19Z</time>
      </trkpt>
      <trkpt lat="47.81934" lon="-3.53225">
        <ele>27.95</ele>
        <time>2020-07-10T12:54:20Z</time>
      </trkpt>
      <trkpt lat="47.8193" lon="-3.53228">
        <ele>28.12</ele>
        <time>2020-07-10T12:54:21Z</time>
      </trkpt>
      <trkpt lat="47.81925" lon="-3.53232">
        <ele>28.42</ele>
        <time>2020-07-10T12:54:22Z</time>
      </trkpt>
      <trkpt lat="47.81921" lon="-3.53236">
        <ele>28.8</ele>
        <time>2020-07-10T12:54:23Z</time>
      </trkpt>
      <trkpt lat="47.81917" lon="-3.5324">
        <ele>29.22</ele>
        <time>2020-07-10T12:54:24Z</time>
      </trkpt>
      <trkpt lat="47.81911" lon="-3.53244">
        <ele>29.87</ele>
        <time>2020-07-10T12:54:25Z</time>
      </trkpt>
      <trkpt lat="47.81907" lon="-3.53247">
        <ele>30.57</ele>
        <time>2020-07-10T12:54:26Z</time>
      </trkpt>
      <trkpt lat="47.81902" lon="-3.5325">
        <ele>31.24</ele>
        <time>2020-07-10T12:54:27Z</time>
      </trkpt>
      <trkpt lat="47.81899" lon="-3.53253">
        <ele>31.55</ele>
        <time>2020-07-10T12:54:28Z</time>
      </trkpt>
      <trkpt lat="47.81897" lon="-3.53257">
        <ele>31.69</ele>
        <time>2020-07-10T12:54:29Z</time>
      </trkpt>
      <trkpt lat="47.81895" lon="-3.5326">
        <ele>31.75</ele>
        <time>2020-07-10T12:54:30Z</time>
      </trkpt>
      <trkpt lat="47.81893" lon="-3.53262">
        <ele>31.79</ele>
        <time>2020-07-10T12:54:31Z</time>
      </trkpt>
      <trkpt lat="47.81892" lon="-3.53264">
        <ele>31.88</ele>
        <time>2020-07-10T12:54:32Z</time>
      </trkpt>
      <trkpt lat="47.81891" lon="-3.53266">
        <ele>31.89</ele>
        <time>2020-07-10T12:54:33Z</time>
      </trkpt>
      <trkpt lat="47.81888" lon="-3.53269">
        <ele>32.02</ele>
        <time>2020-07-10T12:54:34Z</time>
      </trkpt>
      <trkpt lat="47.81886" lon="-3.53273">
        <ele>32.1</ele>
        <time>2020-07-10T12:54:35Z</time>
      </trkpt>
      <trkpt lat="47.81885" lon="-3.53275">
        <ele>32.08</ele>
        <time>2020-07-10T12:54:36Z</time>
      </trkpt>
      <trkpt lat="47.81884" lon="-3.53278">
        <ele>32.04</ele>
        <time>2020-07-10T12:54:37Z</time>
      </trkpt>
      <trkpt lat="47.81882" lon="-3.53281">
        <ele>32.05</ele>
        <time>2020-07-10T12:54:38Z</time>
      </trkpt>
      <trkpt lat="47.81879" lon="-3.53283">
        <ele>32.27</ele>
        <time>2020-07-10T12:54:39Z</time>
      </trkpt>
      <trkpt lat="47.81877" lon="-3.53285">
        <ele>32.47</ele>
        <time>2020-07-10T12:54:40Z</time>
      </trkpt>
      <trkpt lat="47.81875" lon="-3.53288">
        <ele>32.49</ele>
        <time>2020-07-10T12:54:41Z</time>
      </trkpt>
      <trkpt lat="47.81873" lon="-3.5329">
        <ele>32.66</ele>
        <time>2020-07-10T12:54:42Z</time>
      </trkpt>
      <trkpt lat="47.81871" lon="-3.53293">
        <ele>32.78</ele>
        <time>2020-07-10T12:54:43Z</time>
      </trkpt>
      <trkpt lat="47.81869" lon="-3.53295">
        <ele>32.85</ele>
        <time>2020-07-10T12:54:44Z</time>
      </trkpt>
      <trkpt lat="47.81867" lon="-3.53297">
        <ele>32.87</ele>
        <time>2020-07-10T12:54:45Z</time>
      </trkpt>
      <trkpt lat="47.81865" lon="-3.533">
        <ele>32.86</ele>
        <time>2020-07-10T12:54:46Z</time>
      </trkpt>
      <trkpt lat="47.81863" lon="-3.53302">
        <ele>32.95</ele>
        <time>2020-07-10T12:54:47Z</time>
      </trkpt>
      <trkpt lat="47.81861" lon="-3.53304">
        <ele>33.12</ele>
        <time>2020-07-10T12:54:48Z</time>
      </trkpt>
      <trkpt lat="47.81858" lon="-3.53306">
        <ele>33.31</ele>
        <time>2020-07-10T12:54:49Z</time>
      </trkpt>
      <trkpt lat="47.81855" lon="-3.53308">
        <ele>33.52</ele>
        <time>2020-07-10T12:54:50Z</time>
      </trkpt>
      <trkpt lat="47.81852" lon="-3.5331">
        <ele>33.68</ele>
        <time>2020-07-10T12:54:51Z</time>
      </trkpt>
      <trkpt lat="47.81849" lon="-3.53311">
        <ele>33.87</ele>
        <time>2020-07-10T12:54:52Z</time>
      </trkpt>
      <trkpt lat="47.81847" lon="-3.53312">
        <ele>34.1</ele>
        <time>2020-07-10T12:54:53Z</time>
      </trkpt>
      <trkpt lat="47.81845" lon="-3.53313">
        <ele>34.32</ele>
        <time>2020-07-10T12:54:54Z</time>
      </trkpt>
      <trkpt lat="47.81843" lon="-3.53313">
        <ele>34.59</ele>
        <time>2020-07-10T12:54:55Z</time>
      </trkpt>
      <trkpt lat="47.81842" lon="-3.53313">
        <ele>34.82</ele>
        <time>2020-07-10T12:54:56Z</time>
      </trkpt>
      <trkpt lat="47.81841" lon="-3.53313">
        <ele>34.99</ele>
        <time>2020-07-10T12:54:57Z</time>
      </trkpt>
      <trkpt lat="47.81841" lon="-3.53313">
        <ele>35.05</ele>
        <time>2020-07-10T12:54:58Z</time>
      </trkpt>
      <trkpt lat="47.81841" lon="-3.53313">
        <ele>35.06</ele>
        <time>2020-07-10T12:54:59Z</time>
      </trkpt>
      <trkpt lat="47.81841" lon="-3.53313">
        <ele>35.07</ele>
        <time>2020-07-10T12:55:00Z</time>
      </trkpt>
      <trkpt lat="47.81841" lon="-3.53313">
        <ele>35.07</ele>
        <time>2020-07-10T12:55:01Z</time>
      </trkpt>
      <trkpt lat="47.81841" lon="-3.53313">
        <ele>35.07</ele>
        <time>2020-07-10T12:55:02Z</time>
      </trkpt>
      <trkpt lat="47.81841" lon="-3.53313">
        <ele>35.07</ele>
        <time>2020-07-10T12:55:03Z</time>
      </trkpt>
      <trkpt lat="47.81841" lon="-3.53313">
        <ele>35.07</ele>
        <time>2020-07-10T12:55:04Z</time>
      </trkpt>
      <trkpt lat="47.81841" lon="-3.53313">
        <ele>35.07</ele>
        <time>2020-07-10T12:55:05Z</time>
      </trkpt>
      <trkpt lat="47.81841" lon="-3.53313">
        <ele>35.07</ele>
        <time>2020-07-10T12:55:06Z</time>
      </trkpt>
      <trkpt lat="47.81841" lon="-3.53313">
        <ele>35.07</ele>
        <time>2020-07-10T12:55:07Z</time>
      </trkpt>
      <trkpt lat="47.81841" lon="-3.53313">
        <ele>35.07</ele>
        <time>2020-07-10T12:55:08Z</time>
      </trkpt>
      <trkpt lat="47.81841" lon="-3.53313">
        <ele>35.07</ele>
        <time>2020-07-10T12:55:09Z</time>
      </trkpt>
      <trkpt lat="47.81841" lon="-3.53313">
        <ele>35.07</ele>
        <time>2020-07-10T12:55:10Z</time>
      </trkpt>
      <trkpt lat="47.81841" lon="-3.53313">
        <ele>35.07</ele>
        <time>2020-07-10T12:55:11Z</time>
      </trkpt>
      <trkpt lat="47.81841" lon="-3.53313">
        <ele>35.07</ele>
        <time>2020-07-10T12:55:12Z</time>
      </trkpt>
      <trkpt lat="47.81841" lon="-3.53313">
        <ele>35.07</ele>
        <time>2020-07-10T12:55:13Z</time>
      </trkpt>
      <trkpt lat="47.81841" lon="-3.53313">
        <ele>35.07</ele>
        <time>2020-07-10T12:55:14Z</time>
      </trkpt>
      <trkpt lat="47.81841" lon="-3.53313">
        <ele>35.07</ele>
        <time>2020-07-10T12:55:15Z</time>
      </trkpt>
      <trkpt lat="47.81842" lon="-3.53319">
        <ele>34.43</ele>
        <time>2020-07-10T12:55:16Z</time>
      </trkpt>
      <trkpt lat="47.81842" lon="-3.53322">
        <ele>33.99</ele>
        <time>2020-07-10T12:55:17Z</time>
      </trkpt>
      <trkpt lat="47.81842" lon="-3.53324">
        <ele>33.6</ele>
        <time>2020-07-10T12:55:18Z</time>
      </trkpt>
      <trkpt lat="47.81842" lon="-3.53327">
        <ele>33.28</ele>
        <time>2020-07-10T12:55:19Z</time>
      </trkpt>
      <trkpt lat="47.81843" lon="-3.5333">
        <ele>32.76</ele>
        <time>2020-07-10T12:55:20Z</time>
      </trkpt>
      <trkpt lat="47.81844" lon="-3.53333">
        <ele>32.26</ele>
        <time>2020-07-10T12:55:21Z</time>
      </trkpt>
      <trkpt lat="47.81845" lon="-3.53337">
        <ele>31.73</ele>
        <time>2020-07-10T12:55:22Z</time>
      </trkpt>
      <trkpt lat="47.81844" lon="-3.5334">
        <ele>31.34</ele>
        <time>2020-07-10T12:55:23Z</time>
      </trkpt>
      <trkpt lat="47.81843" lon="-3.53343">
        <ele>30.93</ele>
        <time>2020-07-10T12:55:24Z</time>
      </trkpt>
      <trkpt lat="47.81843" lon="-3.53347">
        <ele>30.49</ele>
        <time>2020-07-10T12:55:25Z</time>
      </trkpt>
      <trkpt lat="47.81842" lon="-3.53352">
        <ele>30.03</ele>
        <time>2020-07-10T12:55:26Z</time>
      </trkpt>
      <trkpt lat="47.8184" lon="-3.53355">
        <ele>29.71</ele>
        <time>2020-07-10T12:55:27Z</time>
      </trkpt>
      <trkpt lat="47.8184" lon="-3.53359">
        <ele>29.26</ele>
        <time>2020-07-10T12:55:28Z</time>
      </trkpt>
      <trkpt lat="47.81839" lon="-3.53363">
        <ele>28.6</ele>
        <time>2020-07-10T12:55:29Z</time>
      </trkpt>
      <trkpt lat="47.81838" lon="-3.53365">
        <ele>27.97</ele>
        <time>2020-07-10T12:55:30Z</time>
      </trkpt>
      <trkpt lat="47.81836" lon="-3.53368">
        <ele>27.41</ele>
        <time>2020-07-10T12:55:31Z</time>
      </trkpt>
      <trkpt lat="47.81835" lon="-3.53372">
        <ele>26.49</ele>
        <time>2020-07-10T12:55:32Z</time>
      </trkpt>
      <trkpt lat="47.81834" lon="-3.53377">
        <ele>25.37</ele>
        <time>2020-07-10T12:55:33Z</time>
      </trkpt>
      <trkpt lat="47.81833" lon="-3.53381">
        <ele>24.22</ele>
        <time>2020-07-10T12:55:34Z</time>
      </trkpt>
      <trkpt lat="47.81831" lon="-3.53384">
        <ele>23.24</ele>
        <time>2020-07-10T12:55:35Z</time>
      </trkpt>
      <trkpt lat="47.81829" lon="-3.53388">
        <ele>22.49</ele>
        <time>2020-07-10T12:55:36Z</time>
      </trkpt>
      <trkpt lat="47.81827" lon="-3.53391">
        <ele>22.02</ele>
        <time>2020-07-10T12:55:37Z</time>
      </trkpt>
      <trkpt lat="47.81823" lon="-3.53393">
        <ele>21.93</ele>
        <time>2020-07-10T12:55:38Z</time>
      </trkpt>
      <trkpt lat="47.8182" lon="-3.53394">
        <ele>22.06</ele>
        <time>2020-07-10T12:55:39Z</time>
      </trkpt>
      <trkpt lat="47.81817" lon="-3.53396">
        <ele>22.18</ele>
        <time>2020-07-10T12:55:40Z</time>
      </trkpt>
      <trkpt lat="47.81814" lon="-3.53398">
        <ele>22.21</ele>
        <time>2020-07-10T12:55:41Z</time>
      </trkpt>
      <trkpt lat="47.81812" lon="-3.534">
        <ele>22.14</ele>
        <time>2020-07-10T12:55:42Z</time>
      </trkpt>
      <trkpt lat="47.8181" lon="-3.53403">
        <ele>21.78</ele>
        <time>2020-07-10T12:55:43Z</time>
      </trkpt>
      <trkpt lat="47.81807" lon="-3.53405">
        <ele>21.4</ele>
        <time>2020-07-10T12:55:44Z</time>
      </trkpt>
      <trkpt lat="47.81806" lon="-3.53409">
        <ele>20.64</ele>
        <time>2020-07-10T12:55:45Z</time>
      </trkpt>
      <trkpt lat="47.81805" lon="-3.53413">
        <ele>19.65</ele>
        <time>2020-07-10T12:55:46Z</time>
      </trkpt>
      <trkpt lat="47.81803" lon="-3.53417">
        <ele>18.65</ele>
        <time>2020-07-10T12:55:47Z</time>
      </trkpt>
      <trkpt lat="47.81802" lon="-3.53419">
        <ele>17.89</ele>
        <time>2020-07-10T12:55:48Z</time>
      </trkpt>
      <trkpt lat="47.81802" lon="-3.53422">
        <ele>17.22</ele>
        <time>2020-07-10T12:55:49Z</time>
      </trkpt>
      <trkpt lat="47.81801" lon="-3.53424">
        <ele>16.49</ele>
        <time>2020-07-10T12:55:50Z</time>
      </trkpt>
      <trkpt lat="47.818" lon="-3.53427">
        <ele>15.78</ele>
        <time>2020-07-10T12:55:51Z</time>
      </trkpt>
      <trkpt lat="47.81798" lon="-3.53429">
        <ele>15.26</ele>
        <time>2020-07-10T12:55:52Z</time>
      </trkpt>
      <trkpt lat="47.81797" lon="-3.53431">
        <ele>14.75</ele>
        <time>2020-07-10T12:55:53Z</time>
      </trkpt>
      <trkpt lat="47.81795" lon="-3.53434">
        <ele>14.19</ele>
        <time>2020-07-10T12:55:54Z</time>
      </trkpt>
      <trkpt lat="47.81794" lon="-3.53436">
        <ele>13.67</ele>
        <time>2020-07-10T12:55:55Z</time>
      </trkpt>
      <trkpt lat="47.81793" lon="-3.53436">
        <ele>13.46</ele>
        <time>2020-07-10T12:55:56Z</time>
      </trkpt>
      <trkpt lat="47.81793" lon="-3.53437">
        <ele>13.16</ele>
        <time>2020-07-10T12:55:57Z</time>
      </trkpt>
      <trkpt lat="47.81793" lon="-3.53437">
        <ele>13.07</ele>
        <time>2020-07-10T12:55:58Z</time>
      </trkpt>
      <trkpt lat="47.81793" lon="-3.53437">
        <ele>13.04</ele>
        <time>2020-07-10T12:55:59Z</time>
      </trkpt>
      <trkpt lat="47.81793" lon="-3.53437">
        <ele>13.03</ele>
        <time>2020-07-10T12:56:00Z</time>
      </trkpt>
      <trkpt lat="47.81793" lon="-3.53437">
        <ele>13.03</ele>
        <time>2020-07-10T12:56:01Z</time>
      </trkpt>
      <trkpt lat="47.8179" lon="-3.53448">
        <ele>11.17</ele>
        <time>2020-07-10T12:56:02Z</time>
      </trkpt>
      <trkpt lat="47.8179" lon="-3.5345">
        <ele>10.35</ele>
        <time>2020-07-10T12:56:03Z</time>
      </trkpt>
      <trkpt lat="47.81791" lon="-3.5345">
        <ele>9.97</ele>
        <time>2020-07-10T12:56:04Z</time>
      </trkpt>
      <trkpt lat="47.81794" lon="-3.53451">
        <ele>9.63</ele>
        <time>2020-07-10T12:56:05Z</time>
      </trkpt>
      <trkpt lat="47.81796" lon="-3.53453">
        <ele>9.2</ele>
        <time>2020-07-10T12:56:06Z</time>
      </trkpt>
      <trkpt lat="47.81797" lon="-3.53454">
        <ele>8.85</ele>
        <time>2020-07-10T12:56:07Z</time>
      </trkpt>
      <trkpt lat="47.81798" lon="-3.53457">
        <ele>8.41</ele>
        <time>2020-07-10T12:56:08Z</time>
      </trkpt>
      <trkpt lat="47.81797" lon="-3.53458">
        <ele>8.11</ele>
        <time>2020-07-10T12:56:09Z</time>
      </trkpt>
      <trkpt lat="47.81797" lon="-3.53461">
        <ele>7.68</ele>
        <time>2020-07-10T12:56:10Z</time>
      </trkpt>
      <trkpt lat="47.81796" lon="-3.53463">
        <ele>7.24</ele>
        <time>2020-07-10T12:56:11Z</time>
      </trkpt>
      <trkpt lat="47.81793" lon="-3.53466">
        <ele>6.85</ele>
        <time>2020-07-10T12:56:12Z</time>
      </trkpt>
      <trkpt lat="47.81793" lon="-3.53469">
        <ele>6.33</ele>
        <time>2020-07-10T12:56:13Z</time>
      </trkpt>
      <trkpt lat="47.81791" lon="-3.53471">
        <ele>5.95</ele>
        <time>2020-07-10T12:56:14Z</time>
      </trkpt>
      <trkpt lat="47.8179" lon="-3.53472">
        <ele>5.75</ele>
        <time>2020-07-10T12:56:15Z</time>
      </trkpt>
      <trkpt lat="47.81789" lon="-3.53472">
        <ele>5.65</ele>
        <time>2020-07-10T12:56:16Z</time>
      </trkpt>
      <trkpt lat="47.81787" lon="-3.53474">
        <ele>5.56</ele>
        <time>2020-07-10T12:56:17Z</time>
      </trkpt>
      <trkpt lat="47.81785" lon="-3.53476">
        <ele>5.51</ele>
        <time>2020-07-10T12:56:18Z</time>
      </trkpt>
      <trkpt lat="47.81782" lon="-3.53478">
        <ele>5.49</ele>
        <time>2020-07-10T12:56:19Z</time>
      </trkpt>
      <trkpt lat="47.8178" lon="-3.53479">
        <ele>5.46</ele>
        <time>2020-07-10T12:56:20Z</time>
      </trkpt>
      <trkpt lat="47.81779" lon="-3.5348">
        <ele>5.44</ele>
        <time>2020-07-10T12:56:21Z</time>
      </trkpt>
      <trkpt lat="47.81779" lon="-3.53479">
        <ele>5.46</ele>
        <time>2020-07-10T12:56:22Z</time>
      </trkpt>
      <trkpt lat="47.81777" lon="-3.5348">
        <ele>5.48</ele>
        <time>2020-07-10T12:56:23Z</time>
      </trkpt>
      <trkpt lat="47.81775" lon="-3.53483">
        <ele>5.45</ele>
        <time>2020-07-10T12:56:24Z</time>
      </trkpt>
      <trkpt lat="47.81775" lon="-3.53486">
        <ele>5.32</ele>
        <time>2020-07-10T12:56:25Z</time>
      </trkpt>
      <trkpt lat="47.81773" lon="-3.53487">
        <ele>5.26</ele>
        <time>2020-07-10T12:56:26Z</time>
      </trkpt>
      <trkpt lat="47.81771" lon="-3.5349">
        <ele>5.21</ele>
        <time>2020-07-10T12:56:27Z</time>
      </trkpt>
      <trkpt lat="47.8177" lon="-3.53491">
        <ele>5.13</ele>
        <time>2020-07-10T12:56:28Z</time>
      </trkpt>
      <trkpt lat="47.8177" lon="-3.53493">
        <ele>5</ele>
        <time>2020-07-10T12:56:29Z</time>
      </trkpt>
      <trkpt lat="47.8177" lon="-3.53494">
        <ele>4.9</ele>
        <time>2020-07-10T12:56:30Z</time>
      </trkpt>
      <trkpt lat="47.81769" lon="-3.53494">
        <ele>4.86</ele>
        <time>2020-07-10T12:56:31Z</time>
      </trkpt>
      <trkpt lat="47.81769" lon="-3.53494">
        <ele>4.85</ele>
        <time>2020-07-10T12:56:32Z</time>
      </trkpt>
      <trkpt lat="47.81769" lon="-3.53494">
        <ele>4.85</ele>
        <time>2020-07-10T12:56:33Z</time>
      </trkpt>
      <trkpt lat="47.81769" lon="-3.53494">
        <ele>4.84</ele>
        <time>2020-07-10T12:56:34Z</time>
      </trkpt>
      <trkpt lat="47.81769" lon="-3.53494">
        <ele>4.84</ele>
        <time>2020-07-10T12:56:35Z</time>
      </trkpt>
      <trkpt lat="47.81759" lon="-3.53492">
        <ele>5.44</ele>
        <time>2020-07-10T12:56:36Z</time>
      </trkpt>
      <trkpt lat="47.81756" lon="-3.53492">
        <ele>5.74</ele>
        <time>2020-07-10T12:56:37Z</time>
      </trkpt>
      <trkpt lat="47.81753" lon="-3.53492">
        <ele>5.95</ele>
        <time>2020-07-10T12:56:38Z</time>
      </trkpt>
      <trkpt lat="47.81751" lon="-3.53492">
        <ele>6.02</ele>
        <time>2020-07-10T12:56:39Z</time>
      </trkpt>
      <trkpt lat="47.8175" lon="-3.53493">
        <ele>6.04</ele>
        <time>2020-07-10T12:56:40Z</time>
      </trkpt>
      <trkpt lat="47.81751" lon="-3.53496">
        <ele>5.73</ele>
        <time>2020-07-10T12:56:41Z</time>
      </trkpt>
      <trkpt lat="47.8175" lon="-3.53497">
        <ele>5.52</ele>
        <time>2020-07-10T12:56:42Z</time>
      </trkpt>
      <trkpt lat="47.81748" lon="-3.53498">
        <ele>5.47</ele>
        <time>2020-07-10T12:56:43Z</time>
      </trkpt>
      <trkpt lat="47.81748" lon="-3.53499">
        <ele>5.38</ele>
        <time>2020-07-10T12:56:44Z</time>
      </trkpt>
      <trkpt lat="47.81746" lon="-3.53499">
        <ele>5.38</ele>
        <time>2020-07-10T12:56:45Z</time>
      </trkpt>
      <trkpt lat="47.81745" lon="-3.535">
        <ele>5.33</ele>
        <time>2020-07-10T12:56:46Z</time>
      </trkpt>
      <trkpt lat="47.81744" lon="-3.53501">
        <ele>5.35</ele>
        <time>2020-07-10T12:56:47Z</time>
      </trkpt>
      <trkpt lat="47.81743" lon="-3.53502">
        <ele>5.38</ele>
        <time>2020-07-10T12:56:48Z</time>
      </trkpt>
      <trkpt lat="47.81741" lon="-3.53503">
        <ele>5.43</ele>
        <time>2020-07-10T12:56:49Z</time>
      </trkpt>
      <trkpt lat="47.8174" lon="-3.53503">
        <ele>5.48</ele>
        <time>2020-07-10T12:56:50Z</time>
      </trkpt>
      <trkpt lat="47.81738" lon="-3.53504">
        <ele>5.55</ele>
        <time>2020-07-10T12:56:51Z</time>
      </trkpt>
      <trkpt lat="47.81736" lon="-3.53504">
        <ele>5.65</ele>
        <time>2020-07-10T12:56:52Z</time>
      </trkpt>
      <trkpt lat="47.81734" lon="-3.53506">
        <ele>5.7</ele>
        <time>2020-07-10T12:56:53Z</time>
      </trkpt>
      <trkpt lat="47.81733" lon="-3.53509">
        <ele>5.54</ele>
        <time>2020-07-10T12:56:54Z</time>
      </trkpt>
      <trkpt lat="47.81732" lon="-3.5351">
        <ele>5.49</ele>
        <time>2020-07-10T12:56:55Z</time>
      </trkpt>
      <trkpt lat="47.81733" lon="-3.5351">
        <ele>5.42</ele>
        <time>2020-07-10T12:56:56Z</time>
      </trkpt>
      <trkpt lat="47.81733" lon="-3.53511">
        <ele>5.37</ele>
        <time>2020-07-10T12:56:57Z</time>
      </trkpt>
      <trkpt lat="47.81733" lon="-3.53511">
        <ele>5.36</ele>
        <time>2020-07-10T12:56:58Z</time>
      </trkpt>
      <trkpt lat="47.81733" lon="-3.53511">
        <ele>5.35</ele>
        <time>2020-07-10T12:56:59Z</time>
      </trkpt>
      <trkpt lat="47.81733" lon="-3.53511">
        <ele>5.35</ele>
        <time>2020-07-10T12:57:00Z</time>
      </trkpt>
      <trkpt lat="47.81733" lon="-3.53511">
        <ele>5.35</ele>
        <time>2020-07-10T12:57:01Z</time>
      </trkpt>
      <trkpt lat="47.81733" lon="-3.53511">
        <ele>5.35</ele>
        <time>2020-07-10T12:57:02Z</time>
      </trkpt>
      <trkpt lat="47.81731" lon="-3.5352">
        <ele>4.85</ele>
        <time>2020-07-10T12:57:03Z</time>
      </trkpt>
      <trkpt lat="47.8173" lon="-3.53523">
        <ele>4.53</ele>
        <time>2020-07-10T12:57:04Z</time>
      </trkpt>
      <trkpt lat="47.81728" lon="-3.53526">
        <ele>4.3</ele>
        <time>2020-07-10T12:57:05Z</time>
      </trkpt>
      <trkpt lat="47.81725" lon="-3.53527">
        <ele>4.14</ele>
        <time>2020-07-10T12:57:06Z</time>
      </trkpt>
      <trkpt lat="47.81722" lon="-3.53528">
        <ele>4.04</ele>
        <time>2020-07-10T12:57:07Z</time>
      </trkpt>
      <trkpt lat="47.8172" lon="-3.53528">
        <ele>4.05</ele>
        <time>2020-07-10T12:57:08Z</time>
      </trkpt>
      <trkpt lat="47.81718" lon="-3.5353">
        <ele>4.07</ele>
        <time>2020-07-10T12:57:09Z</time>
      </trkpt>
      <trkpt lat="47.81716" lon="-3.5353">
        <ele>4.12</ele>
        <time>2020-07-10T12:57:10Z</time>
      </trkpt>
      <trkpt lat="47.81715" lon="-3.53532">
        <ele>4.11</ele>
        <time>2020-07-10T12:57:11Z</time>
      </trkpt>
      <trkpt lat="47.81714" lon="-3.53532">
        <ele>4.13</ele>
        <time>2020-07-10T12:57:12Z</time>
      </trkpt>
      <trkpt lat="47.81711" lon="-3.53535">
        <ele>4.13</ele>
        <time>2020-07-10T12:57:14Z</time>
      </trkpt>
      <trkpt lat="47.81709" lon="-3.53537">
        <ele>4.14</ele>
        <time>2020-07-10T12:57:15Z</time>
      </trkpt>
      <trkpt lat="47.81707" lon="-3.53538">
        <ele>4.17</ele>
        <time>2020-07-10T12:57:16Z</time>
      </trkpt>
      <trkpt lat="47.81705" lon="-3.5354">
        <ele>4.16</ele>
        <time>2020-07-10T12:57:17Z</time>
      </trkpt>
      <trkpt lat="47.81703" lon="-3.53543">
        <ele>4.14</ele>
        <time>2020-07-10T12:57:18Z</time>
      </trkpt>
      <trkpt lat="47.81701" lon="-3.53546">
        <ele>4.11</ele>
        <time>2020-07-10T12:57:19Z</time>
      </trkpt>
      <trkpt lat="47.81699" lon="-3.53549">
        <ele>4.08</ele>
        <time>2020-07-10T12:57:20Z</time>
      </trkpt>
      <trkpt lat="47.81697" lon="-3.53552">
        <ele>4.03</ele>
        <time>2020-07-10T12:57:21Z</time>
      </trkpt>
      <trkpt lat="47.81695" lon="-3.53554">
        <ele>4.03</ele>
        <time>2020-07-10T12:57:22Z</time>
      </trkpt>
      <trkpt lat="47.81692" lon="-3.53555">
        <ele>4.07</ele>
        <time>2020-07-10T12:57:23Z</time>
      </trkpt>
      <trkpt lat="47.81689" lon="-3.53557">
        <ele>4.13</ele>
        <time>2020-07-10T12:57:24Z</time>
      </trkpt>
      <trkpt lat="47.81686" lon="-3.53558">
        <ele>4.19</ele>
        <time>2020-07-10T12:57:25Z</time>
      </trkpt>
      <trkpt lat="47.81683" lon="-3.53559">
        <ele>4.25</ele>
        <time>2020-07-10T12:57:26Z</time>
      </trkpt>
      <trkpt lat="47.8168" lon="-3.53561">
        <ele>4.31</ele>
        <time>2020-07-10T12:57:27Z</time>
      </trkpt>
      <trkpt lat="47.81676" lon="-3.53562">
        <ele>4.37</ele>
        <time>2020-07-10T12:57:28Z</time>
      </trkpt>
      <trkpt lat="47.81673" lon="-3.53565">
        <ele>4.42</ele>
        <time>2020-07-10T12:57:29Z</time>
      </trkpt>
      <trkpt lat="47.8167" lon="-3.53567">
        <ele>4.45</ele>
        <time>2020-07-10T12:57:30Z</time>
      </trkpt>
      <trkpt lat="47.81667" lon="-3.53568">
        <ele>4.5</ele>
        <time>2020-07-10T12:57:31Z</time>
      </trkpt>
      <trkpt lat="47.81664" lon="-3.53569">
        <ele>4.47</ele>
        <time>2020-07-10T12:57:32Z</time>
      </trkpt>
      <trkpt lat="47.81662" lon="-3.5357">
        <ele>4.41</ele>
        <time>2020-07-10T12:57:33Z</time>
      </trkpt>
      <trkpt lat="47.8166" lon="-3.53571">
        <ele>4.34</ele>
        <time>2020-07-10T12:57:34Z</time>
      </trkpt>
      <trkpt lat="47.81657" lon="-3.53571">
        <ele>4.26</ele>
        <time>2020-07-10T12:57:35Z</time>
      </trkpt>
      <trkpt lat="47.81654" lon="-3.53572">
        <ele>4.17</ele>
        <time>2020-07-10T12:57:36Z</time>
      </trkpt>
      <trkpt lat="47.81651" lon="-3.53574">
        <ele>4.03</ele>
        <time>2020-07-10T12:57:37Z</time>
      </trkpt>
      <trkpt lat="47.81648" lon="-3.53576">
        <ele>3.82</ele>
        <time>2020-07-10T12:57:38Z</time>
      </trkpt>
      <trkpt lat="47.81644" lon="-3.53578">
        <ele>3.59</ele>
        <time>2020-07-10T12:57:39Z</time>
      </trkpt>
      <trkpt lat="47.81639" lon="-3.5358">
        <ele>3.33</ele>
        <time>2020-07-10T12:57:40Z</time>
      </trkpt>
      <trkpt lat="47.81635" lon="-3.53582">
        <ele>3.16</ele>
        <time>2020-07-10T12:57:41Z</time>
      </trkpt>
      <trkpt lat="47.8163" lon="-3.53583">
        <ele>3.05</ele>
        <time>2020-07-10T12:57:42Z</time>
      </trkpt>
      <trkpt lat="47.81627" lon="-3.53584">
        <ele>3.01</ele>
        <time>2020-07-10T12:57:43Z</time>
      </trkpt>
      <trkpt lat="47.81624" lon="-3.53583">
        <ele>3.01</ele>
        <time>2020-07-10T12:57:44Z</time>
      </trkpt>
      <trkpt lat="47.81621" lon="-3.53582">
        <ele>3.04</ele>
        <time>2020-07-10T12:57:45Z</time>
      </trkpt>
      <trkpt lat="47.81616" lon="-3.53582">
        <ele>3.06</ele>
        <time>2020-07-10T12:57:46Z</time>
      </trkpt>
      <trkpt lat="47.81613" lon="-3.53581">
        <ele>3.08</ele>
        <time>2020-07-10T12:57:47Z</time>
      </trkpt>
      <trkpt lat="47.81609" lon="-3.5358">
        <ele>3.12</ele>
        <time>2020-07-10T12:57:48Z</time>
      </trkpt>
      <trkpt lat="47.81606" lon="-3.53579">
        <ele>3.17</ele>
        <time>2020-07-10T12:57:49Z</time>
      </trkpt>
      <trkpt lat="47.81603" lon="-3.53577">
        <ele>3.25</ele>
        <time>2020-07-10T12:57:50Z</time>
      </trkpt>
      <trkpt lat="47.816" lon="-3.53576">
        <ele>3.33</ele>
        <time>2020-07-10T12:57:51Z</time>
      </trkpt>
      <trkpt lat="47.81597" lon="-3.53574">
        <ele>3.46</ele>
        <time>2020-07-10T12:57:52Z</time>
      </trkpt>
      <trkpt lat="47.81594" lon="-3.53571">
        <ele>3.63</ele>
        <time>2020-07-10T12:57:53Z</time>
      </trkpt>
      <trkpt lat="47.81592" lon="-3.53568">
        <ele>3.83</ele>
        <time>2020-07-10T12:57:54Z</time>
      </trkpt>
      <trkpt lat="47.81589" lon="-3.53567">
        <ele>4.01</ele>
        <time>2020-07-10T12:57:55Z</time>
      </trkpt>
      <trkpt lat="47.81587" lon="-3.53563">
        <ele>4.26</ele>
        <time>2020-07-10T12:57:56Z</time>
      </trkpt>
      <trkpt lat="47.81585" lon="-3.53558">
        <ele>4.59</ele>
        <time>2020-07-10T12:57:57Z</time>
      </trkpt>
      <trkpt lat="47.81583" lon="-3.53555">
        <ele>4.95</ele>
        <time>2020-07-10T12:57:58Z</time>
      </trkpt>
      <trkpt lat="47.8158" lon="-3.53552">
        <ele>5.28</ele>
        <time>2020-07-10T12:57:59Z</time>
      </trkpt>
      <trkpt lat="47.81578" lon="-3.5355">
        <ele>5.53</ele>
        <time>2020-07-10T12:58:00Z</time>
      </trkpt>
      <trkpt lat="47.81574" lon="-3.53549">
        <ele>5.68</ele>
        <time>2020-07-10T12:58:01Z</time>
      </trkpt>
      <trkpt lat="47.81571" lon="-3.53547">
        <ele>5.81</ele>
        <time>2020-07-10T12:58:02Z</time>
      </trkpt>
      <trkpt lat="47.81567" lon="-3.53547">
        <ele>5.84</ele>
        <time>2020-07-10T12:58:03Z</time>
      </trkpt>
      <trkpt lat="47.81563" lon="-3.53546">
        <ele>5.83</ele>
        <time>2020-07-10T12:58:04Z</time>
      </trkpt>
      <trkpt lat="47.8156" lon="-3.53546">
        <ele>5.82</ele>
        <time>2020-07-10T12:58:05Z</time>
      </trkpt>
      <trkpt lat="47.81557" lon="-3.53545">
        <ele>5.92</ele>
        <time>2020-07-10T12:58:06Z</time>
      </trkpt>
      <trkpt lat="47.81554" lon="-3.53544">
        <ele>5.98</ele>
        <time>2020-07-10T12:58:07Z</time>
      </trkpt>
      <trkpt lat="47.81551" lon="-3.53542">
        <ele>6.08</ele>
        <time>2020-07-10T12:58:08Z</time>
      </trkpt>
      <trkpt lat="47.81547" lon="-3.53541">
        <ele>6.02</ele>
        <time>2020-07-10T12:58:09Z</time>
      </trkpt>
      <trkpt lat="47.81544" lon="-3.53539">
        <ele>5.98</ele>
        <time>2020-07-10T12:58:10Z</time>
      </trkpt>
      <trkpt lat="47.8154" lon="-3.53538">
        <ele>5.92</ele>
        <time>2020-07-10T12:58:11Z</time>
      </trkpt>
      <trkpt lat="47.81536" lon="-3.53536">
        <ele>5.89</ele>
        <time>2020-07-10T12:58:12Z</time>
      </trkpt>
      <trkpt lat="47.81533" lon="-3.53533">
        <ele>5.86</ele>
        <time>2020-07-10T12:58:13Z</time>
      </trkpt>
      <trkpt lat="47.81529" lon="-3.53531">
        <ele>5.84</ele>
        <time>2020-07-10T12:58:14Z</time>
      </trkpt>
      <trkpt lat="47.81526" lon="-3.53529">
        <ele>5.82</ele>
        <time>2020-07-10T12:58:15Z</time>
      </trkpt>
      <trkpt lat="47.81523" lon="-3.53526">
        <ele>5.89</ele>
        <time>2020-07-10T12:58:16Z</time>
      </trkpt>
      <trkpt lat="47.8152" lon="-3.53523">
        <ele>6.1</ele>
        <time>2020-07-10T12:58:17Z</time>
      </trkpt>
      <trkpt lat="47.81518" lon="-3.5352">
        <ele>6.27</ele>
        <time>2020-07-10T12:58:18Z</time>
      </trkpt>
      <trkpt lat="47.81514" lon="-3.53517">
        <ele>6.35</ele>
        <time>2020-07-10T12:58:19Z</time>
      </trkpt>
      <trkpt lat="47.81511" lon="-3.53513">
        <ele>6.42</ele>
        <time>2020-07-10T12:58:20Z</time>
      </trkpt>
      <trkpt lat="47.81506" lon="-3.53509">
        <ele>6.29</ele>
        <time>2020-07-10T12:58:21Z</time>
      </trkpt>
      <trkpt lat="47.81501" lon="-3.53506">
        <ele>5.94</ele>
        <time>2020-07-10T12:58:22Z</time>
      </trkpt>
      <trkpt lat="47.81497" lon="-3.53503">
        <ele>5.7</ele>
        <time>2020-07-10T12:58:23Z</time>
      </trkpt>
      <trkpt lat="47.81493" lon="-3.535">
        <ele>5.54</ele>
        <time>2020-07-10T12:58:24Z</time>
      </trkpt>
      <trkpt lat="47.81489" lon="-3.53498">
        <ele>5.58</ele>
        <time>2020-07-10T12:58:25Z</time>
      </trkpt>
      <trkpt lat="47.81484" lon="-3.53496">
        <ele>5.54</ele>
        <time>2020-07-10T12:58:26Z</time>
      </trkpt>
      <trkpt lat="47.8148" lon="-3.53494">
        <ele>5.41</ele>
        <time>2020-07-10T12:58:27Z</time>
      </trkpt>
      <trkpt lat="47.81475" lon="-3.53491">
        <ele>5.31</ele>
        <time>2020-07-10T12:58:28Z</time>
      </trkpt>
      <trkpt lat="47.81472" lon="-3.53487">
        <ele>5.31</ele>
        <time>2020-07-10T12:58:29Z</time>
      </trkpt>
      <trkpt lat="47.81469" lon="-3.53483">
        <ele>5.44</ele>
        <time>2020-07-10T12:58:30Z</time>
      </trkpt>
      <trkpt lat="47.81467" lon="-3.53478">
        <ele>5.62</ele>
        <time>2020-07-10T12:58:31Z</time>
      </trkpt>
      <trkpt lat="47.81465" lon="-3.53473">
        <ele>5.85</ele>
        <time>2020-07-10T12:58:32Z</time>
      </trkpt>
      <trkpt lat="47.81464" lon="-3.53468">
        <ele>6.28</ele>
        <time>2020-07-10T12:58:33Z</time>
      </trkpt>
      <trkpt lat="47.81463" lon="-3.53462">
        <ele>6.78</ele>
        <time>2020-07-10T12:58:34Z</time>
      </trkpt>
      <trkpt lat="47.81461" lon="-3.53457">
        <ele>7.13</ele>
        <time>2020-07-10T12:58:35Z</time>
      </trkpt>
      <trkpt lat="47.81459" lon="-3.53452">
        <ele>7.26</ele>
        <time>2020-07-10T12:58:36Z</time>
      </trkpt>
      <trkpt lat="47.81456" lon="-3.53448">
        <ele>7.16</ele>
        <time>2020-07-10T12:58:37Z</time>
      </trkpt>
      <trkpt lat="47.81453" lon="-3.53444">
        <ele>6.79</ele>
        <time>2020-07-10T12:58:38Z</time>
      </trkpt>
      <trkpt lat="47.81451" lon="-3.5344">
        <ele>6.3</ele>
        <time>2020-07-10T12:58:39Z</time>
      </trkpt>
      <trkpt lat="47.81448" lon="-3.53436">
        <ele>5.83</ele>
        <time>2020-07-10T12:58:40Z</time>
      </trkpt>
      <trkpt lat="47.81445" lon="-3.53432">
        <ele>5.38</ele>
        <time>2020-07-10T12:58:41Z</time>
      </trkpt>
      <trkpt lat="47.81443" lon="-3.53428">
        <ele>5.16</ele>
        <time>2020-07-10T12:58:42Z</time>
      </trkpt>
      <trkpt lat="47.81441" lon="-3.53425">
        <ele>5.11</ele>
        <time>2020-07-10T12:58:43Z</time>
      </trkpt>
      <trkpt lat="47.81439" lon="-3.53422">
        <ele>5.08</ele>
        <time>2020-07-10T12:58:44Z</time>
      </trkpt>
      <trkpt lat="47.81437" lon="-3.53421">
        <ele>5</ele>
        <time>2020-07-10T12:58:45Z</time>
      </trkpt>
      <trkpt lat="47.81435" lon="-3.53419">
        <ele>4.96</ele>
        <time>2020-07-10T12:58:46Z</time>
      </trkpt>
      <trkpt lat="47.81434" lon="-3.53416">
        <ele>4.94</ele>
        <time>2020-07-10T12:58:47Z</time>
      </trkpt>
      <trkpt lat="47.81432" lon="-3.53413">
        <ele>4.85</ele>
        <time>2020-07-10T12:58:48Z</time>
      </trkpt>
      <trkpt lat="47.8143" lon="-3.53408">
        <ele>4.75</ele>
        <time>2020-07-10T12:58:49Z</time>
      </trkpt>
      <trkpt lat="47.81427" lon="-3.53403">
        <ele>4.56</ele>
        <time>2020-07-10T12:58:50Z</time>
      </trkpt>
      <trkpt lat="47.81424" lon="-3.53397">
        <ele>4.3</ele>
        <time>2020-07-10T12:58:51Z</time>
      </trkpt>
      <trkpt lat="47.81421" lon="-3.53392">
        <ele>3.93</ele>
        <time>2020-07-10T12:58:52Z</time>
      </trkpt>
      <trkpt lat="47.81419" lon="-3.53388">
        <ele>3.61</ele>
        <time>2020-07-10T12:58:53Z</time>
      </trkpt>
      <trkpt lat="47.81417" lon="-3.53384">
        <ele>3.27</ele>
        <time>2020-07-10T12:58:54Z</time>
      </trkpt>
      <trkpt lat="47.81416" lon="-3.53379">
        <ele>3.06</ele>
        <time>2020-07-10T12:58:55Z</time>
      </trkpt>
      <trkpt lat="47.81414" lon="-3.53376">
        <ele>2.98</ele>
        <time>2020-07-10T12:58:56Z</time>
      </trkpt>
      <trkpt lat="47.81412" lon="-3.53372">
        <ele>2.95</ele>
        <time>2020-07-10T12:58:57Z</time>
      </trkpt>
      <trkpt lat="47.8141" lon="-3.53368">
        <ele>2.95</ele>
        <time>2020-07-10T12:58:58Z</time>
      </trkpt>
      <trkpt lat="47.81408" lon="-3.53363">
        <ele>2.97</ele>
        <time>2020-07-10T12:58:59Z</time>
      </trkpt>
      <trkpt lat="47.81406" lon="-3.53358">
        <ele>2.99</ele>
        <time>2020-07-10T12:59:00Z</time>
      </trkpt>
      <trkpt lat="47.81404" lon="-3.53354">
        <ele>3</ele>
        <time>2020-07-10T12:59:01Z</time>
      </trkpt>
      <trkpt lat="47.81403" lon="-3.53348">
        <ele>3</ele>
        <time>2020-07-10T12:59:02Z</time>
      </trkpt>
      <trkpt lat="47.81401" lon="-3.53343">
        <ele>3</ele>
        <time>2020-07-10T12:59:03Z</time>
      </trkpt>
      <trkpt lat="47.814" lon="-3.53338">
        <ele>3</ele>
        <time>2020-07-10T12:59:04Z</time>
      </trkpt>
      <trkpt lat="47.81399" lon="-3.53334">
        <ele>3</ele>
        <time>2020-07-10T12:59:05Z</time>
      </trkpt>
      <trkpt lat="47.81397" lon="-3.53328">
        <ele>3.05</ele>
        <time>2020-07-10T12:59:06Z</time>
      </trkpt>
      <trkpt lat="47.81397" lon="-3.53322">
        <ele>3.1</ele>
        <time>2020-07-10T12:59:07Z</time>
      </trkpt>
      <trkpt lat="47.81396" lon="-3.53316">
        <ele>3.14</ele>
        <time>2020-07-10T12:59:08Z</time>
      </trkpt>
      <trkpt lat="47.81395" lon="-3.53311">
        <ele>3.16</ele>
        <time>2020-07-10T12:59:09Z</time>
      </trkpt>
      <trkpt lat="47.81394" lon="-3.53305">
        <ele>3.19</ele>
        <time>2020-07-10T12:59:10Z</time>
      </trkpt>
      <trkpt lat="47.81393" lon="-3.53299">
        <ele>3.17</ele>
        <time>2020-07-10T12:59:11Z</time>
      </trkpt>
      <trkpt lat="47.81392" lon="-3.53293">
        <ele>3.13</ele>
        <time>2020-07-10T12:59:12Z</time>
      </trkpt>
      <trkpt lat="47.81392" lon="-3.53287">
        <ele>3.11</ele>
        <time>2020-07-10T12:59:13Z</time>
      </trkpt>
      <trkpt lat="47.81391" lon="-3.53282">
        <ele>3.08</ele>
        <time>2020-07-10T12:59:14Z</time>
      </trkpt>
      <trkpt lat="47.81389" lon="-3.53278">
        <ele>3.03</ele>
        <time>2020-07-10T12:59:15Z</time>
      </trkpt>
      <trkpt lat="47.81387" lon="-3.53273">
        <ele>3.01</ele>
        <time>2020-07-10T12:59:16Z</time>
      </trkpt>
      <trkpt lat="47.81384" lon="-3.53269">
        <ele>3</ele>
        <time>2020-07-10T12:59:17Z</time>
      </trkpt>
      <trkpt lat="47.81382" lon="-3.53266">
        <ele>3</ele>
        <time>2020-07-10T12:59:18Z</time>
      </trkpt>
      <trkpt lat="47.81379" lon="-3.53262">
        <ele>3</ele>
        <time>2020-07-10T12:59:19Z</time>
      </trkpt>
      <trkpt lat="47.81377" lon="-3.53257">
        <ele>3</ele>
        <time>2020-07-10T12:59:20Z</time>
      </trkpt>
      <trkpt lat="47.81375" lon="-3.53253">
        <ele>3</ele>
        <time>2020-07-10T12:59:21Z</time>
      </trkpt>
      <trkpt lat="47.81373" lon="-3.53248">
        <ele>3.03</ele>
        <time>2020-07-10T12:59:22Z</time>
      </trkpt>
      <trkpt lat="47.81372" lon="-3.53243">
        <ele>3.08</ele>
        <time>2020-07-10T12:59:23Z</time>
      </trkpt>
      <trkpt lat="47.8137" lon="-3.53237">
        <ele>3.12</ele>
        <time>2020-07-10T12:59:24Z</time>
      </trkpt>
      <trkpt lat="47.81369" lon="-3.53231">
        <ele>3.18</ele>
        <time>2020-07-10T12:59:25Z</time>
      </trkpt>
      <trkpt lat="47.81369" lon="-3.53223">
        <ele>3.24</ele>
        <time>2020-07-10T12:59:26Z</time>
      </trkpt>
      <trkpt lat="47.81369" lon="-3.53216">
        <ele>3.26</ele>
        <time>2020-07-10T12:59:27Z</time>
      </trkpt>
      <trkpt lat="47.81368" lon="-3.5321">
        <ele>3.26</ele>
        <time>2020-07-10T12:59:28Z</time>
      </trkpt>
      <trkpt lat="47.81367" lon="-3.53204">
        <ele>3.23</ele>
        <time>2020-07-10T12:59:29Z</time>
      </trkpt>
      <trkpt lat="47.81367" lon="-3.53198">
        <ele>3.22</ele>
        <time>2020-07-10T12:59:30Z</time>
      </trkpt>
      <trkpt lat="47.81367" lon="-3.53192">
        <ele>3.21</ele>
        <time>2020-07-10T12:59:31Z</time>
      </trkpt>
      <trkpt lat="47.81368" lon="-3.53188">
        <ele>3.27</ele>
        <time>2020-07-10T12:59:32Z</time>
      </trkpt>
      <trkpt lat="47.81369" lon="-3.53185">
        <ele>3.34</ele>
        <time>2020-07-10T12:59:33Z</time>
      </trkpt>
      <trkpt lat="47.8137" lon="-3.53183">
        <ele>3.44</ele>
        <time>2020-07-10T12:59:34Z</time>
      </trkpt>
      <trkpt lat="47.81372" lon="-3.5318">
        <ele>3.56</ele>
        <time>2020-07-10T12:59:35Z</time>
      </trkpt>
      <trkpt lat="47.81374" lon="-3.53177">
        <ele>3.71</ele>
        <time>2020-07-10T12:59:36Z</time>
      </trkpt>
      <trkpt lat="47.81376" lon="-3.53174">
        <ele>3.86</ele>
        <time>2020-07-10T12:59:37Z</time>
      </trkpt>
      <trkpt lat="47.81377" lon="-3.53171">
        <ele>4</ele>
        <time>2020-07-10T12:59:38Z</time>
      </trkpt>
      <trkpt lat="47.81377" lon="-3.53167">
        <ele>4.12</ele>
        <time>2020-07-10T12:59:39Z</time>
      </trkpt>
      <trkpt lat="47.81377" lon="-3.53164">
        <ele>4.21</ele>
        <time>2020-07-10T12:59:40Z</time>
      </trkpt>
      <trkpt lat="47.81376" lon="-3.53162">
        <ele>4.24</ele>
        <time>2020-07-10T12:59:41Z</time>
      </trkpt>
      <trkpt lat="47.81374" lon="-3.5316">
        <ele>4.21</ele>
        <time>2020-07-10T12:59:42Z</time>
      </trkpt>
      <trkpt lat="47.81373" lon="-3.53159">
        <ele>4.18</ele>
        <time>2020-07-10T12:59:43Z</time>
      </trkpt>
      <trkpt lat="47.81372" lon="-3.53158">
        <ele>4.12</ele>
        <time>2020-07-10T12:59:44Z</time>
      </trkpt>
      <trkpt lat="47.8137" lon="-3.53156">
        <ele>4.06</ele>
        <time>2020-07-10T12:59:45Z</time>
      </trkpt>
      <trkpt lat="47.81367" lon="-3.5315">
        <ele>4.01</ele>
        <time>2020-07-10T12:59:46Z</time>
      </trkpt>
      <trkpt lat="47.81365" lon="-3.53148">
        <ele>3.96</ele>
        <time>2020-07-10T12:59:47Z</time>
      </trkpt>
      <trkpt lat="47.81363" lon="-3.53145">
        <ele>3.9</ele>
        <time>2020-07-10T12:59:48Z</time>
      </trkpt>
      <trkpt lat="47.8136" lon="-3.53143">
        <ele>3.79</ele>
        <time>2020-07-10T12:59:49Z</time>
      </trkpt>
      <trkpt lat="47.81357" lon="-3.53139">
        <ele>3.65</ele>
        <time>2020-07-10T12:59:50Z</time>
      </trkpt>
      <trkpt lat="47.81354" lon="-3.53135">
        <ele>3.48</ele>
        <time>2020-07-10T12:59:51Z</time>
      </trkpt>
      <trkpt lat="47.81353" lon="-3.53132">
        <ele>3.33</ele>
        <time>2020-07-10T12:59:52Z</time>
      </trkpt>
      <trkpt lat="47.81351" lon="-3.53131">
        <ele>3.21</ele>
        <time>2020-07-10T12:59:53Z</time>
      </trkpt>
      <trkpt lat="47.8135" lon="-3.53128">
        <ele>3.1</ele>
        <time>2020-07-10T12:59:54Z</time>
      </trkpt>
      <trkpt lat="47.81349" lon="-3.53125">
        <ele>3</ele>
        <time>2020-07-10T12:59:55Z</time>
      </trkpt>
      <trkpt lat="47.81347" lon="-3.53121">
        <ele>2.86</ele>
        <time>2020-07-10T12:59:56Z</time>
      </trkpt>
      <trkpt lat="47.81346" lon="-3.53116">
        <ele>2.8</ele>
        <time>2020-07-10T12:59:57Z</time>
      </trkpt>
      <trkpt lat="47.81346" lon="-3.53112">
        <ele>2.79</ele>
        <time>2020-07-10T12:59:58Z</time>
      </trkpt>
      <trkpt lat="47.81345" lon="-3.53109">
        <ele>2.81</ele>
        <time>2020-07-10T12:59:59Z</time>
      </trkpt>
      <trkpt lat="47.81344" lon="-3.53105">
        <ele>2.81</ele>
        <time>2020-07-10T13:00:00Z</time>
      </trkpt>
      <trkpt lat="47.81343" lon="-3.531">
        <ele>2.89</ele>
        <time>2020-07-10T13:00:01Z</time>
      </trkpt>
      <trkpt lat="47.81342" lon="-3.53094">
        <ele>3.03</ele>
        <time>2020-07-10T13:00:02Z</time>
      </trkpt>
      <trkpt lat="47.81342" lon="-3.5309">
        <ele>3.21</ele>
        <time>2020-07-10T13:00:03Z</time>
      </trkpt>
      <trkpt lat="47.81341" lon="-3.53085">
        <ele>3.31</ele>
        <time>2020-07-10T13:00:04Z</time>
      </trkpt>
      <trkpt lat="47.8134" lon="-3.53081">
        <ele>3.41</ele>
        <time>2020-07-10T13:00:05Z</time>
      </trkpt>
      <trkpt lat="47.81339" lon="-3.53077">
        <ele>3.49</ele>
        <time>2020-07-10T13:00:06Z</time>
      </trkpt>
      <trkpt lat="47.81337" lon="-3.53073">
        <ele>3.52</ele>
        <time>2020-07-10T13:00:07Z</time>
      </trkpt>
      <trkpt lat="47.81337" lon="-3.5307">
        <ele>3.56</ele>
        <time>2020-07-10T13:00:08Z</time>
      </trkpt>
      <trkpt lat="47.81336" lon="-3.53069">
        <ele>3.6</ele>
        <time>2020-07-10T13:00:09Z</time>
      </trkpt>
      <trkpt lat="47.81336" lon="-3.53068">
        <ele>3.61</ele>
        <time>2020-07-10T13:00:10Z</time>
      </trkpt>
      <trkpt lat="47.81336" lon="-3.53068">
        <ele>3.61</ele>
        <time>2020-07-10T13:00:11Z</time>
      </trkpt>
      <trkpt lat="47.81336" lon="-3.53068">
        <ele>3.6</ele>
        <time>2020-07-10T13:00:12Z</time>
      </trkpt>
      <trkpt lat="47.81336" lon="-3.53068">
        <ele>3.6</ele>
        <time>2020-07-10T13:00:13Z</time>
      </trkpt>
      <trkpt lat="47.81336" lon="-3.53068">
        <ele>3.6</ele>
        <time>2020-07-10T13:00:14Z</time>
      </trkpt>
      <trkpt lat="47.81336" lon="-3.53068">
        <ele>3.6</ele>
        <time>2020-07-10T13:00:15Z</time>
      </trkpt>
      <trkpt lat="47.81336" lon="-3.53068">
        <ele>3.6</ele>
        <time>2020-07-10T13:00:16Z</time>
      </trkpt>
      <trkpt lat="47.81336" lon="-3.53068">
        <ele>3.6</ele>
        <time>2020-07-10T13:00:17Z</time>
      </trkpt>
      <trkpt lat="47.81336" lon="-3.53068">
        <ele>3.6</ele>
        <time>2020-07-10T13:00:18Z</time>
      </trkpt>
      <trkpt lat="47.81336" lon="-3.53068">
        <ele>3.6</ele>
        <time>2020-07-10T13:00:19Z</time>
      </trkpt>
      <trkpt lat="47.81336" lon="-3.53068">
        <ele>3.6</ele>
        <time>2020-07-10T13:00:20Z</time>
      </trkpt>
      <trkpt lat="47.81336" lon="-3.53068">
        <ele>3.6</ele>
        <time>2020-07-10T13:00:21Z</time>
      </trkpt>
      <trkpt lat="47.81336" lon="-3.53068">
        <ele>3.6</ele>
        <time>2020-07-10T13:00:22Z</time>
      </trkpt>
      <trkpt lat="47.81336" lon="-3.53068">
        <ele>3.6</ele>
        <time>2020-07-10T13:00:23Z</time>
      </trkpt>
      <trkpt lat="47.81336" lon="-3.53068">
        <ele>3.6</ele>
        <time>2020-07-10T13:00:24Z</time>
      </trkpt>
      <trkpt lat="47.81336" lon="-3.53068">
        <ele>3.6</ele>
        <time>2020-07-10T13:00:25Z</time>
      </trkpt>
      <trkpt lat="47.81336" lon="-3.53068">
        <ele>3.6</ele>
        <time>2020-07-10T13:00:26Z</time>
      </trkpt>
      <trkpt lat="47.81336" lon="-3.53068">
        <ele>3.6</ele>
        <time>2020-07-10T13:00:27Z</time>
      </trkpt>
      <trkpt lat="47.81336" lon="-3.53068">
        <ele>3.6</ele>
        <time>2020-07-10T13:00:28Z</time>
      </trkpt>
      <trkpt lat="47.81336" lon="-3.53068">
        <ele>3.6</ele>
        <time>2020-07-10T13:00:29Z</time>
      </trkpt>
      <trkpt lat="47.81336" lon="-3.53068">
        <ele>3.6</ele>
        <time>2020-07-10T13:00:30Z</time>
      </trkpt>
      <trkpt lat="47.81336" lon="-3.53068">
        <ele>3.6</ele>
        <time>2020-07-10T13:00:31Z</time>
      </trkpt>
      <trkpt lat="47.81336" lon="-3.53068">
        <ele>3.6</ele>
        <time>2020-07-10T13:00:32Z</time>
      </trkpt>
      <trkpt lat="47.81336" lon="-3.53068">
        <ele>3.6</ele>
        <time>2020-07-10T13:00:33Z</time>
      </trkpt>
      <trkpt lat="47.81336" lon="-3.53068">
        <ele>3.6</ele>
        <time>2020-07-10T13:00:34Z</time>
      </trkpt>
      <trkpt lat="47.81336" lon="-3.53068">
        <ele>3.6</ele>
        <time>2020-07-10T13:00:35Z</time>
      </trkpt>
      <trkpt lat="47.81336" lon="-3.53068">
        <ele>3.6</ele>
        <time>2020-07-10T13:00:36Z</time>
      </trkpt>
      <trkpt lat="47.81336" lon="-3.53068">
        <ele>3.6</ele>
        <time>2020-07-10T13:00:37Z</time>
      </trkpt>
      <trkpt lat="47.81336" lon="-3.53068">
        <ele>3.6</ele>
        <time>2020-07-10T13:00:38Z</time>
      </trkpt>
      <trkpt lat="47.81338" lon="-3.53054">
        <ele>4.73</ele>
        <time>2020-07-10T13:00:39Z</time>
      </trkpt>
      <trkpt lat="47.81338" lon="-3.53053">
        <ele>5.24</ele>
        <time>2020-07-10T13:00:40Z</time>
      </trkpt>
      <trkpt lat="47.81338" lon="-3.53052">
        <ele>5.45</ele>
        <time>2020-07-10T13:00:41Z</time>
      </trkpt>
      <trkpt lat="47.81338" lon="-3.53052">
        <ele>5.56</ele>
        <time>2020-07-10T13:00:42Z</time>
      </trkpt>
      <trkpt lat="47.81338" lon="-3.53052">
        <ele>5.59</ele>
        <time>2020-07-10T13:00:43Z</time>
      </trkpt>
      <trkpt lat="47.81338" lon="-3.53052">
        <ele>5.6</ele>
        <time>2020-07-10T13:00:44Z</time>
      </trkpt>
      <trkpt lat="47.81338" lon="-3.53052">
        <ele>5.6</ele>
        <time>2020-07-10T13:00:45Z</time>
      </trkpt>
      <trkpt lat="47.81338" lon="-3.53052">
        <ele>5.6</ele>
        <time>2020-07-10T13:00:46Z</time>
      </trkpt>
      <trkpt lat="47.81338" lon="-3.53052">
        <ele>5.6</ele>
        <time>2020-07-10T13:00:47Z</time>
      </trkpt>
      <trkpt lat="47.81338" lon="-3.53052">
        <ele>5.6</ele>
        <time>2020-07-10T13:00:48Z</time>
      </trkpt>
      <trkpt lat="47.81338" lon="-3.53052">
        <ele>5.6</ele>
        <time>2020-07-10T13:00:49Z</time>
      </trkpt>
      <trkpt lat="47.81338" lon="-3.53052">
        <ele>5.6</ele>
        <time>2020-07-10T13:00:50Z</time>
      </trkpt>
      <trkpt lat="47.81338" lon="-3.53052">
        <ele>5.6</ele>
        <time>2020-07-10T13:00:51Z</time>
      </trkpt>
      <trkpt lat="47.81338" lon="-3.53052">
        <ele>5.6</ele>
        <time>2020-07-10T13:00:52Z</time>
      </trkpt>
      <trkpt lat="47.81338" lon="-3.53052">
        <ele>5.6</ele>
        <time>2020-07-10T13:00:53Z</time>
      </trkpt>
      <trkpt lat="47.81338" lon="-3.53052">
        <ele>5.6</ele>
        <time>2020-07-10T13:00:54Z</time>
      </trkpt>
      <trkpt lat="47.81338" lon="-3.53052">
        <ele>5.6</ele>
        <time>2020-07-10T13:00:55Z</time>
      </trkpt>
      <trkpt lat="47.81338" lon="-3.53052">
        <ele>5.6</ele>
        <time>2020-07-10T13:00:56Z</time>
      </trkpt>
      <trkpt lat="47.81338" lon="-3.53052">
        <ele>5.6</ele>
        <time>2020-07-10T13:00:57Z</time>
      </trkpt>
      <trkpt lat="47.81338" lon="-3.53052">
        <ele>5.6</ele>
        <time>2020-07-10T13:00:58Z</time>
      </trkpt>
      <trkpt lat="47.8134" lon="-3.53047">
        <ele>6.33</ele>
        <time>2020-07-10T13:00:59Z</time>
      </trkpt>
      <trkpt lat="47.81339" lon="-3.53046">
        <ele>6.55</ele>
        <time>2020-07-10T13:01:00Z</time>
      </trkpt>
      <trkpt lat="47.8134" lon="-3.53045">
        <ele>6.75</ele>
        <time>2020-07-10T13:01:01Z</time>
      </trkpt>
      <trkpt lat="47.81339" lon="-3.53045">
        <ele>6.81</ele>
        <time>2020-07-10T13:01:02Z</time>
      </trkpt>
      <trkpt lat="47.8134" lon="-3.53045">
        <ele>6.87</ele>
        <time>2020-07-10T13:01:03Z</time>
      </trkpt>
      <trkpt lat="47.8134" lon="-3.53045">
        <ele>6.89</ele>
        <time>2020-07-10T13:01:04Z</time>
      </trkpt>
      <trkpt lat="47.8134" lon="-3.53045">
        <ele>6.9</ele>
        <time>2020-07-10T13:01:05Z</time>
      </trkpt>
      <trkpt lat="47.8134" lon="-3.53045">
        <ele>6.9</ele>
        <time>2020-07-10T13:01:06Z</time>
      </trkpt>
      <trkpt lat="47.8134" lon="-3.53045">
        <ele>6.9</ele>
        <time>2020-07-10T13:01:07Z</time>
      </trkpt>
      <trkpt lat="47.8134" lon="-3.53045">
        <ele>6.9</ele>
        <time>2020-07-10T13:01:08Z</time>
      </trkpt>
      <trkpt lat="47.8134" lon="-3.53045">
        <ele>6.9</ele>
        <time>2020-07-10T13:01:09Z</time>
      </trkpt>
      <trkpt lat="47.8134" lon="-3.53045">
        <ele>6.9</ele>
        <time>2020-07-10T13:01:10Z</time>
      </trkpt>
      <trkpt lat="47.8134" lon="-3.53045">
        <ele>6.9</ele>
        <time>2020-07-10T13:01:11Z</time>
      </trkpt>
      <trkpt lat="47.8134" lon="-3.53045">
        <ele>6.9</ele>
        <time>2020-07-10T13:01:12Z</time>
      </trkpt>
      <trkpt lat="47.8134" lon="-3.53045">
        <ele>6.9</ele>
        <time>2020-07-10T13:01:13Z</time>
      </trkpt>
      <trkpt lat="47.8134" lon="-3.53045">
        <ele>6.9</ele>
        <time>2020-07-10T13:01:14Z</time>
      </trkpt>
      <trkpt lat="47.8134" lon="-3.53045">
        <ele>6.9</ele>
        <time>2020-07-10T13:01:15Z</time>
      </trkpt>
      <trkpt lat="47.8134" lon="-3.53045">
        <ele>6.9</ele>
        <time>2020-07-10T13:01:16Z</time>
      </trkpt>
      <trkpt lat="47.8134" lon="-3.53045">
        <ele>6.9</ele>
        <time>2020-07-10T13:01:17Z</time>
      </trkpt>
      <trkpt lat="47.8134" lon="-3.53045">
        <ele>6.9</ele>
        <time>2020-07-10T13:01:18Z</time>
      </trkpt>
      <trkpt lat="47.8134" lon="-3.53045">
        <ele>6.9</ele>
        <time>2020-07-10T13:01:19Z</time>
      </trkpt>
      <trkpt lat="47.8134" lon="-3.53045">
        <ele>6.9</ele>
        <time>2020-07-10T13:01:20Z</time>
      </trkpt>
      <trkpt lat="47.8134" lon="-3.53045">
        <ele>6.9</ele>
        <time>2020-07-10T13:01:21Z</time>
      </trkpt>
      <trkpt lat="47.8134" lon="-3.53045">
        <ele>6.9</ele>
        <time>2020-07-10T13:01:22Z</time>
      </trkpt>
      <trkpt lat="47.8134" lon="-3.53045">
        <ele>6.9</ele>
        <time>2020-07-10T13:01:23Z</time>
      </trkpt>
      <trkpt lat="47.81344" lon="-3.53049">
        <ele>7.18</ele>
        <time>2020-07-10T13:01:24Z</time>
      </trkpt>
      <trkpt lat="47.81344" lon="-3.53049">
        <ele>7.12</ele>
        <time>2020-07-10T13:01:25Z</time>
      </trkpt>
      <trkpt lat="47.81344" lon="-3.5305">
        <ele>7.13</ele>
        <time>2020-07-10T13:01:26Z</time>
      </trkpt>
      <trkpt lat="47.81344" lon="-3.5305">
        <ele>7.14</ele>
        <time>2020-07-10T13:01:27Z</time>
      </trkpt>
      <trkpt lat="47.81344" lon="-3.5305">
        <ele>7.14</ele>
        <time>2020-07-10T13:01:28Z</time>
      </trkpt>
      <trkpt lat="47.81344" lon="-3.5305">
        <ele>7.14</ele>
        <time>2020-07-10T13:01:29Z</time>
      </trkpt>
      <trkpt lat="47.81344" lon="-3.5305">
        <ele>7.14</ele>
        <time>2020-07-10T13:01:30Z</time>
      </trkpt>
      <trkpt lat="47.81344" lon="-3.5305">
        <ele>7.14</ele>
        <time>2020-07-10T13:01:31Z</time>
      </trkpt>
      <trkpt lat="47.81344" lon="-3.5305">
        <ele>7.14</ele>
        <time>2020-07-10T13:01:32Z</time>
      </trkpt>
      <trkpt lat="47.81344" lon="-3.5305">
        <ele>7.14</ele>
        <time>2020-07-10T13:01:33Z</time>
      </trkpt>
      <trkpt lat="47.81344" lon="-3.5305">
        <ele>7.14</ele>
        <time>2020-07-10T13:01:34Z</time>
      </trkpt>
      <trkpt lat="47.81344" lon="-3.5305">
        <ele>7.14</ele>
        <time>2020-07-10T13:01:35Z</time>
      </trkpt>
      <trkpt lat="47.81344" lon="-3.5305">
        <ele>7.14</ele>
        <time>2020-07-10T13:01:36Z</time>
      </trkpt>
      <trkpt lat="47.81344" lon="-3.5305">
        <ele>7.14</ele>
        <time>2020-07-10T13:01:37Z</time>
      </trkpt>
      <trkpt lat="47.81344" lon="-3.5305">
        <ele>7.14</ele>
        <time>2020-07-10T13:01:38Z</time>
      </trkpt>
      <trkpt lat="47.81344" lon="-3.5305">
        <ele>7.14</ele>
        <time>2020-07-10T13:01:39Z</time>
      </trkpt>
      <trkpt lat="47.81344" lon="-3.5305">
        <ele>7.14</ele>
        <time>2020-07-10T13:01:40Z</time>
      </trkpt>
      <trkpt lat="47.81344" lon="-3.5305">
        <ele>7.14</ele>
        <time>2020-07-10T13:01:41Z</time>
      </trkpt>
      <trkpt lat="47.81344" lon="-3.5305">
        <ele>7.14</ele>
        <time>2020-07-10T13:01:42Z</time>
      </trkpt>
      <trkpt lat="47.81344" lon="-3.5305">
        <ele>7.14</ele>
        <time>2020-07-10T13:01:43Z</time>
      </trkpt>
      <trkpt lat="47.81354" lon="-3.53055">
        <ele>8.13</ele>
        <time>2020-07-10T13:01:44Z</time>
      </trkpt>
      <trkpt lat="47.81354" lon="-3.53055">
        <ele>8.48</ele>
        <time>2020-07-10T13:01:45Z</time>
      </trkpt>
      <trkpt lat="47.81355" lon="-3.53056">
        <ele>8.66</ele>
        <time>2020-07-10T13:01:46Z</time>
      </trkpt>
      <trkpt lat="47.81356" lon="-3.53056">
        <ele>8.75</ele>
        <time>2020-07-10T13:01:47Z</time>
      </trkpt>
      <trkpt lat="47.81356" lon="-3.53056">
        <ele>8.77</ele>
        <time>2020-07-10T13:01:48Z</time>
      </trkpt>
      <trkpt lat="47.81356" lon="-3.53056">
        <ele>8.78</ele>
        <time>2020-07-10T13:01:49Z</time>
      </trkpt>
      <trkpt lat="47.81356" lon="-3.53056">
        <ele>8.78</ele>
        <time>2020-07-10T13:01:50Z</time>
      </trkpt>
      <trkpt lat="47.81356" lon="-3.53056">
        <ele>8.78</ele>
        <time>2020-07-10T13:01:51Z</time>
      </trkpt>
      <trkpt lat="47.81356" lon="-3.53056">
        <ele>8.78</ele>
        <time>2020-07-10T13:01:52Z</time>
      </trkpt>
      <trkpt lat="47.81356" lon="-3.53056">
        <ele>8.78</ele>
        <time>2020-07-10T13:01:53Z</time>
      </trkpt>
      <trkpt lat="47.81356" lon="-3.53056">
        <ele>8.78</ele>
        <time>2020-07-10T13:01:54Z</time>
      </trkpt>
      <trkpt lat="47.81356" lon="-3.53056">
        <ele>8.78</ele>
        <time>2020-07-10T13:01:55Z</time>
      </trkpt>
      <trkpt lat="47.81356" lon="-3.53056">
        <ele>8.78</ele>
        <time>2020-07-10T13:01:56Z</time>
      </trkpt>
      <trkpt lat="47.81366" lon="-3.53056">
        <ele>10.2</ele>
        <time>2020-07-10T13:01:57Z</time>
      </trkpt>
      <trkpt lat="47.81366" lon="-3.53056">
        <ele>10.72</ele>
        <time>2020-07-10T13:01:58Z</time>
      </trkpt>
      <trkpt lat="47.81367" lon="-3.53055">
        <ele>11.02</ele>
        <time>2020-07-10T13:01:59Z</time>
      </trkpt>
      <trkpt lat="47.81368" lon="-3.53055">
        <ele>11.27</ele>
        <time>2020-07-10T13:02:00Z</time>
      </trkpt>
      <trkpt lat="47.81368" lon="-3.53055">
        <ele>11.34</ele>
        <time>2020-07-10T13:02:01Z</time>
      </trkpt>
      <trkpt lat="47.81368" lon="-3.53055">
        <ele>11.36</ele>
        <time>2020-07-10T13:02:02Z</time>
      </trkpt>
      <trkpt lat="47.81368" lon="-3.53055">
        <ele>11.37</ele>
        <time>2020-07-10T13:02:03Z</time>
      </trkpt>
      <trkpt lat="47.81368" lon="-3.53055">
        <ele>11.37</ele>
        <time>2020-07-10T13:02:04Z</time>
      </trkpt>
      <trkpt lat="47.81368" lon="-3.53055">
        <ele>11.37</ele>
        <time>2020-07-10T13:02:05Z</time>
      </trkpt>
      <trkpt lat="47.81368" lon="-3.53055">
        <ele>11.37</ele>
        <time>2020-07-10T13:02:06Z</time>
      </trkpt>
      <trkpt lat="47.81368" lon="-3.53055">
        <ele>11.37</ele>
        <time>2020-07-10T13:02:07Z</time>
      </trkpt>
      <trkpt lat="47.81368" lon="-3.53055">
        <ele>11.37</ele>
        <time>2020-07-10T13:02:08Z</time>
      </trkpt>
      <trkpt lat="47.81368" lon="-3.53055">
        <ele>11.37</ele>
        <time>2020-07-10T13:02:09Z</time>
      </trkpt>
      <trkpt lat="47.81368" lon="-3.53055">
        <ele>11.37</ele>
        <time>2020-07-10T13:02:10Z</time>
      </trkpt>
      <trkpt lat="47.81368" lon="-3.53055">
        <ele>11.37</ele>
        <time>2020-07-10T13:02:11Z</time>
      </trkpt>
      <trkpt lat="47.81368" lon="-3.53055">
        <ele>11.37</ele>
        <time>2020-07-10T13:02:12Z</time>
      </trkpt>
      <trkpt lat="47.81377" lon="-3.53056">
        <ele>12.35</ele>
        <time>2020-07-10T13:02:13Z</time>
      </trkpt>
      <trkpt lat="47.81378" lon="-3.53057">
        <ele>12.7</ele>
        <time>2020-07-10T13:02:14Z</time>
      </trkpt>
      <trkpt lat="47.81379" lon="-3.53056">
        <ele>12.98</ele>
        <time>2020-07-10T13:02:15Z</time>
      </trkpt>
      <trkpt lat="47.81379" lon="-3.53056">
        <ele>13.09</ele>
        <time>2020-07-10T13:02:16Z</time>
      </trkpt>
      <trkpt lat="47.81379" lon="-3.53056">
        <ele>13.13</ele>
        <time>2020-07-10T13:02:17Z</time>
      </trkpt>
      <trkpt lat="47.81379" lon="-3.53056">
        <ele>13.14</ele>
        <time>2020-07-10T13:02:18Z</time>
      </trkpt>
      <trkpt lat="47.81379" lon="-3.53056">
        <ele>13.14</ele>
        <time>2020-07-10T13:02:19Z</time>
      </trkpt>
      <trkpt lat="47.81379" lon="-3.53056">
        <ele>13.14</ele>
        <time>2020-07-10T13:02:20Z</time>
      </trkpt>
      <trkpt lat="47.81379" lon="-3.53056">
        <ele>13.14</ele>
        <time>2020-07-10T13:02:21Z</time>
      </trkpt>
      <trkpt lat="47.81379" lon="-3.53056">
        <ele>13.14</ele>
        <time>2020-07-10T13:02:22Z</time>
      </trkpt>
      <trkpt lat="47.81379" lon="-3.53056">
        <ele>13.14</ele>
        <time>2020-07-10T13:02:23Z</time>
      </trkpt>
      <trkpt lat="47.81379" lon="-3.53056">
        <ele>13.14</ele>
        <time>2020-07-10T13:02:24Z</time>
      </trkpt>
      <trkpt lat="47.81379" lon="-3.53056">
        <ele>13.14</ele>
        <time>2020-07-10T13:02:25Z</time>
      </trkpt>
      <trkpt lat="47.81379" lon="-3.53056">
        <ele>13.14</ele>
        <time>2020-07-10T13:02:26Z</time>
      </trkpt>
      <trkpt lat="47.81379" lon="-3.53056">
        <ele>13.14</ele>
        <time>2020-07-10T13:02:27Z</time>
      </trkpt>
      <trkpt lat="47.81379" lon="-3.53056">
        <ele>13.14</ele>
        <time>2020-07-10T13:02:28Z</time>
      </trkpt>
      <trkpt lat="47.81379" lon="-3.53056">
        <ele>13.14</ele>
        <time>2020-07-10T13:02:29Z</time>
      </trkpt>
      <trkpt lat="47.81379" lon="-3.53056">
        <ele>13.14</ele>
        <time>2020-07-10T13:02:30Z</time>
      </trkpt>
      <trkpt lat="47.81379" lon="-3.53056">
        <ele>13.14</ele>
        <time>2020-07-10T13:02:31Z</time>
      </trkpt>
      <trkpt lat="47.81379" lon="-3.53056">
        <ele>13.14</ele>
        <time>2020-07-10T13:02:32Z</time>
      </trkpt>
      <trkpt lat="47.81379" lon="-3.53056">
        <ele>13.14</ele>
        <time>2020-07-10T13:02:33Z</time>
      </trkpt>
      <trkpt lat="47.81379" lon="-3.53056">
        <ele>13.14</ele>
        <time>2020-07-10T13:02:34Z</time>
      </trkpt>
      <trkpt lat="47.81379" lon="-3.53056">
        <ele>13.14</ele>
        <time>2020-07-10T13:02:35Z</time>
      </trkpt>
      <trkpt lat="47.81379" lon="-3.53056">
        <ele>13.14</ele>
        <time>2020-07-10T13:02:36Z</time>
      </trkpt>
      <trkpt lat="47.81379" lon="-3.53056">
        <ele>13.14</ele>
        <time>2020-07-10T13:02:37Z</time>
      </trkpt>
      <trkpt lat="47.81379" lon="-3.53056">
        <ele>13.14</ele>
        <time>2020-07-10T13:02:38Z</time>
      </trkpt>
      <trkpt lat="47.81379" lon="-3.53056">
        <ele>13.14</ele>
        <time>2020-07-10T13:02:39Z</time>
      </trkpt>
      <trkpt lat="47.81379" lon="-3.53056">
        <ele>13.14</ele>
        <time>2020-07-10T13:02:40Z</time>
      </trkpt>
      <trkpt lat="47.81379" lon="-3.53056">
        <ele>13.14</ele>
        <time>2020-07-10T13:02:41Z</time>
      </trkpt>
      <trkpt lat="47.81379" lon="-3.53056">
        <ele>13.14</ele>
        <time>2020-07-10T13:02:42Z</time>
      </trkpt>
      <trkpt lat="47.81379" lon="-3.53056">
        <ele>13.14</ele>
        <time>2020-07-10T13:02:43Z</time>
      </trkpt>
      <trkpt lat="47.81377" lon="-3.5305">
        <ele>13.51</ele>
        <time>2020-07-10T13:02:44Z</time>
      </trkpt>
      <trkpt lat="47.81377" lon="-3.5305">
        <ele>13.57</ele>
        <time>2020-07-10T13:02:45Z</time>
      </trkpt>
      <trkpt lat="47.81376" lon="-3.53049">
        <ele>13.71</ele>
        <time>2020-07-10T13:02:46Z</time>
      </trkpt>
      <trkpt lat="47.81376" lon="-3.53047">
        <ele>13.85</ele>
        <time>2020-07-10T13:02:47Z</time>
      </trkpt>
      <trkpt lat="47.81376" lon="-3.53046">
        <ele>14.09</ele>
        <time>2020-07-10T13:02:48Z</time>
      </trkpt>
      <trkpt lat="47.81377" lon="-3.53044">
        <ele>14.38</ele>
        <time>2020-07-10T13:02:49Z</time>
      </trkpt>
      <trkpt lat="47.81377" lon="-3.53042">
        <ele>14.71</ele>
        <time>2020-07-10T13:02:50Z</time>
      </trkpt>
      <trkpt lat="47.81378" lon="-3.5304">
        <ele>15.08</ele>
        <time>2020-07-10T13:02:51Z</time>
      </trkpt>
      <trkpt lat="47.81378" lon="-3.53039">
        <ele>15.33</ele>
        <time>2020-07-10T13:02:52Z</time>
      </trkpt>
      <trkpt lat="47.81378" lon="-3.53037">
        <ele>15.59</ele>
        <time>2020-07-10T13:02:53Z</time>
      </trkpt>
      <trkpt lat="47.81379" lon="-3.53037">
        <ele>15.83</ele>
        <time>2020-07-10T13:02:54Z</time>
      </trkpt>
      <trkpt lat="47.81379" lon="-3.53036">
        <ele>16.05</ele>
        <time>2020-07-10T13:02:55Z</time>
      </trkpt>
      <trkpt lat="47.81379" lon="-3.53036">
        <ele>16.12</ele>
        <time>2020-07-10T13:02:56Z</time>
      </trkpt>
      <trkpt lat="47.81379" lon="-3.53036">
        <ele>16.14</ele>
        <time>2020-07-10T13:02:57Z</time>
      </trkpt>
      <trkpt lat="47.81379" lon="-3.53036">
        <ele>16.14</ele>
        <time>2020-07-10T13:02:58Z</time>
      </trkpt>
      <trkpt lat="47.81382" lon="-3.5303">
        <ele>17.01</ele>
        <time>2020-07-10T13:02:59Z</time>
      </trkpt>
      <trkpt lat="47.81383" lon="-3.53028">
        <ele>17.61</ele>
        <time>2020-07-10T13:03:00Z</time>
      </trkpt>
      <trkpt lat="47.81383" lon="-3.53027">
        <ele>18.01</ele>
        <time>2020-07-10T13:03:01Z</time>
      </trkpt>
      <trkpt lat="47.81384" lon="-3.53025">
        <ele>18.41</ele>
        <time>2020-07-10T13:03:02Z</time>
      </trkpt>
      <trkpt lat="47.81386" lon="-3.53024">
        <ele>18.76</ele>
        <time>2020-07-10T13:03:03Z</time>
      </trkpt>
      <trkpt lat="47.81386" lon="-3.53023">
        <ele>19.1</ele>
        <time>2020-07-10T13:03:04Z</time>
      </trkpt>
      <trkpt lat="47.81387" lon="-3.53021">
        <ele>19.52</ele>
        <time>2020-07-10T13:03:05Z</time>
      </trkpt>
      <trkpt lat="47.81388" lon="-3.53019">
        <ele>19.91</ele>
        <time>2020-07-10T13:03:06Z</time>
      </trkpt>
      <trkpt lat="47.81389" lon="-3.53017">
        <ele>20.28</ele>
        <time>2020-07-10T13:03:07Z</time>
      </trkpt>
      <trkpt lat="47.8139" lon="-3.53017">
        <ele>20.57</ele>
        <time>2020-07-10T13:03:08Z</time>
      </trkpt>
      <trkpt lat="47.81391" lon="-3.53015">
        <ele>20.84</ele>
        <time>2020-07-10T13:03:09Z</time>
      </trkpt>
      <trkpt lat="47.81392" lon="-3.53014">
        <ele>21.07</ele>
        <time>2020-07-10T13:03:10Z</time>
      </trkpt>
      <trkpt lat="47.81392" lon="-3.53014">
        <ele>21.24</ele>
        <time>2020-07-10T13:03:11Z</time>
      </trkpt>
      <trkpt lat="47.81393" lon="-3.53013">
        <ele>21.4</ele>
        <time>2020-07-10T13:03:12Z</time>
      </trkpt>
      <trkpt lat="47.81393" lon="-3.53012">
        <ele>21.55</ele>
        <time>2020-07-10T13:03:13Z</time>
      </trkpt>
      <trkpt lat="47.81393" lon="-3.53012">
        <ele>21.6</ele>
        <time>2020-07-10T13:03:14Z</time>
      </trkpt>
      <trkpt lat="47.81395" lon="-3.5301">
        <ele>21.89</ele>
        <time>2020-07-10T13:03:15Z</time>
      </trkpt>
      <trkpt lat="47.81396" lon="-3.5301">
        <ele>22.11</ele>
        <time>2020-07-10T13:03:16Z</time>
      </trkpt>
      <trkpt lat="47.81397" lon="-3.53009">
        <ele>22.31</ele>
        <time>2020-07-10T13:03:17Z</time>
      </trkpt>
      <trkpt lat="47.81398" lon="-3.53008">
        <ele>22.51</ele>
        <time>2020-07-10T13:03:18Z</time>
      </trkpt>
      <trkpt lat="47.81399" lon="-3.53008">
        <ele>22.69</ele>
        <time>2020-07-10T13:03:19Z</time>
      </trkpt>
      <trkpt lat="47.81401" lon="-3.53007">
        <ele>22.89</ele>
        <time>2020-07-10T13:03:20Z</time>
      </trkpt>
      <trkpt lat="47.81403" lon="-3.53006">
        <ele>23.14</ele>
        <time>2020-07-10T13:03:21Z</time>
      </trkpt>
      <trkpt lat="47.81404" lon="-3.53005">
        <ele>23.34</ele>
        <time>2020-07-10T13:03:22Z</time>
      </trkpt>
      <trkpt lat="47.81406" lon="-3.53005">
        <ele>23.51</ele>
        <time>2020-07-10T13:03:23Z</time>
      </trkpt>
      <trkpt lat="47.81407" lon="-3.53005">
        <ele>23.65</ele>
        <time>2020-07-10T13:03:24Z</time>
      </trkpt>
      <trkpt lat="47.81407" lon="-3.53004">
        <ele>23.83</ele>
        <time>2020-07-10T13:03:25Z</time>
      </trkpt>
      <trkpt lat="47.81409" lon="-3.53002">
        <ele>24.05</ele>
        <time>2020-07-10T13:03:26Z</time>
      </trkpt>
      <trkpt lat="47.81409" lon="-3.53002">
        <ele>24.12</ele>
        <time>2020-07-10T13:03:27Z</time>
      </trkpt>
      <trkpt lat="47.81412" lon="-3.53">
        <ele>24.45</ele>
        <time>2020-07-10T13:03:28Z</time>
      </trkpt>
      <trkpt lat="47.81413" lon="-3.52999">
        <ele>24.74</ele>
        <time>2020-07-10T13:03:29Z</time>
      </trkpt>
      <trkpt lat="47.81415" lon="-3.52998">
        <ele>25.01</ele>
        <time>2020-07-10T13:03:30Z</time>
      </trkpt>
      <trkpt lat="47.81417" lon="-3.52997">
        <ele>25.33</ele>
        <time>2020-07-10T13:03:31Z</time>
      </trkpt>
      <trkpt lat="47.81419" lon="-3.52996">
        <ele>25.77</ele>
        <time>2020-07-10T13:03:32Z</time>
      </trkpt>
      <trkpt lat="47.8142" lon="-3.52995">
        <ele>26.3</ele>
        <time>2020-07-10T13:03:33Z</time>
      </trkpt>
      <trkpt lat="47.81422" lon="-3.52994">
        <ele>26.83</ele>
        <time>2020-07-10T13:03:34Z</time>
      </trkpt>
      <trkpt lat="47.81424" lon="-3.52993">
        <ele>27.51</ele>
        <time>2020-07-10T13:03:35Z</time>
      </trkpt>
      <trkpt lat="47.81426" lon="-3.52991">
        <ele>28.19</ele>
        <time>2020-07-10T13:03:36Z</time>
      </trkpt>
      <trkpt lat="47.81429" lon="-3.52991">
        <ele>28.85</ele>
        <time>2020-07-10T13:03:37Z</time>
      </trkpt>
      <trkpt lat="47.81431" lon="-3.5299">
        <ele>29.59</ele>
        <time>2020-07-10T13:03:38Z</time>
      </trkpt>
      <trkpt lat="47.81433" lon="-3.52988">
        <ele>30.27</ele>
        <time>2020-07-10T13:03:39Z</time>
      </trkpt>
      <trkpt lat="47.81435" lon="-3.52987">
        <ele>30.85</ele>
        <time>2020-07-10T13:03:40Z</time>
      </trkpt>
      <trkpt lat="47.81437" lon="-3.52986">
        <ele>31.44</ele>
        <time>2020-07-10T13:03:41Z</time>
      </trkpt>
      <trkpt lat="47.81439" lon="-3.52985">
        <ele>32.05</ele>
        <time>2020-07-10T13:03:42Z</time>
      </trkpt>
      <trkpt lat="47.81442" lon="-3.52984">
        <ele>32.72</ele>
        <time>2020-07-10T13:03:43Z</time>
      </trkpt>
      <trkpt lat="47.81444" lon="-3.52984">
        <ele>33.2</ele>
        <time>2020-07-10T13:03:44Z</time>
      </trkpt>
      <trkpt lat="47.81446" lon="-3.52982">
        <ele>33.58</ele>
        <time>2020-07-10T13:03:45Z</time>
      </trkpt>
      <trkpt lat="47.81448" lon="-3.52981">
        <ele>33.82</ele>
        <time>2020-07-10T13:03:46Z</time>
      </trkpt>
      <trkpt lat="47.81449" lon="-3.5298">
        <ele>34.02</ele>
        <time>2020-07-10T13:03:47Z</time>
      </trkpt>
      <trkpt lat="47.81451" lon="-3.52979">
        <ele>34.2</ele>
        <time>2020-07-10T13:03:48Z</time>
      </trkpt>
      <trkpt lat="47.81452" lon="-3.52978">
        <ele>34.36</ele>
        <time>2020-07-10T13:03:49Z</time>
      </trkpt>
      <trkpt lat="47.81455" lon="-3.52977">
        <ele>34.54</ele>
        <time>2020-07-10T13:03:50Z</time>
      </trkpt>
      <trkpt lat="47.81456" lon="-3.52977">
        <ele>34.7</ele>
        <time>2020-07-10T13:03:51Z</time>
      </trkpt>
      <trkpt lat="47.81458" lon="-3.52977">
        <ele>34.85</ele>
        <time>2020-07-10T13:03:52Z</time>
      </trkpt>
      <trkpt lat="47.8146" lon="-3.52976">
        <ele>35</ele>
        <time>2020-07-10T13:03:53Z</time>
      </trkpt>
      <trkpt lat="47.81462" lon="-3.52975">
        <ele>35.19</ele>
        <time>2020-07-10T13:03:54Z</time>
      </trkpt>
      <trkpt lat="47.81464" lon="-3.52974">
        <ele>35.34</ele>
        <time>2020-07-10T13:03:55Z</time>
      </trkpt>
      <trkpt lat="47.81466" lon="-3.52973">
        <ele>35.49</ele>
        <time>2020-07-10T13:03:56Z</time>
      </trkpt>
      <trkpt lat="47.81468" lon="-3.52972">
        <ele>35.63</ele>
        <time>2020-07-10T13:03:57Z</time>
      </trkpt>
      <trkpt lat="47.81469" lon="-3.52971">
        <ele>35.75</ele>
        <time>2020-07-10T13:03:58Z</time>
      </trkpt>
      <trkpt lat="47.81471" lon="-3.5297">
        <ele>35.87</ele>
        <time>2020-07-10T13:03:59Z</time>
      </trkpt>
      <trkpt lat="47.81471" lon="-3.5297">
        <ele>35.92</ele>
        <time>2020-07-10T13:04:00Z</time>
      </trkpt>
      <trkpt lat="47.81471" lon="-3.5297">
        <ele>35.93</ele>
        <time>2020-07-10T13:04:01Z</time>
      </trkpt>
      <trkpt lat="47.81471" lon="-3.5297">
        <ele>35.94</ele>
        <time>2020-07-10T13:04:02Z</time>
      </trkpt>
      <trkpt lat="47.81471" lon="-3.5297">
        <ele>35.94</ele>
        <time>2020-07-10T13:04:03Z</time>
      </trkpt>
      <trkpt lat="47.81471" lon="-3.5297">
        <ele>35.94</ele>
        <time>2020-07-10T13:04:04Z</time>
      </trkpt>
      <trkpt lat="47.81471" lon="-3.5297">
        <ele>35.94</ele>
        <time>2020-07-10T13:04:05Z</time>
      </trkpt>
      <trkpt lat="47.81471" lon="-3.5297">
        <ele>35.94</ele>
        <time>2020-07-10T13:04:06Z</time>
      </trkpt>
      <trkpt lat="47.81471" lon="-3.5297">
        <ele>35.94</ele>
        <time>2020-07-10T13:04:07Z</time>
      </trkpt>
      <trkpt lat="47.81471" lon="-3.5297">
        <ele>35.94</ele>
        <time>2020-07-10T13:04:08Z</time>
      </trkpt>
      <trkpt lat="47.81471" lon="-3.5297">
        <ele>35.94</ele>
        <time>2020-07-10T13:04:09Z</time>
      </trkpt>
      <trkpt lat="47.81471" lon="-3.5297">
        <ele>35.94</ele>
        <time>2020-07-10T13:04:10Z</time>
      </trkpt>
      <trkpt lat="47.81471" lon="-3.5297">
        <ele>35.94</ele>
        <time>2020-07-10T13:04:11Z</time>
      </trkpt>
      <trkpt lat="47.81471" lon="-3.5297">
        <ele>35.94</ele>
        <time>2020-07-10T13:04:12Z</time>
      </trkpt>
      <trkpt lat="47.81472" lon="-3.52963">
        <ele>35.97</ele>
        <time>2020-07-10T13:04:13Z</time>
      </trkpt>
      <trkpt lat="47.81472" lon="-3.5296">
        <ele>35.97</ele>
        <time>2020-07-10T13:04:14Z</time>
      </trkpt>
      <trkpt lat="47.81471" lon="-3.52956">
        <ele>35.95</ele>
        <time>2020-07-10T13:04:15Z</time>
      </trkpt>
      <trkpt lat="47.81471" lon="-3.52951">
        <ele>35.94</ele>
        <time>2020-07-10T13:04:16Z</time>
      </trkpt>
      <trkpt lat="47.81469" lon="-3.52948">
        <ele>35.9</ele>
        <time>2020-07-10T13:04:17Z</time>
      </trkpt>
      <trkpt lat="47.81468" lon="-3.52943">
        <ele>35.88</ele>
        <time>2020-07-10T13:04:18Z</time>
      </trkpt>
      <trkpt lat="47.81468" lon="-3.52937">
        <ele>35.84</ele>
        <time>2020-07-10T13:04:19Z</time>
      </trkpt>
      <trkpt lat="47.81466" lon="-3.52931">
        <ele>35.8</ele>
        <time>2020-07-10T13:04:20Z</time>
      </trkpt>
      <trkpt lat="47.81465" lon="-3.52925">
        <ele>35.76</ele>
        <time>2020-07-10T13:04:21Z</time>
      </trkpt>
      <trkpt lat="47.81464" lon="-3.52921">
        <ele>35.71</ele>
        <time>2020-07-10T13:04:22Z</time>
      </trkpt>
      <trkpt lat="47.81462" lon="-3.52917">
        <ele>35.67</ele>
        <time>2020-07-10T13:04:23Z</time>
      </trkpt>
      <trkpt lat="47.81461" lon="-3.52913">
        <ele>35.62</ele>
        <time>2020-07-10T13:04:24Z</time>
      </trkpt>
      <trkpt lat="47.81461" lon="-3.5291">
        <ele>35.6</ele>
        <time>2020-07-10T13:04:25Z</time>
      </trkpt>
      <trkpt lat="47.81461" lon="-3.52906">
        <ele>35.58</ele>
        <time>2020-07-10T13:04:26Z</time>
      </trkpt>
      <trkpt lat="47.81461" lon="-3.52904">
        <ele>35.58</ele>
        <time>2020-07-10T13:04:27Z</time>
      </trkpt>
      <trkpt lat="47.81462" lon="-3.52902">
        <ele>35.61</ele>
        <time>2020-07-10T13:04:28Z</time>
      </trkpt>
      <trkpt lat="47.81462" lon="-3.52904">
        <ele>35.63</ele>
        <time>2020-07-10T13:04:29Z</time>
      </trkpt>
      <trkpt lat="47.81463" lon="-3.52905">
        <ele>35.65</ele>
        <time>2020-07-10T13:04:30Z</time>
      </trkpt>
      <trkpt lat="47.81462" lon="-3.52907">
        <ele>35.65</ele>
        <time>2020-07-10T13:04:31Z</time>
      </trkpt>
      <trkpt lat="47.81462" lon="-3.52911">
        <ele>35.64</ele>
        <time>2020-07-10T13:04:32Z</time>
      </trkpt>
      <trkpt lat="47.81462" lon="-3.52915">
        <ele>35.64</ele>
        <time>2020-07-10T13:04:33Z</time>
      </trkpt>
      <trkpt lat="47.81463" lon="-3.52919">
        <ele>35.65</ele>
        <time>2020-07-10T13:04:34Z</time>
      </trkpt>
      <trkpt lat="47.81464" lon="-3.52924">
        <ele>35.68</ele>
        <time>2020-07-10T13:04:35Z</time>
      </trkpt>
      <trkpt lat="47.81464" lon="-3.52928">
        <ele>35.7</ele>
        <time>2020-07-10T13:04:36Z</time>
      </trkpt>
      <trkpt lat="47.81465" lon="-3.52933">
        <ele>35.73</ele>
        <time>2020-07-10T13:04:37Z</time>
      </trkpt>
      <trkpt lat="47.81466" lon="-3.52938">
        <ele>35.76</ele>
        <time>2020-07-10T13:04:38Z</time>
      </trkpt>
      <trkpt lat="47.81466" lon="-3.52942">
        <ele>35.78</ele>
        <time>2020-07-10T13:04:39Z</time>
      </trkpt>
      <trkpt lat="47.81467" lon="-3.52947">
        <ele>35.8</ele>
        <time>2020-07-10T13:04:40Z</time>
      </trkpt>
      <trkpt lat="47.81468" lon="-3.52951">
        <ele>35.82</ele>
        <time>2020-07-10T13:04:41Z</time>
      </trkpt>
      <trkpt lat="47.81469" lon="-3.52954">
        <ele>35.85</ele>
        <time>2020-07-10T13:04:42Z</time>
      </trkpt>
      <trkpt lat="47.8147" lon="-3.52959">
        <ele>35.88</ele>
        <time>2020-07-10T13:04:43Z</time>
      </trkpt>
      <trkpt lat="47.81471" lon="-3.52964">
        <ele>35.92</ele>
        <time>2020-07-10T13:04:44Z</time>
      </trkpt>
      <trkpt lat="47.81473" lon="-3.5297">
        <ele>35.98</ele>
        <time>2020-07-10T13:04:45Z</time>
      </trkpt>
      <trkpt lat="47.81474" lon="-3.52975">
        <ele>35.99</ele>
        <time>2020-07-10T13:04:46Z</time>
      </trkpt>
      <trkpt lat="47.81476" lon="-3.52981">
        <ele>36</ele>
        <time>2020-07-10T13:04:47Z</time>
      </trkpt>
      <trkpt lat="47.81478" lon="-3.52987">
        <ele>36</ele>
        <time>2020-07-10T13:04:48Z</time>
      </trkpt>
      <trkpt lat="47.8148" lon="-3.52993">
        <ele>36</ele>
        <time>2020-07-10T13:04:49Z</time>
      </trkpt>
      <trkpt lat="47.81482" lon="-3.52998">
        <ele>36</ele>
        <time>2020-07-10T13:04:50Z</time>
      </trkpt>
      <trkpt lat="47.81485" lon="-3.53003">
        <ele>36</ele>
        <time>2020-07-10T13:04:51Z</time>
      </trkpt>
      <trkpt lat="47.81489" lon="-3.53008">
        <ele>36</ele>
        <time>2020-07-10T13:04:52Z</time>
      </trkpt>
      <trkpt lat="47.81493" lon="-3.53012">
        <ele>36</ele>
        <time>2020-07-10T13:04:53Z</time>
      </trkpt>
      <trkpt lat="47.81496" lon="-3.53017">
        <ele>36</ele>
        <time>2020-07-10T13:04:54Z</time>
      </trkpt>
      <trkpt lat="47.815" lon="-3.53021">
        <ele>36</ele>
        <time>2020-07-10T13:04:55Z</time>
      </trkpt>
      <trkpt lat="47.81503" lon="-3.53024">
        <ele>36.01</ele>
        <time>2020-07-10T13:04:56Z</time>
      </trkpt>
      <trkpt lat="47.81506" lon="-3.53027">
        <ele>36.01</ele>
        <time>2020-07-10T13:04:57Z</time>
      </trkpt>
      <trkpt lat="47.8151" lon="-3.5303">
        <ele>36</ele>
        <time>2020-07-10T13:04:58Z</time>
      </trkpt>
      <trkpt lat="47.81514" lon="-3.53033">
        <ele>36</ele>
        <time>2020-07-10T13:04:59Z</time>
      </trkpt>
      <trkpt lat="47.81518" lon="-3.53036">
        <ele>36</ele>
        <time>2020-07-10T13:05:00Z</time>
      </trkpt>
      <trkpt lat="47.81522" lon="-3.53041">
        <ele>36</ele>
        <time>2020-07-10T13:05:01Z</time>
      </trkpt>
      <trkpt lat="47.81526" lon="-3.53045">
        <ele>36</ele>
        <time>2020-07-10T13:05:02Z</time>
      </trkpt>
      <trkpt lat="47.8153" lon="-3.53049">
        <ele>36.07</ele>
        <time>2020-07-10T13:05:03Z</time>
      </trkpt>
      <trkpt lat="47.81535" lon="-3.53053">
        <ele>36.22</ele>
        <time>2020-07-10T13:05:04Z</time>
      </trkpt>
      <trkpt lat="47.8154" lon="-3.53056">
        <ele>36.35</ele>
        <time>2020-07-10T13:05:05Z</time>
      </trkpt>
      <trkpt lat="47.81544" lon="-3.53059">
        <ele>36.47</ele>
        <time>2020-07-10T13:05:06Z</time>
      </trkpt>
      <trkpt lat="47.81549" lon="-3.53062">
        <ele>36.55</ele>
        <time>2020-07-10T13:05:07Z</time>
      </trkpt>
      <trkpt lat="47.81554" lon="-3.53066">
        <ele>36.58</ele>
        <time>2020-07-10T13:05:08Z</time>
      </trkpt>
      <trkpt lat="47.81558" lon="-3.53069">
        <ele>36.6</ele>
        <time>2020-07-10T13:05:09Z</time>
      </trkpt>
      <trkpt lat="47.81563" lon="-3.53072">
        <ele>36.64</ele>
        <time>2020-07-10T13:05:10Z</time>
      </trkpt>
      <trkpt lat="47.81567" lon="-3.53075">
        <ele>36.69</ele>
        <time>2020-07-10T13:05:11Z</time>
      </trkpt>
      <trkpt lat="47.8157" lon="-3.53078">
        <ele>36.72</ele>
        <time>2020-07-10T13:05:12Z</time>
      </trkpt>
      <trkpt lat="47.81574" lon="-3.53082">
        <ele>36.73</ele>
        <time>2020-07-10T13:05:13Z</time>
      </trkpt>
      <trkpt lat="47.81578" lon="-3.53085">
        <ele>36.76</ele>
        <time>2020-07-10T13:05:14Z</time>
      </trkpt>
      <trkpt lat="47.81582" lon="-3.53088">
        <ele>36.79</ele>
        <time>2020-07-10T13:05:15Z</time>
      </trkpt>
      <trkpt lat="47.81586" lon="-3.5309">
        <ele>36.9</ele>
        <time>2020-07-10T13:05:16Z</time>
      </trkpt>
      <trkpt lat="47.81589" lon="-3.53093">
        <ele>37.09</ele>
        <time>2020-07-10T13:05:17Z</time>
      </trkpt>
      <trkpt lat="47.81593" lon="-3.53095">
        <ele>37.32</ele>
        <time>2020-07-10T13:05:18Z</time>
      </trkpt>
      <trkpt lat="47.81596" lon="-3.53098">
        <ele>37.57</ele>
        <time>2020-07-10T13:05:19Z</time>
      </trkpt>
      <trkpt lat="47.816" lon="-3.531">
        <ele>37.87</ele>
        <time>2020-07-10T13:05:20Z</time>
      </trkpt>
      <trkpt lat="47.81604" lon="-3.53101">
        <ele>38.2</ele>
        <time>2020-07-10T13:05:21Z</time>
      </trkpt>
      <trkpt lat="47.81607" lon="-3.53101">
        <ele>38.49</ele>
        <time>2020-07-10T13:05:22Z</time>
      </trkpt>
      <trkpt lat="47.8161" lon="-3.531">
        <ele>38.78</ele>
        <time>2020-07-10T13:05:23Z</time>
      </trkpt>
      <trkpt lat="47.81613" lon="-3.53098">
        <ele>38.99</ele>
        <time>2020-07-10T13:05:24Z</time>
      </trkpt>
      <trkpt lat="47.81616" lon="-3.53094">
        <ele>39.12</ele>
        <time>2020-07-10T13:05:25Z</time>
      </trkpt>
      <trkpt lat="47.81619" lon="-3.53091">
        <ele>39.22</ele>
        <time>2020-07-10T13:05:26Z</time>
      </trkpt>
      <trkpt lat="47.81621" lon="-3.53087">
        <ele>39.32</ele>
        <time>2020-07-10T13:05:27Z</time>
      </trkpt>
      <trkpt lat="47.81623" lon="-3.53082">
        <ele>39.41</ele>
        <time>2020-07-10T13:05:28Z</time>
      </trkpt>
      <trkpt lat="47.81625" lon="-3.53078">
        <ele>39.54</ele>
        <time>2020-07-10T13:05:29Z</time>
      </trkpt>
      <trkpt lat="47.81627" lon="-3.53072">
        <ele>39.72</ele>
        <time>2020-07-10T13:05:30Z</time>
      </trkpt>
      <trkpt lat="47.81629" lon="-3.53066">
        <ele>39.93</ele>
        <time>2020-07-10T13:05:31Z</time>
      </trkpt>
      <trkpt lat="47.8163" lon="-3.5306">
        <ele>40.15</ele>
        <time>2020-07-10T13:05:32Z</time>
      </trkpt>
      <trkpt lat="47.8163" lon="-3.53053">
        <ele>40.34</ele>
        <time>2020-07-10T13:05:33Z</time>
      </trkpt>
      <trkpt lat="47.81631" lon="-3.53046">
        <ele>40.47</ele>
        <time>2020-07-10T13:05:34Z</time>
      </trkpt>
      <trkpt lat="47.81631" lon="-3.53038">
        <ele>40.57</ele>
        <time>2020-07-10T13:05:35Z</time>
      </trkpt>
      <trkpt lat="47.81631" lon="-3.5303">
        <ele>40.64</ele>
        <time>2020-07-10T13:05:36Z</time>
      </trkpt>
      <trkpt lat="47.8163" lon="-3.53023">
        <ele>40.76</ele>
        <time>2020-07-10T13:05:37Z</time>
      </trkpt>
      <trkpt lat="47.8163" lon="-3.53016">
        <ele>40.91</ele>
        <time>2020-07-10T13:05:38Z</time>
      </trkpt>
      <trkpt lat="47.8163" lon="-3.53009">
        <ele>41.06</ele>
        <time>2020-07-10T13:05:39Z</time>
      </trkpt>
      <trkpt lat="47.8163" lon="-3.53003">
        <ele>41.22</ele>
        <time>2020-07-10T13:05:40Z</time>
      </trkpt>
      <trkpt lat="47.81629" lon="-3.52996">
        <ele>41.33</ele>
        <time>2020-07-10T13:05:41Z</time>
      </trkpt>
      <trkpt lat="47.81629" lon="-3.52988">
        <ele>41.41</ele>
        <time>2020-07-10T13:05:42Z</time>
      </trkpt>
      <trkpt lat="47.81629" lon="-3.52981">
        <ele>41.49</ele>
        <time>2020-07-10T13:05:43Z</time>
      </trkpt>
      <trkpt lat="47.81628" lon="-3.52974">
        <ele>41.57</ele>
        <time>2020-07-10T13:05:44Z</time>
      </trkpt>
      <trkpt lat="47.81628" lon="-3.52967">
        <ele>41.6</ele>
        <time>2020-07-10T13:05:45Z</time>
      </trkpt>
      <trkpt lat="47.81628" lon="-3.52959">
        <ele>41.61</ele>
        <time>2020-07-10T13:05:46Z</time>
      </trkpt>
      <trkpt lat="47.81628" lon="-3.52952">
        <ele>41.6</ele>
        <time>2020-07-10T13:05:47Z</time>
      </trkpt>
      <trkpt lat="47.81628" lon="-3.52945">
        <ele>41.6</ele>
        <time>2020-07-10T13:05:48Z</time>
      </trkpt>
      <trkpt lat="47.81627" lon="-3.52938">
        <ele>41.75</ele>
        <time>2020-07-10T13:05:49Z</time>
      </trkpt>
      <trkpt lat="47.81627" lon="-3.52931">
        <ele>41.98</ele>
        <time>2020-07-10T13:05:50Z</time>
      </trkpt>
      <trkpt lat="47.81627" lon="-3.52924">
        <ele>42.22</ele>
        <time>2020-07-10T13:05:51Z</time>
      </trkpt>
      <trkpt lat="47.81627" lon="-3.52916">
        <ele>42.46</ele>
        <time>2020-07-10T13:05:52Z</time>
      </trkpt>
      <trkpt lat="47.81627" lon="-3.52909">
        <ele>42.53</ele>
        <time>2020-07-10T13:05:53Z</time>
      </trkpt>
      <trkpt lat="47.81626" lon="-3.52901">
        <ele>42.55</ele>
        <time>2020-07-10T13:05:54Z</time>
      </trkpt>
      <trkpt lat="47.81626" lon="-3.52894">
        <ele>42.55</ele>
        <time>2020-07-10T13:05:55Z</time>
      </trkpt>
      <trkpt lat="47.81626" lon="-3.52886">
        <ele>42.54</ele>
        <time>2020-07-10T13:05:56Z</time>
      </trkpt>
      <trkpt lat="47.81626" lon="-3.52878">
        <ele>42.54</ele>
        <time>2020-07-10T13:05:57Z</time>
      </trkpt>
      <trkpt lat="47.81626" lon="-3.52871">
        <ele>42.53</ele>
        <time>2020-07-10T13:05:58Z</time>
      </trkpt>
      <trkpt lat="47.81626" lon="-3.52863">
        <ele>42.52</ele>
        <time>2020-07-10T13:05:59Z</time>
      </trkpt>
      <trkpt lat="47.81625" lon="-3.52856">
        <ele>42.57</ele>
        <time>2020-07-10T13:06:00Z</time>
      </trkpt>
      <trkpt lat="47.81625" lon="-3.5285">
        <ele>42.66</ele>
        <time>2020-07-10T13:06:01Z</time>
      </trkpt>
      <trkpt lat="47.81625" lon="-3.52843">
        <ele>42.77</ele>
        <time>2020-07-10T13:06:02Z</time>
      </trkpt>
      <trkpt lat="47.81625" lon="-3.52835">
        <ele>42.88</ele>
        <time>2020-07-10T13:06:03Z</time>
      </trkpt>
      <trkpt lat="47.81624" lon="-3.52827">
        <ele>42.93</ele>
        <time>2020-07-10T13:06:04Z</time>
      </trkpt>
      <trkpt lat="47.81624" lon="-3.52819">
        <ele>42.94</ele>
        <time>2020-07-10T13:06:05Z</time>
      </trkpt>
      <trkpt lat="47.81624" lon="-3.52812">
        <ele>42.92</ele>
        <time>2020-07-10T13:06:06Z</time>
      </trkpt>
      <trkpt lat="47.81624" lon="-3.52803">
        <ele>42.92</ele>
        <time>2020-07-10T13:06:07Z</time>
      </trkpt>
      <trkpt lat="47.81624" lon="-3.52796">
        <ele>42.91</ele>
        <time>2020-07-10T13:06:08Z</time>
      </trkpt>
      <trkpt lat="47.81624" lon="-3.52787">
        <ele>42.91</ele>
        <time>2020-07-10T13:06:09Z</time>
      </trkpt>
      <trkpt lat="47.81623" lon="-3.52779">
        <ele>42.89</ele>
        <time>2020-07-10T13:06:10Z</time>
      </trkpt>
      <trkpt lat="47.81623" lon="-3.52771">
        <ele>42.87</ele>
        <time>2020-07-10T13:06:11Z</time>
      </trkpt>
      <trkpt lat="47.81623" lon="-3.52764">
        <ele>42.85</ele>
        <time>2020-07-10T13:06:12Z</time>
      </trkpt>
      <trkpt lat="47.81622" lon="-3.52756">
        <ele>42.82</ele>
        <time>2020-07-10T13:06:13Z</time>
      </trkpt>
      <trkpt lat="47.81622" lon="-3.52748">
        <ele>42.79</ele>
        <time>2020-07-10T13:06:14Z</time>
      </trkpt>
      <trkpt lat="47.81622" lon="-3.52741">
        <ele>42.78</ele>
        <time>2020-07-10T13:06:15Z</time>
      </trkpt>
      <trkpt lat="47.81622" lon="-3.52733">
        <ele>42.77</ele>
        <time>2020-07-10T13:06:16Z</time>
      </trkpt>
      <trkpt lat="47.81622" lon="-3.52725">
        <ele>42.79</ele>
        <time>2020-07-10T13:06:17Z</time>
      </trkpt>
      <trkpt lat="47.81623" lon="-3.52718">
        <ele>42.87</ele>
        <time>2020-07-10T13:06:18Z</time>
      </trkpt>
      <trkpt lat="47.81623" lon="-3.5271">
        <ele>43</ele>
        <time>2020-07-10T13:06:19Z</time>
      </trkpt>
      <trkpt lat="47.81624" lon="-3.52703">
        <ele>43.16</ele>
        <time>2020-07-10T13:06:20Z</time>
      </trkpt>
      <trkpt lat="47.81624" lon="-3.52695">
        <ele>43.34</ele>
        <time>2020-07-10T13:06:21Z</time>
      </trkpt>
      <trkpt lat="47.81625" lon="-3.52688">
        <ele>43.33</ele>
        <time>2020-07-10T13:06:22Z</time>
      </trkpt>
      <trkpt lat="47.81625" lon="-3.5268">
        <ele>43.27</ele>
        <time>2020-07-10T13:06:23Z</time>
      </trkpt>
      <trkpt lat="47.81625" lon="-3.52673">
        <ele>43.15</ele>
        <time>2020-07-10T13:06:24Z</time>
      </trkpt>
      <trkpt lat="47.81625" lon="-3.52666">
        <ele>43.04</ele>
        <time>2020-07-10T13:06:25Z</time>
      </trkpt>
      <trkpt lat="47.81625" lon="-3.52658">
        <ele>43.03</ele>
        <time>2020-07-10T13:06:26Z</time>
      </trkpt>
      <trkpt lat="47.81626" lon="-3.52651">
        <ele>43.06</ele>
        <time>2020-07-10T13:06:27Z</time>
      </trkpt>
      <trkpt lat="47.81627" lon="-3.52643">
        <ele>43.1</ele>
        <time>2020-07-10T13:06:28Z</time>
      </trkpt>
      <trkpt lat="47.81628" lon="-3.52636">
        <ele>43.05</ele>
        <time>2020-07-10T13:06:29Z</time>
      </trkpt>
      <trkpt lat="47.81629" lon="-3.52629">
        <ele>42.77</ele>
        <time>2020-07-10T13:06:30Z</time>
      </trkpt>
      <trkpt lat="47.81629" lon="-3.52621">
        <ele>42.39</ele>
        <time>2020-07-10T13:06:31Z</time>
      </trkpt>
      <trkpt lat="47.81629" lon="-3.52613">
        <ele>41.98</ele>
        <time>2020-07-10T13:06:32Z</time>
      </trkpt>
      <trkpt lat="47.8163" lon="-3.52606">
        <ele>41.73</ele>
        <time>2020-07-10T13:06:33Z</time>
      </trkpt>
      <trkpt lat="47.81631" lon="-3.52599">
        <ele>41.63</ele>
        <time>2020-07-10T13:06:34Z</time>
      </trkpt>
      <trkpt lat="47.81633" lon="-3.52592">
        <ele>41.62</ele>
        <time>2020-07-10T13:06:35Z</time>
      </trkpt>
      <trkpt lat="47.81634" lon="-3.52585">
        <ele>41.66</ele>
        <time>2020-07-10T13:06:36Z</time>
      </trkpt>
      <trkpt lat="47.81636" lon="-3.52578">
        <ele>41.65</ele>
        <time>2020-07-10T13:06:37Z</time>
      </trkpt>
      <trkpt lat="47.81639" lon="-3.52572">
        <ele>41.62</ele>
        <time>2020-07-10T13:06:38Z</time>
      </trkpt>
      <trkpt lat="47.81641" lon="-3.52566">
        <ele>41.52</ele>
        <time>2020-07-10T13:06:39Z</time>
      </trkpt>
      <trkpt lat="47.81642" lon="-3.5256">
        <ele>41.41</ele>
        <time>2020-07-10T13:06:40Z</time>
      </trkpt>
      <trkpt lat="47.81643" lon="-3.52556">
        <ele>41.33</ele>
        <time>2020-07-10T13:06:41Z</time>
      </trkpt>
      <trkpt lat="47.81645" lon="-3.52553">
        <ele>41.29</ele>
        <time>2020-07-10T13:06:42Z</time>
      </trkpt>
      <trkpt lat="47.81646" lon="-3.52551">
        <ele>41.32</ele>
        <time>2020-07-10T13:06:43Z</time>
      </trkpt>
      <trkpt lat="47.81648" lon="-3.52552">
        <ele>41.41</ele>
        <time>2020-07-10T13:06:44Z</time>
      </trkpt>
      <trkpt lat="47.81647" lon="-3.52555">
        <ele>41.51</ele>
        <time>2020-07-10T13:06:45Z</time>
      </trkpt>
      <trkpt lat="47.81646" lon="-3.5256">
        <ele>41.61</ele>
        <time>2020-07-10T13:06:46Z</time>
      </trkpt>
      <trkpt lat="47.81645" lon="-3.52565">
        <ele>41.66</ele>
        <time>2020-07-10T13:06:47Z</time>
      </trkpt>
      <trkpt lat="47.81643" lon="-3.52569">
        <ele>41.69</ele>
        <time>2020-07-10T13:06:48Z</time>
      </trkpt>
      <trkpt lat="47.8164" lon="-3.52573">
        <ele>41.69</ele>
        <time>2020-07-10T13:06:49Z</time>
      </trkpt>
      <trkpt lat="47.81636" lon="-3.52577">
        <ele>41.63</ele>
        <time>2020-07-10T13:06:50Z</time>
      </trkpt>
      <trkpt lat="47.81632" lon="-3.52581">
        <ele>41.51</ele>
        <time>2020-07-10T13:06:51Z</time>
      </trkpt>
      <trkpt lat="47.81628" lon="-3.52583">
        <ele>41.31</ele>
        <time>2020-07-10T13:06:52Z</time>
      </trkpt>
      <trkpt lat="47.81623" lon="-3.52586">
        <ele>41.05</ele>
        <time>2020-07-10T13:06:53Z</time>
      </trkpt>
      <trkpt lat="47.81619" lon="-3.52587">
        <ele>40.75</ele>
        <time>2020-07-10T13:06:54Z</time>
      </trkpt>
      <trkpt lat="47.81613" lon="-3.52588">
        <ele>40.44</ele>
        <time>2020-07-10T13:06:55Z</time>
      </trkpt>
      <trkpt lat="47.81608" lon="-3.5259">
        <ele>40.13</ele>
        <time>2020-07-10T13:06:56Z</time>
      </trkpt>
      <trkpt lat="47.81603" lon="-3.52592">
        <ele>39.84</ele>
        <time>2020-07-10T13:06:57Z</time>
      </trkpt>
      <trkpt lat="47.81598" lon="-3.52594">
        <ele>39.55</ele>
        <time>2020-07-10T13:06:58Z</time>
      </trkpt>
      <trkpt lat="47.81592" lon="-3.52597">
        <ele>39.26</ele>
        <time>2020-07-10T13:06:59Z</time>
      </trkpt>
      <trkpt lat="47.81586" lon="-3.52599">
        <ele>38.93</ele>
        <time>2020-07-10T13:07:00Z</time>
      </trkpt>
      <trkpt lat="47.8158" lon="-3.52601">
        <ele>38.61</ele>
        <time>2020-07-10T13:07:01Z</time>
      </trkpt>
      <trkpt lat="47.81574" lon="-3.52603">
        <ele>38.3</ele>
        <time>2020-07-10T13:07:02Z</time>
      </trkpt>
      <trkpt lat="47.81568" lon="-3.52605">
        <ele>37.96</ele>
        <time>2020-07-10T13:07:03Z</time>
      </trkpt>
      <trkpt lat="47.81562" lon="-3.52607">
        <ele>37.59</ele>
        <time>2020-07-10T13:07:04Z</time>
      </trkpt>
      <trkpt lat="47.81556" lon="-3.5261">
        <ele>37.2</ele>
        <time>2020-07-10T13:07:05Z</time>
      </trkpt>
      <trkpt lat="47.8155" lon="-3.52612">
        <ele>36.92</ele>
        <time>2020-07-10T13:07:06Z</time>
      </trkpt>
      <trkpt lat="47.81543" lon="-3.52614">
        <ele>36.7</ele>
        <time>2020-07-10T13:07:07Z</time>
      </trkpt>
      <trkpt lat="47.81537" lon="-3.52616">
        <ele>36.48</ele>
        <time>2020-07-10T13:07:08Z</time>
      </trkpt>
      <trkpt lat="47.8153" lon="-3.52618">
        <ele>36.22</ele>
        <time>2020-07-10T13:07:09Z</time>
      </trkpt>
      <trkpt lat="47.81524" lon="-3.5262">
        <ele>35.87</ele>
        <time>2020-07-10T13:07:10Z</time>
      </trkpt>
      <trkpt lat="47.81517" lon="-3.52623">
        <ele>35.43</ele>
        <time>2020-07-10T13:07:11Z</time>
      </trkpt>
      <trkpt lat="47.81511" lon="-3.52625">
        <ele>34.98</ele>
        <time>2020-07-10T13:07:12Z</time>
      </trkpt>
      <trkpt lat="47.81504" lon="-3.52628">
        <ele>34.51</ele>
        <time>2020-07-10T13:07:13Z</time>
      </trkpt>
      <trkpt lat="47.81498" lon="-3.5263">
        <ele>34.01</ele>
        <time>2020-07-10T13:07:14Z</time>
      </trkpt>
      <trkpt lat="47.8149" lon="-3.52632">
        <ele>33.39</ele>
        <time>2020-07-10T13:07:15Z</time>
      </trkpt>
      <trkpt lat="47.81483" lon="-3.52635">
        <ele>32.68</ele>
        <time>2020-07-10T13:07:16Z</time>
      </trkpt>
      <trkpt lat="47.81475" lon="-3.52637">
        <ele>31.85</ele>
        <time>2020-07-10T13:07:17Z</time>
      </trkpt>
      <trkpt lat="47.81468" lon="-3.52639">
        <ele>30.94</ele>
        <time>2020-07-10T13:07:18Z</time>
      </trkpt>
      <trkpt lat="47.81459" lon="-3.52642">
        <ele>30.09</ele>
        <time>2020-07-10T13:07:19Z</time>
      </trkpt>
      <trkpt lat="47.81451" lon="-3.52645">
        <ele>29.19</ele>
        <time>2020-07-10T13:07:20Z</time>
      </trkpt>
      <trkpt lat="47.81442" lon="-3.52647">
        <ele>28.17</ele>
        <time>2020-07-10T13:07:21Z</time>
      </trkpt>
      <trkpt lat="47.81434" lon="-3.52649">
        <ele>27.06</ele>
        <time>2020-07-10T13:07:22Z</time>
      </trkpt>
      <trkpt lat="47.81426" lon="-3.52652">
        <ele>25.93</ele>
        <time>2020-07-10T13:07:23Z</time>
      </trkpt>
      <trkpt lat="47.81418" lon="-3.52653">
        <ele>24.67</ele>
        <time>2020-07-10T13:07:24Z</time>
      </trkpt>
      <trkpt lat="47.81409" lon="-3.52652">
        <ele>23.5</ele>
        <time>2020-07-10T13:07:25Z</time>
      </trkpt>
      <trkpt lat="47.81399" lon="-3.5265">
        <ele>22.33</ele>
        <time>2020-07-10T13:07:26Z</time>
      </trkpt>
      <trkpt lat="47.81391" lon="-3.52646">
        <ele>21.06</ele>
        <time>2020-07-10T13:07:27Z</time>
      </trkpt>
      <trkpt lat="47.81383" lon="-3.5264">
        <ele>19.6</ele>
        <time>2020-07-10T13:07:28Z</time>
      </trkpt>
      <trkpt lat="47.81374" lon="-3.52636">
        <ele>18.21</ele>
        <time>2020-07-10T13:07:29Z</time>
      </trkpt>
      <trkpt lat="47.81367" lon="-3.52631">
        <ele>17.08</ele>
        <time>2020-07-10T13:07:30Z</time>
      </trkpt>
      <trkpt lat="47.81362" lon="-3.52624">
        <ele>16.1</ele>
        <time>2020-07-10T13:07:31Z</time>
      </trkpt>
      <trkpt lat="47.81356" lon="-3.52617">
        <ele>14.96</ele>
        <time>2020-07-10T13:07:32Z</time>
      </trkpt>
      <trkpt lat="47.8135" lon="-3.5261">
        <ele>13.65</ele>
        <time>2020-07-10T13:07:33Z</time>
      </trkpt>
      <trkpt lat="47.81345" lon="-3.526">
        <ele>12.51</ele>
        <time>2020-07-10T13:07:34Z</time>
      </trkpt>
      <trkpt lat="47.81339" lon="-3.5259">
        <ele>11.03</ele>
        <time>2020-07-10T13:07:35Z</time>
      </trkpt>
      <trkpt lat="47.81335" lon="-3.52576">
        <ele>9.14</ele>
        <time>2020-07-10T13:07:36Z</time>
      </trkpt>
      <trkpt lat="47.81329" lon="-3.52564">
        <ele>7.54</ele>
        <time>2020-07-10T13:07:37Z</time>
      </trkpt>
      <trkpt lat="47.8132" lon="-3.52547">
        <ele>6.69</ele>
        <time>2020-07-10T13:07:38Z</time>
      </trkpt>
      <trkpt lat="47.81314" lon="-3.5253">
        <ele>6.57</ele>
        <time>2020-07-10T13:07:39Z</time>
      </trkpt>
      <trkpt lat="47.81308" lon="-3.52514">
        <ele>6.4</ele>
        <time>2020-07-10T13:07:40Z</time>
      </trkpt>
      <trkpt lat="47.81302" lon="-3.52502">
        <ele>6.31</ele>
        <time>2020-07-10T13:07:41Z</time>
      </trkpt>
      <trkpt lat="47.81296" lon="-3.52494">
        <ele>6.88</ele>
        <time>2020-07-10T13:07:42Z</time>
      </trkpt>
      <trkpt lat="47.81291" lon="-3.52485">
        <ele>7.53</ele>
        <time>2020-07-10T13:07:43Z</time>
      </trkpt>
      <trkpt lat="47.81282" lon="-3.52481">
        <ele>7.86</ele>
        <time>2020-07-10T13:07:44Z</time>
      </trkpt>
      <trkpt lat="47.81275" lon="-3.52478">
        <ele>8.12</ele>
        <time>2020-07-10T13:07:45Z</time>
      </trkpt>
      <trkpt lat="47.81269" lon="-3.52478">
        <ele>8.6</ele>
        <time>2020-07-10T13:07:46Z</time>
      </trkpt>
      <trkpt lat="47.81264" lon="-3.52476">
        <ele>9.01</ele>
        <time>2020-07-10T13:07:47Z</time>
      </trkpt>
      <trkpt lat="47.81259" lon="-3.52474">
        <ele>9.34</ele>
        <time>2020-07-10T13:07:48Z</time>
      </trkpt>
      <trkpt lat="47.81255" lon="-3.52472">
        <ele>9.54</ele>
        <time>2020-07-10T13:07:49Z</time>
      </trkpt>
      <trkpt lat="47.81251" lon="-3.52467">
        <ele>9.7</ele>
        <time>2020-07-10T13:07:50Z</time>
      </trkpt>
      <trkpt lat="47.81247" lon="-3.52462">
        <ele>10.15</ele>
        <time>2020-07-10T13:07:51Z</time>
      </trkpt>
      <trkpt lat="47.81244" lon="-3.52457">
        <ele>10.73</ele>
        <time>2020-07-10T13:07:52Z</time>
      </trkpt>
      <trkpt lat="47.81241" lon="-3.52451">
        <ele>11.25</ele>
        <time>2020-07-10T13:07:53Z</time>
      </trkpt>
      <trkpt lat="47.81239" lon="-3.52446">
        <ele>11.7</ele>
        <time>2020-07-10T13:07:54Z</time>
      </trkpt>
      <trkpt lat="47.81236" lon="-3.52441">
        <ele>12.13</ele>
        <time>2020-07-10T13:07:55Z</time>
      </trkpt>
      <trkpt lat="47.81235" lon="-3.52436">
        <ele>12.47</ele>
        <time>2020-07-10T13:07:56Z</time>
      </trkpt>
      <trkpt lat="47.81233" lon="-3.52432">
        <ele>12.72</ele>
        <time>2020-07-10T13:07:57Z</time>
      </trkpt>
      <trkpt lat="47.81232" lon="-3.52427">
        <ele>12.92</ele>
        <time>2020-07-10T13:07:58Z</time>
      </trkpt>
      <trkpt lat="47.8123" lon="-3.52423">
        <ele>13.13</ele>
        <time>2020-07-10T13:07:59Z</time>
      </trkpt>
      <trkpt lat="47.81229" lon="-3.52419">
        <ele>13.35</ele>
        <time>2020-07-10T13:08:00Z</time>
      </trkpt>
      <trkpt lat="47.81228" lon="-3.52415">
        <ele>13.49</ele>
        <time>2020-07-10T13:08:01Z</time>
      </trkpt>
      <trkpt lat="47.81227" lon="-3.52411">
        <ele>13.55</ele>
        <time>2020-07-10T13:08:02Z</time>
      </trkpt>
      <trkpt lat="47.81227" lon="-3.52407">
        <ele>13.62</ele>
        <time>2020-07-10T13:08:03Z</time>
      </trkpt>
      <trkpt lat="47.81226" lon="-3.52404">
        <ele>13.68</ele>
        <time>2020-07-10T13:08:04Z</time>
      </trkpt>
      <trkpt lat="47.81225" lon="-3.52401">
        <ele>13.74</ele>
        <time>2020-07-10T13:08:05Z</time>
      </trkpt>
      <trkpt lat="47.81224" lon="-3.52397">
        <ele>13.86</ele>
        <time>2020-07-10T13:08:06Z</time>
      </trkpt>
      <trkpt lat="47.81223" lon="-3.52394">
        <ele>13.97</ele>
        <time>2020-07-10T13:08:07Z</time>
      </trkpt>
      <trkpt lat="47.81222" lon="-3.52391">
        <ele>14.05</ele>
        <time>2020-07-10T13:08:08Z</time>
      </trkpt>
      <trkpt lat="47.81221" lon="-3.52388">
        <ele>14.12</ele>
        <time>2020-07-10T13:08:09Z</time>
      </trkpt>
      <trkpt lat="47.8122" lon="-3.52384">
        <ele>14.24</ele>
        <time>2020-07-10T13:08:10Z</time>
      </trkpt>
      <trkpt lat="47.81219" lon="-3.52381">
        <ele>14.4</ele>
        <time>2020-07-10T13:08:11Z</time>
      </trkpt>
      <trkpt lat="47.81218" lon="-3.52377">
        <ele>14.52</ele>
        <time>2020-07-10T13:08:12Z</time>
      </trkpt>
      <trkpt lat="47.81217" lon="-3.52374">
        <ele>14.64</ele>
        <time>2020-07-10T13:08:13Z</time>
      </trkpt>
      <trkpt lat="47.81216" lon="-3.52371">
        <ele>14.78</ele>
        <time>2020-07-10T13:08:14Z</time>
      </trkpt>
      <trkpt lat="47.81216" lon="-3.52368">
        <ele>14.83</ele>
        <time>2020-07-10T13:08:15Z</time>
      </trkpt>
      <trkpt lat="47.81215" lon="-3.52365">
        <ele>14.9</ele>
        <time>2020-07-10T13:08:16Z</time>
      </trkpt>
      <trkpt lat="47.81214" lon="-3.52363">
        <ele>15.02</ele>
        <time>2020-07-10T13:08:17Z</time>
      </trkpt>
      <trkpt lat="47.81213" lon="-3.52359">
        <ele>15.23</ele>
        <time>2020-07-10T13:08:18Z</time>
      </trkpt>
      <trkpt lat="47.81212" lon="-3.52356">
        <ele>15.45</ele>
        <time>2020-07-10T13:08:19Z</time>
      </trkpt>
      <trkpt lat="47.8121" lon="-3.52353">
        <ele>15.68</ele>
        <time>2020-07-10T13:08:20Z</time>
      </trkpt>
      <trkpt lat="47.81209" lon="-3.52349">
        <ele>16</ele>
        <time>2020-07-10T13:08:21Z</time>
      </trkpt>
      <trkpt lat="47.81208" lon="-3.52346">
        <ele>16.31</ele>
        <time>2020-07-10T13:08:22Z</time>
      </trkpt>
      <trkpt lat="47.81206" lon="-3.52342">
        <ele>16.69</ele>
        <time>2020-07-10T13:08:23Z</time>
      </trkpt>
      <trkpt lat="47.81204" lon="-3.52338">
        <ele>17.18</ele>
        <time>2020-07-10T13:08:24Z</time>
      </trkpt>
      <trkpt lat="47.81202" lon="-3.52334">
        <ele>17.63</ele>
        <time>2020-07-10T13:08:25Z</time>
      </trkpt>
      <trkpt lat="47.812" lon="-3.5233">
        <ele>18.2</ele>
        <time>2020-07-10T13:08:26Z</time>
      </trkpt>
      <trkpt lat="47.81198" lon="-3.52325">
        <ele>18.78</ele>
        <time>2020-07-10T13:08:27Z</time>
      </trkpt>
      <trkpt lat="47.81196" lon="-3.52322">
        <ele>19.35</ele>
        <time>2020-07-10T13:08:28Z</time>
      </trkpt>
      <trkpt lat="47.81194" lon="-3.52318">
        <ele>19.82</ele>
        <time>2020-07-10T13:08:29Z</time>
      </trkpt>
      <trkpt lat="47.81192" lon="-3.52315">
        <ele>20.03</ele>
        <time>2020-07-10T13:08:30Z</time>
      </trkpt>
      <trkpt lat="47.8119" lon="-3.52311">
        <ele>20.18</ele>
        <time>2020-07-10T13:08:31Z</time>
      </trkpt>
      <trkpt lat="47.81189" lon="-3.52308">
        <ele>20.31</ele>
        <time>2020-07-10T13:08:32Z</time>
      </trkpt>
      <trkpt lat="47.81187" lon="-3.52305">
        <ele>20.47</ele>
        <time>2020-07-10T13:08:33Z</time>
      </trkpt>
      <trkpt lat="47.81185" lon="-3.52302">
        <ele>20.74</ele>
        <time>2020-07-10T13:08:34Z</time>
      </trkpt>
      <trkpt lat="47.81182" lon="-3.52299">
        <ele>21.09</ele>
        <time>2020-07-10T13:08:35Z</time>
      </trkpt>
      <trkpt lat="47.81179" lon="-3.52297">
        <ele>21.44</ele>
        <time>2020-07-10T13:08:36Z</time>
      </trkpt>
      <trkpt lat="47.81177" lon="-3.52294">
        <ele>21.79</ele>
        <time>2020-07-10T13:08:37Z</time>
      </trkpt>
      <trkpt lat="47.81174" lon="-3.52291">
        <ele>22.2</ele>
        <time>2020-07-10T13:08:38Z</time>
      </trkpt>
      <trkpt lat="47.81172" lon="-3.52289">
        <ele>22.57</ele>
        <time>2020-07-10T13:08:39Z</time>
      </trkpt>
      <trkpt lat="47.81169" lon="-3.52286">
        <ele>22.99</ele>
        <time>2020-07-10T13:08:40Z</time>
      </trkpt>
      <trkpt lat="47.81166" lon="-3.52284">
        <ele>23.4</ele>
        <time>2020-07-10T13:08:41Z</time>
      </trkpt>
      <trkpt lat="47.81164" lon="-3.52281">
        <ele>23.59</ele>
        <time>2020-07-10T13:08:42Z</time>
      </trkpt>
      <trkpt lat="47.81161" lon="-3.52278">
        <ele>23.72</ele>
        <time>2020-07-10T13:08:43Z</time>
      </trkpt>
      <trkpt lat="47.81158" lon="-3.52275">
        <ele>23.74</ele>
        <time>2020-07-10T13:08:44Z</time>
      </trkpt>
      <trkpt lat="47.81156" lon="-3.52273">
        <ele>23.74</ele>
        <time>2020-07-10T13:08:45Z</time>
      </trkpt>
      <trkpt lat="47.81153" lon="-3.5227">
        <ele>23.76</ele>
        <time>2020-07-10T13:08:46Z</time>
      </trkpt>
      <trkpt lat="47.8115" lon="-3.52267">
        <ele>23.82</ele>
        <time>2020-07-10T13:08:47Z</time>
      </trkpt>
      <trkpt lat="47.81147" lon="-3.52265">
        <ele>23.92</ele>
        <time>2020-07-10T13:08:48Z</time>
      </trkpt>
      <trkpt lat="47.81144" lon="-3.52262">
        <ele>24.07</ele>
        <time>2020-07-10T13:08:49Z</time>
      </trkpt>
      <trkpt lat="47.81142" lon="-3.52258">
        <ele>24.26</ele>
        <time>2020-07-10T13:08:50Z</time>
      </trkpt>
      <trkpt lat="47.8114" lon="-3.52256">
        <ele>24.48</ele>
        <time>2020-07-10T13:08:51Z</time>
      </trkpt>
      <trkpt lat="47.81137" lon="-3.52253">
        <ele>24.69</ele>
        <time>2020-07-10T13:08:52Z</time>
      </trkpt>
      <trkpt lat="47.81134" lon="-3.5225">
        <ele>24.9</ele>
        <time>2020-07-10T13:08:53Z</time>
      </trkpt>
      <trkpt lat="47.81132" lon="-3.52247">
        <ele>25.04</ele>
        <time>2020-07-10T13:08:54Z</time>
      </trkpt>
      <trkpt lat="47.81129" lon="-3.52244">
        <ele>25.15</ele>
        <time>2020-07-10T13:08:55Z</time>
      </trkpt>
      <trkpt lat="47.81126" lon="-3.52241">
        <ele>25.26</ele>
        <time>2020-07-10T13:08:56Z</time>
      </trkpt>
      <trkpt lat="47.81124" lon="-3.52239">
        <ele>25.36</ele>
        <time>2020-07-10T13:08:57Z</time>
      </trkpt>
      <trkpt lat="47.81121" lon="-3.52236">
        <ele>25.47</ele>
        <time>2020-07-10T13:08:58Z</time>
      </trkpt>
      <trkpt lat="47.81118" lon="-3.52233">
        <ele>25.57</ele>
        <time>2020-07-10T13:08:59Z</time>
      </trkpt>
      <trkpt lat="47.81115" lon="-3.5223">
        <ele>25.68</ele>
        <time>2020-07-10T13:09:00Z</time>
      </trkpt>
      <trkpt lat="47.81112" lon="-3.52227">
        <ele>25.77</ele>
        <time>2020-07-10T13:09:01Z</time>
      </trkpt>
      <trkpt lat="47.8111" lon="-3.52225">
        <ele>25.86</ele>
        <time>2020-07-10T13:09:02Z</time>
      </trkpt>
      <trkpt lat="47.81107" lon="-3.52222">
        <ele>25.96</ele>
        <time>2020-07-10T13:09:03Z</time>
      </trkpt>
      <trkpt lat="47.81104" lon="-3.52219">
        <ele>26.13</ele>
        <time>2020-07-10T13:09:04Z</time>
      </trkpt>
      <trkpt lat="47.81101" lon="-3.52217">
        <ele>26.32</ele>
        <time>2020-07-10T13:09:05Z</time>
      </trkpt>
      <trkpt lat="47.81098" lon="-3.52214">
        <ele>26.51</ele>
        <time>2020-07-10T13:09:06Z</time>
      </trkpt>
      <trkpt lat="47.81095" lon="-3.52212">
        <ele>26.69</ele>
        <time>2020-07-10T13:09:07Z</time>
      </trkpt>
      <trkpt lat="47.81093" lon="-3.52209">
        <ele>26.89</ele>
        <time>2020-07-10T13:09:08Z</time>
      </trkpt>
      <trkpt lat="47.8109" lon="-3.52205">
        <ele>27.13</ele>
        <time>2020-07-10T13:09:09Z</time>
      </trkpt>
      <trkpt lat="47.81088" lon="-3.52203">
        <ele>27.33</ele>
        <time>2020-07-10T13:09:10Z</time>
      </trkpt>
      <trkpt lat="47.81085" lon="-3.522">
        <ele>27.53</ele>
        <time>2020-07-10T13:09:11Z</time>
      </trkpt>
      <trkpt lat="47.81083" lon="-3.52197">
        <ele>27.75</ele>
        <time>2020-07-10T13:09:12Z</time>
      </trkpt>
      <trkpt lat="47.8108" lon="-3.52194">
        <ele>28.06</ele>
        <time>2020-07-10T13:09:13Z</time>
      </trkpt>
      <trkpt lat="47.81078" lon="-3.5219">
        <ele>28.44</ele>
        <time>2020-07-10T13:09:14Z</time>
      </trkpt>
      <trkpt lat="47.81075" lon="-3.52187">
        <ele>28.83</ele>
        <time>2020-07-10T13:09:15Z</time>
      </trkpt>
      <trkpt lat="47.81072" lon="-3.52184">
        <ele>29.21</ele>
        <time>2020-07-10T13:09:16Z</time>
      </trkpt>
      <trkpt lat="47.81069" lon="-3.52181">
        <ele>29.58</ele>
        <time>2020-07-10T13:09:17Z</time>
      </trkpt>
      <trkpt lat="47.81066" lon="-3.52178">
        <ele>29.91</ele>
        <time>2020-07-10T13:09:18Z</time>
      </trkpt>
      <trkpt lat="47.81063" lon="-3.52175">
        <ele>30.2</ele>
        <time>2020-07-10T13:09:19Z</time>
      </trkpt>
      <trkpt lat="47.8106" lon="-3.52172">
        <ele>30.45</ele>
        <time>2020-07-10T13:09:20Z</time>
      </trkpt>
      <trkpt lat="47.81058" lon="-3.5217">
        <ele>30.68</ele>
        <time>2020-07-10T13:09:21Z</time>
      </trkpt>
      <trkpt lat="47.81055" lon="-3.52167">
        <ele>30.89</ele>
        <time>2020-07-10T13:09:22Z</time>
      </trkpt>
      <trkpt lat="47.81053" lon="-3.52164">
        <ele>31.2</ele>
        <time>2020-07-10T13:09:23Z</time>
      </trkpt>
      <trkpt lat="47.8105" lon="-3.52161">
        <ele>31.59</ele>
        <time>2020-07-10T13:09:24Z</time>
      </trkpt>
      <trkpt lat="47.81048" lon="-3.52159">
        <ele>31.98</ele>
        <time>2020-07-10T13:09:25Z</time>
      </trkpt>
      <trkpt lat="47.81046" lon="-3.52156">
        <ele>32.37</ele>
        <time>2020-07-10T13:09:26Z</time>
      </trkpt>
      <trkpt lat="47.81044" lon="-3.52153">
        <ele>32.76</ele>
        <time>2020-07-10T13:09:27Z</time>
      </trkpt>
      <trkpt lat="47.81042" lon="-3.5215">
        <ele>33.15</ele>
        <time>2020-07-10T13:09:28Z</time>
      </trkpt>
      <trkpt lat="47.8104" lon="-3.52147">
        <ele>33.54</ele>
        <time>2020-07-10T13:09:29Z</time>
      </trkpt>
      <trkpt lat="47.81039" lon="-3.52143">
        <ele>33.96</ele>
        <time>2020-07-10T13:09:30Z</time>
      </trkpt>
      <trkpt lat="47.81037" lon="-3.5214">
        <ele>34.41</ele>
        <time>2020-07-10T13:09:31Z</time>
      </trkpt>
      <trkpt lat="47.81036" lon="-3.52136">
        <ele>34.7</ele>
        <time>2020-07-10T13:09:32Z</time>
      </trkpt>
      <trkpt lat="47.81035" lon="-3.52131">
        <ele>34.93</ele>
        <time>2020-07-10T13:09:33Z</time>
      </trkpt>
      <trkpt lat="47.81035" lon="-3.52127">
        <ele>35.11</ele>
        <time>2020-07-10T13:09:34Z</time>
      </trkpt>
      <trkpt lat="47.81035" lon="-3.52123">
        <ele>35.26</ele>
        <time>2020-07-10T13:09:35Z</time>
      </trkpt>
      <trkpt lat="47.81036" lon="-3.52118">
        <ele>35.4</ele>
        <time>2020-07-10T13:09:36Z</time>
      </trkpt>
      <trkpt lat="47.81037" lon="-3.52114">
        <ele>35.53</ele>
        <time>2020-07-10T13:09:37Z</time>
      </trkpt>
      <trkpt lat="47.81038" lon="-3.5211">
        <ele>35.63</ele>
        <time>2020-07-10T13:09:38Z</time>
      </trkpt>
      <trkpt lat="47.81038" lon="-3.52105">
        <ele>35.72</ele>
        <time>2020-07-10T13:09:39Z</time>
      </trkpt>
      <trkpt lat="47.81039" lon="-3.52101">
        <ele>35.79</ele>
        <time>2020-07-10T13:09:40Z</time>
      </trkpt>
      <trkpt lat="47.81039" lon="-3.52097">
        <ele>35.86</ele>
        <time>2020-07-10T13:09:41Z</time>
      </trkpt>
      <trkpt lat="47.8104" lon="-3.52092">
        <ele>35.92</ele>
        <time>2020-07-10T13:09:42Z</time>
      </trkpt>
      <trkpt lat="47.81041" lon="-3.52088">
        <ele>35.96</ele>
        <time>2020-07-10T13:09:43Z</time>
      </trkpt>
      <trkpt lat="47.81041" lon="-3.52083">
        <ele>36.03</ele>
        <time>2020-07-10T13:09:44Z</time>
      </trkpt>
      <trkpt lat="47.81041" lon="-3.52078">
        <ele>36.18</ele>
        <time>2020-07-10T13:09:45Z</time>
      </trkpt>
      <trkpt lat="47.81039" lon="-3.52074">
        <ele>36.4</ele>
        <time>2020-07-10T13:09:46Z</time>
      </trkpt>
      <trkpt lat="47.81038" lon="-3.52071">
        <ele>36.64</ele>
        <time>2020-07-10T13:09:47Z</time>
      </trkpt>
      <trkpt lat="47.81035" lon="-3.52068">
        <ele>36.93</ele>
        <time>2020-07-10T13:09:48Z</time>
      </trkpt>
      <trkpt lat="47.81032" lon="-3.52067">
        <ele>37.19</ele>
        <time>2020-07-10T13:09:49Z</time>
      </trkpt>
      <trkpt lat="47.81029" lon="-3.52065">
        <ele>37.46</ele>
        <time>2020-07-10T13:09:50Z</time>
      </trkpt>
      <trkpt lat="47.81026" lon="-3.52063">
        <ele>37.72</ele>
        <time>2020-07-10T13:09:51Z</time>
      </trkpt>
      <trkpt lat="47.81023" lon="-3.52062">
        <ele>37.99</ele>
        <time>2020-07-10T13:09:52Z</time>
      </trkpt>
      <trkpt lat="47.81021" lon="-3.5206">
        <ele>38.24</ele>
        <time>2020-07-10T13:09:53Z</time>
      </trkpt>
      <trkpt lat="47.81018" lon="-3.52058">
        <ele>38.5</ele>
        <time>2020-07-10T13:09:54Z</time>
      </trkpt>
      <trkpt lat="47.81015" lon="-3.52056">
        <ele>38.74</ele>
        <time>2020-07-10T13:09:55Z</time>
      </trkpt>
      <trkpt lat="47.81013" lon="-3.52055">
        <ele>38.97</ele>
        <time>2020-07-10T13:09:56Z</time>
      </trkpt>
      <trkpt lat="47.8101" lon="-3.52054">
        <ele>39.22</ele>
        <time>2020-07-10T13:09:57Z</time>
      </trkpt>
      <trkpt lat="47.81007" lon="-3.52052">
        <ele>39.43</ele>
        <time>2020-07-10T13:09:58Z</time>
      </trkpt>
      <trkpt lat="47.81004" lon="-3.52051">
        <ele>39.64</ele>
        <time>2020-07-10T13:09:59Z</time>
      </trkpt>
      <trkpt lat="47.81001" lon="-3.52049">
        <ele>39.83</ele>
        <time>2020-07-10T13:10:00Z</time>
      </trkpt>
      <trkpt lat="47.80999" lon="-3.52048">
        <ele>40</ele>
        <time>2020-07-10T13:10:01Z</time>
      </trkpt>
      <trkpt lat="47.80996" lon="-3.52046">
        <ele>40.14</ele>
        <time>2020-07-10T13:10:02Z</time>
      </trkpt>
      <trkpt lat="47.80993" lon="-3.52045">
        <ele>40.29</ele>
        <time>2020-07-10T13:10:03Z</time>
      </trkpt>
      <trkpt lat="47.8099" lon="-3.52044">
        <ele>40.44</ele>
        <time>2020-07-10T13:10:04Z</time>
      </trkpt>
      <trkpt lat="47.80988" lon="-3.52042">
        <ele>40.59</ele>
        <time>2020-07-10T13:10:05Z</time>
      </trkpt>
      <trkpt lat="47.80985" lon="-3.52041">
        <ele>40.77</ele>
        <time>2020-07-10T13:10:06Z</time>
      </trkpt>
      <trkpt lat="47.80982" lon="-3.5204">
        <ele>40.94</ele>
        <time>2020-07-10T13:10:07Z</time>
      </trkpt>
      <trkpt lat="47.80979" lon="-3.52039">
        <ele>41.13</ele>
        <time>2020-07-10T13:10:08Z</time>
      </trkpt>
      <trkpt lat="47.80976" lon="-3.52038">
        <ele>41.34</ele>
        <time>2020-07-10T13:10:09Z</time>
      </trkpt>
      <trkpt lat="47.80973" lon="-3.52037">
        <ele>41.54</ele>
        <time>2020-07-10T13:10:10Z</time>
      </trkpt>
      <trkpt lat="47.8097" lon="-3.52036">
        <ele>41.73</ele>
        <time>2020-07-10T13:10:11Z</time>
      </trkpt>
      <trkpt lat="47.80967" lon="-3.52034">
        <ele>41.94</ele>
        <time>2020-07-10T13:10:12Z</time>
      </trkpt>
      <trkpt lat="47.80963" lon="-3.52031">
        <ele>42.16</ele>
        <time>2020-07-10T13:10:13Z</time>
      </trkpt>
      <trkpt lat="47.80959" lon="-3.52029">
        <ele>42.36</ele>
        <time>2020-07-10T13:10:14Z</time>
      </trkpt>
      <trkpt lat="47.80956" lon="-3.52027">
        <ele>42.52</ele>
        <time>2020-07-10T13:10:15Z</time>
      </trkpt>
      <trkpt lat="47.80952" lon="-3.52025">
        <ele>42.65</ele>
        <time>2020-07-10T13:10:16Z</time>
      </trkpt>
      <trkpt lat="47.80948" lon="-3.52023">
        <ele>42.78</ele>
        <time>2020-07-10T13:10:17Z</time>
      </trkpt>
      <trkpt lat="47.80944" lon="-3.52022">
        <ele>42.93</ele>
        <time>2020-07-10T13:10:18Z</time>
      </trkpt>
      <trkpt lat="47.80941" lon="-3.52021">
        <ele>43.06</ele>
        <time>2020-07-10T13:10:19Z</time>
      </trkpt>
      <trkpt lat="47.80938" lon="-3.52019">
        <ele>43.17</ele>
        <time>2020-07-10T13:10:20Z</time>
      </trkpt>
      <trkpt lat="47.80936" lon="-3.52016">
        <ele>43.28</ele>
        <time>2020-07-10T13:10:21Z</time>
      </trkpt>
      <trkpt lat="47.80932" lon="-3.52015">
        <ele>43.39</ele>
        <time>2020-07-10T13:10:22Z</time>
      </trkpt>
      <trkpt lat="47.80929" lon="-3.52013">
        <ele>43.51</ele>
        <time>2020-07-10T13:10:23Z</time>
      </trkpt>
      <trkpt lat="47.80926" lon="-3.52012">
        <ele>43.62</ele>
        <time>2020-07-10T13:10:24Z</time>
      </trkpt>
      <trkpt lat="47.80923" lon="-3.52009">
        <ele>43.74</ele>
        <time>2020-07-10T13:10:25Z</time>
      </trkpt>
      <trkpt lat="47.80919" lon="-3.52006">
        <ele>43.85</ele>
        <time>2020-07-10T13:10:26Z</time>
      </trkpt>
      <trkpt lat="47.80916" lon="-3.52002">
        <ele>43.97</ele>
        <time>2020-07-10T13:10:27Z</time>
      </trkpt>
      <trkpt lat="47.80913" lon="-3.51999">
        <ele>44.09</ele>
        <time>2020-07-10T13:10:28Z</time>
      </trkpt>
      <trkpt lat="47.8091" lon="-3.51996">
        <ele>44.21</ele>
        <time>2020-07-10T13:10:29Z</time>
      </trkpt>
      <trkpt lat="47.80907" lon="-3.51993">
        <ele>44.32</ele>
        <time>2020-07-10T13:10:30Z</time>
      </trkpt>
      <trkpt lat="47.80903" lon="-3.51991">
        <ele>44.43</ele>
        <time>2020-07-10T13:10:31Z</time>
      </trkpt>
      <trkpt lat="47.809" lon="-3.51989">
        <ele>44.54</ele>
        <time>2020-07-10T13:10:32Z</time>
      </trkpt>
      <trkpt lat="47.80897" lon="-3.51986">
        <ele>44.66</ele>
        <time>2020-07-10T13:10:33Z</time>
      </trkpt>
      <trkpt lat="47.80894" lon="-3.51984">
        <ele>44.78</ele>
        <time>2020-07-10T13:10:34Z</time>
      </trkpt>
      <trkpt lat="47.8089" lon="-3.51982">
        <ele>44.9</ele>
        <time>2020-07-10T13:10:35Z</time>
      </trkpt>
      <trkpt lat="47.80887" lon="-3.51979">
        <ele>45.02</ele>
        <time>2020-07-10T13:10:36Z</time>
      </trkpt>
      <trkpt lat="47.80884" lon="-3.51977">
        <ele>45.13</ele>
        <time>2020-07-10T13:10:37Z</time>
      </trkpt>
      <trkpt lat="47.80881" lon="-3.51975">
        <ele>45.25</ele>
        <time>2020-07-10T13:10:38Z</time>
      </trkpt>
      <trkpt lat="47.80878" lon="-3.51972">
        <ele>45.36</ele>
        <time>2020-07-10T13:10:39Z</time>
      </trkpt>
      <trkpt lat="47.80874" lon="-3.5197">
        <ele>45.54</ele>
        <time>2020-07-10T13:10:40Z</time>
      </trkpt>
      <trkpt lat="47.80871" lon="-3.51967">
        <ele>45.75</ele>
        <time>2020-07-10T13:10:41Z</time>
      </trkpt>
      <trkpt lat="47.80868" lon="-3.51964">
        <ele>45.95</ele>
        <time>2020-07-10T13:10:42Z</time>
      </trkpt>
      <trkpt lat="47.80864" lon="-3.51962">
        <ele>46.16</ele>
        <time>2020-07-10T13:10:43Z</time>
      </trkpt>
      <trkpt lat="47.80861" lon="-3.51959">
        <ele>46.37</ele>
        <time>2020-07-10T13:10:44Z</time>
      </trkpt>
      <trkpt lat="47.80858" lon="-3.51956">
        <ele>46.54</ele>
        <time>2020-07-10T13:10:45Z</time>
      </trkpt>
      <trkpt lat="47.80855" lon="-3.51954">
        <ele>46.68</ele>
        <time>2020-07-10T13:10:46Z</time>
      </trkpt>
      <trkpt lat="47.80851" lon="-3.51952">
        <ele>46.79</ele>
        <time>2020-07-10T13:10:47Z</time>
      </trkpt>
      <trkpt lat="47.80848" lon="-3.51949">
        <ele>46.88</ele>
        <time>2020-07-10T13:10:48Z</time>
      </trkpt>
      <trkpt lat="47.80845" lon="-3.51946">
        <ele>46.95</ele>
        <time>2020-07-10T13:10:49Z</time>
      </trkpt>
      <trkpt lat="47.80842" lon="-3.51943">
        <ele>46.98</ele>
        <time>2020-07-10T13:10:50Z</time>
      </trkpt>
      <trkpt lat="47.80838" lon="-3.51941">
        <ele>47</ele>
        <time>2020-07-10T13:10:51Z</time>
      </trkpt>
      <trkpt lat="47.80835" lon="-3.51938">
        <ele>47</ele>
        <time>2020-07-10T13:10:52Z</time>
      </trkpt>
      <trkpt lat="47.80831" lon="-3.51936">
        <ele>47</ele>
        <time>2020-07-10T13:10:53Z</time>
      </trkpt>
      <trkpt lat="47.80828" lon="-3.51933">
        <ele>47</ele>
        <time>2020-07-10T13:10:54Z</time>
      </trkpt>
      <trkpt lat="47.80824" lon="-3.5193">
        <ele>47</ele>
        <time>2020-07-10T13:10:55Z</time>
      </trkpt>
      <trkpt lat="47.8082" lon="-3.51927">
        <ele>47</ele>
        <time>2020-07-10T13:10:56Z</time>
      </trkpt>
      <trkpt lat="47.80816" lon="-3.51924">
        <ele>47</ele>
        <time>2020-07-10T13:10:57Z</time>
      </trkpt>
      <trkpt lat="47.80812" lon="-3.51921">
        <ele>47</ele>
        <time>2020-07-10T13:10:58Z</time>
      </trkpt>
      <trkpt lat="47.80809" lon="-3.51918">
        <ele>47</ele>
        <time>2020-07-10T13:10:59Z</time>
      </trkpt>
      <trkpt lat="47.80805" lon="-3.51915">
        <ele>47.03</ele>
        <time>2020-07-10T13:11:00Z</time>
      </trkpt>
      <trkpt lat="47.80801" lon="-3.51913">
        <ele>47.12</ele>
        <time>2020-07-10T13:11:01Z</time>
      </trkpt>
      <trkpt lat="47.80797" lon="-3.51909">
        <ele>47.22</ele>
        <time>2020-07-10T13:11:02Z</time>
      </trkpt>
      <trkpt lat="47.80793" lon="-3.51906">
        <ele>47.33</ele>
        <time>2020-07-10T13:11:03Z</time>
      </trkpt>
      <trkpt lat="47.80789" lon="-3.51903">
        <ele>47.43</ele>
        <time>2020-07-10T13:11:04Z</time>
      </trkpt>
      <trkpt lat="47.80785" lon="-3.519">
        <ele>47.55</ele>
        <time>2020-07-10T13:11:05Z</time>
      </trkpt>
      <trkpt lat="47.80781" lon="-3.51896">
        <ele>47.68</ele>
        <time>2020-07-10T13:11:06Z</time>
      </trkpt>
      <trkpt lat="47.80777" lon="-3.51893">
        <ele>47.8</ele>
        <time>2020-07-10T13:11:07Z</time>
      </trkpt>
      <trkpt lat="47.80774" lon="-3.51889">
        <ele>47.84</ele>
        <time>2020-07-10T13:11:08Z</time>
      </trkpt>
      <trkpt lat="47.8077" lon="-3.51885">
        <ele>47.79</ele>
        <time>2020-07-10T13:11:09Z</time>
      </trkpt>
      <trkpt lat="47.80767" lon="-3.51881">
        <ele>47.74</ele>
        <time>2020-07-10T13:11:10Z</time>
      </trkpt>
      <trkpt lat="47.80763" lon="-3.51877">
        <ele>47.71</ele>
        <time>2020-07-10T13:11:11Z</time>
      </trkpt>
      <trkpt lat="47.8076" lon="-3.51873">
        <ele>47.72</ele>
        <time>2020-07-10T13:11:12Z</time>
      </trkpt>
      <trkpt lat="47.80756" lon="-3.51869">
        <ele>47.75</ele>
        <time>2020-07-10T13:11:13Z</time>
      </trkpt>
      <trkpt lat="47.80753" lon="-3.51866">
        <ele>47.82</ele>
        <time>2020-07-10T13:11:14Z</time>
      </trkpt>
      <trkpt lat="47.80749" lon="-3.51862">
        <ele>47.91</ele>
        <time>2020-07-10T13:11:15Z</time>
      </trkpt>
      <trkpt lat="47.80746" lon="-3.51858">
        <ele>47.88</ele>
        <time>2020-07-10T13:11:16Z</time>
      </trkpt>
      <trkpt lat="47.80743" lon="-3.51854">
        <ele>47.79</ele>
        <time>2020-07-10T13:11:17Z</time>
      </trkpt>
      <trkpt lat="47.8074" lon="-3.5185">
        <ele>47.68</ele>
        <time>2020-07-10T13:11:18Z</time>
      </trkpt>
      <trkpt lat="47.80736" lon="-3.51847">
        <ele>47.55</ele>
        <time>2020-07-10T13:11:19Z</time>
      </trkpt>
      <trkpt lat="47.80733" lon="-3.51844">
        <ele>47.43</ele>
        <time>2020-07-10T13:11:20Z</time>
      </trkpt>
      <trkpt lat="47.80729" lon="-3.5184">
        <ele>47.29</ele>
        <time>2020-07-10T13:11:21Z</time>
      </trkpt>
      <trkpt lat="47.80725" lon="-3.51836">
        <ele>47.16</ele>
        <time>2020-07-10T13:11:22Z</time>
      </trkpt>
      <trkpt lat="47.80721" lon="-3.51832">
        <ele>47.05</ele>
        <time>2020-07-10T13:11:23Z</time>
      </trkpt>
      <trkpt lat="47.80718" lon="-3.51827">
        <ele>46.96</ele>
        <time>2020-07-10T13:11:24Z</time>
      </trkpt>
      <trkpt lat="47.80714" lon="-3.51822">
        <ele>46.87</ele>
        <time>2020-07-10T13:11:25Z</time>
      </trkpt>
      <trkpt lat="47.80711" lon="-3.51818">
        <ele>46.78</ele>
        <time>2020-07-10T13:11:26Z</time>
      </trkpt>
      <trkpt lat="47.80707" lon="-3.51814">
        <ele>46.69</ele>
        <time>2020-07-10T13:11:27Z</time>
      </trkpt>
      <trkpt lat="47.80704" lon="-3.5181">
        <ele>46.6</ele>
        <time>2020-07-10T13:11:28Z</time>
      </trkpt>
      <trkpt lat="47.807" lon="-3.51806">
        <ele>46.47</ele>
        <time>2020-07-10T13:11:29Z</time>
      </trkpt>
      <trkpt lat="47.80696" lon="-3.51803">
        <ele>46.23</ele>
        <time>2020-07-10T13:11:30Z</time>
      </trkpt>
      <trkpt lat="47.80692" lon="-3.51801">
        <ele>45.94</ele>
        <time>2020-07-10T13:11:31Z</time>
      </trkpt>
      <trkpt lat="47.80687" lon="-3.51799">
        <ele>45.66</ele>
        <time>2020-07-10T13:11:32Z</time>
      </trkpt>
      <trkpt lat="47.80682" lon="-3.51797">
        <ele>45.36</ele>
        <time>2020-07-10T13:11:33Z</time>
      </trkpt>
      <trkpt lat="47.80677" lon="-3.51795">
        <ele>45.08</ele>
        <time>2020-07-10T13:11:34Z</time>
      </trkpt>
      <trkpt lat="47.80671" lon="-3.51793">
        <ele>44.8</ele>
        <time>2020-07-10T13:11:35Z</time>
      </trkpt>
      <trkpt lat="47.80666" lon="-3.51792">
        <ele>44.54</ele>
        <time>2020-07-10T13:11:36Z</time>
      </trkpt>
      <trkpt lat="47.80661" lon="-3.5179">
        <ele>44.05</ele>
        <time>2020-07-10T13:11:37Z</time>
      </trkpt>
      <trkpt lat="47.80655" lon="-3.51788">
        <ele>43.39</ele>
        <time>2020-07-10T13:11:38Z</time>
      </trkpt>
      <trkpt lat="47.80649" lon="-3.51786">
        <ele>42.69</ele>
        <time>2020-07-10T13:11:39Z</time>
      </trkpt>
      <trkpt lat="47.80644" lon="-3.51783">
        <ele>41.95</ele>
        <time>2020-07-10T13:11:40Z</time>
      </trkpt>
      <trkpt lat="47.80638" lon="-3.5178">
        <ele>41.19</ele>
        <time>2020-07-10T13:11:41Z</time>
      </trkpt>
      <trkpt lat="47.80631" lon="-3.51778">
        <ele>40.49</ele>
        <time>2020-07-10T13:11:42Z</time>
      </trkpt>
      <trkpt lat="47.80625" lon="-3.51776">
        <ele>39.88</ele>
        <time>2020-07-10T13:11:43Z</time>
      </trkpt>
      <trkpt lat="47.80619" lon="-3.51775">
        <ele>39.27</ele>
        <time>2020-07-10T13:11:44Z</time>
      </trkpt>
      <trkpt lat="47.80613" lon="-3.51773">
        <ele>38.64</ele>
        <time>2020-07-10T13:11:45Z</time>
      </trkpt>
      <trkpt lat="47.80608" lon="-3.51772">
        <ele>37.62</ele>
        <time>2020-07-10T13:11:46Z</time>
      </trkpt>
      <trkpt lat="47.80604" lon="-3.51771">
        <ele>36.42</ele>
        <time>2020-07-10T13:11:47Z</time>
      </trkpt>
      <trkpt lat="47.80602" lon="-3.5177">
        <ele>35.41</ele>
        <time>2020-07-10T13:11:48Z</time>
      </trkpt>
      <trkpt lat="47.806" lon="-3.5177">
        <ele>34.82</ele>
        <time>2020-07-10T13:11:49Z</time>
      </trkpt>
      <trkpt lat="47.806" lon="-3.51769">
        <ele>34.59</ele>
        <time>2020-07-10T13:11:50Z</time>
      </trkpt>
      <trkpt lat="47.806" lon="-3.5177">
        <ele>34.55</ele>
        <time>2020-07-10T13:11:51Z</time>
      </trkpt>
      <trkpt lat="47.806" lon="-3.5177">
        <ele>34.56</ele>
        <time>2020-07-10T13:11:52Z</time>
      </trkpt>
      <trkpt lat="47.806" lon="-3.5177">
        <ele>34.56</ele>
        <time>2020-07-10T13:11:53Z</time>
      </trkpt>
      <trkpt lat="47.806" lon="-3.5177">
        <ele>34.56</ele>
        <time>2020-07-10T13:11:54Z</time>
      </trkpt>
      <trkpt lat="47.806" lon="-3.5177">
        <ele>34.56</ele>
        <time>2020-07-10T13:11:55Z</time>
      </trkpt>
      <trkpt lat="47.806" lon="-3.5177">
        <ele>34.56</ele>
        <time>2020-07-10T13:11:56Z</time>
      </trkpt>
      <trkpt lat="47.806" lon="-3.5177">
        <ele>34.56</ele>
        <time>2020-07-10T13:11:57Z</time>
      </trkpt>
      <trkpt lat="47.806" lon="-3.5177">
        <ele>34.56</ele>
        <time>2020-07-10T13:11:58Z</time>
      </trkpt>
      <trkpt lat="47.806" lon="-3.5177">
        <ele>34.56</ele>
        <time>2020-07-10T13:11:59Z</time>
      </trkpt>
      <trkpt lat="47.80599" lon="-3.51775">
        <ele>34.14</ele>
        <time>2020-07-10T13:12:00Z</time>
      </trkpt>
      <trkpt lat="47.80599" lon="-3.51779">
        <ele>33.65</ele>
        <time>2020-07-10T13:12:01Z</time>
      </trkpt>
      <trkpt lat="47.80598" lon="-3.51783">
        <ele>33.27</ele>
        <time>2020-07-10T13:12:02Z</time>
      </trkpt>
      <trkpt lat="47.80598" lon="-3.51789">
        <ele>32.74</ele>
        <time>2020-07-10T13:12:03Z</time>
      </trkpt>
      <trkpt lat="47.80597" lon="-3.51795">
        <ele>32.18</ele>
        <time>2020-07-10T13:12:04Z</time>
      </trkpt>
      <trkpt lat="47.80596" lon="-3.51801">
        <ele>31.54</ele>
        <time>2020-07-10T13:12:05Z</time>
      </trkpt>
      <trkpt lat="47.80595" lon="-3.51807">
        <ele>30.87</ele>
        <time>2020-07-10T13:12:06Z</time>
      </trkpt>
      <trkpt lat="47.80593" lon="-3.51813">
        <ele>30.11</ele>
        <time>2020-07-10T13:12:07Z</time>
      </trkpt>
      <trkpt lat="47.80591" lon="-3.51821">
        <ele>29.08</ele>
        <time>2020-07-10T13:12:08Z</time>
      </trkpt>
      <trkpt lat="47.8059" lon="-3.51828">
        <ele>28.23</ele>
        <time>2020-07-10T13:12:09Z</time>
      </trkpt>
      <trkpt lat="47.80589" lon="-3.51837">
        <ele>27.56</ele>
        <time>2020-07-10T13:12:10Z</time>
      </trkpt>
      <trkpt lat="47.80589" lon="-3.51847">
        <ele>27.31</ele>
        <time>2020-07-10T13:12:11Z</time>
      </trkpt>
      <trkpt lat="47.80589" lon="-3.51858">
        <ele>27.33</ele>
        <time>2020-07-10T13:12:12Z</time>
      </trkpt>
      <trkpt lat="47.8059" lon="-3.51868">
        <ele>27.24</ele>
        <time>2020-07-10T13:12:13Z</time>
      </trkpt>
      <trkpt lat="47.80591" lon="-3.5188">
        <ele>27.24</ele>
        <time>2020-07-10T13:12:14Z</time>
      </trkpt>
      <trkpt lat="47.80593" lon="-3.51891">
        <ele>27.27</ele>
        <time>2020-07-10T13:12:15Z</time>
      </trkpt>
      <trkpt lat="47.80595" lon="-3.51903">
        <ele>27.44</ele>
        <time>2020-07-10T13:12:16Z</time>
      </trkpt>
      <trkpt lat="47.80596" lon="-3.51914">
        <ele>27.39</ele>
        <time>2020-07-10T13:12:17Z</time>
      </trkpt>
      <trkpt lat="47.80597" lon="-3.51925">
        <ele>26.98</ele>
        <time>2020-07-10T13:12:18Z</time>
      </trkpt>
      <trkpt lat="47.80598" lon="-3.51935">
        <ele>26.37</ele>
        <time>2020-07-10T13:12:19Z</time>
      </trkpt>
      <trkpt lat="47.80599" lon="-3.51945">
        <ele>25.8</ele>
        <time>2020-07-10T13:12:20Z</time>
      </trkpt>
      <trkpt lat="47.806" lon="-3.51955">
        <ele>25.35</ele>
        <time>2020-07-10T13:12:21Z</time>
      </trkpt>
      <trkpt lat="47.80601" lon="-3.51965">
        <ele>24.97</ele>
        <time>2020-07-10T13:12:22Z</time>
      </trkpt>
      <trkpt lat="47.80601" lon="-3.51975">
        <ele>24.32</ele>
        <time>2020-07-10T13:12:23Z</time>
      </trkpt>
      <trkpt lat="47.80601" lon="-3.51987">
        <ele>23.57</ele>
        <time>2020-07-10T13:12:24Z</time>
      </trkpt>
      <trkpt lat="47.80601" lon="-3.51999">
        <ele>22.86</ele>
        <time>2020-07-10T13:12:25Z</time>
      </trkpt>
      <trkpt lat="47.80601" lon="-3.52011">
        <ele>22.13</ele>
        <time>2020-07-10T13:12:26Z</time>
      </trkpt>
      <trkpt lat="47.806" lon="-3.52022">
        <ele>21.16</ele>
        <time>2020-07-10T13:12:27Z</time>
      </trkpt>
      <trkpt lat="47.806" lon="-3.52035">
        <ele>20.54</ele>
        <time>2020-07-10T13:12:28Z</time>
      </trkpt>
      <trkpt lat="47.80598" lon="-3.52046">
        <ele>19.76</ele>
        <time>2020-07-10T13:12:29Z</time>
      </trkpt>
      <trkpt lat="47.80595" lon="-3.52056">
        <ele>18.63</ele>
        <time>2020-07-10T13:12:30Z</time>
      </trkpt>
      <trkpt lat="47.80591" lon="-3.52065">
        <ele>17.44</ele>
        <time>2020-07-10T13:12:31Z</time>
      </trkpt>
      <trkpt lat="47.80587" lon="-3.52073">
        <ele>16.16</ele>
        <time>2020-07-10T13:12:32Z</time>
      </trkpt>
      <trkpt lat="47.80583" lon="-3.52081">
        <ele>15.25</ele>
        <time>2020-07-10T13:12:33Z</time>
      </trkpt>
      <trkpt lat="47.8058" lon="-3.52087">
        <ele>14.46</ele>
        <time>2020-07-10T13:12:34Z</time>
      </trkpt>
      <trkpt lat="47.80577" lon="-3.52093">
        <ele>13.84</ele>
        <time>2020-07-10T13:12:35Z</time>
      </trkpt>
      <trkpt lat="47.80574" lon="-3.521">
        <ele>13.29</ele>
        <time>2020-07-10T13:12:36Z</time>
      </trkpt>
      <trkpt lat="47.80571" lon="-3.52108">
        <ele>12.91</ele>
        <time>2020-07-10T13:12:37Z</time>
      </trkpt>
      <trkpt lat="47.80568" lon="-3.52116">
        <ele>12.64</ele>
        <time>2020-07-10T13:12:38Z</time>
      </trkpt>
      <trkpt lat="47.80567" lon="-3.52126">
        <ele>12.85</ele>
        <time>2020-07-10T13:12:39Z</time>
      </trkpt>
      <trkpt lat="47.80565" lon="-3.52134">
        <ele>13.08</ele>
        <time>2020-07-10T13:12:40Z</time>
      </trkpt>
      <trkpt lat="47.80564" lon="-3.52141">
        <ele>13.37</ele>
        <time>2020-07-10T13:12:41Z</time>
      </trkpt>
      <trkpt lat="47.80564" lon="-3.52148">
        <ele>13.66</ele>
        <time>2020-07-10T13:12:42Z</time>
      </trkpt>
      <trkpt lat="47.80564" lon="-3.52154">
        <ele>13.93</ele>
        <time>2020-07-10T13:12:43Z</time>
      </trkpt>
      <trkpt lat="47.80563" lon="-3.52161">
        <ele>14.11</ele>
        <time>2020-07-10T13:12:44Z</time>
      </trkpt>
      <trkpt lat="47.80563" lon="-3.52165">
        <ele>14.21</ele>
        <time>2020-07-10T13:12:45Z</time>
      </trkpt>
      <trkpt lat="47.80562" lon="-3.52169">
        <ele>14.17</ele>
        <time>2020-07-10T13:12:46Z</time>
      </trkpt>
      <trkpt lat="47.80562" lon="-3.52173">
        <ele>14.02</ele>
        <time>2020-07-10T13:12:47Z</time>
      </trkpt>
      <trkpt lat="47.80562" lon="-3.52176">
        <ele>13.93</ele>
        <time>2020-07-10T13:12:48Z</time>
      </trkpt>
      <trkpt lat="47.80562" lon="-3.52176">
        <ele>13.84</ele>
        <time>2020-07-10T13:12:49Z</time>
      </trkpt>
      <trkpt lat="47.80562" lon="-3.52176">
        <ele>13.8</ele>
        <time>2020-07-10T13:12:50Z</time>
      </trkpt>
      <trkpt lat="47.80562" lon="-3.52178">
        <ele>13.77</ele>
        <time>2020-07-10T13:12:51Z</time>
      </trkpt>
      <trkpt lat="47.80562" lon="-3.52178">
        <ele>13.76</ele>
        <time>2020-07-10T13:12:52Z</time>
      </trkpt>
      <trkpt lat="47.80562" lon="-3.52178">
        <ele>13.76</ele>
        <time>2020-07-10T13:12:53Z</time>
      </trkpt>
      <trkpt lat="47.80563" lon="-3.52187">
        <ele>13.72</ele>
        <time>2020-07-10T13:12:54Z</time>
      </trkpt>
      <trkpt lat="47.80563" lon="-3.5219">
        <ele>13.6</ele>
        <time>2020-07-10T13:12:55Z</time>
      </trkpt>
      <trkpt lat="47.80563" lon="-3.52194">
        <ele>13.48</ele>
        <time>2020-07-10T13:12:56Z</time>
      </trkpt>
      <trkpt lat="47.80563" lon="-3.52197">
        <ele>13.28</ele>
        <time>2020-07-10T13:12:57Z</time>
      </trkpt>
      <trkpt lat="47.80563" lon="-3.52201">
        <ele>13.07</ele>
        <time>2020-07-10T13:12:58Z</time>
      </trkpt>
      <trkpt lat="47.80562" lon="-3.52205">
        <ele>12.8</ele>
        <time>2020-07-10T13:12:59Z</time>
      </trkpt>
      <trkpt lat="47.80562" lon="-3.52208">
        <ele>12.57</ele>
        <time>2020-07-10T13:13:00Z</time>
      </trkpt>
      <trkpt lat="47.8056" lon="-3.52212">
        <ele>12.23</ele>
        <time>2020-07-10T13:13:01Z</time>
      </trkpt>
      <trkpt lat="47.8056" lon="-3.52214">
        <ele>12.1</ele>
        <time>2020-07-10T13:13:02Z</time>
      </trkpt>
      <trkpt lat="47.8056" lon="-3.52215">
        <ele>12.04</ele>
        <time>2020-07-10T13:13:03Z</time>
      </trkpt>
      <trkpt lat="47.80561" lon="-3.52215">
        <ele>12.05</ele>
        <time>2020-07-10T13:13:04Z</time>
      </trkpt>
      <trkpt lat="47.80561" lon="-3.52215">
        <ele>12.05</ele>
        <time>2020-07-10T13:13:05Z</time>
      </trkpt>
      <trkpt lat="47.80561" lon="-3.52215">
        <ele>12.05</ele>
        <time>2020-07-10T13:13:06Z</time>
      </trkpt>
      <trkpt lat="47.80561" lon="-3.52215">
        <ele>12.05</ele>
        <time>2020-07-10T13:13:07Z</time>
      </trkpt>
      <trkpt lat="47.80561" lon="-3.52215">
        <ele>12.06</ele>
        <time>2020-07-10T13:13:08Z</time>
      </trkpt>
      <trkpt lat="47.80561" lon="-3.52215">
        <ele>12.06</ele>
        <time>2020-07-10T13:13:09Z</time>
      </trkpt>
      <trkpt lat="47.80561" lon="-3.52215">
        <ele>12.06</ele>
        <time>2020-07-10T13:13:10Z</time>
      </trkpt>
      <trkpt lat="47.80561" lon="-3.52215">
        <ele>12.06</ele>
        <time>2020-07-10T13:13:11Z</time>
      </trkpt>
      <trkpt lat="47.80561" lon="-3.52215">
        <ele>12.06</ele>
        <time>2020-07-10T13:13:12Z</time>
      </trkpt>
      <trkpt lat="47.80561" lon="-3.52215">
        <ele>12.06</ele>
        <time>2020-07-10T13:13:13Z</time>
      </trkpt>
      <trkpt lat="47.80561" lon="-3.52215">
        <ele>12.06</ele>
        <time>2020-07-10T13:13:14Z</time>
      </trkpt>
      <trkpt lat="47.80561" lon="-3.52215">
        <ele>12.06</ele>
        <time>2020-07-10T13:13:15Z</time>
      </trkpt>
      <trkpt lat="47.80561" lon="-3.52215">
        <ele>12.06</ele>
        <time>2020-07-10T13:13:16Z</time>
      </trkpt>
      <trkpt lat="47.80561" lon="-3.52215">
        <ele>12.06</ele>
        <time>2020-07-10T13:13:17Z</time>
      </trkpt>
      <trkpt lat="47.80561" lon="-3.52215">
        <ele>12.06</ele>
        <time>2020-07-10T13:13:18Z</time>
      </trkpt>
      <trkpt lat="47.80561" lon="-3.52215">
        <ele>12.06</ele>
        <time>2020-07-10T13:13:19Z</time>
      </trkpt>
      <trkpt lat="47.80561" lon="-3.52215">
        <ele>12.06</ele>
        <time>2020-07-10T13:13:20Z</time>
      </trkpt>
      <trkpt lat="47.80565" lon="-3.52209">
        <ele>12.66</ele>
        <time>2020-07-10T13:13:21Z</time>
      </trkpt>
      <trkpt lat="47.80564" lon="-3.52206">
        <ele>12.9</ele>
        <time>2020-07-10T13:13:22Z</time>
      </trkpt>
      <trkpt lat="47.80564" lon="-3.52203">
        <ele>13.08</ele>
        <time>2020-07-10T13:13:23Z</time>
      </trkpt>
      <trkpt lat="47.80564" lon="-3.52201">
        <ele>13.22</ele>
        <time>2020-07-10T13:13:24Z</time>
      </trkpt>
      <trkpt lat="47.80564" lon="-3.52198">
        <ele>13.31</ele>
        <time>2020-07-10T13:13:25Z</time>
      </trkpt>
      <trkpt lat="47.80564" lon="-3.52196">
        <ele>13.4</ele>
        <time>2020-07-10T13:13:26Z</time>
      </trkpt>
      <trkpt lat="47.80564" lon="-3.52196">
        <ele>13.49</ele>
        <time>2020-07-10T13:13:27Z</time>
      </trkpt>
      <trkpt lat="47.80564" lon="-3.52194">
        <ele>13.54</ele>
        <time>2020-07-10T13:13:28Z</time>
      </trkpt>
      <trkpt lat="47.80564" lon="-3.52194">
        <ele>13.56</ele>
        <time>2020-07-10T13:13:29Z</time>
      </trkpt>
      <trkpt lat="47.80564" lon="-3.52194">
        <ele>13.56</ele>
        <time>2020-07-10T13:13:30Z</time>
      </trkpt>
      <trkpt lat="47.80563" lon="-3.52188">
        <ele>13.64</ele>
        <time>2020-07-10T13:13:31Z</time>
      </trkpt>
      <trkpt lat="47.80564" lon="-3.52185">
        <ele>13.77</ele>
        <time>2020-07-10T13:13:32Z</time>
      </trkpt>
      <trkpt lat="47.80564" lon="-3.52182">
        <ele>13.92</ele>
        <time>2020-07-10T13:13:33Z</time>
      </trkpt>
      <trkpt lat="47.80564" lon="-3.52178">
        <ele>14.08</ele>
        <time>2020-07-10T13:13:34Z</time>
      </trkpt>
      <trkpt lat="47.80564" lon="-3.52174">
        <ele>14.25</ele>
        <time>2020-07-10T13:13:35Z</time>
      </trkpt>
      <trkpt lat="47.80565" lon="-3.5217">
        <ele>14.42</ele>
        <time>2020-07-10T13:13:36Z</time>
      </trkpt>
      <trkpt lat="47.80564" lon="-3.52167">
        <ele>14.5</ele>
        <time>2020-07-10T13:13:37Z</time>
      </trkpt>
      <trkpt lat="47.80564" lon="-3.52165">
        <ele>14.42</ele>
        <time>2020-07-10T13:13:38Z</time>
      </trkpt>
      <trkpt lat="47.80562" lon="-3.52163">
        <ele>14.13</ele>
        <time>2020-07-10T13:13:39Z</time>
      </trkpt>
      <trkpt lat="47.80561" lon="-3.52161">
        <ele>13.8</ele>
        <time>2020-07-10T13:13:40Z</time>
      </trkpt>
      <trkpt lat="47.80559" lon="-3.52159">
        <ele>13.44</ele>
        <time>2020-07-10T13:13:41Z</time>
      </trkpt>
      <trkpt lat="47.80558" lon="-3.52158">
        <ele>13.05</ele>
        <time>2020-07-10T13:13:42Z</time>
      </trkpt>
      <trkpt lat="47.80556" lon="-3.52156">
        <ele>12.56</ele>
        <time>2020-07-10T13:13:43Z</time>
      </trkpt>
      <trkpt lat="47.80554" lon="-3.52154">
        <ele>11.84</ele>
        <time>2020-07-10T13:13:44Z</time>
      </trkpt>
      <trkpt lat="47.80551" lon="-3.5215">
        <ele>10.72</ele>
        <time>2020-07-10T13:13:45Z</time>
      </trkpt>
      <trkpt lat="47.80547" lon="-3.52148">
        <ele>9.46</ele>
        <time>2020-07-10T13:13:46Z</time>
      </trkpt>
      <trkpt lat="47.80544" lon="-3.52146">
        <ele>8.27</ele>
        <time>2020-07-10T13:13:47Z</time>
      </trkpt>
      <trkpt lat="47.80541" lon="-3.52142">
        <ele>6.98</ele>
        <time>2020-07-10T13:13:48Z</time>
      </trkpt>
      <trkpt lat="47.80538" lon="-3.52138">
        <ele>5.72</ele>
        <time>2020-07-10T13:13:49Z</time>
      </trkpt>
      <trkpt lat="47.80535" lon="-3.52134">
        <ele>4.49</ele>
        <time>2020-07-10T13:13:50Z</time>
      </trkpt>
      <trkpt lat="47.80534" lon="-3.5213">
        <ele>3.59</ele>
        <time>2020-07-10T13:13:51Z</time>
      </trkpt>
      <trkpt lat="47.80533" lon="-3.52127">
        <ele>2.97</ele>
        <time>2020-07-10T13:13:52Z</time>
      </trkpt>
      <trkpt lat="47.80533" lon="-3.52125">
        <ele>2.62</ele>
        <time>2020-07-10T13:13:53Z</time>
      </trkpt>
      <trkpt lat="47.80533" lon="-3.52124">
        <ele>2.53</ele>
        <time>2020-07-10T13:13:54Z</time>
      </trkpt>
      <trkpt lat="47.80533" lon="-3.52122">
        <ele>2.42</ele>
        <time>2020-07-10T13:13:55Z</time>
      </trkpt>
      <trkpt lat="47.80533" lon="-3.52121">
        <ele>2.35</ele>
        <time>2020-07-10T13:13:56Z</time>
      </trkpt>
      <trkpt lat="47.80533" lon="-3.52121">
        <ele>2.25</ele>
        <time>2020-07-10T13:13:57Z</time>
      </trkpt>
      <trkpt lat="47.80533" lon="-3.52121">
        <ele>2.22</ele>
        <time>2020-07-10T13:13:58Z</time>
      </trkpt>
      <trkpt lat="47.80533" lon="-3.52121">
        <ele>2.21</ele>
        <time>2020-07-10T13:13:59Z</time>
      </trkpt>
      <trkpt lat="47.80533" lon="-3.52121">
        <ele>2.21</ele>
        <time>2020-07-10T13:14:00Z</time>
      </trkpt>
      <trkpt lat="47.80533" lon="-3.52121">
        <ele>2.21</ele>
        <time>2020-07-10T13:14:01Z</time>
      </trkpt>
      <trkpt lat="47.80533" lon="-3.52121">
        <ele>2.21</ele>
        <time>2020-07-10T13:14:02Z</time>
      </trkpt>
      <trkpt lat="47.80533" lon="-3.52121">
        <ele>2.21</ele>
        <time>2020-07-10T13:14:03Z</time>
      </trkpt>
      <trkpt lat="47.80533" lon="-3.52121">
        <ele>2.21</ele>
        <time>2020-07-10T13:14:04Z</time>
      </trkpt>
      <trkpt lat="47.80535" lon="-3.52119">
        <ele>2.32</ele>
        <time>2020-07-10T13:14:05Z</time>
      </trkpt>
      <trkpt lat="47.80536" lon="-3.52118">
        <ele>2.48</ele>
        <time>2020-07-10T13:14:06Z</time>
      </trkpt>
      <trkpt lat="47.80537" lon="-3.52117">
        <ele>2.67</ele>
        <time>2020-07-10T13:14:07Z</time>
      </trkpt>
      <trkpt lat="47.80539" lon="-3.52115">
        <ele>3.03</ele>
        <time>2020-07-10T13:14:08Z</time>
      </trkpt>
      <trkpt lat="47.8054" lon="-3.52114">
        <ele>3.32</ele>
        <time>2020-07-10T13:14:09Z</time>
      </trkpt>
      <trkpt lat="47.80542" lon="-3.52113">
        <ele>3.55</ele>
        <time>2020-07-10T13:14:10Z</time>
      </trkpt>
      <trkpt lat="47.80543" lon="-3.52111">
        <ele>3.78</ele>
        <time>2020-07-10T13:14:11Z</time>
      </trkpt>
      <trkpt lat="47.80544" lon="-3.52109">
        <ele>3.91</ele>
        <time>2020-07-10T13:14:12Z</time>
      </trkpt>
      <trkpt lat="47.80546" lon="-3.52108">
        <ele>4.19</ele>
        <time>2020-07-10T13:14:13Z</time>
      </trkpt>
      <trkpt lat="47.80547" lon="-3.52107">
        <ele>4.38</ele>
        <time>2020-07-10T13:14:14Z</time>
      </trkpt>
      <trkpt lat="47.80548" lon="-3.52105">
        <ele>4.52</ele>
        <time>2020-07-10T13:14:15Z</time>
      </trkpt>
      <trkpt lat="47.8055" lon="-3.52104">
        <ele>4.86</ele>
        <time>2020-07-10T13:14:16Z</time>
      </trkpt>
      <trkpt lat="47.80551" lon="-3.52101">
        <ele>4.85</ele>
        <time>2020-07-10T13:14:17Z</time>
      </trkpt>
      <trkpt lat="47.80551" lon="-3.52099">
        <ele>4.73</ele>
        <time>2020-07-10T13:14:18Z</time>
      </trkpt>
      <trkpt lat="47.80552" lon="-3.52096">
        <ele>4.58</ele>
        <time>2020-07-10T13:14:19Z</time>
      </trkpt>
      <trkpt lat="47.80552" lon="-3.52094">
        <ele>4.48</ele>
        <time>2020-07-10T13:14:20Z</time>
      </trkpt>
      <trkpt lat="47.80553" lon="-3.52089">
        <ele>4.25</ele>
        <time>2020-07-10T13:14:21Z</time>
      </trkpt>
      <trkpt lat="47.80553" lon="-3.52086">
        <ele>4.03</ele>
        <time>2020-07-10T13:14:22Z</time>
      </trkpt>
      <trkpt lat="47.80555" lon="-3.52082">
        <ele>3.94</ele>
        <time>2020-07-10T13:14:23Z</time>
      </trkpt>
      <trkpt lat="47.80557" lon="-3.52079">
        <ele>4.28</ele>
        <time>2020-07-10T13:14:24Z</time>
      </trkpt>
      <trkpt lat="47.80559" lon="-3.52076">
        <ele>4.86</ele>
        <time>2020-07-10T13:14:25Z</time>
      </trkpt>
      <trkpt lat="47.8056" lon="-3.52073">
        <ele>5.4</ele>
        <time>2020-07-10T13:14:26Z</time>
      </trkpt>
      <trkpt lat="47.80561" lon="-3.52069">
        <ele>5.71</ele>
        <time>2020-07-10T13:14:27Z</time>
      </trkpt>
      <trkpt lat="47.80561" lon="-3.52066">
        <ele>5.81</ele>
        <time>2020-07-10T13:14:28Z</time>
      </trkpt>
      <trkpt lat="47.8056" lon="-3.52062">
        <ele>5.72</ele>
        <time>2020-07-10T13:14:29Z</time>
      </trkpt>
      <trkpt lat="47.80561" lon="-3.52058">
        <ele>5.77</ele>
        <time>2020-07-10T13:14:30Z</time>
      </trkpt>
      <trkpt lat="47.80562" lon="-3.52053">
        <ele>5.87</ele>
        <time>2020-07-10T13:14:31Z</time>
      </trkpt>
      <trkpt lat="47.80562" lon="-3.52049">
        <ele>5.87</ele>
        <time>2020-07-10T13:14:32Z</time>
      </trkpt>
      <trkpt lat="47.80562" lon="-3.52047">
        <ele>5.97</ele>
        <time>2020-07-10T13:14:33Z</time>
      </trkpt>
      <trkpt lat="47.80563" lon="-3.52044">
        <ele>6.17</ele>
        <time>2020-07-10T13:14:34Z</time>
      </trkpt>
      <trkpt lat="47.80564" lon="-3.5204">
        <ele>6.45</ele>
        <time>2020-07-10T13:14:35Z</time>
      </trkpt>
      <trkpt lat="47.80565" lon="-3.52036">
        <ele>6.75</ele>
        <time>2020-07-10T13:14:36Z</time>
      </trkpt>
      <trkpt lat="47.80566" lon="-3.52033">
        <ele>7.05</ele>
        <time>2020-07-10T13:14:37Z</time>
      </trkpt>
      <trkpt lat="47.80567" lon="-3.52029">
        <ele>7.2</ele>
        <time>2020-07-10T13:14:38Z</time>
      </trkpt>
      <trkpt lat="47.80566" lon="-3.52025">
        <ele>7.08</ele>
        <time>2020-07-10T13:14:39Z</time>
      </trkpt>
      <trkpt lat="47.80565" lon="-3.5202">
        <ele>6.91</ele>
        <time>2020-07-10T13:14:40Z</time>
      </trkpt>
      <trkpt lat="47.80564" lon="-3.52017">
        <ele>6.83</ele>
        <time>2020-07-10T13:14:41Z</time>
      </trkpt>
      <trkpt lat="47.80563" lon="-3.52012">
        <ele>6.67</ele>
        <time>2020-07-10T13:14:42Z</time>
      </trkpt>
      <trkpt lat="47.80562" lon="-3.52007">
        <ele>6.55</ele>
        <time>2020-07-10T13:14:43Z</time>
      </trkpt>
      <trkpt lat="47.80563" lon="-3.52002">
        <ele>6.7</ele>
        <time>2020-07-10T13:14:44Z</time>
      </trkpt>
      <trkpt lat="47.80564" lon="-3.51998">
        <ele>7.2</ele>
        <time>2020-07-10T13:14:45Z</time>
      </trkpt>
      <trkpt lat="47.80564" lon="-3.51992">
        <ele>7.48</ele>
        <time>2020-07-10T13:14:46Z</time>
      </trkpt>
      <trkpt lat="47.80563" lon="-3.51987">
        <ele>7.52</ele>
        <time>2020-07-10T13:14:47Z</time>
      </trkpt>
      <trkpt lat="47.80563" lon="-3.51983">
        <ele>7.4</ele>
        <time>2020-07-10T13:14:48Z</time>
      </trkpt>
      <trkpt lat="47.80563" lon="-3.51981">
        <ele>7.37</ele>
        <time>2020-07-10T13:14:49Z</time>
      </trkpt>
      <trkpt lat="47.80562" lon="-3.51977">
        <ele>7.26</ele>
        <time>2020-07-10T13:14:50Z</time>
      </trkpt>
      <trkpt lat="47.80563" lon="-3.51975">
        <ele>7.44</ele>
        <time>2020-07-10T13:14:51Z</time>
      </trkpt>
      <trkpt lat="47.80562" lon="-3.51973">
        <ele>7.46</ele>
        <time>2020-07-10T13:14:52Z</time>
      </trkpt>
      <trkpt lat="47.80562" lon="-3.51972">
        <ele>7.48</ele>
        <time>2020-07-10T13:14:53Z</time>
      </trkpt>
      <trkpt lat="47.80562" lon="-3.51972">
        <ele>7.49</ele>
        <time>2020-07-10T13:14:54Z</time>
      </trkpt>
      <trkpt lat="47.80562" lon="-3.51972">
        <ele>7.5</ele>
        <time>2020-07-10T13:14:55Z</time>
      </trkpt>
      <trkpt lat="47.80562" lon="-3.51972">
        <ele>7.5</ele>
        <time>2020-07-10T13:14:56Z</time>
      </trkpt>
      <trkpt lat="47.80562" lon="-3.51972">
        <ele>7.5</ele>
        <time>2020-07-10T13:14:57Z</time>
      </trkpt>
      <trkpt lat="47.80562" lon="-3.51972">
        <ele>7.5</ele>
        <time>2020-07-10T13:14:58Z</time>
      </trkpt>
      <trkpt lat="47.80562" lon="-3.51972">
        <ele>7.5</ele>
        <time>2020-07-10T13:14:59Z</time>
      </trkpt>
      <trkpt lat="47.80562" lon="-3.51972">
        <ele>7.5</ele>
        <time>2020-07-10T13:15:00Z</time>
      </trkpt>
      <trkpt lat="47.80562" lon="-3.51972">
        <ele>7.5</ele>
        <time>2020-07-10T13:15:01Z</time>
      </trkpt>
      <trkpt lat="47.80562" lon="-3.51972">
        <ele>7.5</ele>
        <time>2020-07-10T13:15:02Z</time>
      </trkpt>
      <trkpt lat="47.80562" lon="-3.51972">
        <ele>7.5</ele>
        <time>2020-07-10T13:15:03Z</time>
      </trkpt>
      <trkpt lat="47.80562" lon="-3.51972">
        <ele>7.5</ele>
        <time>2020-07-10T13:15:04Z</time>
      </trkpt>
      <trkpt lat="47.80562" lon="-3.51972">
        <ele>7.5</ele>
        <time>2020-07-10T13:15:05Z</time>
      </trkpt>
      <trkpt lat="47.80562" lon="-3.51957">
        <ele>8.07</ele>
        <time>2020-07-10T13:15:06Z</time>
      </trkpt>
      <trkpt lat="47.80561" lon="-3.51954">
        <ele>8.04</ele>
        <time>2020-07-10T13:15:07Z</time>
      </trkpt>
      <trkpt lat="47.8056" lon="-3.51952">
        <ele>7.97</ele>
        <time>2020-07-10T13:15:08Z</time>
      </trkpt>
      <trkpt lat="47.80559" lon="-3.51948">
        <ele>7.88</ele>
        <time>2020-07-10T13:15:09Z</time>
      </trkpt>
      <trkpt lat="47.80558" lon="-3.51945">
        <ele>7.48</ele>
        <time>2020-07-10T13:15:10Z</time>
      </trkpt>
      <trkpt lat="47.80558" lon="-3.51942">
        <ele>7.6</ele>
        <time>2020-07-10T13:15:11Z</time>
      </trkpt>
      <trkpt lat="47.80559" lon="-3.5194">
        <ele>7.83</ele>
        <time>2020-07-10T13:15:12Z</time>
      </trkpt>
      <trkpt lat="47.80558" lon="-3.51937">
        <ele>7.91</ele>
        <time>2020-07-10T13:15:13Z</time>
      </trkpt>
      <trkpt lat="47.80558" lon="-3.51935">
        <ele>8.08</ele>
        <time>2020-07-10T13:15:14Z</time>
      </trkpt>
      <trkpt lat="47.80558" lon="-3.51931">
        <ele>8.29</ele>
        <time>2020-07-10T13:15:15Z</time>
      </trkpt>
      <trkpt lat="47.80558" lon="-3.5193">
        <ele>8.46</ele>
        <time>2020-07-10T13:15:16Z</time>
      </trkpt>
      <trkpt lat="47.80558" lon="-3.51929">
        <ele>8.57</ele>
        <time>2020-07-10T13:15:17Z</time>
      </trkpt>
      <trkpt lat="47.80558" lon="-3.51927">
        <ele>8.65</ele>
        <time>2020-07-10T13:15:18Z</time>
      </trkpt>
      <trkpt lat="47.80558" lon="-3.51927">
        <ele>8.68</ele>
        <time>2020-07-10T13:15:19Z</time>
      </trkpt>
      <trkpt lat="47.80558" lon="-3.51927">
        <ele>8.68</ele>
        <time>2020-07-10T13:15:20Z</time>
      </trkpt>
      <trkpt lat="47.80558" lon="-3.51927">
        <ele>8.69</ele>
        <time>2020-07-10T13:15:21Z</time>
      </trkpt>
      <trkpt lat="47.80558" lon="-3.51927">
        <ele>8.69</ele>
        <time>2020-07-10T13:15:22Z</time>
      </trkpt>
      <trkpt lat="47.80558" lon="-3.51927">
        <ele>8.69</ele>
        <time>2020-07-10T13:15:23Z</time>
      </trkpt>
      <trkpt lat="47.80558" lon="-3.51927">
        <ele>8.69</ele>
        <time>2020-07-10T13:15:24Z</time>
      </trkpt>
      <trkpt lat="47.80558" lon="-3.51927">
        <ele>8.69</ele>
        <time>2020-07-10T13:15:25Z</time>
      </trkpt>
      <trkpt lat="47.80558" lon="-3.51927">
        <ele>8.69</ele>
        <time>2020-07-10T13:15:26Z</time>
      </trkpt>
      <trkpt lat="47.80558" lon="-3.51927">
        <ele>8.69</ele>
        <time>2020-07-10T13:15:27Z</time>
      </trkpt>
      <trkpt lat="47.80558" lon="-3.51927">
        <ele>8.69</ele>
        <time>2020-07-10T13:15:28Z</time>
      </trkpt>
      <trkpt lat="47.80558" lon="-3.51927">
        <ele>8.69</ele>
        <time>2020-07-10T13:15:29Z</time>
      </trkpt>
      <trkpt lat="47.80558" lon="-3.51927">
        <ele>8.69</ele>
        <time>2020-07-10T13:15:30Z</time>
      </trkpt>
      <trkpt lat="47.80558" lon="-3.51927">
        <ele>8.69</ele>
        <time>2020-07-10T13:15:31Z</time>
      </trkpt>
      <trkpt lat="47.80558" lon="-3.51927">
        <ele>8.69</ele>
        <time>2020-07-10T13:15:32Z</time>
      </trkpt>
      <trkpt lat="47.80558" lon="-3.51927">
        <ele>8.69</ele>
        <time>2020-07-10T13:15:33Z</time>
      </trkpt>
      <trkpt lat="47.80558" lon="-3.51927">
        <ele>8.69</ele>
        <time>2020-07-10T13:15:34Z</time>
      </trkpt>
      <trkpt lat="47.80558" lon="-3.51927">
        <ele>8.69</ele>
        <time>2020-07-10T13:15:35Z</time>
      </trkpt>
      <trkpt lat="47.80558" lon="-3.51927">
        <ele>8.69</ele>
        <time>2020-07-10T13:15:36Z</time>
      </trkpt>
      <trkpt lat="47.80558" lon="-3.51927">
        <ele>8.69</ele>
        <time>2020-07-10T13:15:37Z</time>
      </trkpt>
      <trkpt lat="47.80558" lon="-3.51927">
        <ele>8.69</ele>
        <time>2020-07-10T13:15:38Z</time>
      </trkpt>
      <trkpt lat="47.80558" lon="-3.51927">
        <ele>8.69</ele>
        <time>2020-07-10T13:15:39Z</time>
      </trkpt>
      <trkpt lat="47.80558" lon="-3.51927">
        <ele>8.69</ele>
        <time>2020-07-10T13:15:40Z</time>
      </trkpt>
      <trkpt lat="47.80558" lon="-3.51927">
        <ele>8.69</ele>
        <time>2020-07-10T13:15:41Z</time>
      </trkpt>
      <trkpt lat="47.80558" lon="-3.51927">
        <ele>8.69</ele>
        <time>2020-07-10T13:15:42Z</time>
      </trkpt>
      <trkpt lat="47.80558" lon="-3.51927">
        <ele>8.69</ele>
        <time>2020-07-10T13:15:43Z</time>
      </trkpt>
      <trkpt lat="47.80558" lon="-3.51927">
        <ele>8.69</ele>
        <time>2020-07-10T13:15:44Z</time>
      </trkpt>
      <trkpt lat="47.80558" lon="-3.51927">
        <ele>8.69</ele>
        <time>2020-07-10T13:15:45Z</time>
      </trkpt>
      <trkpt lat="47.80558" lon="-3.51927">
        <ele>8.69</ele>
        <time>2020-07-10T13:15:46Z</time>
      </trkpt>
      <trkpt lat="47.80558" lon="-3.51914">
        <ele>9.12</ele>
        <time>2020-07-10T13:15:47Z</time>
      </trkpt>
      <trkpt lat="47.80558" lon="-3.51913">
        <ele>9.12</ele>
        <time>2020-07-10T13:15:48Z</time>
      </trkpt>
      <trkpt lat="47.80557" lon="-3.51912">
        <ele>8.92</ele>
        <time>2020-07-10T13:15:49Z</time>
      </trkpt>
      <trkpt lat="47.80556" lon="-3.51911">
        <ele>8.66</ele>
        <time>2020-07-10T13:15:50Z</time>
      </trkpt>
      <trkpt lat="47.80556" lon="-3.51911">
        <ele>8.58</ele>
        <time>2020-07-10T13:15:51Z</time>
      </trkpt>
      <trkpt lat="47.80556" lon="-3.51911">
        <ele>8.55</ele>
        <time>2020-07-10T13:15:52Z</time>
      </trkpt>
      <trkpt lat="47.80556" lon="-3.51911">
        <ele>8.55</ele>
        <time>2020-07-10T13:15:53Z</time>
      </trkpt>
      <trkpt lat="47.80556" lon="-3.51911">
        <ele>8.54</ele>
        <time>2020-07-10T13:15:54Z</time>
      </trkpt>
      <trkpt lat="47.80556" lon="-3.51911">
        <ele>8.54</ele>
        <time>2020-07-10T13:15:55Z</time>
      </trkpt>
      <trkpt lat="47.80553" lon="-3.51899">
        <ele>7.74</ele>
        <time>2020-07-10T13:15:56Z</time>
      </trkpt>
      <trkpt lat="47.80552" lon="-3.51897">
        <ele>7.35</ele>
        <time>2020-07-10T13:15:57Z</time>
      </trkpt>
      <trkpt lat="47.80552" lon="-3.51897">
        <ele>7.21</ele>
        <time>2020-07-10T13:15:58Z</time>
      </trkpt>
      <trkpt lat="47.80552" lon="-3.51895">
        <ele>7.08</ele>
        <time>2020-07-10T13:15:59Z</time>
      </trkpt>
      <trkpt lat="47.80552" lon="-3.51895">
        <ele>7.04</ele>
        <time>2020-07-10T13:16:00Z</time>
      </trkpt>
      <trkpt lat="47.80552" lon="-3.51895">
        <ele>7.03</ele>
        <time>2020-07-10T13:16:01Z</time>
      </trkpt>
      <trkpt lat="47.80552" lon="-3.51895">
        <ele>7.02</ele>
        <time>2020-07-10T13:16:02Z</time>
      </trkpt>
      <trkpt lat="47.80552" lon="-3.51895">
        <ele>7.02</ele>
        <time>2020-07-10T13:16:03Z</time>
      </trkpt>
      <trkpt lat="47.80552" lon="-3.51895">
        <ele>7.02</ele>
        <time>2020-07-10T13:16:04Z</time>
      </trkpt>
      <trkpt lat="47.80552" lon="-3.51895">
        <ele>7.02</ele>
        <time>2020-07-10T13:16:05Z</time>
      </trkpt>
      <trkpt lat="47.80552" lon="-3.51895">
        <ele>7.02</ele>
        <time>2020-07-10T13:16:06Z</time>
      </trkpt>
      <trkpt lat="47.80552" lon="-3.51895">
        <ele>7.02</ele>
        <time>2020-07-10T13:16:07Z</time>
      </trkpt>
      <trkpt lat="47.80552" lon="-3.51895">
        <ele>7.02</ele>
        <time>2020-07-10T13:16:08Z</time>
      </trkpt>
      <trkpt lat="47.80552" lon="-3.51895">
        <ele>7.02</ele>
        <time>2020-07-10T13:16:09Z</time>
      </trkpt>
      <trkpt lat="47.80552" lon="-3.51895">
        <ele>7.02</ele>
        <time>2020-07-10T13:16:10Z</time>
      </trkpt>
      <trkpt lat="47.80552" lon="-3.51895">
        <ele>7.02</ele>
        <time>2020-07-10T13:16:11Z</time>
      </trkpt>
      <trkpt lat="47.80545" lon="-3.51886">
        <ele>5.77</ele>
        <time>2020-07-10T13:16:12Z</time>
      </trkpt>
      <trkpt lat="47.80544" lon="-3.51885">
        <ele>5.26</ele>
        <time>2020-07-10T13:16:13Z</time>
      </trkpt>
      <trkpt lat="47.80543" lon="-3.51883">
        <ele>4.96</ele>
        <time>2020-07-10T13:16:14Z</time>
      </trkpt>
      <trkpt lat="47.80543" lon="-3.51882">
        <ele>4.83</ele>
        <time>2020-07-10T13:16:15Z</time>
      </trkpt>
      <trkpt lat="47.80543" lon="-3.51882">
        <ele>4.79</ele>
        <time>2020-07-10T13:16:16Z</time>
      </trkpt>
      <trkpt lat="47.80543" lon="-3.51882">
        <ele>4.78</ele>
        <time>2020-07-10T13:16:17Z</time>
      </trkpt>
      <trkpt lat="47.80543" lon="-3.51882">
        <ele>4.78</ele>
        <time>2020-07-10T13:16:18Z</time>
      </trkpt>
      <trkpt lat="47.80543" lon="-3.51882">
        <ele>4.78</ele>
        <time>2020-07-10T13:16:19Z</time>
      </trkpt>
      <trkpt lat="47.80543" lon="-3.51882">
        <ele>4.78</ele>
        <time>2020-07-10T13:16:20Z</time>
      </trkpt>
      <trkpt lat="47.80543" lon="-3.51882">
        <ele>4.78</ele>
        <time>2020-07-10T13:16:21Z</time>
      </trkpt>
      <trkpt lat="47.80543" lon="-3.51882">
        <ele>4.78</ele>
        <time>2020-07-10T13:16:22Z</time>
      </trkpt>
      <trkpt lat="47.80543" lon="-3.51882">
        <ele>4.78</ele>
        <time>2020-07-10T13:16:23Z</time>
      </trkpt>
      <trkpt lat="47.80543" lon="-3.51882">
        <ele>4.78</ele>
        <time>2020-07-10T13:16:24Z</time>
      </trkpt>
      <trkpt lat="47.80543" lon="-3.51882">
        <ele>4.78</ele>
        <time>2020-07-10T13:16:25Z</time>
      </trkpt>
      <trkpt lat="47.80543" lon="-3.51882">
        <ele>4.78</ele>
        <time>2020-07-10T13:16:26Z</time>
      </trkpt>
      <trkpt lat="47.80543" lon="-3.51882">
        <ele>4.78</ele>
        <time>2020-07-10T13:16:27Z</time>
      </trkpt>
      <trkpt lat="47.80548" lon="-3.5187">
        <ele>5.29</ele>
        <time>2020-07-10T13:16:28Z</time>
      </trkpt>
      <trkpt lat="47.80547" lon="-3.51865">
        <ele>5.27</ele>
        <time>2020-07-10T13:16:29Z</time>
      </trkpt>
      <trkpt lat="47.80547" lon="-3.51861">
        <ele>5.14</ele>
        <time>2020-07-10T13:16:30Z</time>
      </trkpt>
      <trkpt lat="47.80547" lon="-3.51857">
        <ele>5.15</ele>
        <time>2020-07-10T13:16:31Z</time>
      </trkpt>
      <trkpt lat="47.80547" lon="-3.51853">
        <ele>5.18</ele>
        <time>2020-07-10T13:16:32Z</time>
      </trkpt>
      <trkpt lat="47.80548" lon="-3.51851">
        <ele>5.29</ele>
        <time>2020-07-10T13:16:33Z</time>
      </trkpt>
      <trkpt lat="47.80548" lon="-3.51848">
        <ele>5.34</ele>
        <time>2020-07-10T13:16:34Z</time>
      </trkpt>
      <trkpt lat="47.80548" lon="-3.51846">
        <ele>5.41</ele>
        <time>2020-07-10T13:16:35Z</time>
      </trkpt>
      <trkpt lat="47.80549" lon="-3.51844">
        <ele>5.46</ele>
        <time>2020-07-10T13:16:36Z</time>
      </trkpt>
      <trkpt lat="47.80549" lon="-3.51841">
        <ele>5.55</ele>
        <time>2020-07-10T13:16:37Z</time>
      </trkpt>
      <trkpt lat="47.8055" lon="-3.5184">
        <ele>5.67</ele>
        <time>2020-07-10T13:16:38Z</time>
      </trkpt>
      <trkpt lat="47.8055" lon="-3.51838">
        <ele>5.79</ele>
        <time>2020-07-10T13:16:39Z</time>
      </trkpt>
      <trkpt lat="47.80551" lon="-3.51836">
        <ele>5.95</ele>
        <time>2020-07-10T13:16:40Z</time>
      </trkpt>
      <trkpt lat="47.80551" lon="-3.51834">
        <ele>5.97</ele>
        <time>2020-07-10T13:16:41Z</time>
      </trkpt>
      <trkpt lat="47.8055" lon="-3.51831">
        <ele>5.94</ele>
        <time>2020-07-10T13:16:42Z</time>
      </trkpt>
      <trkpt lat="47.8055" lon="-3.51829">
        <ele>6.03</ele>
        <time>2020-07-10T13:16:43Z</time>
      </trkpt>
      <trkpt lat="47.8055" lon="-3.51826">
        <ele>6.19</ele>
        <time>2020-07-10T13:16:44Z</time>
      </trkpt>
      <trkpt lat="47.80551" lon="-3.51825">
        <ele>6.46</ele>
        <time>2020-07-10T13:16:45Z</time>
      </trkpt>
      <trkpt lat="47.80552" lon="-3.51824">
        <ele>6.68</ele>
        <time>2020-07-10T13:16:46Z</time>
      </trkpt>
      <trkpt lat="47.80552" lon="-3.51821">
        <ele>6.93</ele>
        <time>2020-07-10T13:16:47Z</time>
      </trkpt>
      <trkpt lat="47.80552" lon="-3.51818">
        <ele>7.22</ele>
        <time>2020-07-10T13:16:48Z</time>
      </trkpt>
      <trkpt lat="47.80552" lon="-3.51814">
        <ele>7.52</ele>
        <time>2020-07-10T13:16:49Z</time>
      </trkpt>
      <trkpt lat="47.80553" lon="-3.5181">
        <ele>7.85</ele>
        <time>2020-07-10T13:16:50Z</time>
      </trkpt>
      <trkpt lat="47.80552" lon="-3.51807">
        <ele>8.05</ele>
        <time>2020-07-10T13:16:51Z</time>
      </trkpt>
      <trkpt lat="47.80552" lon="-3.51803">
        <ele>8.22</ele>
        <time>2020-07-10T13:16:52Z</time>
      </trkpt>
      <trkpt lat="47.80551" lon="-3.518">
        <ele>8.32</ele>
        <time>2020-07-10T13:16:53Z</time>
      </trkpt>
      <trkpt lat="47.8055" lon="-3.51797">
        <ele>8.36</ele>
        <time>2020-07-10T13:16:54Z</time>
      </trkpt>
      <trkpt lat="47.80549" lon="-3.51793">
        <ele>8.38</ele>
        <time>2020-07-10T13:16:55Z</time>
      </trkpt>
      <trkpt lat="47.80548" lon="-3.5179">
        <ele>8.41</ele>
        <time>2020-07-10T13:16:56Z</time>
      </trkpt>
      <trkpt lat="47.80547" lon="-3.51786">
        <ele>8.49</ele>
        <time>2020-07-10T13:16:57Z</time>
      </trkpt>
      <trkpt lat="47.80546" lon="-3.51782">
        <ele>8.45</ele>
        <time>2020-07-10T13:16:58Z</time>
      </trkpt>
      <trkpt lat="47.80544" lon="-3.51778">
        <ele>8.34</ele>
        <time>2020-07-10T13:16:59Z</time>
      </trkpt>
      <trkpt lat="47.80542" lon="-3.51774">
        <ele>8.12</ele>
        <time>2020-07-10T13:17:00Z</time>
      </trkpt>
      <trkpt lat="47.80541" lon="-3.51771">
        <ele>8.03</ele>
        <time>2020-07-10T13:17:01Z</time>
      </trkpt>
      <trkpt lat="47.8054" lon="-3.51765">
        <ele>8.03</ele>
        <time>2020-07-10T13:17:02Z</time>
      </trkpt>
      <trkpt lat="47.80539" lon="-3.51761">
        <ele>7.97</ele>
        <time>2020-07-10T13:17:03Z</time>
      </trkpt>
      <trkpt lat="47.80536" lon="-3.51756">
        <ele>7.72</ele>
        <time>2020-07-10T13:17:04Z</time>
      </trkpt>
      <trkpt lat="47.80535" lon="-3.51751">
        <ele>7.48</ele>
        <time>2020-07-10T13:17:05Z</time>
      </trkpt>
      <trkpt lat="47.80533" lon="-3.51746">
        <ele>7.31</ele>
        <time>2020-07-10T13:17:06Z</time>
      </trkpt>
      <trkpt lat="47.80532" lon="-3.51742">
        <ele>7.35</ele>
        <time>2020-07-10T13:17:07Z</time>
      </trkpt>
      <trkpt lat="47.80531" lon="-3.51737">
        <ele>7.42</ele>
        <time>2020-07-10T13:17:08Z</time>
      </trkpt>
      <trkpt lat="47.8053" lon="-3.51734">
        <ele>7.6</ele>
        <time>2020-07-10T13:17:09Z</time>
      </trkpt>
      <trkpt lat="47.80529" lon="-3.51729">
        <ele>7.58</ele>
        <time>2020-07-10T13:17:10Z</time>
      </trkpt>
      <trkpt lat="47.80529" lon="-3.51726">
        <ele>7.77</ele>
        <time>2020-07-10T13:17:11Z</time>
      </trkpt>
      <trkpt lat="47.80529" lon="-3.51723">
        <ele>8.26</ele>
        <time>2020-07-10T13:17:12Z</time>
      </trkpt>
      <trkpt lat="47.8053" lon="-3.5172">
        <ele>8.87</ele>
        <time>2020-07-10T13:17:13Z</time>
      </trkpt>
      <trkpt lat="47.80531" lon="-3.51717">
        <ele>9.47</ele>
        <time>2020-07-10T13:17:14Z</time>
      </trkpt>
      <trkpt lat="47.8053" lon="-3.51714">
        <ele>9.85</ele>
        <time>2020-07-10T13:17:15Z</time>
      </trkpt>
      <trkpt lat="47.8053" lon="-3.5171">
        <ele>10.26</ele>
        <time>2020-07-10T13:17:16Z</time>
      </trkpt>
      <trkpt lat="47.8053" lon="-3.51707">
        <ele>10.47</ele>
        <time>2020-07-10T13:17:17Z</time>
      </trkpt>
      <trkpt lat="47.8053" lon="-3.51704">
        <ele>10.96</ele>
        <time>2020-07-10T13:17:18Z</time>
      </trkpt>
      <trkpt lat="47.8053" lon="-3.51701">
        <ele>11.15</ele>
        <time>2020-07-10T13:17:19Z</time>
      </trkpt>
      <trkpt lat="47.8053" lon="-3.51699">
        <ele>11.48</ele>
        <time>2020-07-10T13:17:20Z</time>
      </trkpt>
      <trkpt lat="47.8053" lon="-3.51696">
        <ele>11.68</ele>
        <time>2020-07-10T13:17:21Z</time>
      </trkpt>
      <trkpt lat="47.80529" lon="-3.51693">
        <ele>11.59</ele>
        <time>2020-07-10T13:17:22Z</time>
      </trkpt>
      <trkpt lat="47.80529" lon="-3.5169">
        <ele>11.86</ele>
        <time>2020-07-10T13:17:23Z</time>
      </trkpt>
      <trkpt lat="47.80527" lon="-3.51687">
        <ele>11.89</ele>
        <time>2020-07-10T13:17:24Z</time>
      </trkpt>
      <trkpt lat="47.80527" lon="-3.51684">
        <ele>12.13</ele>
        <time>2020-07-10T13:17:25Z</time>
      </trkpt>
      <trkpt lat="47.80526" lon="-3.51681">
        <ele>12.37</ele>
        <time>2020-07-10T13:17:26Z</time>
      </trkpt>
      <trkpt lat="47.80525" lon="-3.51679">
        <ele>12.35</ele>
        <time>2020-07-10T13:17:27Z</time>
      </trkpt>
      <trkpt lat="47.80524" lon="-3.51677">
        <ele>12.31</ele>
        <time>2020-07-10T13:17:28Z</time>
      </trkpt>
      <trkpt lat="47.80524" lon="-3.51673">
        <ele>12.72</ele>
        <time>2020-07-10T13:17:29Z</time>
      </trkpt>
      <trkpt lat="47.80523" lon="-3.51669">
        <ele>12.88</ele>
        <time>2020-07-10T13:17:30Z</time>
      </trkpt>
      <trkpt lat="47.80522" lon="-3.51666">
        <ele>13.01</ele>
        <time>2020-07-10T13:17:31Z</time>
      </trkpt>
      <trkpt lat="47.8052" lon="-3.51662">
        <ele>12.86</ele>
        <time>2020-07-10T13:17:32Z</time>
      </trkpt>
      <trkpt lat="47.80519" lon="-3.5166">
        <ele>12.75</ele>
        <time>2020-07-10T13:17:33Z</time>
      </trkpt>
      <trkpt lat="47.80518" lon="-3.51657">
        <ele>12.67</ele>
        <time>2020-07-10T13:17:34Z</time>
      </trkpt>
      <trkpt lat="47.8052" lon="-3.51657">
        <ele>13.31</ele>
        <time>2020-07-10T13:17:35Z</time>
      </trkpt>
      <trkpt lat="47.80519" lon="-3.51654">
        <ele>13.2</ele>
        <time>2020-07-10T13:17:36Z</time>
      </trkpt>
      <trkpt lat="47.80518" lon="-3.51651">
        <ele>13.19</ele>
        <time>2020-07-10T13:17:37Z</time>
      </trkpt>
      <trkpt lat="47.80516" lon="-3.51646">
        <ele>13.25</ele>
        <time>2020-07-10T13:17:38Z</time>
      </trkpt>
      <trkpt lat="47.8052" lon="-3.51639">
        <ele>14.79</ele>
        <time>2020-07-10T13:17:39Z</time>
      </trkpt>
      <trkpt lat="47.80519" lon="-3.51637">
        <ele>15.17</ele>
        <time>2020-07-10T13:17:40Z</time>
      </trkpt>
      <trkpt lat="47.80518" lon="-3.51633">
        <ele>15.42</ele>
        <time>2020-07-10T13:17:41Z</time>
      </trkpt>
      <trkpt lat="47.80518" lon="-3.51633">
        <ele>15.43</ele>
        <time>2020-07-10T13:17:42Z</time>
      </trkpt>
      <trkpt lat="47.80518" lon="-3.51632">
        <ele>15.6</ele>
        <time>2020-07-10T13:17:43Z</time>
      </trkpt>
      <trkpt lat="47.80518" lon="-3.51632">
        <ele>15.65</ele>
        <time>2020-07-10T13:17:44Z</time>
      </trkpt>
      <trkpt lat="47.80518" lon="-3.51632">
        <ele>15.66</ele>
        <time>2020-07-10T13:17:45Z</time>
      </trkpt>
      <trkpt lat="47.80518" lon="-3.51632">
        <ele>15.67</ele>
        <time>2020-07-10T13:17:46Z</time>
      </trkpt>
      <trkpt lat="47.80518" lon="-3.51632">
        <ele>15.67</ele>
        <time>2020-07-10T13:17:47Z</time>
      </trkpt>
      <trkpt lat="47.80512" lon="-3.51628">
        <ele>14.1</ele>
        <time>2020-07-10T13:17:48Z</time>
      </trkpt>
      <trkpt lat="47.80509" lon="-3.51627">
        <ele>12.53</ele>
        <time>2020-07-10T13:17:49Z</time>
      </trkpt>
      <trkpt lat="47.80507" lon="-3.51628">
        <ele>11.42</ele>
        <time>2020-07-10T13:17:50Z</time>
      </trkpt>
      <trkpt lat="47.80506" lon="-3.51628">
        <ele>10.63</ele>
        <time>2020-07-10T13:17:51Z</time>
      </trkpt>
      <trkpt lat="47.80504" lon="-3.51628">
        <ele>10</ele>
        <time>2020-07-10T13:17:52Z</time>
      </trkpt>
      <trkpt lat="47.80503" lon="-3.51628">
        <ele>9.3</ele>
        <time>2020-07-10T13:17:53Z</time>
      </trkpt>
      <trkpt lat="47.80502" lon="-3.51628">
        <ele>8.92</ele>
        <time>2020-07-10T13:17:54Z</time>
      </trkpt>
      <trkpt lat="47.80502" lon="-3.51628">
        <ele>8.74</ele>
        <time>2020-07-10T13:17:55Z</time>
      </trkpt>
      <trkpt lat="47.80502" lon="-3.51628">
        <ele>8.69</ele>
        <time>2020-07-10T13:17:56Z</time>
      </trkpt>
      <trkpt lat="47.80502" lon="-3.51628">
        <ele>8.67</ele>
        <time>2020-07-10T13:17:57Z</time>
      </trkpt>
      <trkpt lat="47.80502" lon="-3.51628">
        <ele>8.67</ele>
        <time>2020-07-10T13:17:58Z</time>
      </trkpt>
      <trkpt lat="47.80502" lon="-3.51628">
        <ele>8.67</ele>
        <time>2020-07-10T13:17:59Z</time>
      </trkpt>
      <trkpt lat="47.80502" lon="-3.51628">
        <ele>8.67</ele>
        <time>2020-07-10T13:18:00Z</time>
      </trkpt>
      <trkpt lat="47.80502" lon="-3.51628">
        <ele>8.67</ele>
        <time>2020-07-10T13:18:01Z</time>
      </trkpt>
      <trkpt lat="47.80495" lon="-3.51631">
        <ele>7.78</ele>
        <time>2020-07-10T13:18:02Z</time>
      </trkpt>
      <trkpt lat="47.80493" lon="-3.51631">
        <ele>7.45</ele>
        <time>2020-07-10T13:18:03Z</time>
      </trkpt>
      <trkpt lat="47.80489" lon="-3.51631">
        <ele>7.24</ele>
        <time>2020-07-10T13:18:04Z</time>
      </trkpt>
      <trkpt lat="47.80487" lon="-3.51633">
        <ele>7.04</ele>
        <time>2020-07-10T13:18:05Z</time>
      </trkpt>
      <trkpt lat="47.80485" lon="-3.51636">
        <ele>6.79</ele>
        <time>2020-07-10T13:18:06Z</time>
      </trkpt>
      <trkpt lat="47.80483" lon="-3.51638">
        <ele>6.54</ele>
        <time>2020-07-10T13:18:07Z</time>
      </trkpt>
      <trkpt lat="47.80481" lon="-3.5164">
        <ele>6.37</ele>
        <time>2020-07-10T13:18:08Z</time>
      </trkpt>
      <trkpt lat="47.8048" lon="-3.51642">
        <ele>6.25</ele>
        <time>2020-07-10T13:18:09Z</time>
      </trkpt>
      <trkpt lat="47.80478" lon="-3.51645">
        <ele>6.15</ele>
        <time>2020-07-10T13:18:10Z</time>
      </trkpt>
      <trkpt lat="47.80476" lon="-3.51647">
        <ele>6.08</ele>
        <time>2020-07-10T13:18:11Z</time>
      </trkpt>
      <trkpt lat="47.80474" lon="-3.51648">
        <ele>6.04</ele>
        <time>2020-07-10T13:18:12Z</time>
      </trkpt>
      <trkpt lat="47.80473" lon="-3.51649">
        <ele>6.02</ele>
        <time>2020-07-10T13:18:13Z</time>
      </trkpt>
      <trkpt lat="47.80473" lon="-3.5165">
        <ele>6.01</ele>
        <time>2020-07-10T13:18:14Z</time>
      </trkpt>
      <trkpt lat="47.80473" lon="-3.5165">
        <ele>6.01</ele>
        <time>2020-07-10T13:18:15Z</time>
      </trkpt>
      <trkpt lat="47.80473" lon="-3.5165">
        <ele>6</ele>
        <time>2020-07-10T13:18:16Z</time>
      </trkpt>
      <trkpt lat="47.80473" lon="-3.5165">
        <ele>6</ele>
        <time>2020-07-10T13:18:17Z</time>
      </trkpt>
      <trkpt lat="47.80473" lon="-3.5165">
        <ele>6</ele>
        <time>2020-07-10T13:18:18Z</time>
      </trkpt>
      <trkpt lat="47.80473" lon="-3.5165">
        <ele>6</ele>
        <time>2020-07-10T13:18:19Z</time>
      </trkpt>
      <trkpt lat="47.80473" lon="-3.5165">
        <ele>6</ele>
        <time>2020-07-10T13:18:20Z</time>
      </trkpt>
      <trkpt lat="47.80473" lon="-3.5165">
        <ele>6</ele>
        <time>2020-07-10T13:18:21Z</time>
      </trkpt>
      <trkpt lat="47.80473" lon="-3.5165">
        <ele>6</ele>
        <time>2020-07-10T13:18:22Z</time>
      </trkpt>
      <trkpt lat="47.80473" lon="-3.5165">
        <ele>6</ele>
        <time>2020-07-10T13:18:23Z</time>
      </trkpt>
      <trkpt lat="47.80473" lon="-3.5165">
        <ele>6</ele>
        <time>2020-07-10T13:18:24Z</time>
      </trkpt>
      <trkpt lat="47.80473" lon="-3.5165">
        <ele>6</ele>
        <time>2020-07-10T13:18:25Z</time>
      </trkpt>
      <trkpt lat="47.80473" lon="-3.5165">
        <ele>6</ele>
        <time>2020-07-10T13:18:26Z</time>
      </trkpt>
      <trkpt lat="47.80473" lon="-3.5165">
        <ele>6</ele>
        <time>2020-07-10T13:18:27Z</time>
      </trkpt>
      <trkpt lat="47.80473" lon="-3.5165">
        <ele>6</ele>
        <time>2020-07-10T13:18:28Z</time>
      </trkpt>
      <trkpt lat="47.80473" lon="-3.5165">
        <ele>6</ele>
        <time>2020-07-10T13:18:29Z</time>
      </trkpt>
      <trkpt lat="47.80473" lon="-3.5165">
        <ele>6</ele>
        <time>2020-07-10T13:18:30Z</time>
      </trkpt>
      <trkpt lat="47.80473" lon="-3.5165">
        <ele>6</ele>
        <time>2020-07-10T13:18:31Z</time>
      </trkpt>
      <trkpt lat="47.80473" lon="-3.5165">
        <ele>6</ele>
        <time>2020-07-10T13:18:32Z</time>
      </trkpt>
      <trkpt lat="47.80473" lon="-3.5165">
        <ele>6</ele>
        <time>2020-07-10T13:18:33Z</time>
      </trkpt>
      <trkpt lat="47.80473" lon="-3.5165">
        <ele>6</ele>
        <time>2020-07-10T13:18:34Z</time>
      </trkpt>
      <trkpt lat="47.80473" lon="-3.5165">
        <ele>6</ele>
        <time>2020-07-10T13:18:35Z</time>
      </trkpt>
      <trkpt lat="47.80473" lon="-3.5165">
        <ele>6</ele>
        <time>2020-07-10T13:18:36Z</time>
      </trkpt>
      <trkpt lat="47.80473" lon="-3.5165">
        <ele>6</ele>
        <time>2020-07-10T13:18:37Z</time>
      </trkpt>
      <trkpt lat="47.80473" lon="-3.5165">
        <ele>6</ele>
        <time>2020-07-10T13:18:38Z</time>
      </trkpt>
      <trkpt lat="47.80473" lon="-3.5165">
        <ele>6</ele>
        <time>2020-07-10T13:18:39Z</time>
      </trkpt>
      <trkpt lat="47.80473" lon="-3.5165">
        <ele>6</ele>
        <time>2020-07-10T13:18:40Z</time>
      </trkpt>
      <trkpt lat="47.80473" lon="-3.5165">
        <ele>6</ele>
        <time>2020-07-10T13:18:41Z</time>
      </trkpt>
      <trkpt lat="47.80473" lon="-3.5165">
        <ele>6</ele>
        <time>2020-07-10T13:18:42Z</time>
      </trkpt>
      <trkpt lat="47.80473" lon="-3.5165">
        <ele>6</ele>
        <time>2020-07-10T13:18:43Z</time>
      </trkpt>
      <trkpt lat="47.80473" lon="-3.5165">
        <ele>6</ele>
        <time>2020-07-10T13:18:44Z</time>
      </trkpt>
      <trkpt lat="47.80473" lon="-3.5165">
        <ele>6</ele>
        <time>2020-07-10T13:18:45Z</time>
      </trkpt>
      <trkpt lat="47.80473" lon="-3.5165">
        <ele>6</ele>
        <time>2020-07-10T13:18:46Z</time>
      </trkpt>
      <trkpt lat="47.80473" lon="-3.5165">
        <ele>6</ele>
        <time>2020-07-10T13:18:47Z</time>
      </trkpt>
      <trkpt lat="47.80473" lon="-3.5165">
        <ele>6</ele>
        <time>2020-07-10T13:18:48Z</time>
      </trkpt>
      <trkpt lat="47.80473" lon="-3.5165">
        <ele>6</ele>
        <time>2020-07-10T13:18:49Z</time>
      </trkpt>
      <trkpt lat="47.80473" lon="-3.5165">
        <ele>6</ele>
        <time>2020-07-10T13:18:50Z</time>
      </trkpt>
      <trkpt lat="47.80473" lon="-3.5165">
        <ele>6</ele>
        <time>2020-07-10T13:18:51Z</time>
      </trkpt>
      <trkpt lat="47.80473" lon="-3.5165">
        <ele>6</ele>
        <time>2020-07-10T13:18:52Z</time>
      </trkpt>
      <trkpt lat="47.80473" lon="-3.5165">
        <ele>6</ele>
        <time>2020-07-10T13:18:53Z</time>
      </trkpt>
      <trkpt lat="47.80473" lon="-3.5165">
        <ele>6</ele>
        <time>2020-07-10T13:18:54Z</time>
      </trkpt>
      <trkpt lat="47.80473" lon="-3.5165">
        <ele>6</ele>
        <time>2020-07-10T13:18:55Z</time>
      </trkpt>
      <trkpt lat="47.80473" lon="-3.5165">
        <ele>6</ele>
        <time>2020-07-10T13:18:56Z</time>
      </trkpt>
      <trkpt lat="47.80473" lon="-3.5165">
        <ele>6</ele>
        <time>2020-07-10T13:18:57Z</time>
      </trkpt>
      <trkpt lat="47.80473" lon="-3.5165">
        <ele>6</ele>
        <time>2020-07-10T13:18:58Z</time>
      </trkpt>
      <trkpt lat="47.80473" lon="-3.5165">
        <ele>6</ele>
        <time>2020-07-10T13:18:59Z</time>
      </trkpt>
      <trkpt lat="47.80473" lon="-3.5165">
        <ele>6</ele>
        <time>2020-07-10T13:19:00Z</time>
      </trkpt>
      <trkpt lat="47.80473" lon="-3.5165">
        <ele>6</ele>
        <time>2020-07-10T13:19:01Z</time>
      </trkpt>
      <trkpt lat="47.80473" lon="-3.5165">
        <ele>6</ele>
        <time>2020-07-10T13:19:02Z</time>
      </trkpt>
      <trkpt lat="47.80473" lon="-3.5165">
        <ele>6</ele>
        <time>2020-07-10T13:19:03Z</time>
      </trkpt>
      <trkpt lat="47.80473" lon="-3.5165">
        <ele>6</ele>
        <time>2020-07-10T13:19:04Z</time>
      </trkpt>
      <trkpt lat="47.80473" lon="-3.5165">
        <ele>6</ele>
        <time>2020-07-10T13:19:05Z</time>
      </trkpt>
      <trkpt lat="47.80473" lon="-3.5165">
        <ele>6</ele>
        <time>2020-07-10T13:19:06Z</time>
      </trkpt>
      <trkpt lat="47.80473" lon="-3.5165">
        <ele>6</ele>
        <time>2020-07-10T13:19:07Z</time>
      </trkpt>
      <trkpt lat="47.80473" lon="-3.5165">
        <ele>6</ele>
        <time>2020-07-10T13:19:08Z</time>
      </trkpt>
      <trkpt lat="47.80473" lon="-3.5165">
        <ele>6</ele>
        <time>2020-07-10T13:19:09Z</time>
      </trkpt>
      <trkpt lat="47.80473" lon="-3.5165">
        <ele>6</ele>
        <time>2020-07-10T13:19:10Z</time>
      </trkpt>
      <trkpt lat="47.80473" lon="-3.5165">
        <ele>6</ele>
        <time>2020-07-10T13:19:11Z</time>
      </trkpt>
      <trkpt lat="47.80473" lon="-3.5165">
        <ele>6</ele>
        <time>2020-07-10T13:19:12Z</time>
      </trkpt>
      <trkpt lat="47.80473" lon="-3.5165">
        <ele>6</ele>
        <time>2020-07-10T13:19:13Z</time>
      </trkpt>
      <trkpt lat="47.80473" lon="-3.5165">
        <ele>6</ele>
        <time>2020-07-10T13:19:14Z</time>
      </trkpt>
      <trkpt lat="47.80473" lon="-3.5165">
        <ele>6</ele>
        <time>2020-07-10T13:19:15Z</time>
      </trkpt>
      <trkpt lat="47.80465" lon="-3.51657">
        <ele>7.45</ele>
        <time>2020-07-10T13:19:16Z</time>
      </trkpt>
      <trkpt lat="47.80465" lon="-3.51656">
        <ele>7.89</ele>
        <time>2020-07-10T13:19:17Z</time>
      </trkpt>
      <trkpt lat="47.80465" lon="-3.51656">
        <ele>8.02</ele>
        <time>2020-07-10T13:19:18Z</time>
      </trkpt>
      <trkpt lat="47.80465" lon="-3.51656">
        <ele>7.96</ele>
        <time>2020-07-10T13:19:19Z</time>
      </trkpt>
      <trkpt lat="47.80465" lon="-3.51656">
        <ele>7.94</ele>
        <time>2020-07-10T13:19:20Z</time>
      </trkpt>
      <trkpt lat="47.80465" lon="-3.51656">
        <ele>7.94</ele>
        <time>2020-07-10T13:19:21Z</time>
      </trkpt>
      <trkpt lat="47.80465" lon="-3.51656">
        <ele>7.94</ele>
        <time>2020-07-10T13:19:22Z</time>
      </trkpt>
      <trkpt lat="47.80465" lon="-3.51656">
        <ele>7.93</ele>
        <time>2020-07-10T13:19:23Z</time>
      </trkpt>
      <trkpt lat="47.80465" lon="-3.51656">
        <ele>7.93</ele>
        <time>2020-07-10T13:19:24Z</time>
      </trkpt>
      <trkpt lat="47.80465" lon="-3.51656">
        <ele>7.93</ele>
        <time>2020-07-10T13:19:25Z</time>
      </trkpt>
      <trkpt lat="47.80465" lon="-3.51656">
        <ele>7.93</ele>
        <time>2020-07-10T13:19:26Z</time>
      </trkpt>
      <trkpt lat="47.80465" lon="-3.51656">
        <ele>7.93</ele>
        <time>2020-07-10T13:19:27Z</time>
      </trkpt>
      <trkpt lat="47.80465" lon="-3.51656">
        <ele>7.93</ele>
        <time>2020-07-10T13:19:28Z</time>
      </trkpt>
      <trkpt lat="47.80465" lon="-3.51656">
        <ele>7.93</ele>
        <time>2020-07-10T13:19:29Z</time>
      </trkpt>
      <trkpt lat="47.80465" lon="-3.51656">
        <ele>7.93</ele>
        <time>2020-07-10T13:19:30Z</time>
      </trkpt>
      <trkpt lat="47.80465" lon="-3.51656">
        <ele>7.93</ele>
        <time>2020-07-10T13:19:31Z</time>
      </trkpt>
      <trkpt lat="47.80465" lon="-3.51656">
        <ele>7.93</ele>
        <time>2020-07-10T13:19:32Z</time>
      </trkpt>
      <trkpt lat="47.80465" lon="-3.51656">
        <ele>7.93</ele>
        <time>2020-07-10T13:19:33Z</time>
      </trkpt>
      <trkpt lat="47.80465" lon="-3.51656">
        <ele>7.93</ele>
        <time>2020-07-10T13:19:34Z</time>
      </trkpt>
      <trkpt lat="47.80465" lon="-3.51656">
        <ele>7.93</ele>
        <time>2020-07-10T13:19:35Z</time>
      </trkpt>
      <trkpt lat="47.80465" lon="-3.51656">
        <ele>7.93</ele>
        <time>2020-07-10T13:19:36Z</time>
      </trkpt>
      <trkpt lat="47.80465" lon="-3.51656">
        <ele>7.93</ele>
        <time>2020-07-10T13:19:37Z</time>
      </trkpt>
      <trkpt lat="47.80465" lon="-3.51656">
        <ele>7.93</ele>
        <time>2020-07-10T13:19:38Z</time>
      </trkpt>
      <trkpt lat="47.80465" lon="-3.51656">
        <ele>7.93</ele>
        <time>2020-07-10T13:19:39Z</time>
      </trkpt>
      <trkpt lat="47.80465" lon="-3.51656">
        <ele>7.93</ele>
        <time>2020-07-10T13:19:40Z</time>
      </trkpt>
      <trkpt lat="47.80465" lon="-3.51656">
        <ele>7.93</ele>
        <time>2020-07-10T13:19:41Z</time>
      </trkpt>
      <trkpt lat="47.80465" lon="-3.51656">
        <ele>7.93</ele>
        <time>2020-07-10T13:19:42Z</time>
      </trkpt>
      <trkpt lat="47.80465" lon="-3.51656">
        <ele>7.93</ele>
        <time>2020-07-10T13:19:43Z</time>
      </trkpt>
      <trkpt lat="47.80465" lon="-3.51656">
        <ele>7.93</ele>
        <time>2020-07-10T13:19:44Z</time>
      </trkpt>
      <trkpt lat="47.80465" lon="-3.51656">
        <ele>7.93</ele>
        <time>2020-07-10T13:19:45Z</time>
      </trkpt>
      <trkpt lat="47.80456" lon="-3.51659">
        <ele>9.7</ele>
        <time>2020-07-10T13:19:46Z</time>
      </trkpt>
      <trkpt lat="47.80456" lon="-3.51659">
        <ele>10.33</ele>
        <time>2020-07-10T13:19:47Z</time>
      </trkpt>
      <trkpt lat="47.80456" lon="-3.5166">
        <ele>10.5</ele>
        <time>2020-07-10T13:19:48Z</time>
      </trkpt>
      <trkpt lat="47.80456" lon="-3.5166">
        <ele>10.52</ele>
        <time>2020-07-10T13:19:49Z</time>
      </trkpt>
      <trkpt lat="47.80456" lon="-3.5166">
        <ele>10.52</ele>
        <time>2020-07-10T13:19:50Z</time>
      </trkpt>
      <trkpt lat="47.80456" lon="-3.5166">
        <ele>10.52</ele>
        <time>2020-07-10T13:19:51Z</time>
      </trkpt>
      <trkpt lat="47.80456" lon="-3.5166">
        <ele>10.52</ele>
        <time>2020-07-10T13:19:52Z</time>
      </trkpt>
      <trkpt lat="47.80456" lon="-3.5166">
        <ele>10.52</ele>
        <time>2020-07-10T13:19:53Z</time>
      </trkpt>
      <trkpt lat="47.80456" lon="-3.5166">
        <ele>10.52</ele>
        <time>2020-07-10T13:19:54Z</time>
      </trkpt>
      <trkpt lat="47.80456" lon="-3.5166">
        <ele>10.52</ele>
        <time>2020-07-10T13:19:55Z</time>
      </trkpt>
      <trkpt lat="47.80456" lon="-3.5166">
        <ele>10.52</ele>
        <time>2020-07-10T13:19:56Z</time>
      </trkpt>
      <trkpt lat="47.80456" lon="-3.5166">
        <ele>10.52</ele>
        <time>2020-07-10T13:19:57Z</time>
      </trkpt>
      <trkpt lat="47.80456" lon="-3.5166">
        <ele>10.52</ele>
        <time>2020-07-10T13:19:58Z</time>
      </trkpt>
      <trkpt lat="47.80456" lon="-3.5166">
        <ele>10.52</ele>
        <time>2020-07-10T13:19:59Z</time>
      </trkpt>
      <trkpt lat="47.80456" lon="-3.5166">
        <ele>10.52</ele>
        <time>2020-07-10T13:20:00Z</time>
      </trkpt>
      <trkpt lat="47.80456" lon="-3.5166">
        <ele>10.52</ele>
        <time>2020-07-10T13:20:01Z</time>
      </trkpt>
      <trkpt lat="47.80456" lon="-3.5166">
        <ele>10.52</ele>
        <time>2020-07-10T13:20:02Z</time>
      </trkpt>
      <trkpt lat="47.80456" lon="-3.5166">
        <ele>10.52</ele>
        <time>2020-07-10T13:20:03Z</time>
      </trkpt>
      <trkpt lat="47.80452" lon="-3.51659">
        <ele>11.3</ele>
        <time>2020-07-10T13:20:04Z</time>
      </trkpt>
      <trkpt lat="47.80452" lon="-3.51657">
        <ele>11.56</ele>
        <time>2020-07-10T13:20:05Z</time>
      </trkpt>
      <trkpt lat="47.80451" lon="-3.51655">
        <ele>11.73</ele>
        <time>2020-07-10T13:20:06Z</time>
      </trkpt>
      <trkpt lat="47.80451" lon="-3.51655">
        <ele>11.7</ele>
        <time>2020-07-10T13:20:07Z</time>
      </trkpt>
      <trkpt lat="47.80452" lon="-3.51654">
        <ele>11.61</ele>
        <time>2020-07-10T13:20:08Z</time>
      </trkpt>
      <trkpt lat="47.80451" lon="-3.51652">
        <ele>11.59</ele>
        <time>2020-07-10T13:20:09Z</time>
      </trkpt>
      <trkpt lat="47.80452" lon="-3.51651">
        <ele>11.53</ele>
        <time>2020-07-10T13:20:10Z</time>
      </trkpt>
      <trkpt lat="47.80452" lon="-3.51651">
        <ele>11.51</ele>
        <time>2020-07-10T13:20:11Z</time>
      </trkpt>
      <trkpt lat="47.80452" lon="-3.51651">
        <ele>11.51</ele>
        <time>2020-07-10T13:20:12Z</time>
      </trkpt>
      <trkpt lat="47.80452" lon="-3.51651">
        <ele>11.51</ele>
        <time>2020-07-10T13:20:13Z</time>
      </trkpt>
      <trkpt lat="47.80452" lon="-3.51651">
        <ele>11.51</ele>
        <time>2020-07-10T13:20:14Z</time>
      </trkpt>
      <trkpt lat="47.80452" lon="-3.51651">
        <ele>11.51</ele>
        <time>2020-07-10T13:20:15Z</time>
      </trkpt>
      <trkpt lat="47.80452" lon="-3.51651">
        <ele>11.51</ele>
        <time>2020-07-10T13:20:16Z</time>
      </trkpt>
      <trkpt lat="47.80452" lon="-3.51651">
        <ele>11.51</ele>
        <time>2020-07-10T13:20:17Z</time>
      </trkpt>
      <trkpt lat="47.80452" lon="-3.51651">
        <ele>11.51</ele>
        <time>2020-07-10T13:20:18Z</time>
      </trkpt>
      <trkpt lat="47.80452" lon="-3.51651">
        <ele>11.51</ele>
        <time>2020-07-10T13:20:19Z</time>
      </trkpt>
      <trkpt lat="47.80452" lon="-3.51651">
        <ele>11.51</ele>
        <time>2020-07-10T13:20:20Z</time>
      </trkpt>
      <trkpt lat="47.80452" lon="-3.51651">
        <ele>11.51</ele>
        <time>2020-07-10T13:20:21Z</time>
      </trkpt>
      <trkpt lat="47.80452" lon="-3.51651">
        <ele>11.51</ele>
        <time>2020-07-10T13:20:22Z</time>
      </trkpt>
      <trkpt lat="47.80452" lon="-3.51651">
        <ele>11.51</ele>
        <time>2020-07-10T13:20:23Z</time>
      </trkpt>
      <trkpt lat="47.80452" lon="-3.51651">
        <ele>11.51</ele>
        <time>2020-07-10T13:20:24Z</time>
      </trkpt>
      <trkpt lat="47.80452" lon="-3.51651">
        <ele>11.51</ele>
        <time>2020-07-10T13:20:25Z</time>
      </trkpt>
      <trkpt lat="47.80452" lon="-3.51651">
        <ele>11.51</ele>
        <time>2020-07-10T13:20:26Z</time>
      </trkpt>
      <trkpt lat="47.80452" lon="-3.51651">
        <ele>11.51</ele>
        <time>2020-07-10T13:20:27Z</time>
      </trkpt>
      <trkpt lat="47.80452" lon="-3.51651">
        <ele>11.51</ele>
        <time>2020-07-10T13:20:28Z</time>
      </trkpt>
      <trkpt lat="47.80452" lon="-3.51651">
        <ele>11.51</ele>
        <time>2020-07-10T13:20:29Z</time>
      </trkpt>
      <trkpt lat="47.80452" lon="-3.51651">
        <ele>11.51</ele>
        <time>2020-07-10T13:20:30Z</time>
      </trkpt>
      <trkpt lat="47.80454" lon="-3.51638">
        <ele>10.79</ele>
        <time>2020-07-10T13:20:31Z</time>
      </trkpt>
      <trkpt lat="47.80454" lon="-3.51637">
        <ele>10.77</ele>
        <time>2020-07-10T13:20:32Z</time>
      </trkpt>
      <trkpt lat="47.80452" lon="-3.51635">
        <ele>11.08</ele>
        <time>2020-07-10T13:20:33Z</time>
      </trkpt>
      <trkpt lat="47.80451" lon="-3.51633">
        <ele>11.49</ele>
        <time>2020-07-10T13:20:34Z</time>
      </trkpt>
      <trkpt lat="47.8045" lon="-3.51631">
        <ele>11.75</ele>
        <time>2020-07-10T13:20:35Z</time>
      </trkpt>
      <trkpt lat="47.8045" lon="-3.51628">
        <ele>12.02</ele>
        <time>2020-07-10T13:20:36Z</time>
      </trkpt>
      <trkpt lat="47.8045" lon="-3.51626">
        <ele>12.15</ele>
        <time>2020-07-10T13:20:37Z</time>
      </trkpt>
      <trkpt lat="47.8045" lon="-3.51624">
        <ele>12.23</ele>
        <time>2020-07-10T13:20:38Z</time>
      </trkpt>
      <trkpt lat="47.80449" lon="-3.51622">
        <ele>12.49</ele>
        <time>2020-07-10T13:20:39Z</time>
      </trkpt>
      <trkpt lat="47.80449" lon="-3.51621">
        <ele>12.6</ele>
        <time>2020-07-10T13:20:40Z</time>
      </trkpt>
      <trkpt lat="47.80448" lon="-3.5162">
        <ele>12.71</ele>
        <time>2020-07-10T13:20:41Z</time>
      </trkpt>
      <trkpt lat="47.80448" lon="-3.51619">
        <ele>12.9</ele>
        <time>2020-07-10T13:20:42Z</time>
      </trkpt>
      <trkpt lat="47.80447" lon="-3.51618">
        <ele>13.02</ele>
        <time>2020-07-10T13:20:43Z</time>
      </trkpt>
      <trkpt lat="47.80448" lon="-3.51617">
        <ele>13.01</ele>
        <time>2020-07-10T13:20:44Z</time>
      </trkpt>
      <trkpt lat="47.80448" lon="-3.51615">
        <ele>12.99</ele>
        <time>2020-07-10T13:20:45Z</time>
      </trkpt>
      <trkpt lat="47.80449" lon="-3.51614">
        <ele>12.91</ele>
        <time>2020-07-10T13:20:46Z</time>
      </trkpt>
      <trkpt lat="47.8045" lon="-3.51613">
        <ele>12.83</ele>
        <time>2020-07-10T13:20:47Z</time>
      </trkpt>
      <trkpt lat="47.8045" lon="-3.51612">
        <ele>12.87</ele>
        <time>2020-07-10T13:20:48Z</time>
      </trkpt>
      <trkpt lat="47.8045" lon="-3.51612">
        <ele>12.88</ele>
        <time>2020-07-10T13:20:49Z</time>
      </trkpt>
      <trkpt lat="47.8045" lon="-3.51612">
        <ele>12.88</ele>
        <time>2020-07-10T13:20:50Z</time>
      </trkpt>
      <trkpt lat="47.80447" lon="-3.51608">
        <ele>13.24</ele>
        <time>2020-07-10T13:20:51Z</time>
      </trkpt>
      <trkpt lat="47.80447" lon="-3.51606">
        <ele>13.44</ele>
        <time>2020-07-10T13:20:52Z</time>
      </trkpt>
      <trkpt lat="47.80446" lon="-3.51605">
        <ele>13.61</ele>
        <time>2020-07-10T13:20:53Z</time>
      </trkpt>
      <trkpt lat="47.80447" lon="-3.51604">
        <ele>13.56</ele>
        <time>2020-07-10T13:20:54Z</time>
      </trkpt>
      <trkpt lat="47.80448" lon="-3.51603">
        <ele>13.33</ele>
        <time>2020-07-10T13:20:55Z</time>
      </trkpt>
      <trkpt lat="47.80448" lon="-3.51601">
        <ele>13.25</ele>
        <time>2020-07-10T13:20:56Z</time>
      </trkpt>
      <trkpt lat="47.80448" lon="-3.51599">
        <ele>13.25</ele>
        <time>2020-07-10T13:20:57Z</time>
      </trkpt>
      <trkpt lat="47.80449" lon="-3.51598">
        <ele>13.17</ele>
        <time>2020-07-10T13:20:58Z</time>
      </trkpt>
      <trkpt lat="47.80449" lon="-3.51597">
        <ele>13.14</ele>
        <time>2020-07-10T13:20:59Z</time>
      </trkpt>
      <trkpt lat="47.80449" lon="-3.51596">
        <ele>13.14</ele>
        <time>2020-07-10T13:21:00Z</time>
      </trkpt>
      <trkpt lat="47.80449" lon="-3.51596">
        <ele>13.14</ele>
        <time>2020-07-10T13:21:01Z</time>
      </trkpt>
      <trkpt lat="47.80449" lon="-3.51596">
        <ele>13.14</ele>
        <time>2020-07-10T13:21:02Z</time>
      </trkpt>
      <trkpt lat="47.80449" lon="-3.51596">
        <ele>13.14</ele>
        <time>2020-07-10T13:21:03Z</time>
      </trkpt>
      <trkpt lat="47.80449" lon="-3.51596">
        <ele>13.14</ele>
        <time>2020-07-10T13:21:04Z</time>
      </trkpt>
      <trkpt lat="47.80449" lon="-3.51596">
        <ele>13.14</ele>
        <time>2020-07-10T13:21:05Z</time>
      </trkpt>
      <trkpt lat="47.80449" lon="-3.51596">
        <ele>13.14</ele>
        <time>2020-07-10T13:21:06Z</time>
      </trkpt>
      <trkpt lat="47.80449" lon="-3.51596">
        <ele>13.14</ele>
        <time>2020-07-10T13:21:07Z</time>
      </trkpt>
      <trkpt lat="47.80449" lon="-3.51596">
        <ele>13.14</ele>
        <time>2020-07-10T13:21:08Z</time>
      </trkpt>
      <trkpt lat="47.80449" lon="-3.51596">
        <ele>13.14</ele>
        <time>2020-07-10T13:21:09Z</time>
      </trkpt>
      <trkpt lat="47.80449" lon="-3.51596">
        <ele>13.14</ele>
        <time>2020-07-10T13:21:10Z</time>
      </trkpt>
      <trkpt lat="47.80449" lon="-3.51596">
        <ele>13.14</ele>
        <time>2020-07-10T13:21:11Z</time>
      </trkpt>
      <trkpt lat="47.80449" lon="-3.51596">
        <ele>13.14</ele>
        <time>2020-07-10T13:21:12Z</time>
      </trkpt>
      <trkpt lat="47.80449" lon="-3.51596">
        <ele>13.14</ele>
        <time>2020-07-10T13:21:13Z</time>
      </trkpt>
      <trkpt lat="47.80449" lon="-3.51596">
        <ele>13.14</ele>
        <time>2020-07-10T13:21:14Z</time>
      </trkpt>
      <trkpt lat="47.80449" lon="-3.51596">
        <ele>13.14</ele>
        <time>2020-07-10T13:21:15Z</time>
      </trkpt>
      <trkpt lat="47.80449" lon="-3.51596">
        <ele>13.14</ele>
        <time>2020-07-10T13:21:16Z</time>
      </trkpt>
      <trkpt lat="47.80449" lon="-3.51596">
        <ele>13.14</ele>
        <time>2020-07-10T13:21:17Z</time>
      </trkpt>
      <trkpt lat="47.80449" lon="-3.51596">
        <ele>13.14</ele>
        <time>2020-07-10T13:21:18Z</time>
      </trkpt>
      <trkpt lat="47.80449" lon="-3.51596">
        <ele>13.14</ele>
        <time>2020-07-10T13:21:19Z</time>
      </trkpt>
      <trkpt lat="47.80449" lon="-3.51596">
        <ele>13.14</ele>
        <time>2020-07-10T13:21:20Z</time>
      </trkpt>
      <trkpt lat="47.80441" lon="-3.5159">
        <ele>15</ele>
        <time>2020-07-10T13:21:21Z</time>
      </trkpt>
      <trkpt lat="47.8044" lon="-3.5159">
        <ele>15.78</ele>
        <time>2020-07-10T13:21:22Z</time>
      </trkpt>
      <trkpt lat="47.8044" lon="-3.5159">
        <ele>16.18</ele>
        <time>2020-07-10T13:21:23Z</time>
      </trkpt>
      <trkpt lat="47.80439" lon="-3.51589">
        <ele>16.58</ele>
        <time>2020-07-10T13:21:24Z</time>
      </trkpt>
      <trkpt lat="47.80439" lon="-3.51589">
        <ele>16.7</ele>
        <time>2020-07-10T13:21:25Z</time>
      </trkpt>
      <trkpt lat="47.80439" lon="-3.51589">
        <ele>16.73</ele>
        <time>2020-07-10T13:21:26Z</time>
      </trkpt>
      <trkpt lat="47.80439" lon="-3.51589">
        <ele>16.74</ele>
        <time>2020-07-10T13:21:27Z</time>
      </trkpt>
      <trkpt lat="47.80439" lon="-3.51589">
        <ele>16.75</ele>
        <time>2020-07-10T13:21:28Z</time>
      </trkpt>
      <trkpt lat="47.80439" lon="-3.51589">
        <ele>16.75</ele>
        <time>2020-07-10T13:21:29Z</time>
      </trkpt>
      <trkpt lat="47.80439" lon="-3.51589">
        <ele>16.75</ele>
        <time>2020-07-10T13:21:30Z</time>
      </trkpt>
      <trkpt lat="47.80439" lon="-3.51589">
        <ele>16.75</ele>
        <time>2020-07-10T13:21:31Z</time>
      </trkpt>
      <trkpt lat="47.80439" lon="-3.51589">
        <ele>16.75</ele>
        <time>2020-07-10T13:21:32Z</time>
      </trkpt>
      <trkpt lat="47.80439" lon="-3.51589">
        <ele>16.75</ele>
        <time>2020-07-10T13:21:33Z</time>
      </trkpt>
      <trkpt lat="47.80439" lon="-3.51589">
        <ele>16.75</ele>
        <time>2020-07-10T13:21:34Z</time>
      </trkpt>
      <trkpt lat="47.80439" lon="-3.51589">
        <ele>16.75</ele>
        <time>2020-07-10T13:21:35Z</time>
      </trkpt>
      <trkpt lat="47.80439" lon="-3.51589">
        <ele>16.75</ele>
        <time>2020-07-10T13:21:36Z</time>
      </trkpt>
      <trkpt lat="47.80439" lon="-3.51589">
        <ele>16.75</ele>
        <time>2020-07-10T13:21:37Z</time>
      </trkpt>
      <trkpt lat="47.80439" lon="-3.51589">
        <ele>16.75</ele>
        <time>2020-07-10T13:21:38Z</time>
      </trkpt>
      <trkpt lat="47.80439" lon="-3.51589">
        <ele>16.75</ele>
        <time>2020-07-10T13:21:39Z</time>
      </trkpt>
      <trkpt lat="47.80439" lon="-3.51589">
        <ele>16.75</ele>
        <time>2020-07-10T13:21:40Z</time>
      </trkpt>
      <trkpt lat="47.80439" lon="-3.51589">
        <ele>16.75</ele>
        <time>2020-07-10T13:21:41Z</time>
      </trkpt>
      <trkpt lat="47.80439" lon="-3.51589">
        <ele>16.75</ele>
        <time>2020-07-10T13:21:42Z</time>
      </trkpt>
      <trkpt lat="47.80439" lon="-3.51589">
        <ele>16.75</ele>
        <time>2020-07-10T13:21:43Z</time>
      </trkpt>
      <trkpt lat="47.80439" lon="-3.51589">
        <ele>16.75</ele>
        <time>2020-07-10T13:21:44Z</time>
      </trkpt>
      <trkpt lat="47.80439" lon="-3.51589">
        <ele>16.75</ele>
        <time>2020-07-10T13:21:45Z</time>
      </trkpt>
      <trkpt lat="47.80435" lon="-3.51576">
        <ele>18.17</ele>
        <time>2020-07-10T13:21:46Z</time>
      </trkpt>
      <trkpt lat="47.80436" lon="-3.51575">
        <ele>18.54</ele>
        <time>2020-07-10T13:21:47Z</time>
      </trkpt>
      <trkpt lat="47.80435" lon="-3.51575">
        <ele>18.89</ele>
        <time>2020-07-10T13:21:48Z</time>
      </trkpt>
      <trkpt lat="47.80435" lon="-3.51575">
        <ele>19.12</ele>
        <time>2020-07-10T13:21:49Z</time>
      </trkpt>
      <trkpt lat="47.80435" lon="-3.51575">
        <ele>19.18</ele>
        <time>2020-07-10T13:21:50Z</time>
      </trkpt>
      <trkpt lat="47.80435" lon="-3.51575">
        <ele>19.2</ele>
        <time>2020-07-10T13:21:51Z</time>
      </trkpt>
      <trkpt lat="47.80435" lon="-3.51575">
        <ele>19.21</ele>
        <time>2020-07-10T13:21:52Z</time>
      </trkpt>
      <trkpt lat="47.80435" lon="-3.51575">
        <ele>19.21</ele>
        <time>2020-07-10T13:21:53Z</time>
      </trkpt>
      <trkpt lat="47.80435" lon="-3.51575">
        <ele>19.21</ele>
        <time>2020-07-10T13:21:54Z</time>
      </trkpt>
      <trkpt lat="47.80435" lon="-3.51575">
        <ele>19.21</ele>
        <time>2020-07-10T13:21:55Z</time>
      </trkpt>
      <trkpt lat="47.80435" lon="-3.51575">
        <ele>19.21</ele>
        <time>2020-07-10T13:21:56Z</time>
      </trkpt>
      <trkpt lat="47.80435" lon="-3.51575">
        <ele>19.21</ele>
        <time>2020-07-10T13:21:57Z</time>
      </trkpt>
      <trkpt lat="47.80435" lon="-3.51575">
        <ele>19.21</ele>
        <time>2020-07-10T13:21:58Z</time>
      </trkpt>
      <trkpt lat="47.80435" lon="-3.51575">
        <ele>19.21</ele>
        <time>2020-07-10T13:21:59Z</time>
      </trkpt>
      <trkpt lat="47.80435" lon="-3.51575">
        <ele>19.21</ele>
        <time>2020-07-10T13:22:00Z</time>
      </trkpt>
      <trkpt lat="47.80435" lon="-3.51575">
        <ele>19.21</ele>
        <time>2020-07-10T13:22:01Z</time>
      </trkpt>
      <trkpt lat="47.80435" lon="-3.51575">
        <ele>19.21</ele>
        <time>2020-07-10T13:22:02Z</time>
      </trkpt>
      <trkpt lat="47.80435" lon="-3.51575">
        <ele>19.21</ele>
        <time>2020-07-10T13:22:03Z</time>
      </trkpt>
      <trkpt lat="47.80435" lon="-3.51575">
        <ele>19.21</ele>
        <time>2020-07-10T13:22:04Z</time>
      </trkpt>
      <trkpt lat="47.80435" lon="-3.51575">
        <ele>19.21</ele>
        <time>2020-07-10T13:22:05Z</time>
      </trkpt>
      <trkpt lat="47.80435" lon="-3.51575">
        <ele>19.21</ele>
        <time>2020-07-10T13:22:06Z</time>
      </trkpt>
      <trkpt lat="47.80435" lon="-3.51575">
        <ele>19.21</ele>
        <time>2020-07-10T13:22:07Z</time>
      </trkpt>
      <trkpt lat="47.80435" lon="-3.51575">
        <ele>19.21</ele>
        <time>2020-07-10T13:22:08Z</time>
      </trkpt>
      <trkpt lat="47.80435" lon="-3.51575">
        <ele>19.21</ele>
        <time>2020-07-10T13:22:09Z</time>
      </trkpt>
      <trkpt lat="47.80435" lon="-3.51575">
        <ele>19.21</ele>
        <time>2020-07-10T13:22:10Z</time>
      </trkpt>
      <trkpt lat="47.80428" lon="-3.51566">
        <ele>21.83</ele>
        <time>2020-07-10T13:22:11Z</time>
      </trkpt>
      <trkpt lat="47.80428" lon="-3.51566">
        <ele>22.8</ele>
        <time>2020-07-10T13:22:12Z</time>
      </trkpt>
      <trkpt lat="47.80427" lon="-3.51565">
        <ele>23.29</ele>
        <time>2020-07-10T13:22:13Z</time>
      </trkpt>
      <trkpt lat="47.80427" lon="-3.51565">
        <ele>23.48</ele>
        <time>2020-07-10T13:22:14Z</time>
      </trkpt>
      <trkpt lat="47.80427" lon="-3.51565">
        <ele>23.54</ele>
        <time>2020-07-10T13:22:15Z</time>
      </trkpt>
      <trkpt lat="47.80427" lon="-3.51565">
        <ele>23.55</ele>
        <time>2020-07-10T13:22:16Z</time>
      </trkpt>
      <trkpt lat="47.80427" lon="-3.51565">
        <ele>23.56</ele>
        <time>2020-07-10T13:22:17Z</time>
      </trkpt>
      <trkpt lat="47.80427" lon="-3.51565">
        <ele>23.56</ele>
        <time>2020-07-10T13:22:18Z</time>
      </trkpt>
      <trkpt lat="47.80427" lon="-3.51565">
        <ele>23.56</ele>
        <time>2020-07-10T13:22:19Z</time>
      </trkpt>
      <trkpt lat="47.80427" lon="-3.51565">
        <ele>23.56</ele>
        <time>2020-07-10T13:22:20Z</time>
      </trkpt>
      <trkpt lat="47.80427" lon="-3.51565">
        <ele>23.56</ele>
        <time>2020-07-10T13:22:21Z</time>
      </trkpt>
      <trkpt lat="47.80427" lon="-3.51565">
        <ele>23.56</ele>
        <time>2020-07-10T13:22:22Z</time>
      </trkpt>
      <trkpt lat="47.80427" lon="-3.51565">
        <ele>23.56</ele>
        <time>2020-07-10T13:22:23Z</time>
      </trkpt>
      <trkpt lat="47.80427" lon="-3.51565">
        <ele>23.56</ele>
        <time>2020-07-10T13:22:24Z</time>
      </trkpt>
      <trkpt lat="47.80427" lon="-3.51565">
        <ele>23.56</ele>
        <time>2020-07-10T13:22:25Z</time>
      </trkpt>
      <trkpt lat="47.80427" lon="-3.51565">
        <ele>23.56</ele>
        <time>2020-07-10T13:22:26Z</time>
      </trkpt>
      <trkpt lat="47.80427" lon="-3.51565">
        <ele>23.56</ele>
        <time>2020-07-10T13:22:27Z</time>
      </trkpt>
      <trkpt lat="47.80427" lon="-3.51565">
        <ele>23.56</ele>
        <time>2020-07-10T13:22:28Z</time>
      </trkpt>
      <trkpt lat="47.80427" lon="-3.51565">
        <ele>23.56</ele>
        <time>2020-07-10T13:22:29Z</time>
      </trkpt>
      <trkpt lat="47.80427" lon="-3.51565">
        <ele>23.56</ele>
        <time>2020-07-10T13:22:30Z</time>
      </trkpt>
      <trkpt lat="47.80427" lon="-3.51565">
        <ele>23.56</ele>
        <time>2020-07-10T13:22:31Z</time>
      </trkpt>
      <trkpt lat="47.80427" lon="-3.51565">
        <ele>23.56</ele>
        <time>2020-07-10T13:22:32Z</time>
      </trkpt>
      <trkpt lat="47.80427" lon="-3.51565">
        <ele>23.56</ele>
        <time>2020-07-10T13:22:33Z</time>
      </trkpt>
      <trkpt lat="47.80427" lon="-3.51565">
        <ele>23.56</ele>
        <time>2020-07-10T13:22:34Z</time>
      </trkpt>
      <trkpt lat="47.80427" lon="-3.51565">
        <ele>23.56</ele>
        <time>2020-07-10T13:22:35Z</time>
      </trkpt>
      <trkpt lat="47.80427" lon="-3.51565">
        <ele>23.56</ele>
        <time>2020-07-10T13:22:36Z</time>
      </trkpt>
      <trkpt lat="47.80427" lon="-3.51565">
        <ele>23.56</ele>
        <time>2020-07-10T13:22:37Z</time>
      </trkpt>
      <trkpt lat="47.80427" lon="-3.51565">
        <ele>23.56</ele>
        <time>2020-07-10T13:22:38Z</time>
      </trkpt>
      <trkpt lat="47.80427" lon="-3.51565">
        <ele>23.56</ele>
        <time>2020-07-10T13:22:39Z</time>
      </trkpt>
      <trkpt lat="47.80427" lon="-3.51565">
        <ele>23.56</ele>
        <time>2020-07-10T13:22:40Z</time>
      </trkpt>
      <trkpt lat="47.80427" lon="-3.51565">
        <ele>23.56</ele>
        <time>2020-07-10T13:22:41Z</time>
      </trkpt>
      <trkpt lat="47.80427" lon="-3.51565">
        <ele>23.56</ele>
        <time>2020-07-10T13:22:42Z</time>
      </trkpt>
      <trkpt lat="47.80427" lon="-3.51565">
        <ele>23.56</ele>
        <time>2020-07-10T13:22:43Z</time>
      </trkpt>
      <trkpt lat="47.80427" lon="-3.51565">
        <ele>23.56</ele>
        <time>2020-07-10T13:22:44Z</time>
      </trkpt>
      <trkpt lat="47.80427" lon="-3.51565">
        <ele>23.56</ele>
        <time>2020-07-10T13:22:45Z</time>
      </trkpt>
      <trkpt lat="47.80427" lon="-3.51565">
        <ele>23.56</ele>
        <time>2020-07-10T13:22:46Z</time>
      </trkpt>
      <trkpt lat="47.80427" lon="-3.51565">
        <ele>23.56</ele>
        <time>2020-07-10T13:22:47Z</time>
      </trkpt>
      <trkpt lat="47.80427" lon="-3.51565">
        <ele>23.56</ele>
        <time>2020-07-10T13:22:48Z</time>
      </trkpt>
      <trkpt lat="47.80427" lon="-3.51565">
        <ele>23.56</ele>
        <time>2020-07-10T13:22:49Z</time>
      </trkpt>
      <trkpt lat="47.80427" lon="-3.51565">
        <ele>23.56</ele>
        <time>2020-07-10T13:22:50Z</time>
      </trkpt>
      <trkpt lat="47.80427" lon="-3.51565">
        <ele>23.56</ele>
        <time>2020-07-10T13:22:51Z</time>
      </trkpt>
      <trkpt lat="47.80427" lon="-3.51565">
        <ele>23.56</ele>
        <time>2020-07-10T13:22:52Z</time>
      </trkpt>
      <trkpt lat="47.80427" lon="-3.51565">
        <ele>23.56</ele>
        <time>2020-07-10T13:22:53Z</time>
      </trkpt>
      <trkpt lat="47.80427" lon="-3.51565">
        <ele>23.56</ele>
        <time>2020-07-10T13:22:54Z</time>
      </trkpt>
      <trkpt lat="47.80427" lon="-3.51565">
        <ele>23.56</ele>
        <time>2020-07-10T13:22:55Z</time>
      </trkpt>
      <trkpt lat="47.80427" lon="-3.51565">
        <ele>23.56</ele>
        <time>2020-07-10T13:22:56Z</time>
      </trkpt>
      <trkpt lat="47.80427" lon="-3.51565">
        <ele>23.56</ele>
        <time>2020-07-10T13:22:57Z</time>
      </trkpt>
      <trkpt lat="47.80427" lon="-3.51565">
        <ele>23.56</ele>
        <time>2020-07-10T13:22:58Z</time>
      </trkpt>
      <trkpt lat="47.80427" lon="-3.51565">
        <ele>23.56</ele>
        <time>2020-07-10T13:22:59Z</time>
      </trkpt>
      <trkpt lat="47.80427" lon="-3.51565">
        <ele>23.56</ele>
        <time>2020-07-10T13:23:00Z</time>
      </trkpt>
      <trkpt lat="47.80427" lon="-3.51565">
        <ele>23.56</ele>
        <time>2020-07-10T13:23:01Z</time>
      </trkpt>
      <trkpt lat="47.80424" lon="-3.51552">
        <ele>25.29</ele>
        <time>2020-07-10T13:23:02Z</time>
      </trkpt>
      <trkpt lat="47.80424" lon="-3.51552">
        <ele>25.84</ele>
        <time>2020-07-10T13:23:03Z</time>
      </trkpt>
      <trkpt lat="47.80424" lon="-3.51553">
        <ele>25.99</ele>
        <time>2020-07-10T13:23:04Z</time>
      </trkpt>
      <trkpt lat="47.80424" lon="-3.51553">
        <ele>26.09</ele>
        <time>2020-07-10T13:23:05Z</time>
      </trkpt>
      <trkpt lat="47.80424" lon="-3.51553">
        <ele>26.12</ele>
        <time>2020-07-10T13:23:06Z</time>
      </trkpt>
      <trkpt lat="47.80424" lon="-3.51553">
        <ele>26.13</ele>
        <time>2020-07-10T13:23:07Z</time>
      </trkpt>
      <trkpt lat="47.80424" lon="-3.51553">
        <ele>26.14</ele>
        <time>2020-07-10T13:23:08Z</time>
      </trkpt>
      <trkpt lat="47.80424" lon="-3.51553">
        <ele>26.14</ele>
        <time>2020-07-10T13:23:09Z</time>
      </trkpt>
      <trkpt lat="47.80424" lon="-3.51553">
        <ele>26.14</ele>
        <time>2020-07-10T13:23:10Z</time>
      </trkpt>
      <trkpt lat="47.80424" lon="-3.51553">
        <ele>26.14</ele>
        <time>2020-07-10T13:23:11Z</time>
      </trkpt>
      <trkpt lat="47.80424" lon="-3.51553">
        <ele>26.14</ele>
        <time>2020-07-10T13:23:12Z</time>
      </trkpt>
      <trkpt lat="47.80424" lon="-3.51553">
        <ele>26.14</ele>
        <time>2020-07-10T13:23:13Z</time>
      </trkpt>
      <trkpt lat="47.80424" lon="-3.51553">
        <ele>26.14</ele>
        <time>2020-07-10T13:23:14Z</time>
      </trkpt>
      <trkpt lat="47.80424" lon="-3.51553">
        <ele>26.14</ele>
        <time>2020-07-10T13:23:15Z</time>
      </trkpt>
      <trkpt lat="47.80424" lon="-3.51553">
        <ele>26.14</ele>
        <time>2020-07-10T13:23:16Z</time>
      </trkpt>
      <trkpt lat="47.80424" lon="-3.51553">
        <ele>26.14</ele>
        <time>2020-07-10T13:23:17Z</time>
      </trkpt>
      <trkpt lat="47.80424" lon="-3.51553">
        <ele>26.14</ele>
        <time>2020-07-10T13:23:18Z</time>
      </trkpt>
      <trkpt lat="47.80424" lon="-3.51553">
        <ele>26.14</ele>
        <time>2020-07-10T13:23:19Z</time>
      </trkpt>
      <trkpt lat="47.80424" lon="-3.51553">
        <ele>26.14</ele>
        <time>2020-07-10T13:23:20Z</time>
      </trkpt>
      <trkpt lat="47.80424" lon="-3.51553">
        <ele>26.14</ele>
        <time>2020-07-10T13:23:21Z</time>
      </trkpt>
      <trkpt lat="47.80424" lon="-3.51553">
        <ele>26.14</ele>
        <time>2020-07-10T13:23:22Z</time>
      </trkpt>
      <trkpt lat="47.80424" lon="-3.51553">
        <ele>26.14</ele>
        <time>2020-07-10T13:23:23Z</time>
      </trkpt>
      <trkpt lat="47.80424" lon="-3.51553">
        <ele>26.14</ele>
        <time>2020-07-10T13:23:24Z</time>
      </trkpt>
      <trkpt lat="47.80424" lon="-3.51553">
        <ele>26.14</ele>
        <time>2020-07-10T13:23:25Z</time>
      </trkpt>
      <trkpt lat="47.80424" lon="-3.51543">
        <ele>27.07</ele>
        <time>2020-07-10T13:23:26Z</time>
      </trkpt>
      <trkpt lat="47.80423" lon="-3.51542">
        <ele>27.54</ele>
        <time>2020-07-10T13:23:27Z</time>
      </trkpt>
      <trkpt lat="47.80423" lon="-3.51541">
        <ele>27.89</ele>
        <time>2020-07-10T13:23:28Z</time>
      </trkpt>
      <trkpt lat="47.80423" lon="-3.5154">
        <ele>28.18</ele>
        <time>2020-07-10T13:23:29Z</time>
      </trkpt>
      <trkpt lat="47.80423" lon="-3.5154">
        <ele>28.27</ele>
        <time>2020-07-10T13:23:30Z</time>
      </trkpt>
      <trkpt lat="47.80423" lon="-3.5154">
        <ele>28.3</ele>
        <time>2020-07-10T13:23:31Z</time>
      </trkpt>
      <trkpt lat="47.80423" lon="-3.5154">
        <ele>28.31</ele>
        <time>2020-07-10T13:23:32Z</time>
      </trkpt>
      <trkpt lat="47.80423" lon="-3.5154">
        <ele>28.31</ele>
        <time>2020-07-10T13:23:33Z</time>
      </trkpt>
      <trkpt lat="47.80423" lon="-3.5154">
        <ele>28.31</ele>
        <time>2020-07-10T13:23:34Z</time>
      </trkpt>
      <trkpt lat="47.80423" lon="-3.5154">
        <ele>28.31</ele>
        <time>2020-07-10T13:23:35Z</time>
      </trkpt>
      <trkpt lat="47.80423" lon="-3.5154">
        <ele>28.31</ele>
        <time>2020-07-10T13:23:36Z</time>
      </trkpt>
      <trkpt lat="47.80423" lon="-3.5154">
        <ele>28.31</ele>
        <time>2020-07-10T13:23:37Z</time>
      </trkpt>
      <trkpt lat="47.80423" lon="-3.5154">
        <ele>28.31</ele>
        <time>2020-07-10T13:23:38Z</time>
      </trkpt>
      <trkpt lat="47.80423" lon="-3.5154">
        <ele>28.31</ele>
        <time>2020-07-10T13:23:39Z</time>
      </trkpt>
      <trkpt lat="47.80423" lon="-3.5154">
        <ele>28.31</ele>
        <time>2020-07-10T13:23:40Z</time>
      </trkpt>
      <trkpt lat="47.80423" lon="-3.5154">
        <ele>28.31</ele>
        <time>2020-07-10T13:23:41Z</time>
      </trkpt>
      <trkpt lat="47.80423" lon="-3.5154">
        <ele>28.31</ele>
        <time>2020-07-10T13:23:42Z</time>
      </trkpt>
      <trkpt lat="47.80423" lon="-3.5154">
        <ele>28.31</ele>
        <time>2020-07-10T13:23:43Z</time>
      </trkpt>
      <trkpt lat="47.80423" lon="-3.5154">
        <ele>28.31</ele>
        <time>2020-07-10T13:23:44Z</time>
      </trkpt>
      <trkpt lat="47.80423" lon="-3.5154">
        <ele>28.31</ele>
        <time>2020-07-10T13:23:45Z</time>
      </trkpt>
      <trkpt lat="47.80423" lon="-3.5154">
        <ele>28.31</ele>
        <time>2020-07-10T13:23:46Z</time>
      </trkpt>
      <trkpt lat="47.80422" lon="-3.51526">
        <ele>29.92</ele>
        <time>2020-07-10T13:23:47Z</time>
      </trkpt>
      <trkpt lat="47.80422" lon="-3.51526">
        <ele>30.42</ele>
        <time>2020-07-10T13:23:48Z</time>
      </trkpt>
      <trkpt lat="47.80422" lon="-3.51524">
        <ele>30.57</ele>
        <time>2020-07-10T13:23:49Z</time>
      </trkpt>
      <trkpt lat="47.80423" lon="-3.51523">
        <ele>30.67</ele>
        <time>2020-07-10T13:23:50Z</time>
      </trkpt>
      <trkpt lat="47.80423" lon="-3.51523">
        <ele>30.7</ele>
        <time>2020-07-10T13:23:51Z</time>
      </trkpt>
      <trkpt lat="47.80423" lon="-3.51523">
        <ele>30.71</ele>
        <time>2020-07-10T13:23:52Z</time>
      </trkpt>
      <trkpt lat="47.80423" lon="-3.51523">
        <ele>30.71</ele>
        <time>2020-07-10T13:23:53Z</time>
      </trkpt>
      <trkpt lat="47.80423" lon="-3.51523">
        <ele>30.71</ele>
        <time>2020-07-10T13:23:54Z</time>
      </trkpt>
      <trkpt lat="47.80423" lon="-3.51523">
        <ele>30.71</ele>
        <time>2020-07-10T13:23:55Z</time>
      </trkpt>
      <trkpt lat="47.80423" lon="-3.51523">
        <ele>30.71</ele>
        <time>2020-07-10T13:23:56Z</time>
      </trkpt>
      <trkpt lat="47.80423" lon="-3.51523">
        <ele>30.71</ele>
        <time>2020-07-10T13:23:57Z</time>
      </trkpt>
      <trkpt lat="47.80423" lon="-3.51523">
        <ele>30.71</ele>
        <time>2020-07-10T13:23:58Z</time>
      </trkpt>
      <trkpt lat="47.80423" lon="-3.51523">
        <ele>30.71</ele>
        <time>2020-07-10T13:23:59Z</time>
      </trkpt>
      <trkpt lat="47.80423" lon="-3.51523">
        <ele>30.71</ele>
        <time>2020-07-10T13:24:00Z</time>
      </trkpt>
      <trkpt lat="47.80423" lon="-3.51523">
        <ele>30.71</ele>
        <time>2020-07-10T13:24:01Z</time>
      </trkpt>
      <trkpt lat="47.80423" lon="-3.51523">
        <ele>30.71</ele>
        <time>2020-07-10T13:24:02Z</time>
      </trkpt>
      <trkpt lat="47.80423" lon="-3.51523">
        <ele>30.71</ele>
        <time>2020-07-10T13:24:03Z</time>
      </trkpt>
      <trkpt lat="47.80423" lon="-3.51523">
        <ele>30.71</ele>
        <time>2020-07-10T13:24:04Z</time>
      </trkpt>
      <trkpt lat="47.80423" lon="-3.51523">
        <ele>30.71</ele>
        <time>2020-07-10T13:24:05Z</time>
      </trkpt>
      <trkpt lat="47.80423" lon="-3.51523">
        <ele>30.71</ele>
        <time>2020-07-10T13:24:06Z</time>
      </trkpt>
      <trkpt lat="47.80423" lon="-3.51523">
        <ele>30.71</ele>
        <time>2020-07-10T13:24:07Z</time>
      </trkpt>
      <trkpt lat="47.80423" lon="-3.51523">
        <ele>30.71</ele>
        <time>2020-07-10T13:24:08Z</time>
      </trkpt>
      <trkpt lat="47.80423" lon="-3.51523">
        <ele>30.71</ele>
        <time>2020-07-10T13:24:09Z</time>
      </trkpt>
      <trkpt lat="47.80423" lon="-3.51523">
        <ele>30.71</ele>
        <time>2020-07-10T13:24:10Z</time>
      </trkpt>
      <trkpt lat="47.80423" lon="-3.51523">
        <ele>30.71</ele>
        <time>2020-07-10T13:24:11Z</time>
      </trkpt>
      <trkpt lat="47.80423" lon="-3.51523">
        <ele>30.71</ele>
        <time>2020-07-10T13:24:12Z</time>
      </trkpt>
      <trkpt lat="47.80423" lon="-3.51523">
        <ele>30.71</ele>
        <time>2020-07-10T13:24:13Z</time>
      </trkpt>
      <trkpt lat="47.80423" lon="-3.51523">
        <ele>30.71</ele>
        <time>2020-07-10T13:24:14Z</time>
      </trkpt>
      <trkpt lat="47.80423" lon="-3.51523">
        <ele>30.71</ele>
        <time>2020-07-10T13:24:15Z</time>
      </trkpt>
      <trkpt lat="47.80423" lon="-3.51523">
        <ele>30.71</ele>
        <time>2020-07-10T13:24:16Z</time>
      </trkpt>
      <trkpt lat="47.80423" lon="-3.51523">
        <ele>30.71</ele>
        <time>2020-07-10T13:24:17Z</time>
      </trkpt>
      <trkpt lat="47.80423" lon="-3.51523">
        <ele>30.71</ele>
        <time>2020-07-10T13:24:18Z</time>
      </trkpt>
      <trkpt lat="47.80423" lon="-3.51523">
        <ele>30.71</ele>
        <time>2020-07-10T13:24:19Z</time>
      </trkpt>
      <trkpt lat="47.80423" lon="-3.51523">
        <ele>30.71</ele>
        <time>2020-07-10T13:24:20Z</time>
      </trkpt>
      <trkpt lat="47.80423" lon="-3.51523">
        <ele>30.71</ele>
        <time>2020-07-10T13:24:21Z</time>
      </trkpt>
      <trkpt lat="47.80423" lon="-3.51523">
        <ele>30.71</ele>
        <time>2020-07-10T13:24:22Z</time>
      </trkpt>
      <trkpt lat="47.80423" lon="-3.51523">
        <ele>30.71</ele>
        <time>2020-07-10T13:24:23Z</time>
      </trkpt>
      <trkpt lat="47.80423" lon="-3.51523">
        <ele>30.71</ele>
        <time>2020-07-10T13:24:24Z</time>
      </trkpt>
      <trkpt lat="47.80423" lon="-3.51523">
        <ele>30.71</ele>
        <time>2020-07-10T13:24:25Z</time>
      </trkpt>
      <trkpt lat="47.80423" lon="-3.51523">
        <ele>30.71</ele>
        <time>2020-07-10T13:24:26Z</time>
      </trkpt>
      <trkpt lat="47.80423" lon="-3.51523">
        <ele>30.71</ele>
        <time>2020-07-10T13:24:27Z</time>
      </trkpt>
      <trkpt lat="47.80423" lon="-3.51523">
        <ele>30.71</ele>
        <time>2020-07-10T13:24:28Z</time>
      </trkpt>
      <trkpt lat="47.80416" lon="-3.51513">
        <ele>33.95</ele>
        <time>2020-07-10T13:24:29Z</time>
      </trkpt>
      <trkpt lat="47.80416" lon="-3.51514">
        <ele>34.88</ele>
        <time>2020-07-10T13:24:30Z</time>
      </trkpt>
      <trkpt lat="47.80416" lon="-3.51513">
        <ele>35.22</ele>
        <time>2020-07-10T13:24:31Z</time>
      </trkpt>
      <trkpt lat="47.80415" lon="-3.51513">
        <ele>35.35</ele>
        <time>2020-07-10T13:24:32Z</time>
      </trkpt>
      <trkpt lat="47.80415" lon="-3.51513">
        <ele>35.39</ele>
        <time>2020-07-10T13:24:33Z</time>
      </trkpt>
      <trkpt lat="47.80415" lon="-3.51513">
        <ele>35.41</ele>
        <time>2020-07-10T13:24:34Z</time>
      </trkpt>
      <trkpt lat="47.80415" lon="-3.51513">
        <ele>35.41</ele>
        <time>2020-07-10T13:24:35Z</time>
      </trkpt>
      <trkpt lat="47.80415" lon="-3.51513">
        <ele>35.41</ele>
        <time>2020-07-10T13:24:36Z</time>
      </trkpt>
      <trkpt lat="47.80415" lon="-3.51513">
        <ele>35.41</ele>
        <time>2020-07-10T13:24:37Z</time>
      </trkpt>
      <trkpt lat="47.80415" lon="-3.51513">
        <ele>35.41</ele>
        <time>2020-07-10T13:24:38Z</time>
      </trkpt>
      <trkpt lat="47.80415" lon="-3.51513">
        <ele>35.41</ele>
        <time>2020-07-10T13:24:39Z</time>
      </trkpt>
      <trkpt lat="47.80415" lon="-3.51513">
        <ele>35.41</ele>
        <time>2020-07-10T13:24:40Z</time>
      </trkpt>
      <trkpt lat="47.80415" lon="-3.51513">
        <ele>35.41</ele>
        <time>2020-07-10T13:24:41Z</time>
      </trkpt>
      <trkpt lat="47.80415" lon="-3.51513">
        <ele>35.41</ele>
        <time>2020-07-10T13:24:42Z</time>
      </trkpt>
      <trkpt lat="47.80415" lon="-3.51513">
        <ele>35.41</ele>
        <time>2020-07-10T13:24:43Z</time>
      </trkpt>
      <trkpt lat="47.80415" lon="-3.51513">
        <ele>35.41</ele>
        <time>2020-07-10T13:24:44Z</time>
      </trkpt>
      <trkpt lat="47.80415" lon="-3.51513">
        <ele>35.41</ele>
        <time>2020-07-10T13:24:45Z</time>
      </trkpt>
      <trkpt lat="47.80415" lon="-3.51513">
        <ele>35.41</ele>
        <time>2020-07-10T13:24:46Z</time>
      </trkpt>
      <trkpt lat="47.80415" lon="-3.51513">
        <ele>35.41</ele>
        <time>2020-07-10T13:24:47Z</time>
      </trkpt>
      <trkpt lat="47.80415" lon="-3.51513">
        <ele>35.41</ele>
        <time>2020-07-10T13:24:48Z</time>
      </trkpt>
      <trkpt lat="47.80415" lon="-3.51513">
        <ele>35.41</ele>
        <time>2020-07-10T13:24:49Z</time>
      </trkpt>
      <trkpt lat="47.80415" lon="-3.51513">
        <ele>35.41</ele>
        <time>2020-07-10T13:24:50Z</time>
      </trkpt>
      <trkpt lat="47.80415" lon="-3.51513">
        <ele>35.41</ele>
        <time>2020-07-10T13:24:51Z</time>
      </trkpt>
      <trkpt lat="47.80415" lon="-3.51513">
        <ele>35.41</ele>
        <time>2020-07-10T13:24:52Z</time>
      </trkpt>
      <trkpt lat="47.80415" lon="-3.51513">
        <ele>35.41</ele>
        <time>2020-07-10T13:24:53Z</time>
      </trkpt>
      <trkpt lat="47.80415" lon="-3.51513">
        <ele>35.41</ele>
        <time>2020-07-10T13:24:54Z</time>
      </trkpt>
      <trkpt lat="47.80415" lon="-3.51513">
        <ele>35.41</ele>
        <time>2020-07-10T13:24:55Z</time>
      </trkpt>
      <trkpt lat="47.80415" lon="-3.51513">
        <ele>35.41</ele>
        <time>2020-07-10T13:24:56Z</time>
      </trkpt>
      <trkpt lat="47.80415" lon="-3.51513">
        <ele>35.41</ele>
        <time>2020-07-10T13:24:57Z</time>
      </trkpt>
      <trkpt lat="47.80415" lon="-3.51513">
        <ele>35.41</ele>
        <time>2020-07-10T13:24:58Z</time>
      </trkpt>
      <trkpt lat="47.80415" lon="-3.51513">
        <ele>35.41</ele>
        <time>2020-07-10T13:24:59Z</time>
      </trkpt>
      <trkpt lat="47.80415" lon="-3.51513">
        <ele>35.41</ele>
        <time>2020-07-10T13:25:00Z</time>
      </trkpt>
      <trkpt lat="47.80415" lon="-3.51513">
        <ele>35.41</ele>
        <time>2020-07-10T13:25:01Z</time>
      </trkpt>
      <trkpt lat="47.80415" lon="-3.51513">
        <ele>35.41</ele>
        <time>2020-07-10T13:25:02Z</time>
      </trkpt>
      <trkpt lat="47.80415" lon="-3.51513">
        <ele>35.41</ele>
        <time>2020-07-10T13:25:03Z</time>
      </trkpt>
      <trkpt lat="47.80415" lon="-3.51513">
        <ele>35.41</ele>
        <time>2020-07-10T13:25:04Z</time>
      </trkpt>
      <trkpt lat="47.80415" lon="-3.51513">
        <ele>35.41</ele>
        <time>2020-07-10T13:25:05Z</time>
      </trkpt>
      <trkpt lat="47.80415" lon="-3.51513">
        <ele>35.41</ele>
        <time>2020-07-10T13:25:06Z</time>
      </trkpt>
      <trkpt lat="47.80415" lon="-3.51513">
        <ele>35.41</ele>
        <time>2020-07-10T13:25:07Z</time>
      </trkpt>
      <trkpt lat="47.80415" lon="-3.51513">
        <ele>35.41</ele>
        <time>2020-07-10T13:25:08Z</time>
      </trkpt>
      <trkpt lat="47.80415" lon="-3.51513">
        <ele>35.41</ele>
        <time>2020-07-10T13:25:09Z</time>
      </trkpt>
      <trkpt lat="47.80415" lon="-3.51513">
        <ele>35.41</ele>
        <time>2020-07-10T13:25:10Z</time>
      </trkpt>
      <trkpt lat="47.80415" lon="-3.51513">
        <ele>35.41</ele>
        <time>2020-07-10T13:25:11Z</time>
      </trkpt>
      <trkpt lat="47.80415" lon="-3.51513">
        <ele>35.41</ele>
        <time>2020-07-10T13:25:12Z</time>
      </trkpt>
      <trkpt lat="47.80415" lon="-3.51513">
        <ele>35.41</ele>
        <time>2020-07-10T13:25:13Z</time>
      </trkpt>
      <trkpt lat="47.80415" lon="-3.51513">
        <ele>35.41</ele>
        <time>2020-07-10T13:25:14Z</time>
      </trkpt>
      <trkpt lat="47.80415" lon="-3.51513">
        <ele>35.41</ele>
        <time>2020-07-10T13:25:15Z</time>
      </trkpt>
      <trkpt lat="47.80415" lon="-3.51513">
        <ele>35.41</ele>
        <time>2020-07-10T13:25:16Z</time>
      </trkpt>
      <trkpt lat="47.8041" lon="-3.51524">
        <ele>35.68</ele>
        <time>2020-07-10T13:25:17Z</time>
      </trkpt>
      <trkpt lat="47.80409" lon="-3.51525">
        <ele>35.76</ele>
        <time>2020-07-10T13:25:18Z</time>
      </trkpt>
      <trkpt lat="47.80409" lon="-3.51526">
        <ele>35.71</ele>
        <time>2020-07-10T13:25:19Z</time>
      </trkpt>
      <trkpt lat="47.80409" lon="-3.51526">
        <ele>35.72</ele>
        <time>2020-07-10T13:25:20Z</time>
      </trkpt>
      <trkpt lat="47.80409" lon="-3.51526">
        <ele>35.72</ele>
        <time>2020-07-10T13:25:21Z</time>
      </trkpt>
      <trkpt lat="47.80409" lon="-3.51526">
        <ele>35.72</ele>
        <time>2020-07-10T13:25:22Z</time>
      </trkpt>
      <trkpt lat="47.80409" lon="-3.51526">
        <ele>35.72</ele>
        <time>2020-07-10T13:25:23Z</time>
      </trkpt>
      <trkpt lat="47.80409" lon="-3.51526">
        <ele>35.72</ele>
        <time>2020-07-10T13:25:24Z</time>
      </trkpt>
      <trkpt lat="47.80409" lon="-3.51526">
        <ele>35.72</ele>
        <time>2020-07-10T13:25:25Z</time>
      </trkpt>
      <trkpt lat="47.80409" lon="-3.51526">
        <ele>35.72</ele>
        <time>2020-07-10T13:25:26Z</time>
      </trkpt>
      <trkpt lat="47.80409" lon="-3.51526">
        <ele>35.72</ele>
        <time>2020-07-10T13:25:27Z</time>
      </trkpt>
      <trkpt lat="47.80404" lon="-3.51537">
        <ele>35.96</ele>
        <time>2020-07-10T13:25:28Z</time>
      </trkpt>
      <trkpt lat="47.80404" lon="-3.5154">
        <ele>35.88</ele>
        <time>2020-07-10T13:25:29Z</time>
      </trkpt>
      <trkpt lat="47.80403" lon="-3.51543">
        <ele>35.81</ele>
        <time>2020-07-10T13:25:30Z</time>
      </trkpt>
      <trkpt lat="47.80402" lon="-3.51546">
        <ele>35.9</ele>
        <time>2020-07-10T13:25:31Z</time>
      </trkpt>
      <trkpt lat="47.80401" lon="-3.51547">
        <ele>36.04</ele>
        <time>2020-07-10T13:25:32Z</time>
      </trkpt>
      <trkpt lat="47.804" lon="-3.51549">
        <ele>36.26</ele>
        <time>2020-07-10T13:25:33Z</time>
      </trkpt>
      <trkpt lat="47.80399" lon="-3.51552">
        <ele>36.42</ele>
        <time>2020-07-10T13:25:34Z</time>
      </trkpt>
      <trkpt lat="47.80398" lon="-3.51555">
        <ele>36.52</ele>
        <time>2020-07-10T13:25:35Z</time>
      </trkpt>
      <trkpt lat="47.80397" lon="-3.51557">
        <ele>36.6</ele>
        <time>2020-07-10T13:25:36Z</time>
      </trkpt>
      <trkpt lat="47.80397" lon="-3.5156">
        <ele>36.68</ele>
        <time>2020-07-10T13:25:37Z</time>
      </trkpt>
      <trkpt lat="47.80397" lon="-3.51563">
        <ele>36.56</ele>
        <time>2020-07-10T13:25:38Z</time>
      </trkpt>
      <trkpt lat="47.80397" lon="-3.51565">
        <ele>36.41</ele>
        <time>2020-07-10T13:25:39Z</time>
      </trkpt>
      <trkpt lat="47.80396" lon="-3.51567">
        <ele>36.48</ele>
        <time>2020-07-10T13:25:40Z</time>
      </trkpt>
      <trkpt lat="47.80395" lon="-3.51569">
        <ele>36.73</ele>
        <time>2020-07-10T13:25:41Z</time>
      </trkpt>
      <trkpt lat="47.80395" lon="-3.51572">
        <ele>36.71</ele>
        <time>2020-07-10T13:25:42Z</time>
      </trkpt>
      <trkpt lat="47.80396" lon="-3.51576">
        <ele>36.5</ele>
        <time>2020-07-10T13:25:43Z</time>
      </trkpt>
      <trkpt lat="47.80396" lon="-3.51579">
        <ele>36.35</ele>
        <time>2020-07-10T13:25:44Z</time>
      </trkpt>
      <trkpt lat="47.80395" lon="-3.51581">
        <ele>36.28</ele>
        <time>2020-07-10T13:25:45Z</time>
      </trkpt>
      <trkpt lat="47.80395" lon="-3.51585">
        <ele>36.22</ele>
        <time>2020-07-10T13:25:46Z</time>
      </trkpt>
      <trkpt lat="47.80395" lon="-3.51588">
        <ele>36.21</ele>
        <time>2020-07-10T13:25:47Z</time>
      </trkpt>
      <trkpt lat="47.80396" lon="-3.51591">
        <ele>35.97</ele>
        <time>2020-07-10T13:25:48Z</time>
      </trkpt>
      <trkpt lat="47.80395" lon="-3.51595">
        <ele>35.94</ele>
        <time>2020-07-10T13:25:49Z</time>
      </trkpt>
      <trkpt lat="47.80395" lon="-3.51599">
        <ele>35.92</ele>
        <time>2020-07-10T13:25:50Z</time>
      </trkpt>
      <trkpt lat="47.80395" lon="-3.51602">
        <ele>36</ele>
        <time>2020-07-10T13:25:51Z</time>
      </trkpt>
      <trkpt lat="47.80394" lon="-3.51606">
        <ele>36.1</ele>
        <time>2020-07-10T13:25:52Z</time>
      </trkpt>
      <trkpt lat="47.80394" lon="-3.5161">
        <ele>36.16</ele>
        <time>2020-07-10T13:25:53Z</time>
      </trkpt>
      <trkpt lat="47.80394" lon="-3.51614">
        <ele>36.21</ele>
        <time>2020-07-10T13:25:54Z</time>
      </trkpt>
      <trkpt lat="47.80393" lon="-3.51617">
        <ele>36.46</ele>
        <time>2020-07-10T13:25:55Z</time>
      </trkpt>
      <trkpt lat="47.80393" lon="-3.5162">
        <ele>36.74</ele>
        <time>2020-07-10T13:25:56Z</time>
      </trkpt>
      <trkpt lat="47.80392" lon="-3.51623">
        <ele>36.98</ele>
        <time>2020-07-10T13:25:57Z</time>
      </trkpt>
      <trkpt lat="47.80392" lon="-3.51627">
        <ele>37.18</ele>
        <time>2020-07-10T13:25:58Z</time>
      </trkpt>
      <trkpt lat="47.80392" lon="-3.51631">
        <ele>37.32</ele>
        <time>2020-07-10T13:25:59Z</time>
      </trkpt>
      <trkpt lat="47.80393" lon="-3.51634">
        <ele>37.35</ele>
        <time>2020-07-10T13:26:00Z</time>
      </trkpt>
      <trkpt lat="47.80392" lon="-3.51638">
        <ele>37.61</ele>
        <time>2020-07-10T13:26:01Z</time>
      </trkpt>
      <trkpt lat="47.80392" lon="-3.51641">
        <ele>37.86</ele>
        <time>2020-07-10T13:26:02Z</time>
      </trkpt>
      <trkpt lat="47.80392" lon="-3.51644">
        <ele>38.02</ele>
        <time>2020-07-10T13:26:03Z</time>
      </trkpt>
      <trkpt lat="47.80392" lon="-3.51648">
        <ele>38.21</ele>
        <time>2020-07-10T13:26:04Z</time>
      </trkpt>
      <trkpt lat="47.80391" lon="-3.51651">
        <ele>38.4</ele>
        <time>2020-07-10T13:26:05Z</time>
      </trkpt>
      <trkpt lat="47.80391" lon="-3.51654">
        <ele>38.68</ele>
        <time>2020-07-10T13:26:06Z</time>
      </trkpt>
      <trkpt lat="47.8039" lon="-3.51657">
        <ele>39.11</ele>
        <time>2020-07-10T13:26:07Z</time>
      </trkpt>
      <trkpt lat="47.80389" lon="-3.51661">
        <ele>39.55</ele>
        <time>2020-07-10T13:26:08Z</time>
      </trkpt>
      <trkpt lat="47.80388" lon="-3.51664">
        <ele>39.89</ele>
        <time>2020-07-10T13:26:09Z</time>
      </trkpt>
      <trkpt lat="47.80387" lon="-3.51667">
        <ele>40.17</ele>
        <time>2020-07-10T13:26:10Z</time>
      </trkpt>
      <trkpt lat="47.80385" lon="-3.51669">
        <ele>40.32</ele>
        <time>2020-07-10T13:26:11Z</time>
      </trkpt>
      <trkpt lat="47.80384" lon="-3.51671">
        <ele>40.46</ele>
        <time>2020-07-10T13:26:12Z</time>
      </trkpt>
      <trkpt lat="47.80382" lon="-3.51674">
        <ele>40.6</ele>
        <time>2020-07-10T13:26:13Z</time>
      </trkpt>
      <trkpt lat="47.8038" lon="-3.51676">
        <ele>40.76</ele>
        <time>2020-07-10T13:26:14Z</time>
      </trkpt>
      <trkpt lat="47.80379" lon="-3.51679">
        <ele>40.85</ele>
        <time>2020-07-10T13:26:15Z</time>
      </trkpt>
      <trkpt lat="47.80377" lon="-3.51681">
        <ele>40.92</ele>
        <time>2020-07-10T13:26:16Z</time>
      </trkpt>
      <trkpt lat="47.80375" lon="-3.51683">
        <ele>41.02</ele>
        <time>2020-07-10T13:26:17Z</time>
      </trkpt>
      <trkpt lat="47.80372" lon="-3.51685">
        <ele>41.24</ele>
        <time>2020-07-10T13:26:18Z</time>
      </trkpt>
      <trkpt lat="47.8037" lon="-3.51687">
        <ele>41.45</ele>
        <time>2020-07-10T13:26:19Z</time>
      </trkpt>
      <trkpt lat="47.80368" lon="-3.51688">
        <ele>41.65</ele>
        <time>2020-07-10T13:26:20Z</time>
      </trkpt>
      <trkpt lat="47.80366" lon="-3.5169">
        <ele>41.77</ele>
        <time>2020-07-10T13:26:21Z</time>
      </trkpt>
      <trkpt lat="47.80364" lon="-3.51692">
        <ele>41.82</ele>
        <time>2020-07-10T13:26:22Z</time>
      </trkpt>
      <trkpt lat="47.80363" lon="-3.51694">
        <ele>41.85</ele>
        <time>2020-07-10T13:26:23Z</time>
      </trkpt>
      <trkpt lat="47.80361" lon="-3.51696">
        <ele>41.88</ele>
        <time>2020-07-10T13:26:24Z</time>
      </trkpt>
      <trkpt lat="47.8036" lon="-3.51698">
        <ele>41.78</ele>
        <time>2020-07-10T13:26:25Z</time>
      </trkpt>
      <trkpt lat="47.80357" lon="-3.517">
        <ele>41.65</ele>
        <time>2020-07-10T13:26:26Z</time>
      </trkpt>
      <trkpt lat="47.80355" lon="-3.51701">
        <ele>41.49</ele>
        <time>2020-07-10T13:26:27Z</time>
      </trkpt>
      <trkpt lat="47.80354" lon="-3.51703">
        <ele>41.3</ele>
        <time>2020-07-10T13:26:28Z</time>
      </trkpt>
      <trkpt lat="47.80352" lon="-3.51705">
        <ele>41.08</ele>
        <time>2020-07-10T13:26:29Z</time>
      </trkpt>
      <trkpt lat="47.80348" lon="-3.51707">
        <ele>40.83</ele>
        <time>2020-07-10T13:26:30Z</time>
      </trkpt>
      <trkpt lat="47.80344" lon="-3.51708">
        <ele>40.55</ele>
        <time>2020-07-10T13:26:31Z</time>
      </trkpt>
      <trkpt lat="47.8034" lon="-3.51708">
        <ele>40.31</ele>
        <time>2020-07-10T13:26:32Z</time>
      </trkpt>
      <trkpt lat="47.80335" lon="-3.51709">
        <ele>40.07</ele>
        <time>2020-07-10T13:26:33Z</time>
      </trkpt>
      <trkpt lat="47.80331" lon="-3.51709">
        <ele>39.94</ele>
        <time>2020-07-10T13:26:34Z</time>
      </trkpt>
      <trkpt lat="47.80326" lon="-3.51708">
        <ele>39.96</ele>
        <time>2020-07-10T13:26:35Z</time>
      </trkpt>
      <trkpt lat="47.80322" lon="-3.51706">
        <ele>40.03</ele>
        <time>2020-07-10T13:26:36Z</time>
      </trkpt>
      <trkpt lat="47.80318" lon="-3.51705">
        <ele>40.13</ele>
        <time>2020-07-10T13:26:37Z</time>
      </trkpt>
      <trkpt lat="47.80315" lon="-3.51704">
        <ele>40.19</ele>
        <time>2020-07-10T13:26:38Z</time>
      </trkpt>
      <trkpt lat="47.80311" lon="-3.51702">
        <ele>40.27</ele>
        <time>2020-07-10T13:26:39Z</time>
      </trkpt>
      <trkpt lat="47.80307" lon="-3.51701">
        <ele>40.35</ele>
        <time>2020-07-10T13:26:40Z</time>
      </trkpt>
      <trkpt lat="47.80304" lon="-3.517">
        <ele>40.39</ele>
        <time>2020-07-10T13:26:41Z</time>
      </trkpt>
      <trkpt lat="47.80301" lon="-3.51698">
        <ele>40.54</ele>
        <time>2020-07-10T13:26:42Z</time>
      </trkpt>
      <trkpt lat="47.80298" lon="-3.51697">
        <ele>40.69</ele>
        <time>2020-07-10T13:26:43Z</time>
      </trkpt>
      <trkpt lat="47.80295" lon="-3.51696">
        <ele>40.8</ele>
        <time>2020-07-10T13:26:44Z</time>
      </trkpt>
      <trkpt lat="47.80292" lon="-3.51695">
        <ele>40.88</ele>
        <time>2020-07-10T13:26:45Z</time>
      </trkpt>
      <trkpt lat="47.80289" lon="-3.51695">
        <ele>40.94</ele>
        <time>2020-07-10T13:26:46Z</time>
      </trkpt>
      <trkpt lat="47.80286" lon="-3.51694">
        <ele>41.02</ele>
        <time>2020-07-10T13:26:47Z</time>
      </trkpt>
      <trkpt lat="47.80281" lon="-3.51693">
        <ele>41.08</ele>
        <time>2020-07-10T13:26:48Z</time>
      </trkpt>
      <trkpt lat="47.80277" lon="-3.51692">
        <ele>41.12</ele>
        <time>2020-07-10T13:26:49Z</time>
      </trkpt>
      <trkpt lat="47.80274" lon="-3.5169">
        <ele>40.85</ele>
        <time>2020-07-10T13:26:50Z</time>
      </trkpt>
      <trkpt lat="47.80271" lon="-3.51688">
        <ele>40.58</ele>
        <time>2020-07-10T13:26:51Z</time>
      </trkpt>
      <trkpt lat="47.80267" lon="-3.51687">
        <ele>40.26</ele>
        <time>2020-07-10T13:26:52Z</time>
      </trkpt>
      <trkpt lat="47.80264" lon="-3.51686">
        <ele>39.96</ele>
        <time>2020-07-10T13:26:53Z</time>
      </trkpt>
      <trkpt lat="47.8026" lon="-3.51684">
        <ele>39.59</ele>
        <time>2020-07-10T13:26:54Z</time>
      </trkpt>
      <trkpt lat="47.80255" lon="-3.51684">
        <ele>39.02</ele>
        <time>2020-07-10T13:26:55Z</time>
      </trkpt>
      <trkpt lat="47.80248" lon="-3.51684">
        <ele>38.3</ele>
        <time>2020-07-10T13:26:56Z</time>
      </trkpt>
      <trkpt lat="47.80243" lon="-3.51684">
        <ele>37.69</ele>
        <time>2020-07-10T13:26:57Z</time>
      </trkpt>
      <trkpt lat="47.80237" lon="-3.51686">
        <ele>37</ele>
        <time>2020-07-10T13:26:58Z</time>
      </trkpt>
      <trkpt lat="47.80231" lon="-3.51688">
        <ele>36.14</ele>
        <time>2020-07-10T13:26:59Z</time>
      </trkpt>
      <trkpt lat="47.80224" lon="-3.5169">
        <ele>35.18</ele>
        <time>2020-07-10T13:27:00Z</time>
      </trkpt>
      <trkpt lat="47.80217" lon="-3.51694">
        <ele>34.43</ele>
        <time>2020-07-10T13:27:01Z</time>
      </trkpt>
      <trkpt lat="47.80211" lon="-3.51696">
        <ele>34.02</ele>
        <time>2020-07-10T13:27:02Z</time>
      </trkpt>
      <trkpt lat="47.80205" lon="-3.51697">
        <ele>33.85</ele>
        <time>2020-07-10T13:27:03Z</time>
      </trkpt>
      <trkpt lat="47.802" lon="-3.51696">
        <ele>33.86</ele>
        <time>2020-07-10T13:27:04Z</time>
      </trkpt>
      <trkpt lat="47.80195" lon="-3.51693">
        <ele>34.07</ele>
        <time>2020-07-10T13:27:05Z</time>
      </trkpt>
      <trkpt lat="47.80191" lon="-3.51691">
        <ele>34.48</ele>
        <time>2020-07-10T13:27:06Z</time>
      </trkpt>
      <trkpt lat="47.80186" lon="-3.5169">
        <ele>34.86</ele>
        <time>2020-07-10T13:27:07Z</time>
      </trkpt>
      <trkpt lat="47.80181" lon="-3.51689">
        <ele>35.24</ele>
        <time>2020-07-10T13:27:08Z</time>
      </trkpt>
      <trkpt lat="47.80176" lon="-3.51687">
        <ele>35.59</ele>
        <time>2020-07-10T13:27:09Z</time>
      </trkpt>
      <trkpt lat="47.80173" lon="-3.51686">
        <ele>35.88</ele>
        <time>2020-07-10T13:27:10Z</time>
      </trkpt>
      <trkpt lat="47.80169" lon="-3.51684">
        <ele>36.13</ele>
        <time>2020-07-10T13:27:11Z</time>
      </trkpt>
      <trkpt lat="47.80165" lon="-3.51684">
        <ele>36.32</ele>
        <time>2020-07-10T13:27:12Z</time>
      </trkpt>
      <trkpt lat="47.80162" lon="-3.51683">
        <ele>36.46</ele>
        <time>2020-07-10T13:27:13Z</time>
      </trkpt>
      <trkpt lat="47.80159" lon="-3.51681">
        <ele>36.57</ele>
        <time>2020-07-10T13:27:14Z</time>
      </trkpt>
      <trkpt lat="47.80155" lon="-3.5168">
        <ele>36.68</ele>
        <time>2020-07-10T13:27:15Z</time>
      </trkpt>
      <trkpt lat="47.80151" lon="-3.51678">
        <ele>36.78</ele>
        <time>2020-07-10T13:27:16Z</time>
      </trkpt>
      <trkpt lat="47.80146" lon="-3.51678">
        <ele>36.86</ele>
        <time>2020-07-10T13:27:17Z</time>
      </trkpt>
      <trkpt lat="47.80143" lon="-3.51678">
        <ele>36.92</ele>
        <time>2020-07-10T13:27:18Z</time>
      </trkpt>
      <trkpt lat="47.8014" lon="-3.5168">
        <ele>36.96</ele>
        <time>2020-07-10T13:27:19Z</time>
      </trkpt>
      <trkpt lat="47.80139" lon="-3.51682">
        <ele>36.99</ele>
        <time>2020-07-10T13:27:20Z</time>
      </trkpt>
      <trkpt lat="47.80138" lon="-3.51682">
        <ele>37.01</ele>
        <time>2020-07-10T13:27:21Z</time>
      </trkpt>
      <trkpt lat="47.80138" lon="-3.51686">
        <ele>37.03</ele>
        <time>2020-07-10T13:27:22Z</time>
      </trkpt>
      <trkpt lat="47.80137" lon="-3.5169">
        <ele>37.04</ele>
        <time>2020-07-10T13:27:23Z</time>
      </trkpt>
      <trkpt lat="47.80137" lon="-3.51693">
        <ele>37.06</ele>
        <time>2020-07-10T13:27:24Z</time>
      </trkpt>
      <trkpt lat="47.80136" lon="-3.51697">
        <ele>37.1</ele>
        <time>2020-07-10T13:27:25Z</time>
      </trkpt>
      <trkpt lat="47.80135" lon="-3.517">
        <ele>37.15</ele>
        <time>2020-07-10T13:27:26Z</time>
      </trkpt>
      <trkpt lat="47.80134" lon="-3.51702">
        <ele>37.21</ele>
        <time>2020-07-10T13:27:27Z</time>
      </trkpt>
      <trkpt lat="47.80133" lon="-3.51704">
        <ele>37.28</ele>
        <time>2020-07-10T13:27:28Z</time>
      </trkpt>
      <trkpt lat="47.80132" lon="-3.51708">
        <ele>37.36</ele>
        <time>2020-07-10T13:27:29Z</time>
      </trkpt>
      <trkpt lat="47.8013" lon="-3.51711">
        <ele>37.45</ele>
        <time>2020-07-10T13:27:30Z</time>
      </trkpt>
      <trkpt lat="47.80129" lon="-3.51715">
        <ele>37.54</ele>
        <time>2020-07-10T13:27:31Z</time>
      </trkpt>
      <trkpt lat="47.80129" lon="-3.51719">
        <ele>37.65</ele>
        <time>2020-07-10T13:27:32Z</time>
      </trkpt>
      <trkpt lat="47.80128" lon="-3.51723">
        <ele>37.74</ele>
        <time>2020-07-10T13:27:33Z</time>
      </trkpt>
      <trkpt lat="47.80127" lon="-3.51727">
        <ele>37.74</ele>
        <time>2020-07-10T13:27:34Z</time>
      </trkpt>
      <trkpt lat="47.80126" lon="-3.51731">
        <ele>37.75</ele>
        <time>2020-07-10T13:27:35Z</time>
      </trkpt>
      <trkpt lat="47.80125" lon="-3.51734">
        <ele>37.77</ele>
        <time>2020-07-10T13:27:36Z</time>
      </trkpt>
      <trkpt lat="47.80125" lon="-3.51737">
        <ele>37.76</ele>
        <time>2020-07-10T13:27:37Z</time>
      </trkpt>
      <trkpt lat="47.80124" lon="-3.5174">
        <ele>37.79</ele>
        <time>2020-07-10T13:27:38Z</time>
      </trkpt>
      <trkpt lat="47.80122" lon="-3.51743">
        <ele>37.85</ele>
        <time>2020-07-10T13:27:39Z</time>
      </trkpt>
      <trkpt lat="47.8012" lon="-3.51746">
        <ele>37.99</ele>
        <time>2020-07-10T13:27:40Z</time>
      </trkpt>
      <trkpt lat="47.80119" lon="-3.51749">
        <ele>38.12</ele>
        <time>2020-07-10T13:27:41Z</time>
      </trkpt>
      <trkpt lat="47.80117" lon="-3.51751">
        <ele>38.23</ele>
        <time>2020-07-10T13:27:42Z</time>
      </trkpt>
      <trkpt lat="47.80117" lon="-3.51753">
        <ele>38.27</ele>
        <time>2020-07-10T13:27:43Z</time>
      </trkpt>
      <trkpt lat="47.80116" lon="-3.51755">
        <ele>38.31</ele>
        <time>2020-07-10T13:27:44Z</time>
      </trkpt>
      <trkpt lat="47.80113" lon="-3.51758">
        <ele>38.43</ele>
        <time>2020-07-10T13:27:45Z</time>
      </trkpt>
      <trkpt lat="47.8011" lon="-3.51762">
        <ele>38.55</ele>
        <time>2020-07-10T13:27:46Z</time>
      </trkpt>
      <trkpt lat="47.80107" lon="-3.51766">
        <ele>38.55</ele>
        <time>2020-07-10T13:27:47Z</time>
      </trkpt>
      <trkpt lat="47.80106" lon="-3.51772">
        <ele>38.46</ele>
        <time>2020-07-10T13:27:48Z</time>
      </trkpt>
      <trkpt lat="47.80103" lon="-3.51776">
        <ele>38.36</ele>
        <time>2020-07-10T13:27:49Z</time>
      </trkpt>
      <trkpt lat="47.801" lon="-3.51781">
        <ele>38.11</ele>
        <time>2020-07-10T13:27:50Z</time>
      </trkpt>
      <trkpt lat="47.80097" lon="-3.51786">
        <ele>37.75</ele>
        <time>2020-07-10T13:27:51Z</time>
      </trkpt>
      <trkpt lat="47.80092" lon="-3.51792">
        <ele>37.36</ele>
        <time>2020-07-10T13:27:52Z</time>
      </trkpt>
      <trkpt lat="47.80087" lon="-3.51797">
        <ele>36.98</ele>
        <time>2020-07-10T13:27:53Z</time>
      </trkpt>
      <trkpt lat="47.80082" lon="-3.51802">
        <ele>36.52</ele>
        <time>2020-07-10T13:27:54Z</time>
      </trkpt>
      <trkpt lat="47.80077" lon="-3.51807">
        <ele>36.02</ele>
        <time>2020-07-10T13:27:55Z</time>
      </trkpt>
      <trkpt lat="47.80073" lon="-3.51811">
        <ele>35.42</ele>
        <time>2020-07-10T13:27:56Z</time>
      </trkpt>
      <trkpt lat="47.80069" lon="-3.51815">
        <ele>34.77</ele>
        <time>2020-07-10T13:27:57Z</time>
      </trkpt>
      <trkpt lat="47.80065" lon="-3.51818">
        <ele>34.19</ele>
        <time>2020-07-10T13:27:58Z</time>
      </trkpt>
      <trkpt lat="47.80061" lon="-3.5182">
        <ele>33.73</ele>
        <time>2020-07-10T13:27:59Z</time>
      </trkpt>
      <trkpt lat="47.80058" lon="-3.51822">
        <ele>33.28</ele>
        <time>2020-07-10T13:28:00Z</time>
      </trkpt>
      <trkpt lat="47.80054" lon="-3.51824">
        <ele>32.87</ele>
        <time>2020-07-10T13:28:01Z</time>
      </trkpt>
      <trkpt lat="47.8005" lon="-3.51824">
        <ele>32.65</ele>
        <time>2020-07-10T13:28:02Z</time>
      </trkpt>
      <trkpt lat="47.80047" lon="-3.51824">
        <ele>32.46</ele>
        <time>2020-07-10T13:28:03Z</time>
      </trkpt>
      <trkpt lat="47.80044" lon="-3.51823">
        <ele>32.42</ele>
        <time>2020-07-10T13:28:04Z</time>
      </trkpt>
      <trkpt lat="47.8004" lon="-3.51822">
        <ele>32.53</ele>
        <time>2020-07-10T13:28:05Z</time>
      </trkpt>
      <trkpt lat="47.80037" lon="-3.5182">
        <ele>32.67</ele>
        <time>2020-07-10T13:28:06Z</time>
      </trkpt>
      <trkpt lat="47.80034" lon="-3.51818">
        <ele>32.92</ele>
        <time>2020-07-10T13:28:07Z</time>
      </trkpt>
      <trkpt lat="47.80031" lon="-3.51816">
        <ele>33.12</ele>
        <time>2020-07-10T13:28:08Z</time>
      </trkpt>
      <trkpt lat="47.80028" lon="-3.51814">
        <ele>33.37</ele>
        <time>2020-07-10T13:28:09Z</time>
      </trkpt>
      <trkpt lat="47.80026" lon="-3.51812">
        <ele>33.7</ele>
        <time>2020-07-10T13:28:10Z</time>
      </trkpt>
      <trkpt lat="47.80023" lon="-3.5181">
        <ele>34.05</ele>
        <time>2020-07-10T13:28:11Z</time>
      </trkpt>
      <trkpt lat="47.8002" lon="-3.51808">
        <ele>34.47</ele>
        <time>2020-07-10T13:28:12Z</time>
      </trkpt>
      <trkpt lat="47.80017" lon="-3.51805">
        <ele>34.87</ele>
        <time>2020-07-10T13:28:13Z</time>
      </trkpt>
      <trkpt lat="47.80013" lon="-3.51803">
        <ele>35.25</ele>
        <time>2020-07-10T13:28:14Z</time>
      </trkpt>
      <trkpt lat="47.8001" lon="-3.51801">
        <ele>35.61</ele>
        <time>2020-07-10T13:28:15Z</time>
      </trkpt>
      <trkpt lat="47.80007" lon="-3.51799">
        <ele>36.01</ele>
        <time>2020-07-10T13:28:16Z</time>
      </trkpt>
      <trkpt lat="47.80004" lon="-3.51796">
        <ele>36.43</ele>
        <time>2020-07-10T13:28:17Z</time>
      </trkpt>
      <trkpt lat="47.80002" lon="-3.51795">
        <ele>36.78</ele>
        <time>2020-07-10T13:28:18Z</time>
      </trkpt>
      <trkpt lat="47.79999" lon="-3.51793">
        <ele>37.14</ele>
        <time>2020-07-10T13:28:19Z</time>
      </trkpt>
      <trkpt lat="47.79997" lon="-3.51791">
        <ele>37.52</ele>
        <time>2020-07-10T13:28:20Z</time>
      </trkpt>
      <trkpt lat="47.79994" lon="-3.5179">
        <ele>37.85</ele>
        <time>2020-07-10T13:28:21Z</time>
      </trkpt>
      <trkpt lat="47.79992" lon="-3.51789">
        <ele>38.11</ele>
        <time>2020-07-10T13:28:22Z</time>
      </trkpt>
      <trkpt lat="47.7999" lon="-3.51788">
        <ele>38.36</ele>
        <time>2020-07-10T13:28:23Z</time>
      </trkpt>
      <trkpt lat="47.79987" lon="-3.51788">
        <ele>38.57</ele>
        <time>2020-07-10T13:28:24Z</time>
      </trkpt>
      <trkpt lat="47.79984" lon="-3.51788">
        <ele>38.68</ele>
        <time>2020-07-10T13:28:25Z</time>
      </trkpt>
      <trkpt lat="47.79982" lon="-3.51788">
        <ele>38.76</ele>
        <time>2020-07-10T13:28:26Z</time>
      </trkpt>
      <trkpt lat="47.79981" lon="-3.51788">
        <ele>38.88</ele>
        <time>2020-07-10T13:28:27Z</time>
      </trkpt>
      <trkpt lat="47.79979" lon="-3.51787">
        <ele>39.01</ele>
        <time>2020-07-10T13:28:28Z</time>
      </trkpt>
      <trkpt lat="47.79977" lon="-3.51787">
        <ele>39.11</ele>
        <time>2020-07-10T13:28:29Z</time>
      </trkpt>
      <trkpt lat="47.79975" lon="-3.51787">
        <ele>39.24</ele>
        <time>2020-07-10T13:28:30Z</time>
      </trkpt>
      <trkpt lat="47.79973" lon="-3.51786">
        <ele>39.38</ele>
        <time>2020-07-10T13:28:31Z</time>
      </trkpt>
      <trkpt lat="47.7997" lon="-3.51786">
        <ele>39.48</ele>
        <time>2020-07-10T13:28:32Z</time>
      </trkpt>
      <trkpt lat="47.79968" lon="-3.51786">
        <ele>39.55</ele>
        <time>2020-07-10T13:28:33Z</time>
      </trkpt>
      <trkpt lat="47.79965" lon="-3.51786">
        <ele>39.49</ele>
        <time>2020-07-10T13:28:34Z</time>
      </trkpt>
      <trkpt lat="47.79963" lon="-3.51787">
        <ele>39.43</ele>
        <time>2020-07-10T13:28:35Z</time>
      </trkpt>
      <trkpt lat="47.79961" lon="-3.51787">
        <ele>39.32</ele>
        <time>2020-07-10T13:28:36Z</time>
      </trkpt>
      <trkpt lat="47.79959" lon="-3.51788">
        <ele>39.27</ele>
        <time>2020-07-10T13:28:37Z</time>
      </trkpt>
      <trkpt lat="47.79957" lon="-3.51787">
        <ele>39.28</ele>
        <time>2020-07-10T13:28:38Z</time>
      </trkpt>
      <trkpt lat="47.79954" lon="-3.51787">
        <ele>39.3</ele>
        <time>2020-07-10T13:28:39Z</time>
      </trkpt>
      <trkpt lat="47.79952" lon="-3.51787">
        <ele>39.35</ele>
        <time>2020-07-10T13:28:40Z</time>
      </trkpt>
      <trkpt lat="47.79949" lon="-3.51786">
        <ele>39.47</ele>
        <time>2020-07-10T13:28:41Z</time>
      </trkpt>
      <trkpt lat="47.79945" lon="-3.51786">
        <ele>39.53</ele>
        <time>2020-07-10T13:28:42Z</time>
      </trkpt>
      <trkpt lat="47.79942" lon="-3.51786">
        <ele>39.64</ele>
        <time>2020-07-10T13:28:43Z</time>
      </trkpt>
      <trkpt lat="47.79939" lon="-3.51786">
        <ele>39.79</ele>
        <time>2020-07-10T13:28:44Z</time>
      </trkpt>
      <trkpt lat="47.79937" lon="-3.51787">
        <ele>39.88</ele>
        <time>2020-07-10T13:28:45Z</time>
      </trkpt>
      <trkpt lat="47.79935" lon="-3.51787">
        <ele>40.01</ele>
        <time>2020-07-10T13:28:46Z</time>
      </trkpt>
      <trkpt lat="47.79932" lon="-3.51788">
        <ele>40.13</ele>
        <time>2020-07-10T13:28:47Z</time>
      </trkpt>
      <trkpt lat="47.79928" lon="-3.51788">
        <ele>40.3</ele>
        <time>2020-07-10T13:28:48Z</time>
      </trkpt>
      <trkpt lat="47.79925" lon="-3.51789">
        <ele>40.38</ele>
        <time>2020-07-10T13:28:49Z</time>
      </trkpt>
      <trkpt lat="47.79922" lon="-3.5179">
        <ele>40.39</ele>
        <time>2020-07-10T13:28:50Z</time>
      </trkpt>
      <trkpt lat="47.79919" lon="-3.51792">
        <ele>40.38</ele>
        <time>2020-07-10T13:28:51Z</time>
      </trkpt>
      <trkpt lat="47.79915" lon="-3.51794">
        <ele>40.21</ele>
        <time>2020-07-10T13:28:52Z</time>
      </trkpt>
      <trkpt lat="47.79912" lon="-3.51797">
        <ele>39.94</ele>
        <time>2020-07-10T13:28:53Z</time>
      </trkpt>
      <trkpt lat="47.79909" lon="-3.51799">
        <ele>39.69</ele>
        <time>2020-07-10T13:28:54Z</time>
      </trkpt>
      <trkpt lat="47.79905" lon="-3.51802">
        <ele>39.51</ele>
        <time>2020-07-10T13:28:55Z</time>
      </trkpt>
      <trkpt lat="47.79902" lon="-3.51804">
        <ele>39.36</ele>
        <time>2020-07-10T13:28:56Z</time>
      </trkpt>
      <trkpt lat="47.79899" lon="-3.51806">
        <ele>39.3</ele>
        <time>2020-07-10T13:28:57Z</time>
      </trkpt>
      <trkpt lat="47.79895" lon="-3.51809">
        <ele>39.22</ele>
        <time>2020-07-10T13:28:58Z</time>
      </trkpt>
      <trkpt lat="47.7989" lon="-3.51813">
        <ele>39.15</ele>
        <time>2020-07-10T13:28:59Z</time>
      </trkpt>
      <trkpt lat="47.79886" lon="-3.51815">
        <ele>39.02</ele>
        <time>2020-07-10T13:29:00Z</time>
      </trkpt>
      <trkpt lat="47.79881" lon="-3.51819">
        <ele>38.82</ele>
        <time>2020-07-10T13:29:01Z</time>
      </trkpt>
      <trkpt lat="47.79877" lon="-3.51821">
        <ele>38.64</ele>
        <time>2020-07-10T13:29:02Z</time>
      </trkpt>
      <trkpt lat="47.79873" lon="-3.51825">
        <ele>38.41</ele>
        <time>2020-07-10T13:29:03Z</time>
      </trkpt>
      <trkpt lat="47.79869" lon="-3.51828">
        <ele>38.22</ele>
        <time>2020-07-10T13:29:04Z</time>
      </trkpt>
      <trkpt lat="47.79864" lon="-3.51831">
        <ele>38.14</ele>
        <time>2020-07-10T13:29:05Z</time>
      </trkpt>
      <trkpt lat="47.7986" lon="-3.51834">
        <ele>38.05</ele>
        <time>2020-07-10T13:29:06Z</time>
      </trkpt>
      <trkpt lat="47.79856" lon="-3.51837">
        <ele>37.95</ele>
        <time>2020-07-10T13:29:07Z</time>
      </trkpt>
      <trkpt lat="47.79853" lon="-3.51841">
        <ele>37.88</ele>
        <time>2020-07-10T13:29:08Z</time>
      </trkpt>
      <trkpt lat="47.79849" lon="-3.51844">
        <ele>37.84</ele>
        <time>2020-07-10T13:29:09Z</time>
      </trkpt>
      <trkpt lat="47.79846" lon="-3.51847">
        <ele>37.84</ele>
        <time>2020-07-10T13:29:10Z</time>
      </trkpt>
      <trkpt lat="47.79842" lon="-3.51851">
        <ele>37.87</ele>
        <time>2020-07-10T13:29:11Z</time>
      </trkpt>
      <trkpt lat="47.79838" lon="-3.51854">
        <ele>37.95</ele>
        <time>2020-07-10T13:29:12Z</time>
      </trkpt>
      <trkpt lat="47.79834" lon="-3.51857">
        <ele>38.07</ele>
        <time>2020-07-10T13:29:13Z</time>
      </trkpt>
      <trkpt lat="47.7983" lon="-3.5186">
        <ele>38.22</ele>
        <time>2020-07-10T13:29:14Z</time>
      </trkpt>
      <trkpt lat="47.79826" lon="-3.51864">
        <ele>38.36</ele>
        <time>2020-07-10T13:29:15Z</time>
      </trkpt>
      <trkpt lat="47.79821" lon="-3.51867">
        <ele>38.53</ele>
        <time>2020-07-10T13:29:16Z</time>
      </trkpt>
      <trkpt lat="47.79815" lon="-3.5187">
        <ele>38.69</ele>
        <time>2020-07-10T13:29:17Z</time>
      </trkpt>
      <trkpt lat="47.7981" lon="-3.51873">
        <ele>38.87</ele>
        <time>2020-07-10T13:29:18Z</time>
      </trkpt>
      <trkpt lat="47.79803" lon="-3.51875">
        <ele>38.98</ele>
        <time>2020-07-10T13:29:19Z</time>
      </trkpt>
      <trkpt lat="47.79797" lon="-3.51878">
        <ele>38.95</ele>
        <time>2020-07-10T13:29:20Z</time>
      </trkpt>
      <trkpt lat="47.79791" lon="-3.5188">
        <ele>38.83</ele>
        <time>2020-07-10T13:29:21Z</time>
      </trkpt>
      <trkpt lat="47.79785" lon="-3.51883">
        <ele>38.68</ele>
        <time>2020-07-10T13:29:22Z</time>
      </trkpt>
      <trkpt lat="47.79779" lon="-3.51885">
        <ele>38.52</ele>
        <time>2020-07-10T13:29:23Z</time>
      </trkpt>
      <trkpt lat="47.79774" lon="-3.51886">
        <ele>38.45</ele>
        <time>2020-07-10T13:29:24Z</time>
      </trkpt>
      <trkpt lat="47.7977" lon="-3.51888">
        <ele>38.37</ele>
        <time>2020-07-10T13:29:25Z</time>
      </trkpt>
      <trkpt lat="47.79767" lon="-3.51889">
        <ele>38.36</ele>
        <time>2020-07-10T13:29:26Z</time>
      </trkpt>
      <trkpt lat="47.79763" lon="-3.5189">
        <ele>38.42</ele>
        <time>2020-07-10T13:29:27Z</time>
      </trkpt>
      <trkpt lat="47.79761" lon="-3.51891">
        <ele>38.35</ele>
        <time>2020-07-10T13:29:28Z</time>
      </trkpt>
      <trkpt lat="47.79759" lon="-3.51892">
        <ele>38.23</ele>
        <time>2020-07-10T13:29:29Z</time>
      </trkpt>
      <trkpt lat="47.79757" lon="-3.51894">
        <ele>38.12</ele>
        <time>2020-07-10T13:29:30Z</time>
      </trkpt>
      <trkpt lat="47.79754" lon="-3.51895">
        <ele>38</ele>
        <time>2020-07-10T13:29:31Z</time>
      </trkpt>
      <trkpt lat="47.79752" lon="-3.51897">
        <ele>37.79</ele>
        <time>2020-07-10T13:29:32Z</time>
      </trkpt>
      <trkpt lat="47.79749" lon="-3.51901">
        <ele>37.53</ele>
        <time>2020-07-10T13:29:33Z</time>
      </trkpt>
      <trkpt lat="47.79747" lon="-3.51904">
        <ele>37.27</ele>
        <time>2020-07-10T13:29:34Z</time>
      </trkpt>
      <trkpt lat="47.79744" lon="-3.51907">
        <ele>37.18</ele>
        <time>2020-07-10T13:29:35Z</time>
      </trkpt>
      <trkpt lat="47.79741" lon="-3.5191">
        <ele>37.13</ele>
        <time>2020-07-10T13:29:36Z</time>
      </trkpt>
      <trkpt lat="47.79738" lon="-3.51913">
        <ele>37.19</ele>
        <time>2020-07-10T13:29:37Z</time>
      </trkpt>
      <trkpt lat="47.79734" lon="-3.51915">
        <ele>37.43</ele>
        <time>2020-07-10T13:29:38Z</time>
      </trkpt>
      <trkpt lat="47.79729" lon="-3.51917">
        <ele>37.8</ele>
        <time>2020-07-10T13:29:39Z</time>
      </trkpt>
      <trkpt lat="47.79726" lon="-3.51918">
        <ele>38.09</ele>
        <time>2020-07-10T13:29:40Z</time>
      </trkpt>
      <trkpt lat="47.79722" lon="-3.51921">
        <ele>38.18</ele>
        <time>2020-07-10T13:29:41Z</time>
      </trkpt>
      <trkpt lat="47.79719" lon="-3.51924">
        <ele>38.16</ele>
        <time>2020-07-10T13:29:42Z</time>
      </trkpt>
      <trkpt lat="47.79716" lon="-3.51926">
        <ele>38.22</ele>
        <time>2020-07-10T13:29:43Z</time>
      </trkpt>
      <trkpt lat="47.79712" lon="-3.51927">
        <ele>38.51</ele>
        <time>2020-07-10T13:29:44Z</time>
      </trkpt>
      <trkpt lat="47.79709" lon="-3.51929">
        <ele>38.79</ele>
        <time>2020-07-10T13:29:45Z</time>
      </trkpt>
      <trkpt lat="47.79706" lon="-3.51932">
        <ele>38.86</ele>
        <time>2020-07-10T13:29:46Z</time>
      </trkpt>
      <trkpt lat="47.79704" lon="-3.51936">
        <ele>38.87</ele>
        <time>2020-07-10T13:29:47Z</time>
      </trkpt>
      <trkpt lat="47.79702" lon="-3.5194">
        <ele>38.88</ele>
        <time>2020-07-10T13:29:48Z</time>
      </trkpt>
      <trkpt lat="47.79699" lon="-3.51945">
        <ele>38.92</ele>
        <time>2020-07-10T13:29:49Z</time>
      </trkpt>
      <trkpt lat="47.79696" lon="-3.5195">
        <ele>38.77</ele>
        <time>2020-07-10T13:29:50Z</time>
      </trkpt>
      <trkpt lat="47.79693" lon="-3.51956">
        <ele>38.62</ele>
        <time>2020-07-10T13:29:51Z</time>
      </trkpt>
      <trkpt lat="47.79689" lon="-3.51962">
        <ele>38.49</ele>
        <time>2020-07-10T13:29:52Z</time>
      </trkpt>
      <trkpt lat="47.79686" lon="-3.51966">
        <ele>38.55</ele>
        <time>2020-07-10T13:29:53Z</time>
      </trkpt>
      <trkpt lat="47.79681" lon="-3.5197">
        <ele>38.9</ele>
        <time>2020-07-10T13:29:54Z</time>
      </trkpt>
      <trkpt lat="47.79677" lon="-3.51972">
        <ele>39.45</ele>
        <time>2020-07-10T13:29:55Z</time>
      </trkpt>
      <trkpt lat="47.79674" lon="-3.51973">
        <ele>40.05</ele>
        <time>2020-07-10T13:29:56Z</time>
      </trkpt>
      <trkpt lat="47.7967" lon="-3.51975">
        <ele>40.58</ele>
        <time>2020-07-10T13:29:57Z</time>
      </trkpt>
      <trkpt lat="47.79667" lon="-3.51976">
        <ele>41.11</ele>
        <time>2020-07-10T13:29:58Z</time>
      </trkpt>
      <trkpt lat="47.79664" lon="-3.51979">
        <ele>41.25</ele>
        <time>2020-07-10T13:29:59Z</time>
      </trkpt>
      <trkpt lat="47.79661" lon="-3.5198">
        <ele>41.35</ele>
        <time>2020-07-10T13:30:00Z</time>
      </trkpt>
      <trkpt lat="47.79657" lon="-3.51983">
        <ele>41.32</ele>
        <time>2020-07-10T13:30:01Z</time>
      </trkpt>
      <trkpt lat="47.79654" lon="-3.51987">
        <ele>41.28</ele>
        <time>2020-07-10T13:30:02Z</time>
      </trkpt>
      <trkpt lat="47.7965" lon="-3.51992">
        <ele>41.23</ele>
        <time>2020-07-10T13:30:03Z</time>
      </trkpt>
      <trkpt lat="47.79647" lon="-3.51996">
        <ele>41.21</ele>
        <time>2020-07-10T13:30:04Z</time>
      </trkpt>
      <trkpt lat="47.79642" lon="-3.52002">
        <ele>41.23</ele>
        <time>2020-07-10T13:30:05Z</time>
      </trkpt>
      <trkpt lat="47.79638" lon="-3.52007">
        <ele>41.25</ele>
        <time>2020-07-10T13:30:06Z</time>
      </trkpt>
      <trkpt lat="47.79635" lon="-3.52011">
        <ele>40.96</ele>
        <time>2020-07-10T13:30:07Z</time>
      </trkpt>
      <trkpt lat="47.79632" lon="-3.52015">
        <ele>40.53</ele>
        <time>2020-07-10T13:30:08Z</time>
      </trkpt>
      <trkpt lat="47.79628" lon="-3.52021">
        <ele>39.98</ele>
        <time>2020-07-10T13:30:09Z</time>
      </trkpt>
      <trkpt lat="47.79625" lon="-3.52029">
        <ele>39.23</ele>
        <time>2020-07-10T13:30:10Z</time>
      </trkpt>
      <trkpt lat="47.79622" lon="-3.52036">
        <ele>38.48</ele>
        <time>2020-07-10T13:30:11Z</time>
      </trkpt>
      <trkpt lat="47.79619" lon="-3.52047">
        <ele>37.61</ele>
        <time>2020-07-10T13:30:12Z</time>
      </trkpt>
      <trkpt lat="47.79617" lon="-3.52056">
        <ele>36.86</ele>
        <time>2020-07-10T13:30:13Z</time>
      </trkpt>
      <trkpt lat="47.79614" lon="-3.52065">
        <ele>36.32</ele>
        <time>2020-07-10T13:30:14Z</time>
      </trkpt>
      <trkpt lat="47.79611" lon="-3.52074">
        <ele>35.88</ele>
        <time>2020-07-10T13:30:15Z</time>
      </trkpt>
      <trkpt lat="47.79606" lon="-3.52082">
        <ele>35.44</ele>
        <time>2020-07-10T13:30:16Z</time>
      </trkpt>
      <trkpt lat="47.79603" lon="-3.52091">
        <ele>34.95</ele>
        <time>2020-07-10T13:30:17Z</time>
      </trkpt>
      <trkpt lat="47.79599" lon="-3.52101">
        <ele>34.39</ele>
        <time>2020-07-10T13:30:18Z</time>
      </trkpt>
      <trkpt lat="47.79595" lon="-3.52111">
        <ele>33.81</ele>
        <time>2020-07-10T13:30:19Z</time>
      </trkpt>
      <trkpt lat="47.79593" lon="-3.52121">
        <ele>33.12</ele>
        <time>2020-07-10T13:30:20Z</time>
      </trkpt>
      <trkpt lat="47.79591" lon="-3.52132">
        <ele>32.37</ele>
        <time>2020-07-10T13:30:21Z</time>
      </trkpt>
      <trkpt lat="47.7959" lon="-3.52142">
        <ele>31.67</ele>
        <time>2020-07-10T13:30:22Z</time>
      </trkpt>
      <trkpt lat="47.7959" lon="-3.52151">
        <ele>31.17</ele>
        <time>2020-07-10T13:30:23Z</time>
      </trkpt>
      <trkpt lat="47.79591" lon="-3.5216">
        <ele>30.73</ele>
        <time>2020-07-10T13:30:24Z</time>
      </trkpt>
      <trkpt lat="47.79591" lon="-3.5217">
        <ele>30.17</ele>
        <time>2020-07-10T13:30:25Z</time>
      </trkpt>
      <trkpt lat="47.79592" lon="-3.5218">
        <ele>29.35</ele>
        <time>2020-07-10T13:30:26Z</time>
      </trkpt>
      <trkpt lat="47.79593" lon="-3.52191">
        <ele>28.36</ele>
        <time>2020-07-10T13:30:27Z</time>
      </trkpt>
      <trkpt lat="47.79595" lon="-3.522">
        <ele>27.26</ele>
        <time>2020-07-10T13:30:28Z</time>
      </trkpt>
      <trkpt lat="47.79597" lon="-3.5221">
        <ele>26.18</ele>
        <time>2020-07-10T13:30:29Z</time>
      </trkpt>
      <trkpt lat="47.79598" lon="-3.52216">
        <ele>25.31</ele>
        <time>2020-07-10T13:30:30Z</time>
      </trkpt>
      <trkpt lat="47.79598" lon="-3.52222">
        <ele>24.58</ele>
        <time>2020-07-10T13:30:31Z</time>
      </trkpt>
      <trkpt lat="47.79598" lon="-3.52228">
        <ele>24.19</ele>
        <time>2020-07-10T13:30:32Z</time>
      </trkpt>
      <trkpt lat="47.79599" lon="-3.52233">
        <ele>23.77</ele>
        <time>2020-07-10T13:30:33Z</time>
      </trkpt>
      <trkpt lat="47.79599" lon="-3.52239">
        <ele>23.37</ele>
        <time>2020-07-10T13:30:34Z</time>
      </trkpt>
      <trkpt lat="47.796" lon="-3.52247">
        <ele>22.89</ele>
        <time>2020-07-10T13:30:35Z</time>
      </trkpt>
      <trkpt lat="47.79599" lon="-3.52255">
        <ele>22.75</ele>
        <time>2020-07-10T13:30:36Z</time>
      </trkpt>
      <trkpt lat="47.79598" lon="-3.52264">
        <ele>22.91</ele>
        <time>2020-07-10T13:30:37Z</time>
      </trkpt>
      <trkpt lat="47.79597" lon="-3.52272">
        <ele>23.29</ele>
        <time>2020-07-10T13:30:38Z</time>
      </trkpt>
      <trkpt lat="47.79596" lon="-3.5228">
        <ele>23.63</ele>
        <time>2020-07-10T13:30:39Z</time>
      </trkpt>
      <trkpt lat="47.79595" lon="-3.52289">
        <ele>23.68</ele>
        <time>2020-07-10T13:30:40Z</time>
      </trkpt>
      <trkpt lat="47.79594" lon="-3.52297">
        <ele>23.63</ele>
        <time>2020-07-10T13:30:41Z</time>
      </trkpt>
      <trkpt lat="47.79593" lon="-3.52306">
        <ele>23.63</ele>
        <time>2020-07-10T13:30:42Z</time>
      </trkpt>
      <trkpt lat="47.79592" lon="-3.52316">
        <ele>23.29</ele>
        <time>2020-07-10T13:30:43Z</time>
      </trkpt>
      <trkpt lat="47.79591" lon="-3.52324">
        <ele>22.92</ele>
        <time>2020-07-10T13:30:44Z</time>
      </trkpt>
      <trkpt lat="47.7959" lon="-3.52332">
        <ele>22.6</ele>
        <time>2020-07-10T13:30:45Z</time>
      </trkpt>
      <trkpt lat="47.79589" lon="-3.52337">
        <ele>22.47</ele>
        <time>2020-07-10T13:30:46Z</time>
      </trkpt>
      <trkpt lat="47.79588" lon="-3.52342">
        <ele>22.41</ele>
        <time>2020-07-10T13:30:47Z</time>
      </trkpt>
      <trkpt lat="47.79589" lon="-3.52346">
        <ele>22.24</ele>
        <time>2020-07-10T13:30:48Z</time>
      </trkpt>
      <trkpt lat="47.79591" lon="-3.5235">
        <ele>21.69</ele>
        <time>2020-07-10T13:30:49Z</time>
      </trkpt>
      <trkpt lat="47.79594" lon="-3.52356">
        <ele>20.9</ele>
        <time>2020-07-10T13:30:50Z</time>
      </trkpt>
      <trkpt lat="47.79596" lon="-3.52359">
        <ele>20.24</ele>
        <time>2020-07-10T13:30:51Z</time>
      </trkpt>
      <trkpt lat="47.79597" lon="-3.52362">
        <ele>19.79</ele>
        <time>2020-07-10T13:30:52Z</time>
      </trkpt>
      <trkpt lat="47.79597" lon="-3.52364">
        <ele>19.49</ele>
        <time>2020-07-10T13:30:53Z</time>
      </trkpt>
      <trkpt lat="47.79595" lon="-3.52365">
        <ele>19.48</ele>
        <time>2020-07-10T13:30:54Z</time>
      </trkpt>
      <trkpt lat="47.79594" lon="-3.52366">
        <ele>19.71</ele>
        <time>2020-07-10T13:30:55Z</time>
      </trkpt>
      <trkpt lat="47.79592" lon="-3.52367">
        <ele>19.93</ele>
        <time>2020-07-10T13:30:56Z</time>
      </trkpt>
      <trkpt lat="47.7959" lon="-3.52369">
        <ele>20.07</ele>
        <time>2020-07-10T13:30:57Z</time>
      </trkpt>
      <trkpt lat="47.79588" lon="-3.5237">
        <ele>20.27</ele>
        <time>2020-07-10T13:30:58Z</time>
      </trkpt>
      <trkpt lat="47.79587" lon="-3.52371">
        <ele>20.44</ele>
        <time>2020-07-10T13:30:59Z</time>
      </trkpt>
      <trkpt lat="47.79586" lon="-3.52372">
        <ele>20.58</ele>
        <time>2020-07-10T13:31:00Z</time>
      </trkpt>
      <trkpt lat="47.79585" lon="-3.52372">
        <ele>20.63</ele>
        <time>2020-07-10T13:31:01Z</time>
      </trkpt>
      <trkpt lat="47.79585" lon="-3.52373">
        <ele>20.54</ele>
        <time>2020-07-10T13:31:02Z</time>
      </trkpt>
      <trkpt lat="47.79586" lon="-3.52374">
        <ele>20.35</ele>
        <time>2020-07-10T13:31:03Z</time>
      </trkpt>
      <trkpt lat="47.79586" lon="-3.52374">
        <ele>20.3</ele>
        <time>2020-07-10T13:31:04Z</time>
      </trkpt>
      <trkpt lat="47.79586" lon="-3.52374">
        <ele>20.28</ele>
        <time>2020-07-10T13:31:06Z</time>
      </trkpt>
      <trkpt lat="47.7959" lon="-3.52375">
        <ele>19.59</ele>
        <time>2020-07-10T13:31:07Z</time>
      </trkpt>
      <trkpt lat="47.79594" lon="-3.52374">
        <ele>18.88</ele>
        <time>2020-07-10T13:31:08Z</time>
      </trkpt>
      <trkpt lat="47.79599" lon="-3.52374">
        <ele>18.03</ele>
        <time>2020-07-10T13:31:09Z</time>
      </trkpt>
      <trkpt lat="47.79604" lon="-3.52374">
        <ele>17.2</ele>
        <time>2020-07-10T13:31:10Z</time>
      </trkpt>
      <trkpt lat="47.79609" lon="-3.52373">
        <ele>16.35</ele>
        <time>2020-07-10T13:31:11Z</time>
      </trkpt>
      <trkpt lat="47.79614" lon="-3.52373">
        <ele>15.4</ele>
        <time>2020-07-10T13:31:12Z</time>
      </trkpt>
      <trkpt lat="47.79618" lon="-3.52371">
        <ele>14.26</ele>
        <time>2020-07-10T13:31:13Z</time>
      </trkpt>
      <trkpt lat="47.79623" lon="-3.52369">
        <ele>13.08</ele>
        <time>2020-07-10T13:31:14Z</time>
      </trkpt>
      <trkpt lat="47.79627" lon="-3.52367">
        <ele>11.85</ele>
        <time>2020-07-10T13:31:15Z</time>
      </trkpt>
      <trkpt lat="47.79631" lon="-3.52366">
        <ele>10.53</ele>
        <time>2020-07-10T13:31:16Z</time>
      </trkpt>
      <trkpt lat="47.79635" lon="-3.52364">
        <ele>9.08</ele>
        <time>2020-07-10T13:31:17Z</time>
      </trkpt>
      <trkpt lat="47.7964" lon="-3.52362">
        <ele>7.61</ele>
        <time>2020-07-10T13:31:18Z</time>
      </trkpt>
      <trkpt lat="47.79645" lon="-3.5236">
        <ele>6.54</ele>
        <time>2020-07-10T13:31:19Z</time>
      </trkpt>
      <trkpt lat="47.7965" lon="-3.52358">
        <ele>5.64</ele>
        <time>2020-07-10T13:31:20Z</time>
      </trkpt>
      <trkpt lat="47.79656" lon="-3.52356">
        <ele>4.71</ele>
        <time>2020-07-10T13:31:21Z</time>
      </trkpt>
      <trkpt lat="47.7966" lon="-3.52354">
        <ele>3.75</ele>
        <time>2020-07-10T13:31:22Z</time>
      </trkpt>
      <trkpt lat="47.79666" lon="-3.52353">
        <ele>2.73</ele>
        <time>2020-07-10T13:31:23Z</time>
      </trkpt>
      <trkpt lat="47.7967" lon="-3.52351">
        <ele>2.38</ele>
        <time>2020-07-10T13:31:24Z</time>
      </trkpt>
      <trkpt lat="47.79675" lon="-3.5235">
        <ele>2.46</ele>
        <time>2020-07-10T13:31:25Z</time>
      </trkpt>
      <trkpt lat="47.7968" lon="-3.52348">
        <ele>2.68</ele>
        <time>2020-07-10T13:31:26Z</time>
      </trkpt>
      <trkpt lat="47.79685" lon="-3.52346">
        <ele>2.93</ele>
        <time>2020-07-10T13:31:27Z</time>
      </trkpt>
      <trkpt lat="47.7969" lon="-3.52344">
        <ele>3.2</ele>
        <time>2020-07-10T13:31:28Z</time>
      </trkpt>
      <trkpt lat="47.79694" lon="-3.52342">
        <ele>3.49</ele>
        <time>2020-07-10T13:31:29Z</time>
      </trkpt>
      <trkpt lat="47.79699" lon="-3.5234">
        <ele>3.57</ele>
        <time>2020-07-10T13:31:30Z</time>
      </trkpt>
      <trkpt lat="47.79704" lon="-3.52338">
        <ele>3.6</ele>
        <time>2020-07-10T13:31:31Z</time>
      </trkpt>
      <trkpt lat="47.79709" lon="-3.52336">
        <ele>3.66</ele>
        <time>2020-07-10T13:31:32Z</time>
      </trkpt>
      <trkpt lat="47.79714" lon="-3.52334">
        <ele>3.73</ele>
        <time>2020-07-10T13:31:33Z</time>
      </trkpt>
      <trkpt lat="47.79719" lon="-3.52333">
        <ele>3.81</ele>
        <time>2020-07-10T13:31:34Z</time>
      </trkpt>
      <trkpt lat="47.79724" lon="-3.52331">
        <ele>3.8</ele>
        <time>2020-07-10T13:31:35Z</time>
      </trkpt>
      <trkpt lat="47.79729" lon="-3.52329">
        <ele>3.82</ele>
        <time>2020-07-10T13:31:36Z</time>
      </trkpt>
      <trkpt lat="47.79734" lon="-3.52327">
        <ele>3.81</ele>
        <time>2020-07-10T13:31:37Z</time>
      </trkpt>
      <trkpt lat="47.79739" lon="-3.52326">
        <ele>3.78</ele>
        <time>2020-07-10T13:31:38Z</time>
      </trkpt>
      <trkpt lat="47.79744" lon="-3.52324">
        <ele>3.66</ele>
        <time>2020-07-10T13:31:39Z</time>
      </trkpt>
      <trkpt lat="47.79749" lon="-3.52321">
        <ele>3.47</ele>
        <time>2020-07-10T13:31:40Z</time>
      </trkpt>
      <trkpt lat="47.79754" lon="-3.5232">
        <ele>3.1</ele>
        <time>2020-07-10T13:31:41Z</time>
      </trkpt>
      <trkpt lat="47.79759" lon="-3.52317">
        <ele>2.62</ele>
        <time>2020-07-10T13:31:42Z</time>
      </trkpt>
      <trkpt lat="47.79764" lon="-3.52315">
        <ele>2.11</ele>
        <time>2020-07-10T13:31:43Z</time>
      </trkpt>
      <trkpt lat="47.7977" lon="-3.52313">
        <ele>1.67</ele>
        <time>2020-07-10T13:31:44Z</time>
      </trkpt>
      <trkpt lat="47.79775" lon="-3.52311">
        <ele>1.24</ele>
        <time>2020-07-10T13:31:45Z</time>
      </trkpt>
      <trkpt lat="47.79781" lon="-3.5231">
        <ele>1.24</ele>
        <time>2020-07-10T13:31:46Z</time>
      </trkpt>
      <trkpt lat="47.79786" lon="-3.52309">
        <ele>1.74</ele>
        <time>2020-07-10T13:31:47Z</time>
      </trkpt>
      <trkpt lat="47.79791" lon="-3.52308">
        <ele>2.45</ele>
        <time>2020-07-10T13:31:48Z</time>
      </trkpt>
      <trkpt lat="47.79797" lon="-3.52306">
        <ele>3.14</ele>
        <time>2020-07-10T13:31:49Z</time>
      </trkpt>
      <trkpt lat="47.79802" lon="-3.52304">
        <ele>3.87</ele>
        <time>2020-07-10T13:31:50Z</time>
      </trkpt>
      <trkpt lat="47.79807" lon="-3.52303">
        <ele>4.75</ele>
        <time>2020-07-10T13:31:51Z</time>
      </trkpt>
      <trkpt lat="47.79813" lon="-3.52302">
        <ele>5.95</ele>
        <time>2020-07-10T13:31:52Z</time>
      </trkpt>
      <trkpt lat="47.79818" lon="-3.52301">
        <ele>7.27</ele>
        <time>2020-07-10T13:31:53Z</time>
      </trkpt>
      <trkpt lat="47.79824" lon="-3.52299">
        <ele>8.63</ele>
        <time>2020-07-10T13:31:54Z</time>
      </trkpt>
      <trkpt lat="47.7983" lon="-3.52298">
        <ele>9.94</ele>
        <time>2020-07-10T13:31:55Z</time>
      </trkpt>
      <trkpt lat="47.79835" lon="-3.52297">
        <ele>10.96</ele>
        <time>2020-07-10T13:31:56Z</time>
      </trkpt>
      <trkpt lat="47.79839" lon="-3.52298">
        <ele>11.63</ele>
        <time>2020-07-10T13:31:57Z</time>
      </trkpt>
      <trkpt lat="47.79843" lon="-3.52299">
        <ele>12.24</ele>
        <time>2020-07-10T13:31:58Z</time>
      </trkpt>
      <trkpt lat="47.79842" lon="-3.52305">
        <ele>13.16</ele>
        <time>2020-07-10T13:31:59Z</time>
      </trkpt>
      <trkpt lat="47.7984" lon="-3.5231">
        <ele>13.66</ele>
        <time>2020-07-10T13:32:00Z</time>
      </trkpt>
      <trkpt lat="47.79837" lon="-3.52315">
        <ele>13.92</ele>
        <time>2020-07-10T13:32:01Z</time>
      </trkpt>
      <trkpt lat="47.79834" lon="-3.5232">
        <ele>14.01</ele>
        <time>2020-07-10T13:32:02Z</time>
      </trkpt>
      <trkpt lat="47.7983" lon="-3.52324">
        <ele>13.71</ele>
        <time>2020-07-10T13:32:03Z</time>
      </trkpt>
      <trkpt lat="47.79827" lon="-3.52328">
        <ele>13.3</ele>
        <time>2020-07-10T13:32:04Z</time>
      </trkpt>
      <trkpt lat="47.79824" lon="-3.52334">
        <ele>13.08</ele>
        <time>2020-07-10T13:32:05Z</time>
      </trkpt>
      <trkpt lat="47.79821" lon="-3.52339">
        <ele>12.77</ele>
        <time>2020-07-10T13:32:06Z</time>
      </trkpt>
      <trkpt lat="47.79818" lon="-3.52345">
        <ele>12.53</ele>
        <time>2020-07-10T13:32:07Z</time>
      </trkpt>
      <trkpt lat="47.79817" lon="-3.52351">
        <ele>12.43</ele>
        <time>2020-07-10T13:32:08Z</time>
      </trkpt>
      <trkpt lat="47.79814" lon="-3.52357">
        <ele>12.38</ele>
        <time>2020-07-10T13:32:09Z</time>
      </trkpt>
      <trkpt lat="47.79813" lon="-3.52363">
        <ele>12.4</ele>
        <time>2020-07-10T13:32:10Z</time>
      </trkpt>
      <trkpt lat="47.79812" lon="-3.52368">
        <ele>12.43</ele>
        <time>2020-07-10T13:32:11Z</time>
      </trkpt>
      <trkpt lat="47.79811" lon="-3.52372">
        <ele>12.45</ele>
        <time>2020-07-10T13:32:12Z</time>
      </trkpt>
      <trkpt lat="47.79811" lon="-3.52374">
        <ele>12.48</ele>
        <time>2020-07-10T13:32:13Z</time>
      </trkpt>
      <trkpt lat="47.79811" lon="-3.52375">
        <ele>12.45</ele>
        <time>2020-07-10T13:32:14Z</time>
      </trkpt>
      <trkpt lat="47.79811" lon="-3.52376">
        <ele>12.42</ele>
        <time>2020-07-10T13:32:15Z</time>
      </trkpt>
      <trkpt lat="47.79811" lon="-3.52376">
        <ele>12.42</ele>
        <time>2020-07-10T13:32:16Z</time>
      </trkpt>
      <trkpt lat="47.79811" lon="-3.52376">
        <ele>12.41</ele>
        <time>2020-07-10T13:32:17Z</time>
      </trkpt>
      <trkpt lat="47.79811" lon="-3.52376">
        <ele>12.41</ele>
        <time>2020-07-10T13:32:18Z</time>
      </trkpt>
      <trkpt lat="47.79811" lon="-3.52376">
        <ele>12.41</ele>
        <time>2020-07-10T13:32:19Z</time>
      </trkpt>
      <trkpt lat="47.79811" lon="-3.52376">
        <ele>12.41</ele>
        <time>2020-07-10T13:32:20Z</time>
      </trkpt>
      <trkpt lat="47.79811" lon="-3.52376">
        <ele>12.41</ele>
        <time>2020-07-10T13:32:21Z</time>
      </trkpt>
      <trkpt lat="47.79811" lon="-3.52376">
        <ele>12.41</ele>
        <time>2020-07-10T13:32:22Z</time>
      </trkpt>
      <trkpt lat="47.79811" lon="-3.52376">
        <ele>12.41</ele>
        <time>2020-07-10T13:32:23Z</time>
      </trkpt>
      <trkpt lat="47.79811" lon="-3.52376">
        <ele>12.41</ele>
        <time>2020-07-10T13:32:24Z</time>
      </trkpt>
      <trkpt lat="47.79811" lon="-3.52376">
        <ele>12.41</ele>
        <time>2020-07-10T13:32:25Z</time>
      </trkpt>
      <trkpt lat="47.79811" lon="-3.52376">
        <ele>12.41</ele>
        <time>2020-07-10T13:32:26Z</time>
      </trkpt>
      <trkpt lat="47.79811" lon="-3.52376">
        <ele>12.41</ele>
        <time>2020-07-10T13:32:27Z</time>
      </trkpt>
      <trkpt lat="47.79811" lon="-3.52376">
        <ele>12.41</ele>
        <time>2020-07-10T13:32:28Z</time>
      </trkpt>
      <trkpt lat="47.79811" lon="-3.52376">
        <ele>12.41</ele>
        <time>2020-07-10T13:32:29Z</time>
      </trkpt>
      <trkpt lat="47.79811" lon="-3.52376">
        <ele>12.41</ele>
        <time>2020-07-10T13:32:30Z</time>
      </trkpt>
      <trkpt lat="47.79811" lon="-3.52376">
        <ele>12.41</ele>
        <time>2020-07-10T13:32:31Z</time>
      </trkpt>
      <trkpt lat="47.79811" lon="-3.52376">
        <ele>12.41</ele>
        <time>2020-07-10T13:32:32Z</time>
      </trkpt>
      <trkpt lat="47.79811" lon="-3.52376">
        <ele>12.41</ele>
        <time>2020-07-10T13:32:33Z</time>
      </trkpt>
      <trkpt lat="47.79811" lon="-3.52376">
        <ele>12.41</ele>
        <time>2020-07-10T13:32:34Z</time>
      </trkpt>
      <trkpt lat="47.79811" lon="-3.52376">
        <ele>12.41</ele>
        <time>2020-07-10T13:32:35Z</time>
      </trkpt>
      <trkpt lat="47.79811" lon="-3.52376">
        <ele>12.41</ele>
        <time>2020-07-10T13:32:36Z</time>
      </trkpt>
      <trkpt lat="47.79811" lon="-3.52376">
        <ele>12.41</ele>
        <time>2020-07-10T13:32:37Z</time>
      </trkpt>
      <trkpt lat="47.7981" lon="-3.52372">
        <ele>12.26</ele>
        <time>2020-07-10T13:32:38Z</time>
      </trkpt>
      <trkpt lat="47.7981" lon="-3.5237">
        <ele>12.19</ele>
        <time>2020-07-10T13:32:39Z</time>
      </trkpt>
      <trkpt lat="47.79811" lon="-3.52367">
        <ele>12.16</ele>
        <time>2020-07-10T13:32:40Z</time>
      </trkpt>
      <trkpt lat="47.79812" lon="-3.52363">
        <ele>12.16</ele>
        <time>2020-07-10T13:32:41Z</time>
      </trkpt>
      <trkpt lat="47.79813" lon="-3.52358">
        <ele>12.11</ele>
        <time>2020-07-10T13:32:42Z</time>
      </trkpt>
      <trkpt lat="47.79814" lon="-3.52354">
        <ele>12.12</ele>
        <time>2020-07-10T13:32:43Z</time>
      </trkpt>
      <trkpt lat="47.79815" lon="-3.5235">
        <ele>12.12</ele>
        <time>2020-07-10T13:32:44Z</time>
      </trkpt>
      <trkpt lat="47.79817" lon="-3.52347">
        <ele>12.28</ele>
        <time>2020-07-10T13:32:45Z</time>
      </trkpt>
      <trkpt lat="47.7982" lon="-3.52344">
        <ele>12.53</ele>
        <time>2020-07-10T13:32:46Z</time>
      </trkpt>
      <trkpt lat="47.79822" lon="-3.52341">
        <ele>12.81</ele>
        <time>2020-07-10T13:32:47Z</time>
      </trkpt>
      <trkpt lat="47.79825" lon="-3.52337">
        <ele>13.22</ele>
        <time>2020-07-10T13:32:48Z</time>
      </trkpt>
      <trkpt lat="47.79828" lon="-3.52334">
        <ele>13.63</ele>
        <time>2020-07-10T13:32:49Z</time>
      </trkpt>
      <trkpt lat="47.7983" lon="-3.52331">
        <ele>13.98</ele>
        <time>2020-07-10T13:32:50Z</time>
      </trkpt>
      <trkpt lat="47.79833" lon="-3.52328">
        <ele>14.27</ele>
        <time>2020-07-10T13:32:51Z</time>
      </trkpt>
      <trkpt lat="47.79834" lon="-3.52324">
        <ele>14.35</ele>
        <time>2020-07-10T13:32:52Z</time>
      </trkpt>
      <trkpt lat="47.79836" lon="-3.5232">
        <ele>14.32</ele>
        <time>2020-07-10T13:32:53Z</time>
      </trkpt>
      <trkpt lat="47.79838" lon="-3.52317">
        <ele>14.28</ele>
        <time>2020-07-10T13:32:54Z</time>
      </trkpt>
      <trkpt lat="47.7984" lon="-3.52314">
        <ele>14.23</ele>
        <time>2020-07-10T13:32:55Z</time>
      </trkpt>
      <trkpt lat="47.79842" lon="-3.52311">
        <ele>14.15</ele>
        <time>2020-07-10T13:32:56Z</time>
      </trkpt>
      <trkpt lat="47.79844" lon="-3.52308">
        <ele>14.04</ele>
        <time>2020-07-10T13:32:57Z</time>
      </trkpt>
      <trkpt lat="47.79845" lon="-3.52306">
        <ele>13.92</ele>
        <time>2020-07-10T13:32:58Z</time>
      </trkpt>
      <trkpt lat="47.79846" lon="-3.52303">
        <ele>13.64</ele>
        <time>2020-07-10T13:32:59Z</time>
      </trkpt>
      <trkpt lat="47.79847" lon="-3.52302">
        <ele>13.5</ele>
        <time>2020-07-10T13:33:00Z</time>
      </trkpt>
      <trkpt lat="47.79847" lon="-3.52303">
        <ele>13.54</ele>
        <time>2020-07-10T13:33:01Z</time>
      </trkpt>
      <trkpt lat="47.79847" lon="-3.52304">
        <ele>13.69</ele>
        <time>2020-07-10T13:33:02Z</time>
      </trkpt>
      <trkpt lat="47.79846" lon="-3.52305">
        <ele>13.83</ele>
        <time>2020-07-10T13:33:03Z</time>
      </trkpt>
      <trkpt lat="47.79845" lon="-3.52307">
        <ele>13.92</ele>
        <time>2020-07-10T13:33:04Z</time>
      </trkpt>
      <trkpt lat="47.79843" lon="-3.52308">
        <ele>13.95</ele>
        <time>2020-07-10T13:33:05Z</time>
      </trkpt>
      <trkpt lat="47.79842" lon="-3.52309">
        <ele>13.94</ele>
        <time>2020-07-10T13:33:06Z</time>
      </trkpt>
      <trkpt lat="47.79842" lon="-3.5231">
        <ele>13.96</ele>
        <time>2020-07-10T13:33:07Z</time>
      </trkpt>
      <trkpt lat="47.79841" lon="-3.5231">
        <ele>13.98</ele>
        <time>2020-07-10T13:33:08Z</time>
      </trkpt>
      <trkpt lat="47.79841" lon="-3.5231">
        <ele>13.98</ele>
        <time>2020-07-10T13:33:09Z</time>
      </trkpt>
      <trkpt lat="47.7984" lon="-3.52313">
        <ele>14.06</ele>
        <time>2020-07-10T13:33:10Z</time>
      </trkpt>
      <trkpt lat="47.79838" lon="-3.52316">
        <ele>14.14</ele>
        <time>2020-07-10T13:33:11Z</time>
      </trkpt>
      <trkpt lat="47.79837" lon="-3.52318">
        <ele>14.21</ele>
        <time>2020-07-10T13:33:12Z</time>
      </trkpt>
      <trkpt lat="47.79836" lon="-3.5232">
        <ele>14.24</ele>
        <time>2020-07-10T13:33:13Z</time>
      </trkpt>
      <trkpt lat="47.79834" lon="-3.52322">
        <ele>14.24</ele>
        <time>2020-07-10T13:33:14Z</time>
      </trkpt>
      <trkpt lat="47.79833" lon="-3.52324">
        <ele>14.17</ele>
        <time>2020-07-10T13:33:15Z</time>
      </trkpt>
      <trkpt lat="47.79831" lon="-3.52326">
        <ele>14.01</ele>
        <time>2020-07-10T13:33:16Z</time>
      </trkpt>
      <trkpt lat="47.7983" lon="-3.52328">
        <ele>13.89</ele>
        <time>2020-07-10T13:33:17Z</time>
      </trkpt>
      <trkpt lat="47.79828" lon="-3.52329">
        <ele>13.67</ele>
        <time>2020-07-10T13:33:18Z</time>
      </trkpt>
      <trkpt lat="47.79827" lon="-3.5233">
        <ele>13.49</ele>
        <time>2020-07-10T13:33:19Z</time>
      </trkpt>
      <trkpt lat="47.79826" lon="-3.52331">
        <ele>13.34</ele>
        <time>2020-07-10T13:33:20Z</time>
      </trkpt>
      <trkpt lat="47.79825" lon="-3.52333">
        <ele>13.25</ele>
        <time>2020-07-10T13:33:21Z</time>
      </trkpt>
      <trkpt lat="47.79824" lon="-3.52334">
        <ele>13.16</ele>
        <time>2020-07-10T13:33:22Z</time>
      </trkpt>
      <trkpt lat="47.79824" lon="-3.52335">
        <ele>13.08</ele>
        <time>2020-07-10T13:33:23Z</time>
      </trkpt>
      <trkpt lat="47.79823" lon="-3.52336">
        <ele>12.99</ele>
        <time>2020-07-10T13:33:24Z</time>
      </trkpt>
      <trkpt lat="47.79822" lon="-3.52337">
        <ele>12.86</ele>
        <time>2020-07-10T13:33:25Z</time>
      </trkpt>
      <trkpt lat="47.79821" lon="-3.52337">
        <ele>12.64</ele>
        <time>2020-07-10T13:33:26Z</time>
      </trkpt>
      <trkpt lat="47.7982" lon="-3.52335">
        <ele>12.29</ele>
        <time>2020-07-10T13:33:27Z</time>
      </trkpt>
      <trkpt lat="47.79818" lon="-3.52334">
        <ele>11.91</ele>
        <time>2020-07-10T13:33:28Z</time>
      </trkpt>
      <trkpt lat="47.79816" lon="-3.52335">
        <ele>11.56</ele>
        <time>2020-07-10T13:33:29Z</time>
      </trkpt>
      <trkpt lat="47.79815" lon="-3.52337">
        <ele>11.4</ele>
        <time>2020-07-10T13:33:30Z</time>
      </trkpt>
      <trkpt lat="47.79814" lon="-3.5234">
        <ele>11.37</ele>
        <time>2020-07-10T13:33:31Z</time>
      </trkpt>
      <trkpt lat="47.79814" lon="-3.52345">
        <ele>11.47</ele>
        <time>2020-07-10T13:33:32Z</time>
      </trkpt>
      <trkpt lat="47.79813" lon="-3.52349">
        <ele>11.58</ele>
        <time>2020-07-10T13:33:33Z</time>
      </trkpt>
      <trkpt lat="47.79812" lon="-3.52354">
        <ele>11.73</ele>
        <time>2020-07-10T13:33:34Z</time>
      </trkpt>
      <trkpt lat="47.79811" lon="-3.5236">
        <ele>11.85</ele>
        <time>2020-07-10T13:33:35Z</time>
      </trkpt>
      <trkpt lat="47.7981" lon="-3.52365">
        <ele>11.88</ele>
        <time>2020-07-10T13:33:36Z</time>
      </trkpt>
      <trkpt lat="47.79808" lon="-3.5237">
        <ele>11.86</ele>
        <time>2020-07-10T13:33:37Z</time>
      </trkpt>
      <trkpt lat="47.79807" lon="-3.52375">
        <ele>11.77</ele>
        <time>2020-07-10T13:33:38Z</time>
      </trkpt>
      <trkpt lat="47.79806" lon="-3.5238">
        <ele>11.72</ele>
        <time>2020-07-10T13:33:39Z</time>
      </trkpt>
      <trkpt lat="47.79805" lon="-3.52384">
        <ele>11.6</ele>
        <time>2020-07-10T13:33:40Z</time>
      </trkpt>
      <trkpt lat="47.79805" lon="-3.52388">
        <ele>11.65</ele>
        <time>2020-07-10T13:33:41Z</time>
      </trkpt>
      <trkpt lat="47.79805" lon="-3.5239">
        <ele>11.7</ele>
        <time>2020-07-10T13:33:42Z</time>
      </trkpt>
      <trkpt lat="47.79805" lon="-3.52391">
        <ele>11.8</ele>
        <time>2020-07-10T13:33:43Z</time>
      </trkpt>
      <trkpt lat="47.79805" lon="-3.52392">
        <ele>11.83</ele>
        <time>2020-07-10T13:33:44Z</time>
      </trkpt>
      <trkpt lat="47.79806" lon="-3.52392">
        <ele>12.01</ele>
        <time>2020-07-10T13:33:45Z</time>
      </trkpt>
      <trkpt lat="47.79806" lon="-3.52392">
        <ele>12.06</ele>
        <time>2020-07-10T13:33:46Z</time>
      </trkpt>
      <trkpt lat="47.79806" lon="-3.52392">
        <ele>12.08</ele>
        <time>2020-07-10T13:33:47Z</time>
      </trkpt>
      <trkpt lat="47.79806" lon="-3.52392">
        <ele>12.08</ele>
        <time>2020-07-10T13:33:48Z</time>
      </trkpt>
      <trkpt lat="47.79806" lon="-3.52392">
        <ele>12.08</ele>
        <time>2020-07-10T13:33:49Z</time>
      </trkpt>
      <trkpt lat="47.79806" lon="-3.52392">
        <ele>12.08</ele>
        <time>2020-07-10T13:33:50Z</time>
      </trkpt>
      <trkpt lat="47.79806" lon="-3.52392">
        <ele>12.08</ele>
        <time>2020-07-10T13:33:51Z</time>
      </trkpt>
      <trkpt lat="47.79803" lon="-3.52401">
        <ele>11.26</ele>
        <time>2020-07-10T13:33:52Z</time>
      </trkpt>
      <trkpt lat="47.79801" lon="-3.52404">
        <ele>10.62</ele>
        <time>2020-07-10T13:33:53Z</time>
      </trkpt>
      <trkpt lat="47.798" lon="-3.52408">
        <ele>10.1</ele>
        <time>2020-07-10T13:33:54Z</time>
      </trkpt>
      <trkpt lat="47.79798" lon="-3.52412">
        <ele>9.58</ele>
        <time>2020-07-10T13:33:55Z</time>
      </trkpt>
      <trkpt lat="47.79797" lon="-3.52416">
        <ele>9.24</ele>
        <time>2020-07-10T13:33:56Z</time>
      </trkpt>
      <trkpt lat="47.79797" lon="-3.52419">
        <ele>8.94</ele>
        <time>2020-07-10T13:33:57Z</time>
      </trkpt>
      <trkpt lat="47.79795" lon="-3.52422">
        <ele>8.6</ele>
        <time>2020-07-10T13:33:58Z</time>
      </trkpt>
      <trkpt lat="47.79793" lon="-3.52427">
        <ele>8.03</ele>
        <time>2020-07-10T13:33:59Z</time>
      </trkpt>
      <trkpt lat="47.79791" lon="-3.52432">
        <ele>7.43</ele>
        <time>2020-07-10T13:34:00Z</time>
      </trkpt>
      <trkpt lat="47.79789" lon="-3.52438">
        <ele>7.07</ele>
        <time>2020-07-10T13:34:01Z</time>
      </trkpt>
      <trkpt lat="47.79787" lon="-3.52443">
        <ele>6.48</ele>
        <time>2020-07-10T13:34:02Z</time>
      </trkpt>
      <trkpt lat="47.79784" lon="-3.52449">
        <ele>5.98</ele>
        <time>2020-07-10T13:34:03Z</time>
      </trkpt>
      <trkpt lat="47.79782" lon="-3.52455">
        <ele>5.63</ele>
        <time>2020-07-10T13:34:04Z</time>
      </trkpt>
      <trkpt lat="47.7978" lon="-3.5246">
        <ele>5.26</ele>
        <time>2020-07-10T13:34:05Z</time>
      </trkpt>
      <trkpt lat="47.79778" lon="-3.52467">
        <ele>4.99</ele>
        <time>2020-07-10T13:34:06Z</time>
      </trkpt>
      <trkpt lat="47.79776" lon="-3.52475">
        <ele>4.93</ele>
        <time>2020-07-10T13:34:07Z</time>
      </trkpt>
      <trkpt lat="47.79774" lon="-3.52482">
        <ele>5.1</ele>
        <time>2020-07-10T13:34:08Z</time>
      </trkpt>
      <trkpt lat="47.79772" lon="-3.5249">
        <ele>5.36</ele>
        <time>2020-07-10T13:34:09Z</time>
      </trkpt>
      <trkpt lat="47.7977" lon="-3.52497">
        <ele>5.46</ele>
        <time>2020-07-10T13:34:10Z</time>
      </trkpt>
      <trkpt lat="47.79768" lon="-3.52504">
        <ele>5.38</ele>
        <time>2020-07-10T13:34:11Z</time>
      </trkpt>
      <trkpt lat="47.79767" lon="-3.52509">
        <ele>5.25</ele>
        <time>2020-07-10T13:34:12Z</time>
      </trkpt>
      <trkpt lat="47.79765" lon="-3.52514">
        <ele>5.07</ele>
        <time>2020-07-10T13:34:13Z</time>
      </trkpt>
      <trkpt lat="47.79764" lon="-3.5252">
        <ele>4.76</ele>
        <time>2020-07-10T13:34:14Z</time>
      </trkpt>
      <trkpt lat="47.79762" lon="-3.52525">
        <ele>4.47</ele>
        <time>2020-07-10T13:34:15Z</time>
      </trkpt>
      <trkpt lat="47.7976" lon="-3.52531">
        <ele>4.2</ele>
        <time>2020-07-10T13:34:16Z</time>
      </trkpt>
      <trkpt lat="47.79759" lon="-3.52537">
        <ele>4.17</ele>
        <time>2020-07-10T13:34:17Z</time>
      </trkpt>
      <trkpt lat="47.79757" lon="-3.52543">
        <ele>4.04</ele>
        <time>2020-07-10T13:34:18Z</time>
      </trkpt>
      <trkpt lat="47.79755" lon="-3.52548">
        <ele>3.89</ele>
        <time>2020-07-10T13:34:19Z</time>
      </trkpt>
      <trkpt lat="47.79754" lon="-3.52555">
        <ele>3.91</ele>
        <time>2020-07-10T13:34:20Z</time>
      </trkpt>
      <trkpt lat="47.79753" lon="-3.52561">
        <ele>3.88</ele>
        <time>2020-07-10T13:34:21Z</time>
      </trkpt>
      <trkpt lat="47.79752" lon="-3.52566">
        <ele>3.8</ele>
        <time>2020-07-10T13:34:22Z</time>
      </trkpt>
      <trkpt lat="47.79751" lon="-3.52571">
        <ele>3.73</ele>
        <time>2020-07-10T13:34:23Z</time>
      </trkpt>
      <trkpt lat="47.79751" lon="-3.52577">
        <ele>4.09</ele>
        <time>2020-07-10T13:34:24Z</time>
      </trkpt>
      <trkpt lat="47.79752" lon="-3.52583">
        <ele>4.66</ele>
        <time>2020-07-10T13:34:25Z</time>
      </trkpt>
      <trkpt lat="47.79752" lon="-3.52589">
        <ele>5.39</ele>
        <time>2020-07-10T13:34:26Z</time>
      </trkpt>
      <trkpt lat="47.79753" lon="-3.52594">
        <ele>6.29</ele>
        <time>2020-07-10T13:34:27Z</time>
      </trkpt>
      <trkpt lat="47.79755" lon="-3.52599">
        <ele>7.34</ele>
        <time>2020-07-10T13:34:28Z</time>
      </trkpt>
      <trkpt lat="47.79756" lon="-3.52604">
        <ele>8.51</ele>
        <time>2020-07-10T13:34:29Z</time>
      </trkpt>
      <trkpt lat="47.79757" lon="-3.52609">
        <ele>9.35</ele>
        <time>2020-07-10T13:34:30Z</time>
      </trkpt>
      <trkpt lat="47.79757" lon="-3.52614">
        <ele>9.97</ele>
        <time>2020-07-10T13:34:31Z</time>
      </trkpt>
      <trkpt lat="47.79757" lon="-3.52619">
        <ele>10.23</ele>
        <time>2020-07-10T13:34:32Z</time>
      </trkpt>
      <trkpt lat="47.79757" lon="-3.52624">
        <ele>10.59</ele>
        <time>2020-07-10T13:34:33Z</time>
      </trkpt>
      <trkpt lat="47.79757" lon="-3.52629">
        <ele>10.98</ele>
        <time>2020-07-10T13:34:34Z</time>
      </trkpt>
      <trkpt lat="47.79756" lon="-3.52633">
        <ele>11.03</ele>
        <time>2020-07-10T13:34:35Z</time>
      </trkpt>
      <trkpt lat="47.79756" lon="-3.52638">
        <ele>11.12</ele>
        <time>2020-07-10T13:34:36Z</time>
      </trkpt>
      <trkpt lat="47.79755" lon="-3.52641">
        <ele>11.14</ele>
        <time>2020-07-10T13:34:37Z</time>
      </trkpt>
      <trkpt lat="47.79754" lon="-3.52644">
        <ele>10.94</ele>
        <time>2020-07-10T13:34:38Z</time>
      </trkpt>
      <trkpt lat="47.79752" lon="-3.52647">
        <ele>10.68</ele>
        <time>2020-07-10T13:34:39Z</time>
      </trkpt>
      <trkpt lat="47.79751" lon="-3.5265">
        <ele>10.55</ele>
        <time>2020-07-10T13:34:40Z</time>
      </trkpt>
      <trkpt lat="47.7975" lon="-3.52653">
        <ele>10.62</ele>
        <time>2020-07-10T13:34:41Z</time>
      </trkpt>
      <trkpt lat="47.79748" lon="-3.52656">
        <ele>10.41</ele>
        <time>2020-07-10T13:34:42Z</time>
      </trkpt>
      <trkpt lat="47.79747" lon="-3.52659">
        <ele>10.48</ele>
        <time>2020-07-10T13:34:43Z</time>
      </trkpt>
      <trkpt lat="47.79746" lon="-3.52661">
        <ele>10.32</ele>
        <time>2020-07-10T13:34:44Z</time>
      </trkpt>
      <trkpt lat="47.79745" lon="-3.52663">
        <ele>10.36</ele>
        <time>2020-07-10T13:34:45Z</time>
      </trkpt>
      <trkpt lat="47.79745" lon="-3.52666">
        <ele>10.41</ele>
        <time>2020-07-10T13:34:46Z</time>
      </trkpt>
      <trkpt lat="47.79745" lon="-3.52669">
        <ele>10.85</ele>
        <time>2020-07-10T13:34:47Z</time>
      </trkpt>
      <trkpt lat="47.79744" lon="-3.52672">
        <ele>11.28</ele>
        <time>2020-07-10T13:34:48Z</time>
      </trkpt>
      <trkpt lat="47.79744" lon="-3.52674">
        <ele>11.49</ele>
        <time>2020-07-10T13:34:49Z</time>
      </trkpt>
      <trkpt lat="47.79743" lon="-3.52676">
        <ele>11.66</ele>
        <time>2020-07-10T13:34:50Z</time>
      </trkpt>
      <trkpt lat="47.79742" lon="-3.52678">
        <ele>11.76</ele>
        <time>2020-07-10T13:34:51Z</time>
      </trkpt>
      <trkpt lat="47.79742" lon="-3.5268">
        <ele>11.97</ele>
        <time>2020-07-10T13:34:52Z</time>
      </trkpt>
      <trkpt lat="47.79741" lon="-3.52683">
        <ele>12.26</ele>
        <time>2020-07-10T13:34:53Z</time>
      </trkpt>
      <trkpt lat="47.79741" lon="-3.52686">
        <ele>12.92</ele>
        <time>2020-07-10T13:34:54Z</time>
      </trkpt>
      <trkpt lat="47.79741" lon="-3.52689">
        <ele>13.24</ele>
        <time>2020-07-10T13:34:55Z</time>
      </trkpt>
      <trkpt lat="47.7974" lon="-3.52691">
        <ele>13.52</ele>
        <time>2020-07-10T13:34:56Z</time>
      </trkpt>
      <trkpt lat="47.79739" lon="-3.52694">
        <ele>13.51</ele>
        <time>2020-07-10T13:34:57Z</time>
      </trkpt>
      <trkpt lat="47.79738" lon="-3.52697">
        <ele>13.58</ele>
        <time>2020-07-10T13:34:58Z</time>
      </trkpt>
      <trkpt lat="47.79737" lon="-3.527">
        <ele>13.63</ele>
        <time>2020-07-10T13:34:59Z</time>
      </trkpt>
      <trkpt lat="47.79736" lon="-3.52703">
        <ele>13.67</ele>
        <time>2020-07-10T13:35:00Z</time>
      </trkpt>
      <trkpt lat="47.79734" lon="-3.52706">
        <ele>13.37</ele>
        <time>2020-07-10T13:35:01Z</time>
      </trkpt>
      <trkpt lat="47.79732" lon="-3.52709">
        <ele>12.86</ele>
        <time>2020-07-10T13:35:02Z</time>
      </trkpt>
      <trkpt lat="47.7973" lon="-3.52711">
        <ele>12.35</ele>
        <time>2020-07-10T13:35:03Z</time>
      </trkpt>
      <trkpt lat="47.79729" lon="-3.52714">
        <ele>12.1</ele>
        <time>2020-07-10T13:35:04Z</time>
      </trkpt>
      <trkpt lat="47.79728" lon="-3.52717">
        <ele>12.09</ele>
        <time>2020-07-10T13:35:05Z</time>
      </trkpt>
      <trkpt lat="47.79727" lon="-3.52719">
        <ele>12.25</ele>
        <time>2020-07-10T13:35:06Z</time>
      </trkpt>
      <trkpt lat="47.79727" lon="-3.52722">
        <ele>12.43</ele>
        <time>2020-07-10T13:35:07Z</time>
      </trkpt>
      <trkpt lat="47.79726" lon="-3.52724">
        <ele>12.51</ele>
        <time>2020-07-10T13:35:08Z</time>
      </trkpt>
      <trkpt lat="47.79725" lon="-3.52727">
        <ele>12.49</ele>
        <time>2020-07-10T13:35:09Z</time>
      </trkpt>
      <trkpt lat="47.79724" lon="-3.52729">
        <ele>12.35</ele>
        <time>2020-07-10T13:35:10Z</time>
      </trkpt>
      <trkpt lat="47.79723" lon="-3.52732">
        <ele>12.15</ele>
        <time>2020-07-10T13:35:11Z</time>
      </trkpt>
      <trkpt lat="47.79721" lon="-3.52736">
        <ele>12.05</ele>
        <time>2020-07-10T13:35:12Z</time>
      </trkpt>
      <trkpt lat="47.7972" lon="-3.5274">
        <ele>12</ele>
        <time>2020-07-10T13:35:13Z</time>
      </trkpt>
      <trkpt lat="47.79718" lon="-3.52744">
        <ele>11.92</ele>
        <time>2020-07-10T13:35:14Z</time>
      </trkpt>
      <trkpt lat="47.79716" lon="-3.52747">
        <ele>11.65</ele>
        <time>2020-07-10T13:35:15Z</time>
      </trkpt>
      <trkpt lat="47.79715" lon="-3.52751">
        <ele>11.47</ele>
        <time>2020-07-10T13:35:16Z</time>
      </trkpt>
      <trkpt lat="47.79713" lon="-3.52755">
        <ele>11.49</ele>
        <time>2020-07-10T13:35:17Z</time>
      </trkpt>
      <trkpt lat="47.79711" lon="-3.52757">
        <ele>11.32</ele>
        <time>2020-07-10T13:35:18Z</time>
      </trkpt>
      <trkpt lat="47.7971" lon="-3.5276">
        <ele>11.34</ele>
        <time>2020-07-10T13:35:19Z</time>
      </trkpt>
      <trkpt lat="47.79708" lon="-3.52761">
        <ele>11.15</ele>
        <time>2020-07-10T13:35:20Z</time>
      </trkpt>
      <trkpt lat="47.79706" lon="-3.52763">
        <ele>11.01</ele>
        <time>2020-07-10T13:35:21Z</time>
      </trkpt>
      <trkpt lat="47.79704" lon="-3.52765">
        <ele>10.73</ele>
        <time>2020-07-10T13:35:22Z</time>
      </trkpt>
      <trkpt lat="47.79702" lon="-3.52766">
        <ele>10.41</ele>
        <time>2020-07-10T13:35:23Z</time>
      </trkpt>
      <trkpt lat="47.79699" lon="-3.52767">
        <ele>10.06</ele>
        <time>2020-07-10T13:35:24Z</time>
      </trkpt>
      <trkpt lat="47.79697" lon="-3.52767">
        <ele>9.23</ele>
        <time>2020-07-10T13:35:25Z</time>
      </trkpt>
      <trkpt lat="47.79695" lon="-3.52767">
        <ele>8.34</ele>
        <time>2020-07-10T13:35:26Z</time>
      </trkpt>
      <trkpt lat="47.79692" lon="-3.52766">
        <ele>7.44</ele>
        <time>2020-07-10T13:35:27Z</time>
      </trkpt>
      <trkpt lat="47.7969" lon="-3.52766">
        <ele>6.99</ele>
        <time>2020-07-10T13:35:28Z</time>
      </trkpt>
      <trkpt lat="47.79687" lon="-3.52767">
        <ele>6.74</ele>
        <time>2020-07-10T13:35:29Z</time>
      </trkpt>
      <trkpt lat="47.79685" lon="-3.52768">
        <ele>6.53</ele>
        <time>2020-07-10T13:35:30Z</time>
      </trkpt>
      <trkpt lat="47.79683" lon="-3.52768">
        <ele>6.3</ele>
        <time>2020-07-10T13:35:31Z</time>
      </trkpt>
      <trkpt lat="47.79679" lon="-3.52768">
        <ele>5.78</ele>
        <time>2020-07-10T13:35:32Z</time>
      </trkpt>
      <trkpt lat="47.79676" lon="-3.52768">
        <ele>5.14</ele>
        <time>2020-07-10T13:35:33Z</time>
      </trkpt>
      <trkpt lat="47.79673" lon="-3.52768">
        <ele>4.43</ele>
        <time>2020-07-10T13:35:34Z</time>
      </trkpt>
      <trkpt lat="47.7967" lon="-3.52767">
        <ele>3.67</ele>
        <time>2020-07-10T13:35:35Z</time>
      </trkpt>
      <trkpt lat="47.79666" lon="-3.52768">
        <ele>3.03</ele>
        <time>2020-07-10T13:35:36Z</time>
      </trkpt>
      <trkpt lat="47.7966" lon="-3.5277">
        <ele>2.63</ele>
        <time>2020-07-10T13:35:37Z</time>
      </trkpt>
      <trkpt lat="47.79656" lon="-3.52773">
        <ele>2.44</ele>
        <time>2020-07-10T13:35:38Z</time>
      </trkpt>
      <trkpt lat="47.79651" lon="-3.52778">
        <ele>2.37</ele>
        <time>2020-07-10T13:35:39Z</time>
      </trkpt>
      <trkpt lat="47.79647" lon="-3.52783">
        <ele>2.73</ele>
        <time>2020-07-10T13:35:40Z</time>
      </trkpt>
      <trkpt lat="47.79644" lon="-3.52788">
        <ele>3.37</ele>
        <time>2020-07-10T13:35:41Z</time>
      </trkpt>
      <trkpt lat="47.79641" lon="-3.52792">
        <ele>3.78</ele>
        <time>2020-07-10T13:35:42Z</time>
      </trkpt>
      <trkpt lat="47.79638" lon="-3.52794">
        <ele>4.04</ele>
        <time>2020-07-10T13:35:43Z</time>
      </trkpt>
      <trkpt lat="47.79634" lon="-3.52797">
        <ele>4.5</ele>
        <time>2020-07-10T13:35:44Z</time>
      </trkpt>
      <trkpt lat="47.79631" lon="-3.52799">
        <ele>4.96</ele>
        <time>2020-07-10T13:35:45Z</time>
      </trkpt>
      <trkpt lat="47.79628" lon="-3.52802">
        <ele>5.52</ele>
        <time>2020-07-10T13:35:46Z</time>
      </trkpt>
      <trkpt lat="47.79624" lon="-3.52804">
        <ele>5.97</ele>
        <time>2020-07-10T13:35:47Z</time>
      </trkpt>
      <trkpt lat="47.79622" lon="-3.52807">
        <ele>6.46</ele>
        <time>2020-07-10T13:35:48Z</time>
      </trkpt>
      <trkpt lat="47.79619" lon="-3.52808">
        <ele>6.77</ele>
        <time>2020-07-10T13:35:49Z</time>
      </trkpt>
      <trkpt lat="47.79617" lon="-3.52809">
        <ele>7.02</ele>
        <time>2020-07-10T13:35:50Z</time>
      </trkpt>
      <trkpt lat="47.79615" lon="-3.52811">
        <ele>7.33</ele>
        <time>2020-07-10T13:35:51Z</time>
      </trkpt>
      <trkpt lat="47.79613" lon="-3.52812">
        <ele>7.5</ele>
        <time>2020-07-10T13:35:52Z</time>
      </trkpt>
      <trkpt lat="47.79611" lon="-3.52813">
        <ele>7.47</ele>
        <time>2020-07-10T13:35:53Z</time>
      </trkpt>
      <trkpt lat="47.79608" lon="-3.52813">
        <ele>7.24</ele>
        <time>2020-07-10T13:35:54Z</time>
      </trkpt>
      <trkpt lat="47.79606" lon="-3.52813">
        <ele>6.87</ele>
        <time>2020-07-10T13:35:55Z</time>
      </trkpt>
      <trkpt lat="47.79604" lon="-3.52813">
        <ele>6.45</ele>
        <time>2020-07-10T13:35:56Z</time>
      </trkpt>
      <trkpt lat="47.79601" lon="-3.52814">
        <ele>6.11</ele>
        <time>2020-07-10T13:35:57Z</time>
      </trkpt>
      <trkpt lat="47.79599" lon="-3.52814">
        <ele>5.77</ele>
        <time>2020-07-10T13:35:58Z</time>
      </trkpt>
      <trkpt lat="47.79596" lon="-3.52819">
        <ele>6.01</ele>
        <time>2020-07-10T13:35:59Z</time>
      </trkpt>
      <trkpt lat="47.79594" lon="-3.52821">
        <ele>6.21</ele>
        <time>2020-07-10T13:36:00Z</time>
      </trkpt>
      <trkpt lat="47.79592" lon="-3.52823">
        <ele>6.22</ele>
        <time>2020-07-10T13:36:01Z</time>
      </trkpt>
      <trkpt lat="47.7959" lon="-3.52825">
        <ele>6.33</ele>
        <time>2020-07-10T13:36:02Z</time>
      </trkpt>
      <trkpt lat="47.79587" lon="-3.52828">
        <ele>6.57</ele>
        <time>2020-07-10T13:36:03Z</time>
      </trkpt>
      <trkpt lat="47.79585" lon="-3.5283">
        <ele>6.62</ele>
        <time>2020-07-10T13:36:04Z</time>
      </trkpt>
      <trkpt lat="47.79583" lon="-3.52832">
        <ele>6.68</ele>
        <time>2020-07-10T13:36:05Z</time>
      </trkpt>
      <trkpt lat="47.79582" lon="-3.52835">
        <ele>6.87</ele>
        <time>2020-07-10T13:36:06Z</time>
      </trkpt>
      <trkpt lat="47.7958" lon="-3.52837">
        <ele>7.14</ele>
        <time>2020-07-10T13:36:07Z</time>
      </trkpt>
      <trkpt lat="47.79579" lon="-3.52841">
        <ele>7.58</ele>
        <time>2020-07-10T13:36:08Z</time>
      </trkpt>
      <trkpt lat="47.79578" lon="-3.52843">
        <ele>7.88</ele>
        <time>2020-07-10T13:36:09Z</time>
      </trkpt>
      <trkpt lat="47.79578" lon="-3.52845">
        <ele>8.15</ele>
        <time>2020-07-10T13:36:10Z</time>
      </trkpt>
      <trkpt lat="47.79578" lon="-3.52846">
        <ele>8.44</ele>
        <time>2020-07-10T13:36:11Z</time>
      </trkpt>
      <trkpt lat="47.79578" lon="-3.52848">
        <ele>8.89</ele>
        <time>2020-07-10T13:36:12Z</time>
      </trkpt>
      <trkpt lat="47.79578" lon="-3.52851">
        <ele>9.45</ele>
        <time>2020-07-10T13:36:13Z</time>
      </trkpt>
      <trkpt lat="47.79577" lon="-3.52853">
        <ele>9.81</ele>
        <time>2020-07-10T13:36:14Z</time>
      </trkpt>
      <trkpt lat="47.79577" lon="-3.52855">
        <ele>10.35</ele>
        <time>2020-07-10T13:36:15Z</time>
      </trkpt>
      <trkpt lat="47.79577" lon="-3.52858">
        <ele>10.79</ele>
        <time>2020-07-10T13:36:16Z</time>
      </trkpt>
      <trkpt lat="47.79576" lon="-3.52859">
        <ele>11.06</ele>
        <time>2020-07-10T13:36:17Z</time>
      </trkpt>
      <trkpt lat="47.79576" lon="-3.52862">
        <ele>11.68</ele>
        <time>2020-07-10T13:36:18Z</time>
      </trkpt>
      <trkpt lat="47.79576" lon="-3.52864">
        <ele>12.16</ele>
        <time>2020-07-10T13:36:19Z</time>
      </trkpt>
      <trkpt lat="47.79576" lon="-3.52866">
        <ele>12.38</ele>
        <time>2020-07-10T13:36:20Z</time>
      </trkpt>
      <trkpt lat="47.79575" lon="-3.52867">
        <ele>12.59</ele>
        <time>2020-07-10T13:36:21Z</time>
      </trkpt>
      <trkpt lat="47.79575" lon="-3.5287">
        <ele>13</ele>
        <time>2020-07-10T13:36:22Z</time>
      </trkpt>
      <trkpt lat="47.79576" lon="-3.52872">
        <ele>13.53</ele>
        <time>2020-07-10T13:36:23Z</time>
      </trkpt>
      <trkpt lat="47.79575" lon="-3.52876">
        <ele>14.15</ele>
        <time>2020-07-10T13:36:24Z</time>
      </trkpt>
      <trkpt lat="47.79575" lon="-3.52879">
        <ele>14.8</ele>
        <time>2020-07-10T13:36:25Z</time>
      </trkpt>
      <trkpt lat="47.79576" lon="-3.52882">
        <ele>15.45</ele>
        <time>2020-07-10T13:36:26Z</time>
      </trkpt>
      <trkpt lat="47.79576" lon="-3.52885">
        <ele>16.13</ele>
        <time>2020-07-10T13:36:27Z</time>
      </trkpt>
      <trkpt lat="47.79576" lon="-3.52888">
        <ele>16.74</ele>
        <time>2020-07-10T13:36:28Z</time>
      </trkpt>
      <trkpt lat="47.79575" lon="-3.52892">
        <ele>17.15</ele>
        <time>2020-07-10T13:36:29Z</time>
      </trkpt>
      <trkpt lat="47.79574" lon="-3.52895">
        <ele>17.46</ele>
        <time>2020-07-10T13:36:30Z</time>
      </trkpt>
      <trkpt lat="47.79574" lon="-3.52898">
        <ele>17.72</ele>
        <time>2020-07-10T13:36:31Z</time>
      </trkpt>
      <trkpt lat="47.79573" lon="-3.52902">
        <ele>17.98</ele>
        <time>2020-07-10T13:36:32Z</time>
      </trkpt>
      <trkpt lat="47.79571" lon="-3.52903">
        <ele>18.09</ele>
        <time>2020-07-10T13:36:33Z</time>
      </trkpt>
      <trkpt lat="47.7957" lon="-3.52904">
        <ele>18.11</ele>
        <time>2020-07-10T13:36:34Z</time>
      </trkpt>
      <trkpt lat="47.79569" lon="-3.52904">
        <ele>17.95</ele>
        <time>2020-07-10T13:36:35Z</time>
      </trkpt>
      <trkpt lat="47.79568" lon="-3.52902">
        <ele>17.59</ele>
        <time>2020-07-10T13:36:36Z</time>
      </trkpt>
      <trkpt lat="47.79567" lon="-3.52901">
        <ele>17.16</ele>
        <time>2020-07-10T13:36:37Z</time>
      </trkpt>
      <trkpt lat="47.79566" lon="-3.52898">
        <ele>16.57</ele>
        <time>2020-07-10T13:36:38Z</time>
      </trkpt>
      <trkpt lat="47.79565" lon="-3.52895">
        <ele>15.9</ele>
        <time>2020-07-10T13:36:39Z</time>
      </trkpt>
      <trkpt lat="47.79564" lon="-3.52893">
        <ele>15.21</ele>
        <time>2020-07-10T13:36:40Z</time>
      </trkpt>
      <trkpt lat="47.79563" lon="-3.5289">
        <ele>14.44</ele>
        <time>2020-07-10T13:36:41Z</time>
      </trkpt>
      <trkpt lat="47.7956" lon="-3.52888">
        <ele>13.34</ele>
        <time>2020-07-10T13:36:42Z</time>
      </trkpt>
      <trkpt lat="47.79558" lon="-3.52885">
        <ele>12.28</ele>
        <time>2020-07-10T13:36:43Z</time>
      </trkpt>
      <trkpt lat="47.79556" lon="-3.52883">
        <ele>11.19</ele>
        <time>2020-07-10T13:36:44Z</time>
      </trkpt>
      <trkpt lat="47.79552" lon="-3.52882">
        <ele>10.88</ele>
        <time>2020-07-10T13:36:45Z</time>
      </trkpt>
      <trkpt lat="47.79547" lon="-3.52881">
        <ele>11.04</ele>
        <time>2020-07-10T13:36:46Z</time>
      </trkpt>
      <trkpt lat="47.79543" lon="-3.52881">
        <ele>11.43</ele>
        <time>2020-07-10T13:36:47Z</time>
      </trkpt>
      <trkpt lat="47.79541" lon="-3.52881">
        <ele>11.9</ele>
        <time>2020-07-10T13:36:48Z</time>
      </trkpt>
      <trkpt lat="47.79537" lon="-3.52882">
        <ele>12.46</ele>
        <time>2020-07-10T13:36:49Z</time>
      </trkpt>
      <trkpt lat="47.79534" lon="-3.52882">
        <ele>12.85</ele>
        <time>2020-07-10T13:36:50Z</time>
      </trkpt>
      <trkpt lat="47.79533" lon="-3.52881">
        <ele>12.97</ele>
        <time>2020-07-10T13:36:51Z</time>
      </trkpt>
      <trkpt lat="47.79531" lon="-3.5288">
        <ele>12.98</ele>
        <time>2020-07-10T13:36:52Z</time>
      </trkpt>
      <trkpt lat="47.79529" lon="-3.52879">
        <ele>12.94</ele>
        <time>2020-07-10T13:36:53Z</time>
      </trkpt>
      <trkpt lat="47.79528" lon="-3.52878">
        <ele>12.72</ele>
        <time>2020-07-10T13:36:54Z</time>
      </trkpt>
      <trkpt lat="47.79528" lon="-3.52876">
        <ele>12.36</ele>
        <time>2020-07-10T13:36:55Z</time>
      </trkpt>
      <trkpt lat="47.79527" lon="-3.52875">
        <ele>12.09</ele>
        <time>2020-07-10T13:36:56Z</time>
      </trkpt>
      <trkpt lat="47.79526" lon="-3.52873">
        <ele>11.88</ele>
        <time>2020-07-10T13:36:57Z</time>
      </trkpt>
      <trkpt lat="47.79526" lon="-3.52873">
        <ele>11.76</ele>
        <time>2020-07-10T13:36:58Z</time>
      </trkpt>
      <trkpt lat="47.79525" lon="-3.52872">
        <ele>11.77</ele>
        <time>2020-07-10T13:36:59Z</time>
      </trkpt>
      <trkpt lat="47.79525" lon="-3.52872">
        <ele>11.77</ele>
        <time>2020-07-10T13:37:00Z</time>
      </trkpt>
      <trkpt lat="47.79522" lon="-3.52869">
        <ele>11.57</ele>
        <time>2020-07-10T13:37:01Z</time>
      </trkpt>
      <trkpt lat="47.79521" lon="-3.52868">
        <ele>11.37</ele>
        <time>2020-07-10T13:37:02Z</time>
      </trkpt>
      <trkpt lat="47.7952" lon="-3.52865">
        <ele>11.12</ele>
        <time>2020-07-10T13:37:03Z</time>
      </trkpt>
      <trkpt lat="47.79518" lon="-3.52864">
        <ele>11.11</ele>
        <time>2020-07-10T13:37:04Z</time>
      </trkpt>
      <trkpt lat="47.79517" lon="-3.52861">
        <ele>10.93</ele>
        <time>2020-07-10T13:37:05Z</time>
      </trkpt>
      <trkpt lat="47.79515" lon="-3.52858">
        <ele>10.53</ele>
        <time>2020-07-10T13:37:06Z</time>
      </trkpt>
      <trkpt lat="47.79514" lon="-3.52856">
        <ele>10.18</ele>
        <time>2020-07-10T13:37:07Z</time>
      </trkpt>
      <trkpt lat="47.79512" lon="-3.52853">
        <ele>9.97</ele>
        <time>2020-07-10T13:37:08Z</time>
      </trkpt>
      <trkpt lat="47.79509" lon="-3.52852">
        <ele>9.95</ele>
        <time>2020-07-10T13:37:09Z</time>
      </trkpt>
      <trkpt lat="47.79507" lon="-3.52851">
        <ele>10.06</ele>
        <time>2020-07-10T13:37:10Z</time>
      </trkpt>
      <trkpt lat="47.79505" lon="-3.5285">
        <ele>10.35</ele>
        <time>2020-07-10T13:37:11Z</time>
      </trkpt>
      <trkpt lat="47.79502" lon="-3.5285">
        <ele>10.74</ele>
        <time>2020-07-10T13:37:12Z</time>
      </trkpt>
      <trkpt lat="47.79499" lon="-3.5285">
        <ele>11.35</ele>
        <time>2020-07-10T13:37:13Z</time>
      </trkpt>
      <trkpt lat="47.79496" lon="-3.52849">
        <ele>11.73</ele>
        <time>2020-07-10T13:37:14Z</time>
      </trkpt>
      <trkpt lat="47.79492" lon="-3.52847">
        <ele>11.84</ele>
        <time>2020-07-10T13:37:15Z</time>
      </trkpt>
      <trkpt lat="47.79489" lon="-3.52843">
        <ele>11.66</ele>
        <time>2020-07-10T13:37:16Z</time>
      </trkpt>
      <trkpt lat="47.79486" lon="-3.52839">
        <ele>11.35</ele>
        <time>2020-07-10T13:37:17Z</time>
      </trkpt>
      <trkpt lat="47.79483" lon="-3.52835">
        <ele>11.17</ele>
        <time>2020-07-10T13:37:18Z</time>
      </trkpt>
      <trkpt lat="47.79482" lon="-3.52832">
        <ele>10.93</ele>
        <time>2020-07-10T13:37:19Z</time>
      </trkpt>
      <trkpt lat="47.7948" lon="-3.52829">
        <ele>10.47</ele>
        <time>2020-07-10T13:37:20Z</time>
      </trkpt>
      <trkpt lat="47.79478" lon="-3.52828">
        <ele>10.24</ele>
        <time>2020-07-10T13:37:21Z</time>
      </trkpt>
      <trkpt lat="47.79476" lon="-3.52826">
        <ele>10.2</ele>
        <time>2020-07-10T13:37:22Z</time>
      </trkpt>
      <trkpt lat="47.79473" lon="-3.52826">
        <ele>10.39</ele>
        <time>2020-07-10T13:37:23Z</time>
      </trkpt>
      <trkpt lat="47.7947" lon="-3.52825">
        <ele>10.41</ele>
        <time>2020-07-10T13:37:24Z</time>
      </trkpt>
      <trkpt lat="47.79467" lon="-3.52824">
        <ele>10.28</ele>
        <time>2020-07-10T13:37:25Z</time>
      </trkpt>
      <trkpt lat="47.79466" lon="-3.52823">
        <ele>9.98</ele>
        <time>2020-07-10T13:37:26Z</time>
      </trkpt>
      <trkpt lat="47.79463" lon="-3.52823">
        <ele>9.78</ele>
        <time>2020-07-10T13:37:27Z</time>
      </trkpt>
      <trkpt lat="47.79461" lon="-3.52823">
        <ele>9.7</ele>
        <time>2020-07-10T13:37:28Z</time>
      </trkpt>
      <trkpt lat="47.79458" lon="-3.52823">
        <ele>9.64</ele>
        <time>2020-07-10T13:37:29Z</time>
      </trkpt>
      <trkpt lat="47.79453" lon="-3.52821">
        <ele>9.33</ele>
        <time>2020-07-10T13:37:30Z</time>
      </trkpt>
      <trkpt lat="47.79448" lon="-3.52819">
        <ele>8.8</ele>
        <time>2020-07-10T13:37:31Z</time>
      </trkpt>
      <trkpt lat="47.79443" lon="-3.52815">
        <ele>8.11</ele>
        <time>2020-07-10T13:37:32Z</time>
      </trkpt>
      <trkpt lat="47.79439" lon="-3.5281">
        <ele>7.29</ele>
        <time>2020-07-10T13:37:33Z</time>
      </trkpt>
      <trkpt lat="47.79435" lon="-3.52802">
        <ele>6.4</ele>
        <time>2020-07-10T13:37:34Z</time>
      </trkpt>
      <trkpt lat="47.79431" lon="-3.52793">
        <ele>5.39</ele>
        <time>2020-07-10T13:37:35Z</time>
      </trkpt>
      <trkpt lat="47.79429" lon="-3.52786">
        <ele>4.28</ele>
        <time>2020-07-10T13:37:36Z</time>
      </trkpt>
      <trkpt lat="47.79426" lon="-3.52781">
        <ele>3.57</ele>
        <time>2020-07-10T13:37:37Z</time>
      </trkpt>
      <trkpt lat="47.79423" lon="-3.52778">
        <ele>3.28</ele>
        <time>2020-07-10T13:37:38Z</time>
      </trkpt>
      <trkpt lat="47.79419" lon="-3.52777">
        <ele>3.51</ele>
        <time>2020-07-10T13:37:39Z</time>
      </trkpt>
      <trkpt lat="47.79416" lon="-3.52778">
        <ele>3.81</ele>
        <time>2020-07-10T13:37:40Z</time>
      </trkpt>
      <trkpt lat="47.79412" lon="-3.52779">
        <ele>3.79</ele>
        <time>2020-07-10T13:37:41Z</time>
      </trkpt>
      <trkpt lat="47.79407" lon="-3.52781">
        <ele>3.6</ele>
        <time>2020-07-10T13:37:42Z</time>
      </trkpt>
      <trkpt lat="47.79402" lon="-3.52783">
        <ele>3.45</ele>
        <time>2020-07-10T13:37:43Z</time>
      </trkpt>
      <trkpt lat="47.79398" lon="-3.52786">
        <ele>3.34</ele>
        <time>2020-07-10T13:37:44Z</time>
      </trkpt>
      <trkpt lat="47.79393" lon="-3.52788">
        <ele>3.1</ele>
        <time>2020-07-10T13:37:45Z</time>
      </trkpt>
      <trkpt lat="47.7939" lon="-3.52789">
        <ele>2.88</ele>
        <time>2020-07-10T13:37:46Z</time>
      </trkpt>
      <trkpt lat="47.79388" lon="-3.5279">
        <ele>2.8</ele>
        <time>2020-07-10T13:37:47Z</time>
      </trkpt>
      <trkpt lat="47.79387" lon="-3.52791">
        <ele>2.81</ele>
        <time>2020-07-10T13:37:48Z</time>
      </trkpt>
      <trkpt lat="47.79385" lon="-3.52792">
        <ele>2.82</ele>
        <time>2020-07-10T13:37:49Z</time>
      </trkpt>
      <trkpt lat="47.79383" lon="-3.52794">
        <ele>2.85</ele>
        <time>2020-07-10T13:37:50Z</time>
      </trkpt>
      <trkpt lat="47.79381" lon="-3.52796">
        <ele>2.92</ele>
        <time>2020-07-10T13:37:51Z</time>
      </trkpt>
      <trkpt lat="47.79378" lon="-3.528">
        <ele>3.1</ele>
        <time>2020-07-10T13:37:52Z</time>
      </trkpt>
      <trkpt lat="47.79376" lon="-3.52805">
        <ele>3.39</ele>
        <time>2020-07-10T13:37:53Z</time>
      </trkpt>
      <trkpt lat="47.79374" lon="-3.52811">
        <ele>3.73</ele>
        <time>2020-07-10T13:37:54Z</time>
      </trkpt>
      <trkpt lat="47.79372" lon="-3.52816">
        <ele>3.97</ele>
        <time>2020-07-10T13:37:55Z</time>
      </trkpt>
      <trkpt lat="47.79371" lon="-3.52818">
        <ele>4.06</ele>
        <time>2020-07-10T13:37:56Z</time>
      </trkpt>
      <trkpt lat="47.79369" lon="-3.52819">
        <ele>3.99</ele>
        <time>2020-07-10T13:37:57Z</time>
      </trkpt>
      <trkpt lat="47.79368" lon="-3.52819">
        <ele>3.88</ele>
        <time>2020-07-10T13:37:58Z</time>
      </trkpt>
      <trkpt lat="47.79367" lon="-3.5282">
        <ele>3.83</ele>
        <time>2020-07-10T13:37:59Z</time>
      </trkpt>
      <trkpt lat="47.79366" lon="-3.52821">
        <ele>3.74</ele>
        <time>2020-07-10T13:38:00Z</time>
      </trkpt>
      <trkpt lat="47.79364" lon="-3.52821">
        <ele>3.59</ele>
        <time>2020-07-10T13:38:01Z</time>
      </trkpt>
      <trkpt lat="47.79362" lon="-3.52821">
        <ele>3.34</ele>
        <time>2020-07-10T13:38:02Z</time>
      </trkpt>
      <trkpt lat="47.79359" lon="-3.52822">
        <ele>3.15</ele>
        <time>2020-07-10T13:38:03Z</time>
      </trkpt>
      <trkpt lat="47.79355" lon="-3.52824">
        <ele>3.06</ele>
        <time>2020-07-10T13:38:04Z</time>
      </trkpt>
      <trkpt lat="47.79351" lon="-3.52827">
        <ele>3.12</ele>
        <time>2020-07-10T13:38:05Z</time>
      </trkpt>
      <trkpt lat="47.79348" lon="-3.52831">
        <ele>3.25</ele>
        <time>2020-07-10T13:38:06Z</time>
      </trkpt>
      <trkpt lat="47.79345" lon="-3.52833">
        <ele>3.4</ele>
        <time>2020-07-10T13:38:07Z</time>
      </trkpt>
      <trkpt lat="47.79343" lon="-3.52835">
        <ele>3.45</ele>
        <time>2020-07-10T13:38:08Z</time>
      </trkpt>
      <trkpt lat="47.79341" lon="-3.52835">
        <ele>3.43</ele>
        <time>2020-07-10T13:38:09Z</time>
      </trkpt>
      <trkpt lat="47.79338" lon="-3.52836">
        <ele>3.44</ele>
        <time>2020-07-10T13:38:10Z</time>
      </trkpt>
      <trkpt lat="47.79335" lon="-3.52837">
        <ele>3.47</ele>
        <time>2020-07-10T13:38:11Z</time>
      </trkpt>
      <trkpt lat="47.79333" lon="-3.52839">
        <ele>3.55</ele>
        <time>2020-07-10T13:38:12Z</time>
      </trkpt>
      <trkpt lat="47.79331" lon="-3.52842">
        <ele>3.74</ele>
        <time>2020-07-10T13:38:13Z</time>
      </trkpt>
      <trkpt lat="47.79329" lon="-3.52845">
        <ele>3.92</ele>
        <time>2020-07-10T13:38:14Z</time>
      </trkpt>
      <trkpt lat="47.79327" lon="-3.52846">
        <ele>4.02</ele>
        <time>2020-07-10T13:38:15Z</time>
      </trkpt>
      <trkpt lat="47.79325" lon="-3.52848">
        <ele>4.13</ele>
        <time>2020-07-10T13:38:16Z</time>
      </trkpt>
      <trkpt lat="47.79323" lon="-3.52851">
        <ele>4.22</ele>
        <time>2020-07-10T13:38:17Z</time>
      </trkpt>
      <trkpt lat="47.7932" lon="-3.52853">
        <ele>4.28</ele>
        <time>2020-07-10T13:38:18Z</time>
      </trkpt>
      <trkpt lat="47.79317" lon="-3.52855">
        <ele>4.3</ele>
        <time>2020-07-10T13:38:19Z</time>
      </trkpt>
      <trkpt lat="47.79314" lon="-3.52857">
        <ele>4.27</ele>
        <time>2020-07-10T13:38:20Z</time>
      </trkpt>
      <trkpt lat="47.79308" lon="-3.52858">
        <ele>4.03</ele>
        <time>2020-07-10T13:38:21Z</time>
      </trkpt>
      <trkpt lat="47.79303" lon="-3.5286">
        <ele>3.87</ele>
        <time>2020-07-10T13:38:22Z</time>
      </trkpt>
      <trkpt lat="47.79297" lon="-3.5286">
        <ele>3.71</ele>
        <time>2020-07-10T13:38:23Z</time>
      </trkpt>
      <trkpt lat="47.79292" lon="-3.5286">
        <ele>3.5</ele>
        <time>2020-07-10T13:38:24Z</time>
      </trkpt>
      <trkpt lat="47.79287" lon="-3.5286">
        <ele>3.34</ele>
        <time>2020-07-10T13:38:25Z</time>
      </trkpt>
      <trkpt lat="47.79282" lon="-3.52862">
        <ele>3.24</ele>
        <time>2020-07-10T13:38:26Z</time>
      </trkpt>
      <trkpt lat="47.79277" lon="-3.52863">
        <ele>3.18</ele>
        <time>2020-07-10T13:38:27Z</time>
      </trkpt>
      <trkpt lat="47.79272" lon="-3.52866">
        <ele>3.07</ele>
        <time>2020-07-10T13:38:28Z</time>
      </trkpt>
      <trkpt lat="47.79268" lon="-3.52868">
        <ele>3.02</ele>
        <time>2020-07-10T13:38:29Z</time>
      </trkpt>
      <trkpt lat="47.79264" lon="-3.52871">
        <ele>3.03</ele>
        <time>2020-07-10T13:38:30Z</time>
      </trkpt>
      <trkpt lat="47.7926" lon="-3.52875">
        <ele>3.17</ele>
        <time>2020-07-10T13:38:31Z</time>
      </trkpt>
      <trkpt lat="47.79256" lon="-3.52878">
        <ele>3.25</ele>
        <time>2020-07-10T13:38:32Z</time>
      </trkpt>
      <trkpt lat="47.79252" lon="-3.52881">
        <ele>3.27</ele>
        <time>2020-07-10T13:38:33Z</time>
      </trkpt>
      <trkpt lat="47.79247" lon="-3.52885">
        <ele>3.15</ele>
        <time>2020-07-10T13:38:34Z</time>
      </trkpt>
      <trkpt lat="47.79242" lon="-3.52889">
        <ele>3</ele>
        <time>2020-07-10T13:38:35Z</time>
      </trkpt>
      <trkpt lat="47.79238" lon="-3.52894">
        <ele>2.76</ele>
        <time>2020-07-10T13:38:36Z</time>
      </trkpt>
      <trkpt lat="47.79235" lon="-3.52897">
        <ele>2.57</ele>
        <time>2020-07-10T13:38:37Z</time>
      </trkpt>
      <trkpt lat="47.79233" lon="-3.529">
        <ele>2.38</ele>
        <time>2020-07-10T13:38:38Z</time>
      </trkpt>
      <trkpt lat="47.7923" lon="-3.52904">
        <ele>2.18</ele>
        <time>2020-07-10T13:38:39Z</time>
      </trkpt>
      <trkpt lat="47.79226" lon="-3.52908">
        <ele>1.97</ele>
        <time>2020-07-10T13:38:40Z</time>
      </trkpt>
      <trkpt lat="47.79223" lon="-3.52911">
        <ele>1.8</ele>
        <time>2020-07-10T13:38:41Z</time>
      </trkpt>
      <trkpt lat="47.7922" lon="-3.52915">
        <ele>1.77</ele>
        <time>2020-07-10T13:38:42Z</time>
      </trkpt>
      <trkpt lat="47.79218" lon="-3.52919">
        <ele>1.86</ele>
        <time>2020-07-10T13:38:43Z</time>
      </trkpt>
      <trkpt lat="47.79215" lon="-3.52924">
        <ele>2</ele>
        <time>2020-07-10T13:38:44Z</time>
      </trkpt>
      <trkpt lat="47.79213" lon="-3.52929">
        <ele>2.13</ele>
        <time>2020-07-10T13:38:45Z</time>
      </trkpt>
      <trkpt lat="47.7921" lon="-3.52934">
        <ele>2.2</ele>
        <time>2020-07-10T13:38:46Z</time>
      </trkpt>
      <trkpt lat="47.79208" lon="-3.52939">
        <ele>2.18</ele>
        <time>2020-07-10T13:38:47Z</time>
      </trkpt>
      <trkpt lat="47.79206" lon="-3.52945">
        <ele>2.12</ele>
        <time>2020-07-10T13:38:48Z</time>
      </trkpt>
      <trkpt lat="47.79204" lon="-3.52951">
        <ele>2.01</ele>
        <time>2020-07-10T13:38:49Z</time>
      </trkpt>
      <trkpt lat="47.79203" lon="-3.52957">
        <ele>1.89</ele>
        <time>2020-07-10T13:38:50Z</time>
      </trkpt>
      <trkpt lat="47.79201" lon="-3.52962">
        <ele>1.74</ele>
        <time>2020-07-10T13:38:51Z</time>
      </trkpt>
      <trkpt lat="47.792" lon="-3.52967">
        <ele>1.66</ele>
        <time>2020-07-10T13:38:52Z</time>
      </trkpt>
      <trkpt lat="47.79199" lon="-3.52973">
        <ele>1.67</ele>
        <time>2020-07-10T13:38:53Z</time>
      </trkpt>
      <trkpt lat="47.79198" lon="-3.52978">
        <ele>1.83</ele>
        <time>2020-07-10T13:38:54Z</time>
      </trkpt>
      <trkpt lat="47.79197" lon="-3.52985">
        <ele>2.11</ele>
        <time>2020-07-10T13:38:55Z</time>
      </trkpt>
      <trkpt lat="47.79195" lon="-3.52992">
        <ele>2.4</ele>
        <time>2020-07-10T13:38:56Z</time>
      </trkpt>
      <trkpt lat="47.79194" lon="-3.52999">
        <ele>2.72</ele>
        <time>2020-07-10T13:38:57Z</time>
      </trkpt>
      <trkpt lat="47.79193" lon="-3.53005">
        <ele>3.04</ele>
        <time>2020-07-10T13:38:58Z</time>
      </trkpt>
      <trkpt lat="47.7919" lon="-3.53011">
        <ele>3.26</ele>
        <time>2020-07-10T13:38:59Z</time>
      </trkpt>
      <trkpt lat="47.79188" lon="-3.53016">
        <ele>3.36</ele>
        <time>2020-07-10T13:39:00Z</time>
      </trkpt>
      <trkpt lat="47.79184" lon="-3.5302">
        <ele>3.34</ele>
        <time>2020-07-10T13:39:01Z</time>
      </trkpt>
      <trkpt lat="47.79181" lon="-3.53022">
        <ele>3.24</ele>
        <time>2020-07-10T13:39:02Z</time>
      </trkpt>
      <trkpt lat="47.79178" lon="-3.53024">
        <ele>3.07</ele>
        <time>2020-07-10T13:39:03Z</time>
      </trkpt>
      <trkpt lat="47.79175" lon="-3.53025">
        <ele>2.82</ele>
        <time>2020-07-10T13:39:04Z</time>
      </trkpt>
      <trkpt lat="47.79172" lon="-3.53026">
        <ele>2.55</ele>
        <time>2020-07-10T13:39:05Z</time>
      </trkpt>
      <trkpt lat="47.79168" lon="-3.53027">
        <ele>2.23</ele>
        <time>2020-07-10T13:39:06Z</time>
      </trkpt>
      <trkpt lat="47.79164" lon="-3.53028">
        <ele>1.96</ele>
        <time>2020-07-10T13:39:07Z</time>
      </trkpt>
      <trkpt lat="47.7916" lon="-3.53029">
        <ele>1.75</ele>
        <time>2020-07-10T13:39:08Z</time>
      </trkpt>
      <trkpt lat="47.79156" lon="-3.53031">
        <ele>1.58</ele>
        <time>2020-07-10T13:39:09Z</time>
      </trkpt>
      <trkpt lat="47.79152" lon="-3.53033">
        <ele>1.44</ele>
        <time>2020-07-10T13:39:10Z</time>
      </trkpt>
      <trkpt lat="47.7915" lon="-3.53035">
        <ele>1.42</ele>
        <time>2020-07-10T13:39:11Z</time>
      </trkpt>
      <trkpt lat="47.79147" lon="-3.53039">
        <ele>1.46</ele>
        <time>2020-07-10T13:39:12Z</time>
      </trkpt>
      <trkpt lat="47.79144" lon="-3.53043">
        <ele>1.54</ele>
        <time>2020-07-10T13:39:13Z</time>
      </trkpt>
      <trkpt lat="47.79142" lon="-3.53047">
        <ele>1.63</ele>
        <time>2020-07-10T13:39:14Z</time>
      </trkpt>
      <trkpt lat="47.79139" lon="-3.53053">
        <ele>1.75</ele>
        <time>2020-07-10T13:39:15Z</time>
      </trkpt>
      <trkpt lat="47.79137" lon="-3.53058">
        <ele>1.84</ele>
        <time>2020-07-10T13:39:16Z</time>
      </trkpt>
      <trkpt lat="47.79136" lon="-3.53063">
        <ele>1.82</ele>
        <time>2020-07-10T13:39:17Z</time>
      </trkpt>
      <trkpt lat="47.79136" lon="-3.53068">
        <ele>1.78</ele>
        <time>2020-07-10T13:39:18Z</time>
      </trkpt>
      <trkpt lat="47.79136" lon="-3.53073">
        <ele>1.78</ele>
        <time>2020-07-10T13:39:19Z</time>
      </trkpt>
      <trkpt lat="47.79137" lon="-3.5308">
        <ele>1.81</ele>
        <time>2020-07-10T13:39:20Z</time>
      </trkpt>
      <trkpt lat="47.79138" lon="-3.53086">
        <ele>1.87</ele>
        <time>2020-07-10T13:39:21Z</time>
      </trkpt>
      <trkpt lat="47.79139" lon="-3.53093">
        <ele>1.95</ele>
        <time>2020-07-10T13:39:22Z</time>
      </trkpt>
      <trkpt lat="47.7914" lon="-3.53099">
        <ele>2.17</ele>
        <time>2020-07-10T13:39:23Z</time>
      </trkpt>
      <trkpt lat="47.79142" lon="-3.53106">
        <ele>2.56</ele>
        <time>2020-07-10T13:39:24Z</time>
      </trkpt>
      <trkpt lat="47.79144" lon="-3.53112">
        <ele>2.99</ele>
        <time>2020-07-10T13:39:25Z</time>
      </trkpt>
      <trkpt lat="47.79145" lon="-3.53118">
        <ele>3.26</ele>
        <time>2020-07-10T13:39:26Z</time>
      </trkpt>
      <trkpt lat="47.79147" lon="-3.53125">
        <ele>3.38</ele>
        <time>2020-07-10T13:39:27Z</time>
      </trkpt>
      <trkpt lat="47.79147" lon="-3.5313">
        <ele>3.37</ele>
        <time>2020-07-10T13:39:28Z</time>
      </trkpt>
      <trkpt lat="47.79146" lon="-3.53135">
        <ele>3.01</ele>
        <time>2020-07-10T13:39:29Z</time>
      </trkpt>
      <trkpt lat="47.79144" lon="-3.53139">
        <ele>2.42</ele>
        <time>2020-07-10T13:39:30Z</time>
      </trkpt>
      <trkpt lat="47.79139" lon="-3.53142">
        <ele>1.59</ele>
        <time>2020-07-10T13:39:31Z</time>
      </trkpt>
      <trkpt lat="47.79135" lon="-3.53147">
        <ele>1.26</ele>
        <time>2020-07-10T13:39:32Z</time>
      </trkpt>
      <trkpt lat="47.7913" lon="-3.53151">
        <ele>1.15</ele>
        <time>2020-07-10T13:39:33Z</time>
      </trkpt>
      <trkpt lat="47.79125" lon="-3.53154">
        <ele>1.09</ele>
        <time>2020-07-10T13:39:34Z</time>
      </trkpt>
      <trkpt lat="47.79121" lon="-3.53156">
        <ele>1</ele>
        <time>2020-07-10T13:39:35Z</time>
      </trkpt>
      <trkpt lat="47.79116" lon="-3.53159">
        <ele>0.93</ele>
        <time>2020-07-10T13:39:36Z</time>
      </trkpt>
      <trkpt lat="47.79112" lon="-3.53161">
        <ele>0.87</ele>
        <time>2020-07-10T13:39:37Z</time>
      </trkpt>
      <trkpt lat="47.79109" lon="-3.53164">
        <ele>0.9</ele>
        <time>2020-07-10T13:39:38Z</time>
      </trkpt>
      <trkpt lat="47.79105" lon="-3.53167">
        <ele>0.97</ele>
        <time>2020-07-10T13:39:39Z</time>
      </trkpt>
      <trkpt lat="47.79101" lon="-3.53169">
        <ele>1.04</ele>
        <time>2020-07-10T13:39:40Z</time>
      </trkpt>
      <trkpt lat="47.79097" lon="-3.53171">
        <ele>1.12</ele>
        <time>2020-07-10T13:39:41Z</time>
      </trkpt>
      <trkpt lat="47.79093" lon="-3.53174">
        <ele>1.21</ele>
        <time>2020-07-10T13:39:42Z</time>
      </trkpt>
      <trkpt lat="47.79088" lon="-3.53176">
        <ele>1.3</ele>
        <time>2020-07-10T13:39:43Z</time>
      </trkpt>
      <trkpt lat="47.79084" lon="-3.53179">
        <ele>1.4</ele>
        <time>2020-07-10T13:39:44Z</time>
      </trkpt>
      <trkpt lat="47.79079" lon="-3.53182">
        <ele>1.45</ele>
        <time>2020-07-10T13:39:45Z</time>
      </trkpt>
      <trkpt lat="47.79075" lon="-3.53185">
        <ele>1.51</ele>
        <time>2020-07-10T13:39:46Z</time>
      </trkpt>
      <trkpt lat="47.79071" lon="-3.53187">
        <ele>1.59</ele>
        <time>2020-07-10T13:39:47Z</time>
      </trkpt>
      <trkpt lat="47.79067" lon="-3.5319">
        <ele>1.69</ele>
        <time>2020-07-10T13:39:48Z</time>
      </trkpt>
      <trkpt lat="47.79063" lon="-3.53192">
        <ele>1.78</ele>
        <time>2020-07-10T13:39:49Z</time>
      </trkpt>
      <trkpt lat="47.79059" lon="-3.53194">
        <ele>1.91</ele>
        <time>2020-07-10T13:39:50Z</time>
      </trkpt>
      <trkpt lat="47.79056" lon="-3.53196">
        <ele>2.05</ele>
        <time>2020-07-10T13:39:51Z</time>
      </trkpt>
      <trkpt lat="47.79054" lon="-3.53197">
        <ele>2.26</ele>
        <time>2020-07-10T13:39:52Z</time>
      </trkpt>
      <trkpt lat="47.79051" lon="-3.53198">
        <ele>2.55</ele>
        <time>2020-07-10T13:39:53Z</time>
      </trkpt>
      <trkpt lat="47.79048" lon="-3.53199">
        <ele>2.84</ele>
        <time>2020-07-10T13:39:54Z</time>
      </trkpt>
      <trkpt lat="47.79044" lon="-3.53199">
        <ele>3.1</ele>
        <time>2020-07-10T13:39:55Z</time>
      </trkpt>
      <trkpt lat="47.79041" lon="-3.53198">
        <ele>3.25</ele>
        <time>2020-07-10T13:39:56Z</time>
      </trkpt>
      <trkpt lat="47.79039" lon="-3.53196">
        <ele>3.32</ele>
        <time>2020-07-10T13:39:57Z</time>
      </trkpt>
      <trkpt lat="47.79036" lon="-3.53195">
        <ele>3.38</ele>
        <time>2020-07-10T13:39:58Z</time>
      </trkpt>
      <trkpt lat="47.79034" lon="-3.53194">
        <ele>3.42</ele>
        <time>2020-07-10T13:39:59Z</time>
      </trkpt>
      <trkpt lat="47.79032" lon="-3.53192">
        <ele>3.45</ele>
        <time>2020-07-10T13:40:00Z</time>
      </trkpt>
      <trkpt lat="47.7903" lon="-3.53191">
        <ele>3.46</ele>
        <time>2020-07-10T13:40:01Z</time>
      </trkpt>
      <trkpt lat="47.79028" lon="-3.53189">
        <ele>3.4</ele>
        <time>2020-07-10T13:40:02Z</time>
      </trkpt>
      <trkpt lat="47.79026" lon="-3.53187">
        <ele>3.45</ele>
        <time>2020-07-10T13:40:03Z</time>
      </trkpt>
      <trkpt lat="47.79024" lon="-3.53186">
        <ele>3.61</ele>
        <time>2020-07-10T13:40:04Z</time>
      </trkpt>
      <trkpt lat="47.79021" lon="-3.53185">
        <ele>3.83</ele>
        <time>2020-07-10T13:40:05Z</time>
      </trkpt>
      <trkpt lat="47.79019" lon="-3.53184">
        <ele>3.98</ele>
        <time>2020-07-10T13:40:06Z</time>
      </trkpt>
      <trkpt lat="47.79016" lon="-3.53182">
        <ele>4.11</ele>
        <time>2020-07-10T13:40:07Z</time>
      </trkpt>
      <trkpt lat="47.79014" lon="-3.53181">
        <ele>4.25</ele>
        <time>2020-07-10T13:40:08Z</time>
      </trkpt>
      <trkpt lat="47.79012" lon="-3.5318">
        <ele>4.34</ele>
        <time>2020-07-10T13:40:09Z</time>
      </trkpt>
      <trkpt lat="47.7901" lon="-3.53178">
        <ele>4.3</ele>
        <time>2020-07-10T13:40:10Z</time>
      </trkpt>
      <trkpt lat="47.79009" lon="-3.53177">
        <ele>4.24</ele>
        <time>2020-07-10T13:40:11Z</time>
      </trkpt>
      <trkpt lat="47.79006" lon="-3.53176">
        <ele>4.27</ele>
        <time>2020-07-10T13:40:12Z</time>
      </trkpt>
      <trkpt lat="47.79003" lon="-3.53174">
        <ele>4.24</ele>
        <time>2020-07-10T13:40:13Z</time>
      </trkpt>
      <trkpt lat="47.79001" lon="-3.53173">
        <ele>4.22</ele>
        <time>2020-07-10T13:40:14Z</time>
      </trkpt>
      <trkpt lat="47.78998" lon="-3.53171">
        <ele>4.39</ele>
        <time>2020-07-10T13:40:15Z</time>
      </trkpt>
      <trkpt lat="47.78996" lon="-3.5317">
        <ele>4.6</ele>
        <time>2020-07-10T13:40:16Z</time>
      </trkpt>
      <trkpt lat="47.78994" lon="-3.53168">
        <ele>4.85</ele>
        <time>2020-07-10T13:40:17Z</time>
      </trkpt>
      <trkpt lat="47.78991" lon="-3.53167">
        <ele>5.14</ele>
        <time>2020-07-10T13:40:18Z</time>
      </trkpt>
      <trkpt lat="47.78988" lon="-3.53166">
        <ele>5.58</ele>
        <time>2020-07-10T13:40:19Z</time>
      </trkpt>
      <trkpt lat="47.78986" lon="-3.53165">
        <ele>6.08</ele>
        <time>2020-07-10T13:40:20Z</time>
      </trkpt>
      <trkpt lat="47.78983" lon="-3.53163">
        <ele>6.45</ele>
        <time>2020-07-10T13:40:21Z</time>
      </trkpt>
      <trkpt lat="47.7898" lon="-3.53161">
        <ele>6.8</ele>
        <time>2020-07-10T13:40:22Z</time>
      </trkpt>
      <trkpt lat="47.78977" lon="-3.5316">
        <ele>7.06</ele>
        <time>2020-07-10T13:40:23Z</time>
      </trkpt>
      <trkpt lat="47.78974" lon="-3.53158">
        <ele>7.28</ele>
        <time>2020-07-10T13:40:24Z</time>
      </trkpt>
      <trkpt lat="47.78971" lon="-3.53155">
        <ele>7.25</ele>
        <time>2020-07-10T13:40:25Z</time>
      </trkpt>
      <trkpt lat="47.78968" lon="-3.53152">
        <ele>7.16</ele>
        <time>2020-07-10T13:40:26Z</time>
      </trkpt>
      <trkpt lat="47.78965" lon="-3.53149">
        <ele>7.06</ele>
        <time>2020-07-10T13:40:27Z</time>
      </trkpt>
      <trkpt lat="47.78963" lon="-3.53148">
        <ele>6.99</ele>
        <time>2020-07-10T13:40:28Z</time>
      </trkpt>
      <trkpt lat="47.78962" lon="-3.53147">
        <ele>6.94</ele>
        <time>2020-07-10T13:40:29Z</time>
      </trkpt>
      <trkpt lat="47.78961" lon="-3.53147">
        <ele>7</ele>
        <time>2020-07-10T13:40:30Z</time>
      </trkpt>
      <trkpt lat="47.78961" lon="-3.53147">
        <ele>7.13</ele>
        <time>2020-07-10T13:40:31Z</time>
      </trkpt>
      <trkpt lat="47.78961" lon="-3.53147">
        <ele>7.17</ele>
        <time>2020-07-10T13:40:32Z</time>
      </trkpt>
      <trkpt lat="47.78961" lon="-3.53147">
        <ele>7.18</ele>
        <time>2020-07-10T13:40:33Z</time>
      </trkpt>
      <trkpt lat="47.78955" lon="-3.53147">
        <ele>7.85</ele>
        <time>2020-07-10T13:40:34Z</time>
      </trkpt>
      <trkpt lat="47.78953" lon="-3.53147">
        <ele>8.35</ele>
        <time>2020-07-10T13:40:35Z</time>
      </trkpt>
      <trkpt lat="47.78951" lon="-3.53146">
        <ele>8.69</ele>
        <time>2020-07-10T13:40:36Z</time>
      </trkpt>
      <trkpt lat="47.78949" lon="-3.53146">
        <ele>9.15</ele>
        <time>2020-07-10T13:40:37Z</time>
      </trkpt>
      <trkpt lat="47.78946" lon="-3.53145">
        <ele>9.41</ele>
        <time>2020-07-10T13:40:38Z</time>
      </trkpt>
      <trkpt lat="47.78943" lon="-3.53145">
        <ele>9.95</ele>
        <time>2020-07-10T13:40:39Z</time>
      </trkpt>
      <trkpt lat="47.78939" lon="-3.53145">
        <ele>10.88</ele>
        <time>2020-07-10T13:40:40Z</time>
      </trkpt>
      <trkpt lat="47.78936" lon="-3.53146">
        <ele>11.98</ele>
        <time>2020-07-10T13:40:41Z</time>
      </trkpt>
      <trkpt lat="47.78934" lon="-3.53146">
        <ele>12.87</ele>
        <time>2020-07-10T13:40:42Z</time>
      </trkpt>
      <trkpt lat="47.78931" lon="-3.53147">
        <ele>13.9</ele>
        <time>2020-07-10T13:40:43Z</time>
      </trkpt>
      <trkpt lat="47.78928" lon="-3.53145">
        <ele>14.38</ele>
        <time>2020-07-10T13:40:44Z</time>
      </trkpt>
      <trkpt lat="47.78926" lon="-3.53144">
        <ele>14.71</ele>
        <time>2020-07-10T13:40:45Z</time>
      </trkpt>
      <trkpt lat="47.78924" lon="-3.53143">
        <ele>15.07</ele>
        <time>2020-07-10T13:40:46Z</time>
      </trkpt>
      <trkpt lat="47.78922" lon="-3.53141">
        <ele>15.29</ele>
        <time>2020-07-10T13:40:47Z</time>
      </trkpt>
      <trkpt lat="47.7892" lon="-3.5314">
        <ele>15.43</ele>
        <time>2020-07-10T13:40:48Z</time>
      </trkpt>
      <trkpt lat="47.78917" lon="-3.53138">
        <ele>15.54</ele>
        <time>2020-07-10T13:40:49Z</time>
      </trkpt>
      <trkpt lat="47.78915" lon="-3.53137">
        <ele>15.7</ele>
        <time>2020-07-10T13:40:50Z</time>
      </trkpt>
      <trkpt lat="47.78912" lon="-3.53137">
        <ele>16.55</ele>
        <time>2020-07-10T13:40:51Z</time>
      </trkpt>
      <trkpt lat="47.78909" lon="-3.53136">
        <ele>17.29</ele>
        <time>2020-07-10T13:40:52Z</time>
      </trkpt>
      <trkpt lat="47.78906" lon="-3.53135">
        <ele>17.97</ele>
        <time>2020-07-10T13:40:53Z</time>
      </trkpt>
      <trkpt lat="47.78904" lon="-3.53135">
        <ele>18.7</ele>
        <time>2020-07-10T13:40:54Z</time>
      </trkpt>
      <trkpt lat="47.78901" lon="-3.53134">
        <ele>19.42</ele>
        <time>2020-07-10T13:40:55Z</time>
      </trkpt>
      <trkpt lat="47.78898" lon="-3.53134">
        <ele>20.02</ele>
        <time>2020-07-10T13:40:56Z</time>
      </trkpt>
      <trkpt lat="47.78896" lon="-3.53133">
        <ele>20.69</ele>
        <time>2020-07-10T13:40:57Z</time>
      </trkpt>
      <trkpt lat="47.78895" lon="-3.53133">
        <ele>21.24</ele>
        <time>2020-07-10T13:40:58Z</time>
      </trkpt>
      <trkpt lat="47.78893" lon="-3.53132">
        <ele>21.67</ele>
        <time>2020-07-10T13:40:59Z</time>
      </trkpt>
      <trkpt lat="47.78892" lon="-3.53131">
        <ele>21.78</ele>
        <time>2020-07-10T13:41:00Z</time>
      </trkpt>
      <trkpt lat="47.7889" lon="-3.53129">
        <ele>21.58</ele>
        <time>2020-07-10T13:41:01Z</time>
      </trkpt>
      <trkpt lat="47.78888" lon="-3.53128">
        <ele>21.51</ele>
        <time>2020-07-10T13:41:02Z</time>
      </trkpt>
      <trkpt lat="47.78887" lon="-3.53127">
        <ele>21.53</ele>
        <time>2020-07-10T13:41:03Z</time>
      </trkpt>
      <trkpt lat="47.78885" lon="-3.53126">
        <ele>21.55</ele>
        <time>2020-07-10T13:41:04Z</time>
      </trkpt>
      <trkpt lat="47.78884" lon="-3.53124">
        <ele>21.38</ele>
        <time>2020-07-10T13:41:05Z</time>
      </trkpt>
      <trkpt lat="47.78882" lon="-3.53123">
        <ele>21.37</ele>
        <time>2020-07-10T13:41:06Z</time>
      </trkpt>
      <trkpt lat="47.78881" lon="-3.53122">
        <ele>21.38</ele>
        <time>2020-07-10T13:41:07Z</time>
      </trkpt>
      <trkpt lat="47.78881" lon="-3.53122">
        <ele>21.59</ele>
        <time>2020-07-10T13:41:08Z</time>
      </trkpt>
      <trkpt lat="47.7888" lon="-3.53121">
        <ele>21.56</ele>
        <time>2020-07-10T13:41:09Z</time>
      </trkpt>
      <trkpt lat="47.7888" lon="-3.53121">
        <ele>21.55</ele>
        <time>2020-07-10T13:41:10Z</time>
      </trkpt>
      <trkpt lat="47.7888" lon="-3.53121">
        <ele>21.55</ele>
        <time>2020-07-10T13:41:11Z</time>
      </trkpt>
      <trkpt lat="47.78877" lon="-3.53114">
        <ele>20.63</ele>
        <time>2020-07-10T13:41:12Z</time>
      </trkpt>
      <trkpt lat="47.78876" lon="-3.53112">
        <ele>19.91</ele>
        <time>2020-07-10T13:41:13Z</time>
      </trkpt>
      <trkpt lat="47.78875" lon="-3.53108">
        <ele>19.1</ele>
        <time>2020-07-10T13:41:14Z</time>
      </trkpt>
      <trkpt lat="47.78874" lon="-3.53105">
        <ele>18.53</ele>
        <time>2020-07-10T13:41:15Z</time>
      </trkpt>
      <trkpt lat="47.78873" lon="-3.53102">
        <ele>17.81</ele>
        <time>2020-07-10T13:41:16Z</time>
      </trkpt>
      <trkpt lat="47.78872" lon="-3.531">
        <ele>17.21</ele>
        <time>2020-07-10T13:41:17Z</time>
      </trkpt>
      <trkpt lat="47.78871" lon="-3.53097">
        <ele>16.75</ele>
        <time>2020-07-10T13:41:18Z</time>
      </trkpt>
      <trkpt lat="47.78869" lon="-3.53094">
        <ele>16.5</ele>
        <time>2020-07-10T13:41:19Z</time>
      </trkpt>
      <trkpt lat="47.78868" lon="-3.53092">
        <ele>16.25</ele>
        <time>2020-07-10T13:41:20Z</time>
      </trkpt>
      <trkpt lat="47.78866" lon="-3.53088">
        <ele>15.91</ele>
        <time>2020-07-10T13:41:21Z</time>
      </trkpt>
      <trkpt lat="47.78865" lon="-3.53084">
        <ele>15.56</ele>
        <time>2020-07-10T13:41:22Z</time>
      </trkpt>
      <trkpt lat="47.78862" lon="-3.53079">
        <ele>15.33</ele>
        <time>2020-07-10T13:41:23Z</time>
      </trkpt>
      <trkpt lat="47.78859" lon="-3.53072">
        <ele>14.66</ele>
        <time>2020-07-10T13:41:24Z</time>
      </trkpt>
      <trkpt lat="47.78855" lon="-3.53064">
        <ele>13.75</ele>
        <time>2020-07-10T13:41:25Z</time>
      </trkpt>
      <trkpt lat="47.78852" lon="-3.53055">
        <ele>12.8</ele>
        <time>2020-07-10T13:41:26Z</time>
      </trkpt>
      <trkpt lat="47.78848" lon="-3.53046">
        <ele>12.29</ele>
        <time>2020-07-10T13:41:27Z</time>
      </trkpt>
      <trkpt lat="47.78845" lon="-3.53037">
        <ele>11.9</ele>
        <time>2020-07-10T13:41:28Z</time>
      </trkpt>
      <trkpt lat="47.78843" lon="-3.5303">
        <ele>11.46</ele>
        <time>2020-07-10T13:41:29Z</time>
      </trkpt>
      <trkpt lat="47.78841" lon="-3.53024">
        <ele>11.11</ele>
        <time>2020-07-10T13:41:30Z</time>
      </trkpt>
      <trkpt lat="47.78839" lon="-3.53018">
        <ele>10.41</ele>
        <time>2020-07-10T13:41:31Z</time>
      </trkpt>
      <trkpt lat="47.78836" lon="-3.53013">
        <ele>9.84</ele>
        <time>2020-07-10T13:41:32Z</time>
      </trkpt>
      <trkpt lat="47.78834" lon="-3.53008">
        <ele>9.32</ele>
        <time>2020-07-10T13:41:33Z</time>
      </trkpt>
      <trkpt lat="47.78832" lon="-3.53003">
        <ele>8.43</ele>
        <time>2020-07-10T13:41:34Z</time>
      </trkpt>
      <trkpt lat="47.78829" lon="-3.52998">
        <ele>7.37</ele>
        <time>2020-07-10T13:41:35Z</time>
      </trkpt>
      <trkpt lat="47.78827" lon="-3.52995">
        <ele>6.57</ele>
        <time>2020-07-10T13:41:36Z</time>
      </trkpt>
      <trkpt lat="47.78825" lon="-3.52992">
        <ele>5.9</ele>
        <time>2020-07-10T13:41:37Z</time>
      </trkpt>
      <trkpt lat="47.78821" lon="-3.5299">
        <ele>5.54</ele>
        <time>2020-07-10T13:41:38Z</time>
      </trkpt>
      <trkpt lat="47.78818" lon="-3.52988">
        <ele>5.29</ele>
        <time>2020-07-10T13:41:39Z</time>
      </trkpt>
      <trkpt lat="47.78814" lon="-3.52987">
        <ele>5.16</ele>
        <time>2020-07-10T13:41:40Z</time>
      </trkpt>
      <trkpt lat="47.78809" lon="-3.52986">
        <ele>5.21</ele>
        <time>2020-07-10T13:41:41Z</time>
      </trkpt>
      <trkpt lat="47.78805" lon="-3.52984">
        <ele>5.04</ele>
        <time>2020-07-10T13:41:42Z</time>
      </trkpt>
      <trkpt lat="47.788" lon="-3.52981">
        <ele>4.94</ele>
        <time>2020-07-10T13:41:43Z</time>
      </trkpt>
      <trkpt lat="47.78796" lon="-3.5298">
        <ele>4.92</ele>
        <time>2020-07-10T13:41:44Z</time>
      </trkpt>
      <trkpt lat="47.78793" lon="-3.52979">
        <ele>4.93</ele>
        <time>2020-07-10T13:41:45Z</time>
      </trkpt>
      <trkpt lat="47.7879" lon="-3.52978">
        <ele>4.94</ele>
        <time>2020-07-10T13:41:46Z</time>
      </trkpt>
      <trkpt lat="47.78788" lon="-3.52975">
        <ele>4.71</ele>
        <time>2020-07-10T13:41:47Z</time>
      </trkpt>
      <trkpt lat="47.78785" lon="-3.52973">
        <ele>4.46</ele>
        <time>2020-07-10T13:41:48Z</time>
      </trkpt>
      <trkpt lat="47.78782" lon="-3.52972">
        <ele>4.47</ele>
        <time>2020-07-10T13:41:49Z</time>
      </trkpt>
      <trkpt lat="47.7878" lon="-3.52971">
        <ele>4.59</ele>
        <time>2020-07-10T13:41:50Z</time>
      </trkpt>
      <trkpt lat="47.78777" lon="-3.5297">
        <ele>4.83</ele>
        <time>2020-07-10T13:41:51Z</time>
      </trkpt>
      <trkpt lat="47.78776" lon="-3.52969">
        <ele>5.29</ele>
        <time>2020-07-10T13:41:52Z</time>
      </trkpt>
      <trkpt lat="47.78774" lon="-3.52968">
        <ele>5.63</ele>
        <time>2020-07-10T13:41:53Z</time>
      </trkpt>
      <trkpt lat="47.78773" lon="-3.52966">
        <ele>6.05</ele>
        <time>2020-07-10T13:41:54Z</time>
      </trkpt>
      <trkpt lat="47.78771" lon="-3.52964">
        <ele>6.35</ele>
        <time>2020-07-10T13:41:55Z</time>
      </trkpt>
      <trkpt lat="47.7877" lon="-3.52962">
        <ele>6.55</ele>
        <time>2020-07-10T13:41:56Z</time>
      </trkpt>
      <trkpt lat="47.78769" lon="-3.52959">
        <ele>6.72</ele>
        <time>2020-07-10T13:41:57Z</time>
      </trkpt>
      <trkpt lat="47.78767" lon="-3.52958">
        <ele>7.09</ele>
        <time>2020-07-10T13:41:58Z</time>
      </trkpt>
      <trkpt lat="47.78765" lon="-3.52956">
        <ele>7.42</ele>
        <time>2020-07-10T13:41:59Z</time>
      </trkpt>
      <trkpt lat="47.78765" lon="-3.52954">
        <ele>7.42</ele>
        <time>2020-07-10T13:42:00Z</time>
      </trkpt>
      <trkpt lat="47.78764" lon="-3.52952">
        <ele>7.53</ele>
        <time>2020-07-10T13:42:01Z</time>
      </trkpt>
      <trkpt lat="47.78763" lon="-3.52951">
        <ele>7.7</ele>
        <time>2020-07-10T13:42:02Z</time>
      </trkpt>
      <trkpt lat="47.78762" lon="-3.5295">
        <ele>7.85</ele>
        <time>2020-07-10T13:42:03Z</time>
      </trkpt>
      <trkpt lat="47.78761" lon="-3.52947">
        <ele>7.81</ele>
        <time>2020-07-10T13:42:04Z</time>
      </trkpt>
      <trkpt lat="47.78761" lon="-3.52946">
        <ele>7.78</ele>
        <time>2020-07-10T13:42:05Z</time>
      </trkpt>
      <trkpt lat="47.7876" lon="-3.52945">
        <ele>7.79</ele>
        <time>2020-07-10T13:42:06Z</time>
      </trkpt>
      <trkpt lat="47.78758" lon="-3.52942">
        <ele>7.83</ele>
        <time>2020-07-10T13:42:07Z</time>
      </trkpt>
      <trkpt lat="47.78757" lon="-3.5294">
        <ele>7.85</ele>
        <time>2020-07-10T13:42:08Z</time>
      </trkpt>
      <trkpt lat="47.78755" lon="-3.52937">
        <ele>7.76</ele>
        <time>2020-07-10T13:42:09Z</time>
      </trkpt>
      <trkpt lat="47.78753" lon="-3.52933">
        <ele>7.51</ele>
        <time>2020-07-10T13:42:10Z</time>
      </trkpt>
      <trkpt lat="47.7875" lon="-3.52929">
        <ele>7.21</ele>
        <time>2020-07-10T13:42:11Z</time>
      </trkpt>
      <trkpt lat="47.78748" lon="-3.52926">
        <ele>6.93</ele>
        <time>2020-07-10T13:42:12Z</time>
      </trkpt>
      <trkpt lat="47.78746" lon="-3.52923">
        <ele>6.77</ele>
        <time>2020-07-10T13:42:13Z</time>
      </trkpt>
      <trkpt lat="47.78744" lon="-3.5292">
        <ele>6.65</ele>
        <time>2020-07-10T13:42:14Z</time>
      </trkpt>
      <trkpt lat="47.78743" lon="-3.52917">
        <ele>6.55</ele>
        <time>2020-07-10T13:42:15Z</time>
      </trkpt>
      <trkpt lat="47.78741" lon="-3.52914">
        <ele>6.55</ele>
        <time>2020-07-10T13:42:16Z</time>
      </trkpt>
      <trkpt lat="47.78739" lon="-3.52911">
        <ele>6.58</ele>
        <time>2020-07-10T13:42:17Z</time>
      </trkpt>
      <trkpt lat="47.78738" lon="-3.52908">
        <ele>6.47</ele>
        <time>2020-07-10T13:42:18Z</time>
      </trkpt>
      <trkpt lat="47.78737" lon="-3.52904">
        <ele>6.28</ele>
        <time>2020-07-10T13:42:19Z</time>
      </trkpt>
      <trkpt lat="47.78735" lon="-3.529">
        <ele>6.18</ele>
        <time>2020-07-10T13:42:20Z</time>
      </trkpt>
      <trkpt lat="47.78734" lon="-3.52897">
        <ele>6.03</ele>
        <time>2020-07-10T13:42:21Z</time>
      </trkpt>
      <trkpt lat="47.78732" lon="-3.52893">
        <ele>5.92</ele>
        <time>2020-07-10T13:42:22Z</time>
      </trkpt>
      <trkpt lat="47.7873" lon="-3.5289">
        <ele>6.01</ele>
        <time>2020-07-10T13:42:23Z</time>
      </trkpt>
      <trkpt lat="47.78727" lon="-3.52887">
        <ele>6.2</ele>
        <time>2020-07-10T13:42:24Z</time>
      </trkpt>
      <trkpt lat="47.78725" lon="-3.52884">
        <ele>6.5</ele>
        <time>2020-07-10T13:42:25Z</time>
      </trkpt>
      <trkpt lat="47.78722" lon="-3.52881">
        <ele>6.79</ele>
        <time>2020-07-10T13:42:26Z</time>
      </trkpt>
      <trkpt lat="47.7872" lon="-3.52879">
        <ele>7.28</ele>
        <time>2020-07-10T13:42:27Z</time>
      </trkpt>
      <trkpt lat="47.78717" lon="-3.52877">
        <ele>7.81</ele>
        <time>2020-07-10T13:42:28Z</time>
      </trkpt>
      <trkpt lat="47.78714" lon="-3.52875">
        <ele>8.43</ele>
        <time>2020-07-10T13:42:29Z</time>
      </trkpt>
      <trkpt lat="47.78712" lon="-3.52874">
        <ele>8.95</ele>
        <time>2020-07-10T13:42:30Z</time>
      </trkpt>
      <trkpt lat="47.78711" lon="-3.52873">
        <ele>9.43</ele>
        <time>2020-07-10T13:42:31Z</time>
      </trkpt>
      <trkpt lat="47.78708" lon="-3.52872">
        <ele>9.94</ele>
        <time>2020-07-10T13:42:32Z</time>
      </trkpt>
      <trkpt lat="47.78706" lon="-3.5287">
        <ele>10.45</ele>
        <time>2020-07-10T13:42:33Z</time>
      </trkpt>
      <trkpt lat="47.78705" lon="-3.52868">
        <ele>10.7</ele>
        <time>2020-07-10T13:42:34Z</time>
      </trkpt>
      <trkpt lat="47.78703" lon="-3.52866">
        <ele>10.85</ele>
        <time>2020-07-10T13:42:35Z</time>
      </trkpt>
      <trkpt lat="47.78702" lon="-3.52863">
        <ele>10.9</ele>
        <time>2020-07-10T13:42:36Z</time>
      </trkpt>
      <trkpt lat="47.78701" lon="-3.52861">
        <ele>10.82</ele>
        <time>2020-07-10T13:42:37Z</time>
      </trkpt>
      <trkpt lat="47.787" lon="-3.52858">
        <ele>10.7</ele>
        <time>2020-07-10T13:42:38Z</time>
      </trkpt>
      <trkpt lat="47.78699" lon="-3.52856">
        <ele>10.61</ele>
        <time>2020-07-10T13:42:39Z</time>
      </trkpt>
      <trkpt lat="47.78698" lon="-3.52856">
        <ele>10.59</ele>
        <time>2020-07-10T13:42:40Z</time>
      </trkpt>
      <trkpt lat="47.78698" lon="-3.52855">
        <ele>10.57</ele>
        <time>2020-07-10T13:42:41Z</time>
      </trkpt>
      <trkpt lat="47.78698" lon="-3.52855">
        <ele>10.54</ele>
        <time>2020-07-10T13:42:42Z</time>
      </trkpt>
      <trkpt lat="47.78698" lon="-3.52855">
        <ele>10.53</ele>
        <time>2020-07-10T13:42:43Z</time>
      </trkpt>
      <trkpt lat="47.78698" lon="-3.52855">
        <ele>10.53</ele>
        <time>2020-07-10T13:42:44Z</time>
      </trkpt>
      <trkpt lat="47.78698" lon="-3.52855">
        <ele>10.53</ele>
        <time>2020-07-10T13:42:45Z</time>
      </trkpt>
      <trkpt lat="47.78698" lon="-3.52855">
        <ele>10.53</ele>
        <time>2020-07-10T13:42:46Z</time>
      </trkpt>
      <trkpt lat="47.78698" lon="-3.52855">
        <ele>10.53</ele>
        <time>2020-07-10T13:42:47Z</time>
      </trkpt>
      <trkpt lat="47.78698" lon="-3.52855">
        <ele>10.53</ele>
        <time>2020-07-10T13:42:48Z</time>
      </trkpt>
      <trkpt lat="47.78698" lon="-3.52855">
        <ele>10.53</ele>
        <time>2020-07-10T13:42:49Z</time>
      </trkpt>
      <trkpt lat="47.78698" lon="-3.52855">
        <ele>10.53</ele>
        <time>2020-07-10T13:42:50Z</time>
      </trkpt>
      <trkpt lat="47.78698" lon="-3.52855">
        <ele>10.53</ele>
        <time>2020-07-10T13:42:51Z</time>
      </trkpt>
      <trkpt lat="47.78698" lon="-3.52855">
        <ele>10.53</ele>
        <time>2020-07-10T13:42:52Z</time>
      </trkpt>
      <trkpt lat="47.78698" lon="-3.52855">
        <ele>10.53</ele>
        <time>2020-07-10T13:42:53Z</time>
      </trkpt>
      <trkpt lat="47.78698" lon="-3.52855">
        <ele>10.53</ele>
        <time>2020-07-10T13:42:54Z</time>
      </trkpt>
      <trkpt lat="47.78698" lon="-3.52855">
        <ele>10.53</ele>
        <time>2020-07-10T13:42:55Z</time>
      </trkpt>
      <trkpt lat="47.78698" lon="-3.52855">
        <ele>10.53</ele>
        <time>2020-07-10T13:42:56Z</time>
      </trkpt>
      <trkpt lat="47.78698" lon="-3.52855">
        <ele>10.53</ele>
        <time>2020-07-10T13:42:57Z</time>
      </trkpt>
      <trkpt lat="47.78698" lon="-3.52855">
        <ele>10.53</ele>
        <time>2020-07-10T13:42:58Z</time>
      </trkpt>
      <trkpt lat="47.78698" lon="-3.52855">
        <ele>10.53</ele>
        <time>2020-07-10T13:42:59Z</time>
      </trkpt>
      <trkpt lat="47.78698" lon="-3.52855">
        <ele>10.53</ele>
        <time>2020-07-10T13:43:00Z</time>
      </trkpt>
      <trkpt lat="47.78698" lon="-3.52855">
        <ele>10.53</ele>
        <time>2020-07-10T13:43:01Z</time>
      </trkpt>
      <trkpt lat="47.78698" lon="-3.52855">
        <ele>10.53</ele>
        <time>2020-07-10T13:43:02Z</time>
      </trkpt>
      <trkpt lat="47.78698" lon="-3.52855">
        <ele>10.53</ele>
        <time>2020-07-10T13:43:03Z</time>
      </trkpt>
      <trkpt lat="47.78698" lon="-3.52855">
        <ele>10.53</ele>
        <time>2020-07-10T13:43:04Z</time>
      </trkpt>
      <trkpt lat="47.78698" lon="-3.52855">
        <ele>10.53</ele>
        <time>2020-07-10T13:43:05Z</time>
      </trkpt>
      <trkpt lat="47.78698" lon="-3.52855">
        <ele>10.53</ele>
        <time>2020-07-10T13:43:06Z</time>
      </trkpt>
      <trkpt lat="47.78698" lon="-3.52855">
        <ele>10.53</ele>
        <time>2020-07-10T13:43:07Z</time>
      </trkpt>
      <trkpt lat="47.78698" lon="-3.52855">
        <ele>10.53</ele>
        <time>2020-07-10T13:43:08Z</time>
      </trkpt>
      <trkpt lat="47.78698" lon="-3.52855">
        <ele>10.53</ele>
        <time>2020-07-10T13:43:09Z</time>
      </trkpt>
      <trkpt lat="47.78698" lon="-3.52855">
        <ele>10.53</ele>
        <time>2020-07-10T13:43:10Z</time>
      </trkpt>
      <trkpt lat="47.78698" lon="-3.52855">
        <ele>10.53</ele>
        <time>2020-07-10T13:43:11Z</time>
      </trkpt>
      <trkpt lat="47.78698" lon="-3.52855">
        <ele>10.53</ele>
        <time>2020-07-10T13:43:12Z</time>
      </trkpt>
      <trkpt lat="47.78698" lon="-3.52855">
        <ele>10.53</ele>
        <time>2020-07-10T13:43:13Z</time>
      </trkpt>
      <trkpt lat="47.78698" lon="-3.52855">
        <ele>10.53</ele>
        <time>2020-07-10T13:43:14Z</time>
      </trkpt>
      <trkpt lat="47.78698" lon="-3.52855">
        <ele>10.53</ele>
        <time>2020-07-10T13:43:15Z</time>
      </trkpt>
      <trkpt lat="47.78698" lon="-3.52855">
        <ele>10.53</ele>
        <time>2020-07-10T13:43:16Z</time>
      </trkpt>
      <trkpt lat="47.78698" lon="-3.52855">
        <ele>10.53</ele>
        <time>2020-07-10T13:43:17Z</time>
      </trkpt>
      <trkpt lat="47.78697" lon="-3.52863">
        <ele>11.86</ele>
        <time>2020-07-10T13:43:18Z</time>
      </trkpt>
      <trkpt lat="47.78698" lon="-3.52865">
        <ele>12.3</ele>
        <time>2020-07-10T13:43:19Z</time>
      </trkpt>
      <trkpt lat="47.78698" lon="-3.52867">
        <ele>12.79</ele>
        <time>2020-07-10T13:43:20Z</time>
      </trkpt>
      <trkpt lat="47.78698" lon="-3.52869">
        <ele>12.96</ele>
        <time>2020-07-10T13:43:21Z</time>
      </trkpt>
      <trkpt lat="47.78699" lon="-3.5287">
        <ele>13.1</ele>
        <time>2020-07-10T13:43:22Z</time>
      </trkpt>
      <trkpt lat="47.78699" lon="-3.52871">
        <ele>13.06</ele>
        <time>2020-07-10T13:43:23Z</time>
      </trkpt>
      <trkpt lat="47.787" lon="-3.52872">
        <ele>13.18</ele>
        <time>2020-07-10T13:43:24Z</time>
      </trkpt>
      <trkpt lat="47.787" lon="-3.52875">
        <ele>13.43</ele>
        <time>2020-07-10T13:43:25Z</time>
      </trkpt>
      <trkpt lat="47.787" lon="-3.52876">
        <ele>13.63</ele>
        <time>2020-07-10T13:43:26Z</time>
      </trkpt>
      <trkpt lat="47.787" lon="-3.52878">
        <ele>13.95</ele>
        <time>2020-07-10T13:43:27Z</time>
      </trkpt>
      <trkpt lat="47.787" lon="-3.52879">
        <ele>14.33</ele>
        <time>2020-07-10T13:43:28Z</time>
      </trkpt>
      <trkpt lat="47.78699" lon="-3.52881">
        <ele>14.83</ele>
        <time>2020-07-10T13:43:29Z</time>
      </trkpt>
      <trkpt lat="47.78699" lon="-3.52883">
        <ele>15.29</ele>
        <time>2020-07-10T13:43:30Z</time>
      </trkpt>
      <trkpt lat="47.78698" lon="-3.52885">
        <ele>15.65</ele>
        <time>2020-07-10T13:43:31Z</time>
      </trkpt>
      <trkpt lat="47.78699" lon="-3.52886">
        <ele>15.82</ele>
        <time>2020-07-10T13:43:32Z</time>
      </trkpt>
      <trkpt lat="47.78699" lon="-3.52886">
        <ele>15.91</ele>
        <time>2020-07-10T13:43:33Z</time>
      </trkpt>
      <trkpt lat="47.78699" lon="-3.52887">
        <ele>15.95</ele>
        <time>2020-07-10T13:43:34Z</time>
      </trkpt>
      <trkpt lat="47.78699" lon="-3.52887">
        <ele>15.97</ele>
        <time>2020-07-10T13:43:35Z</time>
      </trkpt>
      <trkpt lat="47.78699" lon="-3.52887">
        <ele>15.97</ele>
        <time>2020-07-10T13:43:36Z</time>
      </trkpt>
      <trkpt lat="47.78699" lon="-3.52887">
        <ele>15.97</ele>
        <time>2020-07-10T13:43:37Z</time>
      </trkpt>
      <trkpt lat="47.78699" lon="-3.52887">
        <ele>15.97</ele>
        <time>2020-07-10T13:43:38Z</time>
      </trkpt>
      <trkpt lat="47.78699" lon="-3.52887">
        <ele>15.97</ele>
        <time>2020-07-10T13:43:39Z</time>
      </trkpt>
      <trkpt lat="47.78699" lon="-3.52887">
        <ele>15.97</ele>
        <time>2020-07-10T13:43:40Z</time>
      </trkpt>
      <trkpt lat="47.78699" lon="-3.52887">
        <ele>15.97</ele>
        <time>2020-07-10T13:43:41Z</time>
      </trkpt>
      <trkpt lat="47.78699" lon="-3.52887">
        <ele>15.97</ele>
        <time>2020-07-10T13:43:42Z</time>
      </trkpt>
      <trkpt lat="47.78699" lon="-3.52887">
        <ele>15.97</ele>
        <time>2020-07-10T13:43:43Z</time>
      </trkpt>
      <trkpt lat="47.78699" lon="-3.52887">
        <ele>15.97</ele>
        <time>2020-07-10T13:43:44Z</time>
      </trkpt>
      <trkpt lat="47.78701" lon="-3.52886">
        <ele>15.35</ele>
        <time>2020-07-10T13:43:45Z</time>
      </trkpt>
      <trkpt lat="47.78701" lon="-3.52883">
        <ele>14.95</ele>
        <time>2020-07-10T13:43:46Z</time>
      </trkpt>
      <trkpt lat="47.78701" lon="-3.52878">
        <ele>14.19</ele>
        <time>2020-07-10T13:43:47Z</time>
      </trkpt>
      <trkpt lat="47.78701" lon="-3.52873">
        <ele>13.34</ele>
        <time>2020-07-10T13:43:48Z</time>
      </trkpt>
      <trkpt lat="47.78701" lon="-3.52869">
        <ele>12.56</ele>
        <time>2020-07-10T13:43:49Z</time>
      </trkpt>
      <trkpt lat="47.78701" lon="-3.52865">
        <ele>11.91</ele>
        <time>2020-07-10T13:43:50Z</time>
      </trkpt>
      <trkpt lat="47.787" lon="-3.52861">
        <ele>11.32</ele>
        <time>2020-07-10T13:43:51Z</time>
      </trkpt>
      <trkpt lat="47.78699" lon="-3.52857">
        <ele>10.84</ele>
        <time>2020-07-10T13:43:52Z</time>
      </trkpt>
      <trkpt lat="47.78697" lon="-3.52852">
        <ele>10.34</ele>
        <time>2020-07-10T13:43:53Z</time>
      </trkpt>
      <trkpt lat="47.78695" lon="-3.52848">
        <ele>9.85</ele>
        <time>2020-07-10T13:43:54Z</time>
      </trkpt>
      <trkpt lat="47.78692" lon="-3.52844">
        <ele>9.11</ele>
        <time>2020-07-10T13:43:55Z</time>
      </trkpt>
      <trkpt lat="47.7869" lon="-3.52841">
        <ele>8.48</ele>
        <time>2020-07-10T13:43:56Z</time>
      </trkpt>
      <trkpt lat="47.78689" lon="-3.52841">
        <ele>8.25</ele>
        <time>2020-07-10T13:43:57Z</time>
      </trkpt>
      <trkpt lat="47.78689" lon="-3.52841">
        <ele>8.18</ele>
        <time>2020-07-10T13:43:58Z</time>
      </trkpt>
      <trkpt lat="47.78688" lon="-3.52841">
        <ele>8.26</ele>
        <time>2020-07-10T13:43:59Z</time>
      </trkpt>
      <trkpt lat="47.78688" lon="-3.52841">
        <ele>8.28</ele>
        <time>2020-07-10T13:44:00Z</time>
      </trkpt>
      <trkpt lat="47.78688" lon="-3.52841">
        <ele>8.29</ele>
        <time>2020-07-10T13:44:01Z</time>
      </trkpt>
      <trkpt lat="47.78688" lon="-3.52841">
        <ele>8.29</ele>
        <time>2020-07-10T13:44:02Z</time>
      </trkpt>
      <trkpt lat="47.78688" lon="-3.52841">
        <ele>8.29</ele>
        <time>2020-07-10T13:44:03Z</time>
      </trkpt>
      <trkpt lat="47.78688" lon="-3.52841">
        <ele>8.29</ele>
        <time>2020-07-10T13:44:04Z</time>
      </trkpt>
      <trkpt lat="47.78688" lon="-3.52841">
        <ele>8.29</ele>
        <time>2020-07-10T13:44:05Z</time>
      </trkpt>
      <trkpt lat="47.78688" lon="-3.52841">
        <ele>8.29</ele>
        <time>2020-07-10T13:44:06Z</time>
      </trkpt>
      <trkpt lat="47.78688" lon="-3.52841">
        <ele>8.29</ele>
        <time>2020-07-10T13:44:07Z</time>
      </trkpt>
      <trkpt lat="47.78688" lon="-3.52841">
        <ele>8.29</ele>
        <time>2020-07-10T13:44:08Z</time>
      </trkpt>
      <trkpt lat="47.78688" lon="-3.52841">
        <ele>8.29</ele>
        <time>2020-07-10T13:44:09Z</time>
      </trkpt>
      <trkpt lat="47.78688" lon="-3.52841">
        <ele>8.29</ele>
        <time>2020-07-10T13:44:10Z</time>
      </trkpt>
      <trkpt lat="47.78688" lon="-3.52841">
        <ele>8.29</ele>
        <time>2020-07-10T13:44:11Z</time>
      </trkpt>
      <trkpt lat="47.78688" lon="-3.52841">
        <ele>8.29</ele>
        <time>2020-07-10T13:44:12Z</time>
      </trkpt>
      <trkpt lat="47.78688" lon="-3.52841">
        <ele>8.29</ele>
        <time>2020-07-10T13:44:13Z</time>
      </trkpt>
      <trkpt lat="47.78688" lon="-3.52841">
        <ele>8.29</ele>
        <time>2020-07-10T13:44:14Z</time>
      </trkpt>
      <trkpt lat="47.78688" lon="-3.52841">
        <ele>8.29</ele>
        <time>2020-07-10T13:44:15Z</time>
      </trkpt>
      <trkpt lat="47.78688" lon="-3.52841">
        <ele>8.29</ele>
        <time>2020-07-10T13:44:16Z</time>
      </trkpt>
      <trkpt lat="47.78688" lon="-3.52841">
        <ele>8.29</ele>
        <time>2020-07-10T13:44:17Z</time>
      </trkpt>
      <trkpt lat="47.78688" lon="-3.52841">
        <ele>8.29</ele>
        <time>2020-07-10T13:44:18Z</time>
      </trkpt>
      <trkpt lat="47.78688" lon="-3.52841">
        <ele>8.29</ele>
        <time>2020-07-10T13:44:19Z</time>
      </trkpt>
      <trkpt lat="47.78688" lon="-3.52841">
        <ele>8.29</ele>
        <time>2020-07-10T13:44:20Z</time>
      </trkpt>
      <trkpt lat="47.78688" lon="-3.52841">
        <ele>8.29</ele>
        <time>2020-07-10T13:44:21Z</time>
      </trkpt>
      <trkpt lat="47.78688" lon="-3.52841">
        <ele>8.29</ele>
        <time>2020-07-10T13:44:22Z</time>
      </trkpt>
      <trkpt lat="47.78688" lon="-3.52841">
        <ele>8.29</ele>
        <time>2020-07-10T13:44:23Z</time>
      </trkpt>
      <trkpt lat="47.78688" lon="-3.52841">
        <ele>8.29</ele>
        <time>2020-07-10T13:44:24Z</time>
      </trkpt>
      <trkpt lat="47.78688" lon="-3.52841">
        <ele>8.29</ele>
        <time>2020-07-10T13:44:25Z</time>
      </trkpt>
      <trkpt lat="47.78688" lon="-3.52841">
        <ele>8.29</ele>
        <time>2020-07-10T13:44:26Z</time>
      </trkpt>
      <trkpt lat="47.78681" lon="-3.52841">
        <ele>8.46</ele>
        <time>2020-07-10T13:44:27Z</time>
      </trkpt>
      <trkpt lat="47.78678" lon="-3.5284">
        <ele>8.51</ele>
        <time>2020-07-10T13:44:28Z</time>
      </trkpt>
      <trkpt lat="47.78675" lon="-3.5284">
        <ele>8.55</ele>
        <time>2020-07-10T13:44:29Z</time>
      </trkpt>
      <trkpt lat="47.7867" lon="-3.5284">
        <ele>8.73</ele>
        <time>2020-07-10T13:44:30Z</time>
      </trkpt>
      <trkpt lat="47.78665" lon="-3.52841">
        <ele>8.94</ele>
        <time>2020-07-10T13:44:31Z</time>
      </trkpt>
      <trkpt lat="47.78661" lon="-3.52841">
        <ele>8.7</ele>
        <time>2020-07-10T13:44:32Z</time>
      </trkpt>
      <trkpt lat="47.78655" lon="-3.52841">
        <ele>8.2</ele>
        <time>2020-07-10T13:44:33Z</time>
      </trkpt>
      <trkpt lat="47.78649" lon="-3.52841">
        <ele>7.66</ele>
        <time>2020-07-10T13:44:34Z</time>
      </trkpt>
      <trkpt lat="47.78643" lon="-3.52842">
        <ele>7.12</ele>
        <time>2020-07-10T13:44:35Z</time>
      </trkpt>
      <trkpt lat="47.78637" lon="-3.52843">
        <ele>6.63</ele>
        <time>2020-07-10T13:44:36Z</time>
      </trkpt>
      <trkpt lat="47.7863" lon="-3.52844">
        <ele>6.06</ele>
        <time>2020-07-10T13:44:37Z</time>
      </trkpt>
      <trkpt lat="47.78624" lon="-3.52846">
        <ele>5.47</ele>
        <time>2020-07-10T13:44:38Z</time>
      </trkpt>
      <trkpt lat="47.78618" lon="-3.52847">
        <ele>4.87</ele>
        <time>2020-07-10T13:44:39Z</time>
      </trkpt>
      <trkpt lat="47.78613" lon="-3.52849">
        <ele>4.34</ele>
        <time>2020-07-10T13:44:40Z</time>
      </trkpt>
      <trkpt lat="47.78609" lon="-3.52851">
        <ele>4.08</ele>
        <time>2020-07-10T13:44:41Z</time>
      </trkpt>
      <trkpt lat="47.78606" lon="-3.52852">
        <ele>3.98</ele>
        <time>2020-07-10T13:44:42Z</time>
      </trkpt>
      <trkpt lat="47.78603" lon="-3.52853">
        <ele>3.85</ele>
        <time>2020-07-10T13:44:43Z</time>
      </trkpt>
      <trkpt lat="47.786" lon="-3.52853">
        <ele>3.69</ele>
        <time>2020-07-10T13:44:44Z</time>
      </trkpt>
      <trkpt lat="47.78598" lon="-3.52854">
        <ele>3.54</ele>
        <time>2020-07-10T13:44:45Z</time>
      </trkpt>
      <trkpt lat="47.78596" lon="-3.52856">
        <ele>3.57</ele>
        <time>2020-07-10T13:44:46Z</time>
      </trkpt>
      <trkpt lat="47.78593" lon="-3.52857">
        <ele>3.58</ele>
        <time>2020-07-10T13:44:47Z</time>
      </trkpt>
      <trkpt lat="47.78592" lon="-3.52859">
        <ele>3.67</ele>
        <time>2020-07-10T13:44:48Z</time>
      </trkpt>
      <trkpt lat="47.7859" lon="-3.52863">
        <ele>3.92</ele>
        <time>2020-07-10T13:44:49Z</time>
      </trkpt>
      <trkpt lat="47.78588" lon="-3.52865">
        <ele>4.02</ele>
        <time>2020-07-10T13:44:50Z</time>
      </trkpt>
      <trkpt lat="47.78585" lon="-3.52868">
        <ele>4.09</ele>
        <time>2020-07-10T13:44:51Z</time>
      </trkpt>
      <trkpt lat="47.78582" lon="-3.52869">
        <ele>4.04</ele>
        <time>2020-07-10T13:44:52Z</time>
      </trkpt>
      <trkpt lat="47.78579" lon="-3.52871">
        <ele>3.92</ele>
        <time>2020-07-10T13:44:53Z</time>
      </trkpt>
      <trkpt lat="47.78576" lon="-3.52873">
        <ele>3.71</ele>
        <time>2020-07-10T13:44:54Z</time>
      </trkpt>
      <trkpt lat="47.78572" lon="-3.52876">
        <ele>3.5</ele>
        <time>2020-07-10T13:44:55Z</time>
      </trkpt>
      <trkpt lat="47.78569" lon="-3.52879">
        <ele>3.36</ele>
        <time>2020-07-10T13:44:56Z</time>
      </trkpt>
      <trkpt lat="47.78566" lon="-3.52882">
        <ele>3.31</ele>
        <time>2020-07-10T13:44:57Z</time>
      </trkpt>
      <trkpt lat="47.78564" lon="-3.52885">
        <ele>3.29</ele>
        <time>2020-07-10T13:44:58Z</time>
      </trkpt>
      <trkpt lat="47.78563" lon="-3.52889">
        <ele>3.28</ele>
        <time>2020-07-10T13:44:59Z</time>
      </trkpt>
      <trkpt lat="47.7856" lon="-3.52892">
        <ele>3.25</ele>
        <time>2020-07-10T13:45:00Z</time>
      </trkpt>
      <trkpt lat="47.78557" lon="-3.52896">
        <ele>3.38</ele>
        <time>2020-07-10T13:45:01Z</time>
      </trkpt>
      <trkpt lat="47.78554" lon="-3.52901">
        <ele>3.48</ele>
        <time>2020-07-10T13:45:02Z</time>
      </trkpt>
      <trkpt lat="47.78552" lon="-3.52904">
        <ele>3.49</ele>
        <time>2020-07-10T13:45:03Z</time>
      </trkpt>
      <trkpt lat="47.78551" lon="-3.52908">
        <ele>3.65</ele>
        <time>2020-07-10T13:45:04Z</time>
      </trkpt>
      <trkpt lat="47.7855" lon="-3.52911">
        <ele>3.9</ele>
        <time>2020-07-10T13:45:05Z</time>
      </trkpt>
      <trkpt lat="47.7855" lon="-3.52915">
        <ele>4.23</ele>
        <time>2020-07-10T13:45:06Z</time>
      </trkpt>
      <trkpt lat="47.7855" lon="-3.52918">
        <ele>4.5</ele>
        <time>2020-07-10T13:45:07Z</time>
      </trkpt>
      <trkpt lat="47.78549" lon="-3.52921">
        <ele>4.7</ele>
        <time>2020-07-10T13:45:08Z</time>
      </trkpt>
      <trkpt lat="47.78548" lon="-3.52925">
        <ele>4.77</ele>
        <time>2020-07-10T13:45:09Z</time>
      </trkpt>
      <trkpt lat="47.78547" lon="-3.52928">
        <ele>4.72</ele>
        <time>2020-07-10T13:45:10Z</time>
      </trkpt>
      <trkpt lat="47.78546" lon="-3.52931">
        <ele>4.7</ele>
        <time>2020-07-10T13:45:11Z</time>
      </trkpt>
      <trkpt lat="47.78544" lon="-3.52934">
        <ele>4.53</ele>
        <time>2020-07-10T13:45:12Z</time>
      </trkpt>
      <trkpt lat="47.78543" lon="-3.52937">
        <ele>4.35</ele>
        <time>2020-07-10T13:45:13Z</time>
      </trkpt>
      <trkpt lat="47.78541" lon="-3.5294">
        <ele>4.08</ele>
        <time>2020-07-10T13:45:14Z</time>
      </trkpt>
      <trkpt lat="47.78539" lon="-3.52943">
        <ele>3.7</ele>
        <time>2020-07-10T13:45:15Z</time>
      </trkpt>
      <trkpt lat="47.78536" lon="-3.52947">
        <ele>3.16</ele>
        <time>2020-07-10T13:45:16Z</time>
      </trkpt>
      <trkpt lat="47.78533" lon="-3.52951">
        <ele>2.72</ele>
        <time>2020-07-10T13:45:17Z</time>
      </trkpt>
      <trkpt lat="47.78529" lon="-3.52954">
        <ele>2.13</ele>
        <time>2020-07-10T13:45:18Z</time>
      </trkpt>
      <trkpt lat="47.78525" lon="-3.52958">
        <ele>1.88</ele>
        <time>2020-07-10T13:45:19Z</time>
      </trkpt>
      <trkpt lat="47.78521" lon="-3.52962">
        <ele>1.84</ele>
        <time>2020-07-10T13:45:20Z</time>
      </trkpt>
      <trkpt lat="47.78517" lon="-3.52966">
        <ele>1.85</ele>
        <time>2020-07-10T13:45:21Z</time>
      </trkpt>
      <trkpt lat="47.78514" lon="-3.5297">
        <ele>1.81</ele>
        <time>2020-07-10T13:45:22Z</time>
      </trkpt>
      <trkpt lat="47.78511" lon="-3.52974">
        <ele>1.84</ele>
        <time>2020-07-10T13:45:23Z</time>
      </trkpt>
      <trkpt lat="47.78508" lon="-3.52977">
        <ele>1.84</ele>
        <time>2020-07-10T13:45:24Z</time>
      </trkpt>
      <trkpt lat="47.78505" lon="-3.5298">
        <ele>1.71</ele>
        <time>2020-07-10T13:45:25Z</time>
      </trkpt>
      <trkpt lat="47.78502" lon="-3.52982">
        <ele>1.49</ele>
        <time>2020-07-10T13:45:26Z</time>
      </trkpt>
      <trkpt lat="47.78499" lon="-3.52987">
        <ele>1.48</ele>
        <time>2020-07-10T13:45:27Z</time>
      </trkpt>
      <trkpt lat="47.78496" lon="-3.52992">
        <ele>1.66</ele>
        <time>2020-07-10T13:45:28Z</time>
      </trkpt>
      <trkpt lat="47.78494" lon="-3.52997">
        <ele>1.84</ele>
        <time>2020-07-10T13:45:29Z</time>
      </trkpt>
      <trkpt lat="47.78492" lon="-3.53002">
        <ele>2.12</ele>
        <time>2020-07-10T13:45:30Z</time>
      </trkpt>
      <trkpt lat="47.7849" lon="-3.53007">
        <ele>2.39</ele>
        <time>2020-07-10T13:45:31Z</time>
      </trkpt>
      <trkpt lat="47.78486" lon="-3.53011">
        <ele>2.38</ele>
        <time>2020-07-10T13:45:32Z</time>
      </trkpt>
      <trkpt lat="47.78483" lon="-3.53016">
        <ele>2.38</ele>
        <time>2020-07-10T13:45:33Z</time>
      </trkpt>
      <trkpt lat="47.7848" lon="-3.5302">
        <ele>2.18</ele>
        <time>2020-07-10T13:45:34Z</time>
      </trkpt>
      <trkpt lat="47.78477" lon="-3.53025">
        <ele>2</ele>
        <time>2020-07-10T13:45:35Z</time>
      </trkpt>
      <trkpt lat="47.78474" lon="-3.53031">
        <ele>1.99</ele>
        <time>2020-07-10T13:45:36Z</time>
      </trkpt>
      <trkpt lat="47.78471" lon="-3.53037">
        <ele>2.11</ele>
        <time>2020-07-10T13:45:37Z</time>
      </trkpt>
      <trkpt lat="47.78469" lon="-3.53042">
        <ele>2.47</ele>
        <time>2020-07-10T13:45:38Z</time>
      </trkpt>
      <trkpt lat="47.78468" lon="-3.53046">
        <ele>2.79</ele>
        <time>2020-07-10T13:45:39Z</time>
      </trkpt>
      <trkpt lat="47.78466" lon="-3.5305">
        <ele>2.97</ele>
        <time>2020-07-10T13:45:40Z</time>
      </trkpt>
      <trkpt lat="47.78465" lon="-3.53053">
        <ele>3.12</ele>
        <time>2020-07-10T13:45:41Z</time>
      </trkpt>
      <trkpt lat="47.78464" lon="-3.53056">
        <ele>3.19</ele>
        <time>2020-07-10T13:45:42Z</time>
      </trkpt>
      <trkpt lat="47.78462" lon="-3.53058">
        <ele>3.21</ele>
        <time>2020-07-10T13:45:43Z</time>
      </trkpt>
      <trkpt lat="47.78462" lon="-3.5306">
        <ele>3.28</ele>
        <time>2020-07-10T13:45:44Z</time>
      </trkpt>
      <trkpt lat="47.7846" lon="-3.53062">
        <ele>3.12</ele>
        <time>2020-07-10T13:45:45Z</time>
      </trkpt>
      <trkpt lat="47.78458" lon="-3.53063">
        <ele>2.9</ele>
        <time>2020-07-10T13:45:46Z</time>
      </trkpt>
      <trkpt lat="47.78456" lon="-3.53066">
        <ele>2.84</ele>
        <time>2020-07-10T13:45:47Z</time>
      </trkpt>
      <trkpt lat="47.78455" lon="-3.53069">
        <ele>2.83</ele>
        <time>2020-07-10T13:45:48Z</time>
      </trkpt>
      <trkpt lat="47.78453" lon="-3.53072">
        <ele>2.78</ele>
        <time>2020-07-10T13:45:49Z</time>
      </trkpt>
      <trkpt lat="47.78452" lon="-3.53076">
        <ele>2.84</ele>
        <time>2020-07-10T13:45:50Z</time>
      </trkpt>
      <trkpt lat="47.7845" lon="-3.53079">
        <ele>2.84</ele>
        <time>2020-07-10T13:45:51Z</time>
      </trkpt>
      <trkpt lat="47.78448" lon="-3.53082">
        <ele>2.86</ele>
        <time>2020-07-10T13:45:52Z</time>
      </trkpt>
      <trkpt lat="47.78447" lon="-3.53085">
        <ele>2.8</ele>
        <time>2020-07-10T13:45:53Z</time>
      </trkpt>
      <trkpt lat="47.78445" lon="-3.53089">
        <ele>2.79</ele>
        <time>2020-07-10T13:45:54Z</time>
      </trkpt>
      <trkpt lat="47.78444" lon="-3.53092">
        <ele>2.84</ele>
        <time>2020-07-10T13:45:55Z</time>
      </trkpt>
      <trkpt lat="47.78442" lon="-3.53096">
        <ele>3.01</ele>
        <time>2020-07-10T13:45:56Z</time>
      </trkpt>
      <trkpt lat="47.78441" lon="-3.531">
        <ele>3.16</ele>
        <time>2020-07-10T13:45:57Z</time>
      </trkpt>
      <trkpt lat="47.78439" lon="-3.53103">
        <ele>3.31</ele>
        <time>2020-07-10T13:45:58Z</time>
      </trkpt>
      <trkpt lat="47.78438" lon="-3.53105">
        <ele>3.37</ele>
        <time>2020-07-10T13:45:59Z</time>
      </trkpt>
      <trkpt lat="47.78436" lon="-3.53109">
        <ele>3.36</ele>
        <time>2020-07-10T13:46:00Z</time>
      </trkpt>
      <trkpt lat="47.78434" lon="-3.53112">
        <ele>3.31</ele>
        <time>2020-07-10T13:46:01Z</time>
      </trkpt>
      <trkpt lat="47.78432" lon="-3.53114">
        <ele>3.35</ele>
        <time>2020-07-10T13:46:02Z</time>
      </trkpt>
      <trkpt lat="47.78429" lon="-3.53117">
        <ele>3.35</ele>
        <time>2020-07-10T13:46:03Z</time>
      </trkpt>
      <trkpt lat="47.78425" lon="-3.53121">
        <ele>3.24</ele>
        <time>2020-07-10T13:46:04Z</time>
      </trkpt>
      <trkpt lat="47.78422" lon="-3.53125">
        <ele>2.9</ele>
        <time>2020-07-10T13:46:05Z</time>
      </trkpt>
      <trkpt lat="47.78417" lon="-3.53129">
        <ele>2.33</ele>
        <time>2020-07-10T13:46:06Z</time>
      </trkpt>
      <trkpt lat="47.78412" lon="-3.53133">
        <ele>2.07</ele>
        <time>2020-07-10T13:46:07Z</time>
      </trkpt>
      <trkpt lat="47.78407" lon="-3.53138">
        <ele>1.92</ele>
        <time>2020-07-10T13:46:08Z</time>
      </trkpt>
      <trkpt lat="47.78402" lon="-3.53142">
        <ele>2.19</ele>
        <time>2020-07-10T13:46:09Z</time>
      </trkpt>
      <trkpt lat="47.78397" lon="-3.53147">
        <ele>2.48</ele>
        <time>2020-07-10T13:46:10Z</time>
      </trkpt>
      <trkpt lat="47.78393" lon="-3.53151">
        <ele>2.59</ele>
        <time>2020-07-10T13:46:11Z</time>
      </trkpt>
      <trkpt lat="47.78387" lon="-3.53154">
        <ele>2.59</ele>
        <time>2020-07-10T13:46:12Z</time>
      </trkpt>
      <trkpt lat="47.78383" lon="-3.53156">
        <ele>2.48</ele>
        <time>2020-07-10T13:46:13Z</time>
      </trkpt>
      <trkpt lat="47.78378" lon="-3.53159">
        <ele>2.4</ele>
        <time>2020-07-10T13:46:14Z</time>
      </trkpt>
      <trkpt lat="47.78374" lon="-3.53161">
        <ele>2.26</ele>
        <time>2020-07-10T13:46:15Z</time>
      </trkpt>
      <trkpt lat="47.7837" lon="-3.53165">
        <ele>2.17</ele>
        <time>2020-07-10T13:46:16Z</time>
      </trkpt>
      <trkpt lat="47.78367" lon="-3.5317">
        <ele>2.3</ele>
        <time>2020-07-10T13:46:17Z</time>
      </trkpt>
      <trkpt lat="47.78364" lon="-3.53175">
        <ele>2.45</ele>
        <time>2020-07-10T13:46:18Z</time>
      </trkpt>
      <trkpt lat="47.78363" lon="-3.53179">
        <ele>2.61</ele>
        <time>2020-07-10T13:46:19Z</time>
      </trkpt>
      <trkpt lat="47.7836" lon="-3.53183">
        <ele>2.68</ele>
        <time>2020-07-10T13:46:20Z</time>
      </trkpt>
      <trkpt lat="47.78359" lon="-3.53188">
        <ele>2.9</ele>
        <time>2020-07-10T13:46:21Z</time>
      </trkpt>
      <trkpt lat="47.78357" lon="-3.53193">
        <ele>3.16</ele>
        <time>2020-07-10T13:46:22Z</time>
      </trkpt>
      <trkpt lat="47.78356" lon="-3.53197">
        <ele>3.44</ele>
        <time>2020-07-10T13:46:23Z</time>
      </trkpt>
      <trkpt lat="47.78356" lon="-3.53202">
        <ele>3.77</ele>
        <time>2020-07-10T13:46:24Z</time>
      </trkpt>
      <trkpt lat="47.78356" lon="-3.53206">
        <ele>4.1</ele>
        <time>2020-07-10T13:46:25Z</time>
      </trkpt>
      <trkpt lat="47.78355" lon="-3.53209">
        <ele>4.36</ele>
        <time>2020-07-10T13:46:26Z</time>
      </trkpt>
      <trkpt lat="47.78355" lon="-3.53212">
        <ele>4.58</ele>
        <time>2020-07-10T13:46:27Z</time>
      </trkpt>
      <trkpt lat="47.78355" lon="-3.53214">
        <ele>4.82</ele>
        <time>2020-07-10T13:46:28Z</time>
      </trkpt>
      <trkpt lat="47.78355" lon="-3.53218">
        <ele>5.14</ele>
        <time>2020-07-10T13:46:29Z</time>
      </trkpt>
      <trkpt lat="47.78355" lon="-3.53221">
        <ele>5.42</ele>
        <time>2020-07-10T13:46:30Z</time>
      </trkpt>
      <trkpt lat="47.78355" lon="-3.53226">
        <ele>5.86</ele>
        <time>2020-07-10T13:46:31Z</time>
      </trkpt>
      <trkpt lat="47.78356" lon="-3.5323">
        <ele>6.29</ele>
        <time>2020-07-10T13:46:32Z</time>
      </trkpt>
      <trkpt lat="47.78355" lon="-3.53231">
        <ele>6.45</ele>
        <time>2020-07-10T13:46:33Z</time>
      </trkpt>
      <trkpt lat="47.78354" lon="-3.53233">
        <ele>6.46</ele>
        <time>2020-07-10T13:46:34Z</time>
      </trkpt>
      <trkpt lat="47.78353" lon="-3.53234">
        <ele>6.38</ele>
        <time>2020-07-10T13:46:35Z</time>
      </trkpt>
      <trkpt lat="47.78351" lon="-3.53234">
        <ele>6.24</ele>
        <time>2020-07-10T13:46:36Z</time>
      </trkpt>
      <trkpt lat="47.78351" lon="-3.53234">
        <ele>6.19</ele>
        <time>2020-07-10T13:46:37Z</time>
      </trkpt>
      <trkpt lat="47.78351" lon="-3.53234">
        <ele>6.17</ele>
        <time>2020-07-10T13:46:38Z</time>
      </trkpt>
      <trkpt lat="47.78351" lon="-3.53234">
        <ele>6.17</ele>
        <time>2020-07-10T13:46:39Z</time>
      </trkpt>
      <trkpt lat="47.78351" lon="-3.53234">
        <ele>6.17</ele>
        <time>2020-07-10T13:46:40Z</time>
      </trkpt>
      <trkpt lat="47.78351" lon="-3.53234">
        <ele>6.17</ele>
        <time>2020-07-10T13:46:41Z</time>
      </trkpt>
      <trkpt lat="47.78351" lon="-3.53234">
        <ele>6.17</ele>
        <time>2020-07-10T13:46:42Z</time>
      </trkpt>
      <trkpt lat="47.78351" lon="-3.53234">
        <ele>6.17</ele>
        <time>2020-07-10T13:46:43Z</time>
      </trkpt>
      <trkpt lat="47.78351" lon="-3.53234">
        <ele>6.17</ele>
        <time>2020-07-10T13:46:44Z</time>
      </trkpt>
      <trkpt lat="47.78351" lon="-3.53234">
        <ele>6.17</ele>
        <time>2020-07-10T13:46:45Z</time>
      </trkpt>
      <trkpt lat="47.78351" lon="-3.53234">
        <ele>6.17</ele>
        <time>2020-07-10T13:46:46Z</time>
      </trkpt>
      <trkpt lat="47.78351" lon="-3.53234">
        <ele>6.17</ele>
        <time>2020-07-10T13:46:47Z</time>
      </trkpt>
      <trkpt lat="47.78351" lon="-3.53234">
        <ele>6.17</ele>
        <time>2020-07-10T13:46:48Z</time>
      </trkpt>
      <trkpt lat="47.78351" lon="-3.53234">
        <ele>6.17</ele>
        <time>2020-07-10T13:46:49Z</time>
      </trkpt>
      <trkpt lat="47.78351" lon="-3.53234">
        <ele>6.17</ele>
        <time>2020-07-10T13:46:50Z</time>
      </trkpt>
      <trkpt lat="47.78351" lon="-3.53234">
        <ele>6.17</ele>
        <time>2020-07-10T13:46:51Z</time>
      </trkpt>
      <trkpt lat="47.78351" lon="-3.53234">
        <ele>6.17</ele>
        <time>2020-07-10T13:46:52Z</time>
      </trkpt>
      <trkpt lat="47.78351" lon="-3.53234">
        <ele>6.17</ele>
        <time>2020-07-10T13:46:53Z</time>
      </trkpt>
      <trkpt lat="47.78351" lon="-3.53234">
        <ele>6.17</ele>
        <time>2020-07-10T13:46:54Z</time>
      </trkpt>
      <trkpt lat="47.78351" lon="-3.53234">
        <ele>6.17</ele>
        <time>2020-07-10T13:46:55Z</time>
      </trkpt>
      <trkpt lat="47.78351" lon="-3.53234">
        <ele>6.17</ele>
        <time>2020-07-10T13:46:56Z</time>
      </trkpt>
      <trkpt lat="47.78351" lon="-3.53234">
        <ele>6.17</ele>
        <time>2020-07-10T13:46:57Z</time>
      </trkpt>
      <trkpt lat="47.78351" lon="-3.53234">
        <ele>6.17</ele>
        <time>2020-07-10T13:46:58Z</time>
      </trkpt>
      <trkpt lat="47.78351" lon="-3.53234">
        <ele>6.17</ele>
        <time>2020-07-10T13:46:59Z</time>
      </trkpt>
      <trkpt lat="47.78351" lon="-3.53234">
        <ele>6.17</ele>
        <time>2020-07-10T13:47:00Z</time>
      </trkpt>
      <trkpt lat="47.78351" lon="-3.53234">
        <ele>6.17</ele>
        <time>2020-07-10T13:47:01Z</time>
      </trkpt>
      <trkpt lat="47.78351" lon="-3.53234">
        <ele>6.17</ele>
        <time>2020-07-10T13:47:02Z</time>
      </trkpt>
      <trkpt lat="47.78351" lon="-3.53234">
        <ele>6.17</ele>
        <time>2020-07-10T13:47:03Z</time>
      </trkpt>
      <trkpt lat="47.78351" lon="-3.53234">
        <ele>6.17</ele>
        <time>2020-07-10T13:47:04Z</time>
      </trkpt>
      <trkpt lat="47.78351" lon="-3.53234">
        <ele>6.17</ele>
        <time>2020-07-10T13:47:05Z</time>
      </trkpt>
      <trkpt lat="47.78351" lon="-3.53234">
        <ele>6.17</ele>
        <time>2020-07-10T13:47:06Z</time>
      </trkpt>
      <trkpt lat="47.78351" lon="-3.53234">
        <ele>6.17</ele>
        <time>2020-07-10T13:47:07Z</time>
      </trkpt>
      <trkpt lat="47.78351" lon="-3.53234">
        <ele>6.17</ele>
        <time>2020-07-10T13:47:08Z</time>
      </trkpt>
      <trkpt lat="47.78351" lon="-3.53234">
        <ele>6.17</ele>
        <time>2020-07-10T13:47:09Z</time>
      </trkpt>
      <trkpt lat="47.78351" lon="-3.53234">
        <ele>6.17</ele>
        <time>2020-07-10T13:47:10Z</time>
      </trkpt>
      <trkpt lat="47.78351" lon="-3.53234">
        <ele>6.17</ele>
        <time>2020-07-10T13:47:11Z</time>
      </trkpt>
      <trkpt lat="47.78351" lon="-3.53234">
        <ele>6.17</ele>
        <time>2020-07-10T13:47:12Z</time>
      </trkpt>
      <trkpt lat="47.78351" lon="-3.53234">
        <ele>6.17</ele>
        <time>2020-07-10T13:47:13Z</time>
      </trkpt>
      <trkpt lat="47.78351" lon="-3.53234">
        <ele>6.17</ele>
        <time>2020-07-10T13:47:14Z</time>
      </trkpt>
      <trkpt lat="47.78351" lon="-3.53234">
        <ele>6.17</ele>
        <time>2020-07-10T13:47:15Z</time>
      </trkpt>
      <trkpt lat="47.78351" lon="-3.53234">
        <ele>6.17</ele>
        <time>2020-07-10T13:47:16Z</time>
      </trkpt>
      <trkpt lat="47.78351" lon="-3.53234">
        <ele>6.17</ele>
        <time>2020-07-10T13:47:17Z</time>
      </trkpt>
      <trkpt lat="47.78351" lon="-3.53234">
        <ele>6.17</ele>
        <time>2020-07-10T13:47:18Z</time>
      </trkpt>
      <trkpt lat="47.78351" lon="-3.53234">
        <ele>6.17</ele>
        <time>2020-07-10T13:47:19Z</time>
      </trkpt>
      <trkpt lat="47.78351" lon="-3.53234">
        <ele>6.17</ele>
        <time>2020-07-10T13:47:20Z</time>
      </trkpt>
      <trkpt lat="47.78351" lon="-3.53234">
        <ele>6.17</ele>
        <time>2020-07-10T13:47:21Z</time>
      </trkpt>
      <trkpt lat="47.78351" lon="-3.53234">
        <ele>6.17</ele>
        <time>2020-07-10T13:47:22Z</time>
      </trkpt>
      <trkpt lat="47.78351" lon="-3.53234">
        <ele>6.17</ele>
        <time>2020-07-10T13:47:23Z</time>
      </trkpt>
      <trkpt lat="47.78351" lon="-3.53234">
        <ele>6.17</ele>
        <time>2020-07-10T13:47:24Z</time>
      </trkpt>
      <trkpt lat="47.78345" lon="-3.53242">
        <ele>6.15</ele>
        <time>2020-07-10T13:47:25Z</time>
      </trkpt>
      <trkpt lat="47.78345" lon="-3.53244">
        <ele>6.38</ele>
        <time>2020-07-10T13:47:26Z</time>
      </trkpt>
      <trkpt lat="47.78344" lon="-3.53247">
        <ele>6.65</ele>
        <time>2020-07-10T13:47:27Z</time>
      </trkpt>
      <trkpt lat="47.78344" lon="-3.53249">
        <ele>6.95</ele>
        <time>2020-07-10T13:47:28Z</time>
      </trkpt>
      <trkpt lat="47.78344" lon="-3.53251">
        <ele>7.26</ele>
        <time>2020-07-10T13:47:29Z</time>
      </trkpt>
      <trkpt lat="47.78345" lon="-3.53253">
        <ele>7.64</ele>
        <time>2020-07-10T13:47:30Z</time>
      </trkpt>
      <trkpt lat="47.78346" lon="-3.53255">
        <ele>7.98</ele>
        <time>2020-07-10T13:47:31Z</time>
      </trkpt>
      <trkpt lat="47.78346" lon="-3.53257">
        <ele>8.26</ele>
        <time>2020-07-10T13:47:32Z</time>
      </trkpt>
      <trkpt lat="47.78346" lon="-3.53258">
        <ele>8.51</ele>
        <time>2020-07-10T13:47:33Z</time>
      </trkpt>
      <trkpt lat="47.78347" lon="-3.5326">
        <ele>8.85</ele>
        <time>2020-07-10T13:47:34Z</time>
      </trkpt>
      <trkpt lat="47.78347" lon="-3.53263">
        <ele>9.25</ele>
        <time>2020-07-10T13:47:35Z</time>
      </trkpt>
      <trkpt lat="47.78347" lon="-3.53266">
        <ele>9.68</ele>
        <time>2020-07-10T13:47:36Z</time>
      </trkpt>
      <trkpt lat="47.78347" lon="-3.53269">
        <ele>10.1</ele>
        <time>2020-07-10T13:47:37Z</time>
      </trkpt>
      <trkpt lat="47.78347" lon="-3.53272">
        <ele>10.5</ele>
        <time>2020-07-10T13:47:38Z</time>
      </trkpt>
      <trkpt lat="47.78348" lon="-3.53274">
        <ele>10.8</ele>
        <time>2020-07-10T13:47:39Z</time>
      </trkpt>
      <trkpt lat="47.78349" lon="-3.53277">
        <ele>11.06</ele>
        <time>2020-07-10T13:47:40Z</time>
      </trkpt>
      <trkpt lat="47.7835" lon="-3.53279">
        <ele>11.31</ele>
        <time>2020-07-10T13:47:41Z</time>
      </trkpt>
      <trkpt lat="47.78351" lon="-3.53281">
        <ele>11.56</ele>
        <time>2020-07-10T13:47:42Z</time>
      </trkpt>
      <trkpt lat="47.78351" lon="-3.53283">
        <ele>11.84</ele>
        <time>2020-07-10T13:47:43Z</time>
      </trkpt>
      <trkpt lat="47.78352" lon="-3.53285">
        <ele>12.07</ele>
        <time>2020-07-10T13:47:44Z</time>
      </trkpt>
      <trkpt lat="47.78353" lon="-3.53288">
        <ele>12.38</ele>
        <time>2020-07-10T13:47:45Z</time>
      </trkpt>
      <trkpt lat="47.78354" lon="-3.53292">
        <ele>12.7</ele>
        <time>2020-07-10T13:47:46Z</time>
      </trkpt>
      <trkpt lat="47.78356" lon="-3.53296">
        <ele>12.9</ele>
        <time>2020-07-10T13:47:47Z</time>
      </trkpt>
      <trkpt lat="47.78358" lon="-3.53298">
        <ele>12.98</ele>
        <time>2020-07-10T13:47:48Z</time>
      </trkpt>
      <trkpt lat="47.78359" lon="-3.533">
        <ele>12.96</ele>
        <time>2020-07-10T13:47:49Z</time>
      </trkpt>
      <trkpt lat="47.7836" lon="-3.53302">
        <ele>12.94</ele>
        <time>2020-07-10T13:47:50Z</time>
      </trkpt>
      <trkpt lat="47.78361" lon="-3.53304">
        <ele>12.92</ele>
        <time>2020-07-10T13:47:51Z</time>
      </trkpt>
      <trkpt lat="47.78362" lon="-3.53306">
        <ele>13.25</ele>
        <time>2020-07-10T13:47:52Z</time>
      </trkpt>
      <trkpt lat="47.78363" lon="-3.53309">
        <ele>14.12</ele>
        <time>2020-07-10T13:47:53Z</time>
      </trkpt>
      <trkpt lat="47.78364" lon="-3.53312">
        <ele>15</ele>
        <time>2020-07-10T13:47:54Z</time>
      </trkpt>
      <trkpt lat="47.78364" lon="-3.53314">
        <ele>15.84</ele>
        <time>2020-07-10T13:47:55Z</time>
      </trkpt>
      <trkpt lat="47.78365" lon="-3.53317">
        <ele>16.74</ele>
        <time>2020-07-10T13:47:56Z</time>
      </trkpt>
      <trkpt lat="47.78365" lon="-3.53319">
        <ele>17.46</ele>
        <time>2020-07-10T13:47:57Z</time>
      </trkpt>
      <trkpt lat="47.78366" lon="-3.53322">
        <ele>18.24</ele>
        <time>2020-07-10T13:47:58Z</time>
      </trkpt>
      <trkpt lat="47.78367" lon="-3.53325">
        <ele>18.99</ele>
        <time>2020-07-10T13:47:59Z</time>
      </trkpt>
      <trkpt lat="47.78369" lon="-3.53328">
        <ele>19.92</ele>
        <time>2020-07-10T13:48:00Z</time>
      </trkpt>
      <trkpt lat="47.7837" lon="-3.53331">
        <ele>20.65</ele>
        <time>2020-07-10T13:48:01Z</time>
      </trkpt>
      <trkpt lat="47.78372" lon="-3.53334">
        <ele>21.18</ele>
        <time>2020-07-10T13:48:02Z</time>
      </trkpt>
      <trkpt lat="47.78373" lon="-3.53337">
        <ele>21.42</ele>
        <time>2020-07-10T13:48:03Z</time>
      </trkpt>
      <trkpt lat="47.78373" lon="-3.5334">
        <ele>21.56</ele>
        <time>2020-07-10T13:48:04Z</time>
      </trkpt>
      <trkpt lat="47.78374" lon="-3.53343">
        <ele>21.67</ele>
        <time>2020-07-10T13:48:05Z</time>
      </trkpt>
      <trkpt lat="47.78374" lon="-3.53346">
        <ele>21.74</ele>
        <time>2020-07-10T13:48:06Z</time>
      </trkpt>
      <trkpt lat="47.78375" lon="-3.53349">
        <ele>21.78</ele>
        <time>2020-07-10T13:48:07Z</time>
      </trkpt>
      <trkpt lat="47.78376" lon="-3.53351">
        <ele>21.76</ele>
        <time>2020-07-10T13:48:08Z</time>
      </trkpt>
      <trkpt lat="47.78377" lon="-3.53354">
        <ele>21.73</ele>
        <time>2020-07-10T13:48:09Z</time>
      </trkpt>
      <trkpt lat="47.78378" lon="-3.53358">
        <ele>21.65</ele>
        <time>2020-07-10T13:48:10Z</time>
      </trkpt>
      <trkpt lat="47.78379" lon="-3.53361">
        <ele>21.51</ele>
        <time>2020-07-10T13:48:11Z</time>
      </trkpt>
      <trkpt lat="47.7838" lon="-3.53365">
        <ele>21.38</ele>
        <time>2020-07-10T13:48:12Z</time>
      </trkpt>
      <trkpt lat="47.78381" lon="-3.53368">
        <ele>21.26</ele>
        <time>2020-07-10T13:48:13Z</time>
      </trkpt>
      <trkpt lat="47.78381" lon="-3.5337">
        <ele>21.2</ele>
        <time>2020-07-10T13:48:14Z</time>
      </trkpt>
      <trkpt lat="47.78382" lon="-3.53373">
        <ele>21.09</ele>
        <time>2020-07-10T13:48:15Z</time>
      </trkpt>
      <trkpt lat="47.78383" lon="-3.53377">
        <ele>20.97</ele>
        <time>2020-07-10T13:48:16Z</time>
      </trkpt>
      <trkpt lat="47.78384" lon="-3.53379">
        <ele>20.88</ele>
        <time>2020-07-10T13:48:17Z</time>
      </trkpt>
      <trkpt lat="47.78385" lon="-3.53382">
        <ele>20.79</ele>
        <time>2020-07-10T13:48:18Z</time>
      </trkpt>
      <trkpt lat="47.78385" lon="-3.53385">
        <ele>20.69</ele>
        <time>2020-07-10T13:48:19Z</time>
      </trkpt>
      <trkpt lat="47.78386" lon="-3.53388">
        <ele>20.61</ele>
        <time>2020-07-10T13:48:20Z</time>
      </trkpt>
      <trkpt lat="47.78386" lon="-3.53391">
        <ele>20.63</ele>
        <time>2020-07-10T13:48:21Z</time>
      </trkpt>
      <trkpt lat="47.78387" lon="-3.53394">
        <ele>20.7</ele>
        <time>2020-07-10T13:48:22Z</time>
      </trkpt>
      <trkpt lat="47.78387" lon="-3.53397">
        <ele>20.81</ele>
        <time>2020-07-10T13:48:23Z</time>
      </trkpt>
      <trkpt lat="47.78388" lon="-3.534">
        <ele>20.91</ele>
        <time>2020-07-10T13:48:24Z</time>
      </trkpt>
      <trkpt lat="47.78389" lon="-3.53403">
        <ele>20.98</ele>
        <time>2020-07-10T13:48:25Z</time>
      </trkpt>
      <trkpt lat="47.7839" lon="-3.53406">
        <ele>21.15</ele>
        <time>2020-07-10T13:48:26Z</time>
      </trkpt>
      <trkpt lat="47.78391" lon="-3.53409">
        <ele>21.36</ele>
        <time>2020-07-10T13:48:27Z</time>
      </trkpt>
      <trkpt lat="47.78391" lon="-3.53411">
        <ele>21.56</ele>
        <time>2020-07-10T13:48:28Z</time>
      </trkpt>
      <trkpt lat="47.78392" lon="-3.53414">
        <ele>21.76</ele>
        <time>2020-07-10T13:48:29Z</time>
      </trkpt>
      <trkpt lat="47.78392" lon="-3.53417">
        <ele>21.93</ele>
        <time>2020-07-10T13:48:30Z</time>
      </trkpt>
      <trkpt lat="47.78393" lon="-3.53419">
        <ele>22.07</ele>
        <time>2020-07-10T13:48:31Z</time>
      </trkpt>
      <trkpt lat="47.78394" lon="-3.53423">
        <ele>22.22</ele>
        <time>2020-07-10T13:48:32Z</time>
      </trkpt>
      <trkpt lat="47.78395" lon="-3.53425">
        <ele>22.37</ele>
        <time>2020-07-10T13:48:33Z</time>
      </trkpt>
      <trkpt lat="47.78395" lon="-3.53428">
        <ele>22.53</ele>
        <time>2020-07-10T13:48:34Z</time>
      </trkpt>
      <trkpt lat="47.78396" lon="-3.53431">
        <ele>22.7</ele>
        <time>2020-07-10T13:48:35Z</time>
      </trkpt>
      <trkpt lat="47.78396" lon="-3.53434">
        <ele>22.86</ele>
        <time>2020-07-10T13:48:36Z</time>
      </trkpt>
      <trkpt lat="47.78396" lon="-3.53437">
        <ele>23.05</ele>
        <time>2020-07-10T13:48:37Z</time>
      </trkpt>
      <trkpt lat="47.78397" lon="-3.5344">
        <ele>23.27</ele>
        <time>2020-07-10T13:48:38Z</time>
      </trkpt>
      <trkpt lat="47.78397" lon="-3.53444">
        <ele>23.47</ele>
        <time>2020-07-10T13:48:39Z</time>
      </trkpt>
      <trkpt lat="47.78397" lon="-3.53448">
        <ele>23.72</ele>
        <time>2020-07-10T13:48:40Z</time>
      </trkpt>
      <trkpt lat="47.78397" lon="-3.53451">
        <ele>23.96</ele>
        <time>2020-07-10T13:48:41Z</time>
      </trkpt>
      <trkpt lat="47.78397" lon="-3.53455">
        <ele>24.22</ele>
        <time>2020-07-10T13:48:42Z</time>
      </trkpt>
      <trkpt lat="47.78397" lon="-3.53458">
        <ele>24.47</ele>
        <time>2020-07-10T13:48:43Z</time>
      </trkpt>
      <trkpt lat="47.78397" lon="-3.53462">
        <ele>24.74</ele>
        <time>2020-07-10T13:48:44Z</time>
      </trkpt>
      <trkpt lat="47.78397" lon="-3.53465">
        <ele>24.99</ele>
        <time>2020-07-10T13:48:45Z</time>
      </trkpt>
      <trkpt lat="47.78397" lon="-3.53469">
        <ele>25.22</ele>
        <time>2020-07-10T13:48:46Z</time>
      </trkpt>
      <trkpt lat="47.78397" lon="-3.53472">
        <ele>25.42</ele>
        <time>2020-07-10T13:48:47Z</time>
      </trkpt>
      <trkpt lat="47.78396" lon="-3.53475">
        <ele>25.61</ele>
        <time>2020-07-10T13:48:48Z</time>
      </trkpt>
      <trkpt lat="47.78396" lon="-3.53478">
        <ele>25.77</ele>
        <time>2020-07-10T13:48:49Z</time>
      </trkpt>
      <trkpt lat="47.78396" lon="-3.53481">
        <ele>25.92</ele>
        <time>2020-07-10T13:48:50Z</time>
      </trkpt>
      <trkpt lat="47.78396" lon="-3.53483">
        <ele>26.03</ele>
        <time>2020-07-10T13:48:51Z</time>
      </trkpt>
      <trkpt lat="47.78395" lon="-3.53486">
        <ele>26.09</ele>
        <time>2020-07-10T13:48:52Z</time>
      </trkpt>
      <trkpt lat="47.78395" lon="-3.53489">
        <ele>26.22</ele>
        <time>2020-07-10T13:48:53Z</time>
      </trkpt>
      <trkpt lat="47.78395" lon="-3.53492">
        <ele>26.38</ele>
        <time>2020-07-10T13:48:54Z</time>
      </trkpt>
      <trkpt lat="47.78395" lon="-3.53496">
        <ele>26.54</ele>
        <time>2020-07-10T13:48:55Z</time>
      </trkpt>
      <trkpt lat="47.78394" lon="-3.53499">
        <ele>26.65</ele>
        <time>2020-07-10T13:48:56Z</time>
      </trkpt>
      <trkpt lat="47.78393" lon="-3.53501">
        <ele>26.78</ele>
        <time>2020-07-10T13:48:57Z</time>
      </trkpt>
      <trkpt lat="47.78393" lon="-3.53504">
        <ele>27.02</ele>
        <time>2020-07-10T13:48:58Z</time>
      </trkpt>
      <trkpt lat="47.78393" lon="-3.53506">
        <ele>27.22</ele>
        <time>2020-07-10T13:48:59Z</time>
      </trkpt>
      <trkpt lat="47.78392" lon="-3.53509">
        <ele>27.48</ele>
        <time>2020-07-10T13:49:00Z</time>
      </trkpt>
      <trkpt lat="47.78391" lon="-3.53512">
        <ele>27.79</ele>
        <time>2020-07-10T13:49:01Z</time>
      </trkpt>
      <trkpt lat="47.7839" lon="-3.53513">
        <ele>27.99</ele>
        <time>2020-07-10T13:49:02Z</time>
      </trkpt>
      <trkpt lat="47.7839" lon="-3.53516">
        <ele>28.25</ele>
        <time>2020-07-10T13:49:03Z</time>
      </trkpt>
      <trkpt lat="47.78389" lon="-3.53519">
        <ele>28.59</ele>
        <time>2020-07-10T13:49:04Z</time>
      </trkpt>
      <trkpt lat="47.78389" lon="-3.53521">
        <ele>28.92</ele>
        <time>2020-07-10T13:49:05Z</time>
      </trkpt>
      <trkpt lat="47.78388" lon="-3.53524">
        <ele>29.31</ele>
        <time>2020-07-10T13:49:06Z</time>
      </trkpt>
      <trkpt lat="47.78387" lon="-3.53527">
        <ele>29.7</ele>
        <time>2020-07-10T13:49:07Z</time>
      </trkpt>
      <trkpt lat="47.78387" lon="-3.5353">
        <ele>30.07</ele>
        <time>2020-07-10T13:49:08Z</time>
      </trkpt>
      <trkpt lat="47.78387" lon="-3.53533">
        <ele>30.46</ele>
        <time>2020-07-10T13:49:09Z</time>
      </trkpt>
      <trkpt lat="47.78386" lon="-3.53535">
        <ele>30.86</ele>
        <time>2020-07-10T13:49:10Z</time>
      </trkpt>
      <trkpt lat="47.78386" lon="-3.53539">
        <ele>31.28</ele>
        <time>2020-07-10T13:49:11Z</time>
      </trkpt>
      <trkpt lat="47.78386" lon="-3.53542">
        <ele>31.72</ele>
        <time>2020-07-10T13:49:12Z</time>
      </trkpt>
      <trkpt lat="47.78386" lon="-3.53545">
        <ele>32.2</ele>
        <time>2020-07-10T13:49:13Z</time>
      </trkpt>
      <trkpt lat="47.78385" lon="-3.53549">
        <ele>32.69</ele>
        <time>2020-07-10T13:49:14Z</time>
      </trkpt>
      <trkpt lat="47.78385" lon="-3.53552">
        <ele>33.16</ele>
        <time>2020-07-10T13:49:15Z</time>
      </trkpt>
      <trkpt lat="47.78385" lon="-3.53555">
        <ele>33.59</ele>
        <time>2020-07-10T13:49:16Z</time>
      </trkpt>
      <trkpt lat="47.78385" lon="-3.53558">
        <ele>33.91</ele>
        <time>2020-07-10T13:49:17Z</time>
      </trkpt>
      <trkpt lat="47.78385" lon="-3.53561">
        <ele>34.15</ele>
        <time>2020-07-10T13:49:18Z</time>
      </trkpt>
      <trkpt lat="47.78385" lon="-3.53564">
        <ele>34.36</ele>
        <time>2020-07-10T13:49:19Z</time>
      </trkpt>
      <trkpt lat="47.78384" lon="-3.53567">
        <ele>34.56</ele>
        <time>2020-07-10T13:49:20Z</time>
      </trkpt>
      <trkpt lat="47.78384" lon="-3.53571">
        <ele>34.81</ele>
        <time>2020-07-10T13:49:21Z</time>
      </trkpt>
      <trkpt lat="47.78384" lon="-3.53574">
        <ele>35.02</ele>
        <time>2020-07-10T13:49:22Z</time>
      </trkpt>
      <trkpt lat="47.78383" lon="-3.53576">
        <ele>35.21</ele>
        <time>2020-07-10T13:49:23Z</time>
      </trkpt>
      <trkpt lat="47.78384" lon="-3.5358">
        <ele>35.45</ele>
        <time>2020-07-10T13:49:24Z</time>
      </trkpt>
      <trkpt lat="47.78384" lon="-3.53581">
        <ele>35.62</ele>
        <time>2020-07-10T13:49:25Z</time>
      </trkpt>
      <trkpt lat="47.78385" lon="-3.53583">
        <ele>35.77</ele>
        <time>2020-07-10T13:49:26Z</time>
      </trkpt>
      <trkpt lat="47.78386" lon="-3.53585">
        <ele>35.94</ele>
        <time>2020-07-10T13:49:27Z</time>
      </trkpt>
      <trkpt lat="47.78388" lon="-3.53585">
        <ele>36.04</ele>
        <time>2020-07-10T13:49:28Z</time>
      </trkpt>
      <trkpt lat="47.7839" lon="-3.53585">
        <ele>36.06</ele>
        <time>2020-07-10T13:49:29Z</time>
      </trkpt>
      <trkpt lat="47.78392" lon="-3.53585">
        <ele>36.03</ele>
        <time>2020-07-10T13:49:30Z</time>
      </trkpt>
      <trkpt lat="47.78394" lon="-3.53585">
        <ele>35.95</ele>
        <time>2020-07-10T13:49:31Z</time>
      </trkpt>
      <trkpt lat="47.78396" lon="-3.53585">
        <ele>35.87</ele>
        <time>2020-07-10T13:49:32Z</time>
      </trkpt>
      <trkpt lat="47.78398" lon="-3.53585">
        <ele>35.78</ele>
        <time>2020-07-10T13:49:33Z</time>
      </trkpt>
      <trkpt lat="47.78401" lon="-3.53584">
        <ele>35.69</ele>
        <time>2020-07-10T13:49:34Z</time>
      </trkpt>
      <trkpt lat="47.78403" lon="-3.53584">
        <ele>35.58</ele>
        <time>2020-07-10T13:49:35Z</time>
      </trkpt>
      <trkpt lat="47.78406" lon="-3.53584">
        <ele>35.47</ele>
        <time>2020-07-10T13:49:36Z</time>
      </trkpt>
      <trkpt lat="47.78409" lon="-3.53583">
        <ele>35.34</ele>
        <time>2020-07-10T13:49:37Z</time>
      </trkpt>
      <trkpt lat="47.78411" lon="-3.53583">
        <ele>35.21</ele>
        <time>2020-07-10T13:49:38Z</time>
      </trkpt>
      <trkpt lat="47.78414" lon="-3.53583">
        <ele>35.13</ele>
        <time>2020-07-10T13:49:39Z</time>
      </trkpt>
      <trkpt lat="47.78417" lon="-3.53585">
        <ele>35.15</ele>
        <time>2020-07-10T13:49:40Z</time>
      </trkpt>
      <trkpt lat="47.7842" lon="-3.53587">
        <ele>35.35</ele>
        <time>2020-07-10T13:49:41Z</time>
      </trkpt>
      <trkpt lat="47.78422" lon="-3.53588">
        <ele>35.6</ele>
        <time>2020-07-10T13:49:42Z</time>
      </trkpt>
      <trkpt lat="47.78425" lon="-3.5359">
        <ele>35.86</ele>
        <time>2020-07-10T13:49:43Z</time>
      </trkpt>
      <trkpt lat="47.78427" lon="-3.53591">
        <ele>36.11</ele>
        <time>2020-07-10T13:49:44Z</time>
      </trkpt>
      <trkpt lat="47.78429" lon="-3.53593">
        <ele>36.35</ele>
        <time>2020-07-10T13:49:45Z</time>
      </trkpt>
      <trkpt lat="47.78431" lon="-3.53596">
        <ele>36.6</ele>
        <time>2020-07-10T13:49:46Z</time>
      </trkpt>
      <trkpt lat="47.78432" lon="-3.53599">
        <ele>36.83</ele>
        <time>2020-07-10T13:49:47Z</time>
      </trkpt>
      <trkpt lat="47.78434" lon="-3.53601">
        <ele>37.04</ele>
        <time>2020-07-10T13:49:48Z</time>
      </trkpt>
      <trkpt lat="47.78435" lon="-3.53603">
        <ele>37.23</ele>
        <time>2020-07-10T13:49:49Z</time>
      </trkpt>
      <trkpt lat="47.78437" lon="-3.53605">
        <ele>37.4</ele>
        <time>2020-07-10T13:49:50Z</time>
      </trkpt>
      <trkpt lat="47.78439" lon="-3.53608">
        <ele>37.57</ele>
        <time>2020-07-10T13:49:51Z</time>
      </trkpt>
      <trkpt lat="47.7844" lon="-3.5361">
        <ele>37.74</ele>
        <time>2020-07-10T13:49:52Z</time>
      </trkpt>
      <trkpt lat="47.78442" lon="-3.53614">
        <ele>37.99</ele>
        <time>2020-07-10T13:49:53Z</time>
      </trkpt>
      <trkpt lat="47.78443" lon="-3.53618">
        <ele>38.31</ele>
        <time>2020-07-10T13:49:54Z</time>
      </trkpt>
      <trkpt lat="47.78442" lon="-3.53623">
        <ele>38.64</ele>
        <time>2020-07-10T13:49:55Z</time>
      </trkpt>
      <trkpt lat="47.78442" lon="-3.53627">
        <ele>38.94</ele>
        <time>2020-07-10T13:49:56Z</time>
      </trkpt>
      <trkpt lat="47.78442" lon="-3.53632">
        <ele>39.27</ele>
        <time>2020-07-10T13:49:57Z</time>
      </trkpt>
      <trkpt lat="47.78443" lon="-3.53636">
        <ele>39.6</ele>
        <time>2020-07-10T13:49:58Z</time>
      </trkpt>
      <trkpt lat="47.78444" lon="-3.53641">
        <ele>39.91</ele>
        <time>2020-07-10T13:49:59Z</time>
      </trkpt>
      <trkpt lat="47.78445" lon="-3.53645">
        <ele>40.15</ele>
        <time>2020-07-10T13:50:00Z</time>
      </trkpt>
      <trkpt lat="47.78446" lon="-3.5365">
        <ele>40.37</ele>
        <time>2020-07-10T13:50:01Z</time>
      </trkpt>
      <trkpt lat="47.78448" lon="-3.53654">
        <ele>40.58</ele>
        <time>2020-07-10T13:50:02Z</time>
      </trkpt>
      <trkpt lat="47.78449" lon="-3.53658">
        <ele>40.77</ele>
        <time>2020-07-10T13:50:03Z</time>
      </trkpt>
      <trkpt lat="47.7845" lon="-3.53662">
        <ele>40.95</ele>
        <time>2020-07-10T13:50:04Z</time>
      </trkpt>
      <trkpt lat="47.78452" lon="-3.53665">
        <ele>41.14</ele>
        <time>2020-07-10T13:50:05Z</time>
      </trkpt>
      <trkpt lat="47.78454" lon="-3.53668">
        <ele>41.29</ele>
        <time>2020-07-10T13:50:06Z</time>
      </trkpt>
      <trkpt lat="47.78456" lon="-3.5367">
        <ele>41.39</ele>
        <time>2020-07-10T13:50:07Z</time>
      </trkpt>
      <trkpt lat="47.78458" lon="-3.53673">
        <ele>41.47</ele>
        <time>2020-07-10T13:50:08Z</time>
      </trkpt>
      <trkpt lat="47.78461" lon="-3.53676">
        <ele>41.55</ele>
        <time>2020-07-10T13:50:09Z</time>
      </trkpt>
      <trkpt lat="47.78463" lon="-3.53678">
        <ele>41.63</ele>
        <time>2020-07-10T13:50:10Z</time>
      </trkpt>
      <trkpt lat="47.78465" lon="-3.53681">
        <ele>41.72</ele>
        <time>2020-07-10T13:50:11Z</time>
      </trkpt>
      <trkpt lat="47.78468" lon="-3.53683">
        <ele>41.81</ele>
        <time>2020-07-10T13:50:12Z</time>
      </trkpt>
      <trkpt lat="47.78471" lon="-3.53685">
        <ele>41.91</ele>
        <time>2020-07-10T13:50:13Z</time>
      </trkpt>
      <trkpt lat="47.78474" lon="-3.53686">
        <ele>41.97</ele>
        <time>2020-07-10T13:50:14Z</time>
      </trkpt>
      <trkpt lat="47.78477" lon="-3.53689">
        <ele>41.99</ele>
        <time>2020-07-10T13:50:15Z</time>
      </trkpt>
      <trkpt lat="47.78481" lon="-3.5369">
        <ele>42</ele>
        <time>2020-07-10T13:50:16Z</time>
      </trkpt>
      <trkpt lat="47.78484" lon="-3.53692">
        <ele>42</ele>
        <time>2020-07-10T13:50:17Z</time>
      </trkpt>
      <trkpt lat="47.78488" lon="-3.53694">
        <ele>42</ele>
        <time>2020-07-10T13:50:18Z</time>
      </trkpt>
      <trkpt lat="47.78491" lon="-3.53695">
        <ele>42</ele>
        <time>2020-07-10T13:50:19Z</time>
      </trkpt>
      <trkpt lat="47.78495" lon="-3.53696">
        <ele>42</ele>
        <time>2020-07-10T13:50:20Z</time>
      </trkpt>
      <trkpt lat="47.785" lon="-3.53696">
        <ele>42</ele>
        <time>2020-07-10T13:50:21Z</time>
      </trkpt>
      <trkpt lat="47.78504" lon="-3.53696">
        <ele>42</ele>
        <time>2020-07-10T13:50:22Z</time>
      </trkpt>
      <trkpt lat="47.78508" lon="-3.53696">
        <ele>42</ele>
        <time>2020-07-10T13:50:23Z</time>
      </trkpt>
      <trkpt lat="47.78513" lon="-3.53696">
        <ele>42</ele>
        <time>2020-07-10T13:50:24Z</time>
      </trkpt>
      <trkpt lat="47.78517" lon="-3.53695">
        <ele>42</ele>
        <time>2020-07-10T13:50:25Z</time>
      </trkpt>
      <trkpt lat="47.78521" lon="-3.53695">
        <ele>42</ele>
        <time>2020-07-10T13:50:26Z</time>
      </trkpt>
      <trkpt lat="47.78525" lon="-3.53695">
        <ele>42</ele>
        <time>2020-07-10T13:50:27Z</time>
      </trkpt>
      <trkpt lat="47.78529" lon="-3.53695">
        <ele>42</ele>
        <time>2020-07-10T13:50:28Z</time>
      </trkpt>
      <trkpt lat="47.78534" lon="-3.53695">
        <ele>42</ele>
        <time>2020-07-10T13:50:29Z</time>
      </trkpt>
      <trkpt lat="47.78538" lon="-3.53694">
        <ele>42</ele>
        <time>2020-07-10T13:50:30Z</time>
      </trkpt>
      <trkpt lat="47.78543" lon="-3.53693">
        <ele>42</ele>
        <time>2020-07-10T13:50:31Z</time>
      </trkpt>
      <trkpt lat="47.78548" lon="-3.53693">
        <ele>42</ele>
        <time>2020-07-10T13:50:32Z</time>
      </trkpt>
      <trkpt lat="47.78553" lon="-3.53692">
        <ele>42</ele>
        <time>2020-07-10T13:50:33Z</time>
      </trkpt>
      <trkpt lat="47.78559" lon="-3.5369">
        <ele>41.93</ele>
        <time>2020-07-10T13:50:34Z</time>
      </trkpt>
      <trkpt lat="47.78563" lon="-3.5369">
        <ele>41.78</ele>
        <time>2020-07-10T13:50:35Z</time>
      </trkpt>
      <trkpt lat="47.78569" lon="-3.53688">
        <ele>41.61</ele>
        <time>2020-07-10T13:50:36Z</time>
      </trkpt>
      <trkpt lat="47.78573" lon="-3.53687">
        <ele>41.43</ele>
        <time>2020-07-10T13:50:37Z</time>
      </trkpt>
      <trkpt lat="47.78578" lon="-3.53685">
        <ele>41.25</ele>
        <time>2020-07-10T13:50:38Z</time>
      </trkpt>
      <trkpt lat="47.78583" lon="-3.53684">
        <ele>41.08</ele>
        <time>2020-07-10T13:50:39Z</time>
      </trkpt>
      <trkpt lat="47.78589" lon="-3.53683">
        <ele>41.02</ele>
        <time>2020-07-10T13:50:40Z</time>
      </trkpt>
      <trkpt lat="47.78594" lon="-3.53681">
        <ele>41.01</ele>
        <time>2020-07-10T13:50:41Z</time>
      </trkpt>
      <trkpt lat="47.78599" lon="-3.5368">
        <ele>41</ele>
        <time>2020-07-10T13:50:42Z</time>
      </trkpt>
      <trkpt lat="47.78604" lon="-3.53678">
        <ele>41</ele>
        <time>2020-07-10T13:50:43Z</time>
      </trkpt>
      <trkpt lat="47.78609" lon="-3.53675">
        <ele>41</ele>
        <time>2020-07-10T13:50:44Z</time>
      </trkpt>
      <trkpt lat="47.78614" lon="-3.53673">
        <ele>41</ele>
        <time>2020-07-10T13:50:45Z</time>
      </trkpt>
      <trkpt lat="47.78619" lon="-3.5367">
        <ele>41</ele>
        <time>2020-07-10T13:50:46Z</time>
      </trkpt>
      <trkpt lat="47.78624" lon="-3.53667">
        <ele>41</ele>
        <time>2020-07-10T13:50:47Z</time>
      </trkpt>
      <trkpt lat="47.78628" lon="-3.53663">
        <ele>41</ele>
        <time>2020-07-10T13:50:48Z</time>
      </trkpt>
      <trkpt lat="47.78633" lon="-3.5366">
        <ele>41</ele>
        <time>2020-07-10T13:50:49Z</time>
      </trkpt>
      <trkpt lat="47.78637" lon="-3.53658">
        <ele>41</ele>
        <time>2020-07-10T13:50:50Z</time>
      </trkpt>
      <trkpt lat="47.78642" lon="-3.53657">
        <ele>41.07</ele>
        <time>2020-07-10T13:50:51Z</time>
      </trkpt>
      <trkpt lat="47.78646" lon="-3.53658">
        <ele>41.2</ele>
        <time>2020-07-10T13:50:52Z</time>
      </trkpt>
      <trkpt lat="47.7865" lon="-3.53661">
        <ele>41.34</ele>
        <time>2020-07-10T13:50:53Z</time>
      </trkpt>
      <trkpt lat="47.78652" lon="-3.53667">
        <ele>41.42</ele>
        <time>2020-07-10T13:50:54Z</time>
      </trkpt>
      <trkpt lat="47.78652" lon="-3.53673">
        <ele>41.38</ele>
        <time>2020-07-10T13:50:55Z</time>
      </trkpt>
      <trkpt lat="47.78652" lon="-3.5368">
        <ele>41.28</ele>
        <time>2020-07-10T13:50:56Z</time>
      </trkpt>
      <trkpt lat="47.7865" lon="-3.53687">
        <ele>41.16</ele>
        <time>2020-07-10T13:50:57Z</time>
      </trkpt>
      <trkpt lat="47.78649" lon="-3.53694">
        <ele>41.05</ele>
        <time>2020-07-10T13:50:58Z</time>
      </trkpt>
      <trkpt lat="47.78648" lon="-3.53702">
        <ele>40.83</ele>
        <time>2020-07-10T13:50:59Z</time>
      </trkpt>
      <trkpt lat="47.78647" lon="-3.53709">
        <ele>40.58</ele>
        <time>2020-07-10T13:51:00Z</time>
      </trkpt>
      <trkpt lat="47.78646" lon="-3.53717">
        <ele>40.31</ele>
        <time>2020-07-10T13:51:01Z</time>
      </trkpt>
      <trkpt lat="47.78646" lon="-3.53724">
        <ele>40.04</ele>
        <time>2020-07-10T13:51:02Z</time>
      </trkpt>
      <trkpt lat="47.78645" lon="-3.53732">
        <ele>39.77</ele>
        <time>2020-07-10T13:51:03Z</time>
      </trkpt>
      <trkpt lat="47.78644" lon="-3.53739">
        <ele>39.49</ele>
        <time>2020-07-10T13:51:04Z</time>
      </trkpt>
      <trkpt lat="47.78644" lon="-3.53747">
        <ele>39.22</ele>
        <time>2020-07-10T13:51:05Z</time>
      </trkpt>
      <trkpt lat="47.78643" lon="-3.53755">
        <ele>39.07</ele>
        <time>2020-07-10T13:51:06Z</time>
      </trkpt>
      <trkpt lat="47.78642" lon="-3.53762">
        <ele>39.02</ele>
        <time>2020-07-10T13:51:07Z</time>
      </trkpt>
      <trkpt lat="47.78642" lon="-3.53771">
        <ele>39.01</ele>
        <time>2020-07-10T13:51:08Z</time>
      </trkpt>
      <trkpt lat="47.78641" lon="-3.53779">
        <ele>38.97</ele>
        <time>2020-07-10T13:51:09Z</time>
      </trkpt>
      <trkpt lat="47.7864" lon="-3.53788">
        <ele>38.73</ele>
        <time>2020-07-10T13:51:10Z</time>
      </trkpt>
      <trkpt lat="47.78639" lon="-3.53796">
        <ele>38.46</ele>
        <time>2020-07-10T13:51:11Z</time>
      </trkpt>
      <trkpt lat="47.78637" lon="-3.53805">
        <ele>38.19</ele>
        <time>2020-07-10T13:51:12Z</time>
      </trkpt>
      <trkpt lat="47.78636" lon="-3.53814">
        <ele>37.92</ele>
        <time>2020-07-10T13:51:13Z</time>
      </trkpt>
      <trkpt lat="47.78634" lon="-3.53823">
        <ele>37.65</ele>
        <time>2020-07-10T13:51:14Z</time>
      </trkpt>
      <trkpt lat="47.78633" lon="-3.53832">
        <ele>37.38</ele>
        <time>2020-07-10T13:51:15Z</time>
      </trkpt>
      <trkpt lat="47.78631" lon="-3.53841">
        <ele>37.1</ele>
        <time>2020-07-10T13:51:16Z</time>
      </trkpt>
      <trkpt lat="47.7863" lon="-3.5385">
        <ele>36.83</ele>
        <time>2020-07-10T13:51:17Z</time>
      </trkpt>
      <trkpt lat="47.78629" lon="-3.53859">
        <ele>36.56</ele>
        <time>2020-07-10T13:51:18Z</time>
      </trkpt>
      <trkpt lat="47.78627" lon="-3.53868">
        <ele>36.3</ele>
        <time>2020-07-10T13:51:19Z</time>
      </trkpt>
      <trkpt lat="47.78626" lon="-3.53876">
        <ele>36.03</ele>
        <time>2020-07-10T13:51:20Z</time>
      </trkpt>
      <trkpt lat="47.78625" lon="-3.53885">
        <ele>35.76</ele>
        <time>2020-07-10T13:51:21Z</time>
      </trkpt>
      <trkpt lat="47.78624" lon="-3.53894">
        <ele>35.49</ele>
        <time>2020-07-10T13:51:22Z</time>
      </trkpt>
      <trkpt lat="47.78623" lon="-3.53902">
        <ele>35.22</ele>
        <time>2020-07-10T13:51:23Z</time>
      </trkpt>
      <trkpt lat="47.78622" lon="-3.53911">
        <ele>34.92</ele>
        <time>2020-07-10T13:51:24Z</time>
      </trkpt>
      <trkpt lat="47.78621" lon="-3.53921">
        <ele>34.63</ele>
        <time>2020-07-10T13:51:25Z</time>
      </trkpt>
      <trkpt lat="47.7862" lon="-3.5393">
        <ele>34.32</ele>
        <time>2020-07-10T13:51:26Z</time>
      </trkpt>
      <trkpt lat="47.78619" lon="-3.5394">
        <ele>34.01</ele>
        <time>2020-07-10T13:51:27Z</time>
      </trkpt>
      <trkpt lat="47.78618" lon="-3.53949">
        <ele>33.73</ele>
        <time>2020-07-10T13:51:28Z</time>
      </trkpt>
      <trkpt lat="47.78617" lon="-3.53959">
        <ele>33.48</ele>
        <time>2020-07-10T13:51:29Z</time>
      </trkpt>
      <trkpt lat="47.78616" lon="-3.53969">
        <ele>33.21</ele>
        <time>2020-07-10T13:51:30Z</time>
      </trkpt>
      <trkpt lat="47.78616" lon="-3.53978">
        <ele>33.04</ele>
        <time>2020-07-10T13:51:31Z</time>
      </trkpt>
      <trkpt lat="47.78615" lon="-3.53987">
        <ele>32.95</ele>
        <time>2020-07-10T13:51:32Z</time>
      </trkpt>
      <trkpt lat="47.78615" lon="-3.53996">
        <ele>32.91</ele>
        <time>2020-07-10T13:51:33Z</time>
      </trkpt>
      <trkpt lat="47.78613" lon="-3.54005">
        <ele>32.8</ele>
        <time>2020-07-10T13:51:34Z</time>
      </trkpt>
      <trkpt lat="47.78612" lon="-3.54013">
        <ele>32.6</ele>
        <time>2020-07-10T13:51:35Z</time>
      </trkpt>
      <trkpt lat="47.78609" lon="-3.54021">
        <ele>32.35</ele>
        <time>2020-07-10T13:51:36Z</time>
      </trkpt>
      <trkpt lat="47.78606" lon="-3.54029">
        <ele>32.08</ele>
        <time>2020-07-10T13:51:37Z</time>
      </trkpt>
      <trkpt lat="47.78602" lon="-3.54035">
        <ele>31.9</ele>
        <time>2020-07-10T13:51:38Z</time>
      </trkpt>
      <trkpt lat="47.78597" lon="-3.54041">
        <ele>31.8</ele>
        <time>2020-07-10T13:51:39Z</time>
      </trkpt>
      <trkpt lat="47.78593" lon="-3.54046">
        <ele>31.79</ele>
        <time>2020-07-10T13:51:40Z</time>
      </trkpt>
      <trkpt lat="47.78587" lon="-3.54051">
        <ele>31.85</ele>
        <time>2020-07-10T13:51:41Z</time>
      </trkpt>
      <trkpt lat="47.78582" lon="-3.54055">
        <ele>31.95</ele>
        <time>2020-07-10T13:51:42Z</time>
      </trkpt>
      <trkpt lat="47.78577" lon="-3.54059">
        <ele>31.91</ele>
        <time>2020-07-10T13:51:43Z</time>
      </trkpt>
      <trkpt lat="47.78573" lon="-3.54064">
        <ele>31.84</ele>
        <time>2020-07-10T13:51:44Z</time>
      </trkpt>
      <trkpt lat="47.78568" lon="-3.5407">
        <ele>31.8</ele>
        <time>2020-07-10T13:51:45Z</time>
      </trkpt>
      <trkpt lat="47.78563" lon="-3.54075">
        <ele>31.81</ele>
        <time>2020-07-10T13:51:46Z</time>
      </trkpt>
      <trkpt lat="47.78559" lon="-3.54081">
        <ele>31.87</ele>
        <time>2020-07-10T13:51:47Z</time>
      </trkpt>
      <trkpt lat="47.78554" lon="-3.54086">
        <ele>31.96</ele>
        <time>2020-07-10T13:51:48Z</time>
      </trkpt>
      <trkpt lat="47.7855" lon="-3.54091">
        <ele>31.99</ele>
        <time>2020-07-10T13:51:49Z</time>
      </trkpt>
      <trkpt lat="47.78545" lon="-3.54097">
        <ele>32</ele>
        <time>2020-07-10T13:51:50Z</time>
      </trkpt>
      <trkpt lat="47.78541" lon="-3.54102">
        <ele>32</ele>
        <time>2020-07-10T13:51:51Z</time>
      </trkpt>
      <trkpt lat="47.78537" lon="-3.54107">
        <ele>32</ele>
        <time>2020-07-10T13:51:52Z</time>
      </trkpt>
      <trkpt lat="47.78532" lon="-3.54112">
        <ele>32</ele>
        <time>2020-07-10T13:51:53Z</time>
      </trkpt>
      <trkpt lat="47.78528" lon="-3.54117">
        <ele>32</ele>
        <time>2020-07-10T13:51:54Z</time>
      </trkpt>
      <trkpt lat="47.78524" lon="-3.54122">
        <ele>32.11</ele>
        <time>2020-07-10T13:51:55Z</time>
      </trkpt>
      <trkpt lat="47.78519" lon="-3.54127">
        <ele>32.25</ele>
        <time>2020-07-10T13:51:56Z</time>
      </trkpt>
      <trkpt lat="47.78515" lon="-3.54133">
        <ele>32.4</ele>
        <time>2020-07-10T13:51:57Z</time>
      </trkpt>
      <trkpt lat="47.78511" lon="-3.54138">
        <ele>32.55</ele>
        <time>2020-07-10T13:51:58Z</time>
      </trkpt>
      <trkpt lat="47.78507" lon="-3.54143">
        <ele>32.85</ele>
        <time>2020-07-10T13:51:59Z</time>
      </trkpt>
      <trkpt lat="47.78503" lon="-3.54149">
        <ele>33.16</ele>
        <time>2020-07-10T13:52:00Z</time>
      </trkpt>
      <trkpt lat="47.78499" lon="-3.54155">
        <ele>33.48</ele>
        <time>2020-07-10T13:52:01Z</time>
      </trkpt>
      <trkpt lat="47.78495" lon="-3.5416">
        <ele>33.82</ele>
        <time>2020-07-10T13:52:02Z</time>
      </trkpt>
      <trkpt lat="47.78492" lon="-3.54166">
        <ele>34.13</ele>
        <time>2020-07-10T13:52:03Z</time>
      </trkpt>
      <trkpt lat="47.78488" lon="-3.54172">
        <ele>34.46</ele>
        <time>2020-07-10T13:52:04Z</time>
      </trkpt>
      <trkpt lat="47.78485" lon="-3.54177">
        <ele>34.78</ele>
        <time>2020-07-10T13:52:05Z</time>
      </trkpt>
      <trkpt lat="47.78482" lon="-3.54183">
        <ele>35.09</ele>
        <time>2020-07-10T13:52:06Z</time>
      </trkpt>
      <trkpt lat="47.78479" lon="-3.54189">
        <ele>35.4</ele>
        <time>2020-07-10T13:52:07Z</time>
      </trkpt>
      <trkpt lat="47.78477" lon="-3.54194">
        <ele>35.71</ele>
        <time>2020-07-10T13:52:08Z</time>
      </trkpt>
      <trkpt lat="47.78474" lon="-3.542">
        <ele>35.88</ele>
        <time>2020-07-10T13:52:09Z</time>
      </trkpt>
      <trkpt lat="47.78471" lon="-3.54206">
        <ele>36</ele>
        <time>2020-07-10T13:52:10Z</time>
      </trkpt>
      <trkpt lat="47.78468" lon="-3.54212">
        <ele>36.11</ele>
        <time>2020-07-10T13:52:11Z</time>
      </trkpt>
      <trkpt lat="47.78465" lon="-3.54217">
        <ele>36.21</ele>
        <time>2020-07-10T13:52:12Z</time>
      </trkpt>
      <trkpt lat="47.78462" lon="-3.54223">
        <ele>36.33</ele>
        <time>2020-07-10T13:52:13Z</time>
      </trkpt>
      <trkpt lat="47.78459" lon="-3.54228">
        <ele>36.57</ele>
        <time>2020-07-10T13:52:14Z</time>
      </trkpt>
      <trkpt lat="47.78457" lon="-3.54234">
        <ele>36.85</ele>
        <time>2020-07-10T13:52:15Z</time>
      </trkpt>
      <trkpt lat="47.78454" lon="-3.54239">
        <ele>37.14</ele>
        <time>2020-07-10T13:52:16Z</time>
      </trkpt>
      <trkpt lat="47.78451" lon="-3.54244">
        <ele>37.43</ele>
        <time>2020-07-10T13:52:17Z</time>
      </trkpt>
      <trkpt lat="47.78449" lon="-3.5425">
        <ele>37.71</ele>
        <time>2020-07-10T13:52:18Z</time>
      </trkpt>
      <trkpt lat="47.78446" lon="-3.54255">
        <ele>37.99</ele>
        <time>2020-07-10T13:52:19Z</time>
      </trkpt>
      <trkpt lat="47.78444" lon="-3.5426">
        <ele>38.27</ele>
        <time>2020-07-10T13:52:20Z</time>
      </trkpt>
      <trkpt lat="47.78441" lon="-3.54265">
        <ele>38.56</ele>
        <time>2020-07-10T13:52:21Z</time>
      </trkpt>
      <trkpt lat="47.78438" lon="-3.54271">
        <ele>38.84</ele>
        <time>2020-07-10T13:52:22Z</time>
      </trkpt>
      <trkpt lat="47.78436" lon="-3.54276">
        <ele>39.13</ele>
        <time>2020-07-10T13:52:23Z</time>
      </trkpt>
      <trkpt lat="47.78433" lon="-3.54281">
        <ele>39.42</ele>
        <time>2020-07-10T13:52:24Z</time>
      </trkpt>
      <trkpt lat="47.7843" lon="-3.54287">
        <ele>39.71</ele>
        <time>2020-07-10T13:52:25Z</time>
      </trkpt>
      <trkpt lat="47.78428" lon="-3.54292">
        <ele>39.99</ele>
        <time>2020-07-10T13:52:26Z</time>
      </trkpt>
      <trkpt lat="47.78425" lon="-3.54297">
        <ele>40.27</ele>
        <time>2020-07-10T13:52:27Z</time>
      </trkpt>
      <trkpt lat="47.78422" lon="-3.54302">
        <ele>40.55</ele>
        <time>2020-07-10T13:52:28Z</time>
      </trkpt>
      <trkpt lat="47.7842" lon="-3.54307">
        <ele>40.78</ele>
        <time>2020-07-10T13:52:29Z</time>
      </trkpt>
      <trkpt lat="47.78417" lon="-3.54312">
        <ele>40.92</ele>
        <time>2020-07-10T13:52:30Z</time>
      </trkpt>
      <trkpt lat="47.78415" lon="-3.54317">
        <ele>41.02</ele>
        <time>2020-07-10T13:52:31Z</time>
      </trkpt>
      <trkpt lat="47.78412" lon="-3.54322">
        <ele>41.11</ele>
        <time>2020-07-10T13:52:32Z</time>
      </trkpt>
      <trkpt lat="47.7841" lon="-3.54326">
        <ele>41.21</ele>
        <time>2020-07-10T13:52:33Z</time>
      </trkpt>
      <trkpt lat="47.78407" lon="-3.54331">
        <ele>41.31</ele>
        <time>2020-07-10T13:52:34Z</time>
      </trkpt>
      <trkpt lat="47.78404" lon="-3.54336">
        <ele>41.4</ele>
        <time>2020-07-10T13:52:35Z</time>
      </trkpt>
      <trkpt lat="47.78402" lon="-3.54342">
        <ele>41.49</ele>
        <time>2020-07-10T13:52:36Z</time>
      </trkpt>
      <trkpt lat="47.78399" lon="-3.54347">
        <ele>41.58</ele>
        <time>2020-07-10T13:52:37Z</time>
      </trkpt>
      <trkpt lat="47.78397" lon="-3.54354">
        <ele>41.66</ele>
        <time>2020-07-10T13:52:38Z</time>
      </trkpt>
      <trkpt lat="47.78395" lon="-3.5436">
        <ele>41.74</ele>
        <time>2020-07-10T13:52:39Z</time>
      </trkpt>
      <trkpt lat="47.78393" lon="-3.54367">
        <ele>41.82</ele>
        <time>2020-07-10T13:52:40Z</time>
      </trkpt>
      <trkpt lat="47.78391" lon="-3.54373">
        <ele>41.9</ele>
        <time>2020-07-10T13:52:41Z</time>
      </trkpt>
      <trkpt lat="47.78389" lon="-3.54379">
        <ele>41.96</ele>
        <time>2020-07-10T13:52:42Z</time>
      </trkpt>
      <trkpt lat="47.78388" lon="-3.54385">
        <ele>42.01</ele>
        <time>2020-07-10T13:52:43Z</time>
      </trkpt>
      <trkpt lat="47.78388" lon="-3.54392">
        <ele>42.02</ele>
        <time>2020-07-10T13:52:44Z</time>
      </trkpt>
      <trkpt lat="47.78389" lon="-3.544">
        <ele>42</ele>
        <time>2020-07-10T13:52:45Z</time>
      </trkpt>
      <trkpt lat="47.78389" lon="-3.54408">
        <ele>41.98</ele>
        <time>2020-07-10T13:52:46Z</time>
      </trkpt>
      <trkpt lat="47.78389" lon="-3.54416">
        <ele>41.99</ele>
        <time>2020-07-10T13:52:47Z</time>
      </trkpt>
      <trkpt lat="47.78389" lon="-3.54424">
        <ele>42</ele>
        <time>2020-07-10T13:52:48Z</time>
      </trkpt>
      <trkpt lat="47.78389" lon="-3.54432">
        <ele>42</ele>
        <time>2020-07-10T13:52:49Z</time>
      </trkpt>
      <trkpt lat="47.78389" lon="-3.54439">
        <ele>41.97</ele>
        <time>2020-07-10T13:52:50Z</time>
      </trkpt>
      <trkpt lat="47.7839" lon="-3.54447">
        <ele>41.87</ele>
        <time>2020-07-10T13:52:51Z</time>
      </trkpt>
      <trkpt lat="47.7839" lon="-3.54454">
        <ele>41.66</ele>
        <time>2020-07-10T13:52:52Z</time>
      </trkpt>
      <trkpt lat="47.7839" lon="-3.54462">
        <ele>41.4</ele>
        <time>2020-07-10T13:52:53Z</time>
      </trkpt>
      <trkpt lat="47.7839" lon="-3.5447">
        <ele>41.12</ele>
        <time>2020-07-10T13:52:54Z</time>
      </trkpt>
      <trkpt lat="47.7839" lon="-3.54477">
        <ele>40.95</ele>
        <time>2020-07-10T13:52:55Z</time>
      </trkpt>
      <trkpt lat="47.78391" lon="-3.54485">
        <ele>40.9</ele>
        <time>2020-07-10T13:52:56Z</time>
      </trkpt>
      <trkpt lat="47.78391" lon="-3.54492">
        <ele>40.86</ele>
        <time>2020-07-10T13:52:57Z</time>
      </trkpt>
      <trkpt lat="47.78391" lon="-3.545">
        <ele>40.84</ele>
        <time>2020-07-10T13:52:58Z</time>
      </trkpt>
      <trkpt lat="47.78391" lon="-3.54507">
        <ele>40.68</ele>
        <time>2020-07-10T13:52:59Z</time>
      </trkpt>
      <trkpt lat="47.78391" lon="-3.54515">
        <ele>40.44</ele>
        <time>2020-07-10T13:53:00Z</time>
      </trkpt>
      <trkpt lat="47.78392" lon="-3.54523">
        <ele>40.18</ele>
        <time>2020-07-10T13:53:01Z</time>
      </trkpt>
      <trkpt lat="47.78392" lon="-3.5453">
        <ele>39.92</ele>
        <time>2020-07-10T13:53:02Z</time>
      </trkpt>
      <trkpt lat="47.78393" lon="-3.54539">
        <ele>39.61</ele>
        <time>2020-07-10T13:53:03Z</time>
      </trkpt>
      <trkpt lat="47.78393" lon="-3.54546">
        <ele>39.32</ele>
        <time>2020-07-10T13:53:04Z</time>
      </trkpt>
      <trkpt lat="47.78393" lon="-3.54554">
        <ele>39.02</ele>
        <time>2020-07-10T13:53:05Z</time>
      </trkpt>
      <trkpt lat="47.78394" lon="-3.54563">
        <ele>38.88</ele>
        <time>2020-07-10T13:53:06Z</time>
      </trkpt>
      <trkpt lat="47.78394" lon="-3.54572">
        <ele>38.84</ele>
        <time>2020-07-10T13:53:07Z</time>
      </trkpt>
      <trkpt lat="47.78393" lon="-3.54581">
        <ele>38.84</ele>
        <time>2020-07-10T13:53:08Z</time>
      </trkpt>
      <trkpt lat="47.78393" lon="-3.5459">
        <ele>38.84</ele>
        <time>2020-07-10T13:53:09Z</time>
      </trkpt>
      <trkpt lat="47.78394" lon="-3.54598">
        <ele>38.82</ele>
        <time>2020-07-10T13:53:10Z</time>
      </trkpt>
      <trkpt lat="47.78396" lon="-3.54607">
        <ele>38.77</ele>
        <time>2020-07-10T13:53:11Z</time>
      </trkpt>
      <trkpt lat="47.78398" lon="-3.54614">
        <ele>38.7</ele>
        <time>2020-07-10T13:53:12Z</time>
      </trkpt>
      <trkpt lat="47.78402" lon="-3.5462">
        <ele>38.59</ele>
        <time>2020-07-10T13:53:13Z</time>
      </trkpt>
      <trkpt lat="47.78408" lon="-3.54622">
        <ele>38.4</ele>
        <time>2020-07-10T13:53:14Z</time>
      </trkpt>
      <trkpt lat="47.78414" lon="-3.54624">
        <ele>38.18</ele>
        <time>2020-07-10T13:53:15Z</time>
      </trkpt>
      <trkpt lat="47.7842" lon="-3.54624">
        <ele>37.97</ele>
        <time>2020-07-10T13:53:16Z</time>
      </trkpt>
      <trkpt lat="47.78426" lon="-3.54624">
        <ele>37.75</ele>
        <time>2020-07-10T13:53:17Z</time>
      </trkpt>
      <trkpt lat="47.78432" lon="-3.54625">
        <ele>37.53</ele>
        <time>2020-07-10T13:53:18Z</time>
      </trkpt>
      <trkpt lat="47.78438" lon="-3.54626">
        <ele>37.31</ele>
        <time>2020-07-10T13:53:19Z</time>
      </trkpt>
      <trkpt lat="47.78444" lon="-3.54628">
        <ele>37.11</ele>
        <time>2020-07-10T13:53:20Z</time>
      </trkpt>
      <trkpt lat="47.78452" lon="-3.54634">
        <ele>36.84</ele>
        <time>2020-07-10T13:53:21Z</time>
      </trkpt>
      <trkpt lat="47.78458" lon="-3.54638">
        <ele>36.61</ele>
        <time>2020-07-10T13:53:22Z</time>
      </trkpt>
      <trkpt lat="47.78465" lon="-3.54642">
        <ele>36.4</ele>
        <time>2020-07-10T13:53:23Z</time>
      </trkpt>
      <trkpt lat="47.78471" lon="-3.54645">
        <ele>36.3</ele>
        <time>2020-07-10T13:53:24Z</time>
      </trkpt>
      <trkpt lat="47.78477" lon="-3.54647">
        <ele>36.23</ele>
        <time>2020-07-10T13:53:25Z</time>
      </trkpt>
      <trkpt lat="47.78482" lon="-3.5465">
        <ele>36.14</ele>
        <time>2020-07-10T13:53:26Z</time>
      </trkpt>
      <trkpt lat="47.78488" lon="-3.54652">
        <ele>36</ele>
        <time>2020-07-10T13:53:27Z</time>
      </trkpt>
      <trkpt lat="47.78493" lon="-3.54656">
        <ele>35.78</ele>
        <time>2020-07-10T13:53:28Z</time>
      </trkpt>
      <trkpt lat="47.78498" lon="-3.54661">
        <ele>35.45</ele>
        <time>2020-07-10T13:53:29Z</time>
      </trkpt>
      <trkpt lat="47.78501" lon="-3.54668">
        <ele>35.1</ele>
        <time>2020-07-10T13:53:30Z</time>
      </trkpt>
      <trkpt lat="47.78504" lon="-3.54676">
        <ele>34.79</ele>
        <time>2020-07-10T13:53:31Z</time>
      </trkpt>
      <trkpt lat="47.78505" lon="-3.54685">
        <ele>34.48</ele>
        <time>2020-07-10T13:53:32Z</time>
      </trkpt>
      <trkpt lat="47.78505" lon="-3.54693">
        <ele>34.18</ele>
        <time>2020-07-10T13:53:33Z</time>
      </trkpt>
      <trkpt lat="47.78503" lon="-3.547">
        <ele>34.07</ele>
        <time>2020-07-10T13:53:34Z</time>
      </trkpt>
      <trkpt lat="47.78501" lon="-3.54707">
        <ele>34.03</ele>
        <time>2020-07-10T13:53:35Z</time>
      </trkpt>
      <trkpt lat="47.78499" lon="-3.54714">
        <ele>34.04</ele>
        <time>2020-07-10T13:53:36Z</time>
      </trkpt>
      <trkpt lat="47.78497" lon="-3.54721">
        <ele>34.09</ele>
        <time>2020-07-10T13:53:37Z</time>
      </trkpt>
      <trkpt lat="47.78495" lon="-3.54728">
        <ele>34.24</ele>
        <time>2020-07-10T13:53:38Z</time>
      </trkpt>
      <trkpt lat="47.78494" lon="-3.54735">
        <ele>34.41</ele>
        <time>2020-07-10T13:53:39Z</time>
      </trkpt>
      <trkpt lat="47.78492" lon="-3.54743">
        <ele>34.54</ele>
        <time>2020-07-10T13:53:40Z</time>
      </trkpt>
      <trkpt lat="47.7849" lon="-3.5475">
        <ele>34.62</ele>
        <time>2020-07-10T13:53:41Z</time>
      </trkpt>
      <trkpt lat="47.78489" lon="-3.54757">
        <ele>34.5</ele>
        <time>2020-07-10T13:53:42Z</time>
      </trkpt>
      <trkpt lat="47.78488" lon="-3.54764">
        <ele>34.34</ele>
        <time>2020-07-10T13:53:43Z</time>
      </trkpt>
      <trkpt lat="47.78487" lon="-3.54769">
        <ele>34.23</ele>
        <time>2020-07-10T13:53:44Z</time>
      </trkpt>
      <trkpt lat="47.78486" lon="-3.54771">
        <ele>34.15</ele>
        <time>2020-07-10T13:53:45Z</time>
      </trkpt>
      <trkpt lat="47.78485" lon="-3.54773">
        <ele>34.11</ele>
        <time>2020-07-10T13:53:46Z</time>
      </trkpt>
      <trkpt lat="47.78485" lon="-3.54774">
        <ele>34.08</ele>
        <time>2020-07-10T13:53:47Z</time>
      </trkpt>
      <trkpt lat="47.78486" lon="-3.54776">
        <ele>34.05</ele>
        <time>2020-07-10T13:53:48Z</time>
      </trkpt>
      <trkpt lat="47.78488" lon="-3.54776">
        <ele>34.04</ele>
        <time>2020-07-10T13:53:49Z</time>
      </trkpt>
      <trkpt lat="47.7849" lon="-3.54777">
        <ele>34.02</ele>
        <time>2020-07-10T13:53:50Z</time>
      </trkpt>
      <trkpt lat="47.78492" lon="-3.54779">
        <ele>33.99</ele>
        <time>2020-07-10T13:53:51Z</time>
      </trkpt>
      <trkpt lat="47.78495" lon="-3.54781">
        <ele>33.94</ele>
        <time>2020-07-10T13:53:52Z</time>
      </trkpt>
      <trkpt lat="47.78498" lon="-3.54783">
        <ele>33.87</ele>
        <time>2020-07-10T13:53:53Z</time>
      </trkpt>
      <trkpt lat="47.78501" lon="-3.54785">
        <ele>33.79</ele>
        <time>2020-07-10T13:53:54Z</time>
      </trkpt>
      <trkpt lat="47.78504" lon="-3.54787">
        <ele>33.73</ele>
        <time>2020-07-10T13:53:55Z</time>
      </trkpt>
      <trkpt lat="47.78506" lon="-3.5479">
        <ele>33.67</ele>
        <time>2020-07-10T13:53:56Z</time>
      </trkpt>
      <trkpt lat="47.78508" lon="-3.54795">
        <ele>33.6</ele>
        <time>2020-07-10T13:53:57Z</time>
      </trkpt>
      <trkpt lat="47.78511" lon="-3.548">
        <ele>33.53</ele>
        <time>2020-07-10T13:53:58Z</time>
      </trkpt>
      <trkpt lat="47.78513" lon="-3.54806">
        <ele>33.49</ele>
        <time>2020-07-10T13:53:59Z</time>
      </trkpt>
      <trkpt lat="47.78515" lon="-3.54812">
        <ele>33.36</ele>
        <time>2020-07-10T13:54:00Z</time>
      </trkpt>
      <trkpt lat="47.78517" lon="-3.54819">
        <ele>33.12</ele>
        <time>2020-07-10T13:54:01Z</time>
      </trkpt>
      <trkpt lat="47.78517" lon="-3.54827">
        <ele>32.81</ele>
        <time>2020-07-10T13:54:02Z</time>
      </trkpt>
      <trkpt lat="47.78517" lon="-3.54834">
        <ele>32.54</ele>
        <time>2020-07-10T13:54:03Z</time>
      </trkpt>
      <trkpt lat="47.78515" lon="-3.54842">
        <ele>32.6</ele>
        <time>2020-07-10T13:54:04Z</time>
      </trkpt>
      <trkpt lat="47.78513" lon="-3.5485">
        <ele>32.74</ele>
        <time>2020-07-10T13:54:05Z</time>
      </trkpt>
      <trkpt lat="47.78511" lon="-3.54858">
        <ele>32.89</ele>
        <time>2020-07-10T13:54:06Z</time>
      </trkpt>
      <trkpt lat="47.78509" lon="-3.54865">
        <ele>32.97</ele>
        <time>2020-07-10T13:54:07Z</time>
      </trkpt>
      <trkpt lat="47.78507" lon="-3.54872">
        <ele>32.99</ele>
        <time>2020-07-10T13:54:08Z</time>
      </trkpt>
      <trkpt lat="47.78504" lon="-3.54878">
        <ele>33</ele>
        <time>2020-07-10T13:54:09Z</time>
      </trkpt>
      <trkpt lat="47.78504" lon="-3.54886">
        <ele>33</ele>
        <time>2020-07-10T13:54:10Z</time>
      </trkpt>
      <trkpt lat="47.78502" lon="-3.54892">
        <ele>33.08</ele>
        <time>2020-07-10T13:54:11Z</time>
      </trkpt>
      <trkpt lat="47.785" lon="-3.54899">
        <ele>33.28</ele>
        <time>2020-07-10T13:54:12Z</time>
      </trkpt>
      <trkpt lat="47.78498" lon="-3.54905">
        <ele>33.47</ele>
        <time>2020-07-10T13:54:13Z</time>
      </trkpt>
      <trkpt lat="47.78496" lon="-3.54912">
        <ele>33.64</ele>
        <time>2020-07-10T13:54:14Z</time>
      </trkpt>
      <trkpt lat="47.78494" lon="-3.54917">
        <ele>33.74</ele>
        <time>2020-07-10T13:54:15Z</time>
      </trkpt>
      <trkpt lat="47.78492" lon="-3.54922">
        <ele>33.71</ele>
        <time>2020-07-10T13:54:16Z</time>
      </trkpt>
      <trkpt lat="47.7849" lon="-3.54928">
        <ele>33.65</ele>
        <time>2020-07-10T13:54:17Z</time>
      </trkpt>
      <trkpt lat="47.78488" lon="-3.54934">
        <ele>33.58</ele>
        <time>2020-07-10T13:54:18Z</time>
      </trkpt>
      <trkpt lat="47.78486" lon="-3.54939">
        <ele>33.52</ele>
        <time>2020-07-10T13:54:19Z</time>
      </trkpt>
      <trkpt lat="47.78485" lon="-3.54944">
        <ele>33.48</ele>
        <time>2020-07-10T13:54:20Z</time>
      </trkpt>
      <trkpt lat="47.78484" lon="-3.54947">
        <ele>33.49</ele>
        <time>2020-07-10T13:54:21Z</time>
      </trkpt>
      <trkpt lat="47.78483" lon="-3.54951">
        <ele>33.52</ele>
        <time>2020-07-10T13:54:22Z</time>
      </trkpt>
      <trkpt lat="47.78482" lon="-3.54955">
        <ele>33.58</ele>
        <time>2020-07-10T13:54:23Z</time>
      </trkpt>
      <trkpt lat="47.78482" lon="-3.54958">
        <ele>33.64</ele>
        <time>2020-07-10T13:54:24Z</time>
      </trkpt>
      <trkpt lat="47.78481" lon="-3.54961">
        <ele>33.7</ele>
        <time>2020-07-10T13:54:25Z</time>
      </trkpt>
      <trkpt lat="47.78481" lon="-3.54965">
        <ele>33.79</ele>
        <time>2020-07-10T13:54:26Z</time>
      </trkpt>
      <trkpt lat="47.7848" lon="-3.5497">
        <ele>33.89</ele>
        <time>2020-07-10T13:54:27Z</time>
      </trkpt>
      <trkpt lat="47.78479" lon="-3.54973">
        <ele>33.97</ele>
        <time>2020-07-10T13:54:28Z</time>
      </trkpt>
      <trkpt lat="47.78478" lon="-3.54978">
        <ele>33.99</ele>
        <time>2020-07-10T13:54:29Z</time>
      </trkpt>
      <trkpt lat="47.78477" lon="-3.54984">
        <ele>34</ele>
        <time>2020-07-10T13:54:30Z</time>
      </trkpt>
      <trkpt lat="47.78475" lon="-3.5499">
        <ele>34</ele>
        <time>2020-07-10T13:54:31Z</time>
      </trkpt>
      <trkpt lat="47.78474" lon="-3.54996">
        <ele>34</ele>
        <time>2020-07-10T13:54:32Z</time>
      </trkpt>
      <trkpt lat="47.78472" lon="-3.55002">
        <ele>33.95</ele>
        <time>2020-07-10T13:54:33Z</time>
      </trkpt>
      <trkpt lat="47.78471" lon="-3.55007">
        <ele>33.77</ele>
        <time>2020-07-10T13:54:34Z</time>
      </trkpt>
      <trkpt lat="47.7847" lon="-3.55012">
        <ele>33.57</ele>
        <time>2020-07-10T13:54:35Z</time>
      </trkpt>
      <trkpt lat="47.78469" lon="-3.55016">
        <ele>33.37</ele>
        <time>2020-07-10T13:54:36Z</time>
      </trkpt>
      <trkpt lat="47.78468" lon="-3.55022">
        <ele>33.13</ele>
        <time>2020-07-10T13:54:37Z</time>
      </trkpt>
      <trkpt lat="47.78467" lon="-3.55028">
        <ele>32.89</ele>
        <time>2020-07-10T13:54:38Z</time>
      </trkpt>
      <trkpt lat="47.78465" lon="-3.55033">
        <ele>32.74</ele>
        <time>2020-07-10T13:54:39Z</time>
      </trkpt>
      <trkpt lat="47.78462" lon="-3.55038">
        <ele>32.58</ele>
        <time>2020-07-10T13:54:40Z</time>
      </trkpt>
      <trkpt lat="47.78461" lon="-3.55043">
        <ele>32.42</ele>
        <time>2020-07-10T13:54:41Z</time>
      </trkpt>
      <trkpt lat="47.78459" lon="-3.55048">
        <ele>32.25</ele>
        <time>2020-07-10T13:54:42Z</time>
      </trkpt>
      <trkpt lat="47.78457" lon="-3.55052">
        <ele>32.04</ele>
        <time>2020-07-10T13:54:43Z</time>
      </trkpt>
      <trkpt lat="47.78455" lon="-3.55057">
        <ele>31.84</ele>
        <time>2020-07-10T13:54:44Z</time>
      </trkpt>
      <trkpt lat="47.78454" lon="-3.55062">
        <ele>31.66</ele>
        <time>2020-07-10T13:54:45Z</time>
      </trkpt>
      <trkpt lat="47.78452" lon="-3.55068">
        <ele>31.47</ele>
        <time>2020-07-10T13:54:46Z</time>
      </trkpt>
      <trkpt lat="47.78449" lon="-3.55074">
        <ele>31.3</ele>
        <time>2020-07-10T13:54:47Z</time>
      </trkpt>
      <trkpt lat="47.78447" lon="-3.5508">
        <ele>31.17</ele>
        <time>2020-07-10T13:54:48Z</time>
      </trkpt>
      <trkpt lat="47.78445" lon="-3.55087">
        <ele>30.87</ele>
        <time>2020-07-10T13:54:49Z</time>
      </trkpt>
      <trkpt lat="47.78444" lon="-3.55095">
        <ele>30.28</ele>
        <time>2020-07-10T13:54:50Z</time>
      </trkpt>
      <trkpt lat="47.78442" lon="-3.55104">
        <ele>29.48</ele>
        <time>2020-07-10T13:54:51Z</time>
      </trkpt>
      <trkpt lat="47.7844" lon="-3.55112">
        <ele>28.76</ele>
        <time>2020-07-10T13:54:52Z</time>
      </trkpt>
      <trkpt lat="47.78437" lon="-3.55118">
        <ele>28.21</ele>
        <time>2020-07-10T13:54:53Z</time>
      </trkpt>
      <trkpt lat="47.78435" lon="-3.55124">
        <ele>27.73</ele>
        <time>2020-07-10T13:54:54Z</time>
      </trkpt>
      <trkpt lat="47.78432" lon="-3.55128">
        <ele>27.27</ele>
        <time>2020-07-10T13:54:55Z</time>
      </trkpt>
      <trkpt lat="47.78429" lon="-3.55133">
        <ele>26.79</ele>
        <time>2020-07-10T13:54:56Z</time>
      </trkpt>
      <trkpt lat="47.78426" lon="-3.55136">
        <ele>26.36</ele>
        <time>2020-07-10T13:54:57Z</time>
      </trkpt>
      <trkpt lat="47.78424" lon="-3.55137">
        <ele>25.99</ele>
        <time>2020-07-10T13:54:58Z</time>
      </trkpt>
      <trkpt lat="47.78421" lon="-3.55141">
        <ele>25.42</ele>
        <time>2020-07-10T13:54:59Z</time>
      </trkpt>
      <trkpt lat="47.78417" lon="-3.55145">
        <ele>24.52</ele>
        <time>2020-07-10T13:55:00Z</time>
      </trkpt>
      <trkpt lat="47.78412" lon="-3.55146">
        <ele>24.07</ele>
        <time>2020-07-10T13:55:01Z</time>
      </trkpt>
      <trkpt lat="47.78407" lon="-3.55147">
        <ele>23.76</ele>
        <time>2020-07-10T13:55:02Z</time>
      </trkpt>
      <trkpt lat="47.78401" lon="-3.55147">
        <ele>23.57</ele>
        <time>2020-07-10T13:55:03Z</time>
      </trkpt>
      <trkpt lat="47.78396" lon="-3.55146">
        <ele>23.45</ele>
        <time>2020-07-10T13:55:04Z</time>
      </trkpt>
      <trkpt lat="47.78391" lon="-3.55146">
        <ele>23.38</ele>
        <time>2020-07-10T13:55:05Z</time>
      </trkpt>
      <trkpt lat="47.78386" lon="-3.55146">
        <ele>23.33</ele>
        <time>2020-07-10T13:55:06Z</time>
      </trkpt>
      <trkpt lat="47.7838" lon="-3.55145">
        <ele>23.41</ele>
        <time>2020-07-10T13:55:07Z</time>
      </trkpt>
      <trkpt lat="47.78375" lon="-3.55143">
        <ele>23.54</ele>
        <time>2020-07-10T13:55:08Z</time>
      </trkpt>
      <trkpt lat="47.78368" lon="-3.55144">
        <ele>23.55</ele>
        <time>2020-07-10T13:55:09Z</time>
      </trkpt>
      <trkpt lat="47.78364" lon="-3.55144">
        <ele>23.59</ele>
        <time>2020-07-10T13:55:10Z</time>
      </trkpt>
      <trkpt lat="47.78359" lon="-3.55144">
        <ele>23.59</ele>
        <time>2020-07-10T13:55:11Z</time>
      </trkpt>
      <trkpt lat="47.78355" lon="-3.55144">
        <ele>23.6</ele>
        <time>2020-07-10T13:55:12Z</time>
      </trkpt>
      <trkpt lat="47.78352" lon="-3.55146">
        <ele>23.53</ele>
        <time>2020-07-10T13:55:13Z</time>
      </trkpt>
      <trkpt lat="47.78348" lon="-3.55148">
        <ele>23.41</ele>
        <time>2020-07-10T13:55:14Z</time>
      </trkpt>
      <trkpt lat="47.78344" lon="-3.5515">
        <ele>23.26</ele>
        <time>2020-07-10T13:55:15Z</time>
      </trkpt>
      <trkpt lat="47.7834" lon="-3.55153">
        <ele>23.07</ele>
        <time>2020-07-10T13:55:16Z</time>
      </trkpt>
      <trkpt lat="47.78336" lon="-3.55155">
        <ele>22.91</ele>
        <time>2020-07-10T13:55:17Z</time>
      </trkpt>
      <trkpt lat="47.78332" lon="-3.55157">
        <ele>22.8</ele>
        <time>2020-07-10T13:55:18Z</time>
      </trkpt>
      <trkpt lat="47.78329" lon="-3.5516">
        <ele>22.81</ele>
        <time>2020-07-10T13:55:19Z</time>
      </trkpt>
      <trkpt lat="47.78326" lon="-3.55161">
        <ele>22.88</ele>
        <time>2020-07-10T13:55:20Z</time>
      </trkpt>
      <trkpt lat="47.78322" lon="-3.55164">
        <ele>22.93</ele>
        <time>2020-07-10T13:55:21Z</time>
      </trkpt>
      <trkpt lat="47.78318" lon="-3.55167">
        <ele>23.03</ele>
        <time>2020-07-10T13:55:22Z</time>
      </trkpt>
      <trkpt lat="47.78315" lon="-3.5517">
        <ele>23.27</ele>
        <time>2020-07-10T13:55:23Z</time>
      </trkpt>
      <trkpt lat="47.78312" lon="-3.55173">
        <ele>23.48</ele>
        <time>2020-07-10T13:55:24Z</time>
      </trkpt>
      <trkpt lat="47.78308" lon="-3.55177">
        <ele>23.72</ele>
        <time>2020-07-10T13:55:25Z</time>
      </trkpt>
      <trkpt lat="47.78305" lon="-3.5518">
        <ele>23.92</ele>
        <time>2020-07-10T13:55:26Z</time>
      </trkpt>
      <trkpt lat="47.78301" lon="-3.55183">
        <ele>24.02</ele>
        <time>2020-07-10T13:55:27Z</time>
      </trkpt>
      <trkpt lat="47.78298" lon="-3.55186">
        <ele>24.06</ele>
        <time>2020-07-10T13:55:28Z</time>
      </trkpt>
      <trkpt lat="47.78295" lon="-3.55189">
        <ele>24.07</ele>
        <time>2020-07-10T13:55:29Z</time>
      </trkpt>
      <trkpt lat="47.78291" lon="-3.55193">
        <ele>24.05</ele>
        <time>2020-07-10T13:55:30Z</time>
      </trkpt>
      <trkpt lat="47.78287" lon="-3.55196">
        <ele>24.03</ele>
        <time>2020-07-10T13:55:31Z</time>
      </trkpt>
      <trkpt lat="47.78283" lon="-3.55198">
        <ele>24.09</ele>
        <time>2020-07-10T13:55:32Z</time>
      </trkpt>
      <trkpt lat="47.7828" lon="-3.55202">
        <ele>24.19</ele>
        <time>2020-07-10T13:55:33Z</time>
      </trkpt>
      <trkpt lat="47.78276" lon="-3.55206">
        <ele>24.52</ele>
        <time>2020-07-10T13:55:34Z</time>
      </trkpt>
      <trkpt lat="47.78272" lon="-3.5521">
        <ele>25.06</ele>
        <time>2020-07-10T13:55:35Z</time>
      </trkpt>
      <trkpt lat="47.78268" lon="-3.55214">
        <ele>25.61</ele>
        <time>2020-07-10T13:55:36Z</time>
      </trkpt>
      <trkpt lat="47.78265" lon="-3.55217">
        <ele>26.08</ele>
        <time>2020-07-10T13:55:37Z</time>
      </trkpt>
      <trkpt lat="47.78262" lon="-3.5522">
        <ele>26.47</ele>
        <time>2020-07-10T13:55:38Z</time>
      </trkpt>
      <trkpt lat="47.78259" lon="-3.55224">
        <ele>26.82</ele>
        <time>2020-07-10T13:55:39Z</time>
      </trkpt>
      <trkpt lat="47.78256" lon="-3.55228">
        <ele>27.19</ele>
        <time>2020-07-10T13:55:40Z</time>
      </trkpt>
      <trkpt lat="47.7825" lon="-3.55233">
        <ele>27.73</ele>
        <time>2020-07-10T13:55:41Z</time>
      </trkpt>
      <trkpt lat="47.78246" lon="-3.55236">
        <ele>28.31</ele>
        <time>2020-07-10T13:55:42Z</time>
      </trkpt>
      <trkpt lat="47.78242" lon="-3.5524">
        <ele>28.9</ele>
        <time>2020-07-10T13:55:43Z</time>
      </trkpt>
      <trkpt lat="47.78238" lon="-3.55243">
        <ele>29.45</ele>
        <time>2020-07-10T13:55:44Z</time>
      </trkpt>
      <trkpt lat="47.78235" lon="-3.55245">
        <ele>29.95</ele>
        <time>2020-07-10T13:55:45Z</time>
      </trkpt>
      <trkpt lat="47.78232" lon="-3.55247">
        <ele>30.38</ele>
        <time>2020-07-10T13:55:46Z</time>
      </trkpt>
      <trkpt lat="47.78229" lon="-3.55248">
        <ele>30.78</ele>
        <time>2020-07-10T13:55:47Z</time>
      </trkpt>
      <trkpt lat="47.78226" lon="-3.5525">
        <ele>31.27</ele>
        <time>2020-07-10T13:55:48Z</time>
      </trkpt>
      <trkpt lat="47.78222" lon="-3.55252">
        <ele>31.67</ele>
        <time>2020-07-10T13:55:49Z</time>
      </trkpt>
      <trkpt lat="47.78219" lon="-3.55254">
        <ele>31.83</ele>
        <time>2020-07-10T13:55:50Z</time>
      </trkpt>
      <trkpt lat="47.78216" lon="-3.55256">
        <ele>31.97</ele>
        <time>2020-07-10T13:55:51Z</time>
      </trkpt>
      <trkpt lat="47.78214" lon="-3.55257">
        <ele>32.09</ele>
        <time>2020-07-10T13:55:52Z</time>
      </trkpt>
      <trkpt lat="47.78212" lon="-3.55259">
        <ele>32.18</ele>
        <time>2020-07-10T13:55:53Z</time>
      </trkpt>
      <trkpt lat="47.78209" lon="-3.55261">
        <ele>32.28</ele>
        <time>2020-07-10T13:55:54Z</time>
      </trkpt>
      <trkpt lat="47.78206" lon="-3.55263">
        <ele>32.4</ele>
        <time>2020-07-10T13:55:55Z</time>
      </trkpt>
      <trkpt lat="47.78205" lon="-3.55265">
        <ele>32.5</ele>
        <time>2020-07-10T13:55:56Z</time>
      </trkpt>
      <trkpt lat="47.78202" lon="-3.55268">
        <ele>32.57</ele>
        <time>2020-07-10T13:55:57Z</time>
      </trkpt>
      <trkpt lat="47.78199" lon="-3.5527">
        <ele>32.74</ele>
        <time>2020-07-10T13:55:58Z</time>
      </trkpt>
      <trkpt lat="47.78196" lon="-3.55272">
        <ele>32.92</ele>
        <time>2020-07-10T13:55:59Z</time>
      </trkpt>
      <trkpt lat="47.78193" lon="-3.55275">
        <ele>33.11</ele>
        <time>2020-07-10T13:56:00Z</time>
      </trkpt>
      <trkpt lat="47.7819" lon="-3.55279">
        <ele>33.22</ele>
        <time>2020-07-10T13:56:01Z</time>
      </trkpt>
      <trkpt lat="47.78188" lon="-3.55282">
        <ele>33.32</ele>
        <time>2020-07-10T13:56:02Z</time>
      </trkpt>
      <trkpt lat="47.78184" lon="-3.55284">
        <ele>33.44</ele>
        <time>2020-07-10T13:56:03Z</time>
      </trkpt>
      <trkpt lat="47.78181" lon="-3.55287">
        <ele>33.57</ele>
        <time>2020-07-10T13:56:04Z</time>
      </trkpt>
      <trkpt lat="47.78178" lon="-3.55289">
        <ele>33.73</ele>
        <time>2020-07-10T13:56:05Z</time>
      </trkpt>
      <trkpt lat="47.78174" lon="-3.5529">
        <ele>33.95</ele>
        <time>2020-07-10T13:56:06Z</time>
      </trkpt>
      <trkpt lat="47.7817" lon="-3.55291">
        <ele>34.18</ele>
        <time>2020-07-10T13:56:07Z</time>
      </trkpt>
      <trkpt lat="47.78166" lon="-3.55291">
        <ele>34.44</ele>
        <time>2020-07-10T13:56:08Z</time>
      </trkpt>
      <trkpt lat="47.78163" lon="-3.55291">
        <ele>34.68</ele>
        <time>2020-07-10T13:56:09Z</time>
      </trkpt>
      <trkpt lat="47.7816" lon="-3.55292">
        <ele>34.87</ele>
        <time>2020-07-10T13:56:10Z</time>
      </trkpt>
      <trkpt lat="47.78157" lon="-3.55292">
        <ele>35.06</ele>
        <time>2020-07-10T13:56:11Z</time>
      </trkpt>
      <trkpt lat="47.78154" lon="-3.55293">
        <ele>35.26</ele>
        <time>2020-07-10T13:56:12Z</time>
      </trkpt>
      <trkpt lat="47.78151" lon="-3.55294">
        <ele>35.44</ele>
        <time>2020-07-10T13:56:13Z</time>
      </trkpt>
      <trkpt lat="47.78149" lon="-3.55295">
        <ele>35.61</ele>
        <time>2020-07-10T13:56:14Z</time>
      </trkpt>
      <trkpt lat="47.78146" lon="-3.55296">
        <ele>35.78</ele>
        <time>2020-07-10T13:56:15Z</time>
      </trkpt>
      <trkpt lat="47.78143" lon="-3.55298">
        <ele>35.91</ele>
        <time>2020-07-10T13:56:16Z</time>
      </trkpt>
      <trkpt lat="47.78141" lon="-3.55298">
        <ele>36.04</ele>
        <time>2020-07-10T13:56:17Z</time>
      </trkpt>
      <trkpt lat="47.78139" lon="-3.55299">
        <ele>36.17</ele>
        <time>2020-07-10T13:56:18Z</time>
      </trkpt>
      <trkpt lat="47.78137" lon="-3.55301">
        <ele>36.22</ele>
        <time>2020-07-10T13:56:19Z</time>
      </trkpt>
      <trkpt lat="47.78134" lon="-3.55302">
        <ele>36.27</ele>
        <time>2020-07-10T13:56:20Z</time>
      </trkpt>
      <trkpt lat="47.78132" lon="-3.55304">
        <ele>36.31</ele>
        <time>2020-07-10T13:56:21Z</time>
      </trkpt>
      <trkpt lat="47.78129" lon="-3.55305">
        <ele>36.35</ele>
        <time>2020-07-10T13:56:22Z</time>
      </trkpt>
      <trkpt lat="47.78126" lon="-3.55307">
        <ele>36.42</ele>
        <time>2020-07-10T13:56:23Z</time>
      </trkpt>
      <trkpt lat="47.78124" lon="-3.55309">
        <ele>36.51</ele>
        <time>2020-07-10T13:56:24Z</time>
      </trkpt>
      <trkpt lat="47.78121" lon="-3.55311">
        <ele>36.6</ele>
        <time>2020-07-10T13:56:25Z</time>
      </trkpt>
      <trkpt lat="47.78118" lon="-3.55312">
        <ele>36.7</ele>
        <time>2020-07-10T13:56:26Z</time>
      </trkpt>
      <trkpt lat="47.78115" lon="-3.55314">
        <ele>36.81</ele>
        <time>2020-07-10T13:56:27Z</time>
      </trkpt>
      <trkpt lat="47.78112" lon="-3.55315">
        <ele>36.93</ele>
        <time>2020-07-10T13:56:28Z</time>
      </trkpt>
      <trkpt lat="47.78109" lon="-3.55315">
        <ele>37.04</ele>
        <time>2020-07-10T13:56:29Z</time>
      </trkpt>
      <trkpt lat="47.78106" lon="-3.55316">
        <ele>37.14</ele>
        <time>2020-07-10T13:56:30Z</time>
      </trkpt>
      <trkpt lat="47.78103" lon="-3.55317">
        <ele>37.25</ele>
        <time>2020-07-10T13:56:31Z</time>
      </trkpt>
      <trkpt lat="47.781" lon="-3.55319">
        <ele>37.37</ele>
        <time>2020-07-10T13:56:32Z</time>
      </trkpt>
      <trkpt lat="47.78095" lon="-3.55321">
        <ele>37.5</ele>
        <time>2020-07-10T13:56:33Z</time>
      </trkpt>
      <trkpt lat="47.78093" lon="-3.55322">
        <ele>37.62</ele>
        <time>2020-07-10T13:56:34Z</time>
      </trkpt>
      <trkpt lat="47.78089" lon="-3.55323">
        <ele>37.74</ele>
        <time>2020-07-10T13:56:35Z</time>
      </trkpt>
      <trkpt lat="47.78085" lon="-3.55324">
        <ele>37.88</ele>
        <time>2020-07-10T13:56:36Z</time>
      </trkpt>
      <trkpt lat="47.78081" lon="-3.55325">
        <ele>38.07</ele>
        <time>2020-07-10T13:56:37Z</time>
      </trkpt>
      <trkpt lat="47.78078" lon="-3.55325">
        <ele>38.31</ele>
        <time>2020-07-10T13:56:38Z</time>
      </trkpt>
      <trkpt lat="47.78074" lon="-3.55326">
        <ele>38.59</ele>
        <time>2020-07-10T13:56:39Z</time>
      </trkpt>
      <trkpt lat="47.78069" lon="-3.55327">
        <ele>38.89</ele>
        <time>2020-07-10T13:56:40Z</time>
      </trkpt>
      <trkpt lat="47.78065" lon="-3.55328">
        <ele>39.21</ele>
        <time>2020-07-10T13:56:41Z</time>
      </trkpt>
      <trkpt lat="47.78061" lon="-3.55329">
        <ele>39.5</ele>
        <time>2020-07-10T13:56:42Z</time>
      </trkpt>
      <trkpt lat="47.78057" lon="-3.5533">
        <ele>39.77</ele>
        <time>2020-07-10T13:56:43Z</time>
      </trkpt>
      <trkpt lat="47.78054" lon="-3.55331">
        <ele>39.97</ele>
        <time>2020-07-10T13:56:44Z</time>
      </trkpt>
      <trkpt lat="47.78049" lon="-3.55332">
        <ele>40.14</ele>
        <time>2020-07-10T13:56:45Z</time>
      </trkpt>
      <trkpt lat="47.78044" lon="-3.55333">
        <ele>40.32</ele>
        <time>2020-07-10T13:56:46Z</time>
      </trkpt>
      <trkpt lat="47.7804" lon="-3.55333">
        <ele>40.49</ele>
        <time>2020-07-10T13:56:47Z</time>
      </trkpt>
      <trkpt lat="47.78035" lon="-3.55333">
        <ele>40.66</ele>
        <time>2020-07-10T13:56:48Z</time>
      </trkpt>
      <trkpt lat="47.78031" lon="-3.55333">
        <ele>40.81</ele>
        <time>2020-07-10T13:56:49Z</time>
      </trkpt>
      <trkpt lat="47.78027" lon="-3.55332">
        <ele>40.91</ele>
        <time>2020-07-10T13:56:50Z</time>
      </trkpt>
      <trkpt lat="47.78024" lon="-3.55332">
        <ele>40.85</ele>
        <time>2020-07-10T13:56:51Z</time>
      </trkpt>
      <trkpt lat="47.7802" lon="-3.55332">
        <ele>40.73</ele>
        <time>2020-07-10T13:56:52Z</time>
      </trkpt>
      <trkpt lat="47.78017" lon="-3.55332">
        <ele>40.62</ele>
        <time>2020-07-10T13:56:53Z</time>
      </trkpt>
      <trkpt lat="47.78014" lon="-3.55332">
        <ele>40.52</ele>
        <time>2020-07-10T13:56:54Z</time>
      </trkpt>
      <trkpt lat="47.78011" lon="-3.55332">
        <ele>40.43</ele>
        <time>2020-07-10T13:56:55Z</time>
      </trkpt>
      <trkpt lat="47.78009" lon="-3.55332">
        <ele>40.34</ele>
        <time>2020-07-10T13:56:56Z</time>
      </trkpt>
      <trkpt lat="47.78007" lon="-3.55332">
        <ele>40.26</ele>
        <time>2020-07-10T13:56:57Z</time>
      </trkpt>
      <trkpt lat="47.78003" lon="-3.55332">
        <ele>40.16</ele>
        <time>2020-07-10T13:56:58Z</time>
      </trkpt>
      <trkpt lat="47.78" lon="-3.55332">
        <ele>40.04</ele>
        <time>2020-07-10T13:56:59Z</time>
      </trkpt>
      <trkpt lat="47.77995" lon="-3.55331">
        <ele>39.9</ele>
        <time>2020-07-10T13:57:00Z</time>
      </trkpt>
      <trkpt lat="47.77991" lon="-3.55331">
        <ele>39.73</ele>
        <time>2020-07-10T13:57:01Z</time>
      </trkpt>
      <trkpt lat="47.77986" lon="-3.55331">
        <ele>39.56</ele>
        <time>2020-07-10T13:57:02Z</time>
      </trkpt>
      <trkpt lat="47.77981" lon="-3.55331">
        <ele>39.38</ele>
        <time>2020-07-10T13:57:03Z</time>
      </trkpt>
      <trkpt lat="47.77976" lon="-3.5533">
        <ele>39.2</ele>
        <time>2020-07-10T13:57:04Z</time>
      </trkpt>
      <trkpt lat="47.77971" lon="-3.5533">
        <ele>39.06</ele>
        <time>2020-07-10T13:57:05Z</time>
      </trkpt>
      <trkpt lat="47.77966" lon="-3.5533">
        <ele>39.02</ele>
        <time>2020-07-10T13:57:06Z</time>
      </trkpt>
      <trkpt lat="47.77962" lon="-3.5533">
        <ele>39.01</ele>
        <time>2020-07-10T13:57:07Z</time>
      </trkpt>
      <trkpt lat="47.77957" lon="-3.5533">
        <ele>39</ele>
        <time>2020-07-10T13:57:08Z</time>
      </trkpt>
      <trkpt lat="47.77953" lon="-3.55329">
        <ele>39</ele>
        <time>2020-07-10T13:57:09Z</time>
      </trkpt>
      <trkpt lat="47.77948" lon="-3.55328">
        <ele>39</ele>
        <time>2020-07-10T13:57:10Z</time>
      </trkpt>
      <trkpt lat="47.77943" lon="-3.55327">
        <ele>39</ele>
        <time>2020-07-10T13:57:11Z</time>
      </trkpt>
      <trkpt lat="47.77939" lon="-3.55327">
        <ele>39</ele>
        <time>2020-07-10T13:57:12Z</time>
      </trkpt>
      <trkpt lat="47.77933" lon="-3.55327">
        <ele>39</ele>
        <time>2020-07-10T13:57:13Z</time>
      </trkpt>
      <trkpt lat="47.77928" lon="-3.55326">
        <ele>39</ele>
        <time>2020-07-10T13:57:14Z</time>
      </trkpt>
      <trkpt lat="47.77923" lon="-3.55326">
        <ele>39</ele>
        <time>2020-07-10T13:57:15Z</time>
      </trkpt>
      <trkpt lat="47.77918" lon="-3.55326">
        <ele>39</ele>
        <time>2020-07-10T13:57:16Z</time>
      </trkpt>
      <trkpt lat="47.77913" lon="-3.55327">
        <ele>38.9</ele>
        <time>2020-07-10T13:57:17Z</time>
      </trkpt>
      <trkpt lat="47.77907" lon="-3.55329">
        <ele>38.73</ele>
        <time>2020-07-10T13:57:18Z</time>
      </trkpt>
      <trkpt lat="47.77902" lon="-3.5533">
        <ele>38.56</ele>
        <time>2020-07-10T13:57:19Z</time>
      </trkpt>
      <trkpt lat="47.77897" lon="-3.55331">
        <ele>38.37</ele>
        <time>2020-07-10T13:57:20Z</time>
      </trkpt>
      <trkpt lat="47.77891" lon="-3.55331">
        <ele>38.18</ele>
        <time>2020-07-10T13:57:21Z</time>
      </trkpt>
      <trkpt lat="47.77886" lon="-3.55332">
        <ele>38.05</ele>
        <time>2020-07-10T13:57:22Z</time>
      </trkpt>
      <trkpt lat="47.7788" lon="-3.55333">
        <ele>38.02</ele>
        <time>2020-07-10T13:57:23Z</time>
      </trkpt>
      <trkpt lat="47.77874" lon="-3.55334">
        <ele>38.01</ele>
        <time>2020-07-10T13:57:24Z</time>
      </trkpt>
      <trkpt lat="47.77867" lon="-3.55334">
        <ele>38</ele>
        <time>2020-07-10T13:57:25Z</time>
      </trkpt>
      <trkpt lat="47.77861" lon="-3.55333">
        <ele>38</ele>
        <time>2020-07-10T13:57:26Z</time>
      </trkpt>
      <trkpt lat="47.77855" lon="-3.55333">
        <ele>37.85</ele>
        <time>2020-07-10T13:57:27Z</time>
      </trkpt>
      <trkpt lat="47.7785" lon="-3.55333">
        <ele>37.67</ele>
        <time>2020-07-10T13:57:28Z</time>
      </trkpt>
      <trkpt lat="47.77844" lon="-3.55333">
        <ele>37.47</ele>
        <time>2020-07-10T13:57:29Z</time>
      </trkpt>
      <trkpt lat="47.77838" lon="-3.55333">
        <ele>37.27</ele>
        <time>2020-07-10T13:57:30Z</time>
      </trkpt>
      <trkpt lat="47.77832" lon="-3.55332">
        <ele>37.11</ele>
        <time>2020-07-10T13:57:31Z</time>
      </trkpt>
      <trkpt lat="47.77826" lon="-3.55332">
        <ele>37.06</ele>
        <time>2020-07-10T13:57:32Z</time>
      </trkpt>
      <trkpt lat="47.77821" lon="-3.55333">
        <ele>37.03</ele>
        <time>2020-07-10T13:57:33Z</time>
      </trkpt>
      <trkpt lat="47.77816" lon="-3.55333">
        <ele>37.02</ele>
        <time>2020-07-10T13:57:34Z</time>
      </trkpt>
      <trkpt lat="47.77811" lon="-3.55333">
        <ele>37.02</ele>
        <time>2020-07-10T13:57:35Z</time>
      </trkpt>
      <trkpt lat="47.77806" lon="-3.55333">
        <ele>37.02</ele>
        <time>2020-07-10T13:57:36Z</time>
      </trkpt>
      <trkpt lat="47.77801" lon="-3.55331">
        <ele>37.07</ele>
        <time>2020-07-10T13:57:37Z</time>
      </trkpt>
      <trkpt lat="47.77798" lon="-3.55327">
        <ele>37.18</ele>
        <time>2020-07-10T13:57:38Z</time>
      </trkpt>
      <trkpt lat="47.77796" lon="-3.55322">
        <ele>37.33</ele>
        <time>2020-07-10T13:57:39Z</time>
      </trkpt>
      <trkpt lat="47.77793" lon="-3.55318">
        <ele>37.49</ele>
        <time>2020-07-10T13:57:40Z</time>
      </trkpt>
      <trkpt lat="47.7779" lon="-3.55315">
        <ele>37.6</ele>
        <time>2020-07-10T13:57:41Z</time>
      </trkpt>
      <trkpt lat="47.77786" lon="-3.55315">
        <ele>37.63</ele>
        <time>2020-07-10T13:57:42Z</time>
      </trkpt>
      <trkpt lat="47.77781" lon="-3.55316">
        <ele>37.62</ele>
        <time>2020-07-10T13:57:43Z</time>
      </trkpt>
      <trkpt lat="47.77777" lon="-3.55318">
        <ele>37.58</ele>
        <time>2020-07-10T13:57:44Z</time>
      </trkpt>
      <trkpt lat="47.77773" lon="-3.55318">
        <ele>37.55</ele>
        <time>2020-07-10T13:57:45Z</time>
      </trkpt>
      <trkpt lat="47.7777" lon="-3.5532">
        <ele>37.5</ele>
        <time>2020-07-10T13:57:46Z</time>
      </trkpt>
      <trkpt lat="47.77766" lon="-3.55321">
        <ele>37.46</ele>
        <time>2020-07-10T13:57:47Z</time>
      </trkpt>
      <trkpt lat="47.77763" lon="-3.55323">
        <ele>37.41</ele>
        <time>2020-07-10T13:57:48Z</time>
      </trkpt>
      <trkpt lat="47.77758" lon="-3.55327">
        <ele>37.29</ele>
        <time>2020-07-10T13:57:49Z</time>
      </trkpt>
      <trkpt lat="47.77754" lon="-3.5533">
        <ele>37.18</ele>
        <time>2020-07-10T13:57:50Z</time>
      </trkpt>
      <trkpt lat="47.77751" lon="-3.55333">
        <ele>37.06</ele>
        <time>2020-07-10T13:57:51Z</time>
      </trkpt>
      <trkpt lat="47.77748" lon="-3.55337">
        <ele>36.93</ele>
        <time>2020-07-10T13:57:52Z</time>
      </trkpt>
      <trkpt lat="47.77745" lon="-3.55341">
        <ele>36.78</ele>
        <time>2020-07-10T13:57:53Z</time>
      </trkpt>
      <trkpt lat="47.77741" lon="-3.55344">
        <ele>36.66</ele>
        <time>2020-07-10T13:57:54Z</time>
      </trkpt>
      <trkpt lat="47.77736" lon="-3.55347">
        <ele>36.55</ele>
        <time>2020-07-10T13:57:55Z</time>
      </trkpt>
      <trkpt lat="47.77728" lon="-3.5535">
        <ele>36.45</ele>
        <time>2020-07-10T13:57:56Z</time>
      </trkpt>
      <trkpt lat="47.77721" lon="-3.55351">
        <ele>36.35</ele>
        <time>2020-07-10T13:57:57Z</time>
      </trkpt>
      <trkpt lat="47.77715" lon="-3.55353">
        <ele>36.13</ele>
        <time>2020-07-10T13:57:58Z</time>
      </trkpt>
      <trkpt lat="47.77709" lon="-3.55353">
        <ele>35.91</ele>
        <time>2020-07-10T13:57:59Z</time>
      </trkpt>
      <trkpt lat="47.77704" lon="-3.55353">
        <ele>35.71</ele>
        <time>2020-07-10T13:58:00Z</time>
      </trkpt>
      <trkpt lat="47.77698" lon="-3.55353">
        <ele>35.52</ele>
        <time>2020-07-10T13:58:01Z</time>
      </trkpt>
      <trkpt lat="47.77693" lon="-3.55353">
        <ele>35.38</ele>
        <time>2020-07-10T13:58:02Z</time>
      </trkpt>
      <trkpt lat="47.77688" lon="-3.55353">
        <ele>35.42</ele>
        <time>2020-07-10T13:58:03Z</time>
      </trkpt>
      <trkpt lat="47.77684" lon="-3.55355">
        <ele>35.5</ele>
        <time>2020-07-10T13:58:04Z</time>
      </trkpt>
      <trkpt lat="47.77679" lon="-3.55355">
        <ele>35.6</ele>
        <time>2020-07-10T13:58:05Z</time>
      </trkpt>
      <trkpt lat="47.77676" lon="-3.55355">
        <ele>35.7</ele>
        <time>2020-07-10T13:58:06Z</time>
      </trkpt>
      <trkpt lat="47.77672" lon="-3.55355">
        <ele>35.81</ele>
        <time>2020-07-10T13:58:07Z</time>
      </trkpt>
      <trkpt lat="47.77668" lon="-3.55354">
        <ele>35.92</ele>
        <time>2020-07-10T13:58:08Z</time>
      </trkpt>
      <trkpt lat="47.77664" lon="-3.55354">
        <ele>36.06</ele>
        <time>2020-07-10T13:58:09Z</time>
      </trkpt>
      <trkpt lat="47.77659" lon="-3.55353">
        <ele>36.22</ele>
        <time>2020-07-10T13:58:10Z</time>
      </trkpt>
      <trkpt lat="47.77654" lon="-3.55353">
        <ele>36.39</ele>
        <time>2020-07-10T13:58:11Z</time>
      </trkpt>
      <trkpt lat="47.7765" lon="-3.55353">
        <ele>36.55</ele>
        <time>2020-07-10T13:58:12Z</time>
      </trkpt>
      <trkpt lat="47.77645" lon="-3.55355">
        <ele>36.7</ele>
        <time>2020-07-10T13:58:13Z</time>
      </trkpt>
      <trkpt lat="47.77641" lon="-3.55357">
        <ele>36.85</ele>
        <time>2020-07-10T13:58:14Z</time>
      </trkpt>
      <trkpt lat="47.77637" lon="-3.55359">
        <ele>36.96</ele>
        <time>2020-07-10T13:58:15Z</time>
      </trkpt>
      <trkpt lat="47.77634" lon="-3.55361">
        <ele>36.99</ele>
        <time>2020-07-10T13:58:16Z</time>
      </trkpt>
      <trkpt lat="47.7763" lon="-3.55362">
        <ele>36.97</ele>
        <time>2020-07-10T13:58:17Z</time>
      </trkpt>
      <trkpt lat="47.77626" lon="-3.55363">
        <ele>36.93</ele>
        <time>2020-07-10T13:58:18Z</time>
      </trkpt>
      <trkpt lat="47.77621" lon="-3.55364">
        <ele>36.9</ele>
        <time>2020-07-10T13:58:19Z</time>
      </trkpt>
      <trkpt lat="47.77617" lon="-3.55366">
        <ele>36.86</ele>
        <time>2020-07-10T13:58:20Z</time>
      </trkpt>
      <trkpt lat="47.77612" lon="-3.55367">
        <ele>36.82</ele>
        <time>2020-07-10T13:58:21Z</time>
      </trkpt>
      <trkpt lat="47.77608" lon="-3.55368">
        <ele>36.86</ele>
        <time>2020-07-10T13:58:22Z</time>
      </trkpt>
      <trkpt lat="47.77604" lon="-3.55368">
        <ele>36.95</ele>
        <time>2020-07-10T13:58:23Z</time>
      </trkpt>
      <trkpt lat="47.77599" lon="-3.5537">
        <ele>37.07</ele>
        <time>2020-07-10T13:58:24Z</time>
      </trkpt>
      <trkpt lat="47.77595" lon="-3.55371">
        <ele>37.18</ele>
        <time>2020-07-10T13:58:25Z</time>
      </trkpt>
      <trkpt lat="47.7759" lon="-3.55372">
        <ele>37.32</ele>
        <time>2020-07-10T13:58:26Z</time>
      </trkpt>
      <trkpt lat="47.77585" lon="-3.55372">
        <ele>37.48</ele>
        <time>2020-07-10T13:58:27Z</time>
      </trkpt>
      <trkpt lat="47.7758" lon="-3.55373">
        <ele>37.68</ele>
        <time>2020-07-10T13:58:28Z</time>
      </trkpt>
      <trkpt lat="47.77574" lon="-3.55373">
        <ele>37.93</ele>
        <time>2020-07-10T13:58:29Z</time>
      </trkpt>
      <trkpt lat="47.77569" lon="-3.55373">
        <ele>38.19</ele>
        <time>2020-07-10T13:58:30Z</time>
      </trkpt>
      <trkpt lat="47.77564" lon="-3.55373">
        <ele>38.44</ele>
        <time>2020-07-10T13:58:31Z</time>
      </trkpt>
      <trkpt lat="47.77559" lon="-3.55374">
        <ele>38.72</ele>
        <time>2020-07-10T13:58:32Z</time>
      </trkpt>
      <trkpt lat="47.77553" lon="-3.55375">
        <ele>38.86</ele>
        <time>2020-07-10T13:58:33Z</time>
      </trkpt>
      <trkpt lat="47.77548" lon="-3.55376">
        <ele>38.76</ele>
        <time>2020-07-10T13:58:34Z</time>
      </trkpt>
      <trkpt lat="47.77542" lon="-3.55378">
        <ele>38.6</ele>
        <time>2020-07-10T13:58:35Z</time>
      </trkpt>
      <trkpt lat="47.77538" lon="-3.55379">
        <ele>38.43</ele>
        <time>2020-07-10T13:58:36Z</time>
      </trkpt>
      <trkpt lat="47.77533" lon="-3.55381">
        <ele>38.25</ele>
        <time>2020-07-10T13:58:37Z</time>
      </trkpt>
      <trkpt lat="47.77528" lon="-3.55382">
        <ele>38.07</ele>
        <time>2020-07-10T13:58:38Z</time>
      </trkpt>
      <trkpt lat="47.77523" lon="-3.55383">
        <ele>37.9</ele>
        <time>2020-07-10T13:58:39Z</time>
      </trkpt>
      <trkpt lat="47.77518" lon="-3.55382">
        <ele>37.72</ele>
        <time>2020-07-10T13:58:40Z</time>
      </trkpt>
      <trkpt lat="47.77512" lon="-3.5538">
        <ele>37.51</ele>
        <time>2020-07-10T13:58:41Z</time>
      </trkpt>
      <trkpt lat="47.77506" lon="-3.55377">
        <ele>37.32</ele>
        <time>2020-07-10T13:58:42Z</time>
      </trkpt>
      <trkpt lat="47.77502" lon="-3.55373">
        <ele>37.14</ele>
        <time>2020-07-10T13:58:43Z</time>
      </trkpt>
      <trkpt lat="47.77497" lon="-3.55369">
        <ele>37.1</ele>
        <time>2020-07-10T13:58:44Z</time>
      </trkpt>
      <trkpt lat="47.77492" lon="-3.55365">
        <ele>37.2</ele>
        <time>2020-07-10T13:58:45Z</time>
      </trkpt>
      <trkpt lat="47.77488" lon="-3.5536">
        <ele>37.38</ele>
        <time>2020-07-10T13:58:46Z</time>
      </trkpt>
      <trkpt lat="47.77483" lon="-3.55356">
        <ele>37.6</ele>
        <time>2020-07-10T13:58:47Z</time>
      </trkpt>
      <trkpt lat="47.77478" lon="-3.55352">
        <ele>37.78</ele>
        <time>2020-07-10T13:58:48Z</time>
      </trkpt>
      <trkpt lat="47.77473" lon="-3.55347">
        <ele>37.92</ele>
        <time>2020-07-10T13:58:49Z</time>
      </trkpt>
      <trkpt lat="47.77469" lon="-3.55343">
        <ele>37.95</ele>
        <time>2020-07-10T13:58:50Z</time>
      </trkpt>
      <trkpt lat="47.77464" lon="-3.55338">
        <ele>37.95</ele>
        <time>2020-07-10T13:58:51Z</time>
      </trkpt>
      <trkpt lat="47.7746" lon="-3.55333">
        <ele>37.99</ele>
        <time>2020-07-10T13:58:52Z</time>
      </trkpt>
      <trkpt lat="47.77455" lon="-3.55328">
        <ele>38</ele>
        <time>2020-07-10T13:58:53Z</time>
      </trkpt>
      <trkpt lat="47.7745" lon="-3.55324">
        <ele>38</ele>
        <time>2020-07-10T13:58:54Z</time>
      </trkpt>
      <trkpt lat="47.77445" lon="-3.5532">
        <ele>38</ele>
        <time>2020-07-10T13:58:55Z</time>
      </trkpt>
      <trkpt lat="47.77441" lon="-3.55316">
        <ele>38.06</ele>
        <time>2020-07-10T13:58:56Z</time>
      </trkpt>
      <trkpt lat="47.77436" lon="-3.55311">
        <ele>38.18</ele>
        <time>2020-07-10T13:58:57Z</time>
      </trkpt>
      <trkpt lat="47.77432" lon="-3.55307">
        <ele>38.35</ele>
        <time>2020-07-10T13:58:58Z</time>
      </trkpt>
      <trkpt lat="47.77428" lon="-3.55302">
        <ele>38.56</ele>
        <time>2020-07-10T13:58:59Z</time>
      </trkpt>
      <trkpt lat="47.77423" lon="-3.55298">
        <ele>38.76</ele>
        <time>2020-07-10T13:59:00Z</time>
      </trkpt>
      <trkpt lat="47.77418" lon="-3.55293">
        <ele>38.9</ele>
        <time>2020-07-10T13:59:01Z</time>
      </trkpt>
      <trkpt lat="47.77414" lon="-3.55288">
        <ele>38.99</ele>
        <time>2020-07-10T13:59:02Z</time>
      </trkpt>
      <trkpt lat="47.7741" lon="-3.55284">
        <ele>39.03</ele>
        <time>2020-07-10T13:59:03Z</time>
      </trkpt>
      <trkpt lat="47.77405" lon="-3.55279">
        <ele>39.02</ele>
        <time>2020-07-10T13:59:04Z</time>
      </trkpt>
      <trkpt lat="47.77401" lon="-3.55275">
        <ele>38.95</ele>
        <time>2020-07-10T13:59:05Z</time>
      </trkpt>
      <trkpt lat="47.77395" lon="-3.55271">
        <ele>38.81</ele>
        <time>2020-07-10T13:59:06Z</time>
      </trkpt>
      <trkpt lat="47.77391" lon="-3.55267">
        <ele>38.66</ele>
        <time>2020-07-10T13:59:07Z</time>
      </trkpt>
      <trkpt lat="47.77386" lon="-3.55262">
        <ele>38.55</ele>
        <time>2020-07-10T13:59:08Z</time>
      </trkpt>
      <trkpt lat="47.77381" lon="-3.55258">
        <ele>38.51</ele>
        <time>2020-07-10T13:59:09Z</time>
      </trkpt>
      <trkpt lat="47.77376" lon="-3.55254">
        <ele>38.53</ele>
        <time>2020-07-10T13:59:10Z</time>
      </trkpt>
      <trkpt lat="47.77371" lon="-3.55251">
        <ele>38.61</ele>
        <time>2020-07-10T13:59:11Z</time>
      </trkpt>
      <trkpt lat="47.77367" lon="-3.55246">
        <ele>38.66</ele>
        <time>2020-07-10T13:59:12Z</time>
      </trkpt>
      <trkpt lat="47.77362" lon="-3.55242">
        <ele>38.67</ele>
        <time>2020-07-10T13:59:13Z</time>
      </trkpt>
      <trkpt lat="47.77358" lon="-3.55238">
        <ele>38.62</ele>
        <time>2020-07-10T13:59:14Z</time>
      </trkpt>
      <trkpt lat="47.77353" lon="-3.55234">
        <ele>38.59</ele>
        <time>2020-07-10T13:59:15Z</time>
      </trkpt>
      <trkpt lat="47.77349" lon="-3.5523">
        <ele>38.6</ele>
        <time>2020-07-10T13:59:16Z</time>
      </trkpt>
      <trkpt lat="47.77344" lon="-3.55226">
        <ele>38.66</ele>
        <time>2020-07-10T13:59:17Z</time>
      </trkpt>
      <trkpt lat="47.77339" lon="-3.55223">
        <ele>38.75</ele>
        <time>2020-07-10T13:59:18Z</time>
      </trkpt>
      <trkpt lat="47.77335" lon="-3.55219">
        <ele>38.81</ele>
        <time>2020-07-10T13:59:19Z</time>
      </trkpt>
      <trkpt lat="47.77331" lon="-3.55215">
        <ele>38.77</ele>
        <time>2020-07-10T13:59:20Z</time>
      </trkpt>
      <trkpt lat="47.77325" lon="-3.55208">
        <ele>38.58</ele>
        <time>2020-07-10T13:59:22Z</time>
      </trkpt>
      <trkpt lat="47.77322" lon="-3.55206">
        <ele>38.48</ele>
        <time>2020-07-10T13:59:23Z</time>
      </trkpt>
      <trkpt lat="47.77318" lon="-3.55205">
        <ele>38.4</ele>
        <time>2020-07-10T13:59:24Z</time>
      </trkpt>
      <trkpt lat="47.77314" lon="-3.55202">
        <ele>38.31</ele>
        <time>2020-07-10T13:59:25Z</time>
      </trkpt>
      <trkpt lat="47.77312" lon="-3.552">
        <ele>38.23</ele>
        <time>2020-07-10T13:59:26Z</time>
      </trkpt>
      <trkpt lat="47.77308" lon="-3.55198">
        <ele>38.16</ele>
        <time>2020-07-10T13:59:27Z</time>
      </trkpt>
      <trkpt lat="47.77304" lon="-3.55196">
        <ele>38.1</ele>
        <time>2020-07-10T13:59:28Z</time>
      </trkpt>
      <trkpt lat="47.773" lon="-3.55193">
        <ele>38.02</ele>
        <time>2020-07-10T13:59:29Z</time>
      </trkpt>
      <trkpt lat="47.77296" lon="-3.55191">
        <ele>37.98</ele>
        <time>2020-07-10T13:59:30Z</time>
      </trkpt>
      <trkpt lat="47.77293" lon="-3.55189">
        <ele>37.92</ele>
        <time>2020-07-10T13:59:31Z</time>
      </trkpt>
      <trkpt lat="47.77288" lon="-3.55187">
        <ele>37.86</ele>
        <time>2020-07-10T13:59:32Z</time>
      </trkpt>
      <trkpt lat="47.77284" lon="-3.55185">
        <ele>37.78</ele>
        <time>2020-07-10T13:59:33Z</time>
      </trkpt>
      <trkpt lat="47.77282" lon="-3.55182">
        <ele>37.65</ele>
        <time>2020-07-10T13:59:34Z</time>
      </trkpt>
      <trkpt lat="47.77281" lon="-3.55177">
        <ele>37.52</ele>
        <time>2020-07-10T13:59:35Z</time>
      </trkpt>
      <trkpt lat="47.77281" lon="-3.55172">
        <ele>37.35</ele>
        <time>2020-07-10T13:59:36Z</time>
      </trkpt>
      <trkpt lat="47.77281" lon="-3.55166">
        <ele>37.19</ele>
        <time>2020-07-10T13:59:37Z</time>
      </trkpt>
      <trkpt lat="47.77282" lon="-3.5516">
        <ele>37.13</ele>
        <time>2020-07-10T13:59:38Z</time>
      </trkpt>
      <trkpt lat="47.77282" lon="-3.55154">
        <ele>37.09</ele>
        <time>2020-07-10T13:59:39Z</time>
      </trkpt>
      <trkpt lat="47.77281" lon="-3.55147">
        <ele>37.05</ele>
        <time>2020-07-10T13:59:40Z</time>
      </trkpt>
      <trkpt lat="47.7728" lon="-3.5514">
        <ele>37.02</ele>
        <time>2020-07-10T13:59:41Z</time>
      </trkpt>
      <trkpt lat="47.7728" lon="-3.55132">
        <ele>36.82</ele>
        <time>2020-07-10T13:59:42Z</time>
      </trkpt>
      <trkpt lat="47.77281" lon="-3.55123">
        <ele>36.5</ele>
        <time>2020-07-10T13:59:43Z</time>
      </trkpt>
      <trkpt lat="47.77281" lon="-3.55115">
        <ele>36.17</ele>
        <time>2020-07-10T13:59:44Z</time>
      </trkpt>
      <trkpt lat="47.77281" lon="-3.55107">
        <ele>35.76</ele>
        <time>2020-07-10T13:59:45Z</time>
      </trkpt>
      <trkpt lat="47.77282" lon="-3.55099">
        <ele>35.25</ele>
        <time>2020-07-10T13:59:46Z</time>
      </trkpt>
      <trkpt lat="47.77283" lon="-3.55092">
        <ele>34.78</ele>
        <time>2020-07-10T13:59:47Z</time>
      </trkpt>
      <trkpt lat="47.77283" lon="-3.55087">
        <ele>34.4</ele>
        <time>2020-07-10T13:59:48Z</time>
      </trkpt>
      <trkpt lat="47.77283" lon="-3.55084">
        <ele>34.17</ele>
        <time>2020-07-10T13:59:49Z</time>
      </trkpt>
      <trkpt lat="47.77281" lon="-3.55084">
        <ele>34.07</ele>
        <time>2020-07-10T13:59:50Z</time>
      </trkpt>
      <trkpt lat="47.77279" lon="-3.55085">
        <ele>34.09</ele>
        <time>2020-07-10T13:59:51Z</time>
      </trkpt>
      <trkpt lat="47.77277" lon="-3.55087">
        <ele>34.22</ele>
        <time>2020-07-10T13:59:52Z</time>
      </trkpt>
      <trkpt lat="47.77276" lon="-3.55091">
        <ele>34.46</ele>
        <time>2020-07-10T13:59:53Z</time>
      </trkpt>
      <trkpt lat="47.77276" lon="-3.55096">
        <ele>34.74</ele>
        <time>2020-07-10T13:59:54Z</time>
      </trkpt>
      <trkpt lat="47.77276" lon="-3.551">
        <ele>35.04</ele>
        <time>2020-07-10T13:59:55Z</time>
      </trkpt>
      <trkpt lat="47.77276" lon="-3.55103">
        <ele>35.27</ele>
        <time>2020-07-10T13:59:56Z</time>
      </trkpt>
      <trkpt lat="47.77273" lon="-3.55104">
        <ele>35.34</ele>
        <time>2020-07-10T13:59:57Z</time>
      </trkpt>
      <trkpt lat="47.7727" lon="-3.55104">
        <ele>35.32</ele>
        <time>2020-07-10T13:59:58Z</time>
      </trkpt>
      <trkpt lat="47.77268" lon="-3.55104">
        <ele>35.25</ele>
        <time>2020-07-10T13:59:59Z</time>
      </trkpt>
      <trkpt lat="47.77267" lon="-3.55104">
        <ele>35.21</ele>
        <time>2020-07-10T14:00:00Z</time>
      </trkpt>
      <trkpt lat="47.77265" lon="-3.55104">
        <ele>35.16</ele>
        <time>2020-07-10T14:00:01Z</time>
      </trkpt>
      <trkpt lat="47.77264" lon="-3.55103">
        <ele>35.09</ele>
        <time>2020-07-10T14:00:02Z</time>
      </trkpt>
      <trkpt lat="47.77263" lon="-3.55104">
        <ele>35.07</ele>
        <time>2020-07-10T14:00:03Z</time>
      </trkpt>
      <trkpt lat="47.77262" lon="-3.55105">
        <ele>35.1</ele>
        <time>2020-07-10T14:00:04Z</time>
      </trkpt>
      <trkpt lat="47.77261" lon="-3.55105">
        <ele>35.11</ele>
        <time>2020-07-10T14:00:05Z</time>
      </trkpt>
      <trkpt lat="47.77261" lon="-3.55106">
        <ele>35.12</ele>
        <time>2020-07-10T14:00:06Z</time>
      </trkpt>
      <trkpt lat="47.77261" lon="-3.55107">
        <ele>35.16</ele>
        <time>2020-07-10T14:00:07Z</time>
      </trkpt>
      <trkpt lat="47.77261" lon="-3.55107">
        <ele>35.17</ele>
        <time>2020-07-10T14:00:08Z</time>
      </trkpt>
      <trkpt lat="47.77261" lon="-3.55107">
        <ele>35.17</ele>
        <time>2020-07-10T14:00:09Z</time>
      </trkpt>
      <trkpt lat="47.77261" lon="-3.55107">
        <ele>35.17</ele>
        <time>2020-07-10T14:00:10Z</time>
      </trkpt>
      <trkpt lat="47.77261" lon="-3.55107">
        <ele>35.17</ele>
        <time>2020-07-10T14:00:11Z</time>
      </trkpt>
      <trkpt lat="47.77261" lon="-3.55107">
        <ele>35.17</ele>
        <time>2020-07-10T14:00:12Z</time>
      </trkpt>
      <trkpt lat="47.77261" lon="-3.55107">
        <ele>35.17</ele>
        <time>2020-07-10T14:00:13Z</time>
      </trkpt>
      <trkpt lat="47.77261" lon="-3.55107">
        <ele>35.17</ele>
        <time>2020-07-10T14:00:14Z</time>
      </trkpt>
      <trkpt lat="47.77261" lon="-3.55107">
        <ele>35.17</ele>
        <time>2020-07-10T14:00:15Z</time>
      </trkpt>
      <trkpt lat="47.77261" lon="-3.55107">
        <ele>35.17</ele>
        <time>2020-07-10T14:00:16Z</time>
      </trkpt>
      <trkpt lat="47.77261" lon="-3.55107">
        <ele>35.17</ele>
        <time>2020-07-10T14:00:17Z</time>
      </trkpt>
      <trkpt lat="47.77261" lon="-3.55107">
        <ele>35.17</ele>
        <time>2020-07-10T14:00:18Z</time>
      </trkpt>
      <trkpt lat="47.77261" lon="-3.55107">
        <ele>35.17</ele>
        <time>2020-07-10T14:00:19Z</time>
      </trkpt>
    </trkseg>
  </trk>
</gpx>